<?xml version="1.0" encoding="UTF-8" standalone="no" ?>
<gpx xmlns="http://www.topografix.com/GPX/1/1" xmlns:xsi="http://www.w3.org/2001/XMLSchema-instance" xsi:schemaLocation="http://www.topografix.com/GPX/1/1 http://www.topografix.com/GPX/1/1/gpx.xsd" version="1.1" creator="VisuGPX - https://www.visugpx.com">
  <metadata>
    <name>1ère sortie avec Mimi</name>
    <desc><![CDATA[Un départ chacun de son côté Mimi de Neuvic, moi de Clergoux.
Rencontre presque au pont des Bouiges sur la Luzège.]]></desc>
  </metadata>
  <trk>
    <name><![CDATA[Cycling]]></name>
    <cmt><![CDATA[1366.7 kcal (5718.4 kJ)
Avg.: 21.7 km/h
Max.: 56.1 km/h
Pace: 2.8 min/km
Climbed: 821.0 m
]]></cmt>
    <trkseg>
      <trkpt lat="45.28266" lon="1.96959">
        <ele>613</ele>
        <time>2012-03-25T09:01:57Z</time>
      </trkpt>
      <trkpt lat="45.28267" lon="1.96966">
        <ele>610</ele>
        <time>2012-03-25T09:01:58Z</time>
      </trkpt>
      <trkpt lat="45.28267" lon="1.96966">
        <ele>608</ele>
        <time>2012-03-25T09:01:59Z</time>
      </trkpt>
      <trkpt lat="45.28267" lon="1.96966">
        <ele>608</ele>
        <time>2012-03-25T09:02:01Z</time>
      </trkpt>
      <trkpt lat="45.28267" lon="1.96968">
        <ele>605</ele>
        <time>2012-03-25T09:02:02Z</time>
      </trkpt>
      <trkpt lat="45.28267" lon="1.9697">
        <ele>602</ele>
        <time>2012-03-25T09:02:03Z</time>
      </trkpt>
      <trkpt lat="45.28268" lon="1.96972">
        <ele>598</ele>
        <time>2012-03-25T09:02:05Z</time>
      </trkpt>
      <trkpt lat="45.28268" lon="1.96973">
        <ele>597</ele>
        <time>2012-03-25T09:02:06Z</time>
      </trkpt>
      <trkpt lat="45.28269" lon="1.96975">
        <ele>596</ele>
        <time>2012-03-25T09:02:07Z</time>
      </trkpt>
      <trkpt lat="45.28269" lon="1.96975">
        <ele>596</ele>
        <time>2012-03-25T09:02:10Z</time>
      </trkpt>
      <trkpt lat="45.28269" lon="1.96972">
        <ele>598</ele>
        <time>2012-03-25T09:02:11Z</time>
      </trkpt>
      <trkpt lat="45.2827" lon="1.96974">
        <ele>598</ele>
        <time>2012-03-25T09:02:13Z</time>
      </trkpt>
      <trkpt lat="45.28271" lon="1.96977">
        <ele>598</ele>
        <time>2012-03-25T09:02:14Z</time>
      </trkpt>
      <trkpt lat="45.28271" lon="1.96977">
        <ele>598</ele>
        <time>2012-03-25T09:02:15Z</time>
      </trkpt>
      <trkpt lat="45.28271" lon="1.96976">
        <ele>598</ele>
        <time>2012-03-25T09:02:17Z</time>
      </trkpt>
      <trkpt lat="45.2827" lon="1.96975">
        <ele>598</ele>
        <time>2012-03-25T09:02:18Z</time>
      </trkpt>
      <trkpt lat="45.2827" lon="1.96976">
        <ele>599</ele>
        <time>2012-03-25T09:02:19Z</time>
      </trkpt>
      <trkpt lat="45.28271" lon="1.96976">
        <ele>600</ele>
        <time>2012-03-25T09:02:21Z</time>
      </trkpt>
      <trkpt lat="45.2827" lon="1.96978">
        <ele>601</ele>
        <time>2012-03-25T09:02:22Z</time>
      </trkpt>
      <trkpt lat="45.28269" lon="1.9698">
        <ele>601</ele>
        <time>2012-03-25T09:02:23Z</time>
      </trkpt>
      <trkpt lat="45.28267" lon="1.96984">
        <ele>602</ele>
        <time>2012-03-25T09:02:25Z</time>
      </trkpt>
      <trkpt lat="45.28262" lon="1.96989">
        <ele>603</ele>
        <time>2012-03-25T09:02:26Z</time>
      </trkpt>
      <trkpt lat="45.28262" lon="1.96992">
        <ele>603</ele>
        <time>2012-03-25T09:02:27Z</time>
      </trkpt>
      <trkpt lat="45.28262" lon="1.96995">
        <ele>603</ele>
        <time>2012-03-25T09:02:29Z</time>
      </trkpt>
      <trkpt lat="45.28265" lon="1.97">
        <ele>604</ele>
        <time>2012-03-25T09:02:30Z</time>
      </trkpt>
      <trkpt lat="45.28266" lon="1.97003">
        <ele>604</ele>
        <time>2012-03-25T09:02:31Z</time>
      </trkpt>
      <trkpt lat="45.28268" lon="1.97007">
        <ele>604</ele>
        <time>2012-03-25T09:02:33Z</time>
      </trkpt>
      <trkpt lat="45.28272" lon="1.97015">
        <ele>604</ele>
        <time>2012-03-25T09:02:34Z</time>
      </trkpt>
      <trkpt lat="45.28273" lon="1.97018">
        <ele>604</ele>
        <time>2012-03-25T09:02:35Z</time>
      </trkpt>
      <trkpt lat="45.28275" lon="1.9702">
        <ele>605</ele>
        <time>2012-03-25T09:02:37Z</time>
      </trkpt>
      <trkpt lat="45.28278" lon="1.97023">
        <ele>605</ele>
        <time>2012-03-25T09:02:38Z</time>
      </trkpt>
      <trkpt lat="45.2828" lon="1.97025">
        <ele>605</ele>
        <time>2012-03-25T09:02:39Z</time>
      </trkpt>
      <trkpt lat="45.28283" lon="1.97028">
        <ele>605</ele>
        <time>2012-03-25T09:02:41Z</time>
      </trkpt>
      <trkpt lat="45.28288" lon="1.97035">
        <ele>606</ele>
        <time>2012-03-25T09:02:42Z</time>
      </trkpt>
      <trkpt lat="45.2829" lon="1.97038">
        <ele>606</ele>
        <time>2012-03-25T09:02:43Z</time>
      </trkpt>
      <trkpt lat="45.28293" lon="1.9704">
        <ele>606</ele>
        <time>2012-03-25T09:02:45Z</time>
      </trkpt>
      <trkpt lat="45.28294" lon="1.97047">
        <ele>607</ele>
        <time>2012-03-25T09:02:46Z</time>
      </trkpt>
      <trkpt lat="45.28292" lon="1.9705">
        <ele>608</ele>
        <time>2012-03-25T09:02:47Z</time>
      </trkpt>
      <trkpt lat="45.28292" lon="1.97053">
        <ele>608</ele>
        <time>2012-03-25T09:02:49Z</time>
      </trkpt>
      <trkpt lat="45.2829" lon="1.9706">
        <ele>609</ele>
        <time>2012-03-25T09:02:50Z</time>
      </trkpt>
      <trkpt lat="45.28289" lon="1.97065">
        <ele>609</ele>
        <time>2012-03-25T09:02:51Z</time>
      </trkpt>
      <trkpt lat="45.28288" lon="1.97071">
        <ele>609</ele>
        <time>2012-03-25T09:02:53Z</time>
      </trkpt>
      <trkpt lat="45.28283" lon="1.97081">
        <ele>610</ele>
        <time>2012-03-25T09:02:54Z</time>
      </trkpt>
      <trkpt lat="45.28281" lon="1.97087">
        <ele>609</ele>
        <time>2012-03-25T09:02:55Z</time>
      </trkpt>
      <trkpt lat="45.28279" lon="1.97092">
        <ele>609</ele>
        <time>2012-03-25T09:02:57Z</time>
      </trkpt>
      <trkpt lat="45.28274" lon="1.97099">
        <ele>608</ele>
        <time>2012-03-25T09:02:58Z</time>
      </trkpt>
      <trkpt lat="45.28272" lon="1.97104">
        <ele>607</ele>
        <time>2012-03-25T09:02:59Z</time>
      </trkpt>
      <trkpt lat="45.28269" lon="1.97107">
        <ele>608</ele>
        <time>2012-03-25T09:03:01Z</time>
      </trkpt>
      <trkpt lat="45.28266" lon="1.97119">
        <ele>608</ele>
        <time>2012-03-25T09:03:02Z</time>
      </trkpt>
      <trkpt lat="45.28265" lon="1.97126">
        <ele>609</ele>
        <time>2012-03-25T09:03:03Z</time>
      </trkpt>
      <trkpt lat="45.28266" lon="1.97132">
        <ele>609</ele>
        <time>2012-03-25T09:03:05Z</time>
      </trkpt>
      <trkpt lat="45.28262" lon="1.97141">
        <ele>609</ele>
        <time>2012-03-25T09:03:06Z</time>
      </trkpt>
      <trkpt lat="45.2826" lon="1.97147">
        <ele>610</ele>
        <time>2012-03-25T09:03:07Z</time>
      </trkpt>
      <trkpt lat="45.28259" lon="1.97152">
        <ele>610</ele>
        <time>2012-03-25T09:03:09Z</time>
      </trkpt>
      <trkpt lat="45.28254" lon="1.97163">
        <ele>609</ele>
        <time>2012-03-25T09:03:10Z</time>
      </trkpt>
      <trkpt lat="45.28252" lon="1.97169">
        <ele>608</ele>
        <time>2012-03-25T09:03:11Z</time>
      </trkpt>
      <trkpt lat="45.2825" lon="1.97175">
        <ele>607</ele>
        <time>2012-03-25T09:03:13Z</time>
      </trkpt>
      <trkpt lat="45.28244" lon="1.97184">
        <ele>607</ele>
        <time>2012-03-25T09:03:14Z</time>
      </trkpt>
      <trkpt lat="45.28243" lon="1.97191">
        <ele>607</ele>
        <time>2012-03-25T09:03:15Z</time>
      </trkpt>
      <trkpt lat="45.2824" lon="1.97198">
        <ele>608</ele>
        <time>2012-03-25T09:03:17Z</time>
      </trkpt>
      <trkpt lat="45.2824" lon="1.97216">
        <ele>606</ele>
        <time>2012-03-25T09:03:18Z</time>
      </trkpt>
      <trkpt lat="45.28239" lon="1.97221">
        <ele>606</ele>
        <time>2012-03-25T09:03:19Z</time>
      </trkpt>
      <trkpt lat="45.28237" lon="1.97227">
        <ele>607</ele>
        <time>2012-03-25T09:03:21Z</time>
      </trkpt>
      <trkpt lat="45.28233" lon="1.97238">
        <ele>608</ele>
        <time>2012-03-25T09:03:22Z</time>
      </trkpt>
      <trkpt lat="45.2823" lon="1.97241">
        <ele>608</ele>
        <time>2012-03-25T09:03:23Z</time>
      </trkpt>
      <trkpt lat="45.28227" lon="1.97247">
        <ele>609</ele>
        <time>2012-03-25T09:03:25Z</time>
      </trkpt>
      <trkpt lat="45.28222" lon="1.97257">
        <ele>609</ele>
        <time>2012-03-25T09:03:26Z</time>
      </trkpt>
      <trkpt lat="45.28219" lon="1.97262">
        <ele>609</ele>
        <time>2012-03-25T09:03:27Z</time>
      </trkpt>
      <trkpt lat="45.28217" lon="1.97267">
        <ele>608</ele>
        <time>2012-03-25T09:03:29Z</time>
      </trkpt>
      <trkpt lat="45.28211" lon="1.97279">
        <ele>608</ele>
        <time>2012-03-25T09:03:30Z</time>
      </trkpt>
      <trkpt lat="45.28208" lon="1.97286">
        <ele>608</ele>
        <time>2012-03-25T09:03:31Z</time>
      </trkpt>
      <trkpt lat="45.28206" lon="1.97293">
        <ele>608</ele>
        <time>2012-03-25T09:03:33Z</time>
      </trkpt>
      <trkpt lat="45.282" lon="1.97305">
        <ele>609</ele>
        <time>2012-03-25T09:03:34Z</time>
      </trkpt>
      <trkpt lat="45.28199" lon="1.97312">
        <ele>609</ele>
        <time>2012-03-25T09:03:35Z</time>
      </trkpt>
      <trkpt lat="45.28197" lon="1.97319">
        <ele>609</ele>
        <time>2012-03-25T09:03:37Z</time>
      </trkpt>
      <trkpt lat="45.28192" lon="1.97335">
        <ele>609</ele>
        <time>2012-03-25T09:03:38Z</time>
      </trkpt>
      <trkpt lat="45.28191" lon="1.97344">
        <ele>609</ele>
        <time>2012-03-25T09:03:39Z</time>
      </trkpt>
      <trkpt lat="45.28189" lon="1.97352">
        <ele>609</ele>
        <time>2012-03-25T09:03:41Z</time>
      </trkpt>
      <trkpt lat="45.28185" lon="1.97366">
        <ele>609</ele>
        <time>2012-03-25T09:03:42Z</time>
      </trkpt>
      <trkpt lat="45.28182" lon="1.97372">
        <ele>609</ele>
        <time>2012-03-25T09:03:43Z</time>
      </trkpt>
      <trkpt lat="45.2818" lon="1.97377">
        <ele>609</ele>
        <time>2012-03-25T09:03:44Z</time>
      </trkpt>
      <trkpt lat="45.28177" lon="1.97383">
        <ele>609</ele>
        <time>2012-03-25T09:03:45Z</time>
      </trkpt>
      <trkpt lat="45.28175" lon="1.9739">
        <ele>609</ele>
        <time>2012-03-25T09:03:46Z</time>
      </trkpt>
      <trkpt lat="45.28172" lon="1.97396">
        <ele>610</ele>
        <time>2012-03-25T09:03:47Z</time>
      </trkpt>
      <trkpt lat="45.2817" lon="1.97402">
        <ele>610</ele>
        <time>2012-03-25T09:03:48Z</time>
      </trkpt>
      <trkpt lat="45.28168" lon="1.97408">
        <ele>610</ele>
        <time>2012-03-25T09:03:49Z</time>
      </trkpt>
      <trkpt lat="45.28165" lon="1.97413">
        <ele>610</ele>
        <time>2012-03-25T09:03:50Z</time>
      </trkpt>
      <trkpt lat="45.28164" lon="1.9742">
        <ele>609</ele>
        <time>2012-03-25T09:03:51Z</time>
      </trkpt>
      <trkpt lat="45.28162" lon="1.97427">
        <ele>610</ele>
        <time>2012-03-25T09:03:52Z</time>
      </trkpt>
      <trkpt lat="45.2816" lon="1.97433">
        <ele>610</ele>
        <time>2012-03-25T09:03:53Z</time>
      </trkpt>
      <trkpt lat="45.28158" lon="1.97439">
        <ele>610</ele>
        <time>2012-03-25T09:03:54Z</time>
      </trkpt>
      <trkpt lat="45.28156" lon="1.97446">
        <ele>610</ele>
        <time>2012-03-25T09:03:55Z</time>
      </trkpt>
      <trkpt lat="45.28155" lon="1.97452">
        <ele>610</ele>
        <time>2012-03-25T09:03:56Z</time>
      </trkpt>
      <trkpt lat="45.28153" lon="1.97459">
        <ele>610</ele>
        <time>2012-03-25T09:03:57Z</time>
      </trkpt>
      <trkpt lat="45.28151" lon="1.97465">
        <ele>610</ele>
        <time>2012-03-25T09:03:58Z</time>
      </trkpt>
      <trkpt lat="45.28149" lon="1.97471">
        <ele>610</ele>
        <time>2012-03-25T09:03:59Z</time>
      </trkpt>
      <trkpt lat="45.28148" lon="1.97478">
        <ele>610</ele>
        <time>2012-03-25T09:04:00Z</time>
      </trkpt>
      <trkpt lat="45.28146" lon="1.97486">
        <ele>610</ele>
        <time>2012-03-25T09:04:01Z</time>
      </trkpt>
      <trkpt lat="45.28143" lon="1.97493">
        <ele>610</ele>
        <time>2012-03-25T09:04:02Z</time>
      </trkpt>
      <trkpt lat="45.28141" lon="1.975">
        <ele>610</ele>
        <time>2012-03-25T09:04:03Z</time>
      </trkpt>
      <trkpt lat="45.28139" lon="1.97507">
        <ele>610</ele>
        <time>2012-03-25T09:04:04Z</time>
      </trkpt>
      <trkpt lat="45.28135" lon="1.97513">
        <ele>611</ele>
        <time>2012-03-25T09:04:05Z</time>
      </trkpt>
      <trkpt lat="45.28135" lon="1.9752">
        <ele>611</ele>
        <time>2012-03-25T09:04:06Z</time>
      </trkpt>
      <trkpt lat="45.28132" lon="1.97527">
        <ele>610</ele>
        <time>2012-03-25T09:04:08Z</time>
      </trkpt>
      <trkpt lat="45.28131" lon="1.97535">
        <ele>610</ele>
        <time>2012-03-25T09:04:09Z</time>
      </trkpt>
      <trkpt lat="45.28128" lon="1.97542">
        <ele>609</ele>
        <time>2012-03-25T09:04:10Z</time>
      </trkpt>
      <trkpt lat="45.28125" lon="1.9755">
        <ele>609</ele>
        <time>2012-03-25T09:04:11Z</time>
      </trkpt>
      <trkpt lat="45.28121" lon="1.97556">
        <ele>608</ele>
        <time>2012-03-25T09:04:12Z</time>
      </trkpt>
      <trkpt lat="45.28116" lon="1.97571">
        <ele>609</ele>
        <time>2012-03-25T09:04:13Z</time>
      </trkpt>
      <trkpt lat="45.28114" lon="1.9758">
        <ele>608</ele>
        <time>2012-03-25T09:04:14Z</time>
      </trkpt>
      <trkpt lat="45.2811" lon="1.97586">
        <ele>608</ele>
        <time>2012-03-25T09:04:16Z</time>
      </trkpt>
      <trkpt lat="45.28102" lon="1.97599">
        <ele>608</ele>
        <time>2012-03-25T09:04:17Z</time>
      </trkpt>
      <trkpt lat="45.28097" lon="1.97605">
        <ele>608</ele>
        <time>2012-03-25T09:04:18Z</time>
      </trkpt>
      <trkpt lat="45.28093" lon="1.97612">
        <ele>609</ele>
        <time>2012-03-25T09:04:20Z</time>
      </trkpt>
      <trkpt lat="45.28083" lon="1.97624">
        <ele>609</ele>
        <time>2012-03-25T09:04:21Z</time>
      </trkpt>
      <trkpt lat="45.28078" lon="1.97628">
        <ele>609</ele>
        <time>2012-03-25T09:04:22Z</time>
      </trkpt>
      <trkpt lat="45.28072" lon="1.97632">
        <ele>609</ele>
        <time>2012-03-25T09:04:24Z</time>
      </trkpt>
      <trkpt lat="45.28061" lon="1.9764">
        <ele>609</ele>
        <time>2012-03-25T09:04:25Z</time>
      </trkpt>
      <trkpt lat="45.28056" lon="1.97645">
        <ele>610</ele>
        <time>2012-03-25T09:04:26Z</time>
      </trkpt>
      <trkpt lat="45.28049" lon="1.97648">
        <ele>610</ele>
        <time>2012-03-25T09:04:28Z</time>
      </trkpt>
      <trkpt lat="45.28037" lon="1.97655">
        <ele>610</ele>
        <time>2012-03-25T09:04:29Z</time>
      </trkpt>
      <trkpt lat="45.28031" lon="1.97657">
        <ele>611</ele>
        <time>2012-03-25T09:04:30Z</time>
      </trkpt>
      <trkpt lat="45.28024" lon="1.97658">
        <ele>611</ele>
        <time>2012-03-25T09:04:32Z</time>
      </trkpt>
      <trkpt lat="45.28009" lon="1.97658">
        <ele>611</ele>
        <time>2012-03-25T09:04:33Z</time>
      </trkpt>
      <trkpt lat="45.28002" lon="1.97657">
        <ele>611</ele>
        <time>2012-03-25T09:04:34Z</time>
      </trkpt>
      <trkpt lat="45.27996" lon="1.97657">
        <ele>611</ele>
        <time>2012-03-25T09:04:36Z</time>
      </trkpt>
      <trkpt lat="45.27984" lon="1.97657">
        <ele>612</ele>
        <time>2012-03-25T09:04:37Z</time>
      </trkpt>
      <trkpt lat="45.27979" lon="1.97656">
        <ele>612</ele>
        <time>2012-03-25T09:04:38Z</time>
      </trkpt>
      <trkpt lat="45.27974" lon="1.97656">
        <ele>611</ele>
        <time>2012-03-25T09:04:40Z</time>
      </trkpt>
      <trkpt lat="45.27964" lon="1.97654">
        <ele>612</ele>
        <time>2012-03-25T09:04:41Z</time>
      </trkpt>
      <trkpt lat="45.2796" lon="1.97653">
        <ele>612</ele>
        <time>2012-03-25T09:04:42Z</time>
      </trkpt>
      <trkpt lat="45.27957" lon="1.97653">
        <ele>612</ele>
        <time>2012-03-25T09:04:44Z</time>
      </trkpt>
      <trkpt lat="45.27953" lon="1.97654">
        <ele>612</ele>
        <time>2012-03-25T09:04:45Z</time>
      </trkpt>
      <trkpt lat="45.27951" lon="1.97656">
        <ele>611</ele>
        <time>2012-03-25T09:04:46Z</time>
      </trkpt>
      <trkpt lat="45.27948" lon="1.97659">
        <ele>611</ele>
        <time>2012-03-25T09:04:48Z</time>
      </trkpt>
      <trkpt lat="45.27943" lon="1.97665">
        <ele>610</ele>
        <time>2012-03-25T09:04:49Z</time>
      </trkpt>
      <trkpt lat="45.27941" lon="1.9767">
        <ele>609</ele>
        <time>2012-03-25T09:04:50Z</time>
      </trkpt>
      <trkpt lat="45.27937" lon="1.97671">
        <ele>610</ele>
        <time>2012-03-25T09:04:52Z</time>
      </trkpt>
      <trkpt lat="45.27929" lon="1.97675">
        <ele>610</ele>
        <time>2012-03-25T09:04:53Z</time>
      </trkpt>
      <trkpt lat="45.27923" lon="1.9768">
        <ele>609</ele>
        <time>2012-03-25T09:04:54Z</time>
      </trkpt>
      <trkpt lat="45.27918" lon="1.97684">
        <ele>608</ele>
        <time>2012-03-25T09:04:56Z</time>
      </trkpt>
      <trkpt lat="45.2791" lon="1.97692">
        <ele>609</ele>
        <time>2012-03-25T09:04:57Z</time>
      </trkpt>
      <trkpt lat="45.27905" lon="1.97698">
        <ele>607</ele>
        <time>2012-03-25T09:04:58Z</time>
      </trkpt>
      <trkpt lat="45.27901" lon="1.97704">
        <ele>606</ele>
        <time>2012-03-25T09:05:00Z</time>
      </trkpt>
      <trkpt lat="45.27893" lon="1.97718">
        <ele>604</ele>
        <time>2012-03-25T09:05:01Z</time>
      </trkpt>
      <trkpt lat="45.27889" lon="1.97724">
        <ele>603</ele>
        <time>2012-03-25T09:05:02Z</time>
      </trkpt>
      <trkpt lat="45.27885" lon="1.97731">
        <ele>603</ele>
        <time>2012-03-25T09:05:04Z</time>
      </trkpt>
      <trkpt lat="45.27877" lon="1.97745">
        <ele>603</ele>
        <time>2012-03-25T09:05:05Z</time>
      </trkpt>
      <trkpt lat="45.27874" lon="1.97754">
        <ele>603</ele>
        <time>2012-03-25T09:05:06Z</time>
      </trkpt>
      <trkpt lat="45.27871" lon="1.97764">
        <ele>603</ele>
        <time>2012-03-25T09:05:08Z</time>
      </trkpt>
      <trkpt lat="45.27867" lon="1.97782">
        <ele>603</ele>
        <time>2012-03-25T09:05:09Z</time>
      </trkpt>
      <trkpt lat="45.27864" lon="1.9779">
        <ele>604</ele>
        <time>2012-03-25T09:05:10Z</time>
      </trkpt>
      <trkpt lat="45.27862" lon="1.97799">
        <ele>605</ele>
        <time>2012-03-25T09:05:12Z</time>
      </trkpt>
      <trkpt lat="45.27858" lon="1.9782">
        <ele>603</ele>
        <time>2012-03-25T09:05:13Z</time>
      </trkpt>
      <trkpt lat="45.27856" lon="1.9783">
        <ele>603</ele>
        <time>2012-03-25T09:05:14Z</time>
      </trkpt>
      <trkpt lat="45.27854" lon="1.97838">
        <ele>602</ele>
        <time>2012-03-25T09:05:16Z</time>
      </trkpt>
      <trkpt lat="45.27845" lon="1.97853">
        <ele>602</ele>
        <time>2012-03-25T09:05:17Z</time>
      </trkpt>
      <trkpt lat="45.2784" lon="1.97859">
        <ele>602</ele>
        <time>2012-03-25T09:05:18Z</time>
      </trkpt>
      <trkpt lat="45.27835" lon="1.97862">
        <ele>602</ele>
        <time>2012-03-25T09:05:20Z</time>
      </trkpt>
      <trkpt lat="45.27826" lon="1.97868">
        <ele>602</ele>
        <time>2012-03-25T09:05:21Z</time>
      </trkpt>
      <trkpt lat="45.27823" lon="1.97869">
        <ele>602</ele>
        <time>2012-03-25T09:05:22Z</time>
      </trkpt>
      <trkpt lat="45.27819" lon="1.97871">
        <ele>602</ele>
        <time>2012-03-25T09:05:24Z</time>
      </trkpt>
      <trkpt lat="45.27816" lon="1.97878">
        <ele>602</ele>
        <time>2012-03-25T09:05:25Z</time>
      </trkpt>
      <trkpt lat="45.27812" lon="1.97882">
        <ele>602</ele>
        <time>2012-03-25T09:05:26Z</time>
      </trkpt>
      <trkpt lat="45.2781" lon="1.97885">
        <ele>602</ele>
        <time>2012-03-25T09:05:28Z</time>
      </trkpt>
      <trkpt lat="45.27806" lon="1.97896">
        <ele>602</ele>
        <time>2012-03-25T09:05:29Z</time>
      </trkpt>
      <trkpt lat="45.27804" lon="1.97904">
        <ele>602</ele>
        <time>2012-03-25T09:05:30Z</time>
      </trkpt>
      <trkpt lat="45.27803" lon="1.97911">
        <ele>602</ele>
        <time>2012-03-25T09:05:32Z</time>
      </trkpt>
      <trkpt lat="45.27801" lon="1.97929">
        <ele>602</ele>
        <time>2012-03-25T09:05:33Z</time>
      </trkpt>
      <trkpt lat="45.278" lon="1.97938">
        <ele>602</ele>
        <time>2012-03-25T09:05:34Z</time>
      </trkpt>
      <trkpt lat="45.27799" lon="1.97949">
        <ele>601</ele>
        <time>2012-03-25T09:05:36Z</time>
      </trkpt>
      <trkpt lat="45.27797" lon="1.97967">
        <ele>602</ele>
        <time>2012-03-25T09:05:37Z</time>
      </trkpt>
      <trkpt lat="45.27795" lon="1.97977">
        <ele>601</ele>
        <time>2012-03-25T09:05:38Z</time>
      </trkpt>
      <trkpt lat="45.27794" lon="1.97988">
        <ele>601</ele>
        <time>2012-03-25T09:05:40Z</time>
      </trkpt>
      <trkpt lat="45.2779" lon="1.98011">
        <ele>601</ele>
        <time>2012-03-25T09:05:41Z</time>
      </trkpt>
      <trkpt lat="45.27788" lon="1.98022">
        <ele>600</ele>
        <time>2012-03-25T09:05:42Z</time>
      </trkpt>
      <trkpt lat="45.27787" lon="1.98032">
        <ele>600</ele>
        <time>2012-03-25T09:05:44Z</time>
      </trkpt>
      <trkpt lat="45.27781" lon="1.98051">
        <ele>600</ele>
        <time>2012-03-25T09:05:45Z</time>
      </trkpt>
      <trkpt lat="45.27779" lon="1.98061">
        <ele>600</ele>
        <time>2012-03-25T09:05:46Z</time>
      </trkpt>
      <trkpt lat="45.27776" lon="1.9807">
        <ele>600</ele>
        <time>2012-03-25T09:05:48Z</time>
      </trkpt>
      <trkpt lat="45.27773" lon="1.98096">
        <ele>599</ele>
        <time>2012-03-25T09:05:49Z</time>
      </trkpt>
      <trkpt lat="45.27771" lon="1.98106">
        <ele>598</ele>
        <time>2012-03-25T09:05:50Z</time>
      </trkpt>
      <trkpt lat="45.27769" lon="1.98118">
        <ele>597</ele>
        <time>2012-03-25T09:05:52Z</time>
      </trkpt>
      <trkpt lat="45.27764" lon="1.98141">
        <ele>597</ele>
        <time>2012-03-25T09:05:53Z</time>
      </trkpt>
      <trkpt lat="45.27762" lon="1.98153">
        <ele>597</ele>
        <time>2012-03-25T09:05:54Z</time>
      </trkpt>
      <trkpt lat="45.2776" lon="1.98165">
        <ele>597</ele>
        <time>2012-03-25T09:05:56Z</time>
      </trkpt>
      <trkpt lat="45.27757" lon="1.9819">
        <ele>597</ele>
        <time>2012-03-25T09:05:57Z</time>
      </trkpt>
      <trkpt lat="45.27756" lon="1.98202">
        <ele>596</ele>
        <time>2012-03-25T09:05:58Z</time>
      </trkpt>
      <trkpt lat="45.27755" lon="1.98215">
        <ele>596</ele>
        <time>2012-03-25T09:06:00Z</time>
      </trkpt>
      <trkpt lat="45.2775" lon="1.98237">
        <ele>595</ele>
        <time>2012-03-25T09:06:01Z</time>
      </trkpt>
      <trkpt lat="45.27746" lon="1.98248">
        <ele>595</ele>
        <time>2012-03-25T09:06:02Z</time>
      </trkpt>
      <trkpt lat="45.27743" lon="1.98257">
        <ele>595</ele>
        <time>2012-03-25T09:06:04Z</time>
      </trkpt>
      <trkpt lat="45.27737" lon="1.98278">
        <ele>594</ele>
        <time>2012-03-25T09:06:05Z</time>
      </trkpt>
      <trkpt lat="45.27734" lon="1.98289">
        <ele>594</ele>
        <time>2012-03-25T09:06:06Z</time>
      </trkpt>
      <trkpt lat="45.27731" lon="1.983">
        <ele>594</ele>
        <time>2012-03-25T09:06:08Z</time>
      </trkpt>
      <trkpt lat="45.27726" lon="1.98322">
        <ele>594</ele>
        <time>2012-03-25T09:06:09Z</time>
      </trkpt>
      <trkpt lat="45.27724" lon="1.98332">
        <ele>593</ele>
        <time>2012-03-25T09:06:10Z</time>
      </trkpt>
      <trkpt lat="45.27722" lon="1.98345">
        <ele>593</ele>
        <time>2012-03-25T09:06:12Z</time>
      </trkpt>
      <trkpt lat="45.27719" lon="1.98368">
        <ele>593</ele>
        <time>2012-03-25T09:06:13Z</time>
      </trkpt>
      <trkpt lat="45.27718" lon="1.98381">
        <ele>593</ele>
        <time>2012-03-25T09:06:14Z</time>
      </trkpt>
      <trkpt lat="45.27717" lon="1.98392">
        <ele>593</ele>
        <time>2012-03-25T09:06:16Z</time>
      </trkpt>
      <trkpt lat="45.27715" lon="1.98417">
        <ele>593</ele>
        <time>2012-03-25T09:06:17Z</time>
      </trkpt>
      <trkpt lat="45.27713" lon="1.98429">
        <ele>593</ele>
        <time>2012-03-25T09:06:18Z</time>
      </trkpt>
      <trkpt lat="45.27709" lon="1.98439">
        <ele>593</ele>
        <time>2012-03-25T09:06:20Z</time>
      </trkpt>
      <trkpt lat="45.27705" lon="1.98458">
        <ele>593</ele>
        <time>2012-03-25T09:06:21Z</time>
      </trkpt>
      <trkpt lat="45.27702" lon="1.9847">
        <ele>592</ele>
        <time>2012-03-25T09:06:22Z</time>
      </trkpt>
      <trkpt lat="45.277" lon="1.98479">
        <ele>591</ele>
        <time>2012-03-25T09:06:24Z</time>
      </trkpt>
      <trkpt lat="45.27697" lon="1.98503">
        <ele>591</ele>
        <time>2012-03-25T09:06:25Z</time>
      </trkpt>
      <trkpt lat="45.27694" lon="1.98514">
        <ele>591</ele>
        <time>2012-03-25T09:06:26Z</time>
      </trkpt>
      <trkpt lat="45.2769" lon="1.98526">
        <ele>592</ele>
        <time>2012-03-25T09:06:28Z</time>
      </trkpt>
      <trkpt lat="45.27686" lon="1.98551">
        <ele>592</ele>
        <time>2012-03-25T09:06:29Z</time>
      </trkpt>
      <trkpt lat="45.27683" lon="1.98563">
        <ele>593</ele>
        <time>2012-03-25T09:06:30Z</time>
      </trkpt>
      <trkpt lat="45.27682" lon="1.98577">
        <ele>593</ele>
        <time>2012-03-25T09:06:32Z</time>
      </trkpt>
      <trkpt lat="45.27677" lon="1.98598">
        <ele>592</ele>
        <time>2012-03-25T09:06:33Z</time>
      </trkpt>
      <trkpt lat="45.27675" lon="1.98608">
        <ele>592</ele>
        <time>2012-03-25T09:06:34Z</time>
      </trkpt>
      <trkpt lat="45.27674" lon="1.9862">
        <ele>592</ele>
        <time>2012-03-25T09:06:36Z</time>
      </trkpt>
      <trkpt lat="45.2767" lon="1.98642">
        <ele>592</ele>
        <time>2012-03-25T09:06:37Z</time>
      </trkpt>
      <trkpt lat="45.27668" lon="1.98654">
        <ele>592</ele>
        <time>2012-03-25T09:06:38Z</time>
      </trkpt>
      <trkpt lat="45.27666" lon="1.98663">
        <ele>592</ele>
        <time>2012-03-25T09:06:40Z</time>
      </trkpt>
      <trkpt lat="45.27664" lon="1.98685">
        <ele>592</ele>
        <time>2012-03-25T09:06:41Z</time>
      </trkpt>
      <trkpt lat="45.27663" lon="1.98696">
        <ele>592</ele>
        <time>2012-03-25T09:06:42Z</time>
      </trkpt>
      <trkpt lat="45.27662" lon="1.98707">
        <ele>592</ele>
        <time>2012-03-25T09:06:44Z</time>
      </trkpt>
      <trkpt lat="45.2766" lon="1.98728">
        <ele>593</ele>
        <time>2012-03-25T09:06:45Z</time>
      </trkpt>
      <trkpt lat="45.2766" lon="1.98739">
        <ele>593</ele>
        <time>2012-03-25T09:06:46Z</time>
      </trkpt>
      <trkpt lat="45.27657" lon="1.98749">
        <ele>593</ele>
        <time>2012-03-25T09:06:48Z</time>
      </trkpt>
      <trkpt lat="45.27649" lon="1.98768">
        <ele>592</ele>
        <time>2012-03-25T09:06:49Z</time>
      </trkpt>
      <trkpt lat="45.27646" lon="1.98779">
        <ele>591</ele>
        <time>2012-03-25T09:06:50Z</time>
      </trkpt>
      <trkpt lat="45.27642" lon="1.9879">
        <ele>590</ele>
        <time>2012-03-25T09:06:52Z</time>
      </trkpt>
      <trkpt lat="45.27638" lon="1.98814">
        <ele>590</ele>
        <time>2012-03-25T09:06:53Z</time>
      </trkpt>
      <trkpt lat="45.27635" lon="1.98827">
        <ele>589</ele>
        <time>2012-03-25T09:06:54Z</time>
      </trkpt>
      <trkpt lat="45.27634" lon="1.98838">
        <ele>590</ele>
        <time>2012-03-25T09:06:56Z</time>
      </trkpt>
      <trkpt lat="45.27631" lon="1.9886">
        <ele>591</ele>
        <time>2012-03-25T09:06:57Z</time>
      </trkpt>
      <trkpt lat="45.2763" lon="1.9887">
        <ele>591</ele>
        <time>2012-03-25T09:06:58Z</time>
      </trkpt>
      <trkpt lat="45.27627" lon="1.9888">
        <ele>591</ele>
        <time>2012-03-25T09:07:00Z</time>
      </trkpt>
      <trkpt lat="45.27624" lon="1.989">
        <ele>591</ele>
        <time>2012-03-25T09:07:01Z</time>
      </trkpt>
      <trkpt lat="45.27621" lon="1.98908">
        <ele>591</ele>
        <time>2012-03-25T09:07:02Z</time>
      </trkpt>
      <trkpt lat="45.2762" lon="1.9892">
        <ele>591</ele>
        <time>2012-03-25T09:07:04Z</time>
      </trkpt>
      <trkpt lat="45.27616" lon="1.98941">
        <ele>591</ele>
        <time>2012-03-25T09:07:05Z</time>
      </trkpt>
      <trkpt lat="45.27614" lon="1.9895">
        <ele>592</ele>
        <time>2012-03-25T09:07:06Z</time>
      </trkpt>
      <trkpt lat="45.27614" lon="1.98963">
        <ele>592</ele>
        <time>2012-03-25T09:07:08Z</time>
      </trkpt>
      <trkpt lat="45.27609" lon="1.98982">
        <ele>593</ele>
        <time>2012-03-25T09:07:09Z</time>
      </trkpt>
      <trkpt lat="45.27607" lon="1.98994">
        <ele>593</ele>
        <time>2012-03-25T09:07:10Z</time>
      </trkpt>
      <trkpt lat="45.27606" lon="1.99005">
        <ele>593</ele>
        <time>2012-03-25T09:07:12Z</time>
      </trkpt>
      <trkpt lat="45.27602" lon="1.99028">
        <ele>592</ele>
        <time>2012-03-25T09:07:13Z</time>
      </trkpt>
      <trkpt lat="45.27602" lon="1.99041">
        <ele>592</ele>
        <time>2012-03-25T09:07:14Z</time>
      </trkpt>
      <trkpt lat="45.276" lon="1.99054">
        <ele>592</ele>
        <time>2012-03-25T09:07:16Z</time>
      </trkpt>
      <trkpt lat="45.27599" lon="1.99083">
        <ele>593</ele>
        <time>2012-03-25T09:07:17Z</time>
      </trkpt>
      <trkpt lat="45.27598" lon="1.99096">
        <ele>593</ele>
        <time>2012-03-25T09:07:18Z</time>
      </trkpt>
      <trkpt lat="45.27598" lon="1.99112">
        <ele>593</ele>
        <time>2012-03-25T09:07:20Z</time>
      </trkpt>
      <trkpt lat="45.27596" lon="1.9914">
        <ele>592</ele>
        <time>2012-03-25T09:07:21Z</time>
      </trkpt>
      <trkpt lat="45.27595" lon="1.99155">
        <ele>591</ele>
        <time>2012-03-25T09:07:22Z</time>
      </trkpt>
      <trkpt lat="45.27595" lon="1.99169">
        <ele>590</ele>
        <time>2012-03-25T09:07:24Z</time>
      </trkpt>
      <trkpt lat="45.27595" lon="1.992">
        <ele>590</ele>
        <time>2012-03-25T09:07:25Z</time>
      </trkpt>
      <trkpt lat="45.27596" lon="1.99217">
        <ele>590</ele>
        <time>2012-03-25T09:07:26Z</time>
      </trkpt>
      <trkpt lat="45.27598" lon="1.99231">
        <ele>589</ele>
        <time>2012-03-25T09:07:28Z</time>
      </trkpt>
      <trkpt lat="45.27606" lon="1.9926">
        <ele>588</ele>
        <time>2012-03-25T09:07:29Z</time>
      </trkpt>
      <trkpt lat="45.27613" lon="1.99273">
        <ele>587</ele>
        <time>2012-03-25T09:07:30Z</time>
      </trkpt>
      <trkpt lat="45.27619" lon="1.99283">
        <ele>587</ele>
        <time>2012-03-25T09:07:32Z</time>
      </trkpt>
      <trkpt lat="45.27632" lon="1.99304">
        <ele>585</ele>
        <time>2012-03-25T09:07:33Z</time>
      </trkpt>
      <trkpt lat="45.27641" lon="1.99316">
        <ele>585</ele>
        <time>2012-03-25T09:07:34Z</time>
      </trkpt>
      <trkpt lat="45.2765" lon="1.99326">
        <ele>584</ele>
        <time>2012-03-25T09:07:36Z</time>
      </trkpt>
      <trkpt lat="45.27667" lon="1.99345">
        <ele>583</ele>
        <time>2012-03-25T09:07:37Z</time>
      </trkpt>
      <trkpt lat="45.27676" lon="1.99356">
        <ele>583</ele>
        <time>2012-03-25T09:07:38Z</time>
      </trkpt>
      <trkpt lat="45.27685" lon="1.99363">
        <ele>584</ele>
        <time>2012-03-25T09:07:40Z</time>
      </trkpt>
      <trkpt lat="45.277" lon="1.99383">
        <ele>584</ele>
        <time>2012-03-25T09:07:40Z</time>
      </trkpt>
      <trkpt lat="45.27705" lon="1.99394">
        <ele>584</ele>
        <time>2012-03-25T09:07:41Z</time>
      </trkpt>
      <trkpt lat="45.27709" lon="1.99406">
        <ele>585</ele>
        <time>2012-03-25T09:07:43Z</time>
      </trkpt>
      <trkpt lat="45.27716" lon="1.99433">
        <ele>583</ele>
        <time>2012-03-25T09:07:44Z</time>
      </trkpt>
      <trkpt lat="45.27719" lon="1.99447">
        <ele>582</ele>
        <time>2012-03-25T09:07:45Z</time>
      </trkpt>
      <trkpt lat="45.2772" lon="1.9946">
        <ele>582</ele>
        <time>2012-03-25T09:07:47Z</time>
      </trkpt>
      <trkpt lat="45.27716" lon="1.99483">
        <ele>580</ele>
        <time>2012-03-25T09:07:48Z</time>
      </trkpt>
      <trkpt lat="45.27713" lon="1.99492">
        <ele>579</ele>
        <time>2012-03-25T09:07:49Z</time>
      </trkpt>
      <trkpt lat="45.2771" lon="1.99502">
        <ele>578</ele>
        <time>2012-03-25T09:07:51Z</time>
      </trkpt>
      <trkpt lat="45.27705" lon="1.99521">
        <ele>577</ele>
        <time>2012-03-25T09:07:52Z</time>
      </trkpt>
      <trkpt lat="45.27701" lon="1.99527">
        <ele>578</ele>
        <time>2012-03-25T09:07:53Z</time>
      </trkpt>
      <trkpt lat="45.27697" lon="1.99533">
        <ele>578</ele>
        <time>2012-03-25T09:07:55Z</time>
      </trkpt>
      <trkpt lat="45.27687" lon="1.99543">
        <ele>577</ele>
        <time>2012-03-25T09:07:56Z</time>
      </trkpt>
      <trkpt lat="45.27684" lon="1.99548">
        <ele>577</ele>
        <time>2012-03-25T09:07:57Z</time>
      </trkpt>
      <trkpt lat="45.2768" lon="1.99552">
        <ele>578</ele>
        <time>2012-03-25T09:07:59Z</time>
      </trkpt>
      <trkpt lat="45.27673" lon="1.99561">
        <ele>578</ele>
        <time>2012-03-25T09:08:00Z</time>
      </trkpt>
      <trkpt lat="45.2767" lon="1.99566">
        <ele>578</ele>
        <time>2012-03-25T09:08:01Z</time>
      </trkpt>
      <trkpt lat="45.27665" lon="1.99569">
        <ele>578</ele>
        <time>2012-03-25T09:08:03Z</time>
      </trkpt>
      <trkpt lat="45.27656" lon="1.99576">
        <ele>578</ele>
        <time>2012-03-25T09:08:04Z</time>
      </trkpt>
      <trkpt lat="45.27653" lon="1.9958">
        <ele>578</ele>
        <time>2012-03-25T09:08:05Z</time>
      </trkpt>
      <trkpt lat="45.2765" lon="1.99584">
        <ele>579</ele>
        <time>2012-03-25T09:08:07Z</time>
      </trkpt>
      <trkpt lat="45.27649" lon="1.99593">
        <ele>580</ele>
        <time>2012-03-25T09:08:08Z</time>
      </trkpt>
      <trkpt lat="45.27647" lon="1.99598">
        <ele>581</ele>
        <time>2012-03-25T09:08:09Z</time>
      </trkpt>
      <trkpt lat="45.27646" lon="1.99604">
        <ele>581</ele>
        <time>2012-03-25T09:08:11Z</time>
      </trkpt>
      <trkpt lat="45.27641" lon="1.99612">
        <ele>581</ele>
        <time>2012-03-25T09:08:12Z</time>
      </trkpt>
      <trkpt lat="45.27637" lon="1.99616">
        <ele>582</ele>
        <time>2012-03-25T09:08:13Z</time>
      </trkpt>
      <trkpt lat="45.27634" lon="1.99622">
        <ele>582</ele>
        <time>2012-03-25T09:08:15Z</time>
      </trkpt>
      <trkpt lat="45.27627" lon="1.99638">
        <ele>581</ele>
        <time>2012-03-25T09:08:16Z</time>
      </trkpt>
      <trkpt lat="45.27625" lon="1.99644">
        <ele>581</ele>
        <time>2012-03-25T09:08:17Z</time>
      </trkpt>
      <trkpt lat="45.27622" lon="1.99649">
        <ele>581</ele>
        <time>2012-03-25T09:08:19Z</time>
      </trkpt>
      <trkpt lat="45.27618" lon="1.9966">
        <ele>581</ele>
        <time>2012-03-25T09:08:20Z</time>
      </trkpt>
      <trkpt lat="45.27618" lon="1.99667">
        <ele>582</ele>
        <time>2012-03-25T09:08:21Z</time>
      </trkpt>
      <trkpt lat="45.27618" lon="1.99675">
        <ele>581</ele>
        <time>2012-03-25T09:08:22Z</time>
      </trkpt>
      <trkpt lat="45.27618" lon="1.99681">
        <ele>582</ele>
        <time>2012-03-25T09:08:24Z</time>
      </trkpt>
      <trkpt lat="45.27618" lon="1.99681">
        <ele>582</ele>
        <time>2012-03-25T09:08:26Z</time>
      </trkpt>
      <trkpt lat="45.2762" lon="1.99688">
        <ele>583</ele>
        <time>2012-03-25T09:08:27Z</time>
      </trkpt>
      <trkpt lat="45.27621" lon="1.997">
        <ele>583</ele>
        <time>2012-03-25T09:08:28Z</time>
      </trkpt>
      <trkpt lat="45.27621" lon="1.99705">
        <ele>583</ele>
        <time>2012-03-25T09:08:29Z</time>
      </trkpt>
      <trkpt lat="45.27622" lon="1.9971">
        <ele>583</ele>
        <time>2012-03-25T09:08:30Z</time>
      </trkpt>
      <trkpt lat="45.27623" lon="1.99715">
        <ele>584</ele>
        <time>2012-03-25T09:08:31Z</time>
      </trkpt>
      <trkpt lat="45.27628" lon="1.99725">
        <ele>585</ele>
        <time>2012-03-25T09:08:32Z</time>
      </trkpt>
      <trkpt lat="45.27632" lon="1.99731">
        <ele>585</ele>
        <time>2012-03-25T09:08:33Z</time>
      </trkpt>
      <trkpt lat="45.27634" lon="1.99736">
        <ele>585</ele>
        <time>2012-03-25T09:08:34Z</time>
      </trkpt>
      <trkpt lat="45.27635" lon="1.99739">
        <ele>586</ele>
        <time>2012-03-25T09:08:35Z</time>
      </trkpt>
      <trkpt lat="45.27638" lon="1.99744">
        <ele>586</ele>
        <time>2012-03-25T09:08:36Z</time>
      </trkpt>
      <trkpt lat="45.27641" lon="1.99748">
        <ele>586</ele>
        <time>2012-03-25T09:08:37Z</time>
      </trkpt>
      <trkpt lat="45.27643" lon="1.99752">
        <ele>587</ele>
        <time>2012-03-25T09:08:38Z</time>
      </trkpt>
      <trkpt lat="45.27647" lon="1.99757">
        <ele>587</ele>
        <time>2012-03-25T09:08:40Z</time>
      </trkpt>
      <trkpt lat="45.27651" lon="1.99768">
        <ele>588</ele>
        <time>2012-03-25T09:08:41Z</time>
      </trkpt>
      <trkpt lat="45.27654" lon="1.99774">
        <ele>588</ele>
        <time>2012-03-25T09:08:42Z</time>
      </trkpt>
      <trkpt lat="45.27657" lon="1.9978">
        <ele>588</ele>
        <time>2012-03-25T09:08:44Z</time>
      </trkpt>
      <trkpt lat="45.27662" lon="1.99788">
        <ele>589</ele>
        <time>2012-03-25T09:08:45Z</time>
      </trkpt>
      <trkpt lat="45.27665" lon="1.99792">
        <ele>589</ele>
        <time>2012-03-25T09:08:46Z</time>
      </trkpt>
      <trkpt lat="45.27668" lon="1.99795">
        <ele>589</ele>
        <time>2012-03-25T09:08:48Z</time>
      </trkpt>
      <trkpt lat="45.27673" lon="1.99803">
        <ele>591</ele>
        <time>2012-03-25T09:08:49Z</time>
      </trkpt>
      <trkpt lat="45.27675" lon="1.99806">
        <ele>591</ele>
        <time>2012-03-25T09:08:50Z</time>
      </trkpt>
      <trkpt lat="45.27677" lon="1.99811">
        <ele>592</ele>
        <time>2012-03-25T09:08:52Z</time>
      </trkpt>
      <trkpt lat="45.27681" lon="1.99819">
        <ele>593</ele>
        <time>2012-03-25T09:08:53Z</time>
      </trkpt>
      <trkpt lat="45.27684" lon="1.99824">
        <ele>593</ele>
        <time>2012-03-25T09:08:54Z</time>
      </trkpt>
      <trkpt lat="45.27687" lon="1.99828">
        <ele>593</ele>
        <time>2012-03-25T09:08:56Z</time>
      </trkpt>
      <trkpt lat="45.27691" lon="1.99839">
        <ele>595</ele>
        <time>2012-03-25T09:08:57Z</time>
      </trkpt>
      <trkpt lat="45.27694" lon="1.99846">
        <ele>594</ele>
        <time>2012-03-25T09:08:58Z</time>
      </trkpt>
      <trkpt lat="45.27697" lon="1.9985">
        <ele>595</ele>
        <time>2012-03-25T09:09:00Z</time>
      </trkpt>
      <trkpt lat="45.27702" lon="1.99857">
        <ele>595</ele>
        <time>2012-03-25T09:09:01Z</time>
      </trkpt>
      <trkpt lat="45.27706" lon="1.99862">
        <ele>595</ele>
        <time>2012-03-25T09:09:02Z</time>
      </trkpt>
      <trkpt lat="45.27709" lon="1.99866">
        <ele>595</ele>
        <time>2012-03-25T09:09:04Z</time>
      </trkpt>
      <trkpt lat="45.27713" lon="1.99877">
        <ele>595</ele>
        <time>2012-03-25T09:09:05Z</time>
      </trkpt>
      <trkpt lat="45.27715" lon="1.99881">
        <ele>595</ele>
        <time>2012-03-25T09:09:06Z</time>
      </trkpt>
      <trkpt lat="45.27718" lon="1.99885">
        <ele>595</ele>
        <time>2012-03-25T09:09:08Z</time>
      </trkpt>
      <trkpt lat="45.27724" lon="1.99895">
        <ele>595</ele>
        <time>2012-03-25T09:09:09Z</time>
      </trkpt>
      <trkpt lat="45.27727" lon="1.99899">
        <ele>595</ele>
        <time>2012-03-25T09:09:10Z</time>
      </trkpt>
      <trkpt lat="45.27729" lon="1.99904">
        <ele>596</ele>
        <time>2012-03-25T09:09:12Z</time>
      </trkpt>
      <trkpt lat="45.27734" lon="1.99912">
        <ele>597</ele>
        <time>2012-03-25T09:09:13Z</time>
      </trkpt>
      <trkpt lat="45.27736" lon="1.99916">
        <ele>597</ele>
        <time>2012-03-25T09:09:14Z</time>
      </trkpt>
      <trkpt lat="45.27738" lon="1.9992">
        <ele>598</ele>
        <time>2012-03-25T09:09:16Z</time>
      </trkpt>
      <trkpt lat="45.27743" lon="1.9993">
        <ele>598</ele>
        <time>2012-03-25T09:09:17Z</time>
      </trkpt>
      <trkpt lat="45.27745" lon="1.99934">
        <ele>598</ele>
        <time>2012-03-25T09:09:18Z</time>
      </trkpt>
      <trkpt lat="45.27748" lon="1.99938">
        <ele>598</ele>
        <time>2012-03-25T09:09:20Z</time>
      </trkpt>
      <trkpt lat="45.27753" lon="1.99947">
        <ele>598</ele>
        <time>2012-03-25T09:09:21Z</time>
      </trkpt>
      <trkpt lat="45.27756" lon="1.9995">
        <ele>599</ele>
        <time>2012-03-25T09:09:22Z</time>
      </trkpt>
      <trkpt lat="45.27759" lon="1.99957">
        <ele>599</ele>
        <time>2012-03-25T09:09:24Z</time>
      </trkpt>
      <trkpt lat="45.27765" lon="1.99967">
        <ele>599</ele>
        <time>2012-03-25T09:09:25Z</time>
      </trkpt>
      <trkpt lat="45.27766" lon="1.99971">
        <ele>600</ele>
        <time>2012-03-25T09:09:26Z</time>
      </trkpt>
      <trkpt lat="45.27769" lon="1.99975">
        <ele>600</ele>
        <time>2012-03-25T09:09:28Z</time>
      </trkpt>
      <trkpt lat="45.27774" lon="1.99984">
        <ele>599</ele>
        <time>2012-03-25T09:09:29Z</time>
      </trkpt>
      <trkpt lat="45.27776" lon="1.99989">
        <ele>600</ele>
        <time>2012-03-25T09:09:30Z</time>
      </trkpt>
      <trkpt lat="45.2778" lon="1.99995">
        <ele>600</ele>
        <time>2012-03-25T09:09:32Z</time>
      </trkpt>
      <trkpt lat="45.27786" lon="2.00004">
        <ele>599</ele>
        <time>2012-03-25T09:09:33Z</time>
      </trkpt>
      <trkpt lat="45.27789" lon="2.00009">
        <ele>599</ele>
        <time>2012-03-25T09:09:34Z</time>
      </trkpt>
      <trkpt lat="45.27793" lon="2.00012">
        <ele>600</ele>
        <time>2012-03-25T09:09:36Z</time>
      </trkpt>
      <trkpt lat="45.27797" lon="2.00024">
        <ele>600</ele>
        <time>2012-03-25T09:09:37Z</time>
      </trkpt>
      <trkpt lat="45.278" lon="2.00026">
        <ele>600</ele>
        <time>2012-03-25T09:09:38Z</time>
      </trkpt>
      <trkpt lat="45.27803" lon="2.00031">
        <ele>600</ele>
        <time>2012-03-25T09:09:40Z</time>
      </trkpt>
      <trkpt lat="45.27808" lon="2.00042">
        <ele>599</ele>
        <time>2012-03-25T09:09:41Z</time>
      </trkpt>
      <trkpt lat="45.2781" lon="2.00048">
        <ele>600</ele>
        <time>2012-03-25T09:09:42Z</time>
      </trkpt>
      <trkpt lat="45.27811" lon="2.00052">
        <ele>600</ele>
        <time>2012-03-25T09:09:44Z</time>
      </trkpt>
      <trkpt lat="45.27818" lon="2.00061">
        <ele>599</ele>
        <time>2012-03-25T09:09:45Z</time>
      </trkpt>
      <trkpt lat="45.27822" lon="2.00067">
        <ele>599</ele>
        <time>2012-03-25T09:09:46Z</time>
      </trkpt>
      <trkpt lat="45.27824" lon="2.00074">
        <ele>600</ele>
        <time>2012-03-25T09:09:48Z</time>
      </trkpt>
      <trkpt lat="45.27828" lon="2.00081">
        <ele>600</ele>
        <time>2012-03-25T09:09:49Z</time>
      </trkpt>
      <trkpt lat="45.2783" lon="2.00086">
        <ele>601</ele>
        <time>2012-03-25T09:09:50Z</time>
      </trkpt>
      <trkpt lat="45.27832" lon="2.0009">
        <ele>602</ele>
        <time>2012-03-25T09:09:52Z</time>
      </trkpt>
      <trkpt lat="45.27838" lon="2.001">
        <ele>602</ele>
        <time>2012-03-25T09:09:53Z</time>
      </trkpt>
      <trkpt lat="45.27842" lon="2.00107">
        <ele>602</ele>
        <time>2012-03-25T09:09:54Z</time>
      </trkpt>
      <trkpt lat="45.27845" lon="2.00112">
        <ele>602</ele>
        <time>2012-03-25T09:09:56Z</time>
      </trkpt>
      <trkpt lat="45.27848" lon="2.00119">
        <ele>603</ele>
        <time>2012-03-25T09:09:57Z</time>
      </trkpt>
      <trkpt lat="45.2785" lon="2.00122">
        <ele>602</ele>
        <time>2012-03-25T09:09:58Z</time>
      </trkpt>
      <trkpt lat="45.27853" lon="2.00127">
        <ele>603</ele>
        <time>2012-03-25T09:10:00Z</time>
      </trkpt>
      <trkpt lat="45.2786" lon="2.00141">
        <ele>604</ele>
        <time>2012-03-25T09:10:01Z</time>
      </trkpt>
      <trkpt lat="45.27862" lon="2.00146">
        <ele>603</ele>
        <time>2012-03-25T09:10:02Z</time>
      </trkpt>
      <trkpt lat="45.27865" lon="2.00152">
        <ele>603</ele>
        <time>2012-03-25T09:10:04Z</time>
      </trkpt>
      <trkpt lat="45.27872" lon="2.00163">
        <ele>603</ele>
        <time>2012-03-25T09:10:05Z</time>
      </trkpt>
      <trkpt lat="45.27877" lon="2.00169">
        <ele>603</ele>
        <time>2012-03-25T09:10:06Z</time>
      </trkpt>
      <trkpt lat="45.27881" lon="2.00176">
        <ele>603</ele>
        <time>2012-03-25T09:10:08Z</time>
      </trkpt>
      <trkpt lat="45.27889" lon="2.0019">
        <ele>603</ele>
        <time>2012-03-25T09:10:09Z</time>
      </trkpt>
      <trkpt lat="45.27891" lon="2.00195">
        <ele>603</ele>
        <time>2012-03-25T09:10:10Z</time>
      </trkpt>
      <trkpt lat="45.27894" lon="2.00202">
        <ele>603</ele>
        <time>2012-03-25T09:10:12Z</time>
      </trkpt>
      <trkpt lat="45.27901" lon="2.00217">
        <ele>604</ele>
        <time>2012-03-25T09:10:13Z</time>
      </trkpt>
      <trkpt lat="45.27905" lon="2.00226">
        <ele>604</ele>
        <time>2012-03-25T09:10:14Z</time>
      </trkpt>
      <trkpt lat="45.27908" lon="2.00237">
        <ele>604</ele>
        <time>2012-03-25T09:10:16Z</time>
      </trkpt>
      <trkpt lat="45.27912" lon="2.0026">
        <ele>605</ele>
        <time>2012-03-25T09:10:17Z</time>
      </trkpt>
      <trkpt lat="45.27913" lon="2.0027">
        <ele>604</ele>
        <time>2012-03-25T09:10:18Z</time>
      </trkpt>
      <trkpt lat="45.27915" lon="2.00283">
        <ele>603</ele>
        <time>2012-03-25T09:10:20Z</time>
      </trkpt>
      <trkpt lat="45.27915" lon="2.00307">
        <ele>603</ele>
        <time>2012-03-25T09:10:21Z</time>
      </trkpt>
      <trkpt lat="45.27913" lon="2.0032">
        <ele>602</ele>
        <time>2012-03-25T09:10:22Z</time>
      </trkpt>
      <trkpt lat="45.27908" lon="2.00331">
        <ele>602</ele>
        <time>2012-03-25T09:10:24Z</time>
      </trkpt>
      <trkpt lat="45.27902" lon="2.00357">
        <ele>601</ele>
        <time>2012-03-25T09:10:25Z</time>
      </trkpt>
      <trkpt lat="45.279" lon="2.00372">
        <ele>599</ele>
        <time>2012-03-25T09:10:26Z</time>
      </trkpt>
      <trkpt lat="45.27898" lon="2.00386">
        <ele>597</ele>
        <time>2012-03-25T09:10:28Z</time>
      </trkpt>
      <trkpt lat="45.27886" lon="2.00409">
        <ele>595</ele>
        <time>2012-03-25T09:10:29Z</time>
      </trkpt>
      <trkpt lat="45.27879" lon="2.00422">
        <ele>594</ele>
        <time>2012-03-25T09:10:30Z</time>
      </trkpt>
      <trkpt lat="45.27879" lon="2.00422">
        <ele>594</ele>
        <time>2012-03-25T09:10:32Z</time>
      </trkpt>
      <trkpt lat="45.27871" lon="2.00433">
        <ele>593</ele>
        <time>2012-03-25T09:10:33Z</time>
      </trkpt>
      <trkpt lat="45.27847" lon="2.00466">
        <ele>591</ele>
        <time>2012-03-25T09:10:34Z</time>
      </trkpt>
      <trkpt lat="45.27837" lon="2.00477">
        <ele>590</ele>
        <time>2012-03-25T09:10:35Z</time>
      </trkpt>
      <trkpt lat="45.27828" lon="2.00488">
        <ele>589</ele>
        <time>2012-03-25T09:10:36Z</time>
      </trkpt>
      <trkpt lat="45.27819" lon="2.00499">
        <ele>589</ele>
        <time>2012-03-25T09:10:37Z</time>
      </trkpt>
      <trkpt lat="45.27812" lon="2.0051">
        <ele>588</ele>
        <time>2012-03-25T09:10:38Z</time>
      </trkpt>
      <trkpt lat="45.27803" lon="2.00521">
        <ele>588</ele>
        <time>2012-03-25T09:10:39Z</time>
      </trkpt>
      <trkpt lat="45.27794" lon="2.00531">
        <ele>587</ele>
        <time>2012-03-25T09:10:40Z</time>
      </trkpt>
      <trkpt lat="45.27785" lon="2.00542">
        <ele>586</ele>
        <time>2012-03-25T09:10:41Z</time>
      </trkpt>
      <trkpt lat="45.27776" lon="2.00554">
        <ele>585</ele>
        <time>2012-03-25T09:10:42Z</time>
      </trkpt>
      <trkpt lat="45.27767" lon="2.00565">
        <ele>585</ele>
        <time>2012-03-25T09:10:43Z</time>
      </trkpt>
      <trkpt lat="45.27758" lon="2.00576">
        <ele>585</ele>
        <time>2012-03-25T09:10:44Z</time>
      </trkpt>
      <trkpt lat="45.2775" lon="2.00586">
        <ele>585</ele>
        <time>2012-03-25T09:10:45Z</time>
      </trkpt>
      <trkpt lat="45.27739" lon="2.00595">
        <ele>585</ele>
        <time>2012-03-25T09:10:46Z</time>
      </trkpt>
      <trkpt lat="45.2773" lon="2.00607">
        <ele>585</ele>
        <time>2012-03-25T09:10:47Z</time>
      </trkpt>
      <trkpt lat="45.2772" lon="2.0062">
        <ele>584</ele>
        <time>2012-03-25T09:10:48Z</time>
      </trkpt>
      <trkpt lat="45.27711" lon="2.00634">
        <ele>584</ele>
        <time>2012-03-25T09:10:49Z</time>
      </trkpt>
      <trkpt lat="45.27701" lon="2.00646">
        <ele>583</ele>
        <time>2012-03-25T09:10:50Z</time>
      </trkpt>
      <trkpt lat="45.27691" lon="2.00658">
        <ele>582</ele>
        <time>2012-03-25T09:10:51Z</time>
      </trkpt>
      <trkpt lat="45.27681" lon="2.00671">
        <ele>580</ele>
        <time>2012-03-25T09:10:52Z</time>
      </trkpt>
      <trkpt lat="45.27672" lon="2.00681">
        <ele>580</ele>
        <time>2012-03-25T09:10:53Z</time>
      </trkpt>
      <trkpt lat="45.27661" lon="2.00693">
        <ele>579</ele>
        <time>2012-03-25T09:10:54Z</time>
      </trkpt>
      <trkpt lat="45.2765" lon="2.00707">
        <ele>578</ele>
        <time>2012-03-25T09:10:55Z</time>
      </trkpt>
      <trkpt lat="45.2764" lon="2.00718">
        <ele>578</ele>
        <time>2012-03-25T09:10:57Z</time>
      </trkpt>
      <trkpt lat="45.27621" lon="2.00745">
        <ele>576</ele>
        <time>2012-03-25T09:10:58Z</time>
      </trkpt>
      <trkpt lat="45.27614" lon="2.00762">
        <ele>575</ele>
        <time>2012-03-25T09:10:59Z</time>
      </trkpt>
      <trkpt lat="45.27607" lon="2.00777">
        <ele>575</ele>
        <time>2012-03-25T09:11:00Z</time>
      </trkpt>
      <trkpt lat="45.27603" lon="2.00794">
        <ele>574</ele>
        <time>2012-03-25T09:11:01Z</time>
      </trkpt>
      <trkpt lat="45.276" lon="2.00812">
        <ele>573</ele>
        <time>2012-03-25T09:11:02Z</time>
      </trkpt>
      <trkpt lat="45.27598" lon="2.0083">
        <ele>573</ele>
        <time>2012-03-25T09:11:03Z</time>
      </trkpt>
      <trkpt lat="45.27601" lon="2.0085">
        <ele>573</ele>
        <time>2012-03-25T09:11:04Z</time>
      </trkpt>
      <trkpt lat="45.27604" lon="2.00869">
        <ele>572</ele>
        <time>2012-03-25T09:11:05Z</time>
      </trkpt>
      <trkpt lat="45.27608" lon="2.00885">
        <ele>571</ele>
        <time>2012-03-25T09:11:06Z</time>
      </trkpt>
      <trkpt lat="45.27615" lon="2.00901">
        <ele>571</ele>
        <time>2012-03-25T09:11:07Z</time>
      </trkpt>
      <trkpt lat="45.27622" lon="2.00915">
        <ele>571</ele>
        <time>2012-03-25T09:11:08Z</time>
      </trkpt>
      <trkpt lat="45.27632" lon="2.0093">
        <ele>570</ele>
        <time>2012-03-25T09:11:09Z</time>
      </trkpt>
      <trkpt lat="45.2764" lon="2.00942">
        <ele>570</ele>
        <time>2012-03-25T09:11:10Z</time>
      </trkpt>
      <trkpt lat="45.2764" lon="2.00942">
        <ele>570</ele>
        <time>2012-03-25T09:11:11Z</time>
      </trkpt>
      <trkpt lat="45.27648" lon="2.00953">
        <ele>570</ele>
        <time>2012-03-25T09:11:12Z</time>
      </trkpt>
      <trkpt lat="45.27657" lon="2.00967">
        <ele>570</ele>
        <time>2012-03-25T09:11:13Z</time>
      </trkpt>
      <trkpt lat="45.27668" lon="2.00979">
        <ele>568</ele>
        <time>2012-03-25T09:11:14Z</time>
      </trkpt>
      <trkpt lat="45.27678" lon="2.00993">
        <ele>568</ele>
        <time>2012-03-25T09:11:15Z</time>
      </trkpt>
      <trkpt lat="45.27691" lon="2.01007">
        <ele>567</ele>
        <time>2012-03-25T09:11:16Z</time>
      </trkpt>
      <trkpt lat="45.277" lon="2.01018">
        <ele>567</ele>
        <time>2012-03-25T09:11:17Z</time>
      </trkpt>
      <trkpt lat="45.27711" lon="2.01031">
        <ele>567</ele>
        <time>2012-03-25T09:11:18Z</time>
      </trkpt>
      <trkpt lat="45.27722" lon="2.01041">
        <ele>566</ele>
        <time>2012-03-25T09:11:19Z</time>
      </trkpt>
      <trkpt lat="45.27731" lon="2.0105">
        <ele>566</ele>
        <time>2012-03-25T09:11:20Z</time>
      </trkpt>
      <trkpt lat="45.27753" lon="2.01065">
        <ele>565</ele>
        <time>2012-03-25T09:11:21Z</time>
      </trkpt>
      <trkpt lat="45.27764" lon="2.01072">
        <ele>565</ele>
        <time>2012-03-25T09:11:23Z</time>
      </trkpt>
      <trkpt lat="45.27775" lon="2.01078">
        <ele>565</ele>
        <time>2012-03-25T09:11:24Z</time>
      </trkpt>
      <trkpt lat="45.27784" lon="2.01079">
        <ele>565</ele>
        <time>2012-03-25T09:11:25Z</time>
      </trkpt>
      <trkpt lat="45.27793" lon="2.01084">
        <ele>565</ele>
        <time>2012-03-25T09:11:26Z</time>
      </trkpt>
      <trkpt lat="45.27802" lon="2.01088">
        <ele>565</ele>
        <time>2012-03-25T09:11:27Z</time>
      </trkpt>
      <trkpt lat="45.27811" lon="2.01096">
        <ele>565</ele>
        <time>2012-03-25T09:11:28Z</time>
      </trkpt>
      <trkpt lat="45.2782" lon="2.01108">
        <ele>564</ele>
        <time>2012-03-25T09:11:29Z</time>
      </trkpt>
      <trkpt lat="45.27827" lon="2.01119">
        <ele>563</ele>
        <time>2012-03-25T09:11:30Z</time>
      </trkpt>
      <trkpt lat="45.27835" lon="2.01129">
        <ele>558</ele>
        <time>2012-03-25T09:11:31Z</time>
      </trkpt>
      <trkpt lat="45.27835" lon="2.01129">
        <ele>558</ele>
        <time>2012-03-25T09:11:32Z</time>
      </trkpt>
      <trkpt lat="45.27839" lon="2.01142">
        <ele>557</ele>
        <time>2012-03-25T09:11:33Z</time>
      </trkpt>
      <trkpt lat="45.27849" lon="2.01181">
        <ele>554</ele>
        <time>2012-03-25T09:11:34Z</time>
      </trkpt>
      <trkpt lat="45.27852" lon="2.01192">
        <ele>553</ele>
        <time>2012-03-25T09:11:36Z</time>
      </trkpt>
      <trkpt lat="45.27856" lon="2.01215">
        <ele>552</ele>
        <time>2012-03-25T09:11:37Z</time>
      </trkpt>
      <trkpt lat="45.27859" lon="2.01229">
        <ele>551</ele>
        <time>2012-03-25T09:11:38Z</time>
      </trkpt>
      <trkpt lat="45.27861" lon="2.01239">
        <ele>550</ele>
        <time>2012-03-25T09:11:40Z</time>
      </trkpt>
      <trkpt lat="45.27866" lon="2.01262">
        <ele>550</ele>
        <time>2012-03-25T09:11:41Z</time>
      </trkpt>
      <trkpt lat="45.27868" lon="2.01274">
        <ele>550</ele>
        <time>2012-03-25T09:11:42Z</time>
      </trkpt>
      <trkpt lat="45.27871" lon="2.01285">
        <ele>550</ele>
        <time>2012-03-25T09:11:44Z</time>
      </trkpt>
      <trkpt lat="45.27872" lon="2.01303">
        <ele>551</ele>
        <time>2012-03-25T09:11:45Z</time>
      </trkpt>
      <trkpt lat="45.27872" lon="2.01312">
        <ele>551</ele>
        <time>2012-03-25T09:11:46Z</time>
      </trkpt>
      <trkpt lat="45.27873" lon="2.01322">
        <ele>550</ele>
        <time>2012-03-25T09:11:48Z</time>
      </trkpt>
      <trkpt lat="45.27872" lon="2.01338">
        <ele>551</ele>
        <time>2012-03-25T09:11:49Z</time>
      </trkpt>
      <trkpt lat="45.27871" lon="2.01343">
        <ele>551</ele>
        <time>2012-03-25T09:11:50Z</time>
      </trkpt>
      <trkpt lat="45.27871" lon="2.01349">
        <ele>552</ele>
        <time>2012-03-25T09:11:52Z</time>
      </trkpt>
      <trkpt lat="45.27868" lon="2.01364">
        <ele>552</ele>
        <time>2012-03-25T09:11:53Z</time>
      </trkpt>
      <trkpt lat="45.27866" lon="2.0137">
        <ele>552</ele>
        <time>2012-03-25T09:11:54Z</time>
      </trkpt>
      <trkpt lat="45.27864" lon="2.01377">
        <ele>552</ele>
        <time>2012-03-25T09:11:56Z</time>
      </trkpt>
      <trkpt lat="45.27862" lon="2.0139">
        <ele>552</ele>
        <time>2012-03-25T09:11:57Z</time>
      </trkpt>
      <trkpt lat="45.2786" lon="2.01397">
        <ele>552</ele>
        <time>2012-03-25T09:11:58Z</time>
      </trkpt>
      <trkpt lat="45.27859" lon="2.01403">
        <ele>552</ele>
        <time>2012-03-25T09:12:00Z</time>
      </trkpt>
      <trkpt lat="45.27856" lon="2.01416">
        <ele>552</ele>
        <time>2012-03-25T09:12:01Z</time>
      </trkpt>
      <trkpt lat="45.27854" lon="2.01421">
        <ele>552</ele>
        <time>2012-03-25T09:12:02Z</time>
      </trkpt>
      <trkpt lat="45.27852" lon="2.01425">
        <ele>552</ele>
        <time>2012-03-25T09:12:04Z</time>
      </trkpt>
      <trkpt lat="45.2785" lon="2.01436">
        <ele>553</ele>
        <time>2012-03-25T09:12:05Z</time>
      </trkpt>
      <trkpt lat="45.27849" lon="2.01441">
        <ele>553</ele>
        <time>2012-03-25T09:12:06Z</time>
      </trkpt>
      <trkpt lat="45.2785" lon="2.01447">
        <ele>553</ele>
        <time>2012-03-25T09:12:08Z</time>
      </trkpt>
      <trkpt lat="45.2785" lon="2.01458">
        <ele>554</ele>
        <time>2012-03-25T09:12:09Z</time>
      </trkpt>
      <trkpt lat="45.27848" lon="2.01464">
        <ele>554</ele>
        <time>2012-03-25T09:12:10Z</time>
      </trkpt>
      <trkpt lat="45.27847" lon="2.0147">
        <ele>555</ele>
        <time>2012-03-25T09:12:12Z</time>
      </trkpt>
      <trkpt lat="45.27844" lon="2.01477">
        <ele>556</ele>
        <time>2012-03-25T09:12:13Z</time>
      </trkpt>
      <trkpt lat="45.27841" lon="2.01484">
        <ele>555</ele>
        <time>2012-03-25T09:12:14Z</time>
      </trkpt>
      <trkpt lat="45.27841" lon="2.0149">
        <ele>556</ele>
        <time>2012-03-25T09:12:16Z</time>
      </trkpt>
      <trkpt lat="45.27838" lon="2.015">
        <ele>556</ele>
        <time>2012-03-25T09:12:17Z</time>
      </trkpt>
      <trkpt lat="45.27837" lon="2.01504">
        <ele>556</ele>
        <time>2012-03-25T09:12:18Z</time>
      </trkpt>
      <trkpt lat="45.27835" lon="2.01508">
        <ele>556</ele>
        <time>2012-03-25T09:12:20Z</time>
      </trkpt>
      <trkpt lat="45.27835" lon="2.01521">
        <ele>556</ele>
        <time>2012-03-25T09:12:21Z</time>
      </trkpt>
      <trkpt lat="45.27835" lon="2.01526">
        <ele>556</ele>
        <time>2012-03-25T09:12:22Z</time>
      </trkpt>
      <trkpt lat="45.27834" lon="2.01532">
        <ele>556</ele>
        <time>2012-03-25T09:12:24Z</time>
      </trkpt>
      <trkpt lat="45.27834" lon="2.01543">
        <ele>556</ele>
        <time>2012-03-25T09:12:25Z</time>
      </trkpt>
      <trkpt lat="45.27834" lon="2.01548">
        <ele>556</ele>
        <time>2012-03-25T09:12:26Z</time>
      </trkpt>
      <trkpt lat="45.27833" lon="2.01554">
        <ele>556</ele>
        <time>2012-03-25T09:12:28Z</time>
      </trkpt>
      <trkpt lat="45.27834" lon="2.01565">
        <ele>557</ele>
        <time>2012-03-25T09:12:29Z</time>
      </trkpt>
      <trkpt lat="45.27833" lon="2.01569">
        <ele>557</ele>
        <time>2012-03-25T09:12:30Z</time>
      </trkpt>
      <trkpt lat="45.27832" lon="2.01573">
        <ele>557</ele>
        <time>2012-03-25T09:12:32Z</time>
      </trkpt>
      <trkpt lat="45.27832" lon="2.01583">
        <ele>558</ele>
        <time>2012-03-25T09:12:33Z</time>
      </trkpt>
      <trkpt lat="45.27834" lon="2.0159">
        <ele>557</ele>
        <time>2012-03-25T09:12:34Z</time>
      </trkpt>
      <trkpt lat="45.27835" lon="2.01596">
        <ele>557</ele>
        <time>2012-03-25T09:12:36Z</time>
      </trkpt>
      <trkpt lat="45.27835" lon="2.01608">
        <ele>557</ele>
        <time>2012-03-25T09:12:37Z</time>
      </trkpt>
      <trkpt lat="45.27837" lon="2.01614">
        <ele>557</ele>
        <time>2012-03-25T09:12:38Z</time>
      </trkpt>
      <trkpt lat="45.27838" lon="2.01621">
        <ele>557</ele>
        <time>2012-03-25T09:12:40Z</time>
      </trkpt>
      <trkpt lat="45.27834" lon="2.01629">
        <ele>558</ele>
        <time>2012-03-25T09:12:41Z</time>
      </trkpt>
      <trkpt lat="45.27834" lon="2.01635">
        <ele>558</ele>
        <time>2012-03-25T09:12:42Z</time>
      </trkpt>
      <trkpt lat="45.27832" lon="2.0164">
        <ele>558</ele>
        <time>2012-03-25T09:12:44Z</time>
      </trkpt>
      <trkpt lat="45.27828" lon="2.01649">
        <ele>559</ele>
        <time>2012-03-25T09:12:45Z</time>
      </trkpt>
      <trkpt lat="45.27826" lon="2.01653">
        <ele>560</ele>
        <time>2012-03-25T09:12:46Z</time>
      </trkpt>
      <trkpt lat="45.27824" lon="2.01658">
        <ele>560</ele>
        <time>2012-03-25T09:12:48Z</time>
      </trkpt>
      <trkpt lat="45.27822" lon="2.01668">
        <ele>560</ele>
        <time>2012-03-25T09:12:49Z</time>
      </trkpt>
      <trkpt lat="45.2782" lon="2.01673">
        <ele>560</ele>
        <time>2012-03-25T09:12:50Z</time>
      </trkpt>
      <trkpt lat="45.27818" lon="2.01677">
        <ele>560</ele>
        <time>2012-03-25T09:12:52Z</time>
      </trkpt>
      <trkpt lat="45.27813" lon="2.01686">
        <ele>560</ele>
        <time>2012-03-25T09:12:53Z</time>
      </trkpt>
      <trkpt lat="45.27811" lon="2.01689">
        <ele>561</ele>
        <time>2012-03-25T09:12:54Z</time>
      </trkpt>
      <trkpt lat="45.27809" lon="2.01693">
        <ele>561</ele>
        <time>2012-03-25T09:12:56Z</time>
      </trkpt>
      <trkpt lat="45.27807" lon="2.01704">
        <ele>561</ele>
        <time>2012-03-25T09:12:57Z</time>
      </trkpt>
      <trkpt lat="45.27804" lon="2.01707">
        <ele>562</ele>
        <time>2012-03-25T09:12:58Z</time>
      </trkpt>
      <trkpt lat="45.27802" lon="2.0171">
        <ele>562</ele>
        <time>2012-03-25T09:13:00Z</time>
      </trkpt>
      <trkpt lat="45.27798" lon="2.01719">
        <ele>563</ele>
        <time>2012-03-25T09:13:01Z</time>
      </trkpt>
      <trkpt lat="45.278" lon="2.01723">
        <ele>564</ele>
        <time>2012-03-25T09:13:02Z</time>
      </trkpt>
      <trkpt lat="45.27796" lon="2.01726">
        <ele>563</ele>
        <time>2012-03-25T09:13:04Z</time>
      </trkpt>
      <trkpt lat="45.27791" lon="2.01735">
        <ele>564</ele>
        <time>2012-03-25T09:13:05Z</time>
      </trkpt>
      <trkpt lat="45.27791" lon="2.01739">
        <ele>564</ele>
        <time>2012-03-25T09:13:06Z</time>
      </trkpt>
      <trkpt lat="45.27789" lon="2.01742">
        <ele>565</ele>
        <time>2012-03-25T09:13:08Z</time>
      </trkpt>
      <trkpt lat="45.27786" lon="2.01749">
        <ele>567</ele>
        <time>2012-03-25T09:13:09Z</time>
      </trkpt>
      <trkpt lat="45.27785" lon="2.01752">
        <ele>567</ele>
        <time>2012-03-25T09:13:10Z</time>
      </trkpt>
      <trkpt lat="45.27783" lon="2.01756">
        <ele>568</ele>
        <time>2012-03-25T09:13:12Z</time>
      </trkpt>
      <trkpt lat="45.2778" lon="2.01762">
        <ele>568</ele>
        <time>2012-03-25T09:13:13Z</time>
      </trkpt>
      <trkpt lat="45.27779" lon="2.01765">
        <ele>568</ele>
        <time>2012-03-25T09:13:14Z</time>
      </trkpt>
      <trkpt lat="45.27779" lon="2.0177">
        <ele>569</ele>
        <time>2012-03-25T09:13:16Z</time>
      </trkpt>
      <trkpt lat="45.27775" lon="2.01777">
        <ele>569</ele>
        <time>2012-03-25T09:13:17Z</time>
      </trkpt>
      <trkpt lat="45.27772" lon="2.0178">
        <ele>569</ele>
        <time>2012-03-25T09:13:18Z</time>
      </trkpt>
      <trkpt lat="45.2777" lon="2.01784">
        <ele>569</ele>
        <time>2012-03-25T09:13:20Z</time>
      </trkpt>
      <trkpt lat="45.27765" lon="2.0179">
        <ele>570</ele>
        <time>2012-03-25T09:13:21Z</time>
      </trkpt>
      <trkpt lat="45.27761" lon="2.01792">
        <ele>570</ele>
        <time>2012-03-25T09:13:22Z</time>
      </trkpt>
      <trkpt lat="45.27758" lon="2.01796">
        <ele>570</ele>
        <time>2012-03-25T09:13:24Z</time>
      </trkpt>
      <trkpt lat="45.27755" lon="2.01804">
        <ele>570</ele>
        <time>2012-03-25T09:13:25Z</time>
      </trkpt>
      <trkpt lat="45.27753" lon="2.01808">
        <ele>571</ele>
        <time>2012-03-25T09:13:26Z</time>
      </trkpt>
      <trkpt lat="45.2775" lon="2.01809">
        <ele>571</ele>
        <time>2012-03-25T09:13:28Z</time>
      </trkpt>
      <trkpt lat="45.27746" lon="2.01817">
        <ele>571</ele>
        <time>2012-03-25T09:13:29Z</time>
      </trkpt>
      <trkpt lat="45.27742" lon="2.01816">
        <ele>571</ele>
        <time>2012-03-25T09:13:30Z</time>
      </trkpt>
      <trkpt lat="45.27741" lon="2.01819">
        <ele>572</ele>
        <time>2012-03-25T09:13:32Z</time>
      </trkpt>
      <trkpt lat="45.27737" lon="2.01827">
        <ele>574</ele>
        <time>2012-03-25T09:13:33Z</time>
      </trkpt>
      <trkpt lat="45.27736" lon="2.0183">
        <ele>575</ele>
        <time>2012-03-25T09:13:34Z</time>
      </trkpt>
      <trkpt lat="45.27733" lon="2.01831">
        <ele>575</ele>
        <time>2012-03-25T09:13:36Z</time>
      </trkpt>
      <trkpt lat="45.27729" lon="2.01837">
        <ele>576</ele>
        <time>2012-03-25T09:13:37Z</time>
      </trkpt>
      <trkpt lat="45.27725" lon="2.01838">
        <ele>576</ele>
        <time>2012-03-25T09:13:38Z</time>
      </trkpt>
      <trkpt lat="45.27719" lon="2.01838">
        <ele>577</ele>
        <time>2012-03-25T09:13:40Z</time>
      </trkpt>
      <trkpt lat="45.27714" lon="2.01846">
        <ele>577</ele>
        <time>2012-03-25T09:13:41Z</time>
      </trkpt>
      <trkpt lat="45.27711" lon="2.01849">
        <ele>578</ele>
        <time>2012-03-25T09:13:42Z</time>
      </trkpt>
      <trkpt lat="45.27709" lon="2.01852">
        <ele>577</ele>
        <time>2012-03-25T09:13:44Z</time>
      </trkpt>
      <trkpt lat="45.27705" lon="2.01857">
        <ele>578</ele>
        <time>2012-03-25T09:13:45Z</time>
      </trkpt>
      <trkpt lat="45.27702" lon="2.01859">
        <ele>579</ele>
        <time>2012-03-25T09:13:46Z</time>
      </trkpt>
      <trkpt lat="45.27698" lon="2.01861">
        <ele>579</ele>
        <time>2012-03-25T09:13:48Z</time>
      </trkpt>
      <trkpt lat="45.27695" lon="2.01864">
        <ele>579</ele>
        <time>2012-03-25T09:13:49Z</time>
      </trkpt>
      <trkpt lat="45.27694" lon="2.01867">
        <ele>580</ele>
        <time>2012-03-25T09:13:50Z</time>
      </trkpt>
      <trkpt lat="45.27693" lon="2.01869">
        <ele>581</ele>
        <time>2012-03-25T09:13:52Z</time>
      </trkpt>
      <trkpt lat="45.2769" lon="2.01872">
        <ele>582</ele>
        <time>2012-03-25T09:13:53Z</time>
      </trkpt>
      <trkpt lat="45.27688" lon="2.01875">
        <ele>583</ele>
        <time>2012-03-25T09:13:54Z</time>
      </trkpt>
      <trkpt lat="45.27687" lon="2.01879">
        <ele>584</ele>
        <time>2012-03-25T09:13:56Z</time>
      </trkpt>
      <trkpt lat="45.27682" lon="2.01882">
        <ele>585</ele>
        <time>2012-03-25T09:13:57Z</time>
      </trkpt>
      <trkpt lat="45.27681" lon="2.01886">
        <ele>586</ele>
        <time>2012-03-25T09:13:58Z</time>
      </trkpt>
      <trkpt lat="45.27677" lon="2.01889">
        <ele>586</ele>
        <time>2012-03-25T09:14:00Z</time>
      </trkpt>
      <trkpt lat="45.27672" lon="2.01896">
        <ele>587</ele>
        <time>2012-03-25T09:14:01Z</time>
      </trkpt>
      <trkpt lat="45.27668" lon="2.01898">
        <ele>587</ele>
        <time>2012-03-25T09:14:02Z</time>
      </trkpt>
      <trkpt lat="45.27664" lon="2.01902">
        <ele>588</ele>
        <time>2012-03-25T09:14:04Z</time>
      </trkpt>
      <trkpt lat="45.27655" lon="2.0191">
        <ele>589</ele>
        <time>2012-03-25T09:14:05Z</time>
      </trkpt>
      <trkpt lat="45.27651" lon="2.01911">
        <ele>590</ele>
        <time>2012-03-25T09:14:06Z</time>
      </trkpt>
      <trkpt lat="45.27647" lon="2.01913">
        <ele>590</ele>
        <time>2012-03-25T09:14:08Z</time>
      </trkpt>
      <trkpt lat="45.27639" lon="2.01916">
        <ele>590</ele>
        <time>2012-03-25T09:14:09Z</time>
      </trkpt>
      <trkpt lat="45.27635" lon="2.01918">
        <ele>590</ele>
        <time>2012-03-25T09:14:10Z</time>
      </trkpt>
      <trkpt lat="45.27631" lon="2.01922">
        <ele>589</ele>
        <time>2012-03-25T09:14:12Z</time>
      </trkpt>
      <trkpt lat="45.27624" lon="2.01925">
        <ele>589</ele>
        <time>2012-03-25T09:14:13Z</time>
      </trkpt>
      <trkpt lat="45.2762" lon="2.0193">
        <ele>590</ele>
        <time>2012-03-25T09:14:14Z</time>
      </trkpt>
      <trkpt lat="45.27611" lon="2.01932">
        <ele>586</ele>
        <time>2012-03-25T09:14:16Z</time>
      </trkpt>
      <trkpt lat="45.27602" lon="2.01934">
        <ele>586</ele>
        <time>2012-03-25T09:14:17Z</time>
      </trkpt>
      <trkpt lat="45.276" lon="2.01939">
        <ele>585</ele>
        <time>2012-03-25T09:14:18Z</time>
      </trkpt>
      <trkpt lat="45.27597" lon="2.01944">
        <ele>585</ele>
        <time>2012-03-25T09:14:20Z</time>
      </trkpt>
      <trkpt lat="45.27592" lon="2.01949">
        <ele>586</ele>
        <time>2012-03-25T09:14:21Z</time>
      </trkpt>
      <trkpt lat="45.2759" lon="2.01953">
        <ele>586</ele>
        <time>2012-03-25T09:14:22Z</time>
      </trkpt>
      <trkpt lat="45.27587" lon="2.01955">
        <ele>587</ele>
        <time>2012-03-25T09:14:24Z</time>
      </trkpt>
      <trkpt lat="45.27582" lon="2.0196">
        <ele>588</ele>
        <time>2012-03-25T09:14:25Z</time>
      </trkpt>
      <trkpt lat="45.27581" lon="2.01963">
        <ele>589</ele>
        <time>2012-03-25T09:14:26Z</time>
      </trkpt>
      <trkpt lat="45.2758" lon="2.01967">
        <ele>589</ele>
        <time>2012-03-25T09:14:28Z</time>
      </trkpt>
      <trkpt lat="45.27576" lon="2.01973">
        <ele>589</ele>
        <time>2012-03-25T09:14:29Z</time>
      </trkpt>
      <trkpt lat="45.27574" lon="2.01976">
        <ele>589</ele>
        <time>2012-03-25T09:14:30Z</time>
      </trkpt>
      <trkpt lat="45.27573" lon="2.01979">
        <ele>589</ele>
        <time>2012-03-25T09:14:32Z</time>
      </trkpt>
      <trkpt lat="45.27568" lon="2.0198">
        <ele>591</ele>
        <time>2012-03-25T09:14:33Z</time>
      </trkpt>
      <trkpt lat="45.27562" lon="2.01982">
        <ele>591</ele>
        <time>2012-03-25T09:14:34Z</time>
      </trkpt>
      <trkpt lat="45.2756" lon="2.01986">
        <ele>592</ele>
        <time>2012-03-25T09:14:36Z</time>
      </trkpt>
      <trkpt lat="45.27552" lon="2.01992">
        <ele>591</ele>
        <time>2012-03-25T09:14:37Z</time>
      </trkpt>
      <trkpt lat="45.27551" lon="2.01995">
        <ele>592</ele>
        <time>2012-03-25T09:14:38Z</time>
      </trkpt>
      <trkpt lat="45.27547" lon="2.01998">
        <ele>592</ele>
        <time>2012-03-25T09:14:40Z</time>
      </trkpt>
      <trkpt lat="45.27542" lon="2.02002">
        <ele>592</ele>
        <time>2012-03-25T09:14:41Z</time>
      </trkpt>
      <trkpt lat="45.2754" lon="2.02005">
        <ele>593</ele>
        <time>2012-03-25T09:14:42Z</time>
      </trkpt>
      <trkpt lat="45.27538" lon="2.02006">
        <ele>593</ele>
        <time>2012-03-25T09:14:44Z</time>
      </trkpt>
      <trkpt lat="45.27531" lon="2.02007">
        <ele>594</ele>
        <time>2012-03-25T09:14:45Z</time>
      </trkpt>
      <trkpt lat="45.2753" lon="2.0201">
        <ele>595</ele>
        <time>2012-03-25T09:14:46Z</time>
      </trkpt>
      <trkpt lat="45.27528" lon="2.02012">
        <ele>594</ele>
        <time>2012-03-25T09:14:48Z</time>
      </trkpt>
      <trkpt lat="45.27523" lon="2.02019">
        <ele>594</ele>
        <time>2012-03-25T09:14:49Z</time>
      </trkpt>
      <trkpt lat="45.27521" lon="2.02022">
        <ele>595</ele>
        <time>2012-03-25T09:14:50Z</time>
      </trkpt>
      <trkpt lat="45.27518" lon="2.02025">
        <ele>595</ele>
        <time>2012-03-25T09:14:52Z</time>
      </trkpt>
      <trkpt lat="45.27514" lon="2.02028">
        <ele>595</ele>
        <time>2012-03-25T09:14:53Z</time>
      </trkpt>
      <trkpt lat="45.27511" lon="2.0203">
        <ele>595</ele>
        <time>2012-03-25T09:14:54Z</time>
      </trkpt>
      <trkpt lat="45.27508" lon="2.02031">
        <ele>596</ele>
        <time>2012-03-25T09:14:56Z</time>
      </trkpt>
      <trkpt lat="45.27502" lon="2.02033">
        <ele>596</ele>
        <time>2012-03-25T09:14:57Z</time>
      </trkpt>
      <trkpt lat="45.27498" lon="2.02035">
        <ele>595</ele>
        <time>2012-03-25T09:14:58Z</time>
      </trkpt>
      <trkpt lat="45.27493" lon="2.02036">
        <ele>595</ele>
        <time>2012-03-25T09:15:00Z</time>
      </trkpt>
      <trkpt lat="45.27487" lon="2.02041">
        <ele>595</ele>
        <time>2012-03-25T09:15:01Z</time>
      </trkpt>
      <trkpt lat="45.27485" lon="2.02042">
        <ele>595</ele>
        <time>2012-03-25T09:15:02Z</time>
      </trkpt>
      <trkpt lat="45.27482" lon="2.02043">
        <ele>595</ele>
        <time>2012-03-25T09:15:04Z</time>
      </trkpt>
      <trkpt lat="45.27472" lon="2.02047">
        <ele>597</ele>
        <time>2012-03-25T09:15:05Z</time>
      </trkpt>
      <trkpt lat="45.27467" lon="2.02049">
        <ele>597</ele>
        <time>2012-03-25T09:15:06Z</time>
      </trkpt>
      <trkpt lat="45.27462" lon="2.02051">
        <ele>598</ele>
        <time>2012-03-25T09:15:08Z</time>
      </trkpt>
      <trkpt lat="45.27453" lon="2.02054">
        <ele>599</ele>
        <time>2012-03-25T09:15:09Z</time>
      </trkpt>
      <trkpt lat="45.2745" lon="2.02055">
        <ele>599</ele>
        <time>2012-03-25T09:15:10Z</time>
      </trkpt>
      <trkpt lat="45.27447" lon="2.02057">
        <ele>600</ele>
        <time>2012-03-25T09:15:12Z</time>
      </trkpt>
      <trkpt lat="45.27441" lon="2.02063">
        <ele>599</ele>
        <time>2012-03-25T09:15:13Z</time>
      </trkpt>
      <trkpt lat="45.27437" lon="2.02066">
        <ele>598</ele>
        <time>2012-03-25T09:15:14Z</time>
      </trkpt>
      <trkpt lat="45.27434" lon="2.02068">
        <ele>599</ele>
        <time>2012-03-25T09:15:16Z</time>
      </trkpt>
      <trkpt lat="45.27427" lon="2.02073">
        <ele>598</ele>
        <time>2012-03-25T09:15:17Z</time>
      </trkpt>
      <trkpt lat="45.27423" lon="2.02074">
        <ele>599</ele>
        <time>2012-03-25T09:15:18Z</time>
      </trkpt>
      <trkpt lat="45.27418" lon="2.02076">
        <ele>600</ele>
        <time>2012-03-25T09:15:20Z</time>
      </trkpt>
      <trkpt lat="45.2741" lon="2.0208">
        <ele>602</ele>
        <time>2012-03-25T09:15:21Z</time>
      </trkpt>
      <trkpt lat="45.27406" lon="2.02081">
        <ele>602</ele>
        <time>2012-03-25T09:15:22Z</time>
      </trkpt>
      <trkpt lat="45.27403" lon="2.02085">
        <ele>602</ele>
        <time>2012-03-25T09:15:24Z</time>
      </trkpt>
      <trkpt lat="45.27397" lon="2.02089">
        <ele>602</ele>
        <time>2012-03-25T09:15:25Z</time>
      </trkpt>
      <trkpt lat="45.27395" lon="2.02092">
        <ele>604</ele>
        <time>2012-03-25T09:15:26Z</time>
      </trkpt>
      <trkpt lat="45.27392" lon="2.02095">
        <ele>605</ele>
        <time>2012-03-25T09:15:28Z</time>
      </trkpt>
      <trkpt lat="45.27389" lon="2.02102">
        <ele>605</ele>
        <time>2012-03-25T09:15:29Z</time>
      </trkpt>
      <trkpt lat="45.27386" lon="2.02105">
        <ele>605</ele>
        <time>2012-03-25T09:15:30Z</time>
      </trkpt>
      <trkpt lat="45.27384" lon="2.02109">
        <ele>605</ele>
        <time>2012-03-25T09:15:32Z</time>
      </trkpt>
      <trkpt lat="45.27374" lon="2.02107">
        <ele>607</ele>
        <time>2012-03-25T09:15:33Z</time>
      </trkpt>
      <trkpt lat="45.27373" lon="2.0211">
        <ele>608</ele>
        <time>2012-03-25T09:15:34Z</time>
      </trkpt>
      <trkpt lat="45.27368" lon="2.02112">
        <ele>609</ele>
        <time>2012-03-25T09:15:36Z</time>
      </trkpt>
      <trkpt lat="45.27356" lon="2.02118">
        <ele>611</ele>
        <time>2012-03-25T09:15:37Z</time>
      </trkpt>
      <trkpt lat="45.27352" lon="2.02124">
        <ele>609</ele>
        <time>2012-03-25T09:15:38Z</time>
      </trkpt>
      <trkpt lat="45.27345" lon="2.02128">
        <ele>609</ele>
        <time>2012-03-25T09:15:40Z</time>
      </trkpt>
      <trkpt lat="45.27333" lon="2.02136">
        <ele>608</ele>
        <time>2012-03-25T09:15:41Z</time>
      </trkpt>
      <trkpt lat="45.27322" lon="2.02136">
        <ele>604</ele>
        <time>2012-03-25T09:15:42Z</time>
      </trkpt>
      <trkpt lat="45.27315" lon="2.02139">
        <ele>601</ele>
        <time>2012-03-25T09:15:44Z</time>
      </trkpt>
      <trkpt lat="45.27302" lon="2.0215">
        <ele>598</ele>
        <time>2012-03-25T09:15:45Z</time>
      </trkpt>
      <trkpt lat="45.27296" lon="2.02154">
        <ele>597</ele>
        <time>2012-03-25T09:15:46Z</time>
      </trkpt>
      <trkpt lat="45.27292" lon="2.02157">
        <ele>596</ele>
        <time>2012-03-25T09:15:48Z</time>
      </trkpt>
      <trkpt lat="45.27286" lon="2.02172">
        <ele>597</ele>
        <time>2012-03-25T09:15:49Z</time>
      </trkpt>
      <trkpt lat="45.27282" lon="2.02177">
        <ele>597</ele>
        <time>2012-03-25T09:15:50Z</time>
      </trkpt>
      <trkpt lat="45.2728" lon="2.02184">
        <ele>596</ele>
        <time>2012-03-25T09:15:52Z</time>
      </trkpt>
      <trkpt lat="45.27274" lon="2.02196">
        <ele>597</ele>
        <time>2012-03-25T09:15:53Z</time>
      </trkpt>
      <trkpt lat="45.27271" lon="2.02203">
        <ele>597</ele>
        <time>2012-03-25T09:15:54Z</time>
      </trkpt>
      <trkpt lat="45.27267" lon="2.02209">
        <ele>598</ele>
        <time>2012-03-25T09:15:56Z</time>
      </trkpt>
      <trkpt lat="45.27261" lon="2.0222">
        <ele>598</ele>
        <time>2012-03-25T09:15:57Z</time>
      </trkpt>
      <trkpt lat="45.27259" lon="2.02227">
        <ele>599</ele>
        <time>2012-03-25T09:15:58Z</time>
      </trkpt>
      <trkpt lat="45.27256" lon="2.02234">
        <ele>599</ele>
        <time>2012-03-25T09:16:00Z</time>
      </trkpt>
      <trkpt lat="45.2725" lon="2.02245">
        <ele>600</ele>
        <time>2012-03-25T09:16:01Z</time>
      </trkpt>
      <trkpt lat="45.27248" lon="2.02251">
        <ele>600</ele>
        <time>2012-03-25T09:16:02Z</time>
      </trkpt>
      <trkpt lat="45.27244" lon="2.02257">
        <ele>600</ele>
        <time>2012-03-25T09:16:04Z</time>
      </trkpt>
      <trkpt lat="45.27238" lon="2.02267">
        <ele>601</ele>
        <time>2012-03-25T09:16:05Z</time>
      </trkpt>
      <trkpt lat="45.27235" lon="2.02273">
        <ele>601</ele>
        <time>2012-03-25T09:16:06Z</time>
      </trkpt>
      <trkpt lat="45.27232" lon="2.02278">
        <ele>601</ele>
        <time>2012-03-25T09:16:08Z</time>
      </trkpt>
      <trkpt lat="45.27226" lon="2.0229">
        <ele>602</ele>
        <time>2012-03-25T09:16:09Z</time>
      </trkpt>
      <trkpt lat="45.27223" lon="2.02294">
        <ele>602</ele>
        <time>2012-03-25T09:16:10Z</time>
      </trkpt>
      <trkpt lat="45.2722" lon="2.02299">
        <ele>602</ele>
        <time>2012-03-25T09:16:12Z</time>
      </trkpt>
      <trkpt lat="45.27215" lon="2.02313">
        <ele>602</ele>
        <time>2012-03-25T09:16:13Z</time>
      </trkpt>
      <trkpt lat="45.27212" lon="2.02319">
        <ele>602</ele>
        <time>2012-03-25T09:16:14Z</time>
      </trkpt>
      <trkpt lat="45.27209" lon="2.02326">
        <ele>602</ele>
        <time>2012-03-25T09:16:16Z</time>
      </trkpt>
      <trkpt lat="45.27202" lon="2.02338">
        <ele>601</ele>
        <time>2012-03-25T09:16:17Z</time>
      </trkpt>
      <trkpt lat="45.27199" lon="2.02344">
        <ele>601</ele>
        <time>2012-03-25T09:16:18Z</time>
      </trkpt>
      <trkpt lat="45.27197" lon="2.02351">
        <ele>601</ele>
        <time>2012-03-25T09:16:20Z</time>
      </trkpt>
      <trkpt lat="45.27191" lon="2.02363">
        <ele>601</ele>
        <time>2012-03-25T09:16:21Z</time>
      </trkpt>
      <trkpt lat="45.27189" lon="2.0237">
        <ele>601</ele>
        <time>2012-03-25T09:16:22Z</time>
      </trkpt>
      <trkpt lat="45.27187" lon="2.02376">
        <ele>601</ele>
        <time>2012-03-25T09:16:24Z</time>
      </trkpt>
      <trkpt lat="45.27183" lon="2.02389">
        <ele>601</ele>
        <time>2012-03-25T09:16:25Z</time>
      </trkpt>
      <trkpt lat="45.27179" lon="2.02396">
        <ele>601</ele>
        <time>2012-03-25T09:16:26Z</time>
      </trkpt>
      <trkpt lat="45.27177" lon="2.02401">
        <ele>601</ele>
        <time>2012-03-25T09:16:28Z</time>
      </trkpt>
      <trkpt lat="45.27174" lon="2.02416">
        <ele>601</ele>
        <time>2012-03-25T09:16:29Z</time>
      </trkpt>
      <trkpt lat="45.27172" lon="2.0242">
        <ele>601</ele>
        <time>2012-03-25T09:16:30Z</time>
      </trkpt>
      <trkpt lat="45.27171" lon="2.02429">
        <ele>601</ele>
        <time>2012-03-25T09:16:32Z</time>
      </trkpt>
      <trkpt lat="45.27168" lon="2.02441">
        <ele>601</ele>
        <time>2012-03-25T09:16:33Z</time>
      </trkpt>
      <trkpt lat="45.27167" lon="2.02448">
        <ele>601</ele>
        <time>2012-03-25T09:16:34Z</time>
      </trkpt>
      <trkpt lat="45.27165" lon="2.02456">
        <ele>601</ele>
        <time>2012-03-25T09:16:36Z</time>
      </trkpt>
      <trkpt lat="45.27163" lon="2.02471">
        <ele>602</ele>
        <time>2012-03-25T09:16:37Z</time>
      </trkpt>
      <trkpt lat="45.27162" lon="2.02478">
        <ele>602</ele>
        <time>2012-03-25T09:16:38Z</time>
      </trkpt>
      <trkpt lat="45.27162" lon="2.02488">
        <ele>602</ele>
        <time>2012-03-25T09:16:40Z</time>
      </trkpt>
      <trkpt lat="45.27159" lon="2.02503">
        <ele>601</ele>
        <time>2012-03-25T09:16:41Z</time>
      </trkpt>
      <trkpt lat="45.27158" lon="2.02511">
        <ele>601</ele>
        <time>2012-03-25T09:16:42Z</time>
      </trkpt>
      <trkpt lat="45.27157" lon="2.02519">
        <ele>600</ele>
        <time>2012-03-25T09:16:44Z</time>
      </trkpt>
      <trkpt lat="45.27154" lon="2.02535">
        <ele>600</ele>
        <time>2012-03-25T09:16:45Z</time>
      </trkpt>
      <trkpt lat="45.27153" lon="2.02542">
        <ele>601</ele>
        <time>2012-03-25T09:16:46Z</time>
      </trkpt>
      <trkpt lat="45.27152" lon="2.02549">
        <ele>600</ele>
        <time>2012-03-25T09:16:48Z</time>
      </trkpt>
      <trkpt lat="45.2715" lon="2.02565">
        <ele>600</ele>
        <time>2012-03-25T09:16:49Z</time>
      </trkpt>
      <trkpt lat="45.27148" lon="2.02572">
        <ele>600</ele>
        <time>2012-03-25T09:16:50Z</time>
      </trkpt>
      <trkpt lat="45.27147" lon="2.0258">
        <ele>601</ele>
        <time>2012-03-25T09:16:52Z</time>
      </trkpt>
      <trkpt lat="45.27143" lon="2.02596">
        <ele>601</ele>
        <time>2012-03-25T09:16:53Z</time>
      </trkpt>
      <trkpt lat="45.27142" lon="2.02604">
        <ele>601</ele>
        <time>2012-03-25T09:16:54Z</time>
      </trkpt>
      <trkpt lat="45.27141" lon="2.02613">
        <ele>601</ele>
        <time>2012-03-25T09:16:56Z</time>
      </trkpt>
      <trkpt lat="45.27139" lon="2.0263">
        <ele>602</ele>
        <time>2012-03-25T09:16:57Z</time>
      </trkpt>
      <trkpt lat="45.27135" lon="2.02638">
        <ele>601</ele>
        <time>2012-03-25T09:16:58Z</time>
      </trkpt>
      <trkpt lat="45.27134" lon="2.02645">
        <ele>602</ele>
        <time>2012-03-25T09:17:00Z</time>
      </trkpt>
      <trkpt lat="45.2713" lon="2.02659">
        <ele>602</ele>
        <time>2012-03-25T09:17:01Z</time>
      </trkpt>
      <trkpt lat="45.27126" lon="2.02665">
        <ele>601</ele>
        <time>2012-03-25T09:17:02Z</time>
      </trkpt>
      <trkpt lat="45.27123" lon="2.02671">
        <ele>602</ele>
        <time>2012-03-25T09:17:04Z</time>
      </trkpt>
      <trkpt lat="45.27115" lon="2.02679">
        <ele>603</ele>
        <time>2012-03-25T09:17:05Z</time>
      </trkpt>
      <trkpt lat="45.27111" lon="2.02683">
        <ele>603</ele>
        <time>2012-03-25T09:17:06Z</time>
      </trkpt>
      <trkpt lat="45.27107" lon="2.02687">
        <ele>602</ele>
        <time>2012-03-25T09:17:08Z</time>
      </trkpt>
      <trkpt lat="45.27101" lon="2.02696">
        <ele>603</ele>
        <time>2012-03-25T09:17:09Z</time>
      </trkpt>
      <trkpt lat="45.27099" lon="2.02703">
        <ele>603</ele>
        <time>2012-03-25T09:17:10Z</time>
      </trkpt>
      <trkpt lat="45.27099" lon="2.02709">
        <ele>603</ele>
        <time>2012-03-25T09:17:12Z</time>
      </trkpt>
      <trkpt lat="45.27103" lon="2.02722">
        <ele>604</ele>
        <time>2012-03-25T09:17:13Z</time>
      </trkpt>
      <trkpt lat="45.27105" lon="2.02729">
        <ele>605</ele>
        <time>2012-03-25T09:17:14Z</time>
      </trkpt>
      <trkpt lat="45.27109" lon="2.02735">
        <ele>605</ele>
        <time>2012-03-25T09:17:15Z</time>
      </trkpt>
      <trkpt lat="45.27113" lon="2.02743">
        <ele>605</ele>
        <time>2012-03-25T09:17:16Z</time>
      </trkpt>
      <trkpt lat="45.27116" lon="2.02751">
        <ele>604</ele>
        <time>2012-03-25T09:17:17Z</time>
      </trkpt>
      <trkpt lat="45.2712" lon="2.02758">
        <ele>605</ele>
        <time>2012-03-25T09:17:18Z</time>
      </trkpt>
      <trkpt lat="45.27122" lon="2.02764">
        <ele>605</ele>
        <time>2012-03-25T09:17:19Z</time>
      </trkpt>
      <trkpt lat="45.27124" lon="2.02769">
        <ele>605</ele>
        <time>2012-03-25T09:17:20Z</time>
      </trkpt>
      <trkpt lat="45.27127" lon="2.02778">
        <ele>605</ele>
        <time>2012-03-25T09:17:21Z</time>
      </trkpt>
      <trkpt lat="45.2713" lon="2.02787">
        <ele>605</ele>
        <time>2012-03-25T09:17:22Z</time>
      </trkpt>
      <trkpt lat="45.27132" lon="2.02793">
        <ele>605</ele>
        <time>2012-03-25T09:17:23Z</time>
      </trkpt>
      <trkpt lat="45.27135" lon="2.028">
        <ele>605</ele>
        <time>2012-03-25T09:17:24Z</time>
      </trkpt>
      <trkpt lat="45.27138" lon="2.02807">
        <ele>606</ele>
        <time>2012-03-25T09:17:25Z</time>
      </trkpt>
      <trkpt lat="45.2714" lon="2.02811">
        <ele>606</ele>
        <time>2012-03-25T09:17:26Z</time>
      </trkpt>
      <trkpt lat="45.27144" lon="2.02818">
        <ele>607</ele>
        <time>2012-03-25T09:17:28Z</time>
      </trkpt>
      <trkpt lat="45.27152" lon="2.02829">
        <ele>607</ele>
        <time>2012-03-25T09:17:29Z</time>
      </trkpt>
      <trkpt lat="45.27156" lon="2.02836">
        <ele>607</ele>
        <time>2012-03-25T09:17:30Z</time>
      </trkpt>
      <trkpt lat="45.2716" lon="2.02842">
        <ele>607</ele>
        <time>2012-03-25T09:17:32Z</time>
      </trkpt>
      <trkpt lat="45.27168" lon="2.0285">
        <ele>607</ele>
        <time>2012-03-25T09:17:33Z</time>
      </trkpt>
      <trkpt lat="45.27171" lon="2.02855">
        <ele>607</ele>
        <time>2012-03-25T09:17:34Z</time>
      </trkpt>
      <trkpt lat="45.27174" lon="2.02859">
        <ele>608</ele>
        <time>2012-03-25T09:17:36Z</time>
      </trkpt>
      <trkpt lat="45.27182" lon="2.02872">
        <ele>609</ele>
        <time>2012-03-25T09:17:37Z</time>
      </trkpt>
      <trkpt lat="45.27185" lon="2.02876">
        <ele>609</ele>
        <time>2012-03-25T09:17:38Z</time>
      </trkpt>
      <trkpt lat="45.27189" lon="2.02882">
        <ele>609</ele>
        <time>2012-03-25T09:17:40Z</time>
      </trkpt>
      <trkpt lat="45.27194" lon="2.02894">
        <ele>608</ele>
        <time>2012-03-25T09:17:41Z</time>
      </trkpt>
      <trkpt lat="45.27198" lon="2.02905">
        <ele>607</ele>
        <time>2012-03-25T09:17:42Z</time>
      </trkpt>
      <trkpt lat="45.272" lon="2.02912">
        <ele>607</ele>
        <time>2012-03-25T09:17:44Z</time>
      </trkpt>
      <trkpt lat="45.27206" lon="2.02926">
        <ele>607</ele>
        <time>2012-03-25T09:17:45Z</time>
      </trkpt>
      <trkpt lat="45.2721" lon="2.02933">
        <ele>606</ele>
        <time>2012-03-25T09:17:46Z</time>
      </trkpt>
      <trkpt lat="45.27214" lon="2.02938">
        <ele>606</ele>
        <time>2012-03-25T09:17:48Z</time>
      </trkpt>
      <trkpt lat="45.27219" lon="2.02949">
        <ele>606</ele>
        <time>2012-03-25T09:17:49Z</time>
      </trkpt>
      <trkpt lat="45.27221" lon="2.02955">
        <ele>607</ele>
        <time>2012-03-25T09:17:50Z</time>
      </trkpt>
      <trkpt lat="45.27223" lon="2.02961">
        <ele>607</ele>
        <time>2012-03-25T09:17:52Z</time>
      </trkpt>
      <trkpt lat="45.27227" lon="2.02971">
        <ele>607</ele>
        <time>2012-03-25T09:17:53Z</time>
      </trkpt>
      <trkpt lat="45.2723" lon="2.02976">
        <ele>608</ele>
        <time>2012-03-25T09:17:54Z</time>
      </trkpt>
      <trkpt lat="45.27232" lon="2.02982">
        <ele>608</ele>
        <time>2012-03-25T09:17:56Z</time>
      </trkpt>
      <trkpt lat="45.27237" lon="2.02994">
        <ele>608</ele>
        <time>2012-03-25T09:17:57Z</time>
      </trkpt>
      <trkpt lat="45.27238" lon="2.02999">
        <ele>608</ele>
        <time>2012-03-25T09:17:58Z</time>
      </trkpt>
      <trkpt lat="45.27241" lon="2.03004">
        <ele>609</ele>
        <time>2012-03-25T09:18:00Z</time>
      </trkpt>
      <trkpt lat="45.27244" lon="2.03014">
        <ele>609</ele>
        <time>2012-03-25T09:18:01Z</time>
      </trkpt>
      <trkpt lat="45.27245" lon="2.03021">
        <ele>609</ele>
        <time>2012-03-25T09:18:02Z</time>
      </trkpt>
      <trkpt lat="45.27247" lon="2.03024">
        <ele>609</ele>
        <time>2012-03-25T09:18:03Z</time>
      </trkpt>
      <trkpt lat="45.27249" lon="2.0303">
        <ele>610</ele>
        <time>2012-03-25T09:18:04Z</time>
      </trkpt>
      <trkpt lat="45.27251" lon="2.03036">
        <ele>610</ele>
        <time>2012-03-25T09:18:05Z</time>
      </trkpt>
      <trkpt lat="45.27252" lon="2.03041">
        <ele>611</ele>
        <time>2012-03-25T09:18:06Z</time>
      </trkpt>
      <trkpt lat="45.27253" lon="2.03047">
        <ele>611</ele>
        <time>2012-03-25T09:18:07Z</time>
      </trkpt>
      <trkpt lat="45.27255" lon="2.03052">
        <ele>612</ele>
        <time>2012-03-25T09:18:08Z</time>
      </trkpt>
      <trkpt lat="45.27257" lon="2.03059">
        <ele>612</ele>
        <time>2012-03-25T09:18:09Z</time>
      </trkpt>
      <trkpt lat="45.27259" lon="2.03065">
        <ele>612</ele>
        <time>2012-03-25T09:18:10Z</time>
      </trkpt>
      <trkpt lat="45.27261" lon="2.03071">
        <ele>612</ele>
        <time>2012-03-25T09:18:11Z</time>
      </trkpt>
      <trkpt lat="45.27262" lon="2.03078">
        <ele>612</ele>
        <time>2012-03-25T09:18:12Z</time>
      </trkpt>
      <trkpt lat="45.27265" lon="2.03083">
        <ele>612</ele>
        <time>2012-03-25T09:18:13Z</time>
      </trkpt>
      <trkpt lat="45.27266" lon="2.03089">
        <ele>612</ele>
        <time>2012-03-25T09:18:14Z</time>
      </trkpt>
      <trkpt lat="45.27268" lon="2.03094">
        <ele>612</ele>
        <time>2012-03-25T09:18:15Z</time>
      </trkpt>
      <trkpt lat="45.27271" lon="2.03102">
        <ele>612</ele>
        <time>2012-03-25T09:18:16Z</time>
      </trkpt>
      <trkpt lat="45.27273" lon="2.03109">
        <ele>611</ele>
        <time>2012-03-25T09:18:17Z</time>
      </trkpt>
      <trkpt lat="45.27275" lon="2.03116">
        <ele>611</ele>
        <time>2012-03-25T09:18:18Z</time>
      </trkpt>
      <trkpt lat="45.27277" lon="2.03123">
        <ele>611</ele>
        <time>2012-03-25T09:18:19Z</time>
      </trkpt>
      <trkpt lat="45.27278" lon="2.0313">
        <ele>612</ele>
        <time>2012-03-25T09:18:20Z</time>
      </trkpt>
      <trkpt lat="45.27279" lon="2.03139">
        <ele>613</ele>
        <time>2012-03-25T09:18:21Z</time>
      </trkpt>
      <trkpt lat="45.27281" lon="2.03145">
        <ele>614</ele>
        <time>2012-03-25T09:18:22Z</time>
      </trkpt>
      <trkpt lat="45.27283" lon="2.03152">
        <ele>614</ele>
        <time>2012-03-25T09:18:23Z</time>
      </trkpt>
      <trkpt lat="45.27284" lon="2.03156">
        <ele>614</ele>
        <time>2012-03-25T09:18:24Z</time>
      </trkpt>
      <trkpt lat="45.27285" lon="2.03159">
        <ele>615</ele>
        <time>2012-03-25T09:18:26Z</time>
      </trkpt>
      <trkpt lat="45.27289" lon="2.03165">
        <ele>615</ele>
        <time>2012-03-25T09:18:27Z</time>
      </trkpt>
      <trkpt lat="45.27291" lon="2.03168">
        <ele>615</ele>
        <time>2012-03-25T09:18:28Z</time>
      </trkpt>
      <trkpt lat="45.27294" lon="2.03172">
        <ele>615</ele>
        <time>2012-03-25T09:18:29Z</time>
      </trkpt>
      <trkpt lat="45.27297" lon="2.03177">
        <ele>616</ele>
        <time>2012-03-25T09:18:30Z</time>
      </trkpt>
      <trkpt lat="45.273" lon="2.0318">
        <ele>616</ele>
        <time>2012-03-25T09:18:31Z</time>
      </trkpt>
      <trkpt lat="45.27304" lon="2.03183">
        <ele>615</ele>
        <time>2012-03-25T09:18:32Z</time>
      </trkpt>
      <trkpt lat="45.27307" lon="2.03185">
        <ele>616</ele>
        <time>2012-03-25T09:18:33Z</time>
      </trkpt>
      <trkpt lat="45.27309" lon="2.03187">
        <ele>615</ele>
        <time>2012-03-25T09:18:34Z</time>
      </trkpt>
      <trkpt lat="45.27314" lon="2.0319">
        <ele>615</ele>
        <time>2012-03-25T09:18:35Z</time>
      </trkpt>
      <trkpt lat="45.27317" lon="2.03198">
        <ele>616</ele>
        <time>2012-03-25T09:18:36Z</time>
      </trkpt>
      <trkpt lat="45.27317" lon="2.03198">
        <ele>616</ele>
        <time>2012-03-25T09:18:37Z</time>
      </trkpt>
      <trkpt lat="45.27329" lon="2.0321">
        <ele>617</ele>
        <time>2012-03-25T09:18:38Z</time>
      </trkpt>
      <trkpt lat="45.27332" lon="2.03213">
        <ele>617</ele>
        <time>2012-03-25T09:18:39Z</time>
      </trkpt>
      <trkpt lat="45.27335" lon="2.03214">
        <ele>617</ele>
        <time>2012-03-25T09:18:41Z</time>
      </trkpt>
      <trkpt lat="45.2734" lon="2.03214">
        <ele>617</ele>
        <time>2012-03-25T09:18:42Z</time>
      </trkpt>
      <trkpt lat="45.27344" lon="2.03217">
        <ele>616</ele>
        <time>2012-03-25T09:18:43Z</time>
      </trkpt>
      <trkpt lat="45.27348" lon="2.03219">
        <ele>616</ele>
        <time>2012-03-25T09:18:45Z</time>
      </trkpt>
      <trkpt lat="45.27354" lon="2.03224">
        <ele>617</ele>
        <time>2012-03-25T09:18:46Z</time>
      </trkpt>
      <trkpt lat="45.27357" lon="2.03224">
        <ele>618</ele>
        <time>2012-03-25T09:18:47Z</time>
      </trkpt>
      <trkpt lat="45.27362" lon="2.0323">
        <ele>617</ele>
        <time>2012-03-25T09:18:49Z</time>
      </trkpt>
      <trkpt lat="45.27368" lon="2.03235">
        <ele>616</ele>
        <time>2012-03-25T09:18:50Z</time>
      </trkpt>
      <trkpt lat="45.27371" lon="2.03241">
        <ele>617</ele>
        <time>2012-03-25T09:18:51Z</time>
      </trkpt>
      <trkpt lat="45.27376" lon="2.03244">
        <ele>617</ele>
        <time>2012-03-25T09:18:53Z</time>
      </trkpt>
      <trkpt lat="45.27382" lon="2.0325">
        <ele>618</ele>
        <time>2012-03-25T09:18:54Z</time>
      </trkpt>
      <trkpt lat="45.27385" lon="2.03254">
        <ele>618</ele>
        <time>2012-03-25T09:18:55Z</time>
      </trkpt>
      <trkpt lat="45.27389" lon="2.03257">
        <ele>618</ele>
        <time>2012-03-25T09:18:57Z</time>
      </trkpt>
      <trkpt lat="45.27394" lon="2.03263">
        <ele>618</ele>
        <time>2012-03-25T09:18:58Z</time>
      </trkpt>
      <trkpt lat="45.27396" lon="2.03265">
        <ele>618</ele>
        <time>2012-03-25T09:18:59Z</time>
      </trkpt>
      <trkpt lat="45.27399" lon="2.03268">
        <ele>619</ele>
        <time>2012-03-25T09:19:01Z</time>
      </trkpt>
      <trkpt lat="45.27405" lon="2.0327">
        <ele>619</ele>
        <time>2012-03-25T09:19:02Z</time>
      </trkpt>
      <trkpt lat="45.27409" lon="2.03272">
        <ele>619</ele>
        <time>2012-03-25T09:19:03Z</time>
      </trkpt>
      <trkpt lat="45.27412" lon="2.03274">
        <ele>619</ele>
        <time>2012-03-25T09:19:05Z</time>
      </trkpt>
      <trkpt lat="45.27419" lon="2.03276">
        <ele>619</ele>
        <time>2012-03-25T09:19:06Z</time>
      </trkpt>
      <trkpt lat="45.27422" lon="2.03277">
        <ele>620</ele>
        <time>2012-03-25T09:19:07Z</time>
      </trkpt>
      <trkpt lat="45.27426" lon="2.03279">
        <ele>620</ele>
        <time>2012-03-25T09:19:09Z</time>
      </trkpt>
      <trkpt lat="45.27433" lon="2.03283">
        <ele>620</ele>
        <time>2012-03-25T09:19:10Z</time>
      </trkpt>
      <trkpt lat="45.27436" lon="2.03285">
        <ele>620</ele>
        <time>2012-03-25T09:19:11Z</time>
      </trkpt>
      <trkpt lat="45.2744" lon="2.03287">
        <ele>620</ele>
        <time>2012-03-25T09:19:13Z</time>
      </trkpt>
      <trkpt lat="45.27446" lon="2.03293">
        <ele>620</ele>
        <time>2012-03-25T09:19:14Z</time>
      </trkpt>
      <trkpt lat="45.2745" lon="2.03296">
        <ele>620</ele>
        <time>2012-03-25T09:19:15Z</time>
      </trkpt>
      <trkpt lat="45.27453" lon="2.03299">
        <ele>620</ele>
        <time>2012-03-25T09:19:17Z</time>
      </trkpt>
      <trkpt lat="45.27459" lon="2.03304">
        <ele>622</ele>
        <time>2012-03-25T09:19:18Z</time>
      </trkpt>
      <trkpt lat="45.27461" lon="2.03305">
        <ele>622</ele>
        <time>2012-03-25T09:19:19Z</time>
      </trkpt>
      <trkpt lat="45.27464" lon="2.03308">
        <ele>623</ele>
        <time>2012-03-25T09:19:21Z</time>
      </trkpt>
      <trkpt lat="45.27469" lon="2.03312">
        <ele>624</ele>
        <time>2012-03-25T09:19:22Z</time>
      </trkpt>
      <trkpt lat="45.27471" lon="2.03315">
        <ele>624</ele>
        <time>2012-03-25T09:19:23Z</time>
      </trkpt>
      <trkpt lat="45.27473" lon="2.03322">
        <ele>624</ele>
        <time>2012-03-25T09:19:25Z</time>
      </trkpt>
      <trkpt lat="45.27479" lon="2.03329">
        <ele>625</ele>
        <time>2012-03-25T09:19:26Z</time>
      </trkpt>
      <trkpt lat="45.27482" lon="2.03333">
        <ele>625</ele>
        <time>2012-03-25T09:19:27Z</time>
      </trkpt>
      <trkpt lat="45.27485" lon="2.03336">
        <ele>625</ele>
        <time>2012-03-25T09:19:29Z</time>
      </trkpt>
      <trkpt lat="45.27491" lon="2.03343">
        <ele>626</ele>
        <time>2012-03-25T09:19:30Z</time>
      </trkpt>
      <trkpt lat="45.27494" lon="2.03346">
        <ele>626</ele>
        <time>2012-03-25T09:19:31Z</time>
      </trkpt>
      <trkpt lat="45.27497" lon="2.0335">
        <ele>627</ele>
        <time>2012-03-25T09:19:33Z</time>
      </trkpt>
      <trkpt lat="45.27502" lon="2.03352">
        <ele>628</ele>
        <time>2012-03-25T09:19:34Z</time>
      </trkpt>
      <trkpt lat="45.27506" lon="2.03354">
        <ele>629</ele>
        <time>2012-03-25T09:19:35Z</time>
      </trkpt>
      <trkpt lat="45.27508" lon="2.03357">
        <ele>629</ele>
        <time>2012-03-25T09:19:37Z</time>
      </trkpt>
      <trkpt lat="45.27515" lon="2.03364">
        <ele>630</ele>
        <time>2012-03-25T09:19:38Z</time>
      </trkpt>
      <trkpt lat="45.27518" lon="2.03368">
        <ele>631</ele>
        <time>2012-03-25T09:19:39Z</time>
      </trkpt>
      <trkpt lat="45.27522" lon="2.03371">
        <ele>630</ele>
        <time>2012-03-25T09:19:41Z</time>
      </trkpt>
      <trkpt lat="45.27528" lon="2.03376">
        <ele>630</ele>
        <time>2012-03-25T09:19:42Z</time>
      </trkpt>
      <trkpt lat="45.27531" lon="2.03379">
        <ele>631</ele>
        <time>2012-03-25T09:19:43Z</time>
      </trkpt>
      <trkpt lat="45.27536" lon="2.03381">
        <ele>631</ele>
        <time>2012-03-25T09:19:45Z</time>
      </trkpt>
      <trkpt lat="45.27543" lon="2.03389">
        <ele>631</ele>
        <time>2012-03-25T09:19:46Z</time>
      </trkpt>
      <trkpt lat="45.27547" lon="2.03394">
        <ele>630</ele>
        <time>2012-03-25T09:19:47Z</time>
      </trkpt>
      <trkpt lat="45.27551" lon="2.03397">
        <ele>631</ele>
        <time>2012-03-25T09:19:49Z</time>
      </trkpt>
      <trkpt lat="45.2756" lon="2.03405">
        <ele>631</ele>
        <time>2012-03-25T09:19:50Z</time>
      </trkpt>
      <trkpt lat="45.27563" lon="2.03409">
        <ele>632</ele>
        <time>2012-03-25T09:19:51Z</time>
      </trkpt>
      <trkpt lat="45.27567" lon="2.03413">
        <ele>632</ele>
        <time>2012-03-25T09:19:53Z</time>
      </trkpt>
      <trkpt lat="45.27576" lon="2.03421">
        <ele>632</ele>
        <time>2012-03-25T09:19:54Z</time>
      </trkpt>
      <trkpt lat="45.27579" lon="2.03423">
        <ele>632</ele>
        <time>2012-03-25T09:19:55Z</time>
      </trkpt>
      <trkpt lat="45.27582" lon="2.03425">
        <ele>632</ele>
        <time>2012-03-25T09:19:57Z</time>
      </trkpt>
      <trkpt lat="45.2759" lon="2.03431">
        <ele>631</ele>
        <time>2012-03-25T09:19:58Z</time>
      </trkpt>
      <trkpt lat="45.27595" lon="2.03434">
        <ele>631</ele>
        <time>2012-03-25T09:19:59Z</time>
      </trkpt>
      <trkpt lat="45.27599" lon="2.03439">
        <ele>631</ele>
        <time>2012-03-25T09:20:01Z</time>
      </trkpt>
      <trkpt lat="45.27608" lon="2.03448">
        <ele>632</ele>
        <time>2012-03-25T09:20:02Z</time>
      </trkpt>
      <trkpt lat="45.27612" lon="2.03452">
        <ele>632</ele>
        <time>2012-03-25T09:20:03Z</time>
      </trkpt>
      <trkpt lat="45.27616" lon="2.03455">
        <ele>632</ele>
        <time>2012-03-25T09:20:05Z</time>
      </trkpt>
      <trkpt lat="45.27624" lon="2.03464">
        <ele>633</ele>
        <time>2012-03-25T09:20:06Z</time>
      </trkpt>
      <trkpt lat="45.27627" lon="2.03468">
        <ele>633</ele>
        <time>2012-03-25T09:20:07Z</time>
      </trkpt>
      <trkpt lat="45.27631" lon="2.03475">
        <ele>633</ele>
        <time>2012-03-25T09:20:09Z</time>
      </trkpt>
      <trkpt lat="45.27638" lon="2.03484">
        <ele>633</ele>
        <time>2012-03-25T09:20:10Z</time>
      </trkpt>
      <trkpt lat="45.2764" lon="2.03489">
        <ele>633</ele>
        <time>2012-03-25T09:20:11Z</time>
      </trkpt>
      <trkpt lat="45.27642" lon="2.03495">
        <ele>633</ele>
        <time>2012-03-25T09:20:13Z</time>
      </trkpt>
      <trkpt lat="45.27648" lon="2.03508">
        <ele>632</ele>
        <time>2012-03-25T09:20:14Z</time>
      </trkpt>
      <trkpt lat="45.2765" lon="2.03514">
        <ele>633</ele>
        <time>2012-03-25T09:20:15Z</time>
      </trkpt>
      <trkpt lat="45.27653" lon="2.0352">
        <ele>633</ele>
        <time>2012-03-25T09:20:17Z</time>
      </trkpt>
      <trkpt lat="45.27656" lon="2.03531">
        <ele>632</ele>
        <time>2012-03-25T09:20:18Z</time>
      </trkpt>
      <trkpt lat="45.27658" lon="2.03537">
        <ele>632</ele>
        <time>2012-03-25T09:20:19Z</time>
      </trkpt>
      <trkpt lat="45.2766" lon="2.03544">
        <ele>632</ele>
        <time>2012-03-25T09:20:21Z</time>
      </trkpt>
      <trkpt lat="45.27664" lon="2.03557">
        <ele>633</ele>
        <time>2012-03-25T09:20:22Z</time>
      </trkpt>
      <trkpt lat="45.27665" lon="2.03563">
        <ele>634</ele>
        <time>2012-03-25T09:20:23Z</time>
      </trkpt>
      <trkpt lat="45.27667" lon="2.03569">
        <ele>634</ele>
        <time>2012-03-25T09:20:25Z</time>
      </trkpt>
      <trkpt lat="45.27672" lon="2.03582">
        <ele>634</ele>
        <time>2012-03-25T09:20:26Z</time>
      </trkpt>
      <trkpt lat="45.27675" lon="2.03587">
        <ele>634</ele>
        <time>2012-03-25T09:20:27Z</time>
      </trkpt>
      <trkpt lat="45.27676" lon="2.03593">
        <ele>634</ele>
        <time>2012-03-25T09:20:29Z</time>
      </trkpt>
      <trkpt lat="45.2768" lon="2.03605">
        <ele>635</ele>
        <time>2012-03-25T09:20:30Z</time>
      </trkpt>
      <trkpt lat="45.27681" lon="2.03611">
        <ele>635</ele>
        <time>2012-03-25T09:20:31Z</time>
      </trkpt>
      <trkpt lat="45.27682" lon="2.03615">
        <ele>635</ele>
        <time>2012-03-25T09:20:33Z</time>
      </trkpt>
      <trkpt lat="45.27686" lon="2.03629">
        <ele>634</ele>
        <time>2012-03-25T09:20:34Z</time>
      </trkpt>
      <trkpt lat="45.27688" lon="2.03636">
        <ele>634</ele>
        <time>2012-03-25T09:20:35Z</time>
      </trkpt>
      <trkpt lat="45.2769" lon="2.03642">
        <ele>634</ele>
        <time>2012-03-25T09:20:37Z</time>
      </trkpt>
      <trkpt lat="45.27695" lon="2.03654">
        <ele>635</ele>
        <time>2012-03-25T09:20:38Z</time>
      </trkpt>
      <trkpt lat="45.27697" lon="2.03659">
        <ele>635</ele>
        <time>2012-03-25T09:20:39Z</time>
      </trkpt>
      <trkpt lat="45.27699" lon="2.03665">
        <ele>635</ele>
        <time>2012-03-25T09:20:41Z</time>
      </trkpt>
      <trkpt lat="45.27704" lon="2.03678">
        <ele>636</ele>
        <time>2012-03-25T09:20:42Z</time>
      </trkpt>
      <trkpt lat="45.27706" lon="2.03685">
        <ele>636</ele>
        <time>2012-03-25T09:20:43Z</time>
      </trkpt>
      <trkpt lat="45.27709" lon="2.03693">
        <ele>636</ele>
        <time>2012-03-25T09:20:45Z</time>
      </trkpt>
      <trkpt lat="45.27713" lon="2.03706">
        <ele>635</ele>
        <time>2012-03-25T09:20:46Z</time>
      </trkpt>
      <trkpt lat="45.27715" lon="2.03713">
        <ele>635</ele>
        <time>2012-03-25T09:20:47Z</time>
      </trkpt>
      <trkpt lat="45.27717" lon="2.03719">
        <ele>635</ele>
        <time>2012-03-25T09:20:49Z</time>
      </trkpt>
      <trkpt lat="45.27723" lon="2.03732">
        <ele>634</ele>
        <time>2012-03-25T09:20:50Z</time>
      </trkpt>
      <trkpt lat="45.27725" lon="2.03738">
        <ele>634</ele>
        <time>2012-03-25T09:20:51Z</time>
      </trkpt>
      <trkpt lat="45.27727" lon="2.03744">
        <ele>633</ele>
        <time>2012-03-25T09:20:53Z</time>
      </trkpt>
      <trkpt lat="45.27731" lon="2.03756">
        <ele>633</ele>
        <time>2012-03-25T09:20:54Z</time>
      </trkpt>
      <trkpt lat="45.27734" lon="2.03762">
        <ele>634</ele>
        <time>2012-03-25T09:20:55Z</time>
      </trkpt>
      <trkpt lat="45.27735" lon="2.03767">
        <ele>634</ele>
        <time>2012-03-25T09:20:57Z</time>
      </trkpt>
      <trkpt lat="45.2774" lon="2.0378">
        <ele>634</ele>
        <time>2012-03-25T09:20:58Z</time>
      </trkpt>
      <trkpt lat="45.27742" lon="2.03787">
        <ele>635</ele>
        <time>2012-03-25T09:20:59Z</time>
      </trkpt>
      <trkpt lat="45.27743" lon="2.03794">
        <ele>634</ele>
        <time>2012-03-25T09:21:01Z</time>
      </trkpt>
      <trkpt lat="45.27746" lon="2.03806">
        <ele>634</ele>
        <time>2012-03-25T09:21:02Z</time>
      </trkpt>
      <trkpt lat="45.27748" lon="2.03813">
        <ele>634</ele>
        <time>2012-03-25T09:21:03Z</time>
      </trkpt>
      <trkpt lat="45.27749" lon="2.03821">
        <ele>634</ele>
        <time>2012-03-25T09:21:05Z</time>
      </trkpt>
      <trkpt lat="45.27752" lon="2.03835">
        <ele>634</ele>
        <time>2012-03-25T09:21:06Z</time>
      </trkpt>
      <trkpt lat="45.27752" lon="2.03842">
        <ele>634</ele>
        <time>2012-03-25T09:21:07Z</time>
      </trkpt>
      <trkpt lat="45.27754" lon="2.0385">
        <ele>634</ele>
        <time>2012-03-25T09:21:09Z</time>
      </trkpt>
      <trkpt lat="45.27756" lon="2.03863">
        <ele>635</ele>
        <time>2012-03-25T09:21:10Z</time>
      </trkpt>
      <trkpt lat="45.27757" lon="2.03868">
        <ele>636</ele>
        <time>2012-03-25T09:21:11Z</time>
      </trkpt>
      <trkpt lat="45.27757" lon="2.03875">
        <ele>636</ele>
        <time>2012-03-25T09:21:13Z</time>
      </trkpt>
      <trkpt lat="45.27758" lon="2.03889">
        <ele>637</ele>
        <time>2012-03-25T09:21:14Z</time>
      </trkpt>
      <trkpt lat="45.27758" lon="2.03896">
        <ele>637</ele>
        <time>2012-03-25T09:21:15Z</time>
      </trkpt>
      <trkpt lat="45.27759" lon="2.03902">
        <ele>637</ele>
        <time>2012-03-25T09:21:17Z</time>
      </trkpt>
      <trkpt lat="45.2776" lon="2.03914">
        <ele>638</ele>
        <time>2012-03-25T09:21:18Z</time>
      </trkpt>
      <trkpt lat="45.27759" lon="2.0392">
        <ele>638</ele>
        <time>2012-03-25T09:21:19Z</time>
      </trkpt>
      <trkpt lat="45.2776" lon="2.03926">
        <ele>638</ele>
        <time>2012-03-25T09:21:21Z</time>
      </trkpt>
      <trkpt lat="45.2776" lon="2.03939">
        <ele>640</ele>
        <time>2012-03-25T09:21:22Z</time>
      </trkpt>
      <trkpt lat="45.27761" lon="2.03946">
        <ele>639</ele>
        <time>2012-03-25T09:21:23Z</time>
      </trkpt>
      <trkpt lat="45.27761" lon="2.03953">
        <ele>639</ele>
        <time>2012-03-25T09:21:24Z</time>
      </trkpt>
      <trkpt lat="45.27763" lon="2.0396">
        <ele>639</ele>
        <time>2012-03-25T09:21:25Z</time>
      </trkpt>
      <trkpt lat="45.27763" lon="2.03967">
        <ele>639</ele>
        <time>2012-03-25T09:21:26Z</time>
      </trkpt>
      <trkpt lat="45.27763" lon="2.03967">
        <ele>639</ele>
        <time>2012-03-25T09:21:27Z</time>
      </trkpt>
      <trkpt lat="45.27764" lon="2.03974">
        <ele>639</ele>
        <time>2012-03-25T09:21:28Z</time>
      </trkpt>
      <trkpt lat="45.27765" lon="2.03989">
        <ele>639</ele>
        <time>2012-03-25T09:21:29Z</time>
      </trkpt>
      <trkpt lat="45.27765" lon="2.03997">
        <ele>639</ele>
        <time>2012-03-25T09:21:31Z</time>
      </trkpt>
      <trkpt lat="45.27767" lon="2.04006">
        <ele>639</ele>
        <time>2012-03-25T09:21:32Z</time>
      </trkpt>
      <trkpt lat="45.27767" lon="2.04013">
        <ele>639</ele>
        <time>2012-03-25T09:21:33Z</time>
      </trkpt>
      <trkpt lat="45.27769" lon="2.04022">
        <ele>639</ele>
        <time>2012-03-25T09:21:35Z</time>
      </trkpt>
      <trkpt lat="45.27769" lon="2.04028">
        <ele>640</ele>
        <time>2012-03-25T09:21:36Z</time>
      </trkpt>
      <trkpt lat="45.27771" lon="2.0404">
        <ele>640</ele>
        <time>2012-03-25T09:21:37Z</time>
      </trkpt>
      <trkpt lat="45.27772" lon="2.04047">
        <ele>640</ele>
        <time>2012-03-25T09:21:39Z</time>
      </trkpt>
      <trkpt lat="45.27773" lon="2.04068">
        <ele>641</ele>
        <time>2012-03-25T09:21:40Z</time>
      </trkpt>
      <trkpt lat="45.27773" lon="2.04073">
        <ele>642</ele>
        <time>2012-03-25T09:21:41Z</time>
      </trkpt>
      <trkpt lat="45.27773" lon="2.0408">
        <ele>642</ele>
        <time>2012-03-25T09:21:43Z</time>
      </trkpt>
      <trkpt lat="45.27775" lon="2.04094">
        <ele>643</ele>
        <time>2012-03-25T09:21:44Z</time>
      </trkpt>
      <trkpt lat="45.27774" lon="2.041">
        <ele>643</ele>
        <time>2012-03-25T09:21:45Z</time>
      </trkpt>
      <trkpt lat="45.27775" lon="2.04108">
        <ele>642</ele>
        <time>2012-03-25T09:21:47Z</time>
      </trkpt>
      <trkpt lat="45.27776" lon="2.0412">
        <ele>642</ele>
        <time>2012-03-25T09:21:48Z</time>
      </trkpt>
      <trkpt lat="45.27775" lon="2.04127">
        <ele>642</ele>
        <time>2012-03-25T09:21:49Z</time>
      </trkpt>
      <trkpt lat="45.27778" lon="2.04134">
        <ele>643</ele>
        <time>2012-03-25T09:21:51Z</time>
      </trkpt>
      <trkpt lat="45.27779" lon="2.04148">
        <ele>643</ele>
        <time>2012-03-25T09:21:52Z</time>
      </trkpt>
      <trkpt lat="45.27778" lon="2.04153">
        <ele>643</ele>
        <time>2012-03-25T09:21:53Z</time>
      </trkpt>
      <trkpt lat="45.2778" lon="2.04161">
        <ele>643</ele>
        <time>2012-03-25T09:21:55Z</time>
      </trkpt>
      <trkpt lat="45.27782" lon="2.04174">
        <ele>643</ele>
        <time>2012-03-25T09:21:56Z</time>
      </trkpt>
      <trkpt lat="45.27783" lon="2.04182">
        <ele>644</ele>
        <time>2012-03-25T09:21:57Z</time>
      </trkpt>
      <trkpt lat="45.27783" lon="2.04189">
        <ele>644</ele>
        <time>2012-03-25T09:21:59Z</time>
      </trkpt>
      <trkpt lat="45.27785" lon="2.04204">
        <ele>645</ele>
        <time>2012-03-25T09:22:00Z</time>
      </trkpt>
      <trkpt lat="45.27786" lon="2.04211">
        <ele>644</ele>
        <time>2012-03-25T09:22:01Z</time>
      </trkpt>
      <trkpt lat="45.27787" lon="2.04218">
        <ele>644</ele>
        <time>2012-03-25T09:22:03Z</time>
      </trkpt>
      <trkpt lat="45.2779" lon="2.04231">
        <ele>645</ele>
        <time>2012-03-25T09:22:04Z</time>
      </trkpt>
      <trkpt lat="45.2779" lon="2.04238">
        <ele>645</ele>
        <time>2012-03-25T09:22:05Z</time>
      </trkpt>
      <trkpt lat="45.27792" lon="2.04244">
        <ele>646</ele>
        <time>2012-03-25T09:22:07Z</time>
      </trkpt>
      <trkpt lat="45.27796" lon="2.04255">
        <ele>647</ele>
        <time>2012-03-25T09:22:08Z</time>
      </trkpt>
      <trkpt lat="45.27798" lon="2.0426">
        <ele>646</ele>
        <time>2012-03-25T09:22:09Z</time>
      </trkpt>
      <trkpt lat="45.27801" lon="2.04267">
        <ele>647</ele>
        <time>2012-03-25T09:22:11Z</time>
      </trkpt>
      <trkpt lat="45.27804" lon="2.04277">
        <ele>648</ele>
        <time>2012-03-25T09:22:12Z</time>
      </trkpt>
      <trkpt lat="45.27806" lon="2.04282">
        <ele>649</ele>
        <time>2012-03-25T09:22:13Z</time>
      </trkpt>
      <trkpt lat="45.27809" lon="2.04287">
        <ele>649</ele>
        <time>2012-03-25T09:22:15Z</time>
      </trkpt>
      <trkpt lat="45.27812" lon="2.04298">
        <ele>649</ele>
        <time>2012-03-25T09:22:16Z</time>
      </trkpt>
      <trkpt lat="45.27815" lon="2.04304">
        <ele>649</ele>
        <time>2012-03-25T09:22:17Z</time>
      </trkpt>
      <trkpt lat="45.27817" lon="2.04311">
        <ele>649</ele>
        <time>2012-03-25T09:22:19Z</time>
      </trkpt>
      <trkpt lat="45.2782" lon="2.04328">
        <ele>649</ele>
        <time>2012-03-25T09:22:20Z</time>
      </trkpt>
      <trkpt lat="45.27826" lon="2.04333">
        <ele>649</ele>
        <time>2012-03-25T09:22:21Z</time>
      </trkpt>
      <trkpt lat="45.27827" lon="2.04341">
        <ele>649</ele>
        <time>2012-03-25T09:22:23Z</time>
      </trkpt>
      <trkpt lat="45.27835" lon="2.04351">
        <ele>648</ele>
        <time>2012-03-25T09:22:24Z</time>
      </trkpt>
      <trkpt lat="45.27838" lon="2.04356">
        <ele>649</ele>
        <time>2012-03-25T09:22:25Z</time>
      </trkpt>
      <trkpt lat="45.27841" lon="2.0436">
        <ele>650</ele>
        <time>2012-03-25T09:22:27Z</time>
      </trkpt>
      <trkpt lat="45.27848" lon="2.04368">
        <ele>650</ele>
        <time>2012-03-25T09:22:28Z</time>
      </trkpt>
      <trkpt lat="45.27852" lon="2.04373">
        <ele>650</ele>
        <time>2012-03-25T09:22:29Z</time>
      </trkpt>
      <trkpt lat="45.27855" lon="2.04375">
        <ele>651</ele>
        <time>2012-03-25T09:22:31Z</time>
      </trkpt>
      <trkpt lat="45.27862" lon="2.04385">
        <ele>651</ele>
        <time>2012-03-25T09:22:32Z</time>
      </trkpt>
      <trkpt lat="45.27866" lon="2.04389">
        <ele>651</ele>
        <time>2012-03-25T09:22:33Z</time>
      </trkpt>
      <trkpt lat="45.2787" lon="2.0439">
        <ele>651</ele>
        <time>2012-03-25T09:22:35Z</time>
      </trkpt>
      <trkpt lat="45.27878" lon="2.04401">
        <ele>651</ele>
        <time>2012-03-25T09:22:36Z</time>
      </trkpt>
      <trkpt lat="45.27883" lon="2.04406">
        <ele>651</ele>
        <time>2012-03-25T09:22:37Z</time>
      </trkpt>
      <trkpt lat="45.27887" lon="2.0441">
        <ele>652</ele>
        <time>2012-03-25T09:22:39Z</time>
      </trkpt>
      <trkpt lat="45.27895" lon="2.04417">
        <ele>652</ele>
        <time>2012-03-25T09:22:40Z</time>
      </trkpt>
      <trkpt lat="45.27898" lon="2.0442">
        <ele>652</ele>
        <time>2012-03-25T09:22:41Z</time>
      </trkpt>
      <trkpt lat="45.27902" lon="2.04425">
        <ele>652</ele>
        <time>2012-03-25T09:22:42Z</time>
      </trkpt>
      <trkpt lat="45.27906" lon="2.04427">
        <ele>653</ele>
        <time>2012-03-25T09:22:43Z</time>
      </trkpt>
      <trkpt lat="45.2791" lon="2.04431">
        <ele>653</ele>
        <time>2012-03-25T09:22:44Z</time>
      </trkpt>
      <trkpt lat="45.27913" lon="2.04434">
        <ele>653</ele>
        <time>2012-03-25T09:22:46Z</time>
      </trkpt>
      <trkpt lat="45.27921" lon="2.0444">
        <ele>654</ele>
        <time>2012-03-25T09:22:47Z</time>
      </trkpt>
      <trkpt lat="45.27927" lon="2.04441">
        <ele>654</ele>
        <time>2012-03-25T09:22:48Z</time>
      </trkpt>
      <trkpt lat="45.27932" lon="2.04441">
        <ele>654</ele>
        <time>2012-03-25T09:22:50Z</time>
      </trkpt>
      <trkpt lat="45.27942" lon="2.04442">
        <ele>655</ele>
        <time>2012-03-25T09:22:51Z</time>
      </trkpt>
      <trkpt lat="45.27947" lon="2.04443">
        <ele>655</ele>
        <time>2012-03-25T09:22:52Z</time>
      </trkpt>
      <trkpt lat="45.27951" lon="2.04444">
        <ele>655</ele>
        <time>2012-03-25T09:22:54Z</time>
      </trkpt>
      <trkpt lat="45.27963" lon="2.04446">
        <ele>655</ele>
        <time>2012-03-25T09:22:55Z</time>
      </trkpt>
      <trkpt lat="45.27968" lon="2.04444">
        <ele>655</ele>
        <time>2012-03-25T09:22:56Z</time>
      </trkpt>
      <trkpt lat="45.27973" lon="2.04446">
        <ele>656</ele>
        <time>2012-03-25T09:22:58Z</time>
      </trkpt>
      <trkpt lat="45.27973" lon="2.04446">
        <ele>656</ele>
        <time>2012-03-25T09:22:59Z</time>
      </trkpt>
      <trkpt lat="45.2798" lon="2.04453">
        <ele>657</ele>
        <time>2012-03-25T09:23:00Z</time>
      </trkpt>
      <trkpt lat="45.27984" lon="2.04457">
        <ele>657</ele>
        <time>2012-03-25T09:23:02Z</time>
      </trkpt>
      <trkpt lat="45.27987" lon="2.04459">
        <ele>658</ele>
        <time>2012-03-25T09:23:03Z</time>
      </trkpt>
      <trkpt lat="45.27994" lon="2.04467">
        <ele>658</ele>
        <time>2012-03-25T09:23:04Z</time>
      </trkpt>
      <trkpt lat="45.28002" lon="2.04475">
        <ele>658</ele>
        <time>2012-03-25T09:23:06Z</time>
      </trkpt>
      <trkpt lat="45.28008" lon="2.04486">
        <ele>658</ele>
        <time>2012-03-25T09:23:07Z</time>
      </trkpt>
      <trkpt lat="45.28011" lon="2.04491">
        <ele>658</ele>
        <time>2012-03-25T09:23:08Z</time>
      </trkpt>
      <trkpt lat="45.28014" lon="2.04495">
        <ele>659</ele>
        <time>2012-03-25T09:23:10Z</time>
      </trkpt>
      <trkpt lat="45.28019" lon="2.04507">
        <ele>660</ele>
        <time>2012-03-25T09:23:11Z</time>
      </trkpt>
      <trkpt lat="45.28022" lon="2.04513">
        <ele>660</ele>
        <time>2012-03-25T09:23:12Z</time>
      </trkpt>
      <trkpt lat="45.28024" lon="2.0452">
        <ele>661</ele>
        <time>2012-03-25T09:23:14Z</time>
      </trkpt>
      <trkpt lat="45.28029" lon="2.04529">
        <ele>660</ele>
        <time>2012-03-25T09:23:15Z</time>
      </trkpt>
      <trkpt lat="45.28031" lon="2.04534">
        <ele>660</ele>
        <time>2012-03-25T09:23:16Z</time>
      </trkpt>
      <trkpt lat="45.28034" lon="2.04539">
        <ele>660</ele>
        <time>2012-03-25T09:23:18Z</time>
      </trkpt>
      <trkpt lat="45.28038" lon="2.04554">
        <ele>660</ele>
        <time>2012-03-25T09:23:19Z</time>
      </trkpt>
      <trkpt lat="45.2804" lon="2.0456">
        <ele>660</ele>
        <time>2012-03-25T09:23:20Z</time>
      </trkpt>
      <trkpt lat="45.28042" lon="2.04566">
        <ele>660</ele>
        <time>2012-03-25T09:23:22Z</time>
      </trkpt>
      <trkpt lat="45.28047" lon="2.04579">
        <ele>660</ele>
        <time>2012-03-25T09:23:23Z</time>
      </trkpt>
      <trkpt lat="45.28049" lon="2.04583">
        <ele>661</ele>
        <time>2012-03-25T09:23:24Z</time>
      </trkpt>
      <trkpt lat="45.2805" lon="2.04588">
        <ele>661</ele>
        <time>2012-03-25T09:23:26Z</time>
      </trkpt>
      <trkpt lat="45.28053" lon="2.04602">
        <ele>660</ele>
        <time>2012-03-25T09:23:27Z</time>
      </trkpt>
      <trkpt lat="45.28053" lon="2.04607">
        <ele>661</ele>
        <time>2012-03-25T09:23:28Z</time>
      </trkpt>
      <trkpt lat="45.28054" lon="2.04612">
        <ele>661</ele>
        <time>2012-03-25T09:23:30Z</time>
      </trkpt>
      <trkpt lat="45.28056" lon="2.04626">
        <ele>661</ele>
        <time>2012-03-25T09:23:31Z</time>
      </trkpt>
      <trkpt lat="45.28057" lon="2.0463">
        <ele>661</ele>
        <time>2012-03-25T09:23:32Z</time>
      </trkpt>
      <trkpt lat="45.28059" lon="2.04638">
        <ele>661</ele>
        <time>2012-03-25T09:23:34Z</time>
      </trkpt>
      <trkpt lat="45.28062" lon="2.0465">
        <ele>661</ele>
        <time>2012-03-25T09:23:35Z</time>
      </trkpt>
      <trkpt lat="45.28064" lon="2.04656">
        <ele>661</ele>
        <time>2012-03-25T09:23:36Z</time>
      </trkpt>
      <trkpt lat="45.28064" lon="2.04656">
        <ele>661</ele>
        <time>2012-03-25T09:23:38Z</time>
      </trkpt>
      <trkpt lat="45.28066" lon="2.04664">
        <ele>660</ele>
        <time>2012-03-25T09:23:39Z</time>
      </trkpt>
      <trkpt lat="45.28071" lon="2.04684">
        <ele>660</ele>
        <time>2012-03-25T09:23:39Z</time>
      </trkpt>
      <trkpt lat="45.28071" lon="2.04684">
        <ele>660</ele>
        <time>2012-03-25T09:23:41Z</time>
      </trkpt>
      <trkpt lat="45.28074" lon="2.0469">
        <ele>660</ele>
        <time>2012-03-25T09:23:42Z</time>
      </trkpt>
      <trkpt lat="45.28082" lon="2.04708">
        <ele>660</ele>
        <time>2012-03-25T09:23:43Z</time>
      </trkpt>
      <trkpt lat="45.28085" lon="2.04713">
        <ele>660</ele>
        <time>2012-03-25T09:23:45Z</time>
      </trkpt>
      <trkpt lat="45.28092" lon="2.04724">
        <ele>660</ele>
        <time>2012-03-25T09:23:46Z</time>
      </trkpt>
      <trkpt lat="45.28094" lon="2.04729">
        <ele>662</ele>
        <time>2012-03-25T09:23:47Z</time>
      </trkpt>
      <trkpt lat="45.28098" lon="2.04735">
        <ele>661</ele>
        <time>2012-03-25T09:23:49Z</time>
      </trkpt>
      <trkpt lat="45.28104" lon="2.04744">
        <ele>662</ele>
        <time>2012-03-25T09:23:50Z</time>
      </trkpt>
      <trkpt lat="45.28107" lon="2.04749">
        <ele>662</ele>
        <time>2012-03-25T09:23:51Z</time>
      </trkpt>
      <trkpt lat="45.28109" lon="2.04753">
        <ele>663</ele>
        <time>2012-03-25T09:23:53Z</time>
      </trkpt>
      <trkpt lat="45.28116" lon="2.04763">
        <ele>664</ele>
        <time>2012-03-25T09:23:54Z</time>
      </trkpt>
      <trkpt lat="45.28119" lon="2.0477">
        <ele>665</ele>
        <time>2012-03-25T09:23:55Z</time>
      </trkpt>
      <trkpt lat="45.28121" lon="2.04775">
        <ele>665</ele>
        <time>2012-03-25T09:23:57Z</time>
      </trkpt>
      <trkpt lat="45.28126" lon="2.04786">
        <ele>666</ele>
        <time>2012-03-25T09:23:58Z</time>
      </trkpt>
      <trkpt lat="45.28129" lon="2.04792">
        <ele>666</ele>
        <time>2012-03-25T09:23:59Z</time>
      </trkpt>
      <trkpt lat="45.28131" lon="2.04796">
        <ele>665</ele>
        <time>2012-03-25T09:24:01Z</time>
      </trkpt>
      <trkpt lat="45.28135" lon="2.04806">
        <ele>666</ele>
        <time>2012-03-25T09:24:02Z</time>
      </trkpt>
      <trkpt lat="45.28136" lon="2.0481">
        <ele>666</ele>
        <time>2012-03-25T09:24:03Z</time>
      </trkpt>
      <trkpt lat="45.28138" lon="2.04817">
        <ele>666</ele>
        <time>2012-03-25T09:24:05Z</time>
      </trkpt>
      <trkpt lat="45.28141" lon="2.04834">
        <ele>666</ele>
        <time>2012-03-25T09:24:06Z</time>
      </trkpt>
      <trkpt lat="45.28142" lon="2.0484">
        <ele>667</ele>
        <time>2012-03-25T09:24:07Z</time>
      </trkpt>
      <trkpt lat="45.28142" lon="2.04846">
        <ele>668</ele>
        <time>2012-03-25T09:24:09Z</time>
      </trkpt>
      <trkpt lat="45.28144" lon="2.04862">
        <ele>668</ele>
        <time>2012-03-25T09:24:10Z</time>
      </trkpt>
      <trkpt lat="45.28143" lon="2.04868">
        <ele>668</ele>
        <time>2012-03-25T09:24:11Z</time>
      </trkpt>
      <trkpt lat="45.28143" lon="2.04874">
        <ele>668</ele>
        <time>2012-03-25T09:24:13Z</time>
      </trkpt>
      <trkpt lat="45.28142" lon="2.04885">
        <ele>669</ele>
        <time>2012-03-25T09:24:14Z</time>
      </trkpt>
      <trkpt lat="45.28142" lon="2.04892">
        <ele>669</ele>
        <time>2012-03-25T09:24:15Z</time>
      </trkpt>
      <trkpt lat="45.28143" lon="2.04899">
        <ele>669</ele>
        <time>2012-03-25T09:24:17Z</time>
      </trkpt>
      <trkpt lat="45.28143" lon="2.04911">
        <ele>668</ele>
        <time>2012-03-25T09:24:18Z</time>
      </trkpt>
      <trkpt lat="45.28143" lon="2.0492">
        <ele>668</ele>
        <time>2012-03-25T09:24:19Z</time>
      </trkpt>
      <trkpt lat="45.28144" lon="2.04927">
        <ele>668</ele>
        <time>2012-03-25T09:24:21Z</time>
      </trkpt>
      <trkpt lat="45.28143" lon="2.04938">
        <ele>668</ele>
        <time>2012-03-25T09:24:22Z</time>
      </trkpt>
      <trkpt lat="45.28144" lon="2.04944">
        <ele>668</ele>
        <time>2012-03-25T09:24:23Z</time>
      </trkpt>
      <trkpt lat="45.28146" lon="2.04951">
        <ele>668</ele>
        <time>2012-03-25T09:24:25Z</time>
      </trkpt>
      <trkpt lat="45.28147" lon="2.04963">
        <ele>669</ele>
        <time>2012-03-25T09:24:26Z</time>
      </trkpt>
      <trkpt lat="45.28148" lon="2.04971">
        <ele>669</ele>
        <time>2012-03-25T09:24:27Z</time>
      </trkpt>
      <trkpt lat="45.2815" lon="2.04978">
        <ele>669</ele>
        <time>2012-03-25T09:24:29Z</time>
      </trkpt>
      <trkpt lat="45.28153" lon="2.04991">
        <ele>669</ele>
        <time>2012-03-25T09:24:30Z</time>
      </trkpt>
      <trkpt lat="45.28155" lon="2.04996">
        <ele>669</ele>
        <time>2012-03-25T09:24:31Z</time>
      </trkpt>
      <trkpt lat="45.28156" lon="2.05001">
        <ele>669</ele>
        <time>2012-03-25T09:24:33Z</time>
      </trkpt>
      <trkpt lat="45.28161" lon="2.05014">
        <ele>670</ele>
        <time>2012-03-25T09:24:34Z</time>
      </trkpt>
      <trkpt lat="45.28162" lon="2.05017">
        <ele>670</ele>
        <time>2012-03-25T09:24:35Z</time>
      </trkpt>
      <trkpt lat="45.28164" lon="2.05023">
        <ele>670</ele>
        <time>2012-03-25T09:24:37Z</time>
      </trkpt>
      <trkpt lat="45.28168" lon="2.05032">
        <ele>671</ele>
        <time>2012-03-25T09:24:38Z</time>
      </trkpt>
      <trkpt lat="45.2817" lon="2.0504">
        <ele>672</ele>
        <time>2012-03-25T09:24:39Z</time>
      </trkpt>
      <trkpt lat="45.28172" lon="2.05044">
        <ele>672</ele>
        <time>2012-03-25T09:24:40Z</time>
      </trkpt>
      <trkpt lat="45.28175" lon="2.05048">
        <ele>673</ele>
        <time>2012-03-25T09:24:41Z</time>
      </trkpt>
      <trkpt lat="45.28177" lon="2.05055">
        <ele>673</ele>
        <time>2012-03-25T09:24:42Z</time>
      </trkpt>
      <trkpt lat="45.28179" lon="2.0506">
        <ele>673</ele>
        <time>2012-03-25T09:24:43Z</time>
      </trkpt>
      <trkpt lat="45.28181" lon="2.05065">
        <ele>673</ele>
        <time>2012-03-25T09:24:44Z</time>
      </trkpt>
      <trkpt lat="45.28183" lon="2.0507">
        <ele>674</ele>
        <time>2012-03-25T09:24:45Z</time>
      </trkpt>
      <trkpt lat="45.28185" lon="2.05075">
        <ele>674</ele>
        <time>2012-03-25T09:24:46Z</time>
      </trkpt>
      <trkpt lat="45.28189" lon="2.05084">
        <ele>675</ele>
        <time>2012-03-25T09:24:47Z</time>
      </trkpt>
      <trkpt lat="45.28191" lon="2.0509">
        <ele>675</ele>
        <time>2012-03-25T09:24:48Z</time>
      </trkpt>
      <trkpt lat="45.28194" lon="2.05095">
        <ele>674</ele>
        <time>2012-03-25T09:24:49Z</time>
      </trkpt>
      <trkpt lat="45.28196" lon="2.05101">
        <ele>674</ele>
        <time>2012-03-25T09:24:50Z</time>
      </trkpt>
      <trkpt lat="45.28198" lon="2.05108">
        <ele>674</ele>
        <time>2012-03-25T09:24:51Z</time>
      </trkpt>
      <trkpt lat="45.28201" lon="2.05114">
        <ele>674</ele>
        <time>2012-03-25T09:24:52Z</time>
      </trkpt>
      <trkpt lat="45.28202" lon="2.0512">
        <ele>674</ele>
        <time>2012-03-25T09:24:53Z</time>
      </trkpt>
      <trkpt lat="45.28204" lon="2.05128">
        <ele>674</ele>
        <time>2012-03-25T09:24:54Z</time>
      </trkpt>
      <trkpt lat="45.28206" lon="2.05134">
        <ele>675</ele>
        <time>2012-03-25T09:24:55Z</time>
      </trkpt>
      <trkpt lat="45.28209" lon="2.05141">
        <ele>674</ele>
        <time>2012-03-25T09:24:56Z</time>
      </trkpt>
      <trkpt lat="45.2821" lon="2.05151">
        <ele>675</ele>
        <time>2012-03-25T09:24:57Z</time>
      </trkpt>
      <trkpt lat="45.28212" lon="2.0516">
        <ele>676</ele>
        <time>2012-03-25T09:24:58Z</time>
      </trkpt>
      <trkpt lat="45.28212" lon="2.05165">
        <ele>676</ele>
        <time>2012-03-25T09:25:00Z</time>
      </trkpt>
      <trkpt lat="45.28214" lon="2.05172">
        <ele>676</ele>
        <time>2012-03-25T09:25:01Z</time>
      </trkpt>
      <trkpt lat="45.28216" lon="2.05186">
        <ele>675</ele>
        <time>2012-03-25T09:25:02Z</time>
      </trkpt>
      <trkpt lat="45.28215" lon="2.05193">
        <ele>675</ele>
        <time>2012-03-25T09:25:03Z</time>
      </trkpt>
      <trkpt lat="45.28215" lon="2.052">
        <ele>676</ele>
        <time>2012-03-25T09:25:04Z</time>
      </trkpt>
      <trkpt lat="45.28216" lon="2.05207">
        <ele>676</ele>
        <time>2012-03-25T09:25:05Z</time>
      </trkpt>
      <trkpt lat="45.28215" lon="2.05212">
        <ele>676</ele>
        <time>2012-03-25T09:25:06Z</time>
      </trkpt>
      <trkpt lat="45.28216" lon="2.05219">
        <ele>676</ele>
        <time>2012-03-25T09:25:08Z</time>
      </trkpt>
      <trkpt lat="45.28215" lon="2.05231">
        <ele>676</ele>
        <time>2012-03-25T09:25:09Z</time>
      </trkpt>
      <trkpt lat="45.28215" lon="2.05237">
        <ele>676</ele>
        <time>2012-03-25T09:25:10Z</time>
      </trkpt>
      <trkpt lat="45.28215" lon="2.05237">
        <ele>676</ele>
        <time>2012-03-25T09:25:12Z</time>
      </trkpt>
      <trkpt lat="45.28215" lon="2.0524">
        <ele>677</ele>
        <time>2012-03-25T09:25:13Z</time>
      </trkpt>
      <trkpt lat="45.28219" lon="2.05261">
        <ele>677</ele>
        <time>2012-03-25T09:25:14Z</time>
      </trkpt>
      <trkpt lat="45.2822" lon="2.05266">
        <ele>677</ele>
        <time>2012-03-25T09:25:16Z</time>
      </trkpt>
      <trkpt lat="45.28224" lon="2.0528">
        <ele>678</ele>
        <time>2012-03-25T09:25:17Z</time>
      </trkpt>
      <trkpt lat="45.28226" lon="2.05286">
        <ele>678</ele>
        <time>2012-03-25T09:25:18Z</time>
      </trkpt>
      <trkpt lat="45.28228" lon="2.05292">
        <ele>678</ele>
        <time>2012-03-25T09:25:20Z</time>
      </trkpt>
      <trkpt lat="45.28233" lon="2.05302">
        <ele>678</ele>
        <time>2012-03-25T09:25:21Z</time>
      </trkpt>
      <trkpt lat="45.28236" lon="2.05307">
        <ele>678</ele>
        <time>2012-03-25T09:25:22Z</time>
      </trkpt>
      <trkpt lat="45.28239" lon="2.05315">
        <ele>678</ele>
        <time>2012-03-25T09:25:24Z</time>
      </trkpt>
      <trkpt lat="45.28245" lon="2.05327">
        <ele>679</ele>
        <time>2012-03-25T09:25:25Z</time>
      </trkpt>
      <trkpt lat="45.28247" lon="2.05332">
        <ele>679</ele>
        <time>2012-03-25T09:25:26Z</time>
      </trkpt>
      <trkpt lat="45.28249" lon="2.05337">
        <ele>679</ele>
        <time>2012-03-25T09:25:28Z</time>
      </trkpt>
      <trkpt lat="45.28254" lon="2.05347">
        <ele>680</ele>
        <time>2012-03-25T09:25:29Z</time>
      </trkpt>
      <trkpt lat="45.28256" lon="2.05353">
        <ele>681</ele>
        <time>2012-03-25T09:25:30Z</time>
      </trkpt>
      <trkpt lat="45.28259" lon="2.05359">
        <ele>681</ele>
        <time>2012-03-25T09:25:32Z</time>
      </trkpt>
      <trkpt lat="45.28264" lon="2.05368">
        <ele>681</ele>
        <time>2012-03-25T09:25:33Z</time>
      </trkpt>
      <trkpt lat="45.28266" lon="2.05375">
        <ele>681</ele>
        <time>2012-03-25T09:25:34Z</time>
      </trkpt>
      <trkpt lat="45.28269" lon="2.05381">
        <ele>681</ele>
        <time>2012-03-25T09:25:36Z</time>
      </trkpt>
      <trkpt lat="45.28274" lon="2.05389">
        <ele>682</ele>
        <time>2012-03-25T09:25:37Z</time>
      </trkpt>
      <trkpt lat="45.28276" lon="2.05395">
        <ele>682</ele>
        <time>2012-03-25T09:25:38Z</time>
      </trkpt>
      <trkpt lat="45.28279" lon="2.05401">
        <ele>682</ele>
        <time>2012-03-25T09:25:40Z</time>
      </trkpt>
      <trkpt lat="45.28286" lon="2.05416">
        <ele>683</ele>
        <time>2012-03-25T09:25:41Z</time>
      </trkpt>
      <trkpt lat="45.28288" lon="2.05421">
        <ele>684</ele>
        <time>2012-03-25T09:25:42Z</time>
      </trkpt>
      <trkpt lat="45.28291" lon="2.05427">
        <ele>684</ele>
        <time>2012-03-25T09:25:44Z</time>
      </trkpt>
      <trkpt lat="45.28297" lon="2.05436">
        <ele>684</ele>
        <time>2012-03-25T09:25:45Z</time>
      </trkpt>
      <trkpt lat="45.283" lon="2.05442">
        <ele>684</ele>
        <time>2012-03-25T09:25:46Z</time>
      </trkpt>
      <trkpt lat="45.28302" lon="2.05444">
        <ele>684</ele>
        <time>2012-03-25T09:25:48Z</time>
      </trkpt>
      <trkpt lat="45.28307" lon="2.05453">
        <ele>685</ele>
        <time>2012-03-25T09:25:49Z</time>
      </trkpt>
      <trkpt lat="45.2831" lon="2.05458">
        <ele>685</ele>
        <time>2012-03-25T09:25:50Z</time>
      </trkpt>
      <trkpt lat="45.28314" lon="2.05462">
        <ele>686</ele>
        <time>2012-03-25T09:25:52Z</time>
      </trkpt>
      <trkpt lat="45.28318" lon="2.05471">
        <ele>686</ele>
        <time>2012-03-25T09:25:53Z</time>
      </trkpt>
      <trkpt lat="45.28321" lon="2.05477">
        <ele>687</ele>
        <time>2012-03-25T09:25:54Z</time>
      </trkpt>
      <trkpt lat="45.28325" lon="2.05484">
        <ele>687</ele>
        <time>2012-03-25T09:25:56Z</time>
      </trkpt>
      <trkpt lat="45.28331" lon="2.05497">
        <ele>687</ele>
        <time>2012-03-25T09:25:57Z</time>
      </trkpt>
      <trkpt lat="45.28335" lon="2.05506">
        <ele>687</ele>
        <time>2012-03-25T09:25:58Z</time>
      </trkpt>
      <trkpt lat="45.28338" lon="2.05511">
        <ele>688</ele>
        <time>2012-03-25T09:26:00Z</time>
      </trkpt>
      <trkpt lat="45.28341" lon="2.05521">
        <ele>689</ele>
        <time>2012-03-25T09:26:01Z</time>
      </trkpt>
      <trkpt lat="45.28343" lon="2.05528">
        <ele>689</ele>
        <time>2012-03-25T09:26:02Z</time>
      </trkpt>
      <trkpt lat="45.28347" lon="2.05532">
        <ele>689</ele>
        <time>2012-03-25T09:26:04Z</time>
      </trkpt>
      <trkpt lat="45.28353" lon="2.05542">
        <ele>689</ele>
        <time>2012-03-25T09:26:05Z</time>
      </trkpt>
      <trkpt lat="45.28355" lon="2.05547">
        <ele>690</ele>
        <time>2012-03-25T09:26:06Z</time>
      </trkpt>
      <trkpt lat="45.28357" lon="2.05554">
        <ele>690</ele>
        <time>2012-03-25T09:26:08Z</time>
      </trkpt>
      <trkpt lat="45.28362" lon="2.05565">
        <ele>691</ele>
        <time>2012-03-25T09:26:09Z</time>
      </trkpt>
      <trkpt lat="45.28365" lon="2.05572">
        <ele>691</ele>
        <time>2012-03-25T09:26:10Z</time>
      </trkpt>
      <trkpt lat="45.28367" lon="2.05578">
        <ele>691</ele>
        <time>2012-03-25T09:26:12Z</time>
      </trkpt>
      <trkpt lat="45.28371" lon="2.05589">
        <ele>692</ele>
        <time>2012-03-25T09:26:13Z</time>
      </trkpt>
      <trkpt lat="45.28375" lon="2.05596">
        <ele>692</ele>
        <time>2012-03-25T09:26:14Z</time>
      </trkpt>
      <trkpt lat="45.28377" lon="2.056">
        <ele>692</ele>
        <time>2012-03-25T09:26:16Z</time>
      </trkpt>
      <trkpt lat="45.28383" lon="2.05607">
        <ele>692</ele>
        <time>2012-03-25T09:26:17Z</time>
      </trkpt>
      <trkpt lat="45.28386" lon="2.0561">
        <ele>692</ele>
        <time>2012-03-25T09:26:18Z</time>
      </trkpt>
      <trkpt lat="45.28389" lon="2.05615">
        <ele>692</ele>
        <time>2012-03-25T09:26:20Z</time>
      </trkpt>
      <trkpt lat="45.28393" lon="2.05626">
        <ele>691</ele>
        <time>2012-03-25T09:26:21Z</time>
      </trkpt>
      <trkpt lat="45.28397" lon="2.05632">
        <ele>691</ele>
        <time>2012-03-25T09:26:22Z</time>
      </trkpt>
      <trkpt lat="45.28401" lon="2.05638">
        <ele>691</ele>
        <time>2012-03-25T09:26:24Z</time>
      </trkpt>
      <trkpt lat="45.28407" lon="2.0565">
        <ele>691</ele>
        <time>2012-03-25T09:26:25Z</time>
      </trkpt>
      <trkpt lat="45.28411" lon="2.05656">
        <ele>691</ele>
        <time>2012-03-25T09:26:26Z</time>
      </trkpt>
      <trkpt lat="45.28414" lon="2.05661">
        <ele>692</ele>
        <time>2012-03-25T09:26:28Z</time>
      </trkpt>
      <trkpt lat="45.28419" lon="2.05673">
        <ele>692</ele>
        <time>2012-03-25T09:26:29Z</time>
      </trkpt>
      <trkpt lat="45.28422" lon="2.05678">
        <ele>693</ele>
        <time>2012-03-25T09:26:30Z</time>
      </trkpt>
      <trkpt lat="45.28425" lon="2.05683">
        <ele>693</ele>
        <time>2012-03-25T09:26:32Z</time>
      </trkpt>
      <trkpt lat="45.28431" lon="2.05693">
        <ele>693</ele>
        <time>2012-03-25T09:26:33Z</time>
      </trkpt>
      <trkpt lat="45.28434" lon="2.05698">
        <ele>693</ele>
        <time>2012-03-25T09:26:34Z</time>
      </trkpt>
      <trkpt lat="45.28436" lon="2.05702">
        <ele>694</ele>
        <time>2012-03-25T09:26:36Z</time>
      </trkpt>
      <trkpt lat="45.28442" lon="2.05712">
        <ele>694</ele>
        <time>2012-03-25T09:26:37Z</time>
      </trkpt>
      <trkpt lat="45.28444" lon="2.05715">
        <ele>694</ele>
        <time>2012-03-25T09:26:38Z</time>
      </trkpt>
      <trkpt lat="45.28446" lon="2.05723">
        <ele>694</ele>
        <time>2012-03-25T09:26:40Z</time>
      </trkpt>
      <trkpt lat="45.28453" lon="2.05734">
        <ele>694</ele>
        <time>2012-03-25T09:26:41Z</time>
      </trkpt>
      <trkpt lat="45.28455" lon="2.05737">
        <ele>694</ele>
        <time>2012-03-25T09:26:42Z</time>
      </trkpt>
      <trkpt lat="45.28458" lon="2.05743">
        <ele>693</ele>
        <time>2012-03-25T09:26:44Z</time>
      </trkpt>
      <trkpt lat="45.28463" lon="2.05757">
        <ele>694</ele>
        <time>2012-03-25T09:26:45Z</time>
      </trkpt>
      <trkpt lat="45.28466" lon="2.05764">
        <ele>693</ele>
        <time>2012-03-25T09:26:46Z</time>
      </trkpt>
      <trkpt lat="45.28469" lon="2.05768">
        <ele>692</ele>
        <time>2012-03-25T09:26:48Z</time>
      </trkpt>
      <trkpt lat="45.28473" lon="2.05782">
        <ele>692</ele>
        <time>2012-03-25T09:26:49Z</time>
      </trkpt>
      <trkpt lat="45.28474" lon="2.0579">
        <ele>693</ele>
        <time>2012-03-25T09:26:50Z</time>
      </trkpt>
      <trkpt lat="45.28476" lon="2.05797">
        <ele>692</ele>
        <time>2012-03-25T09:26:52Z</time>
      </trkpt>
      <trkpt lat="45.28476" lon="2.05811">
        <ele>692</ele>
        <time>2012-03-25T09:26:53Z</time>
      </trkpt>
      <trkpt lat="45.28477" lon="2.05818">
        <ele>692</ele>
        <time>2012-03-25T09:26:54Z</time>
      </trkpt>
      <trkpt lat="45.28477" lon="2.05824">
        <ele>693</ele>
        <time>2012-03-25T09:26:56Z</time>
      </trkpt>
      <trkpt lat="45.28478" lon="2.05838">
        <ele>693</ele>
        <time>2012-03-25T09:26:57Z</time>
      </trkpt>
      <trkpt lat="45.28479" lon="2.05846">
        <ele>693</ele>
        <time>2012-03-25T09:26:58Z</time>
      </trkpt>
      <trkpt lat="45.2848" lon="2.05853">
        <ele>693</ele>
        <time>2012-03-25T09:27:00Z</time>
      </trkpt>
      <trkpt lat="45.28481" lon="2.05869">
        <ele>693</ele>
        <time>2012-03-25T09:27:01Z</time>
      </trkpt>
      <trkpt lat="45.28481" lon="2.05875">
        <ele>694</ele>
        <time>2012-03-25T09:27:02Z</time>
      </trkpt>
      <trkpt lat="45.28484" lon="2.05883">
        <ele>693</ele>
        <time>2012-03-25T09:27:04Z</time>
      </trkpt>
      <trkpt lat="45.28489" lon="2.05897">
        <ele>693</ele>
        <time>2012-03-25T09:27:05Z</time>
      </trkpt>
      <trkpt lat="45.28493" lon="2.05903">
        <ele>693</ele>
        <time>2012-03-25T09:27:06Z</time>
      </trkpt>
      <trkpt lat="45.28497" lon="2.05907">
        <ele>693</ele>
        <time>2012-03-25T09:27:08Z</time>
      </trkpt>
      <trkpt lat="45.28507" lon="2.05918">
        <ele>694</ele>
        <time>2012-03-25T09:27:09Z</time>
      </trkpt>
      <trkpt lat="45.28508" lon="2.05923">
        <ele>694</ele>
        <time>2012-03-25T09:27:10Z</time>
      </trkpt>
      <trkpt lat="45.28511" lon="2.05928">
        <ele>695</ele>
        <time>2012-03-25T09:27:12Z</time>
      </trkpt>
      <trkpt lat="45.28521" lon="2.05936">
        <ele>695</ele>
        <time>2012-03-25T09:27:13Z</time>
      </trkpt>
      <trkpt lat="45.28526" lon="2.05938">
        <ele>695</ele>
        <time>2012-03-25T09:27:14Z</time>
      </trkpt>
      <trkpt lat="45.28531" lon="2.05941">
        <ele>695</ele>
        <time>2012-03-25T09:27:16Z</time>
      </trkpt>
      <trkpt lat="45.2854" lon="2.05945">
        <ele>695</ele>
        <time>2012-03-25T09:27:17Z</time>
      </trkpt>
      <trkpt lat="45.28545" lon="2.05952">
        <ele>695</ele>
        <time>2012-03-25T09:27:18Z</time>
      </trkpt>
      <trkpt lat="45.28549" lon="2.05957">
        <ele>695</ele>
        <time>2012-03-25T09:27:20Z</time>
      </trkpt>
      <trkpt lat="45.28558" lon="2.05964">
        <ele>695</ele>
        <time>2012-03-25T09:27:21Z</time>
      </trkpt>
      <trkpt lat="45.28563" lon="2.05967">
        <ele>695</ele>
        <time>2012-03-25T09:27:22Z</time>
      </trkpt>
      <trkpt lat="45.28568" lon="2.05972">
        <ele>695</ele>
        <time>2012-03-25T09:27:24Z</time>
      </trkpt>
      <trkpt lat="45.28576" lon="2.0598">
        <ele>696</ele>
        <time>2012-03-25T09:27:25Z</time>
      </trkpt>
      <trkpt lat="45.2858" lon="2.05986">
        <ele>696</ele>
        <time>2012-03-25T09:27:26Z</time>
      </trkpt>
      <trkpt lat="45.28584" lon="2.0599">
        <ele>695</ele>
        <time>2012-03-25T09:27:28Z</time>
      </trkpt>
      <trkpt lat="45.28591" lon="2.06002">
        <ele>696</ele>
        <time>2012-03-25T09:27:29Z</time>
      </trkpt>
      <trkpt lat="45.28594" lon="2.06008">
        <ele>695</ele>
        <time>2012-03-25T09:27:30Z</time>
      </trkpt>
      <trkpt lat="45.28597" lon="2.06014">
        <ele>695</ele>
        <time>2012-03-25T09:27:32Z</time>
      </trkpt>
      <trkpt lat="45.28603" lon="2.06031">
        <ele>695</ele>
        <time>2012-03-25T09:27:33Z</time>
      </trkpt>
      <trkpt lat="45.28604" lon="2.06038">
        <ele>694</ele>
        <time>2012-03-25T09:27:34Z</time>
      </trkpt>
      <trkpt lat="45.28606" lon="2.06047">
        <ele>694</ele>
        <time>2012-03-25T09:27:36Z</time>
      </trkpt>
      <trkpt lat="45.28607" lon="2.06065">
        <ele>693</ele>
        <time>2012-03-25T09:27:37Z</time>
      </trkpt>
      <trkpt lat="45.28608" lon="2.06075">
        <ele>693</ele>
        <time>2012-03-25T09:27:38Z</time>
      </trkpt>
      <trkpt lat="45.2861" lon="2.06084">
        <ele>693</ele>
        <time>2012-03-25T09:27:40Z</time>
      </trkpt>
      <trkpt lat="45.28609" lon="2.06102">
        <ele>692</ele>
        <time>2012-03-25T09:27:41Z</time>
      </trkpt>
      <trkpt lat="45.28609" lon="2.06114">
        <ele>692</ele>
        <time>2012-03-25T09:27:42Z</time>
      </trkpt>
      <trkpt lat="45.28608" lon="2.06126">
        <ele>693</ele>
        <time>2012-03-25T09:27:44Z</time>
      </trkpt>
      <trkpt lat="45.2861" lon="2.06149">
        <ele>693</ele>
        <time>2012-03-25T09:27:45Z</time>
      </trkpt>
      <trkpt lat="45.28612" lon="2.06159">
        <ele>694</ele>
        <time>2012-03-25T09:27:46Z</time>
      </trkpt>
      <trkpt lat="45.28615" lon="2.06169">
        <ele>695</ele>
        <time>2012-03-25T09:27:48Z</time>
      </trkpt>
      <trkpt lat="45.28622" lon="2.06188">
        <ele>694</ele>
        <time>2012-03-25T09:27:49Z</time>
      </trkpt>
      <trkpt lat="45.28627" lon="2.06196">
        <ele>694</ele>
        <time>2012-03-25T09:27:50Z</time>
      </trkpt>
      <trkpt lat="45.28632" lon="2.06204">
        <ele>694</ele>
        <time>2012-03-25T09:27:52Z</time>
      </trkpt>
      <trkpt lat="45.28643" lon="2.06216">
        <ele>694</ele>
        <time>2012-03-25T09:27:53Z</time>
      </trkpt>
      <trkpt lat="45.28648" lon="2.0622">
        <ele>694</ele>
        <time>2012-03-25T09:27:54Z</time>
      </trkpt>
      <trkpt lat="45.28654" lon="2.06223">
        <ele>694</ele>
        <time>2012-03-25T09:27:56Z</time>
      </trkpt>
      <trkpt lat="45.28669" lon="2.06226">
        <ele>693</ele>
        <time>2012-03-25T09:27:57Z</time>
      </trkpt>
      <trkpt lat="45.28674" lon="2.06227">
        <ele>693</ele>
        <time>2012-03-25T09:27:58Z</time>
      </trkpt>
      <trkpt lat="45.2868" lon="2.06226">
        <ele>693</ele>
        <time>2012-03-25T09:28:00Z</time>
      </trkpt>
      <trkpt lat="45.28692" lon="2.06228">
        <ele>693</ele>
        <time>2012-03-25T09:28:01Z</time>
      </trkpt>
      <trkpt lat="45.28698" lon="2.06229">
        <ele>693</ele>
        <time>2012-03-25T09:28:02Z</time>
      </trkpt>
      <trkpt lat="45.28702" lon="2.06229">
        <ele>693</ele>
        <time>2012-03-25T09:28:04Z</time>
      </trkpt>
      <trkpt lat="45.28713" lon="2.06233">
        <ele>693</ele>
        <time>2012-03-25T09:28:05Z</time>
      </trkpt>
      <trkpt lat="45.2872" lon="2.06234">
        <ele>693</ele>
        <time>2012-03-25T09:28:06Z</time>
      </trkpt>
      <trkpt lat="45.28724" lon="2.06235">
        <ele>693</ele>
        <time>2012-03-25T09:28:08Z</time>
      </trkpt>
      <trkpt lat="45.28736" lon="2.06235">
        <ele>693</ele>
        <time>2012-03-25T09:28:09Z</time>
      </trkpt>
      <trkpt lat="45.28742" lon="2.06238">
        <ele>693</ele>
        <time>2012-03-25T09:28:10Z</time>
      </trkpt>
      <trkpt lat="45.28748" lon="2.06236">
        <ele>693</ele>
        <time>2012-03-25T09:28:12Z</time>
      </trkpt>
      <trkpt lat="45.28758" lon="2.06242">
        <ele>693</ele>
        <time>2012-03-25T09:28:13Z</time>
      </trkpt>
      <trkpt lat="45.28764" lon="2.06244">
        <ele>693</ele>
        <time>2012-03-25T09:28:14Z</time>
      </trkpt>
      <trkpt lat="45.2877" lon="2.06245">
        <ele>693</ele>
        <time>2012-03-25T09:28:16Z</time>
      </trkpt>
      <trkpt lat="45.28781" lon="2.06256">
        <ele>693</ele>
        <time>2012-03-25T09:28:17Z</time>
      </trkpt>
      <trkpt lat="45.28786" lon="2.06259">
        <ele>693</ele>
        <time>2012-03-25T09:28:18Z</time>
      </trkpt>
      <trkpt lat="45.28791" lon="2.06265">
        <ele>692</ele>
        <time>2012-03-25T09:28:20Z</time>
      </trkpt>
      <trkpt lat="45.28801" lon="2.06274">
        <ele>692</ele>
        <time>2012-03-25T09:28:21Z</time>
      </trkpt>
      <trkpt lat="45.28806" lon="2.06277">
        <ele>693</ele>
        <time>2012-03-25T09:28:22Z</time>
      </trkpt>
      <trkpt lat="45.28811" lon="2.0628">
        <ele>692</ele>
        <time>2012-03-25T09:28:24Z</time>
      </trkpt>
      <trkpt lat="45.28821" lon="2.06286">
        <ele>692</ele>
        <time>2012-03-25T09:28:25Z</time>
      </trkpt>
      <trkpt lat="45.28827" lon="2.06286">
        <ele>693</ele>
        <time>2012-03-25T09:28:26Z</time>
      </trkpt>
      <trkpt lat="45.28833" lon="2.06289">
        <ele>694</ele>
        <time>2012-03-25T09:28:28Z</time>
      </trkpt>
      <trkpt lat="45.28845" lon="2.06288">
        <ele>694</ele>
        <time>2012-03-25T09:28:29Z</time>
      </trkpt>
      <trkpt lat="45.2885" lon="2.06286">
        <ele>694</ele>
        <time>2012-03-25T09:28:30Z</time>
      </trkpt>
      <trkpt lat="45.28855" lon="2.06283">
        <ele>694</ele>
        <time>2012-03-25T09:28:32Z</time>
      </trkpt>
      <trkpt lat="45.28867" lon="2.0628">
        <ele>693</ele>
        <time>2012-03-25T09:28:33Z</time>
      </trkpt>
      <trkpt lat="45.28872" lon="2.06283">
        <ele>694</ele>
        <time>2012-03-25T09:28:34Z</time>
      </trkpt>
      <trkpt lat="45.28878" lon="2.06283">
        <ele>694</ele>
        <time>2012-03-25T09:28:36Z</time>
      </trkpt>
      <trkpt lat="45.28887" lon="2.06284">
        <ele>695</ele>
        <time>2012-03-25T09:28:37Z</time>
      </trkpt>
      <trkpt lat="45.28893" lon="2.06284">
        <ele>696</ele>
        <time>2012-03-25T09:28:38Z</time>
      </trkpt>
      <trkpt lat="45.28899" lon="2.06286">
        <ele>696</ele>
        <time>2012-03-25T09:28:40Z</time>
      </trkpt>
      <trkpt lat="45.2891" lon="2.06287">
        <ele>696</ele>
        <time>2012-03-25T09:28:41Z</time>
      </trkpt>
      <trkpt lat="45.28916" lon="2.06288">
        <ele>697</ele>
        <time>2012-03-25T09:28:42Z</time>
      </trkpt>
      <trkpt lat="45.28922" lon="2.06289">
        <ele>696</ele>
        <time>2012-03-25T09:28:44Z</time>
      </trkpt>
      <trkpt lat="45.28935" lon="2.06289">
        <ele>697</ele>
        <time>2012-03-25T09:28:45Z</time>
      </trkpt>
      <trkpt lat="45.28941" lon="2.0629">
        <ele>696</ele>
        <time>2012-03-25T09:28:46Z</time>
      </trkpt>
      <trkpt lat="45.28941" lon="2.0629">
        <ele>696</ele>
        <time>2012-03-25T09:28:48Z</time>
      </trkpt>
      <trkpt lat="45.28947" lon="2.06292">
        <ele>696</ele>
        <time>2012-03-25T09:28:49Z</time>
      </trkpt>
      <trkpt lat="45.28961" lon="2.06299">
        <ele>698</ele>
        <time>2012-03-25T09:28:50Z</time>
      </trkpt>
      <trkpt lat="45.28967" lon="2.06298">
        <ele>698</ele>
        <time>2012-03-25T09:28:52Z</time>
      </trkpt>
      <trkpt lat="45.28979" lon="2.06301">
        <ele>698</ele>
        <time>2012-03-25T09:28:53Z</time>
      </trkpt>
      <trkpt lat="45.28983" lon="2.06302">
        <ele>698</ele>
        <time>2012-03-25T09:28:54Z</time>
      </trkpt>
      <trkpt lat="45.2899" lon="2.06305">
        <ele>698</ele>
        <time>2012-03-25T09:28:56Z</time>
      </trkpt>
      <trkpt lat="45.29002" lon="2.0631">
        <ele>697</ele>
        <time>2012-03-25T09:28:57Z</time>
      </trkpt>
      <trkpt lat="45.29007" lon="2.06312">
        <ele>698</ele>
        <time>2012-03-25T09:28:58Z</time>
      </trkpt>
      <trkpt lat="45.29012" lon="2.06315">
        <ele>698</ele>
        <time>2012-03-25T09:29:00Z</time>
      </trkpt>
      <trkpt lat="45.29024" lon="2.06319">
        <ele>698</ele>
        <time>2012-03-25T09:29:01Z</time>
      </trkpt>
      <trkpt lat="45.2903" lon="2.06321">
        <ele>699</ele>
        <time>2012-03-25T09:29:02Z</time>
      </trkpt>
      <trkpt lat="45.29035" lon="2.06322">
        <ele>699</ele>
        <time>2012-03-25T09:29:04Z</time>
      </trkpt>
      <trkpt lat="45.29045" lon="2.06325">
        <ele>698</ele>
        <time>2012-03-25T09:29:05Z</time>
      </trkpt>
      <trkpt lat="45.2905" lon="2.06328">
        <ele>698</ele>
        <time>2012-03-25T09:29:06Z</time>
      </trkpt>
      <trkpt lat="45.29056" lon="2.06328">
        <ele>698</ele>
        <time>2012-03-25T09:29:08Z</time>
      </trkpt>
      <trkpt lat="45.29067" lon="2.06332">
        <ele>698</ele>
        <time>2012-03-25T09:29:09Z</time>
      </trkpt>
      <trkpt lat="45.29073" lon="2.06334">
        <ele>698</ele>
        <time>2012-03-25T09:29:10Z</time>
      </trkpt>
      <trkpt lat="45.29079" lon="2.06334">
        <ele>698</ele>
        <time>2012-03-25T09:29:12Z</time>
      </trkpt>
      <trkpt lat="45.29092" lon="2.06337">
        <ele>698</ele>
        <time>2012-03-25T09:29:13Z</time>
      </trkpt>
      <trkpt lat="45.29098" lon="2.06339">
        <ele>698</ele>
        <time>2012-03-25T09:29:14Z</time>
      </trkpt>
      <trkpt lat="45.29104" lon="2.06341">
        <ele>698</ele>
        <time>2012-03-25T09:29:16Z</time>
      </trkpt>
      <trkpt lat="45.29116" lon="2.06348">
        <ele>699</ele>
        <time>2012-03-25T09:29:17Z</time>
      </trkpt>
      <trkpt lat="45.29122" lon="2.06349">
        <ele>698</ele>
        <time>2012-03-25T09:29:18Z</time>
      </trkpt>
      <trkpt lat="45.29128" lon="2.0635">
        <ele>699</ele>
        <time>2012-03-25T09:29:19Z</time>
      </trkpt>
      <trkpt lat="45.29134" lon="2.06351">
        <ele>698</ele>
        <time>2012-03-25T09:29:20Z</time>
      </trkpt>
      <trkpt lat="45.29141" lon="2.06354">
        <ele>699</ele>
        <time>2012-03-25T09:29:21Z</time>
      </trkpt>
      <trkpt lat="45.29146" lon="2.06356">
        <ele>698</ele>
        <time>2012-03-25T09:29:22Z</time>
      </trkpt>
      <trkpt lat="45.29152" lon="2.06359">
        <ele>698</ele>
        <time>2012-03-25T09:29:23Z</time>
      </trkpt>
      <trkpt lat="45.29159" lon="2.06361">
        <ele>699</ele>
        <time>2012-03-25T09:29:24Z</time>
      </trkpt>
      <trkpt lat="45.29165" lon="2.06363">
        <ele>699</ele>
        <time>2012-03-25T09:29:25Z</time>
      </trkpt>
      <trkpt lat="45.29172" lon="2.06365">
        <ele>699</ele>
        <time>2012-03-25T09:29:26Z</time>
      </trkpt>
      <trkpt lat="45.29178" lon="2.06369">
        <ele>699</ele>
        <time>2012-03-25T09:29:27Z</time>
      </trkpt>
      <trkpt lat="45.29184" lon="2.06371">
        <ele>699</ele>
        <time>2012-03-25T09:29:29Z</time>
      </trkpt>
      <trkpt lat="45.29196" lon="2.06382">
        <ele>700</ele>
        <time>2012-03-25T09:29:30Z</time>
      </trkpt>
      <trkpt lat="45.29202" lon="2.06385">
        <ele>700</ele>
        <time>2012-03-25T09:29:31Z</time>
      </trkpt>
      <trkpt lat="45.29209" lon="2.06387">
        <ele>700</ele>
        <time>2012-03-25T09:29:33Z</time>
      </trkpt>
      <trkpt lat="45.29222" lon="2.06391">
        <ele>701</ele>
        <time>2012-03-25T09:29:34Z</time>
      </trkpt>
      <trkpt lat="45.29228" lon="2.06394">
        <ele>701</ele>
        <time>2012-03-25T09:29:35Z</time>
      </trkpt>
      <trkpt lat="45.29235" lon="2.06397">
        <ele>701</ele>
        <time>2012-03-25T09:29:37Z</time>
      </trkpt>
      <trkpt lat="45.29248" lon="2.06396">
        <ele>700</ele>
        <time>2012-03-25T09:29:38Z</time>
      </trkpt>
      <trkpt lat="45.29254" lon="2.06399">
        <ele>700</ele>
        <time>2012-03-25T09:29:39Z</time>
      </trkpt>
      <trkpt lat="45.29261" lon="2.06403">
        <ele>700</ele>
        <time>2012-03-25T09:29:40Z</time>
      </trkpt>
      <trkpt lat="45.29267" lon="2.06407">
        <ele>699</ele>
        <time>2012-03-25T09:29:41Z</time>
      </trkpt>
      <trkpt lat="45.29274" lon="2.06412">
        <ele>699</ele>
        <time>2012-03-25T09:29:42Z</time>
      </trkpt>
      <trkpt lat="45.2928" lon="2.06415">
        <ele>699</ele>
        <time>2012-03-25T09:29:43Z</time>
      </trkpt>
      <trkpt lat="45.29285" lon="2.06417">
        <ele>699</ele>
        <time>2012-03-25T09:29:44Z</time>
      </trkpt>
      <trkpt lat="45.29292" lon="2.06421">
        <ele>699</ele>
        <time>2012-03-25T09:29:45Z</time>
      </trkpt>
      <trkpt lat="45.29298" lon="2.06423">
        <ele>699</ele>
        <time>2012-03-25T09:29:46Z</time>
      </trkpt>
      <trkpt lat="45.29305" lon="2.06426">
        <ele>699</ele>
        <time>2012-03-25T09:29:47Z</time>
      </trkpt>
      <trkpt lat="45.29311" lon="2.0643">
        <ele>699</ele>
        <time>2012-03-25T09:29:48Z</time>
      </trkpt>
      <trkpt lat="45.29315" lon="2.06439">
        <ele>699</ele>
        <time>2012-03-25T09:29:49Z</time>
      </trkpt>
      <trkpt lat="45.2932" lon="2.06446">
        <ele>700</ele>
        <time>2012-03-25T09:29:50Z</time>
      </trkpt>
      <trkpt lat="45.29324" lon="2.06455">
        <ele>700</ele>
        <time>2012-03-25T09:29:51Z</time>
      </trkpt>
      <trkpt lat="45.29329" lon="2.06459">
        <ele>699</ele>
        <time>2012-03-25T09:29:52Z</time>
      </trkpt>
      <trkpt lat="45.29333" lon="2.06468">
        <ele>699</ele>
        <time>2012-03-25T09:29:53Z</time>
      </trkpt>
      <trkpt lat="45.29336" lon="2.06479">
        <ele>699</ele>
        <time>2012-03-25T09:29:54Z</time>
      </trkpt>
      <trkpt lat="45.29341" lon="2.06487">
        <ele>698</ele>
        <time>2012-03-25T09:29:55Z</time>
      </trkpt>
      <trkpt lat="45.29344" lon="2.06495">
        <ele>698</ele>
        <time>2012-03-25T09:29:57Z</time>
      </trkpt>
      <trkpt lat="45.29349" lon="2.06503">
        <ele>698</ele>
        <time>2012-03-25T09:29:58Z</time>
      </trkpt>
      <trkpt lat="45.29351" lon="2.06513">
        <ele>699</ele>
        <time>2012-03-25T09:29:58Z</time>
      </trkpt>
      <trkpt lat="45.29355" lon="2.0652">
        <ele>699</ele>
        <time>2012-03-25T09:29:59Z</time>
      </trkpt>
      <trkpt lat="45.2936" lon="2.06529">
        <ele>698</ele>
        <time>2012-03-25T09:30:00Z</time>
      </trkpt>
      <trkpt lat="45.29362" lon="2.06538">
        <ele>698</ele>
        <time>2012-03-25T09:30:02Z</time>
      </trkpt>
      <trkpt lat="45.29371" lon="2.0656">
        <ele>698</ele>
        <time>2012-03-25T09:30:03Z</time>
      </trkpt>
      <trkpt lat="45.29375" lon="2.06569">
        <ele>698</ele>
        <time>2012-03-25T09:30:04Z</time>
      </trkpt>
      <trkpt lat="45.29379" lon="2.06578">
        <ele>697</ele>
        <time>2012-03-25T09:30:06Z</time>
      </trkpt>
      <trkpt lat="45.29387" lon="2.06598">
        <ele>697</ele>
        <time>2012-03-25T09:30:07Z</time>
      </trkpt>
      <trkpt lat="45.29391" lon="2.06608">
        <ele>697</ele>
        <time>2012-03-25T09:30:08Z</time>
      </trkpt>
      <trkpt lat="45.29396" lon="2.06615">
        <ele>697</ele>
        <time>2012-03-25T09:30:10Z</time>
      </trkpt>
      <trkpt lat="45.29405" lon="2.0663">
        <ele>697</ele>
        <time>2012-03-25T09:30:11Z</time>
      </trkpt>
      <trkpt lat="45.29409" lon="2.06642">
        <ele>696</ele>
        <time>2012-03-25T09:30:12Z</time>
      </trkpt>
      <trkpt lat="45.29413" lon="2.06653">
        <ele>696</ele>
        <time>2012-03-25T09:30:14Z</time>
      </trkpt>
      <trkpt lat="45.29423" lon="2.06676">
        <ele>694</ele>
        <time>2012-03-25T09:30:15Z</time>
      </trkpt>
      <trkpt lat="45.29427" lon="2.06688">
        <ele>693</ele>
        <time>2012-03-25T09:30:16Z</time>
      </trkpt>
      <trkpt lat="45.29431" lon="2.067">
        <ele>694</ele>
        <time>2012-03-25T09:30:18Z</time>
      </trkpt>
      <trkpt lat="45.29439" lon="2.06722">
        <ele>694</ele>
        <time>2012-03-25T09:30:19Z</time>
      </trkpt>
      <trkpt lat="45.29444" lon="2.06731">
        <ele>693</ele>
        <time>2012-03-25T09:30:20Z</time>
      </trkpt>
      <trkpt lat="45.29447" lon="2.06742">
        <ele>693</ele>
        <time>2012-03-25T09:30:22Z</time>
      </trkpt>
      <trkpt lat="45.29457" lon="2.06763">
        <ele>691</ele>
        <time>2012-03-25T09:30:23Z</time>
      </trkpt>
      <trkpt lat="45.29462" lon="2.06773">
        <ele>690</ele>
        <time>2012-03-25T09:30:24Z</time>
      </trkpt>
      <trkpt lat="45.29466" lon="2.06783">
        <ele>689</ele>
        <time>2012-03-25T09:30:26Z</time>
      </trkpt>
      <trkpt lat="45.29472" lon="2.06802">
        <ele>689</ele>
        <time>2012-03-25T09:30:27Z</time>
      </trkpt>
      <trkpt lat="45.29476" lon="2.06811">
        <ele>689</ele>
        <time>2012-03-25T09:30:28Z</time>
      </trkpt>
      <trkpt lat="45.29479" lon="2.0682">
        <ele>690</ele>
        <time>2012-03-25T09:30:30Z</time>
      </trkpt>
      <trkpt lat="45.29487" lon="2.06839">
        <ele>689</ele>
        <time>2012-03-25T09:30:31Z</time>
      </trkpt>
      <trkpt lat="45.2949" lon="2.06849">
        <ele>688</ele>
        <time>2012-03-25T09:30:32Z</time>
      </trkpt>
      <trkpt lat="45.29494" lon="2.06857">
        <ele>689</ele>
        <time>2012-03-25T09:30:34Z</time>
      </trkpt>
      <trkpt lat="45.29501" lon="2.06877">
        <ele>689</ele>
        <time>2012-03-25T09:30:35Z</time>
      </trkpt>
      <trkpt lat="45.29504" lon="2.06884">
        <ele>688</ele>
        <time>2012-03-25T09:30:36Z</time>
      </trkpt>
      <trkpt lat="45.29507" lon="2.06894">
        <ele>688</ele>
        <time>2012-03-25T09:30:38Z</time>
      </trkpt>
      <trkpt lat="45.29514" lon="2.0691">
        <ele>687</ele>
        <time>2012-03-25T09:30:39Z</time>
      </trkpt>
      <trkpt lat="45.29517" lon="2.06921">
        <ele>687</ele>
        <time>2012-03-25T09:30:40Z</time>
      </trkpt>
      <trkpt lat="45.2952" lon="2.06929">
        <ele>688</ele>
        <time>2012-03-25T09:30:42Z</time>
      </trkpt>
      <trkpt lat="45.29527" lon="2.06948">
        <ele>689</ele>
        <time>2012-03-25T09:30:43Z</time>
      </trkpt>
      <trkpt lat="45.29531" lon="2.06957">
        <ele>688</ele>
        <time>2012-03-25T09:30:44Z</time>
      </trkpt>
      <trkpt lat="45.29535" lon="2.06966">
        <ele>687</ele>
        <time>2012-03-25T09:30:46Z</time>
      </trkpt>
      <trkpt lat="45.29544" lon="2.0699">
        <ele>686</ele>
        <time>2012-03-25T09:30:47Z</time>
      </trkpt>
      <trkpt lat="45.29548" lon="2.07003">
        <ele>685</ele>
        <time>2012-03-25T09:30:48Z</time>
      </trkpt>
      <trkpt lat="45.29554" lon="2.07016">
        <ele>685</ele>
        <time>2012-03-25T09:30:50Z</time>
      </trkpt>
      <trkpt lat="45.29563" lon="2.07041">
        <ele>684</ele>
        <time>2012-03-25T09:30:51Z</time>
      </trkpt>
      <trkpt lat="45.2957" lon="2.07055">
        <ele>682</ele>
        <time>2012-03-25T09:30:52Z</time>
      </trkpt>
      <trkpt lat="45.29574" lon="2.07066">
        <ele>682</ele>
        <time>2012-03-25T09:30:54Z</time>
      </trkpt>
      <trkpt lat="45.29581" lon="2.07092">
        <ele>681</ele>
        <time>2012-03-25T09:30:55Z</time>
      </trkpt>
      <trkpt lat="45.29584" lon="2.07104">
        <ele>680</ele>
        <time>2012-03-25T09:30:56Z</time>
      </trkpt>
      <trkpt lat="45.29586" lon="2.07115">
        <ele>680</ele>
        <time>2012-03-25T09:30:58Z</time>
      </trkpt>
      <trkpt lat="45.29574" lon="2.0713">
        <ele>680</ele>
        <time>2012-03-25T09:30:59Z</time>
      </trkpt>
      <trkpt lat="45.29569" lon="2.0714">
        <ele>678</ele>
        <time>2012-03-25T09:31:00Z</time>
      </trkpt>
      <trkpt lat="45.29564" lon="2.0715">
        <ele>677</ele>
        <time>2012-03-25T09:31:02Z</time>
      </trkpt>
      <trkpt lat="45.29558" lon="2.07173">
        <ele>676</ele>
        <time>2012-03-25T09:31:03Z</time>
      </trkpt>
      <trkpt lat="45.29555" lon="2.07183">
        <ele>675</ele>
        <time>2012-03-25T09:31:04Z</time>
      </trkpt>
      <trkpt lat="45.29553" lon="2.07194">
        <ele>675</ele>
        <time>2012-03-25T09:31:06Z</time>
      </trkpt>
      <trkpt lat="45.29559" lon="2.07216">
        <ele>674</ele>
        <time>2012-03-25T09:31:07Z</time>
      </trkpt>
      <trkpt lat="45.29565" lon="2.07225">
        <ele>674</ele>
        <time>2012-03-25T09:31:08Z</time>
      </trkpt>
      <trkpt lat="45.29572" lon="2.07233">
        <ele>675</ele>
        <time>2012-03-25T09:31:10Z</time>
      </trkpt>
      <trkpt lat="45.29587" lon="2.07244">
        <ele>674</ele>
        <time>2012-03-25T09:31:11Z</time>
      </trkpt>
      <trkpt lat="45.29596" lon="2.07248">
        <ele>674</ele>
        <time>2012-03-25T09:31:12Z</time>
      </trkpt>
      <trkpt lat="45.29606" lon="2.07251">
        <ele>674</ele>
        <time>2012-03-25T09:31:14Z</time>
      </trkpt>
      <trkpt lat="45.29627" lon="2.07256">
        <ele>674</ele>
        <time>2012-03-25T09:31:15Z</time>
      </trkpt>
      <trkpt lat="45.29637" lon="2.07255">
        <ele>673</ele>
        <time>2012-03-25T09:31:16Z</time>
      </trkpt>
      <trkpt lat="45.29647" lon="2.07255">
        <ele>673</ele>
        <time>2012-03-25T09:31:18Z</time>
      </trkpt>
      <trkpt lat="45.29665" lon="2.07255">
        <ele>673</ele>
        <time>2012-03-25T09:31:19Z</time>
      </trkpt>
      <trkpt lat="45.29675" lon="2.07254">
        <ele>672</ele>
        <time>2012-03-25T09:31:20Z</time>
      </trkpt>
      <trkpt lat="45.29684" lon="2.07254">
        <ele>672</ele>
        <time>2012-03-25T09:31:22Z</time>
      </trkpt>
      <trkpt lat="45.29701" lon="2.0725">
        <ele>671</ele>
        <time>2012-03-25T09:31:23Z</time>
      </trkpt>
      <trkpt lat="45.29708" lon="2.07251">
        <ele>671</ele>
        <time>2012-03-25T09:31:24Z</time>
      </trkpt>
      <trkpt lat="45.29717" lon="2.07254">
        <ele>671</ele>
        <time>2012-03-25T09:31:26Z</time>
      </trkpt>
      <trkpt lat="45.29732" lon="2.07261">
        <ele>671</ele>
        <time>2012-03-25T09:31:27Z</time>
      </trkpt>
      <trkpt lat="45.29739" lon="2.07261">
        <ele>671</ele>
        <time>2012-03-25T09:31:28Z</time>
      </trkpt>
      <trkpt lat="45.29747" lon="2.07261">
        <ele>670</ele>
        <time>2012-03-25T09:31:30Z</time>
      </trkpt>
      <trkpt lat="45.29761" lon="2.07261">
        <ele>670</ele>
        <time>2012-03-25T09:31:31Z</time>
      </trkpt>
      <trkpt lat="45.29767" lon="2.07265">
        <ele>670</ele>
        <time>2012-03-25T09:31:32Z</time>
      </trkpt>
      <trkpt lat="45.29773" lon="2.07265">
        <ele>670</ele>
        <time>2012-03-25T09:31:34Z</time>
      </trkpt>
      <trkpt lat="45.29787" lon="2.07269">
        <ele>670</ele>
        <time>2012-03-25T09:31:35Z</time>
      </trkpt>
      <trkpt lat="45.29795" lon="2.07272">
        <ele>670</ele>
        <time>2012-03-25T09:31:36Z</time>
      </trkpt>
      <trkpt lat="45.29802" lon="2.07273">
        <ele>670</ele>
        <time>2012-03-25T09:31:38Z</time>
      </trkpt>
      <trkpt lat="45.29815" lon="2.07281">
        <ele>670</ele>
        <time>2012-03-25T09:31:39Z</time>
      </trkpt>
      <trkpt lat="45.29824" lon="2.07284">
        <ele>669</ele>
        <time>2012-03-25T09:31:40Z</time>
      </trkpt>
      <trkpt lat="45.29832" lon="2.07291">
        <ele>669</ele>
        <time>2012-03-25T09:31:42Z</time>
      </trkpt>
      <trkpt lat="45.29846" lon="2.07305">
        <ele>668</ele>
        <time>2012-03-25T09:31:43Z</time>
      </trkpt>
      <trkpt lat="45.29852" lon="2.07313">
        <ele>668</ele>
        <time>2012-03-25T09:31:44Z</time>
      </trkpt>
      <trkpt lat="45.29859" lon="2.0732">
        <ele>668</ele>
        <time>2012-03-25T09:31:46Z</time>
      </trkpt>
      <trkpt lat="45.29871" lon="2.07343">
        <ele>668</ele>
        <time>2012-03-25T09:31:47Z</time>
      </trkpt>
      <trkpt lat="45.29877" lon="2.07355">
        <ele>668</ele>
        <time>2012-03-25T09:31:48Z</time>
      </trkpt>
      <trkpt lat="45.29881" lon="2.07366">
        <ele>667</ele>
        <time>2012-03-25T09:31:50Z</time>
      </trkpt>
      <trkpt lat="45.2989" lon="2.07392">
        <ele>664</ele>
        <time>2012-03-25T09:31:51Z</time>
      </trkpt>
      <trkpt lat="45.29894" lon="2.07406">
        <ele>663</ele>
        <time>2012-03-25T09:31:52Z</time>
      </trkpt>
      <trkpt lat="45.29895" lon="2.07418">
        <ele>663</ele>
        <time>2012-03-25T09:31:54Z</time>
      </trkpt>
      <trkpt lat="45.29894" lon="2.0744">
        <ele>663</ele>
        <time>2012-03-25T09:31:55Z</time>
      </trkpt>
      <trkpt lat="45.29893" lon="2.07451">
        <ele>663</ele>
        <time>2012-03-25T09:31:56Z</time>
      </trkpt>
      <trkpt lat="45.29892" lon="2.07462">
        <ele>663</ele>
        <time>2012-03-25T09:31:58Z</time>
      </trkpt>
      <trkpt lat="45.2989" lon="2.07482">
        <ele>662</ele>
        <time>2012-03-25T09:31:59Z</time>
      </trkpt>
      <trkpt lat="45.29888" lon="2.07491">
        <ele>662</ele>
        <time>2012-03-25T09:32:00Z</time>
      </trkpt>
      <trkpt lat="45.29889" lon="2.07501">
        <ele>661</ele>
        <time>2012-03-25T09:32:02Z</time>
      </trkpt>
      <trkpt lat="45.29891" lon="2.07519">
        <ele>662</ele>
        <time>2012-03-25T09:32:03Z</time>
      </trkpt>
      <trkpt lat="45.29893" lon="2.07526">
        <ele>661</ele>
        <time>2012-03-25T09:32:04Z</time>
      </trkpt>
      <trkpt lat="45.29896" lon="2.07535">
        <ele>661</ele>
        <time>2012-03-25T09:32:06Z</time>
      </trkpt>
      <trkpt lat="45.299" lon="2.0755">
        <ele>661</ele>
        <time>2012-03-25T09:32:07Z</time>
      </trkpt>
      <trkpt lat="45.29904" lon="2.07559">
        <ele>661</ele>
        <time>2012-03-25T09:32:08Z</time>
      </trkpt>
      <trkpt lat="45.29908" lon="2.07565">
        <ele>661</ele>
        <time>2012-03-25T09:32:10Z</time>
      </trkpt>
      <trkpt lat="45.29917" lon="2.07583">
        <ele>661</ele>
        <time>2012-03-25T09:32:11Z</time>
      </trkpt>
      <trkpt lat="45.29923" lon="2.0759">
        <ele>661</ele>
        <time>2012-03-25T09:32:12Z</time>
      </trkpt>
      <trkpt lat="45.29928" lon="2.07598">
        <ele>661</ele>
        <time>2012-03-25T09:32:14Z</time>
      </trkpt>
      <trkpt lat="45.29937" lon="2.07614">
        <ele>661</ele>
        <time>2012-03-25T09:32:15Z</time>
      </trkpt>
      <trkpt lat="45.29942" lon="2.0762">
        <ele>661</ele>
        <time>2012-03-25T09:32:16Z</time>
      </trkpt>
      <trkpt lat="45.29948" lon="2.07628">
        <ele>661</ele>
        <time>2012-03-25T09:32:18Z</time>
      </trkpt>
      <trkpt lat="45.29958" lon="2.0764">
        <ele>662</ele>
        <time>2012-03-25T09:32:19Z</time>
      </trkpt>
      <trkpt lat="45.29964" lon="2.07648">
        <ele>662</ele>
        <time>2012-03-25T09:32:20Z</time>
      </trkpt>
      <trkpt lat="45.29969" lon="2.07654">
        <ele>661</ele>
        <time>2012-03-25T09:32:22Z</time>
      </trkpt>
      <trkpt lat="45.29983" lon="2.07665">
        <ele>662</ele>
        <time>2012-03-25T09:32:23Z</time>
      </trkpt>
      <trkpt lat="45.2999" lon="2.0767">
        <ele>661</ele>
        <time>2012-03-25T09:32:24Z</time>
      </trkpt>
      <trkpt lat="45.29998" lon="2.07671">
        <ele>661</ele>
        <time>2012-03-25T09:32:26Z</time>
      </trkpt>
      <trkpt lat="45.30013" lon="2.07677">
        <ele>661</ele>
        <time>2012-03-25T09:32:27Z</time>
      </trkpt>
      <trkpt lat="45.30021" lon="2.07678">
        <ele>662</ele>
        <time>2012-03-25T09:32:28Z</time>
      </trkpt>
      <trkpt lat="45.3003" lon="2.07666">
        <ele>662</ele>
        <time>2012-03-25T09:32:30Z</time>
      </trkpt>
      <trkpt lat="45.30045" lon="2.07656">
        <ele>662</ele>
        <time>2012-03-25T09:32:31Z</time>
      </trkpt>
      <trkpt lat="45.30053" lon="2.07653">
        <ele>662</ele>
        <time>2012-03-25T09:32:32Z</time>
      </trkpt>
      <trkpt lat="45.30058" lon="2.07648">
        <ele>663</ele>
        <time>2012-03-25T09:32:34Z</time>
      </trkpt>
      <trkpt lat="45.30074" lon="2.07642">
        <ele>662</ele>
        <time>2012-03-25T09:32:35Z</time>
      </trkpt>
      <trkpt lat="45.30079" lon="2.07636">
        <ele>662</ele>
        <time>2012-03-25T09:32:36Z</time>
      </trkpt>
      <trkpt lat="45.30088" lon="2.07633">
        <ele>662</ele>
        <time>2012-03-25T09:32:38Z</time>
      </trkpt>
      <trkpt lat="45.30104" lon="2.07626">
        <ele>662</ele>
        <time>2012-03-25T09:32:39Z</time>
      </trkpt>
      <trkpt lat="45.30108" lon="2.07618">
        <ele>662</ele>
        <time>2012-03-25T09:32:40Z</time>
      </trkpt>
      <trkpt lat="45.30116" lon="2.07614">
        <ele>662</ele>
        <time>2012-03-25T09:32:42Z</time>
      </trkpt>
      <trkpt lat="45.3013" lon="2.07621">
        <ele>660</ele>
        <time>2012-03-25T09:32:43Z</time>
      </trkpt>
      <trkpt lat="45.30136" lon="2.07632">
        <ele>660</ele>
        <time>2012-03-25T09:32:44Z</time>
      </trkpt>
      <trkpt lat="45.30143" lon="2.07638">
        <ele>660</ele>
        <time>2012-03-25T09:32:46Z</time>
      </trkpt>
      <trkpt lat="45.30155" lon="2.07653">
        <ele>660</ele>
        <time>2012-03-25T09:32:47Z</time>
      </trkpt>
      <trkpt lat="45.3016" lon="2.0766">
        <ele>660</ele>
        <time>2012-03-25T09:32:48Z</time>
      </trkpt>
      <trkpt lat="45.30165" lon="2.07667">
        <ele>660</ele>
        <time>2012-03-25T09:32:50Z</time>
      </trkpt>
      <trkpt lat="45.30173" lon="2.07685">
        <ele>661</ele>
        <time>2012-03-25T09:32:51Z</time>
      </trkpt>
      <trkpt lat="45.30177" lon="2.07692">
        <ele>661</ele>
        <time>2012-03-25T09:32:52Z</time>
      </trkpt>
      <trkpt lat="45.30181" lon="2.07701">
        <ele>661</ele>
        <time>2012-03-25T09:32:54Z</time>
      </trkpt>
      <trkpt lat="45.3019" lon="2.07715">
        <ele>661</ele>
        <time>2012-03-25T09:32:55Z</time>
      </trkpt>
      <trkpt lat="45.30196" lon="2.07719">
        <ele>661</ele>
        <time>2012-03-25T09:32:56Z</time>
      </trkpt>
      <trkpt lat="45.30202" lon="2.07725">
        <ele>660</ele>
        <time>2012-03-25T09:32:58Z</time>
      </trkpt>
      <trkpt lat="45.30213" lon="2.07737">
        <ele>660</ele>
        <time>2012-03-25T09:32:59Z</time>
      </trkpt>
      <trkpt lat="45.30216" lon="2.07742">
        <ele>660</ele>
        <time>2012-03-25T09:33:00Z</time>
      </trkpt>
      <trkpt lat="45.30219" lon="2.07747">
        <ele>660</ele>
        <time>2012-03-25T09:33:02Z</time>
      </trkpt>
      <trkpt lat="45.30228" lon="2.07762">
        <ele>659</ele>
        <time>2012-03-25T09:33:03Z</time>
      </trkpt>
      <trkpt lat="45.30232" lon="2.0777">
        <ele>659</ele>
        <time>2012-03-25T09:33:04Z</time>
      </trkpt>
      <trkpt lat="45.30235" lon="2.07776">
        <ele>659</ele>
        <time>2012-03-25T09:33:06Z</time>
      </trkpt>
      <trkpt lat="45.30241" lon="2.07792">
        <ele>659</ele>
        <time>2012-03-25T09:33:07Z</time>
      </trkpt>
      <trkpt lat="45.30245" lon="2.078">
        <ele>657</ele>
        <time>2012-03-25T09:33:08Z</time>
      </trkpt>
      <trkpt lat="45.30248" lon="2.07808">
        <ele>657</ele>
        <time>2012-03-25T09:33:10Z</time>
      </trkpt>
      <trkpt lat="45.30253" lon="2.07824">
        <ele>657</ele>
        <time>2012-03-25T09:33:11Z</time>
      </trkpt>
      <trkpt lat="45.30255" lon="2.07831">
        <ele>657</ele>
        <time>2012-03-25T09:33:12Z</time>
      </trkpt>
      <trkpt lat="45.30257" lon="2.07839">
        <ele>657</ele>
        <time>2012-03-25T09:33:14Z</time>
      </trkpt>
      <trkpt lat="45.30262" lon="2.07853">
        <ele>656</ele>
        <time>2012-03-25T09:33:15Z</time>
      </trkpt>
      <trkpt lat="45.30265" lon="2.07861">
        <ele>656</ele>
        <time>2012-03-25T09:33:16Z</time>
      </trkpt>
      <trkpt lat="45.30269" lon="2.07866">
        <ele>656</ele>
        <time>2012-03-25T09:33:18Z</time>
      </trkpt>
      <trkpt lat="45.30272" lon="2.07881">
        <ele>657</ele>
        <time>2012-03-25T09:33:19Z</time>
      </trkpt>
      <trkpt lat="45.30275" lon="2.07887">
        <ele>657</ele>
        <time>2012-03-25T09:33:20Z</time>
      </trkpt>
      <trkpt lat="45.30277" lon="2.07894">
        <ele>656</ele>
        <time>2012-03-25T09:33:22Z</time>
      </trkpt>
      <trkpt lat="45.3028" lon="2.07908">
        <ele>657</ele>
        <time>2012-03-25T09:33:23Z</time>
      </trkpt>
      <trkpt lat="45.30282" lon="2.07916">
        <ele>657</ele>
        <time>2012-03-25T09:33:24Z</time>
      </trkpt>
      <trkpt lat="45.30284" lon="2.0792">
        <ele>657</ele>
        <time>2012-03-25T09:33:26Z</time>
      </trkpt>
      <trkpt lat="45.30289" lon="2.07931">
        <ele>657</ele>
        <time>2012-03-25T09:33:27Z</time>
      </trkpt>
      <trkpt lat="45.30291" lon="2.07936">
        <ele>658</ele>
        <time>2012-03-25T09:33:28Z</time>
      </trkpt>
      <trkpt lat="45.30294" lon="2.07942">
        <ele>658</ele>
        <time>2012-03-25T09:33:30Z</time>
      </trkpt>
      <trkpt lat="45.30299" lon="2.07953">
        <ele>659</ele>
        <time>2012-03-25T09:33:31Z</time>
      </trkpt>
      <trkpt lat="45.303" lon="2.07958">
        <ele>659</ele>
        <time>2012-03-25T09:33:32Z</time>
      </trkpt>
      <trkpt lat="45.30303" lon="2.07964">
        <ele>659</ele>
        <time>2012-03-25T09:33:34Z</time>
      </trkpt>
      <trkpt lat="45.30306" lon="2.07976">
        <ele>660</ele>
        <time>2012-03-25T09:33:35Z</time>
      </trkpt>
      <trkpt lat="45.30308" lon="2.07982">
        <ele>660</ele>
        <time>2012-03-25T09:33:36Z</time>
      </trkpt>
      <trkpt lat="45.3031" lon="2.07987">
        <ele>660</ele>
        <time>2012-03-25T09:33:38Z</time>
      </trkpt>
      <trkpt lat="45.30313" lon="2.07996">
        <ele>660</ele>
        <time>2012-03-25T09:33:39Z</time>
      </trkpt>
      <trkpt lat="45.30314" lon="2.08001">
        <ele>660</ele>
        <time>2012-03-25T09:33:40Z</time>
      </trkpt>
      <trkpt lat="45.30315" lon="2.08006">
        <ele>660</ele>
        <time>2012-03-25T09:33:42Z</time>
      </trkpt>
      <trkpt lat="45.30319" lon="2.08016">
        <ele>660</ele>
        <time>2012-03-25T09:33:43Z</time>
      </trkpt>
      <trkpt lat="45.30321" lon="2.08021">
        <ele>660</ele>
        <time>2012-03-25T09:33:44Z</time>
      </trkpt>
      <trkpt lat="45.30322" lon="2.08025">
        <ele>661</ele>
        <time>2012-03-25T09:33:46Z</time>
      </trkpt>
      <trkpt lat="45.30326" lon="2.08033">
        <ele>661</ele>
        <time>2012-03-25T09:33:47Z</time>
      </trkpt>
      <trkpt lat="45.30328" lon="2.08037">
        <ele>661</ele>
        <time>2012-03-25T09:33:48Z</time>
      </trkpt>
      <trkpt lat="45.30329" lon="2.08042">
        <ele>661</ele>
        <time>2012-03-25T09:33:50Z</time>
      </trkpt>
      <trkpt lat="45.30333" lon="2.0805">
        <ele>661</ele>
        <time>2012-03-25T09:33:51Z</time>
      </trkpt>
      <trkpt lat="45.30335" lon="2.08055">
        <ele>661</ele>
        <time>2012-03-25T09:33:52Z</time>
      </trkpt>
      <trkpt lat="45.3034" lon="2.08057">
        <ele>661</ele>
        <time>2012-03-25T09:33:54Z</time>
      </trkpt>
      <trkpt lat="45.30343" lon="2.08062">
        <ele>661</ele>
        <time>2012-03-25T09:33:55Z</time>
      </trkpt>
      <trkpt lat="45.30346" lon="2.08065">
        <ele>661</ele>
        <time>2012-03-25T09:33:56Z</time>
      </trkpt>
      <trkpt lat="45.30349" lon="2.08072">
        <ele>661</ele>
        <time>2012-03-25T09:33:58Z</time>
      </trkpt>
      <trkpt lat="45.30351" lon="2.08078">
        <ele>661</ele>
        <time>2012-03-25T09:33:59Z</time>
      </trkpt>
      <trkpt lat="45.30356" lon="2.08086">
        <ele>662</ele>
        <time>2012-03-25T09:34:00Z</time>
      </trkpt>
      <trkpt lat="45.30359" lon="2.0809">
        <ele>662</ele>
        <time>2012-03-25T09:34:02Z</time>
      </trkpt>
      <trkpt lat="45.30361" lon="2.08094">
        <ele>662</ele>
        <time>2012-03-25T09:34:03Z</time>
      </trkpt>
      <trkpt lat="45.30366" lon="2.08102">
        <ele>663</ele>
        <time>2012-03-25T09:34:04Z</time>
      </trkpt>
      <trkpt lat="45.30369" lon="2.08107">
        <ele>663</ele>
        <time>2012-03-25T09:34:06Z</time>
      </trkpt>
      <trkpt lat="45.30372" lon="2.08111">
        <ele>664</ele>
        <time>2012-03-25T09:34:07Z</time>
      </trkpt>
      <trkpt lat="45.30378" lon="2.08119">
        <ele>664</ele>
        <time>2012-03-25T09:34:08Z</time>
      </trkpt>
      <trkpt lat="45.3038" lon="2.08121">
        <ele>665</ele>
        <time>2012-03-25T09:34:10Z</time>
      </trkpt>
      <trkpt lat="45.30384" lon="2.08124">
        <ele>665</ele>
        <time>2012-03-25T09:34:11Z</time>
      </trkpt>
      <trkpt lat="45.30389" lon="2.08132">
        <ele>665</ele>
        <time>2012-03-25T09:34:12Z</time>
      </trkpt>
      <trkpt lat="45.30395" lon="2.08141">
        <ele>664</ele>
        <time>2012-03-25T09:34:14Z</time>
      </trkpt>
      <trkpt lat="45.30401" lon="2.08148">
        <ele>664</ele>
        <time>2012-03-25T09:34:15Z</time>
      </trkpt>
      <trkpt lat="45.30403" lon="2.08151">
        <ele>664</ele>
        <time>2012-03-25T09:34:16Z</time>
      </trkpt>
      <trkpt lat="45.30408" lon="2.08153">
        <ele>665</ele>
        <time>2012-03-25T09:34:17Z</time>
      </trkpt>
      <trkpt lat="45.3041" lon="2.08155">
        <ele>665</ele>
        <time>2012-03-25T09:34:18Z</time>
      </trkpt>
      <trkpt lat="45.30413" lon="2.08157">
        <ele>666</ele>
        <time>2012-03-25T09:34:19Z</time>
      </trkpt>
      <trkpt lat="45.30415" lon="2.08162">
        <ele>667</ele>
        <time>2012-03-25T09:34:20Z</time>
      </trkpt>
      <trkpt lat="45.30418" lon="2.08165">
        <ele>667</ele>
        <time>2012-03-25T09:34:21Z</time>
      </trkpt>
      <trkpt lat="45.30422" lon="2.08168">
        <ele>668</ele>
        <time>2012-03-25T09:34:22Z</time>
      </trkpt>
      <trkpt lat="45.30424" lon="2.08171">
        <ele>667</ele>
        <time>2012-03-25T09:34:23Z</time>
      </trkpt>
      <trkpt lat="45.30427" lon="2.08173">
        <ele>668</ele>
        <time>2012-03-25T09:34:24Z</time>
      </trkpt>
      <trkpt lat="45.30429" lon="2.08177">
        <ele>668</ele>
        <time>2012-03-25T09:34:25Z</time>
      </trkpt>
      <trkpt lat="45.30433" lon="2.08181">
        <ele>669</ele>
        <time>2012-03-25T09:34:27Z</time>
      </trkpt>
      <trkpt lat="45.30438" lon="2.08189">
        <ele>670</ele>
        <time>2012-03-25T09:34:28Z</time>
      </trkpt>
      <trkpt lat="45.30442" lon="2.08193">
        <ele>670</ele>
        <time>2012-03-25T09:34:29Z</time>
      </trkpt>
      <trkpt lat="45.30445" lon="2.08196">
        <ele>670</ele>
        <time>2012-03-25T09:34:30Z</time>
      </trkpt>
      <trkpt lat="45.30447" lon="2.08201">
        <ele>671</ele>
        <time>2012-03-25T09:34:31Z</time>
      </trkpt>
      <trkpt lat="45.3045" lon="2.08203">
        <ele>671</ele>
        <time>2012-03-25T09:34:32Z</time>
      </trkpt>
      <trkpt lat="45.30453" lon="2.08207">
        <ele>671</ele>
        <time>2012-03-25T09:34:33Z</time>
      </trkpt>
      <trkpt lat="45.30457" lon="2.0821">
        <ele>672</ele>
        <time>2012-03-25T09:34:34Z</time>
      </trkpt>
      <trkpt lat="45.30458" lon="2.08213">
        <ele>672</ele>
        <time>2012-03-25T09:34:35Z</time>
      </trkpt>
      <trkpt lat="45.3046" lon="2.08219">
        <ele>672</ele>
        <time>2012-03-25T09:34:36Z</time>
      </trkpt>
      <trkpt lat="45.30462" lon="2.08225">
        <ele>672</ele>
        <time>2012-03-25T09:34:37Z</time>
      </trkpt>
      <trkpt lat="45.30465" lon="2.08231">
        <ele>673</ele>
        <time>2012-03-25T09:34:38Z</time>
      </trkpt>
      <trkpt lat="45.30466" lon="2.08236">
        <ele>673</ele>
        <time>2012-03-25T09:34:39Z</time>
      </trkpt>
      <trkpt lat="45.30468" lon="2.0824">
        <ele>673</ele>
        <time>2012-03-25T09:34:40Z</time>
      </trkpt>
      <trkpt lat="45.3047" lon="2.08246">
        <ele>673</ele>
        <time>2012-03-25T09:34:41Z</time>
      </trkpt>
      <trkpt lat="45.30472" lon="2.08252">
        <ele>673</ele>
        <time>2012-03-25T09:34:42Z</time>
      </trkpt>
      <trkpt lat="45.30473" lon="2.08258">
        <ele>674</ele>
        <time>2012-03-25T09:34:43Z</time>
      </trkpt>
      <trkpt lat="45.30474" lon="2.08262">
        <ele>674</ele>
        <time>2012-03-25T09:34:44Z</time>
      </trkpt>
      <trkpt lat="45.30475" lon="2.08267">
        <ele>674</ele>
        <time>2012-03-25T09:34:45Z</time>
      </trkpt>
      <trkpt lat="45.30477" lon="2.08273">
        <ele>674</ele>
        <time>2012-03-25T09:34:46Z</time>
      </trkpt>
      <trkpt lat="45.30479" lon="2.08278">
        <ele>673</ele>
        <time>2012-03-25T09:34:47Z</time>
      </trkpt>
      <trkpt lat="45.3048" lon="2.08283">
        <ele>674</ele>
        <time>2012-03-25T09:34:48Z</time>
      </trkpt>
      <trkpt lat="45.30483" lon="2.08289">
        <ele>674</ele>
        <time>2012-03-25T09:34:50Z</time>
      </trkpt>
      <trkpt lat="45.30485" lon="2.08295">
        <ele>673</ele>
        <time>2012-03-25T09:34:51Z</time>
      </trkpt>
      <trkpt lat="45.30486" lon="2.08301">
        <ele>673</ele>
        <time>2012-03-25T09:34:52Z</time>
      </trkpt>
      <trkpt lat="45.30488" lon="2.08307">
        <ele>673</ele>
        <time>2012-03-25T09:34:53Z</time>
      </trkpt>
      <trkpt lat="45.30489" lon="2.08313">
        <ele>673</ele>
        <time>2012-03-25T09:34:54Z</time>
      </trkpt>
      <trkpt lat="45.3049" lon="2.08325">
        <ele>673</ele>
        <time>2012-03-25T09:34:55Z</time>
      </trkpt>
      <trkpt lat="45.3049" lon="2.08331">
        <ele>673</ele>
        <time>2012-03-25T09:34:56Z</time>
      </trkpt>
      <trkpt lat="45.30491" lon="2.08337">
        <ele>673</ele>
        <time>2012-03-25T09:34:58Z</time>
      </trkpt>
      <trkpt lat="45.30491" lon="2.08345">
        <ele>673</ele>
        <time>2012-03-25T09:34:59Z</time>
      </trkpt>
      <trkpt lat="45.30492" lon="2.08351">
        <ele>673</ele>
        <time>2012-03-25T09:35:00Z</time>
      </trkpt>
      <trkpt lat="45.30493" lon="2.08357">
        <ele>673</ele>
        <time>2012-03-25T09:35:02Z</time>
      </trkpt>
      <trkpt lat="45.30494" lon="2.08364">
        <ele>673</ele>
        <time>2012-03-25T09:35:03Z</time>
      </trkpt>
      <trkpt lat="45.30494" lon="2.08376">
        <ele>673</ele>
        <time>2012-03-25T09:35:04Z</time>
      </trkpt>
      <trkpt lat="45.30494" lon="2.08381">
        <ele>673</ele>
        <time>2012-03-25T09:35:06Z</time>
      </trkpt>
      <trkpt lat="45.30493" lon="2.08386">
        <ele>673</ele>
        <time>2012-03-25T09:35:07Z</time>
      </trkpt>
      <trkpt lat="45.30491" lon="2.08395">
        <ele>675</ele>
        <time>2012-03-25T09:35:08Z</time>
      </trkpt>
      <trkpt lat="45.3049" lon="2.08401">
        <ele>675</ele>
        <time>2012-03-25T09:35:10Z</time>
      </trkpt>
      <trkpt lat="45.30489" lon="2.08407">
        <ele>675</ele>
        <time>2012-03-25T09:35:11Z</time>
      </trkpt>
      <trkpt lat="45.30488" lon="2.08419">
        <ele>675</ele>
        <time>2012-03-25T09:35:12Z</time>
      </trkpt>
      <trkpt lat="45.30487" lon="2.08424">
        <ele>674</ele>
        <time>2012-03-25T09:35:14Z</time>
      </trkpt>
      <trkpt lat="45.30485" lon="2.08429">
        <ele>675</ele>
        <time>2012-03-25T09:35:15Z</time>
      </trkpt>
      <trkpt lat="45.30481" lon="2.08439">
        <ele>674</ele>
        <time>2012-03-25T09:35:16Z</time>
      </trkpt>
      <trkpt lat="45.30478" lon="2.08443">
        <ele>675</ele>
        <time>2012-03-25T09:35:18Z</time>
      </trkpt>
      <trkpt lat="45.30471" lon="2.08459">
        <ele>675</ele>
        <time>2012-03-25T09:35:19Z</time>
      </trkpt>
      <trkpt lat="45.3047" lon="2.08465">
        <ele>675</ele>
        <time>2012-03-25T09:35:20Z</time>
      </trkpt>
      <trkpt lat="45.3047" lon="2.08465">
        <ele>675</ele>
        <time>2012-03-25T09:35:22Z</time>
      </trkpt>
      <trkpt lat="45.30466" lon="2.08487">
        <ele>675</ele>
        <time>2012-03-25T09:35:23Z</time>
      </trkpt>
      <trkpt lat="45.30462" lon="2.08492">
        <ele>676</ele>
        <time>2012-03-25T09:35:24Z</time>
      </trkpt>
      <trkpt lat="45.30462" lon="2.08492">
        <ele>676</ele>
        <time>2012-03-25T09:35:26Z</time>
      </trkpt>
      <trkpt lat="45.30458" lon="2.08499">
        <ele>676</ele>
        <time>2012-03-25T09:35:27Z</time>
      </trkpt>
      <trkpt lat="45.3045" lon="2.08519">
        <ele>676</ele>
        <time>2012-03-25T09:35:28Z</time>
      </trkpt>
      <trkpt lat="45.30449" lon="2.08529">
        <ele>676</ele>
        <time>2012-03-25T09:35:30Z</time>
      </trkpt>
      <trkpt lat="45.30446" lon="2.08544">
        <ele>675</ele>
        <time>2012-03-25T09:35:31Z</time>
      </trkpt>
      <trkpt lat="45.30446" lon="2.08551">
        <ele>675</ele>
        <time>2012-03-25T09:35:32Z</time>
      </trkpt>
      <trkpt lat="45.30447" lon="2.0856">
        <ele>675</ele>
        <time>2012-03-25T09:35:34Z</time>
      </trkpt>
      <trkpt lat="45.3045" lon="2.08575">
        <ele>675</ele>
        <time>2012-03-25T09:35:35Z</time>
      </trkpt>
      <trkpt lat="45.30453" lon="2.08581">
        <ele>675</ele>
        <time>2012-03-25T09:35:36Z</time>
      </trkpt>
      <trkpt lat="45.30457" lon="2.08588">
        <ele>675</ele>
        <time>2012-03-25T09:35:38Z</time>
      </trkpt>
      <trkpt lat="45.30463" lon="2.08598">
        <ele>676</ele>
        <time>2012-03-25T09:35:39Z</time>
      </trkpt>
      <trkpt lat="45.30467" lon="2.08601">
        <ele>675</ele>
        <time>2012-03-25T09:35:40Z</time>
      </trkpt>
      <trkpt lat="45.30472" lon="2.08605">
        <ele>675</ele>
        <time>2012-03-25T09:35:42Z</time>
      </trkpt>
      <trkpt lat="45.30481" lon="2.08615">
        <ele>676</ele>
        <time>2012-03-25T09:35:43Z</time>
      </trkpt>
      <trkpt lat="45.30484" lon="2.08619">
        <ele>675</ele>
        <time>2012-03-25T09:35:44Z</time>
      </trkpt>
      <trkpt lat="45.30488" lon="2.08622">
        <ele>676</ele>
        <time>2012-03-25T09:35:46Z</time>
      </trkpt>
      <trkpt lat="45.30493" lon="2.08631">
        <ele>677</ele>
        <time>2012-03-25T09:35:47Z</time>
      </trkpt>
      <trkpt lat="45.30497" lon="2.08637">
        <ele>677</ele>
        <time>2012-03-25T09:35:48Z</time>
      </trkpt>
      <trkpt lat="45.30499" lon="2.08643">
        <ele>677</ele>
        <time>2012-03-25T09:35:50Z</time>
      </trkpt>
      <trkpt lat="45.30503" lon="2.08655">
        <ele>678</ele>
        <time>2012-03-25T09:35:51Z</time>
      </trkpt>
      <trkpt lat="45.30504" lon="2.08661">
        <ele>679</ele>
        <time>2012-03-25T09:35:52Z</time>
      </trkpt>
      <trkpt lat="45.30506" lon="2.08668">
        <ele>679</ele>
        <time>2012-03-25T09:35:54Z</time>
      </trkpt>
      <trkpt lat="45.30508" lon="2.08682">
        <ele>679</ele>
        <time>2012-03-25T09:35:55Z</time>
      </trkpt>
      <trkpt lat="45.30507" lon="2.08688">
        <ele>680</ele>
        <time>2012-03-25T09:35:56Z</time>
      </trkpt>
      <trkpt lat="45.30507" lon="2.08694">
        <ele>681</ele>
        <time>2012-03-25T09:35:58Z</time>
      </trkpt>
      <trkpt lat="45.30506" lon="2.08706">
        <ele>681</ele>
        <time>2012-03-25T09:35:59Z</time>
      </trkpt>
      <trkpt lat="45.30505" lon="2.08712">
        <ele>681</ele>
        <time>2012-03-25T09:36:00Z</time>
      </trkpt>
      <trkpt lat="45.30504" lon="2.08717">
        <ele>681</ele>
        <time>2012-03-25T09:36:02Z</time>
      </trkpt>
      <trkpt lat="45.30501" lon="2.08727">
        <ele>681</ele>
        <time>2012-03-25T09:36:03Z</time>
      </trkpt>
      <trkpt lat="45.305" lon="2.08734">
        <ele>682</ele>
        <time>2012-03-25T09:36:04Z</time>
      </trkpt>
      <trkpt lat="45.30498" lon="2.08741">
        <ele>682</ele>
        <time>2012-03-25T09:36:06Z</time>
      </trkpt>
      <trkpt lat="45.30497" lon="2.08753">
        <ele>682</ele>
        <time>2012-03-25T09:36:07Z</time>
      </trkpt>
      <trkpt lat="45.30498" lon="2.0876">
        <ele>681</ele>
        <time>2012-03-25T09:36:08Z</time>
      </trkpt>
      <trkpt lat="45.30497" lon="2.08768">
        <ele>681</ele>
        <time>2012-03-25T09:36:10Z</time>
      </trkpt>
      <trkpt lat="45.30497" lon="2.08781">
        <ele>681</ele>
        <time>2012-03-25T09:36:11Z</time>
      </trkpt>
      <trkpt lat="45.30497" lon="2.08787">
        <ele>681</ele>
        <time>2012-03-25T09:36:12Z</time>
      </trkpt>
      <trkpt lat="45.30499" lon="2.08793">
        <ele>682</ele>
        <time>2012-03-25T09:36:14Z</time>
      </trkpt>
      <trkpt lat="45.30502" lon="2.08805">
        <ele>682</ele>
        <time>2012-03-25T09:36:15Z</time>
      </trkpt>
      <trkpt lat="45.30505" lon="2.08811">
        <ele>682</ele>
        <time>2012-03-25T09:36:16Z</time>
      </trkpt>
      <trkpt lat="45.30508" lon="2.08816">
        <ele>683</ele>
        <time>2012-03-25T09:36:18Z</time>
      </trkpt>
      <trkpt lat="45.30512" lon="2.08825">
        <ele>684</ele>
        <time>2012-03-25T09:36:19Z</time>
      </trkpt>
      <trkpt lat="45.30515" lon="2.08829">
        <ele>684</ele>
        <time>2012-03-25T09:36:20Z</time>
      </trkpt>
      <trkpt lat="45.30518" lon="2.08834">
        <ele>684</ele>
        <time>2012-03-25T09:36:22Z</time>
      </trkpt>
      <trkpt lat="45.30524" lon="2.08844">
        <ele>685</ele>
        <time>2012-03-25T09:36:23Z</time>
      </trkpt>
      <trkpt lat="45.30528" lon="2.08849">
        <ele>684</ele>
        <time>2012-03-25T09:36:24Z</time>
      </trkpt>
      <trkpt lat="45.30531" lon="2.08854">
        <ele>684</ele>
        <time>2012-03-25T09:36:26Z</time>
      </trkpt>
      <trkpt lat="45.30537" lon="2.08867">
        <ele>684</ele>
        <time>2012-03-25T09:36:27Z</time>
      </trkpt>
      <trkpt lat="45.30541" lon="2.08873">
        <ele>685</ele>
        <time>2012-03-25T09:36:28Z</time>
      </trkpt>
      <trkpt lat="45.30543" lon="2.08878">
        <ele>685</ele>
        <time>2012-03-25T09:36:30Z</time>
      </trkpt>
      <trkpt lat="45.30547" lon="2.08891">
        <ele>685</ele>
        <time>2012-03-25T09:36:31Z</time>
      </trkpt>
      <trkpt lat="45.30549" lon="2.08897">
        <ele>686</ele>
        <time>2012-03-25T09:36:32Z</time>
      </trkpt>
      <trkpt lat="45.30549" lon="2.08904">
        <ele>685</ele>
        <time>2012-03-25T09:36:34Z</time>
      </trkpt>
      <trkpt lat="45.30551" lon="2.08918">
        <ele>685</ele>
        <time>2012-03-25T09:36:35Z</time>
      </trkpt>
      <trkpt lat="45.30551" lon="2.08925">
        <ele>685</ele>
        <time>2012-03-25T09:36:36Z</time>
      </trkpt>
      <trkpt lat="45.30552" lon="2.08931">
        <ele>685</ele>
        <time>2012-03-25T09:36:38Z</time>
      </trkpt>
      <trkpt lat="45.30555" lon="2.08945">
        <ele>686</ele>
        <time>2012-03-25T09:36:39Z</time>
      </trkpt>
      <trkpt lat="45.30557" lon="2.08952">
        <ele>687</ele>
        <time>2012-03-25T09:36:40Z</time>
      </trkpt>
      <trkpt lat="45.30558" lon="2.08958">
        <ele>686</ele>
        <time>2012-03-25T09:36:42Z</time>
      </trkpt>
      <trkpt lat="45.30563" lon="2.08973">
        <ele>686</ele>
        <time>2012-03-25T09:36:43Z</time>
      </trkpt>
      <trkpt lat="45.30565" lon="2.08978">
        <ele>685</ele>
        <time>2012-03-25T09:36:44Z</time>
      </trkpt>
      <trkpt lat="45.30568" lon="2.08985">
        <ele>686</ele>
        <time>2012-03-25T09:36:46Z</time>
      </trkpt>
      <trkpt lat="45.30573" lon="2.08996">
        <ele>687</ele>
        <time>2012-03-25T09:36:47Z</time>
      </trkpt>
      <trkpt lat="45.30576" lon="2.09002">
        <ele>687</ele>
        <time>2012-03-25T09:36:48Z</time>
      </trkpt>
      <trkpt lat="45.30579" lon="2.09009">
        <ele>687</ele>
        <time>2012-03-25T09:36:50Z</time>
      </trkpt>
      <trkpt lat="45.30585" lon="2.09018">
        <ele>688</ele>
        <time>2012-03-25T09:36:51Z</time>
      </trkpt>
      <trkpt lat="45.30588" lon="2.09024">
        <ele>688</ele>
        <time>2012-03-25T09:36:52Z</time>
      </trkpt>
      <trkpt lat="45.3059" lon="2.0903">
        <ele>688</ele>
        <time>2012-03-25T09:36:54Z</time>
      </trkpt>
      <trkpt lat="45.30597" lon="2.09039">
        <ele>688</ele>
        <time>2012-03-25T09:36:55Z</time>
      </trkpt>
      <trkpt lat="45.30599" lon="2.09043">
        <ele>688</ele>
        <time>2012-03-25T09:36:56Z</time>
      </trkpt>
      <trkpt lat="45.30602" lon="2.09048">
        <ele>689</ele>
        <time>2012-03-25T09:36:58Z</time>
      </trkpt>
      <trkpt lat="45.30608" lon="2.09059">
        <ele>689</ele>
        <time>2012-03-25T09:36:59Z</time>
      </trkpt>
      <trkpt lat="45.30612" lon="2.09065">
        <ele>689</ele>
        <time>2012-03-25T09:37:00Z</time>
      </trkpt>
      <trkpt lat="45.30616" lon="2.09071">
        <ele>689</ele>
        <time>2012-03-25T09:37:02Z</time>
      </trkpt>
      <trkpt lat="45.30623" lon="2.09081">
        <ele>689</ele>
        <time>2012-03-25T09:37:03Z</time>
      </trkpt>
      <trkpt lat="45.30627" lon="2.09086">
        <ele>689</ele>
        <time>2012-03-25T09:37:04Z</time>
      </trkpt>
      <trkpt lat="45.30631" lon="2.09091">
        <ele>689</ele>
        <time>2012-03-25T09:37:06Z</time>
      </trkpt>
      <trkpt lat="45.30641" lon="2.09096">
        <ele>689</ele>
        <time>2012-03-25T09:37:07Z</time>
      </trkpt>
      <trkpt lat="45.30646" lon="2.091">
        <ele>689</ele>
        <time>2012-03-25T09:37:08Z</time>
      </trkpt>
      <trkpt lat="45.3065" lon="2.09102">
        <ele>689</ele>
        <time>2012-03-25T09:37:10Z</time>
      </trkpt>
      <trkpt lat="45.30659" lon="2.09108">
        <ele>690</ele>
        <time>2012-03-25T09:37:11Z</time>
      </trkpt>
      <trkpt lat="45.30663" lon="2.09114">
        <ele>690</ele>
        <time>2012-03-25T09:37:12Z</time>
      </trkpt>
      <trkpt lat="45.30668" lon="2.09116">
        <ele>689</ele>
        <time>2012-03-25T09:37:14Z</time>
      </trkpt>
      <trkpt lat="45.30676" lon="2.09124">
        <ele>689</ele>
        <time>2012-03-25T09:37:15Z</time>
      </trkpt>
      <trkpt lat="45.3068" lon="2.09128">
        <ele>689</ele>
        <time>2012-03-25T09:37:16Z</time>
      </trkpt>
      <trkpt lat="45.30683" lon="2.09133">
        <ele>689</ele>
        <time>2012-03-25T09:37:18Z</time>
      </trkpt>
      <trkpt lat="45.30688" lon="2.09144">
        <ele>691</ele>
        <time>2012-03-25T09:37:19Z</time>
      </trkpt>
      <trkpt lat="45.30692" lon="2.09149">
        <ele>690</ele>
        <time>2012-03-25T09:37:20Z</time>
      </trkpt>
      <trkpt lat="45.30695" lon="2.09156">
        <ele>691</ele>
        <time>2012-03-25T09:37:22Z</time>
      </trkpt>
      <trkpt lat="45.30702" lon="2.09168">
        <ele>692</ele>
        <time>2012-03-25T09:37:23Z</time>
      </trkpt>
      <trkpt lat="45.30704" lon="2.09177">
        <ele>692</ele>
        <time>2012-03-25T09:37:24Z</time>
      </trkpt>
      <trkpt lat="45.30707" lon="2.09188">
        <ele>692</ele>
        <time>2012-03-25T09:37:26Z</time>
      </trkpt>
      <trkpt lat="45.30709" lon="2.09208">
        <ele>693</ele>
        <time>2012-03-25T09:37:27Z</time>
      </trkpt>
      <trkpt lat="45.30711" lon="2.09217">
        <ele>693</ele>
        <time>2012-03-25T09:37:28Z</time>
      </trkpt>
      <trkpt lat="45.30712" lon="2.09227">
        <ele>694</ele>
        <time>2012-03-25T09:37:30Z</time>
      </trkpt>
      <trkpt lat="45.30718" lon="2.09248">
        <ele>694</ele>
        <time>2012-03-25T09:37:31Z</time>
      </trkpt>
      <trkpt lat="45.30723" lon="2.09256">
        <ele>694</ele>
        <time>2012-03-25T09:37:32Z</time>
      </trkpt>
      <trkpt lat="45.30727" lon="2.09264">
        <ele>694</ele>
        <time>2012-03-25T09:37:34Z</time>
      </trkpt>
      <trkpt lat="45.3074" lon="2.09284">
        <ele>695</ele>
        <time>2012-03-25T09:37:35Z</time>
      </trkpt>
      <trkpt lat="45.30747" lon="2.09292">
        <ele>694</ele>
        <time>2012-03-25T09:37:36Z</time>
      </trkpt>
      <trkpt lat="45.30754" lon="2.09298">
        <ele>695</ele>
        <time>2012-03-25T09:37:38Z</time>
      </trkpt>
      <trkpt lat="45.30767" lon="2.09311">
        <ele>696</ele>
        <time>2012-03-25T09:37:39Z</time>
      </trkpt>
      <trkpt lat="45.30774" lon="2.09316">
        <ele>695</ele>
        <time>2012-03-25T09:37:40Z</time>
      </trkpt>
      <trkpt lat="45.30781" lon="2.09326">
        <ele>694</ele>
        <time>2012-03-25T09:37:42Z</time>
      </trkpt>
      <trkpt lat="45.30793" lon="2.09345">
        <ele>694</ele>
        <time>2012-03-25T09:37:43Z</time>
      </trkpt>
      <trkpt lat="45.308" lon="2.09356">
        <ele>694</ele>
        <time>2012-03-25T09:37:44Z</time>
      </trkpt>
      <trkpt lat="45.30806" lon="2.09364">
        <ele>694</ele>
        <time>2012-03-25T09:37:46Z</time>
      </trkpt>
      <trkpt lat="45.30818" lon="2.09383">
        <ele>693</ele>
        <time>2012-03-25T09:37:47Z</time>
      </trkpt>
      <trkpt lat="45.30825" lon="2.09394">
        <ele>693</ele>
        <time>2012-03-25T09:37:48Z</time>
      </trkpt>
      <trkpt lat="45.30831" lon="2.09405">
        <ele>693</ele>
        <time>2012-03-25T09:37:50Z</time>
      </trkpt>
      <trkpt lat="45.30846" lon="2.0943">
        <ele>693</ele>
        <time>2012-03-25T09:37:51Z</time>
      </trkpt>
      <trkpt lat="45.30854" lon="2.09438">
        <ele>692</ele>
        <time>2012-03-25T09:37:52Z</time>
      </trkpt>
      <trkpt lat="45.3086" lon="2.0945">
        <ele>692</ele>
        <time>2012-03-25T09:37:54Z</time>
      </trkpt>
      <trkpt lat="45.30874" lon="2.09475">
        <ele>690</ele>
        <time>2012-03-25T09:37:55Z</time>
      </trkpt>
      <trkpt lat="45.30882" lon="2.09485">
        <ele>689</ele>
        <time>2012-03-25T09:37:56Z</time>
      </trkpt>
      <trkpt lat="45.30888" lon="2.09497">
        <ele>689</ele>
        <time>2012-03-25T09:37:58Z</time>
      </trkpt>
      <trkpt lat="45.30901" lon="2.09517">
        <ele>690</ele>
        <time>2012-03-25T09:37:59Z</time>
      </trkpt>
      <trkpt lat="45.30907" lon="2.09528">
        <ele>690</ele>
        <time>2012-03-25T09:38:00Z</time>
      </trkpt>
      <trkpt lat="45.30915" lon="2.09537">
        <ele>689</ele>
        <time>2012-03-25T09:38:02Z</time>
      </trkpt>
      <trkpt lat="45.30926" lon="2.09554">
        <ele>688</ele>
        <time>2012-03-25T09:38:03Z</time>
      </trkpt>
      <trkpt lat="45.3093" lon="2.09562">
        <ele>689</ele>
        <time>2012-03-25T09:38:04Z</time>
      </trkpt>
      <trkpt lat="45.30934" lon="2.09571">
        <ele>689</ele>
        <time>2012-03-25T09:38:06Z</time>
      </trkpt>
      <trkpt lat="45.30943" lon="2.09589">
        <ele>689</ele>
        <time>2012-03-25T09:38:07Z</time>
      </trkpt>
      <trkpt lat="45.30948" lon="2.09599">
        <ele>689</ele>
        <time>2012-03-25T09:38:08Z</time>
      </trkpt>
      <trkpt lat="45.30953" lon="2.09609">
        <ele>689</ele>
        <time>2012-03-25T09:38:10Z</time>
      </trkpt>
      <trkpt lat="45.30965" lon="2.09623">
        <ele>688</ele>
        <time>2012-03-25T09:38:11Z</time>
      </trkpt>
      <trkpt lat="45.30971" lon="2.09632">
        <ele>688</ele>
        <time>2012-03-25T09:38:12Z</time>
      </trkpt>
      <trkpt lat="45.30977" lon="2.09641">
        <ele>687</ele>
        <time>2012-03-25T09:38:14Z</time>
      </trkpt>
      <trkpt lat="45.3099" lon="2.0966">
        <ele>687</ele>
        <time>2012-03-25T09:38:15Z</time>
      </trkpt>
      <trkpt lat="45.30997" lon="2.09669">
        <ele>687</ele>
        <time>2012-03-25T09:38:16Z</time>
      </trkpt>
      <trkpt lat="45.31002" lon="2.0968">
        <ele>686</ele>
        <time>2012-03-25T09:38:18Z</time>
      </trkpt>
      <trkpt lat="45.31014" lon="2.09694">
        <ele>686</ele>
        <time>2012-03-25T09:38:19Z</time>
      </trkpt>
      <trkpt lat="45.31019" lon="2.09705">
        <ele>687</ele>
        <time>2012-03-25T09:38:20Z</time>
      </trkpt>
      <trkpt lat="45.31026" lon="2.09713">
        <ele>685</ele>
        <time>2012-03-25T09:38:22Z</time>
      </trkpt>
      <trkpt lat="45.31036" lon="2.09729">
        <ele>683</ele>
        <time>2012-03-25T09:38:23Z</time>
      </trkpt>
      <trkpt lat="45.31041" lon="2.09734">
        <ele>683</ele>
        <time>2012-03-25T09:38:24Z</time>
      </trkpt>
      <trkpt lat="45.31045" lon="2.0974">
        <ele>683</ele>
        <time>2012-03-25T09:38:26Z</time>
      </trkpt>
      <trkpt lat="45.31054" lon="2.09753">
        <ele>682</ele>
        <time>2012-03-25T09:38:27Z</time>
      </trkpt>
      <trkpt lat="45.31059" lon="2.09757">
        <ele>682</ele>
        <time>2012-03-25T09:38:28Z</time>
      </trkpt>
      <trkpt lat="45.31064" lon="2.09765">
        <ele>682</ele>
        <time>2012-03-25T09:38:30Z</time>
      </trkpt>
      <trkpt lat="45.31072" lon="2.09776">
        <ele>682</ele>
        <time>2012-03-25T09:38:31Z</time>
      </trkpt>
      <trkpt lat="45.31076" lon="2.09779">
        <ele>681</ele>
        <time>2012-03-25T09:38:32Z</time>
      </trkpt>
      <trkpt lat="45.31079" lon="2.09784">
        <ele>681</ele>
        <time>2012-03-25T09:38:34Z</time>
      </trkpt>
      <trkpt lat="45.31086" lon="2.09793">
        <ele>681</ele>
        <time>2012-03-25T09:38:35Z</time>
      </trkpt>
      <trkpt lat="45.31089" lon="2.098">
        <ele>681</ele>
        <time>2012-03-25T09:38:36Z</time>
      </trkpt>
      <trkpt lat="45.31092" lon="2.09806">
        <ele>681</ele>
        <time>2012-03-25T09:38:38Z</time>
      </trkpt>
      <trkpt lat="45.31098" lon="2.09815">
        <ele>680</ele>
        <time>2012-03-25T09:38:39Z</time>
      </trkpt>
      <trkpt lat="45.31101" lon="2.09821">
        <ele>679</ele>
        <time>2012-03-25T09:38:40Z</time>
      </trkpt>
      <trkpt lat="45.31105" lon="2.09825">
        <ele>680</ele>
        <time>2012-03-25T09:38:42Z</time>
      </trkpt>
      <trkpt lat="45.31109" lon="2.09838">
        <ele>680</ele>
        <time>2012-03-25T09:38:43Z</time>
      </trkpt>
      <trkpt lat="45.31112" lon="2.09845">
        <ele>680</ele>
        <time>2012-03-25T09:38:44Z</time>
      </trkpt>
      <trkpt lat="45.31114" lon="2.09851">
        <ele>680</ele>
        <time>2012-03-25T09:38:46Z</time>
      </trkpt>
      <trkpt lat="45.31117" lon="2.09865">
        <ele>680</ele>
        <time>2012-03-25T09:38:47Z</time>
      </trkpt>
      <trkpt lat="45.31119" lon="2.09873">
        <ele>680</ele>
        <time>2012-03-25T09:38:48Z</time>
      </trkpt>
      <trkpt lat="45.31121" lon="2.09881">
        <ele>679</ele>
        <time>2012-03-25T09:38:50Z</time>
      </trkpt>
      <trkpt lat="45.31123" lon="2.09895">
        <ele>679</ele>
        <time>2012-03-25T09:38:51Z</time>
      </trkpt>
      <trkpt lat="45.31124" lon="2.09904">
        <ele>679</ele>
        <time>2012-03-25T09:38:52Z</time>
      </trkpt>
      <trkpt lat="45.31125" lon="2.09911">
        <ele>679</ele>
        <time>2012-03-25T09:38:54Z</time>
      </trkpt>
      <trkpt lat="45.31128" lon="2.09931">
        <ele>679</ele>
        <time>2012-03-25T09:38:55Z</time>
      </trkpt>
      <trkpt lat="45.3113" lon="2.0994">
        <ele>679</ele>
        <time>2012-03-25T09:38:56Z</time>
      </trkpt>
      <trkpt lat="45.31132" lon="2.09947">
        <ele>680</ele>
        <time>2012-03-25T09:38:58Z</time>
      </trkpt>
      <trkpt lat="45.31137" lon="2.09966">
        <ele>679</ele>
        <time>2012-03-25T09:38:59Z</time>
      </trkpt>
      <trkpt lat="45.31139" lon="2.09975">
        <ele>678</ele>
        <time>2012-03-25T09:39:00Z</time>
      </trkpt>
      <trkpt lat="45.31142" lon="2.09984">
        <ele>677</ele>
        <time>2012-03-25T09:39:02Z</time>
      </trkpt>
      <trkpt lat="45.31146" lon="2.09999">
        <ele>677</ele>
        <time>2012-03-25T09:39:03Z</time>
      </trkpt>
      <trkpt lat="45.31149" lon="2.10006">
        <ele>677</ele>
        <time>2012-03-25T09:39:04Z</time>
      </trkpt>
      <trkpt lat="45.31151" lon="2.10015">
        <ele>677</ele>
        <time>2012-03-25T09:39:06Z</time>
      </trkpt>
      <trkpt lat="45.31154" lon="2.10032">
        <ele>678</ele>
        <time>2012-03-25T09:39:07Z</time>
      </trkpt>
      <trkpt lat="45.31157" lon="2.10041">
        <ele>679</ele>
        <time>2012-03-25T09:39:08Z</time>
      </trkpt>
      <trkpt lat="45.31158" lon="2.10049">
        <ele>680</ele>
        <time>2012-03-25T09:39:09Z</time>
      </trkpt>
      <trkpt lat="45.3116" lon="2.1006">
        <ele>680</ele>
        <time>2012-03-25T09:39:10Z</time>
      </trkpt>
      <trkpt lat="45.31162" lon="2.1007">
        <ele>679</ele>
        <time>2012-03-25T09:39:11Z</time>
      </trkpt>
      <trkpt lat="45.31163" lon="2.10079">
        <ele>679</ele>
        <time>2012-03-25T09:39:12Z</time>
      </trkpt>
      <trkpt lat="45.31165" lon="2.10087">
        <ele>679</ele>
        <time>2012-03-25T09:39:13Z</time>
      </trkpt>
      <trkpt lat="45.31167" lon="2.10097">
        <ele>678</ele>
        <time>2012-03-25T09:39:14Z</time>
      </trkpt>
      <trkpt lat="45.31169" lon="2.10107">
        <ele>678</ele>
        <time>2012-03-25T09:39:15Z</time>
      </trkpt>
      <trkpt lat="45.31171" lon="2.10116">
        <ele>679</ele>
        <time>2012-03-25T09:39:16Z</time>
      </trkpt>
      <trkpt lat="45.31175" lon="2.10126">
        <ele>679</ele>
        <time>2012-03-25T09:39:17Z</time>
      </trkpt>
      <trkpt lat="45.31179" lon="2.10133">
        <ele>679</ele>
        <time>2012-03-25T09:39:18Z</time>
      </trkpt>
      <trkpt lat="45.31184" lon="2.10139">
        <ele>678</ele>
        <time>2012-03-25T09:39:19Z</time>
      </trkpt>
      <trkpt lat="45.3119" lon="2.10145">
        <ele>678</ele>
        <time>2012-03-25T09:39:20Z</time>
      </trkpt>
      <trkpt lat="45.31197" lon="2.10147">
        <ele>677</ele>
        <time>2012-03-25T09:39:21Z</time>
      </trkpt>
      <trkpt lat="45.31204" lon="2.10148">
        <ele>677</ele>
        <time>2012-03-25T09:39:22Z</time>
      </trkpt>
      <trkpt lat="45.31214" lon="2.1015">
        <ele>678</ele>
        <time>2012-03-25T09:39:23Z</time>
      </trkpt>
      <trkpt lat="45.31221" lon="2.1015">
        <ele>678</ele>
        <time>2012-03-25T09:39:24Z</time>
      </trkpt>
      <trkpt lat="45.31228" lon="2.10147">
        <ele>678</ele>
        <time>2012-03-25T09:39:25Z</time>
      </trkpt>
      <trkpt lat="45.31235" lon="2.10144">
        <ele>678</ele>
        <time>2012-03-25T09:39:26Z</time>
      </trkpt>
      <trkpt lat="45.31244" lon="2.10144">
        <ele>678</ele>
        <time>2012-03-25T09:39:27Z</time>
      </trkpt>
      <trkpt lat="45.31252" lon="2.10146">
        <ele>678</ele>
        <time>2012-03-25T09:39:28Z</time>
      </trkpt>
      <trkpt lat="45.3126" lon="2.1015">
        <ele>678</ele>
        <time>2012-03-25T09:39:29Z</time>
      </trkpt>
      <trkpt lat="45.31269" lon="2.1015">
        <ele>678</ele>
        <time>2012-03-25T09:39:31Z</time>
      </trkpt>
      <trkpt lat="45.31277" lon="2.10153">
        <ele>678</ele>
        <time>2012-03-25T09:39:32Z</time>
      </trkpt>
      <trkpt lat="45.31285" lon="2.10155">
        <ele>678</ele>
        <time>2012-03-25T09:39:33Z</time>
      </trkpt>
      <trkpt lat="45.31294" lon="2.10155">
        <ele>678</ele>
        <time>2012-03-25T09:39:34Z</time>
      </trkpt>
      <trkpt lat="45.3131" lon="2.10169">
        <ele>678</ele>
        <time>2012-03-25T09:39:35Z</time>
      </trkpt>
      <trkpt lat="45.31316" lon="2.10175">
        <ele>678</ele>
        <time>2012-03-25T09:39:36Z</time>
      </trkpt>
      <trkpt lat="45.31322" lon="2.10184">
        <ele>678</ele>
        <time>2012-03-25T09:39:37Z</time>
      </trkpt>
      <trkpt lat="45.31323" lon="2.10204">
        <ele>678</ele>
        <time>2012-03-25T09:39:38Z</time>
      </trkpt>
      <trkpt lat="45.31325" lon="2.10218">
        <ele>678</ele>
        <time>2012-03-25T09:39:40Z</time>
      </trkpt>
      <trkpt lat="45.31326" lon="2.10244">
        <ele>677</ele>
        <time>2012-03-25T09:39:41Z</time>
      </trkpt>
      <trkpt lat="45.31326" lon="2.10261">
        <ele>676</ele>
        <time>2012-03-25T09:39:42Z</time>
      </trkpt>
      <trkpt lat="45.31326" lon="2.10272">
        <ele>675</ele>
        <time>2012-03-25T09:39:44Z</time>
      </trkpt>
      <trkpt lat="45.31332" lon="2.10299">
        <ele>674</ele>
        <time>2012-03-25T09:39:45Z</time>
      </trkpt>
      <trkpt lat="45.31334" lon="2.10311">
        <ele>673</ele>
        <time>2012-03-25T09:39:46Z</time>
      </trkpt>
      <trkpt lat="45.3134" lon="2.10323">
        <ele>673</ele>
        <time>2012-03-25T09:39:48Z</time>
      </trkpt>
      <trkpt lat="45.31348" lon="2.1035">
        <ele>672</ele>
        <time>2012-03-25T09:39:49Z</time>
      </trkpt>
      <trkpt lat="45.3135" lon="2.10364">
        <ele>671</ele>
        <time>2012-03-25T09:39:50Z</time>
      </trkpt>
      <trkpt lat="45.31351" lon="2.10377">
        <ele>671</ele>
        <time>2012-03-25T09:39:52Z</time>
      </trkpt>
      <trkpt lat="45.31351" lon="2.10404">
        <ele>671</ele>
        <time>2012-03-25T09:39:53Z</time>
      </trkpt>
      <trkpt lat="45.31351" lon="2.10416">
        <ele>671</ele>
        <time>2012-03-25T09:39:54Z</time>
      </trkpt>
      <trkpt lat="45.31352" lon="2.10429">
        <ele>671</ele>
        <time>2012-03-25T09:39:56Z</time>
      </trkpt>
      <trkpt lat="45.31358" lon="2.10453">
        <ele>670</ele>
        <time>2012-03-25T09:39:57Z</time>
      </trkpt>
      <trkpt lat="45.31362" lon="2.10462">
        <ele>670</ele>
        <time>2012-03-25T09:39:58Z</time>
      </trkpt>
      <trkpt lat="45.31368" lon="2.10469">
        <ele>670</ele>
        <time>2012-03-25T09:40:00Z</time>
      </trkpt>
      <trkpt lat="45.31383" lon="2.10479">
        <ele>669</ele>
        <time>2012-03-25T09:40:01Z</time>
      </trkpt>
      <trkpt lat="45.31391" lon="2.10483">
        <ele>669</ele>
        <time>2012-03-25T09:40:02Z</time>
      </trkpt>
      <trkpt lat="45.314" lon="2.10485">
        <ele>668</ele>
        <time>2012-03-25T09:40:04Z</time>
      </trkpt>
      <trkpt lat="45.3142" lon="2.10488">
        <ele>668</ele>
        <time>2012-03-25T09:40:05Z</time>
      </trkpt>
      <trkpt lat="45.31426" lon="2.1049">
        <ele>668</ele>
        <time>2012-03-25T09:40:06Z</time>
      </trkpt>
      <trkpt lat="45.31435" lon="2.10491">
        <ele>668</ele>
        <time>2012-03-25T09:40:08Z</time>
      </trkpt>
      <trkpt lat="45.3145" lon="2.10491">
        <ele>668</ele>
        <time>2012-03-25T09:40:09Z</time>
      </trkpt>
      <trkpt lat="45.31459" lon="2.10492">
        <ele>668</ele>
        <time>2012-03-25T09:40:10Z</time>
      </trkpt>
      <trkpt lat="45.31467" lon="2.10488">
        <ele>668</ele>
        <time>2012-03-25T09:40:12Z</time>
      </trkpt>
      <trkpt lat="45.31484" lon="2.10489">
        <ele>668</ele>
        <time>2012-03-25T09:40:13Z</time>
      </trkpt>
      <trkpt lat="45.31492" lon="2.1049">
        <ele>668</ele>
        <time>2012-03-25T09:40:14Z</time>
      </trkpt>
      <trkpt lat="45.315" lon="2.10497">
        <ele>668</ele>
        <time>2012-03-25T09:40:16Z</time>
      </trkpt>
      <trkpt lat="45.31512" lon="2.10507">
        <ele>668</ele>
        <time>2012-03-25T09:40:17Z</time>
      </trkpt>
      <trkpt lat="45.31517" lon="2.10514">
        <ele>668</ele>
        <time>2012-03-25T09:40:18Z</time>
      </trkpt>
      <trkpt lat="45.3152" lon="2.10523">
        <ele>668</ele>
        <time>2012-03-25T09:40:20Z</time>
      </trkpt>
      <trkpt lat="45.31524" lon="2.10537">
        <ele>669</ele>
        <time>2012-03-25T09:40:21Z</time>
      </trkpt>
      <trkpt lat="45.31525" lon="2.10545">
        <ele>669</ele>
        <time>2012-03-25T09:40:22Z</time>
      </trkpt>
      <trkpt lat="45.31525" lon="2.10555">
        <ele>669</ele>
        <time>2012-03-25T09:40:24Z</time>
      </trkpt>
      <trkpt lat="45.31526" lon="2.10566">
        <ele>669</ele>
        <time>2012-03-25T09:40:25Z</time>
      </trkpt>
      <trkpt lat="45.31526" lon="2.10573">
        <ele>669</ele>
        <time>2012-03-25T09:40:26Z</time>
      </trkpt>
      <trkpt lat="45.31527" lon="2.1058">
        <ele>669</ele>
        <time>2012-03-25T09:40:28Z</time>
      </trkpt>
      <trkpt lat="45.31528" lon="2.10594">
        <ele>669</ele>
        <time>2012-03-25T09:40:29Z</time>
      </trkpt>
      <trkpt lat="45.31529" lon="2.106">
        <ele>669</ele>
        <time>2012-03-25T09:40:30Z</time>
      </trkpt>
      <trkpt lat="45.31529" lon="2.10606">
        <ele>669</ele>
        <time>2012-03-25T09:40:32Z</time>
      </trkpt>
      <trkpt lat="45.3153" lon="2.10622">
        <ele>669</ele>
        <time>2012-03-25T09:40:33Z</time>
      </trkpt>
      <trkpt lat="45.3153" lon="2.1063">
        <ele>669</ele>
        <time>2012-03-25T09:40:34Z</time>
      </trkpt>
      <trkpt lat="45.3153" lon="2.1063">
        <ele>669</ele>
        <time>2012-03-25T09:40:36Z</time>
      </trkpt>
      <trkpt lat="45.3153" lon="2.10637">
        <ele>669</ele>
        <time>2012-03-25T09:40:37Z</time>
      </trkpt>
      <trkpt lat="45.3153" lon="2.10656">
        <ele>669</ele>
        <time>2012-03-25T09:40:38Z</time>
      </trkpt>
      <trkpt lat="45.3153" lon="2.10662">
        <ele>669</ele>
        <time>2012-03-25T09:40:40Z</time>
      </trkpt>
      <trkpt lat="45.31532" lon="2.10673">
        <ele>668</ele>
        <time>2012-03-25T09:40:41Z</time>
      </trkpt>
      <trkpt lat="45.31532" lon="2.10678">
        <ele>668</ele>
        <time>2012-03-25T09:40:42Z</time>
      </trkpt>
      <trkpt lat="45.31533" lon="2.10686">
        <ele>667</ele>
        <time>2012-03-25T09:40:44Z</time>
      </trkpt>
      <trkpt lat="45.31534" lon="2.107">
        <ele>667</ele>
        <time>2012-03-25T09:40:45Z</time>
      </trkpt>
      <trkpt lat="45.31534" lon="2.10707">
        <ele>667</ele>
        <time>2012-03-25T09:40:46Z</time>
      </trkpt>
      <trkpt lat="45.31535" lon="2.10713">
        <ele>667</ele>
        <time>2012-03-25T09:40:48Z</time>
      </trkpt>
      <trkpt lat="45.31535" lon="2.10723">
        <ele>668</ele>
        <time>2012-03-25T09:40:49Z</time>
      </trkpt>
      <trkpt lat="45.31535" lon="2.10729">
        <ele>668</ele>
        <time>2012-03-25T09:40:50Z</time>
      </trkpt>
      <trkpt lat="45.31535" lon="2.10735">
        <ele>668</ele>
        <time>2012-03-25T09:40:52Z</time>
      </trkpt>
      <trkpt lat="45.31535" lon="2.10748">
        <ele>669</ele>
        <time>2012-03-25T09:40:53Z</time>
      </trkpt>
      <trkpt lat="45.31536" lon="2.10755">
        <ele>669</ele>
        <time>2012-03-25T09:40:54Z</time>
      </trkpt>
      <trkpt lat="45.31537" lon="2.10762">
        <ele>668</ele>
        <time>2012-03-25T09:40:56Z</time>
      </trkpt>
      <trkpt lat="45.31542" lon="2.10774">
        <ele>668</ele>
        <time>2012-03-25T09:40:57Z</time>
      </trkpt>
      <trkpt lat="45.31543" lon="2.10779">
        <ele>668</ele>
        <time>2012-03-25T09:40:58Z</time>
      </trkpt>
      <trkpt lat="45.31544" lon="2.10785">
        <ele>668</ele>
        <time>2012-03-25T09:41:00Z</time>
      </trkpt>
      <trkpt lat="45.31548" lon="2.10796">
        <ele>668</ele>
        <time>2012-03-25T09:41:01Z</time>
      </trkpt>
      <trkpt lat="45.3155" lon="2.10803">
        <ele>668</ele>
        <time>2012-03-25T09:41:02Z</time>
      </trkpt>
      <trkpt lat="45.31551" lon="2.10809">
        <ele>669</ele>
        <time>2012-03-25T09:41:04Z</time>
      </trkpt>
      <trkpt lat="45.31554" lon="2.10823">
        <ele>669</ele>
        <time>2012-03-25T09:41:05Z</time>
      </trkpt>
      <trkpt lat="45.31556" lon="2.10832">
        <ele>669</ele>
        <time>2012-03-25T09:41:06Z</time>
      </trkpt>
      <trkpt lat="45.31559" lon="2.1084">
        <ele>669</ele>
        <time>2012-03-25T09:41:08Z</time>
      </trkpt>
      <trkpt lat="45.31563" lon="2.10857">
        <ele>669</ele>
        <time>2012-03-25T09:41:09Z</time>
      </trkpt>
      <trkpt lat="45.31565" lon="2.10865">
        <ele>668</ele>
        <time>2012-03-25T09:41:10Z</time>
      </trkpt>
      <trkpt lat="45.31567" lon="2.10874">
        <ele>669</ele>
        <time>2012-03-25T09:41:12Z</time>
      </trkpt>
      <trkpt lat="45.31572" lon="2.10889">
        <ele>669</ele>
        <time>2012-03-25T09:41:13Z</time>
      </trkpt>
      <trkpt lat="45.31574" lon="2.10897">
        <ele>669</ele>
        <time>2012-03-25T09:41:14Z</time>
      </trkpt>
      <trkpt lat="45.31577" lon="2.10905">
        <ele>669</ele>
        <time>2012-03-25T09:41:16Z</time>
      </trkpt>
      <trkpt lat="45.31578" lon="2.10923">
        <ele>669</ele>
        <time>2012-03-25T09:41:17Z</time>
      </trkpt>
      <trkpt lat="45.31576" lon="2.10931">
        <ele>669</ele>
        <time>2012-03-25T09:41:18Z</time>
      </trkpt>
      <trkpt lat="45.31572" lon="2.10942">
        <ele>669</ele>
        <time>2012-03-25T09:41:20Z</time>
      </trkpt>
      <trkpt lat="45.31562" lon="2.10959">
        <ele>669</ele>
        <time>2012-03-25T09:41:21Z</time>
      </trkpt>
      <trkpt lat="45.31557" lon="2.1097">
        <ele>668</ele>
        <time>2012-03-25T09:41:22Z</time>
      </trkpt>
      <trkpt lat="45.31552" lon="2.10979">
        <ele>669</ele>
        <time>2012-03-25T09:41:24Z</time>
      </trkpt>
      <trkpt lat="45.31543" lon="2.10999">
        <ele>669</ele>
        <time>2012-03-25T09:41:25Z</time>
      </trkpt>
      <trkpt lat="45.3154" lon="2.11011">
        <ele>668</ele>
        <time>2012-03-25T09:41:26Z</time>
      </trkpt>
      <trkpt lat="45.31538" lon="2.11025">
        <ele>667</ele>
        <time>2012-03-25T09:41:28Z</time>
      </trkpt>
      <trkpt lat="45.31538" lon="2.11052">
        <ele>667</ele>
        <time>2012-03-25T09:41:29Z</time>
      </trkpt>
      <trkpt lat="45.31538" lon="2.11067">
        <ele>666</ele>
        <time>2012-03-25T09:41:30Z</time>
      </trkpt>
      <trkpt lat="45.31539" lon="2.1108">
        <ele>666</ele>
        <time>2012-03-25T09:41:32Z</time>
      </trkpt>
      <trkpt lat="45.31539" lon="2.11109">
        <ele>665</ele>
        <time>2012-03-25T09:41:33Z</time>
      </trkpt>
      <trkpt lat="45.31539" lon="2.11122">
        <ele>665</ele>
        <time>2012-03-25T09:41:34Z</time>
      </trkpt>
      <trkpt lat="45.31536" lon="2.11136">
        <ele>664</ele>
        <time>2012-03-25T09:41:36Z</time>
      </trkpt>
      <trkpt lat="45.31529" lon="2.11163">
        <ele>664</ele>
        <time>2012-03-25T09:41:37Z</time>
      </trkpt>
      <trkpt lat="45.31526" lon="2.11175">
        <ele>663</ele>
        <time>2012-03-25T09:41:38Z</time>
      </trkpt>
      <trkpt lat="45.31528" lon="2.1119">
        <ele>663</ele>
        <time>2012-03-25T09:41:40Z</time>
      </trkpt>
      <trkpt lat="45.3153" lon="2.11219">
        <ele>661</ele>
        <time>2012-03-25T09:41:41Z</time>
      </trkpt>
      <trkpt lat="45.31534" lon="2.11235">
        <ele>660</ele>
        <time>2012-03-25T09:41:42Z</time>
      </trkpt>
      <trkpt lat="45.31541" lon="2.1125">
        <ele>659</ele>
        <time>2012-03-25T09:41:44Z</time>
      </trkpt>
      <trkpt lat="45.31551" lon="2.11278">
        <ele>659</ele>
        <time>2012-03-25T09:41:45Z</time>
      </trkpt>
      <trkpt lat="45.31561" lon="2.11286">
        <ele>658</ele>
        <time>2012-03-25T09:41:46Z</time>
      </trkpt>
      <trkpt lat="45.3157" lon="2.11295">
        <ele>658</ele>
        <time>2012-03-25T09:41:48Z</time>
      </trkpt>
      <trkpt lat="45.31591" lon="2.113">
        <ele>659</ele>
        <time>2012-03-25T09:41:49Z</time>
      </trkpt>
      <trkpt lat="45.31603" lon="2.11298">
        <ele>658</ele>
        <time>2012-03-25T09:41:50Z</time>
      </trkpt>
      <trkpt lat="45.31614" lon="2.11301">
        <ele>658</ele>
        <time>2012-03-25T09:41:52Z</time>
      </trkpt>
      <trkpt lat="45.31635" lon="2.11309">
        <ele>657</ele>
        <time>2012-03-25T09:41:53Z</time>
      </trkpt>
      <trkpt lat="45.31644" lon="2.11313">
        <ele>657</ele>
        <time>2012-03-25T09:41:54Z</time>
      </trkpt>
      <trkpt lat="45.31653" lon="2.11322">
        <ele>657</ele>
        <time>2012-03-25T09:41:56Z</time>
      </trkpt>
      <trkpt lat="45.3167" lon="2.11342">
        <ele>658</ele>
        <time>2012-03-25T09:41:57Z</time>
      </trkpt>
      <trkpt lat="45.31678" lon="2.11352">
        <ele>658</ele>
        <time>2012-03-25T09:41:58Z</time>
      </trkpt>
      <trkpt lat="45.31682" lon="2.11367">
        <ele>657</ele>
        <time>2012-03-25T09:42:00Z</time>
      </trkpt>
      <trkpt lat="45.31691" lon="2.11392">
        <ele>656</ele>
        <time>2012-03-25T09:42:01Z</time>
      </trkpt>
      <trkpt lat="45.31692" lon="2.11407">
        <ele>654</ele>
        <time>2012-03-25T09:42:02Z</time>
      </trkpt>
      <trkpt lat="45.31694" lon="2.1142">
        <ele>654</ele>
        <time>2012-03-25T09:42:04Z</time>
      </trkpt>
      <trkpt lat="45.31693" lon="2.11442">
        <ele>653</ele>
        <time>2012-03-25T09:42:05Z</time>
      </trkpt>
      <trkpt lat="45.31693" lon="2.11455">
        <ele>652</ele>
        <time>2012-03-25T09:42:06Z</time>
      </trkpt>
      <trkpt lat="45.31694" lon="2.11465">
        <ele>652</ele>
        <time>2012-03-25T09:42:08Z</time>
      </trkpt>
      <trkpt lat="45.31697" lon="2.11485">
        <ele>651</ele>
        <time>2012-03-25T09:42:09Z</time>
      </trkpt>
      <trkpt lat="45.31699" lon="2.11494">
        <ele>651</ele>
        <time>2012-03-25T09:42:10Z</time>
      </trkpt>
      <trkpt lat="45.31703" lon="2.11501">
        <ele>651</ele>
        <time>2012-03-25T09:42:12Z</time>
      </trkpt>
      <trkpt lat="45.3171" lon="2.11514">
        <ele>652</ele>
        <time>2012-03-25T09:42:13Z</time>
      </trkpt>
      <trkpt lat="45.31714" lon="2.1152">
        <ele>652</ele>
        <time>2012-03-25T09:42:14Z</time>
      </trkpt>
      <trkpt lat="45.31721" lon="2.11518">
        <ele>652</ele>
        <time>2012-03-25T09:42:16Z</time>
      </trkpt>
      <trkpt lat="45.31731" lon="2.11526">
        <ele>652</ele>
        <time>2012-03-25T09:42:17Z</time>
      </trkpt>
      <trkpt lat="45.31736" lon="2.11529">
        <ele>652</ele>
        <time>2012-03-25T09:42:18Z</time>
      </trkpt>
      <trkpt lat="45.31741" lon="2.11534">
        <ele>652</ele>
        <time>2012-03-25T09:42:20Z</time>
      </trkpt>
      <trkpt lat="45.31751" lon="2.11541">
        <ele>652</ele>
        <time>2012-03-25T09:42:21Z</time>
      </trkpt>
      <trkpt lat="45.31757" lon="2.11542">
        <ele>651</ele>
        <time>2012-03-25T09:42:22Z</time>
      </trkpt>
      <trkpt lat="45.31761" lon="2.11542">
        <ele>652</ele>
        <time>2012-03-25T09:42:24Z</time>
      </trkpt>
      <trkpt lat="45.31768" lon="2.11539">
        <ele>653</ele>
        <time>2012-03-25T09:42:25Z</time>
      </trkpt>
      <trkpt lat="45.31771" lon="2.11541">
        <ele>654</ele>
        <time>2012-03-25T09:42:26Z</time>
      </trkpt>
      <trkpt lat="45.31775" lon="2.11543">
        <ele>654</ele>
        <time>2012-03-25T09:42:28Z</time>
      </trkpt>
      <trkpt lat="45.31779" lon="2.11554">
        <ele>656</ele>
        <time>2012-03-25T09:42:29Z</time>
      </trkpt>
      <trkpt lat="45.3178" lon="2.11557">
        <ele>656</ele>
        <time>2012-03-25T09:42:30Z</time>
      </trkpt>
      <trkpt lat="45.31782" lon="2.11563">
        <ele>655</ele>
        <time>2012-03-25T09:42:32Z</time>
      </trkpt>
      <trkpt lat="45.31786" lon="2.11575">
        <ele>656</ele>
        <time>2012-03-25T09:42:33Z</time>
      </trkpt>
      <trkpt lat="45.31787" lon="2.11581">
        <ele>656</ele>
        <time>2012-03-25T09:42:34Z</time>
      </trkpt>
      <trkpt lat="45.31789" lon="2.11586">
        <ele>656</ele>
        <time>2012-03-25T09:42:36Z</time>
      </trkpt>
      <trkpt lat="45.31794" lon="2.11598">
        <ele>656</ele>
        <time>2012-03-25T09:42:37Z</time>
      </trkpt>
      <trkpt lat="45.31796" lon="2.11601">
        <ele>656</ele>
        <time>2012-03-25T09:42:38Z</time>
      </trkpt>
      <trkpt lat="45.31799" lon="2.11604">
        <ele>656</ele>
        <time>2012-03-25T09:42:40Z</time>
      </trkpt>
      <trkpt lat="45.31804" lon="2.11614">
        <ele>656</ele>
        <time>2012-03-25T09:42:41Z</time>
      </trkpt>
      <trkpt lat="45.31808" lon="2.11618">
        <ele>656</ele>
        <time>2012-03-25T09:42:42Z</time>
      </trkpt>
      <trkpt lat="45.31811" lon="2.1162">
        <ele>657</ele>
        <time>2012-03-25T09:42:44Z</time>
      </trkpt>
      <trkpt lat="45.31816" lon="2.11628">
        <ele>657</ele>
        <time>2012-03-25T09:42:45Z</time>
      </trkpt>
      <trkpt lat="45.3182" lon="2.11631">
        <ele>657</ele>
        <time>2012-03-25T09:42:46Z</time>
      </trkpt>
      <trkpt lat="45.31822" lon="2.11638">
        <ele>657</ele>
        <time>2012-03-25T09:42:48Z</time>
      </trkpt>
      <trkpt lat="45.3183" lon="2.11642">
        <ele>658</ele>
        <time>2012-03-25T09:42:49Z</time>
      </trkpt>
      <trkpt lat="45.31832" lon="2.11645">
        <ele>658</ele>
        <time>2012-03-25T09:42:50Z</time>
      </trkpt>
      <trkpt lat="45.31835" lon="2.11646">
        <ele>658</ele>
        <time>2012-03-25T09:42:52Z</time>
      </trkpt>
      <trkpt lat="45.31842" lon="2.11655">
        <ele>657</ele>
        <time>2012-03-25T09:42:53Z</time>
      </trkpt>
      <trkpt lat="45.31845" lon="2.11657">
        <ele>658</ele>
        <time>2012-03-25T09:42:54Z</time>
      </trkpt>
      <trkpt lat="45.31849" lon="2.1166">
        <ele>658</ele>
        <time>2012-03-25T09:42:56Z</time>
      </trkpt>
      <trkpt lat="45.31857" lon="2.11664">
        <ele>657</ele>
        <time>2012-03-25T09:42:57Z</time>
      </trkpt>
      <trkpt lat="45.31859" lon="2.1167">
        <ele>658</ele>
        <time>2012-03-25T09:42:58Z</time>
      </trkpt>
      <trkpt lat="45.31864" lon="2.11672">
        <ele>658</ele>
        <time>2012-03-25T09:43:00Z</time>
      </trkpt>
      <trkpt lat="45.3187" lon="2.11679">
        <ele>660</ele>
        <time>2012-03-25T09:43:01Z</time>
      </trkpt>
      <trkpt lat="45.31873" lon="2.11682">
        <ele>659</ele>
        <time>2012-03-25T09:43:02Z</time>
      </trkpt>
      <trkpt lat="45.31876" lon="2.11684">
        <ele>660</ele>
        <time>2012-03-25T09:43:04Z</time>
      </trkpt>
      <trkpt lat="45.31886" lon="2.1169">
        <ele>658</ele>
        <time>2012-03-25T09:43:05Z</time>
      </trkpt>
      <trkpt lat="45.31889" lon="2.11692">
        <ele>658</ele>
        <time>2012-03-25T09:43:06Z</time>
      </trkpt>
      <trkpt lat="45.31893" lon="2.11694">
        <ele>658</ele>
        <time>2012-03-25T09:43:08Z</time>
      </trkpt>
      <trkpt lat="45.31899" lon="2.11698">
        <ele>660</ele>
        <time>2012-03-25T09:43:09Z</time>
      </trkpt>
      <trkpt lat="45.31903" lon="2.11699">
        <ele>660</ele>
        <time>2012-03-25T09:43:10Z</time>
      </trkpt>
      <trkpt lat="45.31907" lon="2.11701">
        <ele>659</ele>
        <time>2012-03-25T09:43:12Z</time>
      </trkpt>
      <trkpt lat="45.31914" lon="2.11707">
        <ele>659</ele>
        <time>2012-03-25T09:43:13Z</time>
      </trkpt>
      <trkpt lat="45.31918" lon="2.1171">
        <ele>660</ele>
        <time>2012-03-25T09:43:14Z</time>
      </trkpt>
      <trkpt lat="45.31922" lon="2.11713">
        <ele>659</ele>
        <time>2012-03-25T09:43:16Z</time>
      </trkpt>
      <trkpt lat="45.31929" lon="2.11719">
        <ele>659</ele>
        <time>2012-03-25T09:43:17Z</time>
      </trkpt>
      <trkpt lat="45.31932" lon="2.11721">
        <ele>659</ele>
        <time>2012-03-25T09:43:18Z</time>
      </trkpt>
      <trkpt lat="45.31936" lon="2.11723">
        <ele>659</ele>
        <time>2012-03-25T09:43:20Z</time>
      </trkpt>
      <trkpt lat="45.31941" lon="2.11729">
        <ele>659</ele>
        <time>2012-03-25T09:43:21Z</time>
      </trkpt>
      <trkpt lat="45.31944" lon="2.11731">
        <ele>659</ele>
        <time>2012-03-25T09:43:22Z</time>
      </trkpt>
      <trkpt lat="45.31946" lon="2.11734">
        <ele>659</ele>
        <time>2012-03-25T09:43:24Z</time>
      </trkpt>
      <trkpt lat="45.31952" lon="2.11738">
        <ele>660</ele>
        <time>2012-03-25T09:43:25Z</time>
      </trkpt>
      <trkpt lat="45.31954" lon="2.11741">
        <ele>660</ele>
        <time>2012-03-25T09:43:26Z</time>
      </trkpt>
      <trkpt lat="45.31956" lon="2.11743">
        <ele>660</ele>
        <time>2012-03-25T09:43:28Z</time>
      </trkpt>
      <trkpt lat="45.31961" lon="2.11748">
        <ele>659</ele>
        <time>2012-03-25T09:43:29Z</time>
      </trkpt>
      <trkpt lat="45.31963" lon="2.1175">
        <ele>659</ele>
        <time>2012-03-25T09:43:30Z</time>
      </trkpt>
      <trkpt lat="45.31964" lon="2.11752">
        <ele>659</ele>
        <time>2012-03-25T09:43:32Z</time>
      </trkpt>
      <trkpt lat="45.31971" lon="2.11753">
        <ele>659</ele>
        <time>2012-03-25T09:43:33Z</time>
      </trkpt>
      <trkpt lat="45.31975" lon="2.11753">
        <ele>660</ele>
        <time>2012-03-25T09:43:34Z</time>
      </trkpt>
      <trkpt lat="45.31979" lon="2.11756">
        <ele>660</ele>
        <time>2012-03-25T09:43:36Z</time>
      </trkpt>
      <trkpt lat="45.31985" lon="2.11759">
        <ele>660</ele>
        <time>2012-03-25T09:43:37Z</time>
      </trkpt>
      <trkpt lat="45.31989" lon="2.11761">
        <ele>660</ele>
        <time>2012-03-25T09:43:38Z</time>
      </trkpt>
      <trkpt lat="45.31992" lon="2.11763">
        <ele>660</ele>
        <time>2012-03-25T09:43:40Z</time>
      </trkpt>
      <trkpt lat="45.32" lon="2.11767">
        <ele>660</ele>
        <time>2012-03-25T09:43:41Z</time>
      </trkpt>
      <trkpt lat="45.32005" lon="2.11772">
        <ele>660</ele>
        <time>2012-03-25T09:43:42Z</time>
      </trkpt>
      <trkpt lat="45.3201" lon="2.11775">
        <ele>660</ele>
        <time>2012-03-25T09:43:44Z</time>
      </trkpt>
      <trkpt lat="45.32018" lon="2.11785">
        <ele>660</ele>
        <time>2012-03-25T09:43:45Z</time>
      </trkpt>
      <trkpt lat="45.32023" lon="2.11789">
        <ele>659</ele>
        <time>2012-03-25T09:43:46Z</time>
      </trkpt>
      <trkpt lat="45.32028" lon="2.11792">
        <ele>658</ele>
        <time>2012-03-25T09:43:48Z</time>
      </trkpt>
      <trkpt lat="45.32037" lon="2.11799">
        <ele>657</ele>
        <time>2012-03-25T09:43:49Z</time>
      </trkpt>
      <trkpt lat="45.32043" lon="2.11801">
        <ele>657</ele>
        <time>2012-03-25T09:43:50Z</time>
      </trkpt>
      <trkpt lat="45.32049" lon="2.11803">
        <ele>657</ele>
        <time>2012-03-25T09:43:52Z</time>
      </trkpt>
      <trkpt lat="45.32056" lon="2.11811">
        <ele>657</ele>
        <time>2012-03-25T09:43:53Z</time>
      </trkpt>
      <trkpt lat="45.3206" lon="2.11812">
        <ele>656</ele>
        <time>2012-03-25T09:43:54Z</time>
      </trkpt>
      <trkpt lat="45.32066" lon="2.11818">
        <ele>657</ele>
        <time>2012-03-25T09:43:56Z</time>
      </trkpt>
      <trkpt lat="45.32073" lon="2.11829">
        <ele>657</ele>
        <time>2012-03-25T09:43:57Z</time>
      </trkpt>
      <trkpt lat="45.32077" lon="2.11833">
        <ele>657</ele>
        <time>2012-03-25T09:43:58Z</time>
      </trkpt>
      <trkpt lat="45.32081" lon="2.11839">
        <ele>657</ele>
        <time>2012-03-25T09:43:59Z</time>
      </trkpt>
      <trkpt lat="45.32085" lon="2.11847">
        <ele>657</ele>
        <time>2012-03-25T09:44:00Z</time>
      </trkpt>
      <trkpt lat="45.3209" lon="2.11855">
        <ele>656</ele>
        <time>2012-03-25T09:44:01Z</time>
      </trkpt>
      <trkpt lat="45.32094" lon="2.11863">
        <ele>656</ele>
        <time>2012-03-25T09:44:02Z</time>
      </trkpt>
      <trkpt lat="45.32098" lon="2.11871">
        <ele>656</ele>
        <time>2012-03-25T09:44:03Z</time>
      </trkpt>
      <trkpt lat="45.321" lon="2.11881">
        <ele>656</ele>
        <time>2012-03-25T09:44:04Z</time>
      </trkpt>
      <trkpt lat="45.32103" lon="2.1189">
        <ele>656</ele>
        <time>2012-03-25T09:44:05Z</time>
      </trkpt>
      <trkpt lat="45.32106" lon="2.11899">
        <ele>656</ele>
        <time>2012-03-25T09:44:06Z</time>
      </trkpt>
      <trkpt lat="45.32107" lon="2.1191">
        <ele>656</ele>
        <time>2012-03-25T09:44:07Z</time>
      </trkpt>
      <trkpt lat="45.32111" lon="2.11918">
        <ele>655</ele>
        <time>2012-03-25T09:44:08Z</time>
      </trkpt>
      <trkpt lat="45.32113" lon="2.11928">
        <ele>656</ele>
        <time>2012-03-25T09:44:09Z</time>
      </trkpt>
      <trkpt lat="45.32116" lon="2.11939">
        <ele>656</ele>
        <time>2012-03-25T09:44:10Z</time>
      </trkpt>
      <trkpt lat="45.32118" lon="2.11948">
        <ele>656</ele>
        <time>2012-03-25T09:44:11Z</time>
      </trkpt>
      <trkpt lat="45.32123" lon="2.11958">
        <ele>655</ele>
        <time>2012-03-25T09:44:12Z</time>
      </trkpt>
      <trkpt lat="45.32126" lon="2.11967">
        <ele>656</ele>
        <time>2012-03-25T09:44:13Z</time>
      </trkpt>
      <trkpt lat="45.32131" lon="2.11974">
        <ele>656</ele>
        <time>2012-03-25T09:44:14Z</time>
      </trkpt>
      <trkpt lat="45.32137" lon="2.11985">
        <ele>656</ele>
        <time>2012-03-25T09:44:15Z</time>
      </trkpt>
      <trkpt lat="45.32143" lon="2.11992">
        <ele>656</ele>
        <time>2012-03-25T09:44:16Z</time>
      </trkpt>
      <trkpt lat="45.3215" lon="2.11999">
        <ele>656</ele>
        <time>2012-03-25T09:44:17Z</time>
      </trkpt>
      <trkpt lat="45.32157" lon="2.12007">
        <ele>655</ele>
        <time>2012-03-25T09:44:18Z</time>
      </trkpt>
      <trkpt lat="45.32165" lon="2.12014">
        <ele>655</ele>
        <time>2012-03-25T09:44:19Z</time>
      </trkpt>
      <trkpt lat="45.32173" lon="2.1202">
        <ele>654</ele>
        <time>2012-03-25T09:44:21Z</time>
      </trkpt>
      <trkpt lat="45.32183" lon="2.12027">
        <ele>653</ele>
        <time>2012-03-25T09:44:22Z</time>
      </trkpt>
      <trkpt lat="45.32191" lon="2.12034">
        <ele>653</ele>
        <time>2012-03-25T09:44:23Z</time>
      </trkpt>
      <trkpt lat="45.32203" lon="2.12038">
        <ele>652</ele>
        <time>2012-03-25T09:44:24Z</time>
      </trkpt>
      <trkpt lat="45.32212" lon="2.12045">
        <ele>652</ele>
        <time>2012-03-25T09:44:25Z</time>
      </trkpt>
      <trkpt lat="45.32229" lon="2.12058">
        <ele>650</ele>
        <time>2012-03-25T09:44:26Z</time>
      </trkpt>
      <trkpt lat="45.32239" lon="2.12067">
        <ele>650</ele>
        <time>2012-03-25T09:44:27Z</time>
      </trkpt>
      <trkpt lat="45.32248" lon="2.12074">
        <ele>649</ele>
        <time>2012-03-25T09:44:28Z</time>
      </trkpt>
      <trkpt lat="45.32248" lon="2.12074">
        <ele>649</ele>
        <time>2012-03-25T09:44:30Z</time>
      </trkpt>
      <trkpt lat="45.32257" lon="2.1208">
        <ele>649</ele>
        <time>2012-03-25T09:44:31Z</time>
      </trkpt>
      <trkpt lat="45.32283" lon="2.12099">
        <ele>648</ele>
        <time>2012-03-25T09:44:32Z</time>
      </trkpt>
      <trkpt lat="45.32289" lon="2.12113">
        <ele>648</ele>
        <time>2012-03-25T09:44:34Z</time>
      </trkpt>
      <trkpt lat="45.32302" lon="2.12133">
        <ele>647</ele>
        <time>2012-03-25T09:44:35Z</time>
      </trkpt>
      <trkpt lat="45.32309" lon="2.12144">
        <ele>645</ele>
        <time>2012-03-25T09:44:36Z</time>
      </trkpt>
      <trkpt lat="45.32317" lon="2.12152">
        <ele>644</ele>
        <time>2012-03-25T09:44:38Z</time>
      </trkpt>
      <trkpt lat="45.32332" lon="2.12162">
        <ele>644</ele>
        <time>2012-03-25T09:44:39Z</time>
      </trkpt>
      <trkpt lat="45.32339" lon="2.12164">
        <ele>644</ele>
        <time>2012-03-25T09:44:40Z</time>
      </trkpt>
      <trkpt lat="45.32346" lon="2.12168">
        <ele>644</ele>
        <time>2012-03-25T09:44:42Z</time>
      </trkpt>
      <trkpt lat="45.32359" lon="2.12169">
        <ele>644</ele>
        <time>2012-03-25T09:44:43Z</time>
      </trkpt>
      <trkpt lat="45.32367" lon="2.12169">
        <ele>644</ele>
        <time>2012-03-25T09:44:44Z</time>
      </trkpt>
      <trkpt lat="45.32372" lon="2.1217">
        <ele>644</ele>
        <time>2012-03-25T09:44:46Z</time>
      </trkpt>
      <trkpt lat="45.32383" lon="2.12176">
        <ele>643</ele>
        <time>2012-03-25T09:44:47Z</time>
      </trkpt>
      <trkpt lat="45.32389" lon="2.12177">
        <ele>643</ele>
        <time>2012-03-25T09:44:48Z</time>
      </trkpt>
      <trkpt lat="45.32396" lon="2.12177">
        <ele>643</ele>
        <time>2012-03-25T09:44:50Z</time>
      </trkpt>
      <trkpt lat="45.32409" lon="2.12182">
        <ele>643</ele>
        <time>2012-03-25T09:44:51Z</time>
      </trkpt>
      <trkpt lat="45.32416" lon="2.12182">
        <ele>643</ele>
        <time>2012-03-25T09:44:52Z</time>
      </trkpt>
      <trkpt lat="45.32422" lon="2.12185">
        <ele>643</ele>
        <time>2012-03-25T09:44:53Z</time>
      </trkpt>
      <trkpt lat="45.32422" lon="2.12185">
        <ele>643</ele>
        <time>2012-03-25T09:44:54Z</time>
      </trkpt>
      <trkpt lat="45.32428" lon="2.12186">
        <ele>644</ele>
        <time>2012-03-25T09:44:55Z</time>
      </trkpt>
      <trkpt lat="45.32434" lon="2.12189">
        <ele>645</ele>
        <time>2012-03-25T09:44:57Z</time>
      </trkpt>
      <trkpt lat="45.32452" lon="2.12202">
        <ele>645</ele>
        <time>2012-03-25T09:44:58Z</time>
      </trkpt>
      <trkpt lat="45.32458" lon="2.12204">
        <ele>644</ele>
        <time>2012-03-25T09:44:59Z</time>
      </trkpt>
      <trkpt lat="45.32463" lon="2.12209">
        <ele>645</ele>
        <time>2012-03-25T09:45:01Z</time>
      </trkpt>
      <trkpt lat="45.32475" lon="2.12218">
        <ele>645</ele>
        <time>2012-03-25T09:45:02Z</time>
      </trkpt>
      <trkpt lat="45.3248" lon="2.12221">
        <ele>645</ele>
        <time>2012-03-25T09:45:03Z</time>
      </trkpt>
      <trkpt lat="45.32487" lon="2.12224">
        <ele>645</ele>
        <time>2012-03-25T09:45:05Z</time>
      </trkpt>
      <trkpt lat="45.32497" lon="2.12228">
        <ele>645</ele>
        <time>2012-03-25T09:45:06Z</time>
      </trkpt>
      <trkpt lat="45.32503" lon="2.12231">
        <ele>645</ele>
        <time>2012-03-25T09:45:07Z</time>
      </trkpt>
      <trkpt lat="45.3251" lon="2.12233">
        <ele>645</ele>
        <time>2012-03-25T09:45:09Z</time>
      </trkpt>
      <trkpt lat="45.32524" lon="2.12238">
        <ele>645</ele>
        <time>2012-03-25T09:45:10Z</time>
      </trkpt>
      <trkpt lat="45.32529" lon="2.12243">
        <ele>645</ele>
        <time>2012-03-25T09:45:11Z</time>
      </trkpt>
      <trkpt lat="45.32536" lon="2.12246">
        <ele>645</ele>
        <time>2012-03-25T09:45:13Z</time>
      </trkpt>
      <trkpt lat="45.32548" lon="2.12251">
        <ele>644</ele>
        <time>2012-03-25T09:45:14Z</time>
      </trkpt>
      <trkpt lat="45.32556" lon="2.12255">
        <ele>644</ele>
        <time>2012-03-25T09:45:15Z</time>
      </trkpt>
      <trkpt lat="45.32561" lon="2.12256">
        <ele>644</ele>
        <time>2012-03-25T09:45:17Z</time>
      </trkpt>
      <trkpt lat="45.32574" lon="2.1226">
        <ele>644</ele>
        <time>2012-03-25T09:45:18Z</time>
      </trkpt>
      <trkpt lat="45.32581" lon="2.12264">
        <ele>644</ele>
        <time>2012-03-25T09:45:19Z</time>
      </trkpt>
      <trkpt lat="45.32588" lon="2.12267">
        <ele>644</ele>
        <time>2012-03-25T09:45:21Z</time>
      </trkpt>
      <trkpt lat="45.32601" lon="2.12274">
        <ele>644</ele>
        <time>2012-03-25T09:45:22Z</time>
      </trkpt>
      <trkpt lat="45.32608" lon="2.12278">
        <ele>644</ele>
        <time>2012-03-25T09:45:23Z</time>
      </trkpt>
      <trkpt lat="45.32616" lon="2.12282">
        <ele>644</ele>
        <time>2012-03-25T09:45:25Z</time>
      </trkpt>
      <trkpt lat="45.32628" lon="2.12289">
        <ele>644</ele>
        <time>2012-03-25T09:45:26Z</time>
      </trkpt>
      <trkpt lat="45.32636" lon="2.12291">
        <ele>644</ele>
        <time>2012-03-25T09:45:27Z</time>
      </trkpt>
      <trkpt lat="45.32643" lon="2.12296">
        <ele>644</ele>
        <time>2012-03-25T09:45:29Z</time>
      </trkpt>
      <trkpt lat="45.32658" lon="2.12305">
        <ele>643</ele>
        <time>2012-03-25T09:45:30Z</time>
      </trkpt>
      <trkpt lat="45.32667" lon="2.1231">
        <ele>643</ele>
        <time>2012-03-25T09:45:31Z</time>
      </trkpt>
      <trkpt lat="45.32676" lon="2.12317">
        <ele>643</ele>
        <time>2012-03-25T09:45:32Z</time>
      </trkpt>
      <trkpt lat="45.32686" lon="2.12326">
        <ele>642</ele>
        <time>2012-03-25T09:45:33Z</time>
      </trkpt>
      <trkpt lat="45.32695" lon="2.12336">
        <ele>642</ele>
        <time>2012-03-25T09:45:35Z</time>
      </trkpt>
      <trkpt lat="45.32707" lon="2.12347">
        <ele>643</ele>
        <time>2012-03-25T09:45:36Z</time>
      </trkpt>
      <trkpt lat="45.32729" lon="2.12367">
        <ele>643</ele>
        <time>2012-03-25T09:45:37Z</time>
      </trkpt>
      <trkpt lat="45.3274" lon="2.12376">
        <ele>643</ele>
        <time>2012-03-25T09:45:38Z</time>
      </trkpt>
      <trkpt lat="45.32753" lon="2.12384">
        <ele>642</ele>
        <time>2012-03-25T09:45:40Z</time>
      </trkpt>
      <trkpt lat="45.32775" lon="2.12394">
        <ele>642</ele>
        <time>2012-03-25T09:45:41Z</time>
      </trkpt>
      <trkpt lat="45.32786" lon="2.12398">
        <ele>641</ele>
        <time>2012-03-25T09:45:42Z</time>
      </trkpt>
      <trkpt lat="45.32798" lon="2.12404">
        <ele>641</ele>
        <time>2012-03-25T09:45:44Z</time>
      </trkpt>
      <trkpt lat="45.32821" lon="2.12415">
        <ele>641</ele>
        <time>2012-03-25T09:45:45Z</time>
      </trkpt>
      <trkpt lat="45.3283" lon="2.12425">
        <ele>641</ele>
        <time>2012-03-25T09:45:46Z</time>
      </trkpt>
      <trkpt lat="45.3283" lon="2.12425">
        <ele>641</ele>
        <time>2012-03-25T09:45:47Z</time>
      </trkpt>
      <trkpt lat="45.3284" lon="2.12434">
        <ele>640</ele>
        <time>2012-03-25T09:45:48Z</time>
      </trkpt>
      <trkpt lat="45.32849" lon="2.12445">
        <ele>640</ele>
        <time>2012-03-25T09:45:49Z</time>
      </trkpt>
      <trkpt lat="45.32857" lon="2.12458">
        <ele>639</ele>
        <time>2012-03-25T09:45:51Z</time>
      </trkpt>
      <trkpt lat="45.32865" lon="2.12474">
        <ele>637</ele>
        <time>2012-03-25T09:45:52Z</time>
      </trkpt>
      <trkpt lat="45.32879" lon="2.12503">
        <ele>637</ele>
        <time>2012-03-25T09:45:53Z</time>
      </trkpt>
      <trkpt lat="45.32887" lon="2.12515">
        <ele>635</ele>
        <time>2012-03-25T09:45:55Z</time>
      </trkpt>
      <trkpt lat="45.32896" lon="2.12527">
        <ele>635</ele>
        <time>2012-03-25T09:45:56Z</time>
      </trkpt>
      <trkpt lat="45.32916" lon="2.1254">
        <ele>634</ele>
        <time>2012-03-25T09:45:57Z</time>
      </trkpt>
      <trkpt lat="45.32925" lon="2.12546">
        <ele>631</ele>
        <time>2012-03-25T09:45:59Z</time>
      </trkpt>
      <trkpt lat="45.32954" lon="2.12559">
        <ele>622</ele>
        <time>2012-03-25T09:46:00Z</time>
      </trkpt>
      <trkpt lat="45.32963" lon="2.12561">
        <ele>619</ele>
        <time>2012-03-25T09:46:01Z</time>
      </trkpt>
      <trkpt lat="45.32971" lon="2.12563">
        <ele>618</ele>
        <time>2012-03-25T09:46:03Z</time>
      </trkpt>
      <trkpt lat="45.32983" lon="2.12566">
        <ele>616</ele>
        <time>2012-03-25T09:46:04Z</time>
      </trkpt>
      <trkpt lat="45.32988" lon="2.12567">
        <ele>616</ele>
        <time>2012-03-25T09:46:05Z</time>
      </trkpt>
      <trkpt lat="45.32992" lon="2.12566">
        <ele>616</ele>
        <time>2012-03-25T09:46:07Z</time>
      </trkpt>
      <trkpt lat="45.32999" lon="2.12564">
        <ele>616</ele>
        <time>2012-03-25T09:46:08Z</time>
      </trkpt>
      <trkpt lat="45.33002" lon="2.12563">
        <ele>616</ele>
        <time>2012-03-25T09:46:09Z</time>
      </trkpt>
      <trkpt lat="45.33006" lon="2.12561">
        <ele>615</ele>
        <time>2012-03-25T09:46:11Z</time>
      </trkpt>
      <trkpt lat="45.33012" lon="2.12557">
        <ele>615</ele>
        <time>2012-03-25T09:46:12Z</time>
      </trkpt>
      <trkpt lat="45.33015" lon="2.12553">
        <ele>616</ele>
        <time>2012-03-25T09:46:13Z</time>
      </trkpt>
      <trkpt lat="45.3302" lon="2.1255">
        <ele>616</ele>
        <time>2012-03-25T09:46:15Z</time>
      </trkpt>
      <trkpt lat="45.33028" lon="2.12543">
        <ele>615</ele>
        <time>2012-03-25T09:46:16Z</time>
      </trkpt>
      <trkpt lat="45.33031" lon="2.1254">
        <ele>615</ele>
        <time>2012-03-25T09:46:17Z</time>
      </trkpt>
      <trkpt lat="45.33034" lon="2.12538">
        <ele>614</ele>
        <time>2012-03-25T09:46:19Z</time>
      </trkpt>
      <trkpt lat="45.33039" lon="2.12535">
        <ele>614</ele>
        <time>2012-03-25T09:46:20Z</time>
      </trkpt>
      <trkpt lat="45.33043" lon="2.12531">
        <ele>614</ele>
        <time>2012-03-25T09:46:21Z</time>
      </trkpt>
      <trkpt lat="45.33046" lon="2.12529">
        <ele>615</ele>
        <time>2012-03-25T09:46:22Z</time>
      </trkpt>
      <trkpt lat="45.3305" lon="2.12526">
        <ele>615</ele>
        <time>2012-03-25T09:46:23Z</time>
      </trkpt>
      <trkpt lat="45.3305" lon="2.12526">
        <ele>615</ele>
        <time>2012-03-25T09:46:24Z</time>
      </trkpt>
      <trkpt lat="45.33053" lon="2.12526">
        <ele>617</ele>
        <time>2012-03-25T09:46:25Z</time>
      </trkpt>
      <trkpt lat="45.3306" lon="2.12522">
        <ele>618</ele>
        <time>2012-03-25T09:46:26Z</time>
      </trkpt>
      <trkpt lat="45.33063" lon="2.12523">
        <ele>619</ele>
        <time>2012-03-25T09:46:27Z</time>
      </trkpt>
      <trkpt lat="45.33066" lon="2.12521">
        <ele>619</ele>
        <time>2012-03-25T09:46:29Z</time>
      </trkpt>
      <trkpt lat="45.33068" lon="2.12523">
        <ele>619</ele>
        <time>2012-03-25T09:46:30Z</time>
      </trkpt>
      <trkpt lat="45.33071" lon="2.12521">
        <ele>620</ele>
        <time>2012-03-25T09:46:31Z</time>
      </trkpt>
      <trkpt lat="45.33075" lon="2.12519">
        <ele>620</ele>
        <time>2012-03-25T09:46:33Z</time>
      </trkpt>
      <trkpt lat="45.33078" lon="2.12516">
        <ele>620</ele>
        <time>2012-03-25T09:46:34Z</time>
      </trkpt>
      <trkpt lat="45.33086" lon="2.12519">
        <ele>620</ele>
        <time>2012-03-25T09:46:35Z</time>
      </trkpt>
      <trkpt lat="45.33088" lon="2.12521">
        <ele>620</ele>
        <time>2012-03-25T09:46:36Z</time>
      </trkpt>
      <trkpt lat="45.33092" lon="2.12521">
        <ele>620</ele>
        <time>2012-03-25T09:46:38Z</time>
      </trkpt>
      <trkpt lat="45.33099" lon="2.12525">
        <ele>620</ele>
        <time>2012-03-25T09:46:39Z</time>
      </trkpt>
      <trkpt lat="45.33103" lon="2.12526">
        <ele>620</ele>
        <time>2012-03-25T09:46:40Z</time>
      </trkpt>
      <trkpt lat="45.33108" lon="2.12528">
        <ele>620</ele>
        <time>2012-03-25T09:46:41Z</time>
      </trkpt>
      <trkpt lat="45.33111" lon="2.12528">
        <ele>620</ele>
        <time>2012-03-25T09:46:42Z</time>
      </trkpt>
      <trkpt lat="45.33111" lon="2.12528">
        <ele>620</ele>
        <time>2012-03-25T09:46:43Z</time>
      </trkpt>
      <trkpt lat="45.33115" lon="2.1253">
        <ele>620</ele>
        <time>2012-03-25T09:46:44Z</time>
      </trkpt>
      <trkpt lat="45.3312" lon="2.12529">
        <ele>620</ele>
        <time>2012-03-25T09:46:45Z</time>
      </trkpt>
      <trkpt lat="45.33123" lon="2.12526">
        <ele>619</ele>
        <time>2012-03-25T09:46:46Z</time>
      </trkpt>
      <trkpt lat="45.33127" lon="2.12531">
        <ele>619</ele>
        <time>2012-03-25T09:46:47Z</time>
      </trkpt>
      <trkpt lat="45.33132" lon="2.12529">
        <ele>620</ele>
        <time>2012-03-25T09:46:48Z</time>
      </trkpt>
      <trkpt lat="45.33135" lon="2.12528">
        <ele>619</ele>
        <time>2012-03-25T09:46:49Z</time>
      </trkpt>
      <trkpt lat="45.33138" lon="2.12527">
        <ele>620</ele>
        <time>2012-03-25T09:46:51Z</time>
      </trkpt>
      <trkpt lat="45.33141" lon="2.12526">
        <ele>621</ele>
        <time>2012-03-25T09:46:52Z</time>
      </trkpt>
      <trkpt lat="45.33148" lon="2.12526">
        <ele>621</ele>
        <time>2012-03-25T09:46:53Z</time>
      </trkpt>
      <trkpt lat="45.33149" lon="2.12531">
        <ele>622</ele>
        <time>2012-03-25T09:46:55Z</time>
      </trkpt>
      <trkpt lat="45.33153" lon="2.12533">
        <ele>622</ele>
        <time>2012-03-25T09:46:56Z</time>
      </trkpt>
      <trkpt lat="45.33161" lon="2.12533">
        <ele>623</ele>
        <time>2012-03-25T09:46:57Z</time>
      </trkpt>
      <trkpt lat="45.33164" lon="2.12535">
        <ele>623</ele>
        <time>2012-03-25T09:46:59Z</time>
      </trkpt>
      <trkpt lat="45.33167" lon="2.12536">
        <ele>623</ele>
        <time>2012-03-25T09:47:00Z</time>
      </trkpt>
      <trkpt lat="45.33173" lon="2.12541">
        <ele>625</ele>
        <time>2012-03-25T09:47:01Z</time>
      </trkpt>
      <trkpt lat="45.33174" lon="2.12548">
        <ele>627</ele>
        <time>2012-03-25T09:47:03Z</time>
      </trkpt>
      <trkpt lat="45.33183" lon="2.12558">
        <ele>627</ele>
        <time>2012-03-25T09:47:04Z</time>
      </trkpt>
      <trkpt lat="45.33186" lon="2.1256">
        <ele>627</ele>
        <time>2012-03-25T09:47:05Z</time>
      </trkpt>
      <trkpt lat="45.33189" lon="2.12562">
        <ele>627</ele>
        <time>2012-03-25T09:47:07Z</time>
      </trkpt>
      <trkpt lat="45.33197" lon="2.12567">
        <ele>627</ele>
        <time>2012-03-25T09:47:08Z</time>
      </trkpt>
      <trkpt lat="45.332" lon="2.12568">
        <ele>627</ele>
        <time>2012-03-25T09:47:09Z</time>
      </trkpt>
      <trkpt lat="45.33203" lon="2.12568">
        <ele>627</ele>
        <time>2012-03-25T09:47:11Z</time>
      </trkpt>
      <trkpt lat="45.3321" lon="2.12575">
        <ele>627</ele>
        <time>2012-03-25T09:47:12Z</time>
      </trkpt>
      <trkpt lat="45.33213" lon="2.12579">
        <ele>628</ele>
        <time>2012-03-25T09:47:13Z</time>
      </trkpt>
      <trkpt lat="45.33217" lon="2.12582">
        <ele>628</ele>
        <time>2012-03-25T09:47:15Z</time>
      </trkpt>
      <trkpt lat="45.33222" lon="2.12584">
        <ele>628</ele>
        <time>2012-03-25T09:47:16Z</time>
      </trkpt>
      <trkpt lat="45.33225" lon="2.12588">
        <ele>628</ele>
        <time>2012-03-25T09:47:17Z</time>
      </trkpt>
      <trkpt lat="45.33227" lon="2.12589">
        <ele>629</ele>
        <time>2012-03-25T09:47:19Z</time>
      </trkpt>
      <trkpt lat="45.3323" lon="2.12592">
        <ele>629</ele>
        <time>2012-03-25T09:47:20Z</time>
      </trkpt>
      <trkpt lat="45.33234" lon="2.12594">
        <ele>629</ele>
        <time>2012-03-25T09:47:21Z</time>
      </trkpt>
      <trkpt lat="45.33237" lon="2.12596">
        <ele>629</ele>
        <time>2012-03-25T09:47:22Z</time>
      </trkpt>
      <trkpt lat="45.33244" lon="2.12597">
        <ele>629</ele>
        <time>2012-03-25T09:47:23Z</time>
      </trkpt>
      <trkpt lat="45.33248" lon="2.12598">
        <ele>630</ele>
        <time>2012-03-25T09:47:24Z</time>
      </trkpt>
      <trkpt lat="45.33248" lon="2.12598">
        <ele>630</ele>
        <time>2012-03-25T09:47:26Z</time>
      </trkpt>
      <trkpt lat="45.33251" lon="2.12599">
        <ele>630</ele>
        <time>2012-03-25T09:47:27Z</time>
      </trkpt>
      <trkpt lat="45.33258" lon="2.12599">
        <ele>632</ele>
        <time>2012-03-25T09:47:28Z</time>
      </trkpt>
      <trkpt lat="45.33261" lon="2.12601">
        <ele>632</ele>
        <time>2012-03-25T09:47:30Z</time>
      </trkpt>
      <trkpt lat="45.33264" lon="2.12601">
        <ele>632</ele>
        <time>2012-03-25T09:47:31Z</time>
      </trkpt>
      <trkpt lat="45.33271" lon="2.12602">
        <ele>633</ele>
        <time>2012-03-25T09:47:32Z</time>
      </trkpt>
      <trkpt lat="45.33274" lon="2.12602">
        <ele>633</ele>
        <time>2012-03-25T09:47:34Z</time>
      </trkpt>
      <trkpt lat="45.33278" lon="2.12603">
        <ele>634</ele>
        <time>2012-03-25T09:47:35Z</time>
      </trkpt>
      <trkpt lat="45.33287" lon="2.12602">
        <ele>632</ele>
        <time>2012-03-25T09:47:36Z</time>
      </trkpt>
      <trkpt lat="45.33291" lon="2.12602">
        <ele>633</ele>
        <time>2012-03-25T09:47:38Z</time>
      </trkpt>
      <trkpt lat="45.33294" lon="2.12602">
        <ele>632</ele>
        <time>2012-03-25T09:47:39Z</time>
      </trkpt>
      <trkpt lat="45.33302" lon="2.12602">
        <ele>631</ele>
        <time>2012-03-25T09:47:40Z</time>
      </trkpt>
      <trkpt lat="45.33306" lon="2.12604">
        <ele>632</ele>
        <time>2012-03-25T09:47:42Z</time>
      </trkpt>
      <trkpt lat="45.33319" lon="2.12601">
        <ele>630</ele>
        <time>2012-03-25T09:47:43Z</time>
      </trkpt>
      <trkpt lat="45.33323" lon="2.12598">
        <ele>630</ele>
        <time>2012-03-25T09:47:44Z</time>
      </trkpt>
      <trkpt lat="45.33323" lon="2.12598">
        <ele>630</ele>
        <time>2012-03-25T09:47:46Z</time>
      </trkpt>
      <trkpt lat="45.33331" lon="2.12595">
        <ele>631</ele>
        <time>2012-03-25T09:47:47Z</time>
      </trkpt>
      <trkpt lat="45.33334" lon="2.12592">
        <ele>632</ele>
        <time>2012-03-25T09:47:48Z</time>
      </trkpt>
      <trkpt lat="45.33334" lon="2.12592">
        <ele>632</ele>
        <time>2012-03-25T09:47:50Z</time>
      </trkpt>
      <trkpt lat="45.33337" lon="2.1259">
        <ele>632</ele>
        <time>2012-03-25T09:47:51Z</time>
      </trkpt>
      <trkpt lat="45.33346" lon="2.12584">
        <ele>633</ele>
        <time>2012-03-25T09:47:52Z</time>
      </trkpt>
      <trkpt lat="45.3335" lon="2.12581">
        <ele>633</ele>
        <time>2012-03-25T09:47:54Z</time>
      </trkpt>
      <trkpt lat="45.3335" lon="2.12581">
        <ele>633</ele>
        <time>2012-03-25T09:47:55Z</time>
      </trkpt>
      <trkpt lat="45.33356" lon="2.12576">
        <ele>633</ele>
        <time>2012-03-25T09:47:56Z</time>
      </trkpt>
      <trkpt lat="45.3336" lon="2.12574">
        <ele>633</ele>
        <time>2012-03-25T09:47:58Z</time>
      </trkpt>
      <trkpt lat="45.33364" lon="2.12572">
        <ele>633</ele>
        <time>2012-03-25T09:47:59Z</time>
      </trkpt>
      <trkpt lat="45.3337" lon="2.12566">
        <ele>636</ele>
        <time>2012-03-25T09:48:00Z</time>
      </trkpt>
      <trkpt lat="45.33373" lon="2.12564">
        <ele>635</ele>
        <time>2012-03-25T09:48:02Z</time>
      </trkpt>
      <trkpt lat="45.33377" lon="2.12561">
        <ele>634</ele>
        <time>2012-03-25T09:48:03Z</time>
      </trkpt>
      <trkpt lat="45.33386" lon="2.12553">
        <ele>633</ele>
        <time>2012-03-25T09:48:04Z</time>
      </trkpt>
      <trkpt lat="45.33389" lon="2.12551">
        <ele>633</ele>
        <time>2012-03-25T09:48:06Z</time>
      </trkpt>
      <trkpt lat="45.334" lon="2.12538">
        <ele>633</ele>
        <time>2012-03-25T09:48:07Z</time>
      </trkpt>
      <trkpt lat="45.33403" lon="2.12536">
        <ele>632</ele>
        <time>2012-03-25T09:48:08Z</time>
      </trkpt>
      <trkpt lat="45.33407" lon="2.12532">
        <ele>632</ele>
        <time>2012-03-25T09:48:10Z</time>
      </trkpt>
      <trkpt lat="45.33414" lon="2.12523">
        <ele>631</ele>
        <time>2012-03-25T09:48:11Z</time>
      </trkpt>
      <trkpt lat="45.33417" lon="2.1252">
        <ele>631</ele>
        <time>2012-03-25T09:48:12Z</time>
      </trkpt>
      <trkpt lat="45.3342" lon="2.12516">
        <ele>631</ele>
        <time>2012-03-25T09:48:14Z</time>
      </trkpt>
      <trkpt lat="45.33428" lon="2.12507">
        <ele>630</ele>
        <time>2012-03-25T09:48:15Z</time>
      </trkpt>
      <trkpt lat="45.33431" lon="2.12504">
        <ele>630</ele>
        <time>2012-03-25T09:48:16Z</time>
      </trkpt>
      <trkpt lat="45.33434" lon="2.125">
        <ele>630</ele>
        <time>2012-03-25T09:48:18Z</time>
      </trkpt>
      <trkpt lat="45.33441" lon="2.12493">
        <ele>630</ele>
        <time>2012-03-25T09:48:19Z</time>
      </trkpt>
      <trkpt lat="45.33445" lon="2.1249">
        <ele>632</ele>
        <time>2012-03-25T09:48:20Z</time>
      </trkpt>
      <trkpt lat="45.33447" lon="2.12488">
        <ele>633</ele>
        <time>2012-03-25T09:48:22Z</time>
      </trkpt>
      <trkpt lat="45.33454" lon="2.1248">
        <ele>633</ele>
        <time>2012-03-25T09:48:23Z</time>
      </trkpt>
      <trkpt lat="45.33457" lon="2.12476">
        <ele>634</ele>
        <time>2012-03-25T09:48:24Z</time>
      </trkpt>
      <trkpt lat="45.33461" lon="2.1247">
        <ele>634</ele>
        <time>2012-03-25T09:48:26Z</time>
      </trkpt>
      <trkpt lat="45.33467" lon="2.12462">
        <ele>633</ele>
        <time>2012-03-25T09:48:27Z</time>
      </trkpt>
      <trkpt lat="45.3347" lon="2.12457">
        <ele>634</ele>
        <time>2012-03-25T09:48:28Z</time>
      </trkpt>
      <trkpt lat="45.3347" lon="2.12457">
        <ele>634</ele>
        <time>2012-03-25T09:48:29Z</time>
      </trkpt>
      <trkpt lat="45.33473" lon="2.12454">
        <ele>633</ele>
        <time>2012-03-25T09:48:30Z</time>
      </trkpt>
      <trkpt lat="45.33482" lon="2.1245">
        <ele>635</ele>
        <time>2012-03-25T09:48:31Z</time>
      </trkpt>
      <trkpt lat="45.33486" lon="2.12447">
        <ele>636</ele>
        <time>2012-03-25T09:48:33Z</time>
      </trkpt>
      <trkpt lat="45.3349" lon="2.12444">
        <ele>636</ele>
        <time>2012-03-25T09:48:34Z</time>
      </trkpt>
      <trkpt lat="45.33492" lon="2.1245">
        <ele>641</ele>
        <time>2012-03-25T09:48:35Z</time>
      </trkpt>
      <trkpt lat="45.33497" lon="2.12449">
        <ele>641</ele>
        <time>2012-03-25T09:48:37Z</time>
      </trkpt>
      <trkpt lat="45.335" lon="2.12449">
        <ele>641</ele>
        <time>2012-03-25T09:48:38Z</time>
      </trkpt>
      <trkpt lat="45.33509" lon="2.12446">
        <ele>641</ele>
        <time>2012-03-25T09:48:39Z</time>
      </trkpt>
      <trkpt lat="45.33514" lon="2.12444">
        <ele>640</ele>
        <time>2012-03-25T09:48:41Z</time>
      </trkpt>
      <trkpt lat="45.33518" lon="2.12444">
        <ele>640</ele>
        <time>2012-03-25T09:48:42Z</time>
      </trkpt>
      <trkpt lat="45.33529" lon="2.12446">
        <ele>639</ele>
        <time>2012-03-25T09:48:43Z</time>
      </trkpt>
      <trkpt lat="45.33535" lon="2.12449">
        <ele>639</ele>
        <time>2012-03-25T09:48:45Z</time>
      </trkpt>
      <trkpt lat="45.33557" lon="2.12456">
        <ele>640</ele>
        <time>2012-03-25T09:48:46Z</time>
      </trkpt>
      <trkpt lat="45.33563" lon="2.12461">
        <ele>641</ele>
        <time>2012-03-25T09:48:47Z</time>
      </trkpt>
      <trkpt lat="45.33571" lon="2.12464">
        <ele>641</ele>
        <time>2012-03-25T09:48:48Z</time>
      </trkpt>
      <trkpt lat="45.33578" lon="2.12465">
        <ele>640</ele>
        <time>2012-03-25T09:48:49Z</time>
      </trkpt>
      <trkpt lat="45.33587" lon="2.12468">
        <ele>640</ele>
        <time>2012-03-25T09:48:50Z</time>
      </trkpt>
      <trkpt lat="45.33596" lon="2.1247">
        <ele>640</ele>
        <time>2012-03-25T09:48:51Z</time>
      </trkpt>
      <trkpt lat="45.33605" lon="2.12468">
        <ele>640</ele>
        <time>2012-03-25T09:48:52Z</time>
      </trkpt>
      <trkpt lat="45.33614" lon="2.12467">
        <ele>640</ele>
        <time>2012-03-25T09:48:53Z</time>
      </trkpt>
      <trkpt lat="45.33623" lon="2.12467">
        <ele>639</ele>
        <time>2012-03-25T09:48:54Z</time>
      </trkpt>
      <trkpt lat="45.33632" lon="2.12467">
        <ele>639</ele>
        <time>2012-03-25T09:48:55Z</time>
      </trkpt>
      <trkpt lat="45.3364" lon="2.12463">
        <ele>639</ele>
        <time>2012-03-25T09:48:56Z</time>
      </trkpt>
      <trkpt lat="45.3365" lon="2.12463">
        <ele>640</ele>
        <time>2012-03-25T09:48:57Z</time>
      </trkpt>
      <trkpt lat="45.33661" lon="2.12464">
        <ele>639</ele>
        <time>2012-03-25T09:48:58Z</time>
      </trkpt>
      <trkpt lat="45.3367" lon="2.12466">
        <ele>638</ele>
        <time>2012-03-25T09:48:59Z</time>
      </trkpt>
      <trkpt lat="45.33679" lon="2.12471">
        <ele>638</ele>
        <time>2012-03-25T09:49:00Z</time>
      </trkpt>
      <trkpt lat="45.33685" lon="2.12479">
        <ele>638</ele>
        <time>2012-03-25T09:49:01Z</time>
      </trkpt>
      <trkpt lat="45.33691" lon="2.12488">
        <ele>638</ele>
        <time>2012-03-25T09:49:03Z</time>
      </trkpt>
      <trkpt lat="45.33698" lon="2.12498">
        <ele>637</ele>
        <time>2012-03-25T09:49:04Z</time>
      </trkpt>
      <trkpt lat="45.33703" lon="2.12509">
        <ele>637</ele>
        <time>2012-03-25T09:49:05Z</time>
      </trkpt>
      <trkpt lat="45.33709" lon="2.12522">
        <ele>637</ele>
        <time>2012-03-25T09:49:06Z</time>
      </trkpt>
      <trkpt lat="45.33716" lon="2.1253">
        <ele>637</ele>
        <time>2012-03-25T09:49:07Z</time>
      </trkpt>
      <trkpt lat="45.33725" lon="2.12537">
        <ele>636</ele>
        <time>2012-03-25T09:49:08Z</time>
      </trkpt>
      <trkpt lat="45.33736" lon="2.12544">
        <ele>635</ele>
        <time>2012-03-25T09:49:09Z</time>
      </trkpt>
      <trkpt lat="45.33746" lon="2.1255">
        <ele>635</ele>
        <time>2012-03-25T09:49:10Z</time>
      </trkpt>
      <trkpt lat="45.33755" lon="2.12557">
        <ele>634</ele>
        <time>2012-03-25T09:49:11Z</time>
      </trkpt>
      <trkpt lat="45.3376" lon="2.12565">
        <ele>633</ele>
        <time>2012-03-25T09:49:12Z</time>
      </trkpt>
      <trkpt lat="45.33765" lon="2.12575">
        <ele>633</ele>
        <time>2012-03-25T09:49:13Z</time>
      </trkpt>
      <trkpt lat="45.33768" lon="2.12586">
        <ele>633</ele>
        <time>2012-03-25T09:49:14Z</time>
      </trkpt>
      <trkpt lat="45.33768" lon="2.12596">
        <ele>633</ele>
        <time>2012-03-25T09:49:15Z</time>
      </trkpt>
      <trkpt lat="45.33767" lon="2.12607">
        <ele>633</ele>
        <time>2012-03-25T09:49:16Z</time>
      </trkpt>
      <trkpt lat="45.33765" lon="2.12618">
        <ele>633</ele>
        <time>2012-03-25T09:49:17Z</time>
      </trkpt>
      <trkpt lat="45.33764" lon="2.12628">
        <ele>634</ele>
        <time>2012-03-25T09:49:18Z</time>
      </trkpt>
      <trkpt lat="45.33763" lon="2.12639">
        <ele>633</ele>
        <time>2012-03-25T09:49:19Z</time>
      </trkpt>
      <trkpt lat="45.33762" lon="2.12648">
        <ele>633</ele>
        <time>2012-03-25T09:49:20Z</time>
      </trkpt>
      <trkpt lat="45.3376" lon="2.12656">
        <ele>633</ele>
        <time>2012-03-25T09:49:21Z</time>
      </trkpt>
      <trkpt lat="45.3376" lon="2.12665">
        <ele>633</ele>
        <time>2012-03-25T09:49:22Z</time>
      </trkpt>
      <trkpt lat="45.33759" lon="2.12673">
        <ele>632</ele>
        <time>2012-03-25T09:49:23Z</time>
      </trkpt>
      <trkpt lat="45.3376" lon="2.12682">
        <ele>633</ele>
        <time>2012-03-25T09:49:24Z</time>
      </trkpt>
      <trkpt lat="45.3376" lon="2.1269">
        <ele>632</ele>
        <time>2012-03-25T09:49:25Z</time>
      </trkpt>
      <trkpt lat="45.33762" lon="2.12704">
        <ele>632</ele>
        <time>2012-03-25T09:49:26Z</time>
      </trkpt>
      <trkpt lat="45.33762" lon="2.12711">
        <ele>632</ele>
        <time>2012-03-25T09:49:28Z</time>
      </trkpt>
      <trkpt lat="45.33763" lon="2.12719">
        <ele>632</ele>
        <time>2012-03-25T09:49:29Z</time>
      </trkpt>
      <trkpt lat="45.33764" lon="2.12726">
        <ele>633</ele>
        <time>2012-03-25T09:49:30Z</time>
      </trkpt>
      <trkpt lat="45.33767" lon="2.12735">
        <ele>633</ele>
        <time>2012-03-25T09:49:32Z</time>
      </trkpt>
      <trkpt lat="45.3377" lon="2.12742">
        <ele>633</ele>
        <time>2012-03-25T09:49:33Z</time>
      </trkpt>
      <trkpt lat="45.33774" lon="2.12756">
        <ele>633</ele>
        <time>2012-03-25T09:49:34Z</time>
      </trkpt>
      <trkpt lat="45.33778" lon="2.12762">
        <ele>633</ele>
        <time>2012-03-25T09:49:36Z</time>
      </trkpt>
      <trkpt lat="45.3378" lon="2.12767">
        <ele>633</ele>
        <time>2012-03-25T09:49:37Z</time>
      </trkpt>
      <trkpt lat="45.33787" lon="2.12778">
        <ele>633</ele>
        <time>2012-03-25T09:49:38Z</time>
      </trkpt>
      <trkpt lat="45.33792" lon="2.12783">
        <ele>634</ele>
        <time>2012-03-25T09:49:40Z</time>
      </trkpt>
      <trkpt lat="45.33806" lon="2.12793">
        <ele>633</ele>
        <time>2012-03-25T09:49:41Z</time>
      </trkpt>
      <trkpt lat="45.3381" lon="2.12796">
        <ele>634</ele>
        <time>2012-03-25T09:49:42Z</time>
      </trkpt>
      <trkpt lat="45.33815" lon="2.12799">
        <ele>633</ele>
        <time>2012-03-25T09:49:44Z</time>
      </trkpt>
      <trkpt lat="45.33825" lon="2.12806">
        <ele>632</ele>
        <time>2012-03-25T09:49:45Z</time>
      </trkpt>
      <trkpt lat="45.33829" lon="2.12809">
        <ele>632</ele>
        <time>2012-03-25T09:49:46Z</time>
      </trkpt>
      <trkpt lat="45.33833" lon="2.12812">
        <ele>633</ele>
        <time>2012-03-25T09:49:48Z</time>
      </trkpt>
      <trkpt lat="45.33843" lon="2.12815">
        <ele>633</ele>
        <time>2012-03-25T09:49:49Z</time>
      </trkpt>
      <trkpt lat="45.33847" lon="2.12818">
        <ele>633</ele>
        <time>2012-03-25T09:49:50Z</time>
      </trkpt>
      <trkpt lat="45.33852" lon="2.1282">
        <ele>633</ele>
        <time>2012-03-25T09:49:52Z</time>
      </trkpt>
      <trkpt lat="45.33861" lon="2.12823">
        <ele>633</ele>
        <time>2012-03-25T09:49:53Z</time>
      </trkpt>
      <trkpt lat="45.33866" lon="2.12823">
        <ele>632</ele>
        <time>2012-03-25T09:49:54Z</time>
      </trkpt>
      <trkpt lat="45.3387" lon="2.12825">
        <ele>632</ele>
        <time>2012-03-25T09:49:56Z</time>
      </trkpt>
      <trkpt lat="45.33879" lon="2.12826">
        <ele>632</ele>
        <time>2012-03-25T09:49:57Z</time>
      </trkpt>
      <trkpt lat="45.33884" lon="2.12825">
        <ele>632</ele>
        <time>2012-03-25T09:49:58Z</time>
      </trkpt>
      <trkpt lat="45.33888" lon="2.12827">
        <ele>632</ele>
        <time>2012-03-25T09:50:00Z</time>
      </trkpt>
      <trkpt lat="45.33897" lon="2.12831">
        <ele>631</ele>
        <time>2012-03-25T09:50:01Z</time>
      </trkpt>
      <trkpt lat="45.33903" lon="2.12832">
        <ele>632</ele>
        <time>2012-03-25T09:50:02Z</time>
      </trkpt>
      <trkpt lat="45.33907" lon="2.12837">
        <ele>633</ele>
        <time>2012-03-25T09:50:04Z</time>
      </trkpt>
      <trkpt lat="45.33916" lon="2.12837">
        <ele>632</ele>
        <time>2012-03-25T09:50:05Z</time>
      </trkpt>
      <trkpt lat="45.33916" lon="2.12837">
        <ele>632</ele>
        <time>2012-03-25T09:50:06Z</time>
      </trkpt>
      <trkpt lat="45.33921" lon="2.12838">
        <ele>632</ele>
        <time>2012-03-25T09:50:07Z</time>
      </trkpt>
      <trkpt lat="45.33925" lon="2.12838">
        <ele>632</ele>
        <time>2012-03-25T09:50:08Z</time>
      </trkpt>
      <trkpt lat="45.33929" lon="2.12838">
        <ele>632</ele>
        <time>2012-03-25T09:50:09Z</time>
      </trkpt>
      <trkpt lat="45.33933" lon="2.12839">
        <ele>632</ele>
        <time>2012-03-25T09:50:11Z</time>
      </trkpt>
      <trkpt lat="45.33936" lon="2.12843">
        <ele>632</ele>
        <time>2012-03-25T09:50:12Z</time>
      </trkpt>
      <trkpt lat="45.33945" lon="2.12848">
        <ele>632</ele>
        <time>2012-03-25T09:50:13Z</time>
      </trkpt>
      <trkpt lat="45.33947" lon="2.12853">
        <ele>632</ele>
        <time>2012-03-25T09:50:15Z</time>
      </trkpt>
      <trkpt lat="45.3395" lon="2.12856">
        <ele>632</ele>
        <time>2012-03-25T09:50:16Z</time>
      </trkpt>
      <trkpt lat="45.33953" lon="2.12869">
        <ele>632</ele>
        <time>2012-03-25T09:50:17Z</time>
      </trkpt>
      <trkpt lat="45.33952" lon="2.12878">
        <ele>632</ele>
        <time>2012-03-25T09:50:19Z</time>
      </trkpt>
      <trkpt lat="45.3395" lon="2.12886">
        <ele>632</ele>
        <time>2012-03-25T09:50:20Z</time>
      </trkpt>
      <trkpt lat="45.33945" lon="2.12905">
        <ele>632</ele>
        <time>2012-03-25T09:50:21Z</time>
      </trkpt>
      <trkpt lat="45.33942" lon="2.12914">
        <ele>632</ele>
        <time>2012-03-25T09:50:23Z</time>
      </trkpt>
      <trkpt lat="45.33934" lon="2.12942">
        <ele>632</ele>
        <time>2012-03-25T09:50:24Z</time>
      </trkpt>
      <trkpt lat="45.33931" lon="2.12952">
        <ele>632</ele>
        <time>2012-03-25T09:50:25Z</time>
      </trkpt>
      <trkpt lat="45.33929" lon="2.12962">
        <ele>632</ele>
        <time>2012-03-25T09:50:27Z</time>
      </trkpt>
      <trkpt lat="45.33922" lon="2.12982">
        <ele>631</ele>
        <time>2012-03-25T09:50:28Z</time>
      </trkpt>
      <trkpt lat="45.33919" lon="2.12993">
        <ele>631</ele>
        <time>2012-03-25T09:50:29Z</time>
      </trkpt>
      <trkpt lat="45.33917" lon="2.13002">
        <ele>631</ele>
        <time>2012-03-25T09:50:31Z</time>
      </trkpt>
      <trkpt lat="45.33912" lon="2.13022">
        <ele>631</ele>
        <time>2012-03-25T09:50:32Z</time>
      </trkpt>
      <trkpt lat="45.33909" lon="2.13032">
        <ele>630</ele>
        <time>2012-03-25T09:50:33Z</time>
      </trkpt>
      <trkpt lat="45.33907" lon="2.13042">
        <ele>631</ele>
        <time>2012-03-25T09:50:35Z</time>
      </trkpt>
      <trkpt lat="45.33902" lon="2.13061">
        <ele>631</ele>
        <time>2012-03-25T09:50:36Z</time>
      </trkpt>
      <trkpt lat="45.33899" lon="2.13068">
        <ele>631</ele>
        <time>2012-03-25T09:50:37Z</time>
      </trkpt>
      <trkpt lat="45.33896" lon="2.13079">
        <ele>631</ele>
        <time>2012-03-25T09:50:39Z</time>
      </trkpt>
      <trkpt lat="45.33888" lon="2.13101">
        <ele>631</ele>
        <time>2012-03-25T09:50:40Z</time>
      </trkpt>
      <trkpt lat="45.33884" lon="2.13113">
        <ele>631</ele>
        <time>2012-03-25T09:50:41Z</time>
      </trkpt>
      <trkpt lat="45.33882" lon="2.13126">
        <ele>631</ele>
        <time>2012-03-25T09:50:43Z</time>
      </trkpt>
      <trkpt lat="45.33873" lon="2.13149">
        <ele>630</ele>
        <time>2012-03-25T09:50:44Z</time>
      </trkpt>
      <trkpt lat="45.33868" lon="2.13161">
        <ele>629</ele>
        <time>2012-03-25T09:50:45Z</time>
      </trkpt>
      <trkpt lat="45.33862" lon="2.13173">
        <ele>630</ele>
        <time>2012-03-25T09:50:47Z</time>
      </trkpt>
      <trkpt lat="45.33852" lon="2.13197">
        <ele>629</ele>
        <time>2012-03-25T09:50:48Z</time>
      </trkpt>
      <trkpt lat="45.33848" lon="2.13212">
        <ele>629</ele>
        <time>2012-03-25T09:50:49Z</time>
      </trkpt>
      <trkpt lat="45.33844" lon="2.13224">
        <ele>629</ele>
        <time>2012-03-25T09:50:51Z</time>
      </trkpt>
      <trkpt lat="45.33834" lon="2.13256">
        <ele>628</ele>
        <time>2012-03-25T09:50:52Z</time>
      </trkpt>
      <trkpt lat="45.33831" lon="2.13271">
        <ele>627</ele>
        <time>2012-03-25T09:50:53Z</time>
      </trkpt>
      <trkpt lat="45.33828" lon="2.13284">
        <ele>627</ele>
        <time>2012-03-25T09:50:55Z</time>
      </trkpt>
      <trkpt lat="45.33824" lon="2.13318">
        <ele>627</ele>
        <time>2012-03-25T09:50:56Z</time>
      </trkpt>
      <trkpt lat="45.33824" lon="2.13335">
        <ele>627</ele>
        <time>2012-03-25T09:50:57Z</time>
      </trkpt>
      <trkpt lat="45.33823" lon="2.13351">
        <ele>627</ele>
        <time>2012-03-25T09:50:59Z</time>
      </trkpt>
      <trkpt lat="45.33823" lon="2.13385">
        <ele>625</ele>
        <time>2012-03-25T09:51:00Z</time>
      </trkpt>
      <trkpt lat="45.33819" lon="2.134">
        <ele>623</ele>
        <time>2012-03-25T09:51:01Z</time>
      </trkpt>
      <trkpt lat="45.33816" lon="2.13416">
        <ele>622</ele>
        <time>2012-03-25T09:51:03Z</time>
      </trkpt>
      <trkpt lat="45.33809" lon="2.13451">
        <ele>621</ele>
        <time>2012-03-25T09:51:04Z</time>
      </trkpt>
      <trkpt lat="45.33804" lon="2.13464">
        <ele>620</ele>
        <time>2012-03-25T09:51:05Z</time>
      </trkpt>
      <trkpt lat="45.33799" lon="2.13478">
        <ele>618</ele>
        <time>2012-03-25T09:51:07Z</time>
      </trkpt>
      <trkpt lat="45.33786" lon="2.13506">
        <ele>616</ele>
        <time>2012-03-25T09:51:08Z</time>
      </trkpt>
      <trkpt lat="45.33779" lon="2.13518">
        <ele>616</ele>
        <time>2012-03-25T09:51:09Z</time>
      </trkpt>
      <trkpt lat="45.33771" lon="2.13531">
        <ele>615</ele>
        <time>2012-03-25T09:51:11Z</time>
      </trkpt>
      <trkpt lat="45.33754" lon="2.13553">
        <ele>615</ele>
        <time>2012-03-25T09:51:12Z</time>
      </trkpt>
      <trkpt lat="45.33747" lon="2.13562">
        <ele>615</ele>
        <time>2012-03-25T09:51:13Z</time>
      </trkpt>
      <trkpt lat="45.33737" lon="2.13569">
        <ele>615</ele>
        <time>2012-03-25T09:51:15Z</time>
      </trkpt>
      <trkpt lat="45.33723" lon="2.1359">
        <ele>613</ele>
        <time>2012-03-25T09:51:16Z</time>
      </trkpt>
      <trkpt lat="45.33717" lon="2.13599">
        <ele>613</ele>
        <time>2012-03-25T09:51:17Z</time>
      </trkpt>
      <trkpt lat="45.33711" lon="2.13611">
        <ele>613</ele>
        <time>2012-03-25T09:51:19Z</time>
      </trkpt>
      <trkpt lat="45.33698" lon="2.13635">
        <ele>615</ele>
        <time>2012-03-25T09:51:20Z</time>
      </trkpt>
      <trkpt lat="45.33698" lon="2.13635">
        <ele>615</ele>
        <time>2012-03-25T09:51:22Z</time>
      </trkpt>
      <trkpt lat="45.33694" lon="2.13649">
        <ele>614</ele>
        <time>2012-03-25T09:51:23Z</time>
      </trkpt>
      <trkpt lat="45.33692" lon="2.13662">
        <ele>615</ele>
        <time>2012-03-25T09:51:24Z</time>
      </trkpt>
      <trkpt lat="45.33692" lon="2.13674">
        <ele>615</ele>
        <time>2012-03-25T09:51:25Z</time>
      </trkpt>
      <trkpt lat="45.33693" lon="2.13686">
        <ele>613</ele>
        <time>2012-03-25T09:51:27Z</time>
      </trkpt>
      <trkpt lat="45.33694" lon="2.13698">
        <ele>613</ele>
        <time>2012-03-25T09:51:28Z</time>
      </trkpt>
      <trkpt lat="45.33701" lon="2.13722">
        <ele>612</ele>
        <time>2012-03-25T09:51:29Z</time>
      </trkpt>
      <trkpt lat="45.33704" lon="2.13731">
        <ele>612</ele>
        <time>2012-03-25T09:51:31Z</time>
      </trkpt>
      <trkpt lat="45.33707" lon="2.13743">
        <ele>611</ele>
        <time>2012-03-25T09:51:32Z</time>
      </trkpt>
      <trkpt lat="45.33713" lon="2.13766">
        <ele>611</ele>
        <time>2012-03-25T09:51:33Z</time>
      </trkpt>
      <trkpt lat="45.33715" lon="2.13776">
        <ele>611</ele>
        <time>2012-03-25T09:51:35Z</time>
      </trkpt>
      <trkpt lat="45.33715" lon="2.13785">
        <ele>610</ele>
        <time>2012-03-25T09:51:36Z</time>
      </trkpt>
      <trkpt lat="45.33718" lon="2.13804">
        <ele>611</ele>
        <time>2012-03-25T09:51:37Z</time>
      </trkpt>
      <trkpt lat="45.33722" lon="2.13822">
        <ele>610</ele>
        <time>2012-03-25T09:51:39Z</time>
      </trkpt>
      <trkpt lat="45.33726" lon="2.13841">
        <ele>609</ele>
        <time>2012-03-25T09:51:40Z</time>
      </trkpt>
      <trkpt lat="45.33727" lon="2.1385">
        <ele>609</ele>
        <time>2012-03-25T09:51:41Z</time>
      </trkpt>
      <trkpt lat="45.33728" lon="2.1386">
        <ele>610</ele>
        <time>2012-03-25T09:51:43Z</time>
      </trkpt>
      <trkpt lat="45.33732" lon="2.13878">
        <ele>609</ele>
        <time>2012-03-25T09:51:44Z</time>
      </trkpt>
      <trkpt lat="45.33732" lon="2.13886">
        <ele>610</ele>
        <time>2012-03-25T09:51:45Z</time>
      </trkpt>
      <trkpt lat="45.33732" lon="2.13895">
        <ele>610</ele>
        <time>2012-03-25T09:51:47Z</time>
      </trkpt>
      <trkpt lat="45.33733" lon="2.13913">
        <ele>610</ele>
        <time>2012-03-25T09:51:48Z</time>
      </trkpt>
      <trkpt lat="45.33733" lon="2.13924">
        <ele>609</ele>
        <time>2012-03-25T09:51:49Z</time>
      </trkpt>
      <trkpt lat="45.33732" lon="2.13935">
        <ele>609</ele>
        <time>2012-03-25T09:51:51Z</time>
      </trkpt>
      <trkpt lat="45.33731" lon="2.13956">
        <ele>609</ele>
        <time>2012-03-25T09:51:52Z</time>
      </trkpt>
      <trkpt lat="45.33731" lon="2.13966">
        <ele>609</ele>
        <time>2012-03-25T09:51:53Z</time>
      </trkpt>
      <trkpt lat="45.33731" lon="2.13975">
        <ele>608</ele>
        <time>2012-03-25T09:51:55Z</time>
      </trkpt>
      <trkpt lat="45.3373" lon="2.13994">
        <ele>609</ele>
        <time>2012-03-25T09:51:56Z</time>
      </trkpt>
      <trkpt lat="45.3373" lon="2.14005">
        <ele>609</ele>
        <time>2012-03-25T09:51:57Z</time>
      </trkpt>
      <trkpt lat="45.3373" lon="2.14015">
        <ele>609</ele>
        <time>2012-03-25T09:51:59Z</time>
      </trkpt>
      <trkpt lat="45.3373" lon="2.14037">
        <ele>609</ele>
        <time>2012-03-25T09:52:00Z</time>
      </trkpt>
      <trkpt lat="45.33732" lon="2.14045">
        <ele>609</ele>
        <time>2012-03-25T09:52:01Z</time>
      </trkpt>
      <trkpt lat="45.33733" lon="2.14056">
        <ele>609</ele>
        <time>2012-03-25T09:52:03Z</time>
      </trkpt>
      <trkpt lat="45.33736" lon="2.14075">
        <ele>608</ele>
        <time>2012-03-25T09:52:04Z</time>
      </trkpt>
      <trkpt lat="45.33738" lon="2.14084">
        <ele>608</ele>
        <time>2012-03-25T09:52:05Z</time>
      </trkpt>
      <trkpt lat="45.33741" lon="2.14093">
        <ele>609</ele>
        <time>2012-03-25T09:52:07Z</time>
      </trkpt>
      <trkpt lat="45.33746" lon="2.14112">
        <ele>610</ele>
        <time>2012-03-25T09:52:08Z</time>
      </trkpt>
      <trkpt lat="45.33749" lon="2.14122">
        <ele>610</ele>
        <time>2012-03-25T09:52:09Z</time>
      </trkpt>
      <trkpt lat="45.33752" lon="2.14133">
        <ele>610</ele>
        <time>2012-03-25T09:52:10Z</time>
      </trkpt>
      <trkpt lat="45.33754" lon="2.14143">
        <ele>609</ele>
        <time>2012-03-25T09:52:11Z</time>
      </trkpt>
      <trkpt lat="45.33757" lon="2.14154">
        <ele>609</ele>
        <time>2012-03-25T09:52:12Z</time>
      </trkpt>
      <trkpt lat="45.33762" lon="2.1416">
        <ele>607</ele>
        <time>2012-03-25T09:52:13Z</time>
      </trkpt>
      <trkpt lat="45.33766" lon="2.1417">
        <ele>607</ele>
        <time>2012-03-25T09:52:14Z</time>
      </trkpt>
      <trkpt lat="45.33771" lon="2.14181">
        <ele>606</ele>
        <time>2012-03-25T09:52:15Z</time>
      </trkpt>
      <trkpt lat="45.33773" lon="2.14195">
        <ele>605</ele>
        <time>2012-03-25T09:52:16Z</time>
      </trkpt>
      <trkpt lat="45.33778" lon="2.14208">
        <ele>605</ele>
        <time>2012-03-25T09:52:17Z</time>
      </trkpt>
      <trkpt lat="45.33781" lon="2.14223">
        <ele>605</ele>
        <time>2012-03-25T09:52:18Z</time>
      </trkpt>
      <trkpt lat="45.33784" lon="2.14236">
        <ele>605</ele>
        <time>2012-03-25T09:52:19Z</time>
      </trkpt>
      <trkpt lat="45.33787" lon="2.1425">
        <ele>605</ele>
        <time>2012-03-25T09:52:20Z</time>
      </trkpt>
      <trkpt lat="45.33787" lon="2.14265">
        <ele>605</ele>
        <time>2012-03-25T09:52:21Z</time>
      </trkpt>
      <trkpt lat="45.33789" lon="2.14279">
        <ele>606</ele>
        <time>2012-03-25T09:52:22Z</time>
      </trkpt>
      <trkpt lat="45.33788" lon="2.14294">
        <ele>606</ele>
        <time>2012-03-25T09:52:24Z</time>
      </trkpt>
      <trkpt lat="45.33785" lon="2.14306">
        <ele>606</ele>
        <time>2012-03-25T09:52:25Z</time>
      </trkpt>
      <trkpt lat="45.33783" lon="2.1432">
        <ele>606</ele>
        <time>2012-03-25T09:52:26Z</time>
      </trkpt>
      <trkpt lat="45.33781" lon="2.14334">
        <ele>606</ele>
        <time>2012-03-25T09:52:27Z</time>
      </trkpt>
      <trkpt lat="45.33781" lon="2.1435">
        <ele>606</ele>
        <time>2012-03-25T09:52:28Z</time>
      </trkpt>
      <trkpt lat="45.33782" lon="2.14362">
        <ele>605</ele>
        <time>2012-03-25T09:52:29Z</time>
      </trkpt>
      <trkpt lat="45.33784" lon="2.14375">
        <ele>606</ele>
        <time>2012-03-25T09:52:30Z</time>
      </trkpt>
      <trkpt lat="45.33789" lon="2.14387">
        <ele>605</ele>
        <time>2012-03-25T09:52:31Z</time>
      </trkpt>
      <trkpt lat="45.33795" lon="2.14398">
        <ele>604</ele>
        <time>2012-03-25T09:52:32Z</time>
      </trkpt>
      <trkpt lat="45.338" lon="2.14409">
        <ele>604</ele>
        <time>2012-03-25T09:52:33Z</time>
      </trkpt>
      <trkpt lat="45.33814" lon="2.14431">
        <ele>603</ele>
        <time>2012-03-25T09:52:34Z</time>
      </trkpt>
      <trkpt lat="45.33819" lon="2.14447">
        <ele>602</ele>
        <time>2012-03-25T09:52:35Z</time>
      </trkpt>
      <trkpt lat="45.33823" lon="2.1446">
        <ele>601</ele>
        <time>2012-03-25T09:52:36Z</time>
      </trkpt>
      <trkpt lat="45.33826" lon="2.14476">
        <ele>601</ele>
        <time>2012-03-25T09:52:37Z</time>
      </trkpt>
      <trkpt lat="45.3383" lon="2.14493">
        <ele>600</ele>
        <time>2012-03-25T09:52:38Z</time>
      </trkpt>
      <trkpt lat="45.33833" lon="2.14508">
        <ele>600</ele>
        <time>2012-03-25T09:52:39Z</time>
      </trkpt>
      <trkpt lat="45.33836" lon="2.14524">
        <ele>599</ele>
        <time>2012-03-25T09:52:40Z</time>
      </trkpt>
      <trkpt lat="45.33836" lon="2.14524">
        <ele>599</ele>
        <time>2012-03-25T09:52:40Z</time>
      </trkpt>
      <trkpt lat="45.33838" lon="2.14542">
        <ele>598</ele>
        <time>2012-03-25T09:52:41Z</time>
      </trkpt>
      <trkpt lat="45.33847" lon="2.14571">
        <ele>596</ele>
        <time>2012-03-25T09:52:42Z</time>
      </trkpt>
      <trkpt lat="45.33854" lon="2.14589">
        <ele>593</ele>
        <time>2012-03-25T09:52:43Z</time>
      </trkpt>
      <trkpt lat="45.3386" lon="2.14604">
        <ele>591</ele>
        <time>2012-03-25T09:52:45Z</time>
      </trkpt>
      <trkpt lat="45.33865" lon="2.14618">
        <ele>591</ele>
        <time>2012-03-25T09:52:46Z</time>
      </trkpt>
      <trkpt lat="45.3387" lon="2.14633">
        <ele>591</ele>
        <time>2012-03-25T09:52:47Z</time>
      </trkpt>
      <trkpt lat="45.33872" lon="2.1465">
        <ele>590</ele>
        <time>2012-03-25T09:52:48Z</time>
      </trkpt>
      <trkpt lat="45.33874" lon="2.14664">
        <ele>590</ele>
        <time>2012-03-25T09:52:49Z</time>
      </trkpt>
      <trkpt lat="45.33876" lon="2.14679">
        <ele>590</ele>
        <time>2012-03-25T09:52:50Z</time>
      </trkpt>
      <trkpt lat="45.3388" lon="2.14697">
        <ele>590</ele>
        <time>2012-03-25T09:52:51Z</time>
      </trkpt>
      <trkpt lat="45.33885" lon="2.14711">
        <ele>589</ele>
        <time>2012-03-25T09:52:52Z</time>
      </trkpt>
      <trkpt lat="45.33891" lon="2.14725">
        <ele>587</ele>
        <time>2012-03-25T09:52:53Z</time>
      </trkpt>
      <trkpt lat="45.33897" lon="2.14739">
        <ele>586</ele>
        <time>2012-03-25T09:52:54Z</time>
      </trkpt>
      <trkpt lat="45.33904" lon="2.14755">
        <ele>584</ele>
        <time>2012-03-25T09:52:55Z</time>
      </trkpt>
      <trkpt lat="45.33911" lon="2.14768">
        <ele>583</ele>
        <time>2012-03-25T09:52:56Z</time>
      </trkpt>
      <trkpt lat="45.33917" lon="2.14783">
        <ele>581</ele>
        <time>2012-03-25T09:52:57Z</time>
      </trkpt>
      <trkpt lat="45.33925" lon="2.14799">
        <ele>579</ele>
        <time>2012-03-25T09:52:58Z</time>
      </trkpt>
      <trkpt lat="45.33931" lon="2.14816">
        <ele>577</ele>
        <time>2012-03-25T09:52:59Z</time>
      </trkpt>
      <trkpt lat="45.33934" lon="2.14834">
        <ele>576</ele>
        <time>2012-03-25T09:53:00Z</time>
      </trkpt>
      <trkpt lat="45.33939" lon="2.1485">
        <ele>575</ele>
        <time>2012-03-25T09:53:01Z</time>
      </trkpt>
      <trkpt lat="45.33942" lon="2.14868">
        <ele>574</ele>
        <time>2012-03-25T09:53:02Z</time>
      </trkpt>
      <trkpt lat="45.33946" lon="2.14887">
        <ele>573</ele>
        <time>2012-03-25T09:53:03Z</time>
      </trkpt>
      <trkpt lat="45.3395" lon="2.14905">
        <ele>571</ele>
        <time>2012-03-25T09:53:05Z</time>
      </trkpt>
      <trkpt lat="45.33954" lon="2.14923">
        <ele>570</ele>
        <time>2012-03-25T09:53:06Z</time>
      </trkpt>
      <trkpt lat="45.33962" lon="2.14962">
        <ele>568</ele>
        <time>2012-03-25T09:53:07Z</time>
      </trkpt>
      <trkpt lat="45.33964" lon="2.1498">
        <ele>566</ele>
        <time>2012-03-25T09:53:08Z</time>
      </trkpt>
      <trkpt lat="45.33968" lon="2.14998">
        <ele>564</ele>
        <time>2012-03-25T09:53:09Z</time>
      </trkpt>
      <trkpt lat="45.33971" lon="2.15017">
        <ele>563</ele>
        <time>2012-03-25T09:53:10Z</time>
      </trkpt>
      <trkpt lat="45.33975" lon="2.15035">
        <ele>562</ele>
        <time>2012-03-25T09:53:11Z</time>
      </trkpt>
      <trkpt lat="45.33976" lon="2.15053">
        <ele>562</ele>
        <time>2012-03-25T09:53:12Z</time>
      </trkpt>
      <trkpt lat="45.33978" lon="2.15071">
        <ele>562</ele>
        <time>2012-03-25T09:53:13Z</time>
      </trkpt>
      <trkpt lat="45.33979" lon="2.15088">
        <ele>560</ele>
        <time>2012-03-25T09:53:14Z</time>
      </trkpt>
      <trkpt lat="45.3398" lon="2.15104">
        <ele>559</ele>
        <time>2012-03-25T09:53:15Z</time>
      </trkpt>
      <trkpt lat="45.33979" lon="2.15141">
        <ele>558</ele>
        <time>2012-03-25T09:53:16Z</time>
      </trkpt>
      <trkpt lat="45.33977" lon="2.15159">
        <ele>558</ele>
        <time>2012-03-25T09:53:17Z</time>
      </trkpt>
      <trkpt lat="45.33973" lon="2.15178">
        <ele>557</ele>
        <time>2012-03-25T09:53:18Z</time>
      </trkpt>
      <trkpt lat="45.33973" lon="2.15178">
        <ele>557</ele>
        <time>2012-03-25T09:53:20Z</time>
      </trkpt>
      <trkpt lat="45.33972" lon="2.15196">
        <ele>557</ele>
        <time>2012-03-25T09:53:20Z</time>
      </trkpt>
      <trkpt lat="45.33966" lon="2.15233">
        <ele>556</ele>
        <time>2012-03-25T09:53:21Z</time>
      </trkpt>
      <trkpt lat="45.33962" lon="2.15253">
        <ele>555</ele>
        <time>2012-03-25T09:53:22Z</time>
      </trkpt>
      <trkpt lat="45.33957" lon="2.15269">
        <ele>555</ele>
        <time>2012-03-25T09:53:24Z</time>
      </trkpt>
      <trkpt lat="45.33954" lon="2.15288">
        <ele>554</ele>
        <time>2012-03-25T09:53:25Z</time>
      </trkpt>
      <trkpt lat="45.33946" lon="2.1532">
        <ele>554</ele>
        <time>2012-03-25T09:53:26Z</time>
      </trkpt>
      <trkpt lat="45.33941" lon="2.15337">
        <ele>553</ele>
        <time>2012-03-25T09:53:28Z</time>
      </trkpt>
      <trkpt lat="45.33938" lon="2.15357">
        <ele>552</ele>
        <time>2012-03-25T09:53:29Z</time>
      </trkpt>
      <trkpt lat="45.33931" lon="2.1539">
        <ele>551</ele>
        <time>2012-03-25T09:53:30Z</time>
      </trkpt>
      <trkpt lat="45.33926" lon="2.15403">
        <ele>551</ele>
        <time>2012-03-25T09:53:32Z</time>
      </trkpt>
      <trkpt lat="45.33921" lon="2.15418">
        <ele>550</ele>
        <time>2012-03-25T09:53:33Z</time>
      </trkpt>
      <trkpt lat="45.33912" lon="2.15446">
        <ele>550</ele>
        <time>2012-03-25T09:53:34Z</time>
      </trkpt>
      <trkpt lat="45.33908" lon="2.15459">
        <ele>549</ele>
        <time>2012-03-25T09:53:36Z</time>
      </trkpt>
      <trkpt lat="45.33904" lon="2.15471">
        <ele>548</ele>
        <time>2012-03-25T09:53:37Z</time>
      </trkpt>
      <trkpt lat="45.33894" lon="2.15491">
        <ele>546</ele>
        <time>2012-03-25T09:53:38Z</time>
      </trkpt>
      <trkpt lat="45.33891" lon="2.15502">
        <ele>546</ele>
        <time>2012-03-25T09:53:40Z</time>
      </trkpt>
      <trkpt lat="45.33892" lon="2.15538">
        <ele>541</ele>
        <time>2012-03-25T09:53:41Z</time>
      </trkpt>
      <trkpt lat="45.33896" lon="2.1555">
        <ele>540</ele>
        <time>2012-03-25T09:53:42Z</time>
      </trkpt>
      <trkpt lat="45.339" lon="2.15564">
        <ele>539</ele>
        <time>2012-03-25T09:53:44Z</time>
      </trkpt>
      <trkpt lat="45.3391" lon="2.15588">
        <ele>539</ele>
        <time>2012-03-25T09:53:45Z</time>
      </trkpt>
      <trkpt lat="45.33914" lon="2.15604">
        <ele>539</ele>
        <time>2012-03-25T09:53:46Z</time>
      </trkpt>
      <trkpt lat="45.33921" lon="2.1562">
        <ele>536</ele>
        <time>2012-03-25T09:53:47Z</time>
      </trkpt>
      <trkpt lat="45.33924" lon="2.15634">
        <ele>535</ele>
        <time>2012-03-25T09:53:48Z</time>
      </trkpt>
      <trkpt lat="45.33925" lon="2.15649">
        <ele>535</ele>
        <time>2012-03-25T09:53:48Z</time>
      </trkpt>
      <trkpt lat="45.33926" lon="2.15664">
        <ele>534</ele>
        <time>2012-03-25T09:53:49Z</time>
      </trkpt>
      <trkpt lat="45.33927" lon="2.15676">
        <ele>533</ele>
        <time>2012-03-25T09:53:50Z</time>
      </trkpt>
      <trkpt lat="45.33926" lon="2.15691">
        <ele>532</ele>
        <time>2012-03-25T09:53:51Z</time>
      </trkpt>
      <trkpt lat="45.33924" lon="2.15708">
        <ele>531</ele>
        <time>2012-03-25T09:53:53Z</time>
      </trkpt>
      <trkpt lat="45.33919" lon="2.15741">
        <ele>529</ele>
        <time>2012-03-25T09:53:54Z</time>
      </trkpt>
      <trkpt lat="45.33916" lon="2.15759">
        <ele>528</ele>
        <time>2012-03-25T09:53:55Z</time>
      </trkpt>
      <trkpt lat="45.33912" lon="2.15775">
        <ele>527</ele>
        <time>2012-03-25T09:53:57Z</time>
      </trkpt>
      <trkpt lat="45.33904" lon="2.15807">
        <ele>526</ele>
        <time>2012-03-25T09:53:58Z</time>
      </trkpt>
      <trkpt lat="45.33901" lon="2.15823">
        <ele>526</ele>
        <time>2012-03-25T09:53:59Z</time>
      </trkpt>
      <trkpt lat="45.33899" lon="2.15841">
        <ele>526</ele>
        <time>2012-03-25T09:54:01Z</time>
      </trkpt>
      <trkpt lat="45.339" lon="2.15873">
        <ele>523</ele>
        <time>2012-03-25T09:54:02Z</time>
      </trkpt>
      <trkpt lat="45.33902" lon="2.15891">
        <ele>522</ele>
        <time>2012-03-25T09:54:03Z</time>
      </trkpt>
      <trkpt lat="45.33903" lon="2.1591">
        <ele>522</ele>
        <time>2012-03-25T09:54:05Z</time>
      </trkpt>
      <trkpt lat="45.33906" lon="2.1594">
        <ele>517</ele>
        <time>2012-03-25T09:54:06Z</time>
      </trkpt>
      <trkpt lat="45.33909" lon="2.15955">
        <ele>513</ele>
        <time>2012-03-25T09:54:07Z</time>
      </trkpt>
      <trkpt lat="45.3391" lon="2.15969">
        <ele>511</ele>
        <time>2012-03-25T09:54:09Z</time>
      </trkpt>
      <trkpt lat="45.33917" lon="2.15997">
        <ele>511</ele>
        <time>2012-03-25T09:54:10Z</time>
      </trkpt>
      <trkpt lat="45.33921" lon="2.16009">
        <ele>510</ele>
        <time>2012-03-25T09:54:11Z</time>
      </trkpt>
      <trkpt lat="45.33926" lon="2.1602">
        <ele>510</ele>
        <time>2012-03-25T09:54:13Z</time>
      </trkpt>
      <trkpt lat="45.33943" lon="2.16038">
        <ele>506</ele>
        <time>2012-03-25T09:54:14Z</time>
      </trkpt>
      <trkpt lat="45.33951" lon="2.16046">
        <ele>502</ele>
        <time>2012-03-25T09:54:15Z</time>
      </trkpt>
      <trkpt lat="45.33959" lon="2.16053">
        <ele>501</ele>
        <time>2012-03-25T09:54:17Z</time>
      </trkpt>
      <trkpt lat="45.33979" lon="2.16063">
        <ele>497</ele>
        <time>2012-03-25T09:54:18Z</time>
      </trkpt>
      <trkpt lat="45.33988" lon="2.16067">
        <ele>495</ele>
        <time>2012-03-25T09:54:19Z</time>
      </trkpt>
      <trkpt lat="45.33998" lon="2.16069">
        <ele>495</ele>
        <time>2012-03-25T09:54:21Z</time>
      </trkpt>
      <trkpt lat="45.34014" lon="2.16061">
        <ele>492</ele>
        <time>2012-03-25T09:54:22Z</time>
      </trkpt>
      <trkpt lat="45.34022" lon="2.16053">
        <ele>490</ele>
        <time>2012-03-25T09:54:23Z</time>
      </trkpt>
      <trkpt lat="45.34029" lon="2.1604">
        <ele>489</ele>
        <time>2012-03-25T09:54:25Z</time>
      </trkpt>
      <trkpt lat="45.34039" lon="2.16017">
        <ele>487</ele>
        <time>2012-03-25T09:54:26Z</time>
      </trkpt>
      <trkpt lat="45.34043" lon="2.16003">
        <ele>485</ele>
        <time>2012-03-25T09:54:27Z</time>
      </trkpt>
      <trkpt lat="45.34044" lon="2.15991">
        <ele>484</ele>
        <time>2012-03-25T09:54:29Z</time>
      </trkpt>
      <trkpt lat="45.34046" lon="2.15973">
        <ele>483</ele>
        <time>2012-03-25T09:54:30Z</time>
      </trkpt>
      <trkpt lat="45.34046" lon="2.15964">
        <ele>483</ele>
        <time>2012-03-25T09:54:31Z</time>
      </trkpt>
      <trkpt lat="45.34047" lon="2.15954">
        <ele>483</ele>
        <time>2012-03-25T09:54:33Z</time>
      </trkpt>
      <trkpt lat="45.34047" lon="2.15935">
        <ele>482</ele>
        <time>2012-03-25T09:54:34Z</time>
      </trkpt>
      <trkpt lat="45.34049" lon="2.15924">
        <ele>481</ele>
        <time>2012-03-25T09:54:35Z</time>
      </trkpt>
      <trkpt lat="45.34052" lon="2.15913">
        <ele>481</ele>
        <time>2012-03-25T09:54:37Z</time>
      </trkpt>
      <trkpt lat="45.34058" lon="2.15891">
        <ele>480</ele>
        <time>2012-03-25T09:54:38Z</time>
      </trkpt>
      <trkpt lat="45.34059" lon="2.15876">
        <ele>479</ele>
        <time>2012-03-25T09:54:39Z</time>
      </trkpt>
      <trkpt lat="45.34059" lon="2.15876">
        <ele>479</ele>
        <time>2012-03-25T09:54:41Z</time>
      </trkpt>
      <trkpt lat="45.34058" lon="2.15863">
        <ele>478</ele>
        <time>2012-03-25T09:54:42Z</time>
      </trkpt>
      <trkpt lat="45.34068" lon="2.15826">
        <ele>472</ele>
        <time>2012-03-25T09:54:43Z</time>
      </trkpt>
      <trkpt lat="45.34073" lon="2.15816">
        <ele>472</ele>
        <time>2012-03-25T09:54:45Z</time>
      </trkpt>
      <trkpt lat="45.34089" lon="2.15797">
        <ele>471</ele>
        <time>2012-03-25T09:54:46Z</time>
      </trkpt>
      <trkpt lat="45.34097" lon="2.15786">
        <ele>470</ele>
        <time>2012-03-25T09:54:47Z</time>
      </trkpt>
      <trkpt lat="45.34104" lon="2.15777">
        <ele>470</ele>
        <time>2012-03-25T09:54:48Z</time>
      </trkpt>
      <trkpt lat="45.34113" lon="2.15766">
        <ele>470</ele>
        <time>2012-03-25T09:54:49Z</time>
      </trkpt>
      <trkpt lat="45.34122" lon="2.15755">
        <ele>469</ele>
        <time>2012-03-25T09:54:50Z</time>
      </trkpt>
      <trkpt lat="45.3413" lon="2.15744">
        <ele>468</ele>
        <time>2012-03-25T09:54:51Z</time>
      </trkpt>
      <trkpt lat="45.34137" lon="2.15734">
        <ele>466</ele>
        <time>2012-03-25T09:54:52Z</time>
      </trkpt>
      <trkpt lat="45.34144" lon="2.15722">
        <ele>465</ele>
        <time>2012-03-25T09:54:53Z</time>
      </trkpt>
      <trkpt lat="45.34152" lon="2.15711">
        <ele>465</ele>
        <time>2012-03-25T09:54:54Z</time>
      </trkpt>
      <trkpt lat="45.34157" lon="2.15697">
        <ele>464</ele>
        <time>2012-03-25T09:54:55Z</time>
      </trkpt>
      <trkpt lat="45.34162" lon="2.15682">
        <ele>462</ele>
        <time>2012-03-25T09:54:56Z</time>
      </trkpt>
      <trkpt lat="45.34167" lon="2.15668">
        <ele>462</ele>
        <time>2012-03-25T09:54:57Z</time>
      </trkpt>
      <trkpt lat="45.3417" lon="2.15652">
        <ele>460</ele>
        <time>2012-03-25T09:54:58Z</time>
      </trkpt>
      <trkpt lat="45.34174" lon="2.15635">
        <ele>459</ele>
        <time>2012-03-25T09:54:59Z</time>
      </trkpt>
      <trkpt lat="45.34178" lon="2.15619">
        <ele>458</ele>
        <time>2012-03-25T09:55:00Z</time>
      </trkpt>
      <trkpt lat="45.34181" lon="2.15604">
        <ele>457</ele>
        <time>2012-03-25T09:55:01Z</time>
      </trkpt>
      <trkpt lat="45.34184" lon="2.15587">
        <ele>456</ele>
        <time>2012-03-25T09:55:02Z</time>
      </trkpt>
      <trkpt lat="45.34186" lon="2.15571">
        <ele>457</ele>
        <time>2012-03-25T09:55:03Z</time>
      </trkpt>
      <trkpt lat="45.34186" lon="2.15553">
        <ele>456</ele>
        <time>2012-03-25T09:55:04Z</time>
      </trkpt>
      <trkpt lat="45.34187" lon="2.15536">
        <ele>455</ele>
        <time>2012-03-25T09:55:05Z</time>
      </trkpt>
      <trkpt lat="45.3419" lon="2.1552">
        <ele>455</ele>
        <time>2012-03-25T09:55:06Z</time>
      </trkpt>
      <trkpt lat="45.34192" lon="2.15505">
        <ele>454</ele>
        <time>2012-03-25T09:55:07Z</time>
      </trkpt>
      <trkpt lat="45.34196" lon="2.15489">
        <ele>453</ele>
        <time>2012-03-25T09:55:08Z</time>
      </trkpt>
      <trkpt lat="45.34197" lon="2.15472">
        <ele>451</ele>
        <time>2012-03-25T09:55:09Z</time>
      </trkpt>
      <trkpt lat="45.34198" lon="2.15456">
        <ele>449</ele>
        <time>2012-03-25T09:55:10Z</time>
      </trkpt>
      <trkpt lat="45.34201" lon="2.15439">
        <ele>448</ele>
        <time>2012-03-25T09:55:11Z</time>
      </trkpt>
      <trkpt lat="45.34203" lon="2.15424">
        <ele>447</ele>
        <time>2012-03-25T09:55:12Z</time>
      </trkpt>
      <trkpt lat="45.34205" lon="2.15409">
        <ele>446</ele>
        <time>2012-03-25T09:55:13Z</time>
      </trkpt>
      <trkpt lat="45.34207" lon="2.15395">
        <ele>446</ele>
        <time>2012-03-25T09:55:14Z</time>
      </trkpt>
      <trkpt lat="45.34209" lon="2.15379">
        <ele>446</ele>
        <time>2012-03-25T09:55:15Z</time>
      </trkpt>
      <trkpt lat="45.34212" lon="2.15365">
        <ele>445</ele>
        <time>2012-03-25T09:55:16Z</time>
      </trkpt>
      <trkpt lat="45.34215" lon="2.15352">
        <ele>445</ele>
        <time>2012-03-25T09:55:17Z</time>
      </trkpt>
      <trkpt lat="45.34215" lon="2.15339">
        <ele>445</ele>
        <time>2012-03-25T09:55:19Z</time>
      </trkpt>
      <trkpt lat="45.34217" lon="2.15328">
        <ele>444</ele>
        <time>2012-03-25T09:55:20Z</time>
      </trkpt>
      <trkpt lat="45.34218" lon="2.15317">
        <ele>444</ele>
        <time>2012-03-25T09:55:21Z</time>
      </trkpt>
      <trkpt lat="45.3422" lon="2.15307">
        <ele>444</ele>
        <time>2012-03-25T09:55:22Z</time>
      </trkpt>
      <trkpt lat="45.3422" lon="2.15298">
        <ele>443</ele>
        <time>2012-03-25T09:55:23Z</time>
      </trkpt>
      <trkpt lat="45.3422" lon="2.15288">
        <ele>443</ele>
        <time>2012-03-25T09:55:24Z</time>
      </trkpt>
      <trkpt lat="45.3422" lon="2.15277">
        <ele>443</ele>
        <time>2012-03-25T09:55:25Z</time>
      </trkpt>
      <trkpt lat="45.3422" lon="2.15269">
        <ele>444</ele>
        <time>2012-03-25T09:55:26Z</time>
      </trkpt>
      <trkpt lat="45.34221" lon="2.15262">
        <ele>444</ele>
        <time>2012-03-25T09:55:27Z</time>
      </trkpt>
      <trkpt lat="45.34221" lon="2.15256">
        <ele>443</ele>
        <time>2012-03-25T09:55:28Z</time>
      </trkpt>
      <trkpt lat="45.34219" lon="2.15251">
        <ele>443</ele>
        <time>2012-03-25T09:55:29Z</time>
      </trkpt>
      <trkpt lat="45.34219" lon="2.15248">
        <ele>444</ele>
        <time>2012-03-25T09:55:30Z</time>
      </trkpt>
      <trkpt lat="45.34215" lon="2.15245">
        <ele>444</ele>
        <time>2012-03-25T09:55:31Z</time>
      </trkpt>
      <trkpt lat="45.34213" lon="2.15244">
        <ele>443</ele>
        <time>2012-03-25T09:55:32Z</time>
      </trkpt>
      <trkpt lat="45.34215" lon="2.15244">
        <ele>442</ele>
        <time>2012-03-25T09:55:33Z</time>
      </trkpt>
      <trkpt lat="45.34218" lon="2.15244">
        <ele>440</ele>
        <time>2012-03-25T09:55:34Z</time>
      </trkpt>
      <trkpt lat="45.3422" lon="2.15242">
        <ele>439</ele>
        <time>2012-03-25T09:55:35Z</time>
      </trkpt>
      <trkpt lat="45.34223" lon="2.1524">
        <ele>440</ele>
        <time>2012-03-25T09:55:36Z</time>
      </trkpt>
      <trkpt lat="45.34227" lon="2.15236">
        <ele>440</ele>
        <time>2012-03-25T09:55:37Z</time>
      </trkpt>
      <trkpt lat="45.3423" lon="2.15234">
        <ele>440</ele>
        <time>2012-03-25T09:55:38Z</time>
      </trkpt>
      <trkpt lat="45.34234" lon="2.15232">
        <ele>440</ele>
        <time>2012-03-25T09:55:39Z</time>
      </trkpt>
      <trkpt lat="45.34238" lon="2.15233">
        <ele>440</ele>
        <time>2012-03-25T09:55:40Z</time>
      </trkpt>
      <trkpt lat="45.34242" lon="2.15232">
        <ele>440</ele>
        <time>2012-03-25T09:55:41Z</time>
      </trkpt>
      <trkpt lat="45.34245" lon="2.15235">
        <ele>440</ele>
        <time>2012-03-25T09:55:42Z</time>
      </trkpt>
      <trkpt lat="45.34249" lon="2.15234">
        <ele>440</ele>
        <time>2012-03-25T09:55:43Z</time>
      </trkpt>
      <trkpt lat="45.34251" lon="2.15234">
        <ele>440</ele>
        <time>2012-03-25T09:55:44Z</time>
      </trkpt>
      <trkpt lat="45.34252" lon="2.15232">
        <ele>441</ele>
        <time>2012-03-25T09:55:45Z</time>
      </trkpt>
      <trkpt lat="45.34253" lon="2.15227">
        <ele>441</ele>
        <time>2012-03-25T09:55:46Z</time>
      </trkpt>
      <trkpt lat="45.34254" lon="2.15226">
        <ele>441</ele>
        <time>2012-03-25T09:55:47Z</time>
      </trkpt>
      <trkpt lat="45.34257" lon="2.15223">
        <ele>440</ele>
        <time>2012-03-25T09:55:48Z</time>
      </trkpt>
      <trkpt lat="45.34257" lon="2.15223">
        <ele>440</ele>
        <time>2012-03-25T09:55:49Z</time>
      </trkpt>
      <trkpt lat="45.34259" lon="2.15221">
        <ele>440</ele>
        <time>2012-03-25T09:55:50Z</time>
      </trkpt>
      <trkpt lat="45.34259" lon="2.15219">
        <ele>440</ele>
        <time>2012-03-25T09:55:51Z</time>
      </trkpt>
      <trkpt lat="45.34255" lon="2.15218">
        <ele>439</ele>
        <time>2012-03-25T09:55:52Z</time>
      </trkpt>
      <trkpt lat="45.34253" lon="2.15218">
        <ele>440</ele>
        <time>2012-03-25T09:55:53Z</time>
      </trkpt>
      <trkpt lat="45.34251" lon="2.15217">
        <ele>440</ele>
        <time>2012-03-25T09:55:54Z</time>
      </trkpt>
      <trkpt lat="45.3425" lon="2.15218">
        <ele>439</ele>
        <time>2012-03-25T09:55:55Z</time>
      </trkpt>
      <trkpt lat="45.34245" lon="2.15219">
        <ele>440</ele>
        <time>2012-03-25T09:55:56Z</time>
      </trkpt>
      <trkpt lat="45.34243" lon="2.15222">
        <ele>440</ele>
        <time>2012-03-25T09:55:57Z</time>
      </trkpt>
      <trkpt lat="45.34241" lon="2.15224">
        <ele>439</ele>
        <time>2012-03-25T09:55:58Z</time>
      </trkpt>
      <trkpt lat="45.34237" lon="2.15223">
        <ele>440</ele>
        <time>2012-03-25T09:55:59Z</time>
      </trkpt>
      <trkpt lat="45.34233" lon="2.15223">
        <ele>440</ele>
        <time>2012-03-25T09:56:01Z</time>
      </trkpt>
      <trkpt lat="45.34225" lon="2.15224">
        <ele>439</ele>
        <time>2012-03-25T09:56:02Z</time>
      </trkpt>
      <trkpt lat="45.34221" lon="2.15224">
        <ele>440</ele>
        <time>2012-03-25T09:56:03Z</time>
      </trkpt>
      <trkpt lat="45.34219" lon="2.15228">
        <ele>436</ele>
        <time>2012-03-25T09:56:05Z</time>
      </trkpt>
      <trkpt lat="45.34212" lon="2.15227">
        <ele>439</ele>
        <time>2012-03-25T09:56:06Z</time>
      </trkpt>
      <trkpt lat="45.34206" lon="2.15226">
        <ele>442</ele>
        <time>2012-03-25T09:56:07Z</time>
      </trkpt>
      <trkpt lat="45.34206" lon="2.15226">
        <ele>442</ele>
        <time>2012-03-25T09:56:09Z</time>
      </trkpt>
      <trkpt lat="45.34198" lon="2.15225">
        <ele>445</ele>
        <time>2012-03-25T09:56:10Z</time>
      </trkpt>
      <trkpt lat="45.34182" lon="2.15231">
        <ele>449</ele>
        <time>2012-03-25T09:56:11Z</time>
      </trkpt>
      <trkpt lat="45.34178" lon="2.15236">
        <ele>450</ele>
        <time>2012-03-25T09:56:13Z</time>
      </trkpt>
      <trkpt lat="45.34173" lon="2.15247">
        <ele>452</ele>
        <time>2012-03-25T09:56:14Z</time>
      </trkpt>
      <trkpt lat="45.34171" lon="2.1525">
        <ele>453</ele>
        <time>2012-03-25T09:56:15Z</time>
      </trkpt>
      <trkpt lat="45.34169" lon="2.15255">
        <ele>454</ele>
        <time>2012-03-25T09:56:17Z</time>
      </trkpt>
      <trkpt lat="45.34171" lon="2.15267">
        <ele>455</ele>
        <time>2012-03-25T09:56:18Z</time>
      </trkpt>
      <trkpt lat="45.34171" lon="2.15273">
        <ele>457</ele>
        <time>2012-03-25T09:56:19Z</time>
      </trkpt>
      <trkpt lat="45.34169" lon="2.15277">
        <ele>457</ele>
        <time>2012-03-25T09:56:21Z</time>
      </trkpt>
      <trkpt lat="45.34169" lon="2.15288">
        <ele>459</ele>
        <time>2012-03-25T09:56:22Z</time>
      </trkpt>
      <trkpt lat="45.3417" lon="2.15294">
        <ele>459</ele>
        <time>2012-03-25T09:56:23Z</time>
      </trkpt>
      <trkpt lat="45.34171" lon="2.15299">
        <ele>460</ele>
        <time>2012-03-25T09:56:25Z</time>
      </trkpt>
      <trkpt lat="45.34172" lon="2.15312">
        <ele>462</ele>
        <time>2012-03-25T09:56:26Z</time>
      </trkpt>
      <trkpt lat="45.34172" lon="2.15318">
        <ele>463</ele>
        <time>2012-03-25T09:56:27Z</time>
      </trkpt>
      <trkpt lat="45.34173" lon="2.15323">
        <ele>464</ele>
        <time>2012-03-25T09:56:29Z</time>
      </trkpt>
      <trkpt lat="45.34175" lon="2.15333">
        <ele>464</ele>
        <time>2012-03-25T09:56:30Z</time>
      </trkpt>
      <trkpt lat="45.34174" lon="2.15337">
        <ele>464</ele>
        <time>2012-03-25T09:56:31Z</time>
      </trkpt>
      <trkpt lat="45.34175" lon="2.15343">
        <ele>465</ele>
        <time>2012-03-25T09:56:33Z</time>
      </trkpt>
      <trkpt lat="45.34175" lon="2.15352">
        <ele>465</ele>
        <time>2012-03-25T09:56:34Z</time>
      </trkpt>
      <trkpt lat="45.34178" lon="2.15359">
        <ele>465</ele>
        <time>2012-03-25T09:56:35Z</time>
      </trkpt>
      <trkpt lat="45.34179" lon="2.15366">
        <ele>464</ele>
        <time>2012-03-25T09:56:37Z</time>
      </trkpt>
      <trkpt lat="45.34181" lon="2.15376">
        <ele>462</ele>
        <time>2012-03-25T09:56:38Z</time>
      </trkpt>
      <trkpt lat="45.34181" lon="2.15381">
        <ele>462</ele>
        <time>2012-03-25T09:56:39Z</time>
      </trkpt>
      <trkpt lat="45.34181" lon="2.15387">
        <ele>460</ele>
        <time>2012-03-25T09:56:41Z</time>
      </trkpt>
      <trkpt lat="45.34181" lon="2.15396">
        <ele>460</ele>
        <time>2012-03-25T09:56:42Z</time>
      </trkpt>
      <trkpt lat="45.34179" lon="2.154">
        <ele>460</ele>
        <time>2012-03-25T09:56:43Z</time>
      </trkpt>
      <trkpt lat="45.34178" lon="2.15404">
        <ele>460</ele>
        <time>2012-03-25T09:56:45Z</time>
      </trkpt>
      <trkpt lat="45.34177" lon="2.15414">
        <ele>462</ele>
        <time>2012-03-25T09:56:46Z</time>
      </trkpt>
      <trkpt lat="45.34176" lon="2.15418">
        <ele>463</ele>
        <time>2012-03-25T09:56:47Z</time>
      </trkpt>
      <trkpt lat="45.34176" lon="2.15425">
        <ele>462</ele>
        <time>2012-03-25T09:56:49Z</time>
      </trkpt>
      <trkpt lat="45.34177" lon="2.15438">
        <ele>462</ele>
        <time>2012-03-25T09:56:50Z</time>
      </trkpt>
      <trkpt lat="45.34176" lon="2.15442">
        <ele>462</ele>
        <time>2012-03-25T09:56:51Z</time>
      </trkpt>
      <trkpt lat="45.34174" lon="2.15445">
        <ele>464</ele>
        <time>2012-03-25T09:56:53Z</time>
      </trkpt>
      <trkpt lat="45.34171" lon="2.15454">
        <ele>465</ele>
        <time>2012-03-25T09:56:54Z</time>
      </trkpt>
      <trkpt lat="45.34172" lon="2.15457">
        <ele>465</ele>
        <time>2012-03-25T09:56:55Z</time>
      </trkpt>
      <trkpt lat="45.34172" lon="2.15457">
        <ele>465</ele>
        <time>2012-03-25T09:56:56Z</time>
      </trkpt>
      <trkpt lat="45.34172" lon="2.15462">
        <ele>466</ele>
        <time>2012-03-25T09:56:57Z</time>
      </trkpt>
      <trkpt lat="45.34173" lon="2.15469">
        <ele>466</ele>
        <time>2012-03-25T09:56:58Z</time>
      </trkpt>
      <trkpt lat="45.34173" lon="2.15475">
        <ele>466</ele>
        <time>2012-03-25T09:57:00Z</time>
      </trkpt>
      <trkpt lat="45.3417" lon="2.15483">
        <ele>466</ele>
        <time>2012-03-25T09:57:01Z</time>
      </trkpt>
      <trkpt lat="45.34169" lon="2.15487">
        <ele>466</ele>
        <time>2012-03-25T09:57:02Z</time>
      </trkpt>
      <trkpt lat="45.34167" lon="2.15491">
        <ele>467</ele>
        <time>2012-03-25T09:57:04Z</time>
      </trkpt>
      <trkpt lat="45.34165" lon="2.15499">
        <ele>467</ele>
        <time>2012-03-25T09:57:05Z</time>
      </trkpt>
      <trkpt lat="45.34165" lon="2.15503">
        <ele>468</ele>
        <time>2012-03-25T09:57:06Z</time>
      </trkpt>
      <trkpt lat="45.34164" lon="2.15509">
        <ele>468</ele>
        <time>2012-03-25T09:57:07Z</time>
      </trkpt>
      <trkpt lat="45.34163" lon="2.15513">
        <ele>469</ele>
        <time>2012-03-25T09:57:08Z</time>
      </trkpt>
      <trkpt lat="45.34162" lon="2.15517">
        <ele>469</ele>
        <time>2012-03-25T09:57:09Z</time>
      </trkpt>
      <trkpt lat="45.34163" lon="2.15523">
        <ele>469</ele>
        <time>2012-03-25T09:57:10Z</time>
      </trkpt>
      <trkpt lat="45.34162" lon="2.15527">
        <ele>468</ele>
        <time>2012-03-25T09:57:11Z</time>
      </trkpt>
      <trkpt lat="45.34162" lon="2.15531">
        <ele>467</ele>
        <time>2012-03-25T09:57:12Z</time>
      </trkpt>
      <trkpt lat="45.34161" lon="2.15535">
        <ele>468</ele>
        <time>2012-03-25T09:57:13Z</time>
      </trkpt>
      <trkpt lat="45.34161" lon="2.15539">
        <ele>469</ele>
        <time>2012-03-25T09:57:14Z</time>
      </trkpt>
      <trkpt lat="45.34159" lon="2.15543">
        <ele>469</ele>
        <time>2012-03-25T09:57:15Z</time>
      </trkpt>
      <trkpt lat="45.34159" lon="2.15548">
        <ele>470</ele>
        <time>2012-03-25T09:57:17Z</time>
      </trkpt>
      <trkpt lat="45.34156" lon="2.15557">
        <ele>470</ele>
        <time>2012-03-25T09:57:18Z</time>
      </trkpt>
      <trkpt lat="45.34156" lon="2.1556">
        <ele>470</ele>
        <time>2012-03-25T09:57:19Z</time>
      </trkpt>
      <trkpt lat="45.34155" lon="2.15564">
        <ele>470</ele>
        <time>2012-03-25T09:57:21Z</time>
      </trkpt>
      <trkpt lat="45.34154" lon="2.15572">
        <ele>472</ele>
        <time>2012-03-25T09:57:22Z</time>
      </trkpt>
      <trkpt lat="45.34153" lon="2.15577">
        <ele>473</ele>
        <time>2012-03-25T09:57:23Z</time>
      </trkpt>
      <trkpt lat="45.34153" lon="2.15581">
        <ele>474</ele>
        <time>2012-03-25T09:57:25Z</time>
      </trkpt>
      <trkpt lat="45.34151" lon="2.15588">
        <ele>475</ele>
        <time>2012-03-25T09:57:26Z</time>
      </trkpt>
      <trkpt lat="45.34151" lon="2.15592">
        <ele>475</ele>
        <time>2012-03-25T09:57:27Z</time>
      </trkpt>
      <trkpt lat="45.34152" lon="2.15598">
        <ele>475</ele>
        <time>2012-03-25T09:57:29Z</time>
      </trkpt>
      <trkpt lat="45.34151" lon="2.15607">
        <ele>476</ele>
        <time>2012-03-25T09:57:30Z</time>
      </trkpt>
      <trkpt lat="45.3415" lon="2.15611">
        <ele>476</ele>
        <time>2012-03-25T09:57:31Z</time>
      </trkpt>
      <trkpt lat="45.34149" lon="2.15614">
        <ele>476</ele>
        <time>2012-03-25T09:57:33Z</time>
      </trkpt>
      <trkpt lat="45.34148" lon="2.15623">
        <ele>477</ele>
        <time>2012-03-25T09:57:34Z</time>
      </trkpt>
      <trkpt lat="45.34148" lon="2.15629">
        <ele>476</ele>
        <time>2012-03-25T09:57:35Z</time>
      </trkpt>
      <trkpt lat="45.34148" lon="2.15634">
        <ele>477</ele>
        <time>2012-03-25T09:57:37Z</time>
      </trkpt>
      <trkpt lat="45.34147" lon="2.15642">
        <ele>478</ele>
        <time>2012-03-25T09:57:38Z</time>
      </trkpt>
      <trkpt lat="45.34147" lon="2.15646">
        <ele>477</ele>
        <time>2012-03-25T09:57:39Z</time>
      </trkpt>
      <trkpt lat="45.34145" lon="2.1565">
        <ele>478</ele>
        <time>2012-03-25T09:57:41Z</time>
      </trkpt>
      <trkpt lat="45.34143" lon="2.15656">
        <ele>479</ele>
        <time>2012-03-25T09:57:42Z</time>
      </trkpt>
      <trkpt lat="45.34143" lon="2.15658">
        <ele>479</ele>
        <time>2012-03-25T09:57:43Z</time>
      </trkpt>
      <trkpt lat="45.34143" lon="2.15661">
        <ele>479</ele>
        <time>2012-03-25T09:57:45Z</time>
      </trkpt>
      <trkpt lat="45.34141" lon="2.15669">
        <ele>480</ele>
        <time>2012-03-25T09:57:46Z</time>
      </trkpt>
      <trkpt lat="45.3414" lon="2.15673">
        <ele>481</ele>
        <time>2012-03-25T09:57:47Z</time>
      </trkpt>
      <trkpt lat="45.3414" lon="2.15676">
        <ele>481</ele>
        <time>2012-03-25T09:57:49Z</time>
      </trkpt>
      <trkpt lat="45.3414" lon="2.15682">
        <ele>480</ele>
        <time>2012-03-25T09:57:50Z</time>
      </trkpt>
      <trkpt lat="45.34138" lon="2.15686">
        <ele>479</ele>
        <time>2012-03-25T09:57:51Z</time>
      </trkpt>
      <trkpt lat="45.34138" lon="2.15686">
        <ele>479</ele>
        <time>2012-03-25T09:57:53Z</time>
      </trkpt>
      <trkpt lat="45.34138" lon="2.15689">
        <ele>479</ele>
        <time>2012-03-25T09:57:54Z</time>
      </trkpt>
      <trkpt lat="45.34134" lon="2.15695">
        <ele>481</ele>
        <time>2012-03-25T09:57:55Z</time>
      </trkpt>
      <trkpt lat="45.34133" lon="2.15699">
        <ele>480</ele>
        <time>2012-03-25T09:57:57Z</time>
      </trkpt>
      <trkpt lat="45.34128" lon="2.15705">
        <ele>481</ele>
        <time>2012-03-25T09:57:58Z</time>
      </trkpt>
      <trkpt lat="45.34126" lon="2.15708">
        <ele>480</ele>
        <time>2012-03-25T09:57:59Z</time>
      </trkpt>
      <trkpt lat="45.34125" lon="2.1571">
        <ele>480</ele>
        <time>2012-03-25T09:58:01Z</time>
      </trkpt>
      <trkpt lat="45.34122" lon="2.15715">
        <ele>480</ele>
        <time>2012-03-25T09:58:02Z</time>
      </trkpt>
      <trkpt lat="45.3412" lon="2.15718">
        <ele>480</ele>
        <time>2012-03-25T09:58:03Z</time>
      </trkpt>
      <trkpt lat="45.34119" lon="2.15719">
        <ele>480</ele>
        <time>2012-03-25T09:58:05Z</time>
      </trkpt>
      <trkpt lat="45.34118" lon="2.15724">
        <ele>480</ele>
        <time>2012-03-25T09:58:06Z</time>
      </trkpt>
      <trkpt lat="45.34115" lon="2.15727">
        <ele>480</ele>
        <time>2012-03-25T09:58:07Z</time>
      </trkpt>
      <trkpt lat="45.34113" lon="2.1573">
        <ele>479</ele>
        <time>2012-03-25T09:58:09Z</time>
      </trkpt>
      <trkpt lat="45.3411" lon="2.15734">
        <ele>479</ele>
        <time>2012-03-25T09:58:10Z</time>
      </trkpt>
      <trkpt lat="45.34109" lon="2.15736">
        <ele>480</ele>
        <time>2012-03-25T09:58:11Z</time>
      </trkpt>
      <trkpt lat="45.34106" lon="2.15738">
        <ele>480</ele>
        <time>2012-03-25T09:58:13Z</time>
      </trkpt>
      <trkpt lat="45.34102" lon="2.15742">
        <ele>481</ele>
        <time>2012-03-25T09:58:14Z</time>
      </trkpt>
      <trkpt lat="45.341" lon="2.15745">
        <ele>481</ele>
        <time>2012-03-25T09:58:15Z</time>
      </trkpt>
      <trkpt lat="45.34099" lon="2.15747">
        <ele>482</ele>
        <time>2012-03-25T09:58:17Z</time>
      </trkpt>
      <trkpt lat="45.34098" lon="2.15753">
        <ele>484</ele>
        <time>2012-03-25T09:58:18Z</time>
      </trkpt>
      <trkpt lat="45.34095" lon="2.15756">
        <ele>484</ele>
        <time>2012-03-25T09:58:19Z</time>
      </trkpt>
      <trkpt lat="45.34094" lon="2.15758">
        <ele>483</ele>
        <time>2012-03-25T09:58:21Z</time>
      </trkpt>
      <trkpt lat="45.34089" lon="2.15762">
        <ele>484</ele>
        <time>2012-03-25T09:58:22Z</time>
      </trkpt>
      <trkpt lat="45.34085" lon="2.15765">
        <ele>483</ele>
        <time>2012-03-25T09:58:23Z</time>
      </trkpt>
      <trkpt lat="45.34081" lon="2.15767">
        <ele>483</ele>
        <time>2012-03-25T09:58:25Z</time>
      </trkpt>
      <trkpt lat="45.34078" lon="2.15772">
        <ele>483</ele>
        <time>2012-03-25T09:58:26Z</time>
      </trkpt>
      <trkpt lat="45.34075" lon="2.15773">
        <ele>484</ele>
        <time>2012-03-25T09:58:27Z</time>
      </trkpt>
      <trkpt lat="45.34071" lon="2.15776">
        <ele>484</ele>
        <time>2012-03-25T09:58:29Z</time>
      </trkpt>
      <trkpt lat="45.34065" lon="2.15781">
        <ele>485</ele>
        <time>2012-03-25T09:58:30Z</time>
      </trkpt>
      <trkpt lat="45.34064" lon="2.15783">
        <ele>486</ele>
        <time>2012-03-25T09:58:31Z</time>
      </trkpt>
      <trkpt lat="45.34062" lon="2.15786">
        <ele>486</ele>
        <time>2012-03-25T09:58:33Z</time>
      </trkpt>
      <trkpt lat="45.34059" lon="2.15793">
        <ele>487</ele>
        <time>2012-03-25T09:58:34Z</time>
      </trkpt>
      <trkpt lat="45.34057" lon="2.15797">
        <ele>487</ele>
        <time>2012-03-25T09:58:35Z</time>
      </trkpt>
      <trkpt lat="45.34057" lon="2.15801">
        <ele>487</ele>
        <time>2012-03-25T09:58:37Z</time>
      </trkpt>
      <trkpt lat="45.34052" lon="2.15809">
        <ele>487</ele>
        <time>2012-03-25T09:58:38Z</time>
      </trkpt>
      <trkpt lat="45.3405" lon="2.15811">
        <ele>487</ele>
        <time>2012-03-25T09:58:39Z</time>
      </trkpt>
      <trkpt lat="45.34048" lon="2.15815">
        <ele>488</ele>
        <time>2012-03-25T09:58:41Z</time>
      </trkpt>
      <trkpt lat="45.34045" lon="2.15823">
        <ele>487</ele>
        <time>2012-03-25T09:58:42Z</time>
      </trkpt>
      <trkpt lat="45.34043" lon="2.15826">
        <ele>486</ele>
        <time>2012-03-25T09:58:43Z</time>
      </trkpt>
      <trkpt lat="45.34041" lon="2.15829">
        <ele>486</ele>
        <time>2012-03-25T09:58:45Z</time>
      </trkpt>
      <trkpt lat="45.34037" lon="2.15836">
        <ele>487</ele>
        <time>2012-03-25T09:58:46Z</time>
      </trkpt>
      <trkpt lat="45.34035" lon="2.15837">
        <ele>487</ele>
        <time>2012-03-25T09:58:47Z</time>
      </trkpt>
      <trkpt lat="45.34034" lon="2.15841">
        <ele>489</ele>
        <time>2012-03-25T09:58:49Z</time>
      </trkpt>
      <trkpt lat="45.34031" lon="2.15846">
        <ele>490</ele>
        <time>2012-03-25T09:58:50Z</time>
      </trkpt>
      <trkpt lat="45.34029" lon="2.1585">
        <ele>490</ele>
        <time>2012-03-25T09:58:51Z</time>
      </trkpt>
      <trkpt lat="45.34028" lon="2.15854">
        <ele>491</ele>
        <time>2012-03-25T09:58:53Z</time>
      </trkpt>
      <trkpt lat="45.34025" lon="2.15862">
        <ele>491</ele>
        <time>2012-03-25T09:58:54Z</time>
      </trkpt>
      <trkpt lat="45.34025" lon="2.15866">
        <ele>492</ele>
        <time>2012-03-25T09:58:55Z</time>
      </trkpt>
      <trkpt lat="45.34025" lon="2.15869">
        <ele>492</ele>
        <time>2012-03-25T09:58:57Z</time>
      </trkpt>
      <trkpt lat="45.34024" lon="2.15877">
        <ele>491</ele>
        <time>2012-03-25T09:58:58Z</time>
      </trkpt>
      <trkpt lat="45.34023" lon="2.15878">
        <ele>492</ele>
        <time>2012-03-25T09:58:59Z</time>
      </trkpt>
      <trkpt lat="45.34022" lon="2.15881">
        <ele>493</ele>
        <time>2012-03-25T09:59:01Z</time>
      </trkpt>
      <trkpt lat="45.34021" lon="2.15889">
        <ele>494</ele>
        <time>2012-03-25T09:59:02Z</time>
      </trkpt>
      <trkpt lat="45.3402" lon="2.15894">
        <ele>495</ele>
        <time>2012-03-25T09:59:03Z</time>
      </trkpt>
      <trkpt lat="45.3402" lon="2.15897">
        <ele>495</ele>
        <time>2012-03-25T09:59:05Z</time>
      </trkpt>
      <trkpt lat="45.3402" lon="2.15906">
        <ele>495</ele>
        <time>2012-03-25T09:59:06Z</time>
      </trkpt>
      <trkpt lat="45.3402" lon="2.15909">
        <ele>496</ele>
        <time>2012-03-25T09:59:07Z</time>
      </trkpt>
      <trkpt lat="45.3402" lon="2.15909">
        <ele>496</ele>
        <time>2012-03-25T09:59:08Z</time>
      </trkpt>
      <trkpt lat="45.3402" lon="2.15913">
        <ele>495</ele>
        <time>2012-03-25T09:59:09Z</time>
      </trkpt>
      <trkpt lat="45.34022" lon="2.1592">
        <ele>496</ele>
        <time>2012-03-25T09:59:10Z</time>
      </trkpt>
      <trkpt lat="45.34023" lon="2.15923">
        <ele>496</ele>
        <time>2012-03-25T09:59:12Z</time>
      </trkpt>
      <trkpt lat="45.34024" lon="2.15932">
        <ele>496</ele>
        <time>2012-03-25T09:59:13Z</time>
      </trkpt>
      <trkpt lat="45.34025" lon="2.15937">
        <ele>496</ele>
        <time>2012-03-25T09:59:14Z</time>
      </trkpt>
      <trkpt lat="45.34024" lon="2.1594">
        <ele>495</ele>
        <time>2012-03-25T09:59:16Z</time>
      </trkpt>
      <trkpt lat="45.34023" lon="2.15945">
        <ele>496</ele>
        <time>2012-03-25T09:59:17Z</time>
      </trkpt>
      <trkpt lat="45.34024" lon="2.1595">
        <ele>497</ele>
        <time>2012-03-25T09:59:18Z</time>
      </trkpt>
      <trkpt lat="45.34024" lon="2.15953">
        <ele>498</ele>
        <time>2012-03-25T09:59:20Z</time>
      </trkpt>
      <trkpt lat="45.34025" lon="2.15962">
        <ele>499</ele>
        <time>2012-03-25T09:59:21Z</time>
      </trkpt>
      <trkpt lat="45.34025" lon="2.15966">
        <ele>498</ele>
        <time>2012-03-25T09:59:22Z</time>
      </trkpt>
      <trkpt lat="45.34025" lon="2.1597">
        <ele>499</ele>
        <time>2012-03-25T09:59:24Z</time>
      </trkpt>
      <trkpt lat="45.34022" lon="2.15976">
        <ele>499</ele>
        <time>2012-03-25T09:59:25Z</time>
      </trkpt>
      <trkpt lat="45.34023" lon="2.15981">
        <ele>498</ele>
        <time>2012-03-25T09:59:26Z</time>
      </trkpt>
      <trkpt lat="45.34023" lon="2.15985">
        <ele>498</ele>
        <time>2012-03-25T09:59:28Z</time>
      </trkpt>
      <trkpt lat="45.34022" lon="2.15992">
        <ele>497</ele>
        <time>2012-03-25T09:59:29Z</time>
      </trkpt>
      <trkpt lat="45.34023" lon="2.15996">
        <ele>497</ele>
        <time>2012-03-25T09:59:30Z</time>
      </trkpt>
      <trkpt lat="45.34023" lon="2.16001">
        <ele>498</ele>
        <time>2012-03-25T09:59:32Z</time>
      </trkpt>
      <trkpt lat="45.34022" lon="2.1601">
        <ele>497</ele>
        <time>2012-03-25T09:59:33Z</time>
      </trkpt>
      <trkpt lat="45.34023" lon="2.16014">
        <ele>497</ele>
        <time>2012-03-25T09:59:34Z</time>
      </trkpt>
      <trkpt lat="45.34022" lon="2.16018">
        <ele>497</ele>
        <time>2012-03-25T09:59:36Z</time>
      </trkpt>
      <trkpt lat="45.34019" lon="2.16025">
        <ele>497</ele>
        <time>2012-03-25T09:59:37Z</time>
      </trkpt>
      <trkpt lat="45.34017" lon="2.16028">
        <ele>496</ele>
        <time>2012-03-25T09:59:38Z</time>
      </trkpt>
      <trkpt lat="45.34017" lon="2.16032">
        <ele>496</ele>
        <time>2012-03-25T09:59:40Z</time>
      </trkpt>
      <trkpt lat="45.34016" lon="2.16038">
        <ele>495</ele>
        <time>2012-03-25T09:59:41Z</time>
      </trkpt>
      <trkpt lat="45.34013" lon="2.1604">
        <ele>495</ele>
        <time>2012-03-25T09:59:42Z</time>
      </trkpt>
      <trkpt lat="45.34012" lon="2.16041">
        <ele>494</ele>
        <time>2012-03-25T09:59:44Z</time>
      </trkpt>
      <trkpt lat="45.34006" lon="2.16044">
        <ele>493</ele>
        <time>2012-03-25T09:59:45Z</time>
      </trkpt>
      <trkpt lat="45.34003" lon="2.16047">
        <ele>493</ele>
        <time>2012-03-25T09:59:46Z</time>
      </trkpt>
      <trkpt lat="45.34001" lon="2.16046">
        <ele>491</ele>
        <time>2012-03-25T09:59:48Z</time>
      </trkpt>
      <trkpt lat="45.33997" lon="2.16046">
        <ele>491</ele>
        <time>2012-03-25T09:59:49Z</time>
      </trkpt>
      <trkpt lat="45.33994" lon="2.16046">
        <ele>491</ele>
        <time>2012-03-25T09:59:50Z</time>
      </trkpt>
      <trkpt lat="45.33992" lon="2.16047">
        <ele>490</ele>
        <time>2012-03-25T09:59:52Z</time>
      </trkpt>
      <trkpt lat="45.3399" lon="2.16045">
        <ele>490</ele>
        <time>2012-03-25T09:59:53Z</time>
      </trkpt>
      <trkpt lat="45.33987" lon="2.16046">
        <ele>490</ele>
        <time>2012-03-25T09:59:54Z</time>
      </trkpt>
      <trkpt lat="45.33987" lon="2.16045">
        <ele>489</ele>
        <time>2012-03-25T09:59:56Z</time>
      </trkpt>
      <trkpt lat="45.33983" lon="2.16044">
        <ele>489</ele>
        <time>2012-03-25T09:59:57Z</time>
      </trkpt>
      <trkpt lat="45.33981" lon="2.16042">
        <ele>489</ele>
        <time>2012-03-25T09:59:58Z</time>
      </trkpt>
      <trkpt lat="45.3398" lon="2.16042">
        <ele>490</ele>
        <time>2012-03-25T10:00:00Z</time>
      </trkpt>
      <trkpt lat="45.33975" lon="2.16041">
        <ele>490</ele>
        <time>2012-03-25T10:00:01Z</time>
      </trkpt>
      <trkpt lat="45.33973" lon="2.16041">
        <ele>490</ele>
        <time>2012-03-25T10:00:02Z</time>
      </trkpt>
      <trkpt lat="45.33971" lon="2.16039">
        <ele>491</ele>
        <time>2012-03-25T10:00:04Z</time>
      </trkpt>
      <trkpt lat="45.33967" lon="2.16038">
        <ele>491</ele>
        <time>2012-03-25T10:00:05Z</time>
      </trkpt>
      <trkpt lat="45.33966" lon="2.16038">
        <ele>491</ele>
        <time>2012-03-25T10:00:06Z</time>
      </trkpt>
      <trkpt lat="45.33965" lon="2.16037">
        <ele>491</ele>
        <time>2012-03-25T10:00:08Z</time>
      </trkpt>
      <trkpt lat="45.33962" lon="2.16035">
        <ele>492</ele>
        <time>2012-03-25T10:00:09Z</time>
      </trkpt>
      <trkpt lat="45.3396" lon="2.16035">
        <ele>492</ele>
        <time>2012-03-25T10:00:10Z</time>
      </trkpt>
      <trkpt lat="45.33959" lon="2.16034">
        <ele>492</ele>
        <time>2012-03-25T10:00:12Z</time>
      </trkpt>
      <trkpt lat="45.33955" lon="2.16031">
        <ele>493</ele>
        <time>2012-03-25T10:00:13Z</time>
      </trkpt>
      <trkpt lat="45.33953" lon="2.16029">
        <ele>493</ele>
        <time>2012-03-25T10:00:14Z</time>
      </trkpt>
      <trkpt lat="45.33951" lon="2.16026">
        <ele>492</ele>
        <time>2012-03-25T10:00:16Z</time>
      </trkpt>
      <trkpt lat="45.33949" lon="2.16021">
        <ele>493</ele>
        <time>2012-03-25T10:00:17Z</time>
      </trkpt>
      <trkpt lat="45.33947" lon="2.1602">
        <ele>493</ele>
        <time>2012-03-25T10:00:18Z</time>
      </trkpt>
      <trkpt lat="45.33944" lon="2.16018">
        <ele>493</ele>
        <time>2012-03-25T10:00:20Z</time>
      </trkpt>
      <trkpt lat="45.33941" lon="2.16011">
        <ele>495</ele>
        <time>2012-03-25T10:00:21Z</time>
      </trkpt>
      <trkpt lat="45.33939" lon="2.16009">
        <ele>495</ele>
        <time>2012-03-25T10:00:22Z</time>
      </trkpt>
      <trkpt lat="45.33938" lon="2.16006">
        <ele>495</ele>
        <time>2012-03-25T10:00:24Z</time>
      </trkpt>
      <trkpt lat="45.33935" lon="2.15998">
        <ele>495</ele>
        <time>2012-03-25T10:00:25Z</time>
      </trkpt>
      <trkpt lat="45.33933" lon="2.15996">
        <ele>496</ele>
        <time>2012-03-25T10:00:26Z</time>
      </trkpt>
      <trkpt lat="45.33932" lon="2.15993">
        <ele>496</ele>
        <time>2012-03-25T10:00:28Z</time>
      </trkpt>
      <trkpt lat="45.33932" lon="2.15987">
        <ele>495</ele>
        <time>2012-03-25T10:00:29Z</time>
      </trkpt>
      <trkpt lat="45.33931" lon="2.15984">
        <ele>496</ele>
        <time>2012-03-25T10:00:30Z</time>
      </trkpt>
      <trkpt lat="45.33931" lon="2.15984">
        <ele>496</ele>
        <time>2012-03-25T10:00:31Z</time>
      </trkpt>
      <trkpt lat="45.33931" lon="2.1598">
        <ele>496</ele>
        <time>2012-03-25T10:00:32Z</time>
      </trkpt>
      <trkpt lat="45.33931" lon="2.15975">
        <ele>495</ele>
        <time>2012-03-25T10:00:33Z</time>
      </trkpt>
      <trkpt lat="45.3393" lon="2.15972">
        <ele>496</ele>
        <time>2012-03-25T10:00:35Z</time>
      </trkpt>
      <trkpt lat="45.33929" lon="2.15963">
        <ele>495</ele>
        <time>2012-03-25T10:00:36Z</time>
      </trkpt>
      <trkpt lat="45.33929" lon="2.1596">
        <ele>495</ele>
        <time>2012-03-25T10:00:37Z</time>
      </trkpt>
      <trkpt lat="45.33928" lon="2.15957">
        <ele>496</ele>
        <time>2012-03-25T10:00:39Z</time>
      </trkpt>
      <trkpt lat="45.33927" lon="2.1595">
        <ele>496</ele>
        <time>2012-03-25T10:00:40Z</time>
      </trkpt>
      <trkpt lat="45.33928" lon="2.15947">
        <ele>496</ele>
        <time>2012-03-25T10:00:41Z</time>
      </trkpt>
      <trkpt lat="45.33927" lon="2.15944">
        <ele>497</ele>
        <time>2012-03-25T10:00:43Z</time>
      </trkpt>
      <trkpt lat="45.33926" lon="2.15937">
        <ele>498</ele>
        <time>2012-03-25T10:00:44Z</time>
      </trkpt>
      <trkpt lat="45.33927" lon="2.15932">
        <ele>498</ele>
        <time>2012-03-25T10:00:45Z</time>
      </trkpt>
      <trkpt lat="45.33926" lon="2.15929">
        <ele>498</ele>
        <time>2012-03-25T10:00:47Z</time>
      </trkpt>
      <trkpt lat="45.33925" lon="2.15921">
        <ele>498</ele>
        <time>2012-03-25T10:00:48Z</time>
      </trkpt>
      <trkpt lat="45.33925" lon="2.15918">
        <ele>498</ele>
        <time>2012-03-25T10:00:49Z</time>
      </trkpt>
      <trkpt lat="45.33925" lon="2.15915">
        <ele>498</ele>
        <time>2012-03-25T10:00:51Z</time>
      </trkpt>
      <trkpt lat="45.33925" lon="2.15907">
        <ele>499</ele>
        <time>2012-03-25T10:00:52Z</time>
      </trkpt>
      <trkpt lat="45.33923" lon="2.15904">
        <ele>499</ele>
        <time>2012-03-25T10:00:53Z</time>
      </trkpt>
      <trkpt lat="45.33923" lon="2.15904">
        <ele>499</ele>
        <time>2012-03-25T10:00:54Z</time>
      </trkpt>
      <trkpt lat="45.33922" lon="2.15899">
        <ele>499</ele>
        <time>2012-03-25T10:00:55Z</time>
      </trkpt>
      <trkpt lat="45.33922" lon="2.1589">
        <ele>500</ele>
        <time>2012-03-25T10:00:56Z</time>
      </trkpt>
      <trkpt lat="45.33923" lon="2.15886">
        <ele>500</ele>
        <time>2012-03-25T10:00:58Z</time>
      </trkpt>
      <trkpt lat="45.33924" lon="2.15877">
        <ele>502</ele>
        <time>2012-03-25T10:00:59Z</time>
      </trkpt>
      <trkpt lat="45.33923" lon="2.15874">
        <ele>502</ele>
        <time>2012-03-25T10:01:00Z</time>
      </trkpt>
      <trkpt lat="45.33923" lon="2.15871">
        <ele>502</ele>
        <time>2012-03-25T10:01:02Z</time>
      </trkpt>
      <trkpt lat="45.33924" lon="2.15862">
        <ele>503</ele>
        <time>2012-03-25T10:01:03Z</time>
      </trkpt>
      <trkpt lat="45.33922" lon="2.1586">
        <ele>503</ele>
        <time>2012-03-25T10:01:04Z</time>
      </trkpt>
      <trkpt lat="45.33922" lon="2.1586">
        <ele>503</ele>
        <time>2012-03-25T10:01:05Z</time>
      </trkpt>
      <trkpt lat="45.33923" lon="2.15854">
        <ele>504</ele>
        <time>2012-03-25T10:01:06Z</time>
      </trkpt>
      <trkpt lat="45.33922" lon="2.15853">
        <ele>505</ele>
        <time>2012-03-25T10:01:07Z</time>
      </trkpt>
      <trkpt lat="45.33922" lon="2.15851">
        <ele>505</ele>
        <time>2012-03-25T10:01:09Z</time>
      </trkpt>
      <trkpt lat="45.33924" lon="2.15844">
        <ele>506</ele>
        <time>2012-03-25T10:01:10Z</time>
      </trkpt>
      <trkpt lat="45.33924" lon="2.15841">
        <ele>506</ele>
        <time>2012-03-25T10:01:11Z</time>
      </trkpt>
      <trkpt lat="45.33924" lon="2.15837">
        <ele>506</ele>
        <time>2012-03-25T10:01:13Z</time>
      </trkpt>
      <trkpt lat="45.33922" lon="2.15831">
        <ele>508</ele>
        <time>2012-03-25T10:01:14Z</time>
      </trkpt>
      <trkpt lat="45.33922" lon="2.15829">
        <ele>508</ele>
        <time>2012-03-25T10:01:15Z</time>
      </trkpt>
      <trkpt lat="45.33924" lon="2.15825">
        <ele>508</ele>
        <time>2012-03-25T10:01:17Z</time>
      </trkpt>
      <trkpt lat="45.33925" lon="2.15814">
        <ele>509</ele>
        <time>2012-03-25T10:01:18Z</time>
      </trkpt>
      <trkpt lat="45.33926" lon="2.1581">
        <ele>509</ele>
        <time>2012-03-25T10:01:19Z</time>
      </trkpt>
      <trkpt lat="45.33927" lon="2.15806">
        <ele>509</ele>
        <time>2012-03-25T10:01:21Z</time>
      </trkpt>
      <trkpt lat="45.33929" lon="2.15797">
        <ele>509</ele>
        <time>2012-03-25T10:01:22Z</time>
      </trkpt>
      <trkpt lat="45.3393" lon="2.15793">
        <ele>509</ele>
        <time>2012-03-25T10:01:23Z</time>
      </trkpt>
      <trkpt lat="45.33932" lon="2.15789">
        <ele>509</ele>
        <time>2012-03-25T10:01:25Z</time>
      </trkpt>
      <trkpt lat="45.33932" lon="2.15778">
        <ele>509</ele>
        <time>2012-03-25T10:01:26Z</time>
      </trkpt>
      <trkpt lat="45.33932" lon="2.15775">
        <ele>510</ele>
        <time>2012-03-25T10:01:27Z</time>
      </trkpt>
      <trkpt lat="45.33933" lon="2.15772">
        <ele>511</ele>
        <time>2012-03-25T10:01:29Z</time>
      </trkpt>
      <trkpt lat="45.33934" lon="2.15764">
        <ele>512</ele>
        <time>2012-03-25T10:01:30Z</time>
      </trkpt>
      <trkpt lat="45.33935" lon="2.1576">
        <ele>511</ele>
        <time>2012-03-25T10:01:31Z</time>
      </trkpt>
      <trkpt lat="45.33936" lon="2.15756">
        <ele>512</ele>
        <time>2012-03-25T10:01:33Z</time>
      </trkpt>
      <trkpt lat="45.33938" lon="2.15749">
        <ele>514</ele>
        <time>2012-03-25T10:01:34Z</time>
      </trkpt>
      <trkpt lat="45.33939" lon="2.15746">
        <ele>514</ele>
        <time>2012-03-25T10:01:35Z</time>
      </trkpt>
      <trkpt lat="45.33939" lon="2.15742">
        <ele>515</ele>
        <time>2012-03-25T10:01:37Z</time>
      </trkpt>
      <trkpt lat="45.3394" lon="2.15734">
        <ele>515</ele>
        <time>2012-03-25T10:01:38Z</time>
      </trkpt>
      <trkpt lat="45.3394" lon="2.15731">
        <ele>515</ele>
        <time>2012-03-25T10:01:39Z</time>
      </trkpt>
      <trkpt lat="45.3394" lon="2.15727">
        <ele>516</ele>
        <time>2012-03-25T10:01:41Z</time>
      </trkpt>
      <trkpt lat="45.33942" lon="2.15722">
        <ele>515</ele>
        <time>2012-03-25T10:01:42Z</time>
      </trkpt>
      <trkpt lat="45.33943" lon="2.15718">
        <ele>515</ele>
        <time>2012-03-25T10:01:43Z</time>
      </trkpt>
      <trkpt lat="45.33944" lon="2.15713">
        <ele>517</ele>
        <time>2012-03-25T10:01:45Z</time>
      </trkpt>
      <trkpt lat="45.33946" lon="2.15704">
        <ele>518</ele>
        <time>2012-03-25T10:01:46Z</time>
      </trkpt>
      <trkpt lat="45.33946" lon="2.15702">
        <ele>518</ele>
        <time>2012-03-25T10:01:47Z</time>
      </trkpt>
      <trkpt lat="45.33947" lon="2.15698">
        <ele>518</ele>
        <time>2012-03-25T10:01:49Z</time>
      </trkpt>
      <trkpt lat="45.33948" lon="2.15693">
        <ele>520</ele>
        <time>2012-03-25T10:01:50Z</time>
      </trkpt>
      <trkpt lat="45.33946" lon="2.1569">
        <ele>520</ele>
        <time>2012-03-25T10:01:51Z</time>
      </trkpt>
      <trkpt lat="45.33946" lon="2.15687">
        <ele>521</ele>
        <time>2012-03-25T10:01:53Z</time>
      </trkpt>
      <trkpt lat="45.33944" lon="2.15679">
        <ele>522</ele>
        <time>2012-03-25T10:01:54Z</time>
      </trkpt>
      <trkpt lat="45.33944" lon="2.15676">
        <ele>522</ele>
        <time>2012-03-25T10:01:55Z</time>
      </trkpt>
      <trkpt lat="45.33944" lon="2.15672">
        <ele>522</ele>
        <time>2012-03-25T10:01:57Z</time>
      </trkpt>
      <trkpt lat="45.33946" lon="2.15664">
        <ele>524</ele>
        <time>2012-03-25T10:01:58Z</time>
      </trkpt>
      <trkpt lat="45.33944" lon="2.15661">
        <ele>524</ele>
        <time>2012-03-25T10:01:59Z</time>
      </trkpt>
      <trkpt lat="45.33943" lon="2.15657">
        <ele>523</ele>
        <time>2012-03-25T10:02:01Z</time>
      </trkpt>
      <trkpt lat="45.33943" lon="2.15649">
        <ele>524</ele>
        <time>2012-03-25T10:02:02Z</time>
      </trkpt>
      <trkpt lat="45.33943" lon="2.15645">
        <ele>524</ele>
        <time>2012-03-25T10:02:03Z</time>
      </trkpt>
      <trkpt lat="45.33943" lon="2.15642">
        <ele>524</ele>
        <time>2012-03-25T10:02:05Z</time>
      </trkpt>
      <trkpt lat="45.33942" lon="2.15634">
        <ele>524</ele>
        <time>2012-03-25T10:02:06Z</time>
      </trkpt>
      <trkpt lat="45.33941" lon="2.15632">
        <ele>523</ele>
        <time>2012-03-25T10:02:07Z</time>
      </trkpt>
      <trkpt lat="45.33941" lon="2.1563">
        <ele>522</ele>
        <time>2012-03-25T10:02:09Z</time>
      </trkpt>
      <trkpt lat="45.3394" lon="2.15623">
        <ele>522</ele>
        <time>2012-03-25T10:02:10Z</time>
      </trkpt>
      <trkpt lat="45.3394" lon="2.15618">
        <ele>523</ele>
        <time>2012-03-25T10:02:11Z</time>
      </trkpt>
      <trkpt lat="45.33939" lon="2.15616">
        <ele>523</ele>
        <time>2012-03-25T10:02:13Z</time>
      </trkpt>
      <trkpt lat="45.33937" lon="2.1561">
        <ele>522</ele>
        <time>2012-03-25T10:02:14Z</time>
      </trkpt>
      <trkpt lat="45.33935" lon="2.15607">
        <ele>522</ele>
        <time>2012-03-25T10:02:15Z</time>
      </trkpt>
      <trkpt lat="45.33935" lon="2.15604">
        <ele>523</ele>
        <time>2012-03-25T10:02:17Z</time>
      </trkpt>
      <trkpt lat="45.33933" lon="2.15601">
        <ele>523</ele>
        <time>2012-03-25T10:02:18Z</time>
      </trkpt>
      <trkpt lat="45.33932" lon="2.15598">
        <ele>523</ele>
        <time>2012-03-25T10:02:19Z</time>
      </trkpt>
      <trkpt lat="45.33932" lon="2.15598">
        <ele>523</ele>
        <time>2012-03-25T10:02:21Z</time>
      </trkpt>
      <trkpt lat="45.3393" lon="2.15588">
        <ele>524</ele>
        <time>2012-03-25T10:02:22Z</time>
      </trkpt>
      <trkpt lat="45.33929" lon="2.15585">
        <ele>524</ele>
        <time>2012-03-25T10:02:23Z</time>
      </trkpt>
      <trkpt lat="45.33928" lon="2.15582">
        <ele>524</ele>
        <time>2012-03-25T10:02:25Z</time>
      </trkpt>
      <trkpt lat="45.33925" lon="2.15576">
        <ele>524</ele>
        <time>2012-03-25T10:02:26Z</time>
      </trkpt>
      <trkpt lat="45.33924" lon="2.15573">
        <ele>524</ele>
        <time>2012-03-25T10:02:27Z</time>
      </trkpt>
      <trkpt lat="45.33923" lon="2.15566">
        <ele>524</ele>
        <time>2012-03-25T10:02:29Z</time>
      </trkpt>
      <trkpt lat="45.33922" lon="2.15558">
        <ele>524</ele>
        <time>2012-03-25T10:02:30Z</time>
      </trkpt>
      <trkpt lat="45.33922" lon="2.15556">
        <ele>524</ele>
        <time>2012-03-25T10:02:31Z</time>
      </trkpt>
      <trkpt lat="45.33922" lon="2.15556">
        <ele>524</ele>
        <time>2012-03-25T10:02:33Z</time>
      </trkpt>
      <trkpt lat="45.3392" lon="2.15552">
        <ele>523</ele>
        <time>2012-03-25T10:02:34Z</time>
      </trkpt>
      <trkpt lat="45.33916" lon="2.15539">
        <ele>521</ele>
        <time>2012-03-25T10:02:35Z</time>
      </trkpt>
      <trkpt lat="45.33913" lon="2.15536">
        <ele>521</ele>
        <time>2012-03-25T10:02:37Z</time>
      </trkpt>
      <trkpt lat="45.33912" lon="2.1553">
        <ele>520</ele>
        <time>2012-03-25T10:02:38Z</time>
      </trkpt>
      <trkpt lat="45.33911" lon="2.15527">
        <ele>520</ele>
        <time>2012-03-25T10:02:39Z</time>
      </trkpt>
      <trkpt lat="45.33911" lon="2.15527">
        <ele>520</ele>
        <time>2012-03-25T10:02:40Z</time>
      </trkpt>
      <trkpt lat="45.3391" lon="2.15523">
        <ele>520</ele>
        <time>2012-03-25T10:02:41Z</time>
      </trkpt>
      <trkpt lat="45.3391" lon="2.15518">
        <ele>520</ele>
        <time>2012-03-25T10:02:42Z</time>
      </trkpt>
      <trkpt lat="45.33911" lon="2.15516">
        <ele>520</ele>
        <time>2012-03-25T10:02:44Z</time>
      </trkpt>
      <trkpt lat="45.33912" lon="2.1551">
        <ele>520</ele>
        <time>2012-03-25T10:02:45Z</time>
      </trkpt>
      <trkpt lat="45.33912" lon="2.15507">
        <ele>520</ele>
        <time>2012-03-25T10:02:46Z</time>
      </trkpt>
      <trkpt lat="45.33914" lon="2.15502">
        <ele>520</ele>
        <time>2012-03-25T10:02:48Z</time>
      </trkpt>
      <trkpt lat="45.33917" lon="2.15494">
        <ele>520</ele>
        <time>2012-03-25T10:02:49Z</time>
      </trkpt>
      <trkpt lat="45.33917" lon="2.1549">
        <ele>521</ele>
        <time>2012-03-25T10:02:50Z</time>
      </trkpt>
      <trkpt lat="45.33919" lon="2.15487">
        <ele>521</ele>
        <time>2012-03-25T10:02:52Z</time>
      </trkpt>
      <trkpt lat="45.33921" lon="2.15483">
        <ele>521</ele>
        <time>2012-03-25T10:02:53Z</time>
      </trkpt>
      <trkpt lat="45.33922" lon="2.15481">
        <ele>521</ele>
        <time>2012-03-25T10:02:54Z</time>
      </trkpt>
      <trkpt lat="45.33924" lon="2.15478">
        <ele>522</ele>
        <time>2012-03-25T10:02:56Z</time>
      </trkpt>
      <trkpt lat="45.33926" lon="2.15472">
        <ele>522</ele>
        <time>2012-03-25T10:02:57Z</time>
      </trkpt>
      <trkpt lat="45.33928" lon="2.15468">
        <ele>522</ele>
        <time>2012-03-25T10:02:58Z</time>
      </trkpt>
      <trkpt lat="45.33929" lon="2.15465">
        <ele>523</ele>
        <time>2012-03-25T10:03:00Z</time>
      </trkpt>
      <trkpt lat="45.3393" lon="2.15459">
        <ele>524</ele>
        <time>2012-03-25T10:03:01Z</time>
      </trkpt>
      <trkpt lat="45.33931" lon="2.15458">
        <ele>525</ele>
        <time>2012-03-25T10:03:02Z</time>
      </trkpt>
      <trkpt lat="45.33932" lon="2.15454">
        <ele>526</ele>
        <time>2012-03-25T10:03:04Z</time>
      </trkpt>
      <trkpt lat="45.33934" lon="2.15446">
        <ele>526</ele>
        <time>2012-03-25T10:03:05Z</time>
      </trkpt>
      <trkpt lat="45.33935" lon="2.15443">
        <ele>525</ele>
        <time>2012-03-25T10:03:06Z</time>
      </trkpt>
      <trkpt lat="45.33937" lon="2.1544">
        <ele>525</ele>
        <time>2012-03-25T10:03:08Z</time>
      </trkpt>
      <trkpt lat="45.33939" lon="2.15435">
        <ele>526</ele>
        <time>2012-03-25T10:03:09Z</time>
      </trkpt>
      <trkpt lat="45.33939" lon="2.15429">
        <ele>527</ele>
        <time>2012-03-25T10:03:10Z</time>
      </trkpt>
      <trkpt lat="45.33939" lon="2.15429">
        <ele>527</ele>
        <time>2012-03-25T10:03:11Z</time>
      </trkpt>
      <trkpt lat="45.3394" lon="2.15421">
        <ele>528</ele>
        <time>2012-03-25T10:03:12Z</time>
      </trkpt>
      <trkpt lat="45.3394" lon="2.15417">
        <ele>529</ele>
        <time>2012-03-25T10:03:13Z</time>
      </trkpt>
      <trkpt lat="45.33941" lon="2.15414">
        <ele>529</ele>
        <time>2012-03-25T10:03:15Z</time>
      </trkpt>
      <trkpt lat="45.33942" lon="2.15407">
        <ele>530</ele>
        <time>2012-03-25T10:03:16Z</time>
      </trkpt>
      <trkpt lat="45.33943" lon="2.15403">
        <ele>530</ele>
        <time>2012-03-25T10:03:17Z</time>
      </trkpt>
      <trkpt lat="45.33944" lon="2.154">
        <ele>531</ele>
        <time>2012-03-25T10:03:19Z</time>
      </trkpt>
      <trkpt lat="45.33946" lon="2.15394">
        <ele>531</ele>
        <time>2012-03-25T10:03:20Z</time>
      </trkpt>
      <trkpt lat="45.33947" lon="2.15388">
        <ele>531</ele>
        <time>2012-03-25T10:03:21Z</time>
      </trkpt>
      <trkpt lat="45.33948" lon="2.15385">
        <ele>532</ele>
        <time>2012-03-25T10:03:23Z</time>
      </trkpt>
      <trkpt lat="45.33949" lon="2.15377">
        <ele>533</ele>
        <time>2012-03-25T10:03:24Z</time>
      </trkpt>
      <trkpt lat="45.33948" lon="2.15374">
        <ele>533</ele>
        <time>2012-03-25T10:03:25Z</time>
      </trkpt>
      <trkpt lat="45.33948" lon="2.15371">
        <ele>534</ele>
        <time>2012-03-25T10:03:27Z</time>
      </trkpt>
      <trkpt lat="45.3395" lon="2.15364">
        <ele>535</ele>
        <time>2012-03-25T10:03:28Z</time>
      </trkpt>
      <trkpt lat="45.3395" lon="2.15361">
        <ele>536</ele>
        <time>2012-03-25T10:03:29Z</time>
      </trkpt>
      <trkpt lat="45.33951" lon="2.15358">
        <ele>536</ele>
        <time>2012-03-25T10:03:31Z</time>
      </trkpt>
      <trkpt lat="45.33953" lon="2.15353">
        <ele>537</ele>
        <time>2012-03-25T10:03:32Z</time>
      </trkpt>
      <trkpt lat="45.33954" lon="2.15347">
        <ele>536</ele>
        <time>2012-03-25T10:03:33Z</time>
      </trkpt>
      <trkpt lat="45.33954" lon="2.15347">
        <ele>536</ele>
        <time>2012-03-25T10:03:34Z</time>
      </trkpt>
      <trkpt lat="45.33957" lon="2.1534">
        <ele>537</ele>
        <time>2012-03-25T10:03:35Z</time>
      </trkpt>
      <trkpt lat="45.33958" lon="2.15336">
        <ele>537</ele>
        <time>2012-03-25T10:03:36Z</time>
      </trkpt>
      <trkpt lat="45.33958" lon="2.15334">
        <ele>538</ele>
        <time>2012-03-25T10:03:38Z</time>
      </trkpt>
      <trkpt lat="45.33959" lon="2.15329">
        <ele>538</ele>
        <time>2012-03-25T10:03:39Z</time>
      </trkpt>
      <trkpt lat="45.33961" lon="2.15326">
        <ele>539</ele>
        <time>2012-03-25T10:03:40Z</time>
      </trkpt>
      <trkpt lat="45.33962" lon="2.1532">
        <ele>538</ele>
        <time>2012-03-25T10:03:42Z</time>
      </trkpt>
      <trkpt lat="45.33964" lon="2.15313">
        <ele>538</ele>
        <time>2012-03-25T10:03:43Z</time>
      </trkpt>
      <trkpt lat="45.33964" lon="2.15308">
        <ele>538</ele>
        <time>2012-03-25T10:03:44Z</time>
      </trkpt>
      <trkpt lat="45.33964" lon="2.15308">
        <ele>538</ele>
        <time>2012-03-25T10:03:45Z</time>
      </trkpt>
      <trkpt lat="45.33964" lon="2.15304">
        <ele>539</ele>
        <time>2012-03-25T10:03:46Z</time>
      </trkpt>
      <trkpt lat="45.33967" lon="2.15297">
        <ele>540</ele>
        <time>2012-03-25T10:03:47Z</time>
      </trkpt>
      <trkpt lat="45.33969" lon="2.15293">
        <ele>539</ele>
        <time>2012-03-25T10:03:48Z</time>
      </trkpt>
      <trkpt lat="45.33969" lon="2.1529">
        <ele>540</ele>
        <time>2012-03-25T10:03:49Z</time>
      </trkpt>
      <trkpt lat="45.3397" lon="2.15288">
        <ele>539</ele>
        <time>2012-03-25T10:03:50Z</time>
      </trkpt>
      <trkpt lat="45.33971" lon="2.15286">
        <ele>539</ele>
        <time>2012-03-25T10:03:51Z</time>
      </trkpt>
      <trkpt lat="45.33972" lon="2.15283">
        <ele>540</ele>
        <time>2012-03-25T10:03:52Z</time>
      </trkpt>
      <trkpt lat="45.33972" lon="2.1528">
        <ele>540</ele>
        <time>2012-03-25T10:03:53Z</time>
      </trkpt>
      <trkpt lat="45.33973" lon="2.15275">
        <ele>541</ele>
        <time>2012-03-25T10:03:54Z</time>
      </trkpt>
      <trkpt lat="45.33975" lon="2.1527">
        <ele>541</ele>
        <time>2012-03-25T10:03:56Z</time>
      </trkpt>
      <trkpt lat="45.33975" lon="2.15267">
        <ele>541</ele>
        <time>2012-03-25T10:03:57Z</time>
      </trkpt>
      <trkpt lat="45.33976" lon="2.15263">
        <ele>542</ele>
        <time>2012-03-25T10:03:58Z</time>
      </trkpt>
      <trkpt lat="45.33977" lon="2.15259">
        <ele>541</ele>
        <time>2012-03-25T10:03:59Z</time>
      </trkpt>
      <trkpt lat="45.33978" lon="2.15257">
        <ele>539</ele>
        <time>2012-03-25T10:04:00Z</time>
      </trkpt>
      <trkpt lat="45.33978" lon="2.15255">
        <ele>540</ele>
        <time>2012-03-25T10:04:01Z</time>
      </trkpt>
      <trkpt lat="45.33979" lon="2.15252">
        <ele>539</ele>
        <time>2012-03-25T10:04:02Z</time>
      </trkpt>
      <trkpt lat="45.33979" lon="2.15247">
        <ele>540</ele>
        <time>2012-03-25T10:04:03Z</time>
      </trkpt>
      <trkpt lat="45.3398" lon="2.15242">
        <ele>540</ele>
        <time>2012-03-25T10:04:04Z</time>
      </trkpt>
      <trkpt lat="45.33981" lon="2.15239">
        <ele>540</ele>
        <time>2012-03-25T10:04:05Z</time>
      </trkpt>
      <trkpt lat="45.33984" lon="2.15236">
        <ele>540</ele>
        <time>2012-03-25T10:04:06Z</time>
      </trkpt>
      <trkpt lat="45.33985" lon="2.15233">
        <ele>541</ele>
        <time>2012-03-25T10:04:07Z</time>
      </trkpt>
      <trkpt lat="45.33986" lon="2.1523">
        <ele>540</ele>
        <time>2012-03-25T10:04:08Z</time>
      </trkpt>
      <trkpt lat="45.33987" lon="2.15227">
        <ele>540</ele>
        <time>2012-03-25T10:04:09Z</time>
      </trkpt>
      <trkpt lat="45.33987" lon="2.15224">
        <ele>540</ele>
        <time>2012-03-25T10:04:10Z</time>
      </trkpt>
      <trkpt lat="45.33988" lon="2.1522">
        <ele>540</ele>
        <time>2012-03-25T10:04:11Z</time>
      </trkpt>
      <trkpt lat="45.33988" lon="2.15217">
        <ele>541</ele>
        <time>2012-03-25T10:04:12Z</time>
      </trkpt>
      <trkpt lat="45.33988" lon="2.15214">
        <ele>543</ele>
        <time>2012-03-25T10:04:13Z</time>
      </trkpt>
      <trkpt lat="45.33988" lon="2.15211">
        <ele>542</ele>
        <time>2012-03-25T10:04:14Z</time>
      </trkpt>
      <trkpt lat="45.33987" lon="2.15208">
        <ele>543</ele>
        <time>2012-03-25T10:04:15Z</time>
      </trkpt>
      <trkpt lat="45.33987" lon="2.15203">
        <ele>543</ele>
        <time>2012-03-25T10:04:16Z</time>
      </trkpt>
      <trkpt lat="45.33988" lon="2.15202">
        <ele>543</ele>
        <time>2012-03-25T10:04:17Z</time>
      </trkpt>
      <trkpt lat="45.33988" lon="2.15197">
        <ele>543</ele>
        <time>2012-03-25T10:04:18Z</time>
      </trkpt>
      <trkpt lat="45.33987" lon="2.15194">
        <ele>543</ele>
        <time>2012-03-25T10:04:19Z</time>
      </trkpt>
      <trkpt lat="45.3399" lon="2.15189">
        <ele>543</ele>
        <time>2012-03-25T10:04:20Z</time>
      </trkpt>
      <trkpt lat="45.3399" lon="2.15186">
        <ele>542</ele>
        <time>2012-03-25T10:04:21Z</time>
      </trkpt>
      <trkpt lat="45.33991" lon="2.15182">
        <ele>542</ele>
        <time>2012-03-25T10:04:22Z</time>
      </trkpt>
      <trkpt lat="45.33992" lon="2.15178">
        <ele>542</ele>
        <time>2012-03-25T10:04:23Z</time>
      </trkpt>
      <trkpt lat="45.33991" lon="2.15173">
        <ele>542</ele>
        <time>2012-03-25T10:04:24Z</time>
      </trkpt>
      <trkpt lat="45.33993" lon="2.15168">
        <ele>542</ele>
        <time>2012-03-25T10:04:26Z</time>
      </trkpt>
      <trkpt lat="45.33993" lon="2.15165">
        <ele>543</ele>
        <time>2012-03-25T10:04:27Z</time>
      </trkpt>
      <trkpt lat="45.33994" lon="2.15156">
        <ele>543</ele>
        <time>2012-03-25T10:04:28Z</time>
      </trkpt>
      <trkpt lat="45.33994" lon="2.15152">
        <ele>543</ele>
        <time>2012-03-25T10:04:30Z</time>
      </trkpt>
      <trkpt lat="45.33995" lon="2.1515">
        <ele>544</ele>
        <time>2012-03-25T10:04:31Z</time>
      </trkpt>
      <trkpt lat="45.33995" lon="2.15142">
        <ele>545</ele>
        <time>2012-03-25T10:04:32Z</time>
      </trkpt>
      <trkpt lat="45.33996" lon="2.15138">
        <ele>545</ele>
        <time>2012-03-25T10:04:34Z</time>
      </trkpt>
      <trkpt lat="45.33997" lon="2.15134">
        <ele>546</ele>
        <time>2012-03-25T10:04:35Z</time>
      </trkpt>
      <trkpt lat="45.33998" lon="2.15124">
        <ele>545</ele>
        <time>2012-03-25T10:04:36Z</time>
      </trkpt>
      <trkpt lat="45.33998" lon="2.1512">
        <ele>544</ele>
        <time>2012-03-25T10:04:38Z</time>
      </trkpt>
      <trkpt lat="45.34" lon="2.15107">
        <ele>543</ele>
        <time>2012-03-25T10:04:39Z</time>
      </trkpt>
      <trkpt lat="45.34001" lon="2.15103">
        <ele>543</ele>
        <time>2012-03-25T10:04:40Z</time>
      </trkpt>
      <trkpt lat="45.34" lon="2.15098">
        <ele>543</ele>
        <time>2012-03-25T10:04:42Z</time>
      </trkpt>
      <trkpt lat="45.33999" lon="2.1509">
        <ele>544</ele>
        <time>2012-03-25T10:04:43Z</time>
      </trkpt>
      <trkpt lat="45.33997" lon="2.15086">
        <ele>544</ele>
        <time>2012-03-25T10:04:44Z</time>
      </trkpt>
      <trkpt lat="45.33997" lon="2.15081">
        <ele>545</ele>
        <time>2012-03-25T10:04:46Z</time>
      </trkpt>
      <trkpt lat="45.33997" lon="2.15072">
        <ele>546</ele>
        <time>2012-03-25T10:04:47Z</time>
      </trkpt>
      <trkpt lat="45.33995" lon="2.15068">
        <ele>546</ele>
        <time>2012-03-25T10:04:48Z</time>
      </trkpt>
      <trkpt lat="45.33995" lon="2.15064">
        <ele>546</ele>
        <time>2012-03-25T10:04:50Z</time>
      </trkpt>
      <trkpt lat="45.33994" lon="2.15056">
        <ele>544</ele>
        <time>2012-03-25T10:04:51Z</time>
      </trkpt>
      <trkpt lat="45.33993" lon="2.15053">
        <ele>544</ele>
        <time>2012-03-25T10:04:52Z</time>
      </trkpt>
      <trkpt lat="45.33992" lon="2.15049">
        <ele>544</ele>
        <time>2012-03-25T10:04:54Z</time>
      </trkpt>
      <trkpt lat="45.33991" lon="2.15043">
        <ele>545</ele>
        <time>2012-03-25T10:04:55Z</time>
      </trkpt>
      <trkpt lat="45.33992" lon="2.15038">
        <ele>545</ele>
        <time>2012-03-25T10:04:56Z</time>
      </trkpt>
      <trkpt lat="45.33991" lon="2.15034">
        <ele>546</ele>
        <time>2012-03-25T10:04:58Z</time>
      </trkpt>
      <trkpt lat="45.33991" lon="2.15024">
        <ele>544</ele>
        <time>2012-03-25T10:04:59Z</time>
      </trkpt>
      <trkpt lat="45.3399" lon="2.15019">
        <ele>544</ele>
        <time>2012-03-25T10:05:00Z</time>
      </trkpt>
      <trkpt lat="45.33988" lon="2.15015">
        <ele>544</ele>
        <time>2012-03-25T10:05:02Z</time>
      </trkpt>
      <trkpt lat="45.33988" lon="2.15008">
        <ele>544</ele>
        <time>2012-03-25T10:05:03Z</time>
      </trkpt>
      <trkpt lat="45.33988" lon="2.15004">
        <ele>544</ele>
        <time>2012-03-25T10:05:04Z</time>
      </trkpt>
      <trkpt lat="45.33987" lon="2.15">
        <ele>545</ele>
        <time>2012-03-25T10:05:06Z</time>
      </trkpt>
      <trkpt lat="45.33986" lon="2.14991">
        <ele>545</ele>
        <time>2012-03-25T10:05:07Z</time>
      </trkpt>
      <trkpt lat="45.33986" lon="2.14988">
        <ele>545</ele>
        <time>2012-03-25T10:05:08Z</time>
      </trkpt>
      <trkpt lat="45.33986" lon="2.14984">
        <ele>545</ele>
        <time>2012-03-25T10:05:10Z</time>
      </trkpt>
      <trkpt lat="45.33984" lon="2.14977">
        <ele>546</ele>
        <time>2012-03-25T10:05:11Z</time>
      </trkpt>
      <trkpt lat="45.33982" lon="2.14973">
        <ele>547</ele>
        <time>2012-03-25T10:05:12Z</time>
      </trkpt>
      <trkpt lat="45.33981" lon="2.14969">
        <ele>547</ele>
        <time>2012-03-25T10:05:14Z</time>
      </trkpt>
      <trkpt lat="45.33978" lon="2.14962">
        <ele>546</ele>
        <time>2012-03-25T10:05:15Z</time>
      </trkpt>
      <trkpt lat="45.33977" lon="2.14959">
        <ele>547</ele>
        <time>2012-03-25T10:05:16Z</time>
      </trkpt>
      <trkpt lat="45.33976" lon="2.14957">
        <ele>547</ele>
        <time>2012-03-25T10:05:18Z</time>
      </trkpt>
      <trkpt lat="45.33976" lon="2.1495">
        <ele>548</ele>
        <time>2012-03-25T10:05:19Z</time>
      </trkpt>
      <trkpt lat="45.33977" lon="2.14946">
        <ele>549</ele>
        <time>2012-03-25T10:05:20Z</time>
      </trkpt>
      <trkpt lat="45.33976" lon="2.14942">
        <ele>550</ele>
        <time>2012-03-25T10:05:22Z</time>
      </trkpt>
      <trkpt lat="45.33977" lon="2.14934">
        <ele>550</ele>
        <time>2012-03-25T10:05:23Z</time>
      </trkpt>
      <trkpt lat="45.33977" lon="2.14929">
        <ele>550</ele>
        <time>2012-03-25T10:05:24Z</time>
      </trkpt>
      <trkpt lat="45.33976" lon="2.14927">
        <ele>549</ele>
        <time>2012-03-25T10:05:26Z</time>
      </trkpt>
      <trkpt lat="45.33973" lon="2.14918">
        <ele>550</ele>
        <time>2012-03-25T10:05:27Z</time>
      </trkpt>
      <trkpt lat="45.33972" lon="2.14915">
        <ele>551</ele>
        <time>2012-03-25T10:05:28Z</time>
      </trkpt>
      <trkpt lat="45.33971" lon="2.14912">
        <ele>551</ele>
        <time>2012-03-25T10:05:30Z</time>
      </trkpt>
      <trkpt lat="45.33971" lon="2.14904">
        <ele>552</ele>
        <time>2012-03-25T10:05:31Z</time>
      </trkpt>
      <trkpt lat="45.3397" lon="2.149">
        <ele>553</ele>
        <time>2012-03-25T10:05:32Z</time>
      </trkpt>
      <trkpt lat="45.33969" lon="2.14897">
        <ele>554</ele>
        <time>2012-03-25T10:05:34Z</time>
      </trkpt>
      <trkpt lat="45.33968" lon="2.14889">
        <ele>554</ele>
        <time>2012-03-25T10:05:35Z</time>
      </trkpt>
      <trkpt lat="45.33968" lon="2.14885">
        <ele>555</ele>
        <time>2012-03-25T10:05:36Z</time>
      </trkpt>
      <trkpt lat="45.33966" lon="2.14882">
        <ele>555</ele>
        <time>2012-03-25T10:05:38Z</time>
      </trkpt>
      <trkpt lat="45.33964" lon="2.14873">
        <ele>555</ele>
        <time>2012-03-25T10:05:39Z</time>
      </trkpt>
      <trkpt lat="45.33964" lon="2.14871">
        <ele>556</ele>
        <time>2012-03-25T10:05:40Z</time>
      </trkpt>
      <trkpt lat="45.33962" lon="2.14868">
        <ele>555</ele>
        <time>2012-03-25T10:05:42Z</time>
      </trkpt>
      <trkpt lat="45.33961" lon="2.14861">
        <ele>556</ele>
        <time>2012-03-25T10:05:43Z</time>
      </trkpt>
      <trkpt lat="45.33959" lon="2.14857">
        <ele>556</ele>
        <time>2012-03-25T10:05:44Z</time>
      </trkpt>
      <trkpt lat="45.33958" lon="2.14854">
        <ele>556</ele>
        <time>2012-03-25T10:05:46Z</time>
      </trkpt>
      <trkpt lat="45.33957" lon="2.14846">
        <ele>556</ele>
        <time>2012-03-25T10:05:47Z</time>
      </trkpt>
      <trkpt lat="45.33956" lon="2.14842">
        <ele>557</ele>
        <time>2012-03-25T10:05:48Z</time>
      </trkpt>
      <trkpt lat="45.33956" lon="2.14839">
        <ele>557</ele>
        <time>2012-03-25T10:05:50Z</time>
      </trkpt>
      <trkpt lat="45.33955" lon="2.14832">
        <ele>558</ele>
        <time>2012-03-25T10:05:51Z</time>
      </trkpt>
      <trkpt lat="45.33954" lon="2.14828">
        <ele>558</ele>
        <time>2012-03-25T10:05:52Z</time>
      </trkpt>
      <trkpt lat="45.33955" lon="2.14825">
        <ele>558</ele>
        <time>2012-03-25T10:05:54Z</time>
      </trkpt>
      <trkpt lat="45.33953" lon="2.14818">
        <ele>558</ele>
        <time>2012-03-25T10:05:55Z</time>
      </trkpt>
      <trkpt lat="45.33952" lon="2.14814">
        <ele>558</ele>
        <time>2012-03-25T10:05:56Z</time>
      </trkpt>
      <trkpt lat="45.33951" lon="2.14811">
        <ele>558</ele>
        <time>2012-03-25T10:05:58Z</time>
      </trkpt>
      <trkpt lat="45.3395" lon="2.14803">
        <ele>558</ele>
        <time>2012-03-25T10:05:59Z</time>
      </trkpt>
      <trkpt lat="45.33948" lon="2.14799">
        <ele>558</ele>
        <time>2012-03-25T10:06:00Z</time>
      </trkpt>
      <trkpt lat="45.33947" lon="2.14796">
        <ele>558</ele>
        <time>2012-03-25T10:06:02Z</time>
      </trkpt>
      <trkpt lat="45.33945" lon="2.14787">
        <ele>559</ele>
        <time>2012-03-25T10:06:03Z</time>
      </trkpt>
      <trkpt lat="45.33943" lon="2.14783">
        <ele>559</ele>
        <time>2012-03-25T10:06:04Z</time>
      </trkpt>
      <trkpt lat="45.33942" lon="2.14781">
        <ele>560</ele>
        <time>2012-03-25T10:06:06Z</time>
      </trkpt>
      <trkpt lat="45.33936" lon="2.14775">
        <ele>561</ele>
        <time>2012-03-25T10:06:07Z</time>
      </trkpt>
      <trkpt lat="45.33934" lon="2.14773">
        <ele>561</ele>
        <time>2012-03-25T10:06:10Z</time>
      </trkpt>
      <trkpt lat="45.33934" lon="2.14773">
        <ele>561</ele>
        <time>2012-03-25T10:06:12Z</time>
      </trkpt>
      <trkpt lat="45.33933" lon="2.1477">
        <ele>561</ele>
        <time>2012-03-25T10:06:13Z</time>
      </trkpt>
      <trkpt lat="45.33926" lon="2.14759">
        <ele>559</ele>
        <time>2012-03-25T10:06:14Z</time>
      </trkpt>
      <trkpt lat="45.33925" lon="2.14756">
        <ele>559</ele>
        <time>2012-03-25T10:06:16Z</time>
      </trkpt>
      <trkpt lat="45.33923" lon="2.1475">
        <ele>559</ele>
        <time>2012-03-25T10:06:17Z</time>
      </trkpt>
      <trkpt lat="45.33922" lon="2.14747">
        <ele>559</ele>
        <time>2012-03-25T10:06:18Z</time>
      </trkpt>
      <trkpt lat="45.33921" lon="2.14743">
        <ele>559</ele>
        <time>2012-03-25T10:06:20Z</time>
      </trkpt>
      <trkpt lat="45.33918" lon="2.14736">
        <ele>558</ele>
        <time>2012-03-25T10:06:21Z</time>
      </trkpt>
      <trkpt lat="45.33916" lon="2.14732">
        <ele>558</ele>
        <time>2012-03-25T10:06:22Z</time>
      </trkpt>
      <trkpt lat="45.33915" lon="2.1473">
        <ele>558</ele>
        <time>2012-03-25T10:06:24Z</time>
      </trkpt>
      <trkpt lat="45.33911" lon="2.14724">
        <ele>559</ele>
        <time>2012-03-25T10:06:25Z</time>
      </trkpt>
      <trkpt lat="45.3391" lon="2.14721">
        <ele>559</ele>
        <time>2012-03-25T10:06:26Z</time>
      </trkpt>
      <trkpt lat="45.33907" lon="2.14718">
        <ele>559</ele>
        <time>2012-03-25T10:06:28Z</time>
      </trkpt>
      <trkpt lat="45.33904" lon="2.14709">
        <ele>560</ele>
        <time>2012-03-25T10:06:29Z</time>
      </trkpt>
      <trkpt lat="45.33903" lon="2.14705">
        <ele>560</ele>
        <time>2012-03-25T10:06:30Z</time>
      </trkpt>
      <trkpt lat="45.33902" lon="2.14702">
        <ele>560</ele>
        <time>2012-03-25T10:06:32Z</time>
      </trkpt>
      <trkpt lat="45.339" lon="2.14697">
        <ele>562</ele>
        <time>2012-03-25T10:06:33Z</time>
      </trkpt>
      <trkpt lat="45.33899" lon="2.14694">
        <ele>563</ele>
        <time>2012-03-25T10:06:34Z</time>
      </trkpt>
      <trkpt lat="45.339" lon="2.14692">
        <ele>563</ele>
        <time>2012-03-25T10:06:36Z</time>
      </trkpt>
      <trkpt lat="45.339" lon="2.14682">
        <ele>564</ele>
        <time>2012-03-25T10:06:37Z</time>
      </trkpt>
      <trkpt lat="45.33901" lon="2.14678">
        <ele>565</ele>
        <time>2012-03-25T10:06:38Z</time>
      </trkpt>
      <trkpt lat="45.33901" lon="2.14675">
        <ele>566</ele>
        <time>2012-03-25T10:06:40Z</time>
      </trkpt>
      <trkpt lat="45.33899" lon="2.14669">
        <ele>567</ele>
        <time>2012-03-25T10:06:41Z</time>
      </trkpt>
      <trkpt lat="45.33899" lon="2.14667">
        <ele>567</ele>
        <time>2012-03-25T10:06:42Z</time>
      </trkpt>
      <trkpt lat="45.33898" lon="2.14662">
        <ele>567</ele>
        <time>2012-03-25T10:06:44Z</time>
      </trkpt>
      <trkpt lat="45.33896" lon="2.14653">
        <ele>568</ele>
        <time>2012-03-25T10:06:45Z</time>
      </trkpt>
      <trkpt lat="45.33896" lon="2.14648">
        <ele>569</ele>
        <time>2012-03-25T10:06:46Z</time>
      </trkpt>
      <trkpt lat="45.33895" lon="2.14645">
        <ele>569</ele>
        <time>2012-03-25T10:06:48Z</time>
      </trkpt>
      <trkpt lat="45.3389" lon="2.14639">
        <ele>568</ele>
        <time>2012-03-25T10:06:49Z</time>
      </trkpt>
      <trkpt lat="45.33888" lon="2.14636">
        <ele>568</ele>
        <time>2012-03-25T10:06:50Z</time>
      </trkpt>
      <trkpt lat="45.33885" lon="2.14634">
        <ele>568</ele>
        <time>2012-03-25T10:06:52Z</time>
      </trkpt>
      <trkpt lat="45.33883" lon="2.14627">
        <ele>569</ele>
        <time>2012-03-25T10:06:53Z</time>
      </trkpt>
      <trkpt lat="45.33881" lon="2.14625">
        <ele>569</ele>
        <time>2012-03-25T10:06:54Z</time>
      </trkpt>
      <trkpt lat="45.33881" lon="2.14621">
        <ele>569</ele>
        <time>2012-03-25T10:06:56Z</time>
      </trkpt>
      <trkpt lat="45.33879" lon="2.14615">
        <ele>570</ele>
        <time>2012-03-25T10:06:57Z</time>
      </trkpt>
      <trkpt lat="45.33878" lon="2.14613">
        <ele>570</ele>
        <time>2012-03-25T10:06:58Z</time>
      </trkpt>
      <trkpt lat="45.33877" lon="2.14609">
        <ele>570</ele>
        <time>2012-03-25T10:07:00Z</time>
      </trkpt>
      <trkpt lat="45.33877" lon="2.14604">
        <ele>571</ele>
        <time>2012-03-25T10:07:01Z</time>
      </trkpt>
      <trkpt lat="45.33877" lon="2.14599">
        <ele>570</ele>
        <time>2012-03-25T10:07:02Z</time>
      </trkpt>
      <trkpt lat="45.33876" lon="2.14596">
        <ele>571</ele>
        <time>2012-03-25T10:07:04Z</time>
      </trkpt>
      <trkpt lat="45.33873" lon="2.14589">
        <ele>571</ele>
        <time>2012-03-25T10:07:05Z</time>
      </trkpt>
      <trkpt lat="45.33871" lon="2.14585">
        <ele>572</ele>
        <time>2012-03-25T10:07:06Z</time>
      </trkpt>
      <trkpt lat="45.3387" lon="2.14582">
        <ele>571</ele>
        <time>2012-03-25T10:07:08Z</time>
      </trkpt>
      <trkpt lat="45.33868" lon="2.14577">
        <ele>573</ele>
        <time>2012-03-25T10:07:09Z</time>
      </trkpt>
      <trkpt lat="45.33867" lon="2.14574">
        <ele>572</ele>
        <time>2012-03-25T10:07:10Z</time>
      </trkpt>
      <trkpt lat="45.33867" lon="2.1457">
        <ele>572</ele>
        <time>2012-03-25T10:07:12Z</time>
      </trkpt>
      <trkpt lat="45.33865" lon="2.14565">
        <ele>572</ele>
        <time>2012-03-25T10:07:13Z</time>
      </trkpt>
      <trkpt lat="45.33862" lon="2.14563">
        <ele>571</ele>
        <time>2012-03-25T10:07:14Z</time>
      </trkpt>
      <trkpt lat="45.33861" lon="2.1456">
        <ele>571</ele>
        <time>2012-03-25T10:07:16Z</time>
      </trkpt>
      <trkpt lat="45.33859" lon="2.14553">
        <ele>571</ele>
        <time>2012-03-25T10:07:17Z</time>
      </trkpt>
      <trkpt lat="45.33857" lon="2.14549">
        <ele>573</ele>
        <time>2012-03-25T10:07:18Z</time>
      </trkpt>
      <trkpt lat="45.33855" lon="2.14546">
        <ele>573</ele>
        <time>2012-03-25T10:07:20Z</time>
      </trkpt>
      <trkpt lat="45.33854" lon="2.14539">
        <ele>572</ele>
        <time>2012-03-25T10:07:21Z</time>
      </trkpt>
      <trkpt lat="45.33854" lon="2.14535">
        <ele>572</ele>
        <time>2012-03-25T10:07:22Z</time>
      </trkpt>
      <trkpt lat="45.33853" lon="2.14533">
        <ele>573</ele>
        <time>2012-03-25T10:07:24Z</time>
      </trkpt>
      <trkpt lat="45.33853" lon="2.14526">
        <ele>573</ele>
        <time>2012-03-25T10:07:25Z</time>
      </trkpt>
      <trkpt lat="45.33852" lon="2.14522">
        <ele>573</ele>
        <time>2012-03-25T10:07:26Z</time>
      </trkpt>
      <trkpt lat="45.3385" lon="2.14519">
        <ele>573</ele>
        <time>2012-03-25T10:07:28Z</time>
      </trkpt>
      <trkpt lat="45.33849" lon="2.14513">
        <ele>574</ele>
        <time>2012-03-25T10:07:29Z</time>
      </trkpt>
      <trkpt lat="45.33848" lon="2.14509">
        <ele>575</ele>
        <time>2012-03-25T10:07:30Z</time>
      </trkpt>
      <trkpt lat="45.33848" lon="2.14504">
        <ele>575</ele>
        <time>2012-03-25T10:07:32Z</time>
      </trkpt>
      <trkpt lat="45.33847" lon="2.14497">
        <ele>576</ele>
        <time>2012-03-25T10:07:33Z</time>
      </trkpt>
      <trkpt lat="45.33846" lon="2.14494">
        <ele>576</ele>
        <time>2012-03-25T10:07:34Z</time>
      </trkpt>
      <trkpt lat="45.33844" lon="2.14491">
        <ele>577</ele>
        <time>2012-03-25T10:07:36Z</time>
      </trkpt>
      <trkpt lat="45.33844" lon="2.14483">
        <ele>576</ele>
        <time>2012-03-25T10:07:37Z</time>
      </trkpt>
      <trkpt lat="45.33844" lon="2.1448">
        <ele>576</ele>
        <time>2012-03-25T10:07:38Z</time>
      </trkpt>
      <trkpt lat="45.33843" lon="2.14476">
        <ele>576</ele>
        <time>2012-03-25T10:07:40Z</time>
      </trkpt>
      <trkpt lat="45.33843" lon="2.14469">
        <ele>578</ele>
        <time>2012-03-25T10:07:41Z</time>
      </trkpt>
      <trkpt lat="45.33843" lon="2.14465">
        <ele>578</ele>
        <time>2012-03-25T10:07:42Z</time>
      </trkpt>
      <trkpt lat="45.33844" lon="2.14463">
        <ele>579</ele>
        <time>2012-03-25T10:07:44Z</time>
      </trkpt>
      <trkpt lat="45.33842" lon="2.14458">
        <ele>581</ele>
        <time>2012-03-25T10:07:45Z</time>
      </trkpt>
      <trkpt lat="45.33841" lon="2.14455">
        <ele>582</ele>
        <time>2012-03-25T10:07:46Z</time>
      </trkpt>
      <trkpt lat="45.3384" lon="2.14451">
        <ele>582</ele>
        <time>2012-03-25T10:07:48Z</time>
      </trkpt>
      <trkpt lat="45.33838" lon="2.14444">
        <ele>582</ele>
        <time>2012-03-25T10:07:49Z</time>
      </trkpt>
      <trkpt lat="45.33838" lon="2.14441">
        <ele>581</ele>
        <time>2012-03-25T10:07:50Z</time>
      </trkpt>
      <trkpt lat="45.33837" lon="2.14438">
        <ele>582</ele>
        <time>2012-03-25T10:07:52Z</time>
      </trkpt>
      <trkpt lat="45.33834" lon="2.14434">
        <ele>583</ele>
        <time>2012-03-25T10:07:53Z</time>
      </trkpt>
      <trkpt lat="45.33833" lon="2.14431">
        <ele>584</ele>
        <time>2012-03-25T10:07:54Z</time>
      </trkpt>
      <trkpt lat="45.33831" lon="2.14429">
        <ele>584</ele>
        <time>2012-03-25T10:07:56Z</time>
      </trkpt>
      <trkpt lat="45.33829" lon="2.14424">
        <ele>586</ele>
        <time>2012-03-25T10:07:57Z</time>
      </trkpt>
      <trkpt lat="45.33828" lon="2.14421">
        <ele>586</ele>
        <time>2012-03-25T10:07:58Z</time>
      </trkpt>
      <trkpt lat="45.33825" lon="2.14419">
        <ele>587</ele>
        <time>2012-03-25T10:08:00Z</time>
      </trkpt>
      <trkpt lat="45.33821" lon="2.14413">
        <ele>587</ele>
        <time>2012-03-25T10:08:01Z</time>
      </trkpt>
      <trkpt lat="45.33818" lon="2.1441">
        <ele>587</ele>
        <time>2012-03-25T10:08:02Z</time>
      </trkpt>
      <trkpt lat="45.33818" lon="2.1441">
        <ele>587</ele>
        <time>2012-03-25T10:08:03Z</time>
      </trkpt>
      <trkpt lat="45.33816" lon="2.14407">
        <ele>587</ele>
        <time>2012-03-25T10:08:04Z</time>
      </trkpt>
      <trkpt lat="45.33813" lon="2.144">
        <ele>588</ele>
        <time>2012-03-25T10:08:05Z</time>
      </trkpt>
      <trkpt lat="45.33811" lon="2.14395">
        <ele>589</ele>
        <time>2012-03-25T10:08:07Z</time>
      </trkpt>
      <trkpt lat="45.3381" lon="2.14393">
        <ele>590</ele>
        <time>2012-03-25T10:08:08Z</time>
      </trkpt>
      <trkpt lat="45.33809" lon="2.14391">
        <ele>590</ele>
        <time>2012-03-25T10:08:09Z</time>
      </trkpt>
      <trkpt lat="45.33808" lon="2.14388">
        <ele>591</ele>
        <time>2012-03-25T10:08:11Z</time>
      </trkpt>
      <trkpt lat="45.33807" lon="2.14385">
        <ele>591</ele>
        <time>2012-03-25T10:08:12Z</time>
      </trkpt>
      <trkpt lat="45.33805" lon="2.14377">
        <ele>591</ele>
        <time>2012-03-25T10:08:13Z</time>
      </trkpt>
      <trkpt lat="45.33803" lon="2.14373">
        <ele>590</ele>
        <time>2012-03-25T10:08:15Z</time>
      </trkpt>
      <trkpt lat="45.33803" lon="2.1437">
        <ele>590</ele>
        <time>2012-03-25T10:08:16Z</time>
      </trkpt>
      <trkpt lat="45.338" lon="2.14362">
        <ele>589</ele>
        <time>2012-03-25T10:08:17Z</time>
      </trkpt>
      <trkpt lat="45.33799" lon="2.14358">
        <ele>589</ele>
        <time>2012-03-25T10:08:19Z</time>
      </trkpt>
      <trkpt lat="45.33797" lon="2.14346">
        <ele>589</ele>
        <time>2012-03-25T10:08:20Z</time>
      </trkpt>
      <trkpt lat="45.33797" lon="2.14342">
        <ele>589</ele>
        <time>2012-03-25T10:08:21Z</time>
      </trkpt>
      <trkpt lat="45.33797" lon="2.14342">
        <ele>589</ele>
        <time>2012-03-25T10:08:23Z</time>
      </trkpt>
      <trkpt lat="45.33796" lon="2.14332">
        <ele>589</ele>
        <time>2012-03-25T10:08:24Z</time>
      </trkpt>
      <trkpt lat="45.33796" lon="2.14328">
        <ele>589</ele>
        <time>2012-03-25T10:08:25Z</time>
      </trkpt>
      <trkpt lat="45.33796" lon="2.14328">
        <ele>589</ele>
        <time>2012-03-25T10:08:27Z</time>
      </trkpt>
      <trkpt lat="45.33797" lon="2.14326">
        <ele>588</ele>
        <time>2012-03-25T10:08:28Z</time>
      </trkpt>
      <trkpt lat="45.33797" lon="2.14312">
        <ele>589</ele>
        <time>2012-03-25T10:08:29Z</time>
      </trkpt>
      <trkpt lat="45.33797" lon="2.14309">
        <ele>589</ele>
        <time>2012-03-25T10:08:31Z</time>
      </trkpt>
      <trkpt lat="45.33801" lon="2.14299">
        <ele>590</ele>
        <time>2012-03-25T10:08:32Z</time>
      </trkpt>
      <trkpt lat="45.33802" lon="2.14295">
        <ele>591</ele>
        <time>2012-03-25T10:08:33Z</time>
      </trkpt>
      <trkpt lat="45.33802" lon="2.14291">
        <ele>592</ele>
        <time>2012-03-25T10:08:35Z</time>
      </trkpt>
      <trkpt lat="45.33802" lon="2.14284">
        <ele>592</ele>
        <time>2012-03-25T10:08:36Z</time>
      </trkpt>
      <trkpt lat="45.33801" lon="2.14281">
        <ele>592</ele>
        <time>2012-03-25T10:08:37Z</time>
      </trkpt>
      <trkpt lat="45.338" lon="2.14276">
        <ele>591</ele>
        <time>2012-03-25T10:08:39Z</time>
      </trkpt>
      <trkpt lat="45.338" lon="2.14271">
        <ele>590</ele>
        <time>2012-03-25T10:08:40Z</time>
      </trkpt>
      <trkpt lat="45.33799" lon="2.14267">
        <ele>590</ele>
        <time>2012-03-25T10:08:41Z</time>
      </trkpt>
      <trkpt lat="45.33797" lon="2.14264">
        <ele>590</ele>
        <time>2012-03-25T10:08:42Z</time>
      </trkpt>
      <trkpt lat="45.33796" lon="2.14258">
        <ele>590</ele>
        <time>2012-03-25T10:08:43Z</time>
      </trkpt>
      <trkpt lat="45.33796" lon="2.14252">
        <ele>590</ele>
        <time>2012-03-25T10:08:44Z</time>
      </trkpt>
      <trkpt lat="45.33795" lon="2.14248">
        <ele>591</ele>
        <time>2012-03-25T10:08:45Z</time>
      </trkpt>
      <trkpt lat="45.33794" lon="2.14243">
        <ele>591</ele>
        <time>2012-03-25T10:08:46Z</time>
      </trkpt>
      <trkpt lat="45.33792" lon="2.14239">
        <ele>591</ele>
        <time>2012-03-25T10:08:47Z</time>
      </trkpt>
      <trkpt lat="45.33789" lon="2.14235">
        <ele>591</ele>
        <time>2012-03-25T10:08:48Z</time>
      </trkpt>
      <trkpt lat="45.33788" lon="2.14232">
        <ele>591</ele>
        <time>2012-03-25T10:08:49Z</time>
      </trkpt>
      <trkpt lat="45.33786" lon="2.14228">
        <ele>591</ele>
        <time>2012-03-25T10:08:50Z</time>
      </trkpt>
      <trkpt lat="45.33785" lon="2.14224">
        <ele>590</ele>
        <time>2012-03-25T10:08:51Z</time>
      </trkpt>
      <trkpt lat="45.33784" lon="2.14219">
        <ele>590</ele>
        <time>2012-03-25T10:08:52Z</time>
      </trkpt>
      <trkpt lat="45.33782" lon="2.14214">
        <ele>590</ele>
        <time>2012-03-25T10:08:53Z</time>
      </trkpt>
      <trkpt lat="45.33781" lon="2.1421">
        <ele>590</ele>
        <time>2012-03-25T10:08:55Z</time>
      </trkpt>
      <trkpt lat="45.33779" lon="2.14206">
        <ele>590</ele>
        <time>2012-03-25T10:08:56Z</time>
      </trkpt>
      <trkpt lat="45.33778" lon="2.14199">
        <ele>591</ele>
        <time>2012-03-25T10:08:57Z</time>
      </trkpt>
      <trkpt lat="45.33777" lon="2.14194">
        <ele>591</ele>
        <time>2012-03-25T10:08:58Z</time>
      </trkpt>
      <trkpt lat="45.33777" lon="2.1419">
        <ele>591</ele>
        <time>2012-03-25T10:08:59Z</time>
      </trkpt>
      <trkpt lat="45.33775" lon="2.14187">
        <ele>591</ele>
        <time>2012-03-25T10:09:00Z</time>
      </trkpt>
      <trkpt lat="45.33775" lon="2.14182">
        <ele>591</ele>
        <time>2012-03-25T10:09:01Z</time>
      </trkpt>
      <trkpt lat="45.33774" lon="2.14178">
        <ele>592</ele>
        <time>2012-03-25T10:09:02Z</time>
      </trkpt>
      <trkpt lat="45.33772" lon="2.14174">
        <ele>591</ele>
        <time>2012-03-25T10:09:03Z</time>
      </trkpt>
      <trkpt lat="45.33771" lon="2.14171">
        <ele>592</ele>
        <time>2012-03-25T10:09:04Z</time>
      </trkpt>
      <trkpt lat="45.33769" lon="2.14167">
        <ele>591</ele>
        <time>2012-03-25T10:09:05Z</time>
      </trkpt>
      <trkpt lat="45.33767" lon="2.14163">
        <ele>591</ele>
        <time>2012-03-25T10:09:06Z</time>
      </trkpt>
      <trkpt lat="45.33766" lon="2.14159">
        <ele>592</ele>
        <time>2012-03-25T10:09:07Z</time>
      </trkpt>
      <trkpt lat="45.33766" lon="2.14154">
        <ele>593</ele>
        <time>2012-03-25T10:09:09Z</time>
      </trkpt>
      <trkpt lat="45.33764" lon="2.14145">
        <ele>593</ele>
        <time>2012-03-25T10:09:10Z</time>
      </trkpt>
      <trkpt lat="45.33762" lon="2.14141">
        <ele>593</ele>
        <time>2012-03-25T10:09:11Z</time>
      </trkpt>
      <trkpt lat="45.33762" lon="2.14137">
        <ele>593</ele>
        <time>2012-03-25T10:09:13Z</time>
      </trkpt>
      <trkpt lat="45.33759" lon="2.14133">
        <ele>592</ele>
        <time>2012-03-25T10:09:14Z</time>
      </trkpt>
      <trkpt lat="45.33755" lon="2.14125">
        <ele>592</ele>
        <time>2012-03-25T10:09:15Z</time>
      </trkpt>
      <trkpt lat="45.33754" lon="2.14122">
        <ele>592</ele>
        <time>2012-03-25T10:09:16Z</time>
      </trkpt>
      <trkpt lat="45.33752" lon="2.14117">
        <ele>593</ele>
        <time>2012-03-25T10:09:18Z</time>
      </trkpt>
      <trkpt lat="45.33752" lon="2.14112">
        <ele>592</ele>
        <time>2012-03-25T10:09:19Z</time>
      </trkpt>
      <trkpt lat="45.3375" lon="2.14105">
        <ele>592</ele>
        <time>2012-03-25T10:09:20Z</time>
      </trkpt>
      <trkpt lat="45.33749" lon="2.14099">
        <ele>592</ele>
        <time>2012-03-25T10:09:22Z</time>
      </trkpt>
      <trkpt lat="45.33747" lon="2.14096">
        <ele>593</ele>
        <time>2012-03-25T10:09:23Z</time>
      </trkpt>
      <trkpt lat="45.33748" lon="2.14092">
        <ele>593</ele>
        <time>2012-03-25T10:09:24Z</time>
      </trkpt>
      <trkpt lat="45.33747" lon="2.14087">
        <ele>592</ele>
        <time>2012-03-25T10:09:25Z</time>
      </trkpt>
      <trkpt lat="45.33744" lon="2.14078">
        <ele>593</ele>
        <time>2012-03-25T10:09:26Z</time>
      </trkpt>
      <trkpt lat="45.33742" lon="2.14075">
        <ele>594</ele>
        <time>2012-03-25T10:09:27Z</time>
      </trkpt>
      <trkpt lat="45.33741" lon="2.14071">
        <ele>593</ele>
        <time>2012-03-25T10:09:28Z</time>
      </trkpt>
      <trkpt lat="45.3374" lon="2.14066">
        <ele>593</ele>
        <time>2012-03-25T10:09:29Z</time>
      </trkpt>
      <trkpt lat="45.3374" lon="2.14061">
        <ele>593</ele>
        <time>2012-03-25T10:09:30Z</time>
      </trkpt>
      <trkpt lat="45.3374" lon="2.14058">
        <ele>594</ele>
        <time>2012-03-25T10:09:31Z</time>
      </trkpt>
      <trkpt lat="45.33738" lon="2.14052">
        <ele>594</ele>
        <time>2012-03-25T10:09:32Z</time>
      </trkpt>
      <trkpt lat="45.33738" lon="2.14047">
        <ele>595</ele>
        <time>2012-03-25T10:09:33Z</time>
      </trkpt>
      <trkpt lat="45.3374" lon="2.14041">
        <ele>595</ele>
        <time>2012-03-25T10:09:34Z</time>
      </trkpt>
      <trkpt lat="45.33741" lon="2.14037">
        <ele>595</ele>
        <time>2012-03-25T10:09:35Z</time>
      </trkpt>
      <trkpt lat="45.33743" lon="2.1403">
        <ele>594</ele>
        <time>2012-03-25T10:09:36Z</time>
      </trkpt>
      <trkpt lat="45.33742" lon="2.14025">
        <ele>594</ele>
        <time>2012-03-25T10:09:37Z</time>
      </trkpt>
      <trkpt lat="45.33742" lon="2.14021">
        <ele>594</ele>
        <time>2012-03-25T10:09:39Z</time>
      </trkpt>
      <trkpt lat="45.33741" lon="2.14017">
        <ele>593</ele>
        <time>2012-03-25T10:09:40Z</time>
      </trkpt>
      <trkpt lat="45.33742" lon="2.14011">
        <ele>594</ele>
        <time>2012-03-25T10:09:41Z</time>
      </trkpt>
      <trkpt lat="45.33742" lon="2.14007">
        <ele>595</ele>
        <time>2012-03-25T10:09:43Z</time>
      </trkpt>
      <trkpt lat="45.33742" lon="2.14002">
        <ele>596</ele>
        <time>2012-03-25T10:09:44Z</time>
      </trkpt>
      <trkpt lat="45.33741" lon="2.13992">
        <ele>597</ele>
        <time>2012-03-25T10:09:45Z</time>
      </trkpt>
      <trkpt lat="45.33742" lon="2.13986">
        <ele>598</ele>
        <time>2012-03-25T10:09:47Z</time>
      </trkpt>
      <trkpt lat="45.33741" lon="2.13981">
        <ele>597</ele>
        <time>2012-03-25T10:09:48Z</time>
      </trkpt>
      <trkpt lat="45.3374" lon="2.13971">
        <ele>598</ele>
        <time>2012-03-25T10:09:49Z</time>
      </trkpt>
      <trkpt lat="45.33741" lon="2.13965">
        <ele>598</ele>
        <time>2012-03-25T10:09:51Z</time>
      </trkpt>
      <trkpt lat="45.33741" lon="2.1396">
        <ele>599</ele>
        <time>2012-03-25T10:09:52Z</time>
      </trkpt>
      <trkpt lat="45.33741" lon="2.13948">
        <ele>598</ele>
        <time>2012-03-25T10:09:53Z</time>
      </trkpt>
      <trkpt lat="45.33741" lon="2.13942">
        <ele>598</ele>
        <time>2012-03-25T10:09:55Z</time>
      </trkpt>
      <trkpt lat="45.33743" lon="2.13924">
        <ele>598</ele>
        <time>2012-03-25T10:09:56Z</time>
      </trkpt>
      <trkpt lat="45.33742" lon="2.13918">
        <ele>598</ele>
        <time>2012-03-25T10:09:57Z</time>
      </trkpt>
      <trkpt lat="45.33742" lon="2.13913">
        <ele>598</ele>
        <time>2012-03-25T10:09:59Z</time>
      </trkpt>
      <trkpt lat="45.33742" lon="2.13906">
        <ele>600</ele>
        <time>2012-03-25T10:10:00Z</time>
      </trkpt>
      <trkpt lat="45.33741" lon="2.13902">
        <ele>600</ele>
        <time>2012-03-25T10:10:01Z</time>
      </trkpt>
      <trkpt lat="45.33741" lon="2.13898">
        <ele>599</ele>
        <time>2012-03-25T10:10:03Z</time>
      </trkpt>
      <trkpt lat="45.3374" lon="2.1389">
        <ele>599</ele>
        <time>2012-03-25T10:10:04Z</time>
      </trkpt>
      <trkpt lat="45.33741" lon="2.13887">
        <ele>599</ele>
        <time>2012-03-25T10:10:05Z</time>
      </trkpt>
      <trkpt lat="45.33741" lon="2.13883">
        <ele>599</ele>
        <time>2012-03-25T10:10:07Z</time>
      </trkpt>
      <trkpt lat="45.3374" lon="2.13873">
        <ele>599</ele>
        <time>2012-03-25T10:10:08Z</time>
      </trkpt>
      <trkpt lat="45.33739" lon="2.13868">
        <ele>599</ele>
        <time>2012-03-25T10:10:09Z</time>
      </trkpt>
      <trkpt lat="45.33738" lon="2.13862">
        <ele>600</ele>
        <time>2012-03-25T10:10:11Z</time>
      </trkpt>
      <trkpt lat="45.33735" lon="2.13853">
        <ele>599</ele>
        <time>2012-03-25T10:10:12Z</time>
      </trkpt>
      <trkpt lat="45.33735" lon="2.13848">
        <ele>598</ele>
        <time>2012-03-25T10:10:13Z</time>
      </trkpt>
      <trkpt lat="45.33733" lon="2.13842">
        <ele>598</ele>
        <time>2012-03-25T10:10:15Z</time>
      </trkpt>
      <trkpt lat="45.33732" lon="2.13831">
        <ele>598</ele>
        <time>2012-03-25T10:10:16Z</time>
      </trkpt>
      <trkpt lat="45.33731" lon="2.13824">
        <ele>599</ele>
        <time>2012-03-25T10:10:17Z</time>
      </trkpt>
      <trkpt lat="45.3373" lon="2.13818">
        <ele>599</ele>
        <time>2012-03-25T10:10:19Z</time>
      </trkpt>
      <trkpt lat="45.33727" lon="2.13805">
        <ele>598</ele>
        <time>2012-03-25T10:10:20Z</time>
      </trkpt>
      <trkpt lat="45.33725" lon="2.13799">
        <ele>598</ele>
        <time>2012-03-25T10:10:21Z</time>
      </trkpt>
      <trkpt lat="45.33725" lon="2.13792">
        <ele>598</ele>
        <time>2012-03-25T10:10:23Z</time>
      </trkpt>
      <trkpt lat="45.33722" lon="2.1378">
        <ele>598</ele>
        <time>2012-03-25T10:10:24Z</time>
      </trkpt>
      <trkpt lat="45.33721" lon="2.13773">
        <ele>597</ele>
        <time>2012-03-25T10:10:25Z</time>
      </trkpt>
      <trkpt lat="45.33719" lon="2.13765">
        <ele>597</ele>
        <time>2012-03-25T10:10:27Z</time>
      </trkpt>
      <trkpt lat="45.33715" lon="2.13751">
        <ele>598</ele>
        <time>2012-03-25T10:10:28Z</time>
      </trkpt>
      <trkpt lat="45.33714" lon="2.13745">
        <ele>598</ele>
        <time>2012-03-25T10:10:29Z</time>
      </trkpt>
      <trkpt lat="45.33712" lon="2.1374">
        <ele>598</ele>
        <time>2012-03-25T10:10:31Z</time>
      </trkpt>
      <trkpt lat="45.33711" lon="2.13726">
        <ele>597</ele>
        <time>2012-03-25T10:10:32Z</time>
      </trkpt>
      <trkpt lat="45.3371" lon="2.13719">
        <ele>597</ele>
        <time>2012-03-25T10:10:33Z</time>
      </trkpt>
      <trkpt lat="45.33709" lon="2.13713">
        <ele>598</ele>
        <time>2012-03-25T10:10:35Z</time>
      </trkpt>
      <trkpt lat="45.33706" lon="2.13699">
        <ele>598</ele>
        <time>2012-03-25T10:10:36Z</time>
      </trkpt>
      <trkpt lat="45.33706" lon="2.13693">
        <ele>598</ele>
        <time>2012-03-25T10:10:37Z</time>
      </trkpt>
      <trkpt lat="45.33704" lon="2.13686">
        <ele>598</ele>
        <time>2012-03-25T10:10:39Z</time>
      </trkpt>
      <trkpt lat="45.33702" lon="2.13673">
        <ele>598</ele>
        <time>2012-03-25T10:10:40Z</time>
      </trkpt>
      <trkpt lat="45.33702" lon="2.13666">
        <ele>598</ele>
        <time>2012-03-25T10:10:41Z</time>
      </trkpt>
      <trkpt lat="45.33702" lon="2.13659">
        <ele>598</ele>
        <time>2012-03-25T10:10:43Z</time>
      </trkpt>
      <trkpt lat="45.33703" lon="2.13649">
        <ele>596</ele>
        <time>2012-03-25T10:10:44Z</time>
      </trkpt>
      <trkpt lat="45.33705" lon="2.13642">
        <ele>596</ele>
        <time>2012-03-25T10:10:45Z</time>
      </trkpt>
      <trkpt lat="45.33706" lon="2.13636">
        <ele>596</ele>
        <time>2012-03-25T10:10:47Z</time>
      </trkpt>
      <trkpt lat="45.33712" lon="2.13624">
        <ele>595</ele>
        <time>2012-03-25T10:10:48Z</time>
      </trkpt>
      <trkpt lat="45.33717" lon="2.13617">
        <ele>596</ele>
        <time>2012-03-25T10:10:49Z</time>
      </trkpt>
      <trkpt lat="45.3372" lon="2.13613">
        <ele>595</ele>
        <time>2012-03-25T10:10:51Z</time>
      </trkpt>
      <trkpt lat="45.33728" lon="2.13602">
        <ele>595</ele>
        <time>2012-03-25T10:10:52Z</time>
      </trkpt>
      <trkpt lat="45.33733" lon="2.13596">
        <ele>596</ele>
        <time>2012-03-25T10:10:53Z</time>
      </trkpt>
      <trkpt lat="45.33737" lon="2.13591">
        <ele>596</ele>
        <time>2012-03-25T10:10:55Z</time>
      </trkpt>
      <trkpt lat="45.33742" lon="2.13583">
        <ele>595</ele>
        <time>2012-03-25T10:10:56Z</time>
      </trkpt>
      <trkpt lat="45.33747" lon="2.13579">
        <ele>595</ele>
        <time>2012-03-25T10:10:57Z</time>
      </trkpt>
      <trkpt lat="45.3375" lon="2.13576">
        <ele>595</ele>
        <time>2012-03-25T10:10:59Z</time>
      </trkpt>
      <trkpt lat="45.33757" lon="2.13566">
        <ele>596</ele>
        <time>2012-03-25T10:11:00Z</time>
      </trkpt>
      <trkpt lat="45.33759" lon="2.13563">
        <ele>595</ele>
        <time>2012-03-25T10:11:01Z</time>
      </trkpt>
      <trkpt lat="45.33763" lon="2.13557">
        <ele>595</ele>
        <time>2012-03-25T10:11:03Z</time>
      </trkpt>
      <trkpt lat="45.33768" lon="2.13549">
        <ele>594</ele>
        <time>2012-03-25T10:11:04Z</time>
      </trkpt>
      <trkpt lat="45.33772" lon="2.13545">
        <ele>594</ele>
        <time>2012-03-25T10:11:05Z</time>
      </trkpt>
      <trkpt lat="45.33775" lon="2.13541">
        <ele>593</ele>
        <time>2012-03-25T10:11:07Z</time>
      </trkpt>
      <trkpt lat="45.33782" lon="2.13531">
        <ele>593</ele>
        <time>2012-03-25T10:11:08Z</time>
      </trkpt>
      <trkpt lat="45.33785" lon="2.13529">
        <ele>593</ele>
        <time>2012-03-25T10:11:09Z</time>
      </trkpt>
      <trkpt lat="45.33788" lon="2.13525">
        <ele>594</ele>
        <time>2012-03-25T10:11:11Z</time>
      </trkpt>
      <trkpt lat="45.33795" lon="2.13516">
        <ele>594</ele>
        <time>2012-03-25T10:11:12Z</time>
      </trkpt>
      <trkpt lat="45.33797" lon="2.13512">
        <ele>594</ele>
        <time>2012-03-25T10:11:13Z</time>
      </trkpt>
      <trkpt lat="45.338" lon="2.13507">
        <ele>594</ele>
        <time>2012-03-25T10:11:15Z</time>
      </trkpt>
      <trkpt lat="45.33807" lon="2.13495">
        <ele>593</ele>
        <time>2012-03-25T10:11:16Z</time>
      </trkpt>
      <trkpt lat="45.33809" lon="2.1349">
        <ele>594</ele>
        <time>2012-03-25T10:11:17Z</time>
      </trkpt>
      <trkpt lat="45.33811" lon="2.13485">
        <ele>593</ele>
        <time>2012-03-25T10:11:19Z</time>
      </trkpt>
      <trkpt lat="45.33814" lon="2.13478">
        <ele>594</ele>
        <time>2012-03-25T10:11:20Z</time>
      </trkpt>
      <trkpt lat="45.33816" lon="2.13474">
        <ele>595</ele>
        <time>2012-03-25T10:11:21Z</time>
      </trkpt>
      <trkpt lat="45.33817" lon="2.13467">
        <ele>594</ele>
        <time>2012-03-25T10:11:23Z</time>
      </trkpt>
      <trkpt lat="45.33819" lon="2.13458">
        <ele>596</ele>
        <time>2012-03-25T10:11:24Z</time>
      </trkpt>
      <trkpt lat="45.3382" lon="2.13454">
        <ele>596</ele>
        <time>2012-03-25T10:11:25Z</time>
      </trkpt>
      <trkpt lat="45.33821" lon="2.13449">
        <ele>596</ele>
        <time>2012-03-25T10:11:27Z</time>
      </trkpt>
      <trkpt lat="45.33824" lon="2.13438">
        <ele>596</ele>
        <time>2012-03-25T10:11:28Z</time>
      </trkpt>
      <trkpt lat="45.33825" lon="2.13434">
        <ele>596</ele>
        <time>2012-03-25T10:11:29Z</time>
      </trkpt>
      <trkpt lat="45.33826" lon="2.1343">
        <ele>596</ele>
        <time>2012-03-25T10:11:31Z</time>
      </trkpt>
      <trkpt lat="45.33829" lon="2.13416">
        <ele>596</ele>
        <time>2012-03-25T10:11:32Z</time>
      </trkpt>
      <trkpt lat="45.33831" lon="2.13411">
        <ele>596</ele>
        <time>2012-03-25T10:11:33Z</time>
      </trkpt>
      <trkpt lat="45.3383" lon="2.13409">
        <ele>597</ele>
        <time>2012-03-25T10:11:35Z</time>
      </trkpt>
      <trkpt lat="45.33835" lon="2.13398">
        <ele>598</ele>
        <time>2012-03-25T10:11:36Z</time>
      </trkpt>
      <trkpt lat="45.33836" lon="2.13392">
        <ele>598</ele>
        <time>2012-03-25T10:11:37Z</time>
      </trkpt>
      <trkpt lat="45.33836" lon="2.13388">
        <ele>598</ele>
        <time>2012-03-25T10:11:39Z</time>
      </trkpt>
      <trkpt lat="45.33837" lon="2.13381">
        <ele>598</ele>
        <time>2012-03-25T10:11:40Z</time>
      </trkpt>
      <trkpt lat="45.33838" lon="2.13375">
        <ele>598</ele>
        <time>2012-03-25T10:11:41Z</time>
      </trkpt>
      <trkpt lat="45.33838" lon="2.1337">
        <ele>598</ele>
        <time>2012-03-25T10:11:43Z</time>
      </trkpt>
      <trkpt lat="45.33837" lon="2.13361">
        <ele>600</ele>
        <time>2012-03-25T10:11:44Z</time>
      </trkpt>
      <trkpt lat="45.33837" lon="2.13356">
        <ele>600</ele>
        <time>2012-03-25T10:11:45Z</time>
      </trkpt>
      <trkpt lat="45.33837" lon="2.13356">
        <ele>600</ele>
        <time>2012-03-25T10:11:47Z</time>
      </trkpt>
      <trkpt lat="45.33836" lon="2.13354">
        <ele>600</ele>
        <time>2012-03-25T10:11:48Z</time>
      </trkpt>
      <trkpt lat="45.33835" lon="2.13341">
        <ele>602</ele>
        <time>2012-03-25T10:11:49Z</time>
      </trkpt>
      <trkpt lat="45.33835" lon="2.13336">
        <ele>602</ele>
        <time>2012-03-25T10:11:50Z</time>
      </trkpt>
      <trkpt lat="45.33834" lon="2.13332">
        <ele>602</ele>
        <time>2012-03-25T10:11:51Z</time>
      </trkpt>
      <trkpt lat="45.33834" lon="2.13327">
        <ele>602</ele>
        <time>2012-03-25T10:11:52Z</time>
      </trkpt>
      <trkpt lat="45.33833" lon="2.13323">
        <ele>602</ele>
        <time>2012-03-25T10:11:54Z</time>
      </trkpt>
      <trkpt lat="45.33833" lon="2.13313">
        <ele>602</ele>
        <time>2012-03-25T10:11:55Z</time>
      </trkpt>
      <trkpt lat="45.33833" lon="2.13309">
        <ele>603</ele>
        <time>2012-03-25T10:11:56Z</time>
      </trkpt>
      <trkpt lat="45.33833" lon="2.13305">
        <ele>602</ele>
        <time>2012-03-25T10:11:58Z</time>
      </trkpt>
      <trkpt lat="45.33835" lon="2.13295">
        <ele>603</ele>
        <time>2012-03-25T10:11:59Z</time>
      </trkpt>
      <trkpt lat="45.33836" lon="2.1329">
        <ele>603</ele>
        <time>2012-03-25T10:12:00Z</time>
      </trkpt>
      <trkpt lat="45.33836" lon="2.13286">
        <ele>604</ele>
        <time>2012-03-25T10:12:02Z</time>
      </trkpt>
      <trkpt lat="45.33839" lon="2.13278">
        <ele>605</ele>
        <time>2012-03-25T10:12:03Z</time>
      </trkpt>
      <trkpt lat="45.3384" lon="2.13274">
        <ele>605</ele>
        <time>2012-03-25T10:12:04Z</time>
      </trkpt>
      <trkpt lat="45.33841" lon="2.13271">
        <ele>605</ele>
        <time>2012-03-25T10:12:06Z</time>
      </trkpt>
      <trkpt lat="45.33844" lon="2.13261">
        <ele>605</ele>
        <time>2012-03-25T10:12:07Z</time>
      </trkpt>
      <trkpt lat="45.33845" lon="2.13258">
        <ele>605</ele>
        <time>2012-03-25T10:12:08Z</time>
      </trkpt>
      <trkpt lat="45.33846" lon="2.13253">
        <ele>605</ele>
        <time>2012-03-25T10:12:10Z</time>
      </trkpt>
      <trkpt lat="45.33848" lon="2.13243">
        <ele>605</ele>
        <time>2012-03-25T10:12:11Z</time>
      </trkpt>
      <trkpt lat="45.3385" lon="2.13239">
        <ele>605</ele>
        <time>2012-03-25T10:12:12Z</time>
      </trkpt>
      <trkpt lat="45.33851" lon="2.13236">
        <ele>605</ele>
        <time>2012-03-25T10:12:14Z</time>
      </trkpt>
      <trkpt lat="45.33853" lon="2.13225">
        <ele>605</ele>
        <time>2012-03-25T10:12:15Z</time>
      </trkpt>
      <trkpt lat="45.33855" lon="2.13221">
        <ele>606</ele>
        <time>2012-03-25T10:12:16Z</time>
      </trkpt>
      <trkpt lat="45.33857" lon="2.13217">
        <ele>606</ele>
        <time>2012-03-25T10:12:18Z</time>
      </trkpt>
      <trkpt lat="45.33859" lon="2.13213">
        <ele>609</ele>
        <time>2012-03-25T10:12:19Z</time>
      </trkpt>
      <trkpt lat="45.33861" lon="2.13209">
        <ele>609</ele>
        <time>2012-03-25T10:12:20Z</time>
      </trkpt>
      <trkpt lat="45.33861" lon="2.13207">
        <ele>610</ele>
        <time>2012-03-25T10:12:22Z</time>
      </trkpt>
      <trkpt lat="45.33863" lon="2.13201">
        <ele>611</ele>
        <time>2012-03-25T10:12:23Z</time>
      </trkpt>
      <trkpt lat="45.33866" lon="2.13196">
        <ele>611</ele>
        <time>2012-03-25T10:12:24Z</time>
      </trkpt>
      <trkpt lat="45.33868" lon="2.13192">
        <ele>612</ele>
        <time>2012-03-25T10:12:26Z</time>
      </trkpt>
      <trkpt lat="45.33869" lon="2.13186">
        <ele>613</ele>
        <time>2012-03-25T10:12:27Z</time>
      </trkpt>
      <trkpt lat="45.33872" lon="2.13181">
        <ele>613</ele>
        <time>2012-03-25T10:12:28Z</time>
      </trkpt>
      <trkpt lat="45.33873" lon="2.13179">
        <ele>614</ele>
        <time>2012-03-25T10:12:30Z</time>
      </trkpt>
      <trkpt lat="45.33875" lon="2.13173">
        <ele>614</ele>
        <time>2012-03-25T10:12:31Z</time>
      </trkpt>
      <trkpt lat="45.33876" lon="2.1317">
        <ele>615</ele>
        <time>2012-03-25T10:12:32Z</time>
      </trkpt>
      <trkpt lat="45.33877" lon="2.13166">
        <ele>615</ele>
        <time>2012-03-25T10:12:34Z</time>
      </trkpt>
      <trkpt lat="45.33878" lon="2.13161">
        <ele>615</ele>
        <time>2012-03-25T10:12:35Z</time>
      </trkpt>
      <trkpt lat="45.3388" lon="2.13157">
        <ele>616</ele>
        <time>2012-03-25T10:12:36Z</time>
      </trkpt>
      <trkpt lat="45.3388" lon="2.13154">
        <ele>616</ele>
        <time>2012-03-25T10:12:38Z</time>
      </trkpt>
      <trkpt lat="45.33883" lon="2.13148">
        <ele>615</ele>
        <time>2012-03-25T10:12:39Z</time>
      </trkpt>
      <trkpt lat="45.33884" lon="2.13144">
        <ele>616</ele>
        <time>2012-03-25T10:12:40Z</time>
      </trkpt>
      <trkpt lat="45.33884" lon="2.13141">
        <ele>616</ele>
        <time>2012-03-25T10:12:42Z</time>
      </trkpt>
      <trkpt lat="45.33888" lon="2.13134">
        <ele>616</ele>
        <time>2012-03-25T10:12:43Z</time>
      </trkpt>
      <trkpt lat="45.33889" lon="2.13131">
        <ele>616</ele>
        <time>2012-03-25T10:12:44Z</time>
      </trkpt>
      <trkpt lat="45.3389" lon="2.13127">
        <ele>617</ele>
        <time>2012-03-25T10:12:45Z</time>
      </trkpt>
      <trkpt lat="45.33891" lon="2.13122">
        <ele>616</ele>
        <time>2012-03-25T10:12:46Z</time>
      </trkpt>
      <trkpt lat="45.33892" lon="2.13119">
        <ele>617</ele>
        <time>2012-03-25T10:12:47Z</time>
      </trkpt>
      <trkpt lat="45.33892" lon="2.13116">
        <ele>617</ele>
        <time>2012-03-25T10:12:49Z</time>
      </trkpt>
      <trkpt lat="45.33894" lon="2.13108">
        <ele>617</ele>
        <time>2012-03-25T10:12:50Z</time>
      </trkpt>
      <trkpt lat="45.33896" lon="2.13104">
        <ele>617</ele>
        <time>2012-03-25T10:12:51Z</time>
      </trkpt>
      <trkpt lat="45.33896" lon="2.13102">
        <ele>617</ele>
        <time>2012-03-25T10:12:52Z</time>
      </trkpt>
      <trkpt lat="45.33897" lon="2.131">
        <ele>617</ele>
        <time>2012-03-25T10:12:53Z</time>
      </trkpt>
      <trkpt lat="45.33898" lon="2.13097">
        <ele>618</ele>
        <time>2012-03-25T10:12:54Z</time>
      </trkpt>
      <trkpt lat="45.339" lon="2.13093">
        <ele>618</ele>
        <time>2012-03-25T10:12:55Z</time>
      </trkpt>
      <trkpt lat="45.33902" lon="2.1309">
        <ele>618</ele>
        <time>2012-03-25T10:12:56Z</time>
      </trkpt>
      <trkpt lat="45.33903" lon="2.13086">
        <ele>618</ele>
        <time>2012-03-25T10:12:57Z</time>
      </trkpt>
      <trkpt lat="45.33904" lon="2.13083">
        <ele>618</ele>
        <time>2012-03-25T10:12:58Z</time>
      </trkpt>
      <trkpt lat="45.33905" lon="2.13079">
        <ele>619</ele>
        <time>2012-03-25T10:12:59Z</time>
      </trkpt>
      <trkpt lat="45.33906" lon="2.13073">
        <ele>620</ele>
        <time>2012-03-25T10:13:00Z</time>
      </trkpt>
      <trkpt lat="45.33907" lon="2.1307">
        <ele>619</ele>
        <time>2012-03-25T10:13:01Z</time>
      </trkpt>
      <trkpt lat="45.33909" lon="2.13066">
        <ele>619</ele>
        <time>2012-03-25T10:13:02Z</time>
      </trkpt>
      <trkpt lat="45.3391" lon="2.13062">
        <ele>618</ele>
        <time>2012-03-25T10:13:03Z</time>
      </trkpt>
      <trkpt lat="45.33911" lon="2.13058">
        <ele>619</ele>
        <time>2012-03-25T10:13:04Z</time>
      </trkpt>
      <trkpt lat="45.33912" lon="2.13055">
        <ele>619</ele>
        <time>2012-03-25T10:13:05Z</time>
      </trkpt>
      <trkpt lat="45.33912" lon="2.13051">
        <ele>619</ele>
        <time>2012-03-25T10:13:06Z</time>
      </trkpt>
      <trkpt lat="45.33913" lon="2.13048">
        <ele>619</ele>
        <time>2012-03-25T10:13:07Z</time>
      </trkpt>
      <trkpt lat="45.33914" lon="2.13044">
        <ele>619</ele>
        <time>2012-03-25T10:13:08Z</time>
      </trkpt>
      <trkpt lat="45.33916" lon="2.1304">
        <ele>619</ele>
        <time>2012-03-25T10:13:09Z</time>
      </trkpt>
      <trkpt lat="45.33917" lon="2.13038">
        <ele>620</ele>
        <time>2012-03-25T10:13:10Z</time>
      </trkpt>
      <trkpt lat="45.33918" lon="2.13033">
        <ele>620</ele>
        <time>2012-03-25T10:13:11Z</time>
      </trkpt>
      <trkpt lat="45.33919" lon="2.1303">
        <ele>620</ele>
        <time>2012-03-25T10:13:12Z</time>
      </trkpt>
      <trkpt lat="45.33919" lon="2.13025">
        <ele>621</ele>
        <time>2012-03-25T10:13:13Z</time>
      </trkpt>
      <trkpt lat="45.33921" lon="2.13022">
        <ele>621</ele>
        <time>2012-03-25T10:13:14Z</time>
      </trkpt>
      <trkpt lat="45.33922" lon="2.13017">
        <ele>621</ele>
        <time>2012-03-25T10:13:15Z</time>
      </trkpt>
      <trkpt lat="45.33923" lon="2.13014">
        <ele>622</ele>
        <time>2012-03-25T10:13:16Z</time>
      </trkpt>
      <trkpt lat="45.33923" lon="2.13012">
        <ele>622</ele>
        <time>2012-03-25T10:13:17Z</time>
      </trkpt>
      <trkpt lat="45.33923" lon="2.13008">
        <ele>622</ele>
        <time>2012-03-25T10:13:18Z</time>
      </trkpt>
      <trkpt lat="45.33925" lon="2.13004">
        <ele>622</ele>
        <time>2012-03-25T10:13:19Z</time>
      </trkpt>
      <trkpt lat="45.33925" lon="2.13">
        <ele>621</ele>
        <time>2012-03-25T10:13:20Z</time>
      </trkpt>
      <trkpt lat="45.33926" lon="2.12996">
        <ele>621</ele>
        <time>2012-03-25T10:13:21Z</time>
      </trkpt>
      <trkpt lat="45.33928" lon="2.12992">
        <ele>621</ele>
        <time>2012-03-25T10:13:22Z</time>
      </trkpt>
      <trkpt lat="45.33929" lon="2.12988">
        <ele>622</ele>
        <time>2012-03-25T10:13:23Z</time>
      </trkpt>
      <trkpt lat="45.3393" lon="2.12985">
        <ele>621</ele>
        <time>2012-03-25T10:13:24Z</time>
      </trkpt>
      <trkpt lat="45.33932" lon="2.1298">
        <ele>622</ele>
        <time>2012-03-25T10:13:26Z</time>
      </trkpt>
      <trkpt lat="45.33934" lon="2.12975">
        <ele>621</ele>
        <time>2012-03-25T10:13:27Z</time>
      </trkpt>
      <trkpt lat="45.33935" lon="2.12971">
        <ele>621</ele>
        <time>2012-03-25T10:13:28Z</time>
      </trkpt>
      <trkpt lat="45.33936" lon="2.12967">
        <ele>621</ele>
        <time>2012-03-25T10:13:29Z</time>
      </trkpt>
      <trkpt lat="45.33939" lon="2.12959">
        <ele>621</ele>
        <time>2012-03-25T10:13:30Z</time>
      </trkpt>
      <trkpt lat="45.33939" lon="2.12959">
        <ele>621</ele>
        <time>2012-03-25T10:13:31Z</time>
      </trkpt>
      <trkpt lat="45.33939" lon="2.12956">
        <ele>623</ele>
        <time>2012-03-25T10:13:32Z</time>
      </trkpt>
      <trkpt lat="45.33939" lon="2.12956">
        <ele>623</ele>
        <time>2012-03-25T10:13:31Z</time>
      </trkpt>
      <trkpt lat="45.33939" lon="2.12956">
        <ele>623</ele>
        <time>2012-03-25T10:13:32Z</time>
      </trkpt>
      <trkpt lat="45.33939" lon="2.12954">
        <ele>623</ele>
        <time>2012-03-25T10:13:33Z</time>
      </trkpt>
      <trkpt lat="45.3394" lon="2.12948">
        <ele>623</ele>
        <time>2012-03-25T10:13:34Z</time>
      </trkpt>
      <trkpt lat="45.33942" lon="2.12942">
        <ele>624</ele>
        <time>2012-03-25T10:13:35Z</time>
      </trkpt>
      <trkpt lat="45.33944" lon="2.12936">
        <ele>624</ele>
        <time>2012-03-25T10:13:36Z</time>
      </trkpt>
      <trkpt lat="45.33945" lon="2.1293">
        <ele>625</ele>
        <time>2012-03-25T10:13:37Z</time>
      </trkpt>
      <trkpt lat="45.33947" lon="2.12925">
        <ele>626</ele>
        <time>2012-03-25T10:13:38Z</time>
      </trkpt>
      <trkpt lat="45.33948" lon="2.1292">
        <ele>626</ele>
        <time>2012-03-25T10:13:39Z</time>
      </trkpt>
      <trkpt lat="45.3395" lon="2.12917">
        <ele>626</ele>
        <time>2012-03-25T10:13:40Z</time>
      </trkpt>
      <trkpt lat="45.33951" lon="2.12911">
        <ele>626</ele>
        <time>2012-03-25T10:13:41Z</time>
      </trkpt>
      <trkpt lat="45.33953" lon="2.12907">
        <ele>625</ele>
        <time>2012-03-25T10:13:42Z</time>
      </trkpt>
      <trkpt lat="45.33953" lon="2.12903">
        <ele>625</ele>
        <time>2012-03-25T10:13:43Z</time>
      </trkpt>
      <trkpt lat="45.33955" lon="2.12898">
        <ele>625</ele>
        <time>2012-03-25T10:13:44Z</time>
      </trkpt>
      <trkpt lat="45.33955" lon="2.12893">
        <ele>625</ele>
        <time>2012-03-25T10:13:45Z</time>
      </trkpt>
      <trkpt lat="45.33956" lon="2.1289">
        <ele>625</ele>
        <time>2012-03-25T10:13:46Z</time>
      </trkpt>
      <trkpt lat="45.33957" lon="2.12886">
        <ele>625</ele>
        <time>2012-03-25T10:13:47Z</time>
      </trkpt>
      <trkpt lat="45.33957" lon="2.12882">
        <ele>625</ele>
        <time>2012-03-25T10:13:48Z</time>
      </trkpt>
      <trkpt lat="45.33957" lon="2.12877">
        <ele>624</ele>
        <time>2012-03-25T10:13:49Z</time>
      </trkpt>
      <trkpt lat="45.33956" lon="2.12872">
        <ele>624</ele>
        <time>2012-03-25T10:13:50Z</time>
      </trkpt>
      <trkpt lat="45.33957" lon="2.12868">
        <ele>624</ele>
        <time>2012-03-25T10:13:51Z</time>
      </trkpt>
      <trkpt lat="45.33957" lon="2.12863">
        <ele>624</ele>
        <time>2012-03-25T10:13:52Z</time>
      </trkpt>
      <trkpt lat="45.33957" lon="2.1286">
        <ele>624</ele>
        <time>2012-03-25T10:13:53Z</time>
      </trkpt>
      <trkpt lat="45.33956" lon="2.12856">
        <ele>625</ele>
        <time>2012-03-25T10:13:54Z</time>
      </trkpt>
      <trkpt lat="45.33955" lon="2.12852">
        <ele>625</ele>
        <time>2012-03-25T10:13:55Z</time>
      </trkpt>
      <trkpt lat="45.33954" lon="2.12851">
        <ele>626</ele>
        <time>2012-03-25T10:13:56Z</time>
      </trkpt>
      <trkpt lat="45.33953" lon="2.12846">
        <ele>625</ele>
        <time>2012-03-25T10:13:57Z</time>
      </trkpt>
      <trkpt lat="45.3395" lon="2.12844">
        <ele>625</ele>
        <time>2012-03-25T10:13:58Z</time>
      </trkpt>
      <trkpt lat="45.33946" lon="2.12842">
        <ele>626</ele>
        <time>2012-03-25T10:13:59Z</time>
      </trkpt>
      <trkpt lat="45.33943" lon="2.12839">
        <ele>625</ele>
        <time>2012-03-25T10:14:00Z</time>
      </trkpt>
      <trkpt lat="45.3394" lon="2.12839">
        <ele>625</ele>
        <time>2012-03-25T10:14:02Z</time>
      </trkpt>
      <trkpt lat="45.33936" lon="2.12838">
        <ele>626</ele>
        <time>2012-03-25T10:14:03Z</time>
      </trkpt>
      <trkpt lat="45.33934" lon="2.12835">
        <ele>627</ele>
        <time>2012-03-25T10:14:04Z</time>
      </trkpt>
      <trkpt lat="45.33931" lon="2.12835">
        <ele>627</ele>
        <time>2012-03-25T10:14:07Z</time>
      </trkpt>
      <trkpt lat="45.33928" lon="2.12834">
        <ele>627</ele>
        <time>2012-03-25T10:14:08Z</time>
      </trkpt>
      <trkpt lat="45.33924" lon="2.12832">
        <ele>627</ele>
        <time>2012-03-25T10:14:09Z</time>
      </trkpt>
      <trkpt lat="45.33921" lon="2.12831">
        <ele>627</ele>
        <time>2012-03-25T10:14:10Z</time>
      </trkpt>
      <trkpt lat="45.33918" lon="2.12829">
        <ele>628</ele>
        <time>2012-03-25T10:14:11Z</time>
      </trkpt>
      <trkpt lat="45.33915" lon="2.12827">
        <ele>628</ele>
        <time>2012-03-25T10:14:12Z</time>
      </trkpt>
      <trkpt lat="45.33911" lon="2.12826">
        <ele>628</ele>
        <time>2012-03-25T10:14:13Z</time>
      </trkpt>
      <trkpt lat="45.33908" lon="2.12824">
        <ele>628</ele>
        <time>2012-03-25T10:14:15Z</time>
      </trkpt>
      <trkpt lat="45.33903" lon="2.12824">
        <ele>628</ele>
        <time>2012-03-25T10:14:16Z</time>
      </trkpt>
      <trkpt lat="45.33896" lon="2.12821">
        <ele>628</ele>
        <time>2012-03-25T10:14:17Z</time>
      </trkpt>
      <trkpt lat="45.33892" lon="2.12819">
        <ele>628</ele>
        <time>2012-03-25T10:14:18Z</time>
      </trkpt>
      <trkpt lat="45.33889" lon="2.12819">
        <ele>628</ele>
        <time>2012-03-25T10:14:19Z</time>
      </trkpt>
      <trkpt lat="45.33885" lon="2.12818">
        <ele>628</ele>
        <time>2012-03-25T10:14:20Z</time>
      </trkpt>
      <trkpt lat="45.33881" lon="2.12816">
        <ele>629</ele>
        <time>2012-03-25T10:14:22Z</time>
      </trkpt>
      <trkpt lat="45.33875" lon="2.12813">
        <ele>629</ele>
        <time>2012-03-25T10:14:23Z</time>
      </trkpt>
      <trkpt lat="45.33866" lon="2.12812">
        <ele>629</ele>
        <time>2012-03-25T10:14:24Z</time>
      </trkpt>
      <trkpt lat="45.33862" lon="2.12809">
        <ele>629</ele>
        <time>2012-03-25T10:14:26Z</time>
      </trkpt>
      <trkpt lat="45.33847" lon="2.12804">
        <ele>628</ele>
        <time>2012-03-25T10:14:27Z</time>
      </trkpt>
      <trkpt lat="45.33843" lon="2.12801">
        <ele>629</ele>
        <time>2012-03-25T10:14:28Z</time>
      </trkpt>
      <trkpt lat="45.33838" lon="2.12802">
        <ele>629</ele>
        <time>2012-03-25T10:14:30Z</time>
      </trkpt>
      <trkpt lat="45.3383" lon="2.12796">
        <ele>629</ele>
        <time>2012-03-25T10:14:31Z</time>
      </trkpt>
      <trkpt lat="45.33825" lon="2.12795">
        <ele>628</ele>
        <time>2012-03-25T10:14:32Z</time>
      </trkpt>
      <trkpt lat="45.33819" lon="2.12791">
        <ele>629</ele>
        <time>2012-03-25T10:14:34Z</time>
      </trkpt>
      <trkpt lat="45.33809" lon="2.12787">
        <ele>629</ele>
        <time>2012-03-25T10:14:35Z</time>
      </trkpt>
      <trkpt lat="45.33804" lon="2.12783">
        <ele>628</ele>
        <time>2012-03-25T10:14:36Z</time>
      </trkpt>
      <trkpt lat="45.338" lon="2.12778">
        <ele>628</ele>
        <time>2012-03-25T10:14:38Z</time>
      </trkpt>
      <trkpt lat="45.33791" lon="2.12765">
        <ele>629</ele>
        <time>2012-03-25T10:14:39Z</time>
      </trkpt>
      <trkpt lat="45.33786" lon="2.12758">
        <ele>628</ele>
        <time>2012-03-25T10:14:40Z</time>
      </trkpt>
      <trkpt lat="45.33781" lon="2.12748">
        <ele>626</ele>
        <time>2012-03-25T10:14:42Z</time>
      </trkpt>
      <trkpt lat="45.33776" lon="2.12729">
        <ele>624</ele>
        <time>2012-03-25T10:14:43Z</time>
      </trkpt>
      <trkpt lat="45.33774" lon="2.12718">
        <ele>624</ele>
        <time>2012-03-25T10:14:44Z</time>
      </trkpt>
      <trkpt lat="45.33773" lon="2.12705">
        <ele>623</ele>
        <time>2012-03-25T10:14:46Z</time>
      </trkpt>
      <trkpt lat="45.33772" lon="2.12683">
        <ele>622</ele>
        <time>2012-03-25T10:14:47Z</time>
      </trkpt>
      <trkpt lat="45.3377" lon="2.1267">
        <ele>622</ele>
        <time>2012-03-25T10:14:48Z</time>
      </trkpt>
      <trkpt lat="45.3377" lon="2.12658">
        <ele>621</ele>
        <time>2012-03-25T10:14:50Z</time>
      </trkpt>
      <trkpt lat="45.33771" lon="2.12633">
        <ele>623</ele>
        <time>2012-03-25T10:14:51Z</time>
      </trkpt>
      <trkpt lat="45.33773" lon="2.12623">
        <ele>623</ele>
        <time>2012-03-25T10:14:52Z</time>
      </trkpt>
      <trkpt lat="45.33776" lon="2.12606">
        <ele>622</ele>
        <time>2012-03-25T10:14:54Z</time>
      </trkpt>
      <trkpt lat="45.33776" lon="2.1258">
        <ele>622</ele>
        <time>2012-03-25T10:14:55Z</time>
      </trkpt>
      <trkpt lat="45.33772" lon="2.12567">
        <ele>622</ele>
        <time>2012-03-25T10:14:56Z</time>
      </trkpt>
      <trkpt lat="45.33767" lon="2.12558">
        <ele>622</ele>
        <time>2012-03-25T10:14:58Z</time>
      </trkpt>
      <trkpt lat="45.33754" lon="2.12544">
        <ele>622</ele>
        <time>2012-03-25T10:14:59Z</time>
      </trkpt>
      <trkpt lat="45.33745" lon="2.1254">
        <ele>622</ele>
        <time>2012-03-25T10:15:00Z</time>
      </trkpt>
      <trkpt lat="45.3374" lon="2.12534">
        <ele>623</ele>
        <time>2012-03-25T10:15:02Z</time>
      </trkpt>
      <trkpt lat="45.33728" lon="2.12526">
        <ele>623</ele>
        <time>2012-03-25T10:15:03Z</time>
      </trkpt>
      <trkpt lat="45.33721" lon="2.1252">
        <ele>623</ele>
        <time>2012-03-25T10:15:04Z</time>
      </trkpt>
      <trkpt lat="45.33714" lon="2.12513">
        <ele>623</ele>
        <time>2012-03-25T10:15:06Z</time>
      </trkpt>
      <trkpt lat="45.33707" lon="2.12501">
        <ele>622</ele>
        <time>2012-03-25T10:15:07Z</time>
      </trkpt>
      <trkpt lat="45.33705" lon="2.12496">
        <ele>623</ele>
        <time>2012-03-25T10:15:08Z</time>
      </trkpt>
      <trkpt lat="45.33703" lon="2.1249">
        <ele>623</ele>
        <time>2012-03-25T10:15:10Z</time>
      </trkpt>
      <trkpt lat="45.33698" lon="2.1248">
        <ele>623</ele>
        <time>2012-03-25T10:15:11Z</time>
      </trkpt>
      <trkpt lat="45.33696" lon="2.12473">
        <ele>624</ele>
        <time>2012-03-25T10:15:12Z</time>
      </trkpt>
      <trkpt lat="45.33695" lon="2.12469">
        <ele>624</ele>
        <time>2012-03-25T10:15:14Z</time>
      </trkpt>
      <trkpt lat="45.33691" lon="2.12463">
        <ele>624</ele>
        <time>2012-03-25T10:15:15Z</time>
      </trkpt>
      <trkpt lat="45.33689" lon="2.12461">
        <ele>624</ele>
        <time>2012-03-25T10:15:16Z</time>
      </trkpt>
      <trkpt lat="45.33685" lon="2.12459">
        <ele>625</ele>
        <time>2012-03-25T10:15:18Z</time>
      </trkpt>
      <trkpt lat="45.33675" lon="2.12457">
        <ele>625</ele>
        <time>2012-03-25T10:15:19Z</time>
      </trkpt>
      <trkpt lat="45.33668" lon="2.12458">
        <ele>626</ele>
        <time>2012-03-25T10:15:20Z</time>
      </trkpt>
      <trkpt lat="45.33664" lon="2.12458">
        <ele>625</ele>
        <time>2012-03-25T10:15:22Z</time>
      </trkpt>
      <trkpt lat="45.33654" lon="2.12461">
        <ele>625</ele>
        <time>2012-03-25T10:15:23Z</time>
      </trkpt>
      <trkpt lat="45.33648" lon="2.12461">
        <ele>626</ele>
        <time>2012-03-25T10:15:24Z</time>
      </trkpt>
      <trkpt lat="45.33644" lon="2.12462">
        <ele>626</ele>
        <time>2012-03-25T10:15:26Z</time>
      </trkpt>
      <trkpt lat="45.33634" lon="2.12463">
        <ele>627</ele>
        <time>2012-03-25T10:15:27Z</time>
      </trkpt>
      <trkpt lat="45.3363" lon="2.12464">
        <ele>626</ele>
        <time>2012-03-25T10:15:28Z</time>
      </trkpt>
      <trkpt lat="45.33627" lon="2.12466">
        <ele>626</ele>
        <time>2012-03-25T10:15:30Z</time>
      </trkpt>
      <trkpt lat="45.33618" lon="2.12466">
        <ele>626</ele>
        <time>2012-03-25T10:15:31Z</time>
      </trkpt>
      <trkpt lat="45.33615" lon="2.12466">
        <ele>626</ele>
        <time>2012-03-25T10:15:32Z</time>
      </trkpt>
      <trkpt lat="45.33612" lon="2.12465">
        <ele>626</ele>
        <time>2012-03-25T10:15:34Z</time>
      </trkpt>
      <trkpt lat="45.33607" lon="2.12467">
        <ele>626</ele>
        <time>2012-03-25T10:15:35Z</time>
      </trkpt>
      <trkpt lat="45.33604" lon="2.12465">
        <ele>626</ele>
        <time>2012-03-25T10:15:36Z</time>
      </trkpt>
      <trkpt lat="45.336" lon="2.12467">
        <ele>627</ele>
        <time>2012-03-25T10:15:38Z</time>
      </trkpt>
      <trkpt lat="45.33593" lon="2.12465">
        <ele>627</ele>
        <time>2012-03-25T10:15:39Z</time>
      </trkpt>
      <trkpt lat="45.33589" lon="2.12465">
        <ele>628</ele>
        <time>2012-03-25T10:15:40Z</time>
      </trkpt>
      <trkpt lat="45.33583" lon="2.12462">
        <ele>628</ele>
        <time>2012-03-25T10:15:42Z</time>
      </trkpt>
      <trkpt lat="45.33576" lon="2.12462">
        <ele>628</ele>
        <time>2012-03-25T10:15:43Z</time>
      </trkpt>
      <trkpt lat="45.33574" lon="2.12461">
        <ele>628</ele>
        <time>2012-03-25T10:15:44Z</time>
      </trkpt>
      <trkpt lat="45.33572" lon="2.12459">
        <ele>628</ele>
        <time>2012-03-25T10:15:46Z</time>
      </trkpt>
      <trkpt lat="45.33567" lon="2.12458">
        <ele>628</ele>
        <time>2012-03-25T10:15:47Z</time>
      </trkpt>
      <trkpt lat="45.33565" lon="2.12454">
        <ele>628</ele>
        <time>2012-03-25T10:15:48Z</time>
      </trkpt>
      <trkpt lat="45.33561" lon="2.12453">
        <ele>629</ele>
        <time>2012-03-25T10:15:50Z</time>
      </trkpt>
      <trkpt lat="45.33556" lon="2.12447">
        <ele>629</ele>
        <time>2012-03-25T10:15:51Z</time>
      </trkpt>
      <trkpt lat="45.33552" lon="2.12445">
        <ele>629</ele>
        <time>2012-03-25T10:15:52Z</time>
      </trkpt>
      <trkpt lat="45.33549" lon="2.12443">
        <ele>631</ele>
        <time>2012-03-25T10:15:54Z</time>
      </trkpt>
      <trkpt lat="45.33539" lon="2.12439">
        <ele>633</ele>
        <time>2012-03-25T10:15:55Z</time>
      </trkpt>
      <trkpt lat="45.33537" lon="2.12439">
        <ele>633</ele>
        <time>2012-03-25T10:15:56Z</time>
      </trkpt>
      <trkpt lat="45.33534" lon="2.12435">
        <ele>634</ele>
        <time>2012-03-25T10:15:58Z</time>
      </trkpt>
      <trkpt lat="45.33527" lon="2.12435">
        <ele>635</ele>
        <time>2012-03-25T10:15:59Z</time>
      </trkpt>
      <trkpt lat="45.33524" lon="2.12432">
        <ele>635</ele>
        <time>2012-03-25T10:16:00Z</time>
      </trkpt>
      <trkpt lat="45.33522" lon="2.1243">
        <ele>635</ele>
        <time>2012-03-25T10:16:02Z</time>
      </trkpt>
      <trkpt lat="45.33516" lon="2.12427">
        <ele>634</ele>
        <time>2012-03-25T10:16:03Z</time>
      </trkpt>
      <trkpt lat="45.33514" lon="2.12426">
        <ele>635</ele>
        <time>2012-03-25T10:16:04Z</time>
      </trkpt>
      <trkpt lat="45.3351" lon="2.12426">
        <ele>635</ele>
        <time>2012-03-25T10:16:06Z</time>
      </trkpt>
      <trkpt lat="45.33502" lon="2.12423">
        <ele>636</ele>
        <time>2012-03-25T10:16:07Z</time>
      </trkpt>
      <trkpt lat="45.33498" lon="2.12425">
        <ele>638</ele>
        <time>2012-03-25T10:16:08Z</time>
      </trkpt>
      <trkpt lat="45.33498" lon="2.12425">
        <ele>638</ele>
        <time>2012-03-25T10:16:10Z</time>
      </trkpt>
      <trkpt lat="45.33489" lon="2.12428">
        <ele>639</ele>
        <time>2012-03-25T10:16:11Z</time>
      </trkpt>
      <trkpt lat="45.33486" lon="2.1243">
        <ele>639</ele>
        <time>2012-03-25T10:16:12Z</time>
      </trkpt>
      <trkpt lat="45.33483" lon="2.12432">
        <ele>639</ele>
        <time>2012-03-25T10:16:14Z</time>
      </trkpt>
      <trkpt lat="45.33478" lon="2.12439">
        <ele>639</ele>
        <time>2012-03-25T10:16:15Z</time>
      </trkpt>
      <trkpt lat="45.33475" lon="2.12441">
        <ele>639</ele>
        <time>2012-03-25T10:16:16Z</time>
      </trkpt>
      <trkpt lat="45.33472" lon="2.12443">
        <ele>638</ele>
        <time>2012-03-25T10:16:18Z</time>
      </trkpt>
      <trkpt lat="45.33468" lon="2.12452">
        <ele>637</ele>
        <time>2012-03-25T10:16:19Z</time>
      </trkpt>
      <trkpt lat="45.33465" lon="2.12455">
        <ele>637</ele>
        <time>2012-03-25T10:16:20Z</time>
      </trkpt>
      <trkpt lat="45.33461" lon="2.12459">
        <ele>637</ele>
        <time>2012-03-25T10:16:22Z</time>
      </trkpt>
      <trkpt lat="45.33455" lon="2.12465">
        <ele>637</ele>
        <time>2012-03-25T10:16:23Z</time>
      </trkpt>
      <trkpt lat="45.33452" lon="2.12469">
        <ele>637</ele>
        <time>2012-03-25T10:16:24Z</time>
      </trkpt>
      <trkpt lat="45.33449" lon="2.12473">
        <ele>638</ele>
        <time>2012-03-25T10:16:26Z</time>
      </trkpt>
      <trkpt lat="45.33442" lon="2.12479">
        <ele>637</ele>
        <time>2012-03-25T10:16:27Z</time>
      </trkpt>
      <trkpt lat="45.3344" lon="2.12483">
        <ele>636</ele>
        <time>2012-03-25T10:16:28Z</time>
      </trkpt>
      <trkpt lat="45.33437" lon="2.12488">
        <ele>636</ele>
        <time>2012-03-25T10:16:30Z</time>
      </trkpt>
      <trkpt lat="45.33431" lon="2.12494">
        <ele>636</ele>
        <time>2012-03-25T10:16:31Z</time>
      </trkpt>
      <trkpt lat="45.33428" lon="2.125">
        <ele>636</ele>
        <time>2012-03-25T10:16:32Z</time>
      </trkpt>
      <trkpt lat="45.33423" lon="2.12506">
        <ele>636</ele>
        <time>2012-03-25T10:16:34Z</time>
      </trkpt>
      <trkpt lat="45.33417" lon="2.12512">
        <ele>635</ele>
        <time>2012-03-25T10:16:35Z</time>
      </trkpt>
      <trkpt lat="45.33413" lon="2.12517">
        <ele>635</ele>
        <time>2012-03-25T10:16:36Z</time>
      </trkpt>
      <trkpt lat="45.33409" lon="2.12522">
        <ele>635</ele>
        <time>2012-03-25T10:16:38Z</time>
      </trkpt>
      <trkpt lat="45.33401" lon="2.12528">
        <ele>635</ele>
        <time>2012-03-25T10:16:39Z</time>
      </trkpt>
      <trkpt lat="45.33397" lon="2.12533">
        <ele>634</ele>
        <time>2012-03-25T10:16:40Z</time>
      </trkpt>
      <trkpt lat="45.33394" lon="2.12537">
        <ele>634</ele>
        <time>2012-03-25T10:16:42Z</time>
      </trkpt>
      <trkpt lat="45.33385" lon="2.12545">
        <ele>635</ele>
        <time>2012-03-25T10:16:43Z</time>
      </trkpt>
      <trkpt lat="45.33381" lon="2.12549">
        <ele>635</ele>
        <time>2012-03-25T10:16:44Z</time>
      </trkpt>
      <trkpt lat="45.33376" lon="2.12552">
        <ele>635</ele>
        <time>2012-03-25T10:16:46Z</time>
      </trkpt>
      <trkpt lat="45.33368" lon="2.12557">
        <ele>635</ele>
        <time>2012-03-25T10:16:47Z</time>
      </trkpt>
      <trkpt lat="45.33363" lon="2.1256">
        <ele>636</ele>
        <time>2012-03-25T10:16:48Z</time>
      </trkpt>
      <trkpt lat="45.33359" lon="2.12564">
        <ele>635</ele>
        <time>2012-03-25T10:16:50Z</time>
      </trkpt>
      <trkpt lat="45.3335" lon="2.12573">
        <ele>635</ele>
        <time>2012-03-25T10:16:51Z</time>
      </trkpt>
      <trkpt lat="45.33345" lon="2.12577">
        <ele>635</ele>
        <time>2012-03-25T10:16:52Z</time>
      </trkpt>
      <trkpt lat="45.33339" lon="2.12576">
        <ele>637</ele>
        <time>2012-03-25T10:16:54Z</time>
      </trkpt>
      <trkpt lat="45.33328" lon="2.12584">
        <ele>637</ele>
        <time>2012-03-25T10:16:55Z</time>
      </trkpt>
      <trkpt lat="45.33322" lon="2.12589">
        <ele>637</ele>
        <time>2012-03-25T10:16:56Z</time>
      </trkpt>
      <trkpt lat="45.33318" lon="2.1259">
        <ele>637</ele>
        <time>2012-03-25T10:16:58Z</time>
      </trkpt>
      <trkpt lat="45.33306" lon="2.12593">
        <ele>637</ele>
        <time>2012-03-25T10:16:59Z</time>
      </trkpt>
      <trkpt lat="45.333" lon="2.12595">
        <ele>637</ele>
        <time>2012-03-25T10:17:00Z</time>
      </trkpt>
      <trkpt lat="45.33295" lon="2.12594">
        <ele>637</ele>
        <time>2012-03-25T10:17:02Z</time>
      </trkpt>
      <trkpt lat="45.33283" lon="2.12597">
        <ele>637</ele>
        <time>2012-03-25T10:17:03Z</time>
      </trkpt>
      <trkpt lat="45.33277" lon="2.12597">
        <ele>637</ele>
        <time>2012-03-25T10:17:04Z</time>
      </trkpt>
      <trkpt lat="45.33272" lon="2.12595">
        <ele>637</ele>
        <time>2012-03-25T10:17:06Z</time>
      </trkpt>
      <trkpt lat="45.33261" lon="2.12594">
        <ele>636</ele>
        <time>2012-03-25T10:17:07Z</time>
      </trkpt>
      <trkpt lat="45.33254" lon="2.12593">
        <ele>636</ele>
        <time>2012-03-25T10:17:08Z</time>
      </trkpt>
      <trkpt lat="45.33248" lon="2.12591">
        <ele>636</ele>
        <time>2012-03-25T10:17:10Z</time>
      </trkpt>
      <trkpt lat="45.33234" lon="2.12587">
        <ele>636</ele>
        <time>2012-03-25T10:17:11Z</time>
      </trkpt>
      <trkpt lat="45.33228" lon="2.12583">
        <ele>636</ele>
        <time>2012-03-25T10:17:12Z</time>
      </trkpt>
      <trkpt lat="45.33222" lon="2.12576">
        <ele>636</ele>
        <time>2012-03-25T10:17:14Z</time>
      </trkpt>
      <trkpt lat="45.3321" lon="2.12569">
        <ele>636</ele>
        <time>2012-03-25T10:17:15Z</time>
      </trkpt>
      <trkpt lat="45.33204" lon="2.12562">
        <ele>635</ele>
        <time>2012-03-25T10:17:16Z</time>
      </trkpt>
      <trkpt lat="45.33199" lon="2.12555">
        <ele>634</ele>
        <time>2012-03-25T10:17:18Z</time>
      </trkpt>
      <trkpt lat="45.33183" lon="2.12545">
        <ele>634</ele>
        <time>2012-03-25T10:17:19Z</time>
      </trkpt>
      <trkpt lat="45.33177" lon="2.12538">
        <ele>634</ele>
        <time>2012-03-25T10:17:20Z</time>
      </trkpt>
      <trkpt lat="45.3317" lon="2.12533">
        <ele>634</ele>
        <time>2012-03-25T10:17:22Z</time>
      </trkpt>
      <trkpt lat="45.33152" lon="2.12528">
        <ele>634</ele>
        <time>2012-03-25T10:17:23Z</time>
      </trkpt>
      <trkpt lat="45.33144" lon="2.12524">
        <ele>633</ele>
        <time>2012-03-25T10:17:24Z</time>
      </trkpt>
      <trkpt lat="45.33134" lon="2.12521">
        <ele>633</ele>
        <time>2012-03-25T10:17:26Z</time>
      </trkpt>
      <trkpt lat="45.33117" lon="2.1252">
        <ele>632</ele>
        <time>2012-03-25T10:17:27Z</time>
      </trkpt>
      <trkpt lat="45.33109" lon="2.12517">
        <ele>632</ele>
        <time>2012-03-25T10:17:28Z</time>
      </trkpt>
      <trkpt lat="45.33101" lon="2.12514">
        <ele>632</ele>
        <time>2012-03-25T10:17:29Z</time>
      </trkpt>
      <trkpt lat="45.33092" lon="2.12512">
        <ele>632</ele>
        <time>2012-03-25T10:17:30Z</time>
      </trkpt>
      <trkpt lat="45.33081" lon="2.12512">
        <ele>632</ele>
        <time>2012-03-25T10:17:31Z</time>
      </trkpt>
      <trkpt lat="45.33074" lon="2.12511">
        <ele>632</ele>
        <time>2012-03-25T10:17:32Z</time>
      </trkpt>
      <trkpt lat="45.33064" lon="2.12511">
        <ele>631</ele>
        <time>2012-03-25T10:17:33Z</time>
      </trkpt>
      <trkpt lat="45.33055" lon="2.12515">
        <ele>631</ele>
        <time>2012-03-25T10:17:34Z</time>
      </trkpt>
      <trkpt lat="45.33045" lon="2.12522">
        <ele>631</ele>
        <time>2012-03-25T10:17:35Z</time>
      </trkpt>
      <trkpt lat="45.33035" lon="2.12531">
        <ele>630</ele>
        <time>2012-03-25T10:17:36Z</time>
      </trkpt>
      <trkpt lat="45.33027" lon="2.12536">
        <ele>630</ele>
        <time>2012-03-25T10:17:37Z</time>
      </trkpt>
      <trkpt lat="45.33018" lon="2.12542">
        <ele>630</ele>
        <time>2012-03-25T10:17:38Z</time>
      </trkpt>
      <trkpt lat="45.33008" lon="2.12548">
        <ele>629</ele>
        <time>2012-03-25T10:17:39Z</time>
      </trkpt>
      <trkpt lat="45.32998" lon="2.12553">
        <ele>629</ele>
        <time>2012-03-25T10:17:40Z</time>
      </trkpt>
      <trkpt lat="45.32986" lon="2.12557">
        <ele>628</ele>
        <time>2012-03-25T10:17:41Z</time>
      </trkpt>
      <trkpt lat="45.32975" lon="2.12555">
        <ele>629</ele>
        <time>2012-03-25T10:17:42Z</time>
      </trkpt>
      <trkpt lat="45.32964" lon="2.12551">
        <ele>627</ele>
        <time>2012-03-25T10:17:43Z</time>
      </trkpt>
      <trkpt lat="45.32953" lon="2.1255">
        <ele>627</ele>
        <time>2012-03-25T10:17:44Z</time>
      </trkpt>
      <trkpt lat="45.3294" lon="2.12549">
        <ele>627</ele>
        <time>2012-03-25T10:17:45Z</time>
      </trkpt>
      <trkpt lat="45.32929" lon="2.12544">
        <ele>627</ele>
        <time>2012-03-25T10:17:46Z</time>
      </trkpt>
      <trkpt lat="45.32918" lon="2.12537">
        <ele>627</ele>
        <time>2012-03-25T10:17:47Z</time>
      </trkpt>
      <trkpt lat="45.32907" lon="2.1253">
        <ele>626</ele>
        <time>2012-03-25T10:17:48Z</time>
      </trkpt>
      <trkpt lat="45.32898" lon="2.12524">
        <ele>625</ele>
        <time>2012-03-25T10:17:49Z</time>
      </trkpt>
      <trkpt lat="45.32889" lon="2.12516">
        <ele>623</ele>
        <time>2012-03-25T10:17:50Z</time>
      </trkpt>
      <trkpt lat="45.32882" lon="2.12507">
        <ele>622</ele>
        <time>2012-03-25T10:17:51Z</time>
      </trkpt>
      <trkpt lat="45.32878" lon="2.12498">
        <ele>621</ele>
        <time>2012-03-25T10:17:52Z</time>
      </trkpt>
      <trkpt lat="45.32874" lon="2.12487">
        <ele>620</ele>
        <time>2012-03-25T10:17:52Z</time>
      </trkpt>
      <trkpt lat="45.3287" lon="2.12479">
        <ele>619</ele>
        <time>2012-03-25T10:17:53Z</time>
      </trkpt>
      <trkpt lat="45.32867" lon="2.12471">
        <ele>620</ele>
        <time>2012-03-25T10:17:54Z</time>
      </trkpt>
      <trkpt lat="45.32867" lon="2.12464">
        <ele>620</ele>
        <time>2012-03-25T10:17:55Z</time>
      </trkpt>
      <trkpt lat="45.32866" lon="2.12456">
        <ele>619</ele>
        <time>2012-03-25T10:17:56Z</time>
      </trkpt>
      <trkpt lat="45.32865" lon="2.1245">
        <ele>619</ele>
        <time>2012-03-25T10:17:58Z</time>
      </trkpt>
      <trkpt lat="45.32862" lon="2.12444">
        <ele>618</ele>
        <time>2012-03-25T10:17:59Z</time>
      </trkpt>
      <trkpt lat="45.32861" lon="2.1244">
        <ele>619</ele>
        <time>2012-03-25T10:18:00Z</time>
      </trkpt>
      <trkpt lat="45.32858" lon="2.12436">
        <ele>619</ele>
        <time>2012-03-25T10:18:01Z</time>
      </trkpt>
      <trkpt lat="45.32854" lon="2.1243">
        <ele>619</ele>
        <time>2012-03-25T10:18:02Z</time>
      </trkpt>
      <trkpt lat="45.32852" lon="2.12425">
        <ele>619</ele>
        <time>2012-03-25T10:18:03Z</time>
      </trkpt>
      <trkpt lat="45.32849" lon="2.12421">
        <ele>619</ele>
        <time>2012-03-25T10:18:04Z</time>
      </trkpt>
      <trkpt lat="45.32842" lon="2.1242">
        <ele>619</ele>
        <time>2012-03-25T10:18:06Z</time>
      </trkpt>
      <trkpt lat="45.32838" lon="2.12419">
        <ele>619</ele>
        <time>2012-03-25T10:18:07Z</time>
      </trkpt>
      <trkpt lat="45.32832" lon="2.12415">
        <ele>619</ele>
        <time>2012-03-25T10:18:08Z</time>
      </trkpt>
      <trkpt lat="45.32828" lon="2.12412">
        <ele>619</ele>
        <time>2012-03-25T10:18:10Z</time>
      </trkpt>
      <trkpt lat="45.32827" lon="2.12407">
        <ele>619</ele>
        <time>2012-03-25T10:18:11Z</time>
      </trkpt>
      <trkpt lat="45.32821" lon="2.12406">
        <ele>619</ele>
        <time>2012-03-25T10:18:12Z</time>
      </trkpt>
      <trkpt lat="45.32819" lon="2.12406">
        <ele>619</ele>
        <time>2012-03-25T10:18:14Z</time>
      </trkpt>
      <trkpt lat="45.32816" lon="2.12405">
        <ele>620</ele>
        <time>2012-03-25T10:18:15Z</time>
      </trkpt>
      <trkpt lat="45.32813" lon="2.124">
        <ele>619</ele>
        <time>2012-03-25T10:18:16Z</time>
      </trkpt>
      <trkpt lat="45.3281" lon="2.124">
        <ele>619</ele>
        <time>2012-03-25T10:18:18Z</time>
      </trkpt>
      <trkpt lat="45.32807" lon="2.124">
        <ele>619</ele>
        <time>2012-03-25T10:18:19Z</time>
      </trkpt>
      <trkpt lat="45.32799" lon="2.12395">
        <ele>620</ele>
        <time>2012-03-25T10:18:20Z</time>
      </trkpt>
      <trkpt lat="45.32797" lon="2.12393">
        <ele>621</ele>
        <time>2012-03-25T10:18:22Z</time>
      </trkpt>
      <trkpt lat="45.32792" lon="2.1239">
        <ele>622</ele>
        <time>2012-03-25T10:18:23Z</time>
      </trkpt>
      <trkpt lat="45.32788" lon="2.12389">
        <ele>622</ele>
        <time>2012-03-25T10:18:24Z</time>
      </trkpt>
      <trkpt lat="45.32788" lon="2.12385">
        <ele>623</ele>
        <time>2012-03-25T10:18:26Z</time>
      </trkpt>
      <trkpt lat="45.32784" lon="2.12382">
        <ele>625</ele>
        <time>2012-03-25T10:18:27Z</time>
      </trkpt>
      <trkpt lat="45.32782" lon="2.12383">
        <ele>626</ele>
        <time>2012-03-25T10:18:28Z</time>
      </trkpt>
      <trkpt lat="45.32779" lon="2.12382">
        <ele>628</ele>
        <time>2012-03-25T10:18:30Z</time>
      </trkpt>
      <trkpt lat="45.32776" lon="2.12377">
        <ele>630</ele>
        <time>2012-03-25T10:18:31Z</time>
      </trkpt>
      <trkpt lat="45.32773" lon="2.12374">
        <ele>630</ele>
        <time>2012-03-25T10:18:32Z</time>
      </trkpt>
      <trkpt lat="45.3277" lon="2.12373">
        <ele>630</ele>
        <time>2012-03-25T10:18:34Z</time>
      </trkpt>
      <trkpt lat="45.32763" lon="2.12373">
        <ele>630</ele>
        <time>2012-03-25T10:18:35Z</time>
      </trkpt>
      <trkpt lat="45.32759" lon="2.12371">
        <ele>631</ele>
        <time>2012-03-25T10:18:36Z</time>
      </trkpt>
      <trkpt lat="45.32756" lon="2.12369">
        <ele>632</ele>
        <time>2012-03-25T10:18:38Z</time>
      </trkpt>
      <trkpt lat="45.32748" lon="2.12366">
        <ele>634</ele>
        <time>2012-03-25T10:18:39Z</time>
      </trkpt>
      <trkpt lat="45.32744" lon="2.12365">
        <ele>635</ele>
        <time>2012-03-25T10:18:40Z</time>
      </trkpt>
      <trkpt lat="45.32742" lon="2.12363">
        <ele>636</ele>
        <time>2012-03-25T10:18:42Z</time>
      </trkpt>
      <trkpt lat="45.32737" lon="2.12355">
        <ele>635</ele>
        <time>2012-03-25T10:18:43Z</time>
      </trkpt>
      <trkpt lat="45.32734" lon="2.12353">
        <ele>635</ele>
        <time>2012-03-25T10:18:44Z</time>
      </trkpt>
      <trkpt lat="45.32731" lon="2.12352">
        <ele>634</ele>
        <time>2012-03-25T10:18:46Z</time>
      </trkpt>
      <trkpt lat="45.32725" lon="2.12348">
        <ele>635</ele>
        <time>2012-03-25T10:18:47Z</time>
      </trkpt>
      <trkpt lat="45.32724" lon="2.12343">
        <ele>634</ele>
        <time>2012-03-25T10:18:48Z</time>
      </trkpt>
      <trkpt lat="45.32721" lon="2.12338">
        <ele>634</ele>
        <time>2012-03-25T10:18:50Z</time>
      </trkpt>
      <trkpt lat="45.32718" lon="2.12334">
        <ele>634</ele>
        <time>2012-03-25T10:18:51Z</time>
      </trkpt>
      <trkpt lat="45.32716" lon="2.12331">
        <ele>635</ele>
        <time>2012-03-25T10:18:52Z</time>
      </trkpt>
      <trkpt lat="45.32717" lon="2.12328">
        <ele>635</ele>
        <time>2012-03-25T10:18:54Z</time>
      </trkpt>
      <trkpt lat="45.32713" lon="2.12322">
        <ele>635</ele>
        <time>2012-03-25T10:18:55Z</time>
      </trkpt>
      <trkpt lat="45.32712" lon="2.12319">
        <ele>635</ele>
        <time>2012-03-25T10:18:56Z</time>
      </trkpt>
      <trkpt lat="45.32711" lon="2.12318">
        <ele>636</ele>
        <time>2012-03-25T10:18:58Z</time>
      </trkpt>
      <trkpt lat="45.32709" lon="2.12313">
        <ele>638</ele>
        <time>2012-03-25T10:18:59Z</time>
      </trkpt>
      <trkpt lat="45.32708" lon="2.12307">
        <ele>637</ele>
        <time>2012-03-25T10:19:00Z</time>
      </trkpt>
      <trkpt lat="45.32707" lon="2.12304">
        <ele>637</ele>
        <time>2012-03-25T10:19:02Z</time>
      </trkpt>
      <trkpt lat="45.32703" lon="2.12302">
        <ele>639</ele>
        <time>2012-03-25T10:19:03Z</time>
      </trkpt>
      <trkpt lat="45.327" lon="2.12303">
        <ele>639</ele>
        <time>2012-03-25T10:19:04Z</time>
      </trkpt>
      <trkpt lat="45.32695" lon="2.12302">
        <ele>640</ele>
        <time>2012-03-25T10:19:06Z</time>
      </trkpt>
      <trkpt lat="45.32692" lon="2.12295">
        <ele>640</ele>
        <time>2012-03-25T10:19:07Z</time>
      </trkpt>
      <trkpt lat="45.3269" lon="2.12294">
        <ele>641</ele>
        <time>2012-03-25T10:19:08Z</time>
      </trkpt>
      <trkpt lat="45.32685" lon="2.12292">
        <ele>641</ele>
        <time>2012-03-25T10:19:10Z</time>
      </trkpt>
      <trkpt lat="45.32678" lon="2.1229">
        <ele>641</ele>
        <time>2012-03-25T10:19:11Z</time>
      </trkpt>
      <trkpt lat="45.3268" lon="2.12286">
        <ele>642</ele>
        <time>2012-03-25T10:19:12Z</time>
      </trkpt>
      <trkpt lat="45.32675" lon="2.12284">
        <ele>642</ele>
        <time>2012-03-25T10:19:14Z</time>
      </trkpt>
      <trkpt lat="45.32672" lon="2.1228">
        <ele>643</ele>
        <time>2012-03-25T10:19:15Z</time>
      </trkpt>
      <trkpt lat="45.32667" lon="2.1228">
        <ele>644</ele>
        <time>2012-03-25T10:19:16Z</time>
      </trkpt>
      <trkpt lat="45.32663" lon="2.1228">
        <ele>645</ele>
        <time>2012-03-25T10:19:18Z</time>
      </trkpt>
      <trkpt lat="45.32658" lon="2.12275">
        <ele>645</ele>
        <time>2012-03-25T10:19:19Z</time>
      </trkpt>
      <trkpt lat="45.32655" lon="2.12272">
        <ele>645</ele>
        <time>2012-03-25T10:19:20Z</time>
      </trkpt>
      <trkpt lat="45.3265" lon="2.12271">
        <ele>646</ele>
        <time>2012-03-25T10:19:22Z</time>
      </trkpt>
      <trkpt lat="45.32637" lon="2.12274">
        <ele>646</ele>
        <time>2012-03-25T10:19:23Z</time>
      </trkpt>
      <trkpt lat="45.32633" lon="2.12274">
        <ele>646</ele>
        <time>2012-03-25T10:19:24Z</time>
      </trkpt>
      <trkpt lat="45.32632" lon="2.12272">
        <ele>646</ele>
        <time>2012-03-25T10:19:26Z</time>
      </trkpt>
      <trkpt lat="45.32624" lon="2.12265">
        <ele>646</ele>
        <time>2012-03-25T10:19:27Z</time>
      </trkpt>
      <trkpt lat="45.32623" lon="2.12264">
        <ele>646</ele>
        <time>2012-03-25T10:19:28Z</time>
      </trkpt>
      <trkpt lat="45.3262" lon="2.12266">
        <ele>646</ele>
        <time>2012-03-25T10:19:30Z</time>
      </trkpt>
      <trkpt lat="45.32611" lon="2.12266">
        <ele>646</ele>
        <time>2012-03-25T10:19:31Z</time>
      </trkpt>
      <trkpt lat="45.32609" lon="2.12265">
        <ele>647</ele>
        <time>2012-03-25T10:19:32Z</time>
      </trkpt>
      <trkpt lat="45.32607" lon="2.12262">
        <ele>647</ele>
        <time>2012-03-25T10:19:34Z</time>
      </trkpt>
      <trkpt lat="45.32599" lon="2.12258">
        <ele>646</ele>
        <time>2012-03-25T10:19:35Z</time>
      </trkpt>
      <trkpt lat="45.32596" lon="2.12259">
        <ele>647</ele>
        <time>2012-03-25T10:19:36Z</time>
      </trkpt>
      <trkpt lat="45.32596" lon="2.12259">
        <ele>647</ele>
        <time>2012-03-25T10:19:37Z</time>
      </trkpt>
      <trkpt lat="45.32593" lon="2.12259">
        <ele>647</ele>
        <time>2012-03-25T10:19:38Z</time>
      </trkpt>
      <trkpt lat="45.32587" lon="2.12258">
        <ele>647</ele>
        <time>2012-03-25T10:19:39Z</time>
      </trkpt>
      <trkpt lat="45.32587" lon="2.12258">
        <ele>647</ele>
        <time>2012-03-25T10:19:42Z</time>
      </trkpt>
      <trkpt lat="45.32585" lon="2.12256">
        <ele>647</ele>
        <time>2012-03-25T10:19:43Z</time>
      </trkpt>
      <trkpt lat="45.32579" lon="2.12251">
        <ele>647</ele>
        <time>2012-03-25T10:19:44Z</time>
      </trkpt>
      <trkpt lat="45.32577" lon="2.1225">
        <ele>647</ele>
        <time>2012-03-25T10:19:45Z</time>
      </trkpt>
      <trkpt lat="45.32573" lon="2.1225">
        <ele>648</ele>
        <time>2012-03-25T10:19:46Z</time>
      </trkpt>
      <trkpt lat="45.3257" lon="2.1225">
        <ele>648</ele>
        <time>2012-03-25T10:19:47Z</time>
      </trkpt>
      <trkpt lat="45.32569" lon="2.12251">
        <ele>647</ele>
        <time>2012-03-25T10:19:48Z</time>
      </trkpt>
      <trkpt lat="45.32564" lon="2.1225">
        <ele>646</ele>
        <time>2012-03-25T10:19:50Z</time>
      </trkpt>
      <trkpt lat="45.32563" lon="2.1225">
        <ele>645</ele>
        <time>2012-03-25T10:19:51Z</time>
      </trkpt>
      <trkpt lat="45.32557" lon="2.12244">
        <ele>644</ele>
        <time>2012-03-25T10:19:52Z</time>
      </trkpt>
      <trkpt lat="45.32555" lon="2.12241">
        <ele>644</ele>
        <time>2012-03-25T10:19:54Z</time>
      </trkpt>
      <trkpt lat="45.3255" lon="2.12238">
        <ele>644</ele>
        <time>2012-03-25T10:19:55Z</time>
      </trkpt>
      <trkpt lat="45.32545" lon="2.12236">
        <ele>644</ele>
        <time>2012-03-25T10:19:56Z</time>
      </trkpt>
      <trkpt lat="45.32542" lon="2.12237">
        <ele>644</ele>
        <time>2012-03-25T10:19:58Z</time>
      </trkpt>
      <trkpt lat="45.32539" lon="2.12238">
        <ele>644</ele>
        <time>2012-03-25T10:19:59Z</time>
      </trkpt>
      <trkpt lat="45.32536" lon="2.12236">
        <ele>643</ele>
        <time>2012-03-25T10:20:00Z</time>
      </trkpt>
      <trkpt lat="45.32533" lon="2.12235">
        <ele>643</ele>
        <time>2012-03-25T10:20:02Z</time>
      </trkpt>
      <trkpt lat="45.32531" lon="2.12231">
        <ele>644</ele>
        <time>2012-03-25T10:20:03Z</time>
      </trkpt>
      <trkpt lat="45.32526" lon="2.12225">
        <ele>644</ele>
        <time>2012-03-25T10:20:04Z</time>
      </trkpt>
      <trkpt lat="45.32521" lon="2.12223">
        <ele>642</ele>
        <time>2012-03-25T10:20:06Z</time>
      </trkpt>
      <trkpt lat="45.32514" lon="2.12224">
        <ele>643</ele>
        <time>2012-03-25T10:20:07Z</time>
      </trkpt>
      <trkpt lat="45.32511" lon="2.12224">
        <ele>643</ele>
        <time>2012-03-25T10:20:08Z</time>
      </trkpt>
      <trkpt lat="45.32507" lon="2.12223">
        <ele>643</ele>
        <time>2012-03-25T10:20:10Z</time>
      </trkpt>
      <trkpt lat="45.325" lon="2.12221">
        <ele>644</ele>
        <time>2012-03-25T10:20:11Z</time>
      </trkpt>
      <trkpt lat="45.32498" lon="2.1222">
        <ele>644</ele>
        <time>2012-03-25T10:20:12Z</time>
      </trkpt>
      <trkpt lat="45.32498" lon="2.1222">
        <ele>644</ele>
        <time>2012-03-25T10:20:12Z</time>
      </trkpt>
      <trkpt lat="45.32494" lon="2.12218">
        <ele>644</ele>
        <time>2012-03-25T10:20:13Z</time>
      </trkpt>
      <trkpt lat="45.32493" lon="2.12215">
        <ele>644</ele>
        <time>2012-03-25T10:20:14Z</time>
      </trkpt>
      <trkpt lat="45.3249" lon="2.12214">
        <ele>643</ele>
        <time>2012-03-25T10:20:15Z</time>
      </trkpt>
      <trkpt lat="45.32488" lon="2.12212">
        <ele>644</ele>
        <time>2012-03-25T10:20:16Z</time>
      </trkpt>
      <trkpt lat="45.32488" lon="2.12209">
        <ele>644</ele>
        <time>2012-03-25T10:20:17Z</time>
      </trkpt>
      <trkpt lat="45.32486" lon="2.12209">
        <ele>645</ele>
        <time>2012-03-25T10:20:18Z</time>
      </trkpt>
      <trkpt lat="45.32484" lon="2.1221">
        <ele>645</ele>
        <time>2012-03-25T10:20:20Z</time>
      </trkpt>
      <trkpt lat="45.32481" lon="2.12208">
        <ele>646</ele>
        <time>2012-03-25T10:20:21Z</time>
      </trkpt>
      <trkpt lat="45.32476" lon="2.12206">
        <ele>647</ele>
        <time>2012-03-25T10:20:22Z</time>
      </trkpt>
      <trkpt lat="45.32475" lon="2.12204">
        <ele>648</ele>
        <time>2012-03-25T10:20:24Z</time>
      </trkpt>
      <trkpt lat="45.32472" lon="2.12202">
        <ele>648</ele>
        <time>2012-03-25T10:20:25Z</time>
      </trkpt>
      <trkpt lat="45.32469" lon="2.12196">
        <ele>648</ele>
        <time>2012-03-25T10:20:26Z</time>
      </trkpt>
      <trkpt lat="45.32465" lon="2.12195">
        <ele>648</ele>
        <time>2012-03-25T10:20:28Z</time>
      </trkpt>
      <trkpt lat="45.32462" lon="2.12194">
        <ele>648</ele>
        <time>2012-03-25T10:20:29Z</time>
      </trkpt>
      <trkpt lat="45.32455" lon="2.12192">
        <ele>648</ele>
        <time>2012-03-25T10:20:30Z</time>
      </trkpt>
      <trkpt lat="45.32452" lon="2.1219">
        <ele>649</ele>
        <time>2012-03-25T10:20:32Z</time>
      </trkpt>
      <trkpt lat="45.32449" lon="2.12189">
        <ele>649</ele>
        <time>2012-03-25T10:20:33Z</time>
      </trkpt>
      <trkpt lat="45.3244" lon="2.12186">
        <ele>650</ele>
        <time>2012-03-25T10:20:34Z</time>
      </trkpt>
      <trkpt lat="45.32438" lon="2.12185">
        <ele>651</ele>
        <time>2012-03-25T10:20:36Z</time>
      </trkpt>
      <trkpt lat="45.32433" lon="2.12183">
        <ele>652</ele>
        <time>2012-03-25T10:20:37Z</time>
      </trkpt>
      <trkpt lat="45.32431" lon="2.12182">
        <ele>652</ele>
        <time>2012-03-25T10:20:38Z</time>
      </trkpt>
      <trkpt lat="45.32427" lon="2.12181">
        <ele>652</ele>
        <time>2012-03-25T10:20:40Z</time>
      </trkpt>
      <trkpt lat="45.32427" lon="2.12181">
        <ele>652</ele>
        <time>2012-03-25T10:20:41Z</time>
      </trkpt>
      <trkpt lat="45.32421" lon="2.12178">
        <ele>653</ele>
        <time>2012-03-25T10:20:42Z</time>
      </trkpt>
      <trkpt lat="45.32418" lon="2.12175">
        <ele>654</ele>
        <time>2012-03-25T10:20:44Z</time>
      </trkpt>
      <trkpt lat="45.32415" lon="2.12174">
        <ele>654</ele>
        <time>2012-03-25T10:20:45Z</time>
      </trkpt>
      <trkpt lat="45.3241" lon="2.1217">
        <ele>654</ele>
        <time>2012-03-25T10:20:46Z</time>
      </trkpt>
      <trkpt lat="45.32406" lon="2.12169">
        <ele>654</ele>
        <time>2012-03-25T10:20:48Z</time>
      </trkpt>
      <trkpt lat="45.32404" lon="2.12167">
        <ele>653</ele>
        <time>2012-03-25T10:20:49Z</time>
      </trkpt>
      <trkpt lat="45.32397" lon="2.12163">
        <ele>654</ele>
        <time>2012-03-25T10:20:50Z</time>
      </trkpt>
      <trkpt lat="45.32392" lon="2.12161">
        <ele>654</ele>
        <time>2012-03-25T10:20:52Z</time>
      </trkpt>
      <trkpt lat="45.32389" lon="2.1216">
        <ele>655</ele>
        <time>2012-03-25T10:20:53Z</time>
      </trkpt>
      <trkpt lat="45.32381" lon="2.12161">
        <ele>655</ele>
        <time>2012-03-25T10:20:54Z</time>
      </trkpt>
      <trkpt lat="45.32376" lon="2.12161">
        <ele>655</ele>
        <time>2012-03-25T10:20:56Z</time>
      </trkpt>
      <trkpt lat="45.32361" lon="2.12158">
        <ele>655</ele>
        <time>2012-03-25T10:20:57Z</time>
      </trkpt>
      <trkpt lat="45.32354" lon="2.12157">
        <ele>655</ele>
        <time>2012-03-25T10:20:58Z</time>
      </trkpt>
      <trkpt lat="45.32345" lon="2.12155">
        <ele>654</ele>
        <time>2012-03-25T10:21:00Z</time>
      </trkpt>
      <trkpt lat="45.32329" lon="2.12146">
        <ele>654</ele>
        <time>2012-03-25T10:21:01Z</time>
      </trkpt>
      <trkpt lat="45.32323" lon="2.1214">
        <ele>653</ele>
        <time>2012-03-25T10:21:02Z</time>
      </trkpt>
      <trkpt lat="45.32317" lon="2.12132">
        <ele>653</ele>
        <time>2012-03-25T10:21:04Z</time>
      </trkpt>
      <trkpt lat="45.32305" lon="2.12117">
        <ele>652</ele>
        <time>2012-03-25T10:21:05Z</time>
      </trkpt>
      <trkpt lat="45.32298" lon="2.12109">
        <ele>651</ele>
        <time>2012-03-25T10:21:06Z</time>
      </trkpt>
      <trkpt lat="45.32292" lon="2.12103">
        <ele>650</ele>
        <time>2012-03-25T10:21:08Z</time>
      </trkpt>
      <trkpt lat="45.32282" lon="2.1209">
        <ele>649</ele>
        <time>2012-03-25T10:21:09Z</time>
      </trkpt>
      <trkpt lat="45.32277" lon="2.12084">
        <ele>650</ele>
        <time>2012-03-25T10:21:10Z</time>
      </trkpt>
      <trkpt lat="45.32273" lon="2.12079">
        <ele>650</ele>
        <time>2012-03-25T10:21:12Z</time>
      </trkpt>
      <trkpt lat="45.32266" lon="2.12067">
        <ele>650</ele>
        <time>2012-03-25T10:21:13Z</time>
      </trkpt>
      <trkpt lat="45.3226" lon="2.12065">
        <ele>650</ele>
        <time>2012-03-25T10:21:14Z</time>
      </trkpt>
      <trkpt lat="45.32254" lon="2.12062">
        <ele>649</ele>
        <time>2012-03-25T10:21:16Z</time>
      </trkpt>
      <trkpt lat="45.32244" lon="2.12056">
        <ele>649</ele>
        <time>2012-03-25T10:21:17Z</time>
      </trkpt>
      <trkpt lat="45.32242" lon="2.12054">
        <ele>649</ele>
        <time>2012-03-25T10:21:18Z</time>
      </trkpt>
      <trkpt lat="45.32238" lon="2.12052">
        <ele>649</ele>
        <time>2012-03-25T10:21:20Z</time>
      </trkpt>
      <trkpt lat="45.3223" lon="2.1205">
        <ele>649</ele>
        <time>2012-03-25T10:21:21Z</time>
      </trkpt>
      <trkpt lat="45.32228" lon="2.12047">
        <ele>649</ele>
        <time>2012-03-25T10:21:22Z</time>
      </trkpt>
      <trkpt lat="45.32227" lon="2.12046">
        <ele>649</ele>
        <time>2012-03-25T10:21:24Z</time>
      </trkpt>
      <trkpt lat="45.3222" lon="2.1204">
        <ele>649</ele>
        <time>2012-03-25T10:21:25Z</time>
      </trkpt>
      <trkpt lat="45.32218" lon="2.12038">
        <ele>649</ele>
        <time>2012-03-25T10:21:26Z</time>
      </trkpt>
      <trkpt lat="45.32216" lon="2.12036">
        <ele>649</ele>
        <time>2012-03-25T10:21:28Z</time>
      </trkpt>
      <trkpt lat="45.32211" lon="2.12032">
        <ele>649</ele>
        <time>2012-03-25T10:21:29Z</time>
      </trkpt>
      <trkpt lat="45.32209" lon="2.1203">
        <ele>648</ele>
        <time>2012-03-25T10:21:30Z</time>
      </trkpt>
      <trkpt lat="45.32205" lon="2.12028">
        <ele>649</ele>
        <time>2012-03-25T10:21:32Z</time>
      </trkpt>
      <trkpt lat="45.32197" lon="2.12023">
        <ele>649</ele>
        <time>2012-03-25T10:21:33Z</time>
      </trkpt>
      <trkpt lat="45.32194" lon="2.12022">
        <ele>649</ele>
        <time>2012-03-25T10:21:34Z</time>
      </trkpt>
      <trkpt lat="45.32189" lon="2.12018">
        <ele>649</ele>
        <time>2012-03-25T10:21:36Z</time>
      </trkpt>
      <trkpt lat="45.32181" lon="2.12014">
        <ele>649</ele>
        <time>2012-03-25T10:21:37Z</time>
      </trkpt>
      <trkpt lat="45.32176" lon="2.12012">
        <ele>648</ele>
        <time>2012-03-25T10:21:38Z</time>
      </trkpt>
      <trkpt lat="45.32174" lon="2.1201">
        <ele>649</ele>
        <time>2012-03-25T10:21:40Z</time>
      </trkpt>
      <trkpt lat="45.32168" lon="2.12005">
        <ele>650</ele>
        <time>2012-03-25T10:21:41Z</time>
      </trkpt>
      <trkpt lat="45.32164" lon="2.12002">
        <ele>651</ele>
        <time>2012-03-25T10:21:42Z</time>
      </trkpt>
      <trkpt lat="45.3216" lon="2.11999">
        <ele>651</ele>
        <time>2012-03-25T10:21:44Z</time>
      </trkpt>
      <trkpt lat="45.32154" lon="2.11994">
        <ele>651</ele>
        <time>2012-03-25T10:21:45Z</time>
      </trkpt>
      <trkpt lat="45.3215" lon="2.11989">
        <ele>650</ele>
        <time>2012-03-25T10:21:46Z</time>
      </trkpt>
      <trkpt lat="45.32146" lon="2.11988">
        <ele>649</ele>
        <time>2012-03-25T10:21:48Z</time>
      </trkpt>
      <trkpt lat="45.3214" lon="2.11982">
        <ele>649</ele>
        <time>2012-03-25T10:21:49Z</time>
      </trkpt>
      <trkpt lat="45.3214" lon="2.11978">
        <ele>650</ele>
        <time>2012-03-25T10:21:50Z</time>
      </trkpt>
      <trkpt lat="45.32136" lon="2.11974">
        <ele>650</ele>
        <time>2012-03-25T10:21:52Z</time>
      </trkpt>
      <trkpt lat="45.32137" lon="2.11969">
        <ele>651</ele>
        <time>2012-03-25T10:21:53Z</time>
      </trkpt>
      <trkpt lat="45.32136" lon="2.11966">
        <ele>652</ele>
        <time>2012-03-25T10:21:54Z</time>
      </trkpt>
      <trkpt lat="45.32135" lon="2.11964">
        <ele>653</ele>
        <time>2012-03-25T10:21:56Z</time>
      </trkpt>
      <trkpt lat="45.32132" lon="2.1196">
        <ele>655</ele>
        <time>2012-03-25T10:21:57Z</time>
      </trkpt>
      <trkpt lat="45.32132" lon="2.11958">
        <ele>655</ele>
        <time>2012-03-25T10:21:58Z</time>
      </trkpt>
      <trkpt lat="45.32131" lon="2.11957">
        <ele>655</ele>
        <time>2012-03-25T10:22:00Z</time>
      </trkpt>
      <trkpt lat="45.32131" lon="2.11949">
        <ele>656</ele>
        <time>2012-03-25T10:22:01Z</time>
      </trkpt>
      <trkpt lat="45.32131" lon="2.11944">
        <ele>655</ele>
        <time>2012-03-25T10:22:02Z</time>
      </trkpt>
      <trkpt lat="45.32129" lon="2.11941">
        <ele>655</ele>
        <time>2012-03-25T10:22:04Z</time>
      </trkpt>
      <trkpt lat="45.32127" lon="2.11932">
        <ele>656</ele>
        <time>2012-03-25T10:22:05Z</time>
      </trkpt>
      <trkpt lat="45.32125" lon="2.11927">
        <ele>657</ele>
        <time>2012-03-25T10:22:06Z</time>
      </trkpt>
      <trkpt lat="45.32125" lon="2.11927">
        <ele>657</ele>
        <time>2012-03-25T10:22:08Z</time>
      </trkpt>
      <trkpt lat="45.32122" lon="2.11913">
        <ele>659</ele>
        <time>2012-03-25T10:22:09Z</time>
      </trkpt>
      <trkpt lat="45.32122" lon="2.11908">
        <ele>658</ele>
        <time>2012-03-25T10:22:10Z</time>
      </trkpt>
      <trkpt lat="45.3212" lon="2.11904">
        <ele>658</ele>
        <time>2012-03-25T10:22:12Z</time>
      </trkpt>
      <trkpt lat="45.3212" lon="2.11896">
        <ele>657</ele>
        <time>2012-03-25T10:22:13Z</time>
      </trkpt>
      <trkpt lat="45.3212" lon="2.11891">
        <ele>656</ele>
        <time>2012-03-25T10:22:14Z</time>
      </trkpt>
      <trkpt lat="45.32119" lon="2.11886">
        <ele>655</ele>
        <time>2012-03-25T10:22:15Z</time>
      </trkpt>
      <trkpt lat="45.32118" lon="2.11881">
        <ele>655</ele>
        <time>2012-03-25T10:22:16Z</time>
      </trkpt>
      <trkpt lat="45.32117" lon="2.11877">
        <ele>654</ele>
        <time>2012-03-25T10:22:17Z</time>
      </trkpt>
      <trkpt lat="45.32117" lon="2.11874">
        <ele>654</ele>
        <time>2012-03-25T10:22:18Z</time>
      </trkpt>
      <trkpt lat="45.32115" lon="2.11872">
        <ele>654</ele>
        <time>2012-03-25T10:22:19Z</time>
      </trkpt>
      <trkpt lat="45.32114" lon="2.11869">
        <ele>655</ele>
        <time>2012-03-25T10:22:20Z</time>
      </trkpt>
      <trkpt lat="45.32113" lon="2.11866">
        <ele>656</ele>
        <time>2012-03-25T10:22:21Z</time>
      </trkpt>
      <trkpt lat="45.32111" lon="2.11862">
        <ele>657</ele>
        <time>2012-03-25T10:22:22Z</time>
      </trkpt>
      <trkpt lat="45.32109" lon="2.11858">
        <ele>658</ele>
        <time>2012-03-25T10:22:23Z</time>
      </trkpt>
      <trkpt lat="45.32107" lon="2.11854">
        <ele>658</ele>
        <time>2012-03-25T10:22:24Z</time>
      </trkpt>
      <trkpt lat="45.32105" lon="2.11851">
        <ele>659</ele>
        <time>2012-03-25T10:22:25Z</time>
      </trkpt>
      <trkpt lat="45.32102" lon="2.11847">
        <ele>660</ele>
        <time>2012-03-25T10:22:26Z</time>
      </trkpt>
      <trkpt lat="45.32101" lon="2.11844">
        <ele>661</ele>
        <time>2012-03-25T10:22:27Z</time>
      </trkpt>
      <trkpt lat="45.321" lon="2.11841">
        <ele>661</ele>
        <time>2012-03-25T10:22:28Z</time>
      </trkpt>
      <trkpt lat="45.32099" lon="2.11836">
        <ele>661</ele>
        <time>2012-03-25T10:22:29Z</time>
      </trkpt>
      <trkpt lat="45.32098" lon="2.11832">
        <ele>661</ele>
        <time>2012-03-25T10:22:30Z</time>
      </trkpt>
      <trkpt lat="45.32096" lon="2.11828">
        <ele>659</ele>
        <time>2012-03-25T10:22:31Z</time>
      </trkpt>
      <trkpt lat="45.32095" lon="2.11825">
        <ele>659</ele>
        <time>2012-03-25T10:22:32Z</time>
      </trkpt>
      <trkpt lat="45.32088" lon="2.11825">
        <ele>659</ele>
        <time>2012-03-25T10:22:33Z</time>
      </trkpt>
      <trkpt lat="45.32082" lon="2.11824">
        <ele>659</ele>
        <time>2012-03-25T10:22:34Z</time>
      </trkpt>
      <trkpt lat="45.3208" lon="2.11823">
        <ele>660</ele>
        <time>2012-03-25T10:22:35Z</time>
      </trkpt>
      <trkpt lat="45.32078" lon="2.11822">
        <ele>661</ele>
        <time>2012-03-25T10:22:37Z</time>
      </trkpt>
      <trkpt lat="45.32076" lon="2.11819">
        <ele>661</ele>
        <time>2012-03-25T10:22:38Z</time>
      </trkpt>
      <trkpt lat="45.32073" lon="2.11817">
        <ele>661</ele>
        <time>2012-03-25T10:22:39Z</time>
      </trkpt>
      <trkpt lat="45.32067" lon="2.1181">
        <ele>662</ele>
        <time>2012-03-25T10:22:40Z</time>
      </trkpt>
      <trkpt lat="45.32064" lon="2.11808">
        <ele>663</ele>
        <time>2012-03-25T10:22:41Z</time>
      </trkpt>
      <trkpt lat="45.32059" lon="2.11806">
        <ele>663</ele>
        <time>2012-03-25T10:22:42Z</time>
      </trkpt>
      <trkpt lat="45.32057" lon="2.11804">
        <ele>664</ele>
        <time>2012-03-25T10:22:43Z</time>
      </trkpt>
      <trkpt lat="45.32052" lon="2.11802">
        <ele>663</ele>
        <time>2012-03-25T10:22:44Z</time>
      </trkpt>
      <trkpt lat="45.3205" lon="2.11798">
        <ele>663</ele>
        <time>2012-03-25T10:22:45Z</time>
      </trkpt>
      <trkpt lat="45.32047" lon="2.11794">
        <ele>662</ele>
        <time>2012-03-25T10:22:46Z</time>
      </trkpt>
      <trkpt lat="45.32043" lon="2.11792">
        <ele>662</ele>
        <time>2012-03-25T10:22:47Z</time>
      </trkpt>
      <trkpt lat="45.32042" lon="2.11787">
        <ele>661</ele>
        <time>2012-03-25T10:22:48Z</time>
      </trkpt>
      <trkpt lat="45.32039" lon="2.11785">
        <ele>662</ele>
        <time>2012-03-25T10:22:49Z</time>
      </trkpt>
      <trkpt lat="45.32036" lon="2.11784">
        <ele>661</ele>
        <time>2012-03-25T10:22:50Z</time>
      </trkpt>
      <trkpt lat="45.32033" lon="2.11784">
        <ele>661</ele>
        <time>2012-03-25T10:22:52Z</time>
      </trkpt>
      <trkpt lat="45.32026" lon="2.11778">
        <ele>660</ele>
        <time>2012-03-25T10:22:53Z</time>
      </trkpt>
      <trkpt lat="45.32024" lon="2.11773">
        <ele>659</ele>
        <time>2012-03-25T10:22:54Z</time>
      </trkpt>
      <trkpt lat="45.32021" lon="2.1177">
        <ele>658</ele>
        <time>2012-03-25T10:22:55Z</time>
      </trkpt>
      <trkpt lat="45.32018" lon="2.11767">
        <ele>658</ele>
        <time>2012-03-25T10:22:56Z</time>
      </trkpt>
      <trkpt lat="45.32015" lon="2.11765">
        <ele>658</ele>
        <time>2012-03-25T10:22:57Z</time>
      </trkpt>
      <trkpt lat="45.3201" lon="2.11764">
        <ele>658</ele>
        <time>2012-03-25T10:22:58Z</time>
      </trkpt>
      <trkpt lat="45.32005" lon="2.11764">
        <ele>658</ele>
        <time>2012-03-25T10:22:59Z</time>
      </trkpt>
      <trkpt lat="45.32002" lon="2.11762">
        <ele>658</ele>
        <time>2012-03-25T10:23:00Z</time>
      </trkpt>
      <trkpt lat="45.31999" lon="2.11759">
        <ele>657</ele>
        <time>2012-03-25T10:23:02Z</time>
      </trkpt>
      <trkpt lat="45.31992" lon="2.1175">
        <ele>656</ele>
        <time>2012-03-25T10:23:03Z</time>
      </trkpt>
      <trkpt lat="45.31987" lon="2.11746">
        <ele>656</ele>
        <time>2012-03-25T10:23:04Z</time>
      </trkpt>
      <trkpt lat="45.31984" lon="2.11744">
        <ele>656</ele>
        <time>2012-03-25T10:23:06Z</time>
      </trkpt>
      <trkpt lat="45.31979" lon="2.11742">
        <ele>658</ele>
        <time>2012-03-25T10:23:07Z</time>
      </trkpt>
      <trkpt lat="45.31978" lon="2.11741">
        <ele>659</ele>
        <time>2012-03-25T10:23:08Z</time>
      </trkpt>
      <trkpt lat="45.31975" lon="2.11739">
        <ele>659</ele>
        <time>2012-03-25T10:23:10Z</time>
      </trkpt>
      <trkpt lat="45.3197" lon="2.11731">
        <ele>660</ele>
        <time>2012-03-25T10:23:11Z</time>
      </trkpt>
      <trkpt lat="45.31968" lon="2.11727">
        <ele>659</ele>
        <time>2012-03-25T10:23:12Z</time>
      </trkpt>
      <trkpt lat="45.31964" lon="2.11726">
        <ele>659</ele>
        <time>2012-03-25T10:23:14Z</time>
      </trkpt>
      <trkpt lat="45.31959" lon="2.11725">
        <ele>659</ele>
        <time>2012-03-25T10:23:15Z</time>
      </trkpt>
      <trkpt lat="45.31955" lon="2.11725">
        <ele>660</ele>
        <time>2012-03-25T10:23:16Z</time>
      </trkpt>
      <trkpt lat="45.31949" lon="2.11723">
        <ele>660</ele>
        <time>2012-03-25T10:23:18Z</time>
      </trkpt>
      <trkpt lat="45.31944" lon="2.11719">
        <ele>660</ele>
        <time>2012-03-25T10:23:19Z</time>
      </trkpt>
      <trkpt lat="45.31939" lon="2.11715">
        <ele>660</ele>
        <time>2012-03-25T10:23:20Z</time>
      </trkpt>
      <trkpt lat="45.31933" lon="2.1171">
        <ele>659</ele>
        <time>2012-03-25T10:23:22Z</time>
      </trkpt>
      <trkpt lat="45.3192" lon="2.117">
        <ele>658</ele>
        <time>2012-03-25T10:23:23Z</time>
      </trkpt>
      <trkpt lat="45.31914" lon="2.11694">
        <ele>657</ele>
        <time>2012-03-25T10:23:24Z</time>
      </trkpt>
      <trkpt lat="45.31907" lon="2.1169">
        <ele>656</ele>
        <time>2012-03-25T10:23:26Z</time>
      </trkpt>
      <trkpt lat="45.31893" lon="2.11683">
        <ele>655</ele>
        <time>2012-03-25T10:23:27Z</time>
      </trkpt>
      <trkpt lat="45.31886" lon="2.11679">
        <ele>654</ele>
        <time>2012-03-25T10:23:28Z</time>
      </trkpt>
      <trkpt lat="45.31878" lon="2.11675">
        <ele>655</ele>
        <time>2012-03-25T10:23:30Z</time>
      </trkpt>
      <trkpt lat="45.31861" lon="2.11664">
        <ele>654</ele>
        <time>2012-03-25T10:23:31Z</time>
      </trkpt>
      <trkpt lat="45.31853" lon="2.11658">
        <ele>653</ele>
        <time>2012-03-25T10:23:32Z</time>
      </trkpt>
      <trkpt lat="45.31846" lon="2.11649">
        <ele>654</ele>
        <time>2012-03-25T10:23:34Z</time>
      </trkpt>
      <trkpt lat="45.3183" lon="2.11635">
        <ele>653</ele>
        <time>2012-03-25T10:23:35Z</time>
      </trkpt>
      <trkpt lat="45.31823" lon="2.11627">
        <ele>654</ele>
        <time>2012-03-25T10:23:36Z</time>
      </trkpt>
      <trkpt lat="45.31817" lon="2.11619">
        <ele>654</ele>
        <time>2012-03-25T10:23:38Z</time>
      </trkpt>
      <trkpt lat="45.31806" lon="2.116">
        <ele>654</ele>
        <time>2012-03-25T10:23:39Z</time>
      </trkpt>
      <trkpt lat="45.31801" lon="2.1159">
        <ele>653</ele>
        <time>2012-03-25T10:23:40Z</time>
      </trkpt>
      <trkpt lat="45.31797" lon="2.11579">
        <ele>653</ele>
        <time>2012-03-25T10:23:42Z</time>
      </trkpt>
      <trkpt lat="45.31787" lon="2.11558">
        <ele>654</ele>
        <time>2012-03-25T10:23:43Z</time>
      </trkpt>
      <trkpt lat="45.31782" lon="2.11549">
        <ele>653</ele>
        <time>2012-03-25T10:23:44Z</time>
      </trkpt>
      <trkpt lat="45.31775" lon="2.11539">
        <ele>652</ele>
        <time>2012-03-25T10:23:46Z</time>
      </trkpt>
      <trkpt lat="45.31757" lon="2.11526">
        <ele>650</ele>
        <time>2012-03-25T10:23:47Z</time>
      </trkpt>
      <trkpt lat="45.31747" lon="2.11522">
        <ele>650</ele>
        <time>2012-03-25T10:23:48Z</time>
      </trkpt>
      <trkpt lat="45.31738" lon="2.11519">
        <ele>650</ele>
        <time>2012-03-25T10:23:50Z</time>
      </trkpt>
      <trkpt lat="45.31721" lon="2.11508">
        <ele>650</ele>
        <time>2012-03-25T10:23:51Z</time>
      </trkpt>
      <trkpt lat="45.31715" lon="2.11499">
        <ele>650</ele>
        <time>2012-03-25T10:23:52Z</time>
      </trkpt>
      <trkpt lat="45.3171" lon="2.11486">
        <ele>650</ele>
        <time>2012-03-25T10:23:54Z</time>
      </trkpt>
      <trkpt lat="45.31706" lon="2.11463">
        <ele>650</ele>
        <time>2012-03-25T10:23:55Z</time>
      </trkpt>
      <trkpt lat="45.31705" lon="2.11448">
        <ele>649</ele>
        <time>2012-03-25T10:23:56Z</time>
      </trkpt>
      <trkpt lat="45.31706" lon="2.11432">
        <ele>649</ele>
        <time>2012-03-25T10:23:58Z</time>
      </trkpt>
      <trkpt lat="45.31702" lon="2.11399">
        <ele>647</ele>
        <time>2012-03-25T10:23:59Z</time>
      </trkpt>
      <trkpt lat="45.31698" lon="2.11385">
        <ele>646</ele>
        <time>2012-03-25T10:24:00Z</time>
      </trkpt>
      <trkpt lat="45.31694" lon="2.11372">
        <ele>647</ele>
        <time>2012-03-25T10:24:02Z</time>
      </trkpt>
      <trkpt lat="45.31687" lon="2.11361">
        <ele>647</ele>
        <time>2012-03-25T10:24:03Z</time>
      </trkpt>
      <trkpt lat="45.3168" lon="2.11353">
        <ele>646</ele>
        <time>2012-03-25T10:24:04Z</time>
      </trkpt>
      <trkpt lat="45.31673" lon="2.11344">
        <ele>647</ele>
        <time>2012-03-25T10:24:06Z</time>
      </trkpt>
      <trkpt lat="45.31667" lon="2.11336">
        <ele>647</ele>
        <time>2012-03-25T10:24:07Z</time>
      </trkpt>
      <trkpt lat="45.31655" lon="2.11321">
        <ele>647</ele>
        <time>2012-03-25T10:24:08Z</time>
      </trkpt>
      <trkpt lat="45.31649" lon="2.11313">
        <ele>646</ele>
        <time>2012-03-25T10:24:10Z</time>
      </trkpt>
      <trkpt lat="45.31643" lon="2.11307">
        <ele>646</ele>
        <time>2012-03-25T10:24:11Z</time>
      </trkpt>
      <trkpt lat="45.31632" lon="2.113">
        <ele>646</ele>
        <time>2012-03-25T10:24:12Z</time>
      </trkpt>
      <trkpt lat="45.31628" lon="2.11296">
        <ele>646</ele>
        <time>2012-03-25T10:24:14Z</time>
      </trkpt>
      <trkpt lat="45.31624" lon="2.11296">
        <ele>646</ele>
        <time>2012-03-25T10:24:15Z</time>
      </trkpt>
      <trkpt lat="45.31616" lon="2.11291">
        <ele>646</ele>
        <time>2012-03-25T10:24:16Z</time>
      </trkpt>
      <trkpt lat="45.31614" lon="2.11288">
        <ele>646</ele>
        <time>2012-03-25T10:24:18Z</time>
      </trkpt>
      <trkpt lat="45.3161" lon="2.11288">
        <ele>646</ele>
        <time>2012-03-25T10:24:19Z</time>
      </trkpt>
      <trkpt lat="45.31599" lon="2.11286">
        <ele>647</ele>
        <time>2012-03-25T10:24:20Z</time>
      </trkpt>
      <trkpt lat="45.31595" lon="2.11284">
        <ele>647</ele>
        <time>2012-03-25T10:24:22Z</time>
      </trkpt>
      <trkpt lat="45.31589" lon="2.1128">
        <ele>649</ele>
        <time>2012-03-25T10:24:23Z</time>
      </trkpt>
      <trkpt lat="45.31586" lon="2.11278">
        <ele>650</ele>
        <time>2012-03-25T10:24:24Z</time>
      </trkpt>
      <trkpt lat="45.31583" lon="2.11276">
        <ele>651</ele>
        <time>2012-03-25T10:24:26Z</time>
      </trkpt>
      <trkpt lat="45.31575" lon="2.11274">
        <ele>651</ele>
        <time>2012-03-25T10:24:27Z</time>
      </trkpt>
      <trkpt lat="45.31572" lon="2.11272">
        <ele>651</ele>
        <time>2012-03-25T10:24:28Z</time>
      </trkpt>
      <trkpt lat="45.3157" lon="2.1127">
        <ele>651</ele>
        <time>2012-03-25T10:24:30Z</time>
      </trkpt>
      <trkpt lat="45.31565" lon="2.11263">
        <ele>650</ele>
        <time>2012-03-25T10:24:31Z</time>
      </trkpt>
      <trkpt lat="45.31563" lon="2.1126">
        <ele>649</ele>
        <time>2012-03-25T10:24:32Z</time>
      </trkpt>
      <trkpt lat="45.31561" lon="2.11258">
        <ele>649</ele>
        <time>2012-03-25T10:24:34Z</time>
      </trkpt>
      <trkpt lat="45.31557" lon="2.11253">
        <ele>650</ele>
        <time>2012-03-25T10:24:35Z</time>
      </trkpt>
      <trkpt lat="45.31555" lon="2.11249">
        <ele>650</ele>
        <time>2012-03-25T10:24:36Z</time>
      </trkpt>
      <trkpt lat="45.31552" lon="2.11246">
        <ele>652</ele>
        <time>2012-03-25T10:24:38Z</time>
      </trkpt>
      <trkpt lat="45.31548" lon="2.11238">
        <ele>653</ele>
        <time>2012-03-25T10:24:39Z</time>
      </trkpt>
      <trkpt lat="45.31546" lon="2.11234">
        <ele>653</ele>
        <time>2012-03-25T10:24:40Z</time>
      </trkpt>
      <trkpt lat="45.31544" lon="2.11232">
        <ele>653</ele>
        <time>2012-03-25T10:24:42Z</time>
      </trkpt>
      <trkpt lat="45.31541" lon="2.11225">
        <ele>654</ele>
        <time>2012-03-25T10:24:43Z</time>
      </trkpt>
      <trkpt lat="45.3154" lon="2.11222">
        <ele>654</ele>
        <time>2012-03-25T10:24:44Z</time>
      </trkpt>
      <trkpt lat="45.31537" lon="2.11218">
        <ele>654</ele>
        <time>2012-03-25T10:24:46Z</time>
      </trkpt>
      <trkpt lat="45.31539" lon="2.11208">
        <ele>653</ele>
        <time>2012-03-25T10:24:47Z</time>
      </trkpt>
      <trkpt lat="45.31539" lon="2.11203">
        <ele>653</ele>
        <time>2012-03-25T10:24:48Z</time>
      </trkpt>
      <trkpt lat="45.31536" lon="2.11199">
        <ele>653</ele>
        <time>2012-03-25T10:24:50Z</time>
      </trkpt>
      <trkpt lat="45.31536" lon="2.1119">
        <ele>655</ele>
        <time>2012-03-25T10:24:51Z</time>
      </trkpt>
      <trkpt lat="45.31536" lon="2.11185">
        <ele>655</ele>
        <time>2012-03-25T10:24:52Z</time>
      </trkpt>
      <trkpt lat="45.31536" lon="2.11181">
        <ele>655</ele>
        <time>2012-03-25T10:24:54Z</time>
      </trkpt>
      <trkpt lat="45.31536" lon="2.11174">
        <ele>656</ele>
        <time>2012-03-25T10:24:55Z</time>
      </trkpt>
      <trkpt lat="45.31537" lon="2.11169">
        <ele>656</ele>
        <time>2012-03-25T10:24:56Z</time>
      </trkpt>
      <trkpt lat="45.31538" lon="2.11166">
        <ele>656</ele>
        <time>2012-03-25T10:24:58Z</time>
      </trkpt>
      <trkpt lat="45.3154" lon="2.11159">
        <ele>657</ele>
        <time>2012-03-25T10:24:59Z</time>
      </trkpt>
      <trkpt lat="45.3154" lon="2.11154">
        <ele>657</ele>
        <time>2012-03-25T10:25:00Z</time>
      </trkpt>
      <trkpt lat="45.31541" lon="2.11151">
        <ele>657</ele>
        <time>2012-03-25T10:25:02Z</time>
      </trkpt>
      <trkpt lat="45.31543" lon="2.11143">
        <ele>658</ele>
        <time>2012-03-25T10:25:03Z</time>
      </trkpt>
      <trkpt lat="45.31544" lon="2.11135">
        <ele>658</ele>
        <time>2012-03-25T10:25:04Z</time>
      </trkpt>
      <trkpt lat="45.31543" lon="2.11131">
        <ele>659</ele>
        <time>2012-03-25T10:25:06Z</time>
      </trkpt>
      <trkpt lat="45.31545" lon="2.1112">
        <ele>659</ele>
        <time>2012-03-25T10:25:07Z</time>
      </trkpt>
      <trkpt lat="45.31544" lon="2.11116">
        <ele>660</ele>
        <time>2012-03-25T10:25:08Z</time>
      </trkpt>
      <trkpt lat="45.31544" lon="2.1111">
        <ele>660</ele>
        <time>2012-03-25T10:25:10Z</time>
      </trkpt>
      <trkpt lat="45.31546" lon="2.11097">
        <ele>659</ele>
        <time>2012-03-25T10:25:11Z</time>
      </trkpt>
      <trkpt lat="45.31546" lon="2.11092">
        <ele>659</ele>
        <time>2012-03-25T10:25:12Z</time>
      </trkpt>
      <trkpt lat="45.31547" lon="2.11087">
        <ele>657</ele>
        <time>2012-03-25T10:25:14Z</time>
      </trkpt>
      <trkpt lat="45.31546" lon="2.11078">
        <ele>656</ele>
        <time>2012-03-25T10:25:15Z</time>
      </trkpt>
      <trkpt lat="45.31546" lon="2.11071">
        <ele>657</ele>
        <time>2012-03-25T10:25:16Z</time>
      </trkpt>
      <trkpt lat="45.31546" lon="2.11066">
        <ele>659</ele>
        <time>2012-03-25T10:25:18Z</time>
      </trkpt>
      <trkpt lat="45.31548" lon="2.11056">
        <ele>661</ele>
        <time>2012-03-25T10:25:19Z</time>
      </trkpt>
      <trkpt lat="45.31548" lon="2.11051">
        <ele>661</ele>
        <time>2012-03-25T10:25:20Z</time>
      </trkpt>
      <trkpt lat="45.31549" lon="2.11046">
        <ele>662</ele>
        <time>2012-03-25T10:25:22Z</time>
      </trkpt>
      <trkpt lat="45.31549" lon="2.11038">
        <ele>661</ele>
        <time>2012-03-25T10:25:23Z</time>
      </trkpt>
      <trkpt lat="45.31549" lon="2.11037">
        <ele>661</ele>
        <time>2012-03-25T10:25:24Z</time>
      </trkpt>
      <trkpt lat="45.31549" lon="2.11035">
        <ele>662</ele>
        <time>2012-03-25T10:25:26Z</time>
      </trkpt>
      <trkpt lat="45.31549" lon="2.11028">
        <ele>662</ele>
        <time>2012-03-25T10:25:27Z</time>
      </trkpt>
      <trkpt lat="45.31549" lon="2.11023">
        <ele>663</ele>
        <time>2012-03-25T10:25:28Z</time>
      </trkpt>
      <trkpt lat="45.3155" lon="2.11019">
        <ele>664</ele>
        <time>2012-03-25T10:25:30Z</time>
      </trkpt>
      <trkpt lat="45.31552" lon="2.11013">
        <ele>666</ele>
        <time>2012-03-25T10:25:31Z</time>
      </trkpt>
      <trkpt lat="45.31552" lon="2.11009">
        <ele>666</ele>
        <time>2012-03-25T10:25:32Z</time>
      </trkpt>
      <trkpt lat="45.31554" lon="2.11006">
        <ele>666</ele>
        <time>2012-03-25T10:25:34Z</time>
      </trkpt>
      <trkpt lat="45.31556" lon="2.11002">
        <ele>665</ele>
        <time>2012-03-25T10:25:35Z</time>
      </trkpt>
      <trkpt lat="45.31559" lon="2.10999">
        <ele>666</ele>
        <time>2012-03-25T10:25:36Z</time>
      </trkpt>
      <trkpt lat="45.31561" lon="2.10995">
        <ele>667</ele>
        <time>2012-03-25T10:25:38Z</time>
      </trkpt>
      <trkpt lat="45.31564" lon="2.10992">
        <ele>669</ele>
        <time>2012-03-25T10:25:39Z</time>
      </trkpt>
      <trkpt lat="45.31566" lon="2.10989">
        <ele>669</ele>
        <time>2012-03-25T10:25:40Z</time>
      </trkpt>
      <trkpt lat="45.31569" lon="2.10986">
        <ele>669</ele>
        <time>2012-03-25T10:25:42Z</time>
      </trkpt>
      <trkpt lat="45.31573" lon="2.10982">
        <ele>669</ele>
        <time>2012-03-25T10:25:43Z</time>
      </trkpt>
      <trkpt lat="45.31574" lon="2.10979">
        <ele>668</ele>
        <time>2012-03-25T10:25:44Z</time>
      </trkpt>
      <trkpt lat="45.31576" lon="2.10976">
        <ele>667</ele>
        <time>2012-03-25T10:25:46Z</time>
      </trkpt>
      <trkpt lat="45.3158" lon="2.10968">
        <ele>669</ele>
        <time>2012-03-25T10:25:47Z</time>
      </trkpt>
      <trkpt lat="45.3158" lon="2.10962">
        <ele>669</ele>
        <time>2012-03-25T10:25:48Z</time>
      </trkpt>
      <trkpt lat="45.31582" lon="2.10955">
        <ele>669</ele>
        <time>2012-03-25T10:25:50Z</time>
      </trkpt>
      <trkpt lat="45.31583" lon="2.10946">
        <ele>671</ele>
        <time>2012-03-25T10:25:51Z</time>
      </trkpt>
      <trkpt lat="45.31583" lon="2.1094">
        <ele>670</ele>
        <time>2012-03-25T10:25:52Z</time>
      </trkpt>
      <trkpt lat="45.31584" lon="2.10933">
        <ele>670</ele>
        <time>2012-03-25T10:25:54Z</time>
      </trkpt>
      <trkpt lat="45.31585" lon="2.10923">
        <ele>670</ele>
        <time>2012-03-25T10:25:55Z</time>
      </trkpt>
      <trkpt lat="45.31586" lon="2.10917">
        <ele>670</ele>
        <time>2012-03-25T10:25:56Z</time>
      </trkpt>
      <trkpt lat="45.31584" lon="2.10911">
        <ele>670</ele>
        <time>2012-03-25T10:25:58Z</time>
      </trkpt>
      <trkpt lat="45.31582" lon="2.10899">
        <ele>670</ele>
        <time>2012-03-25T10:25:59Z</time>
      </trkpt>
      <trkpt lat="45.31583" lon="2.10896">
        <ele>671</ele>
        <time>2012-03-25T10:26:00Z</time>
      </trkpt>
      <trkpt lat="45.31581" lon="2.10891">
        <ele>671</ele>
        <time>2012-03-25T10:26:02Z</time>
      </trkpt>
      <trkpt lat="45.3158" lon="2.10882">
        <ele>671</ele>
        <time>2012-03-25T10:26:03Z</time>
      </trkpt>
      <trkpt lat="45.31579" lon="2.10875">
        <ele>672</ele>
        <time>2012-03-25T10:26:04Z</time>
      </trkpt>
      <trkpt lat="45.31577" lon="2.10873">
        <ele>673</ele>
        <time>2012-03-25T10:26:06Z</time>
      </trkpt>
      <trkpt lat="45.31573" lon="2.10865">
        <ele>673</ele>
        <time>2012-03-25T10:26:07Z</time>
      </trkpt>
      <trkpt lat="45.31572" lon="2.1086">
        <ele>673</ele>
        <time>2012-03-25T10:26:08Z</time>
      </trkpt>
      <trkpt lat="45.31571" lon="2.10856">
        <ele>673</ele>
        <time>2012-03-25T10:26:10Z</time>
      </trkpt>
      <trkpt lat="45.31566" lon="2.10851">
        <ele>674</ele>
        <time>2012-03-25T10:26:11Z</time>
      </trkpt>
      <trkpt lat="45.31565" lon="2.10844">
        <ele>674</ele>
        <time>2012-03-25T10:26:12Z</time>
      </trkpt>
      <trkpt lat="45.31564" lon="2.10839">
        <ele>674</ele>
        <time>2012-03-25T10:26:14Z</time>
      </trkpt>
      <trkpt lat="45.31565" lon="2.10828">
        <ele>675</ele>
        <time>2012-03-25T10:26:15Z</time>
      </trkpt>
      <trkpt lat="45.31564" lon="2.10823">
        <ele>674</ele>
        <time>2012-03-25T10:26:16Z</time>
      </trkpt>
      <trkpt lat="45.31563" lon="2.10816">
        <ele>673</ele>
        <time>2012-03-25T10:26:18Z</time>
      </trkpt>
      <trkpt lat="45.31559" lon="2.10808">
        <ele>674</ele>
        <time>2012-03-25T10:26:19Z</time>
      </trkpt>
      <trkpt lat="45.31557" lon="2.10802">
        <ele>673</ele>
        <time>2012-03-25T10:26:20Z</time>
      </trkpt>
      <trkpt lat="45.31556" lon="2.10797">
        <ele>673</ele>
        <time>2012-03-25T10:26:22Z</time>
      </trkpt>
      <trkpt lat="45.31552" lon="2.10789">
        <ele>674</ele>
        <time>2012-03-25T10:26:23Z</time>
      </trkpt>
      <trkpt lat="45.31551" lon="2.10784">
        <ele>673</ele>
        <time>2012-03-25T10:26:24Z</time>
      </trkpt>
      <trkpt lat="45.3155" lon="2.10779">
        <ele>673</ele>
        <time>2012-03-25T10:26:26Z</time>
      </trkpt>
      <trkpt lat="45.31549" lon="2.10771">
        <ele>672</ele>
        <time>2012-03-25T10:26:27Z</time>
      </trkpt>
      <trkpt lat="45.31549" lon="2.10766">
        <ele>672</ele>
        <time>2012-03-25T10:26:28Z</time>
      </trkpt>
      <trkpt lat="45.31547" lon="2.10761">
        <ele>671</ele>
        <time>2012-03-25T10:26:30Z</time>
      </trkpt>
      <trkpt lat="45.31545" lon="2.1075">
        <ele>672</ele>
        <time>2012-03-25T10:26:31Z</time>
      </trkpt>
      <trkpt lat="45.31545" lon="2.10743">
        <ele>672</ele>
        <time>2012-03-25T10:26:32Z</time>
      </trkpt>
      <trkpt lat="45.31544" lon="2.10736">
        <ele>672</ele>
        <time>2012-03-25T10:26:34Z</time>
      </trkpt>
      <trkpt lat="45.31544" lon="2.10722">
        <ele>671</ele>
        <time>2012-03-25T10:26:35Z</time>
      </trkpt>
      <trkpt lat="45.31544" lon="2.10713">
        <ele>671</ele>
        <time>2012-03-25T10:26:36Z</time>
      </trkpt>
      <trkpt lat="45.31544" lon="2.10704">
        <ele>671</ele>
        <time>2012-03-25T10:26:38Z</time>
      </trkpt>
      <trkpt lat="45.31545" lon="2.10685">
        <ele>670</ele>
        <time>2012-03-25T10:26:39Z</time>
      </trkpt>
      <trkpt lat="45.31544" lon="2.10676">
        <ele>668</ele>
        <time>2012-03-25T10:26:40Z</time>
      </trkpt>
      <trkpt lat="45.31543" lon="2.10664">
        <ele>666</ele>
        <time>2012-03-25T10:26:42Z</time>
      </trkpt>
      <trkpt lat="45.31542" lon="2.1064">
        <ele>665</ele>
        <time>2012-03-25T10:26:43Z</time>
      </trkpt>
      <trkpt lat="45.31543" lon="2.10629">
        <ele>665</ele>
        <time>2012-03-25T10:26:44Z</time>
      </trkpt>
      <trkpt lat="45.31543" lon="2.10617">
        <ele>664</ele>
        <time>2012-03-25T10:26:46Z</time>
      </trkpt>
      <trkpt lat="45.31544" lon="2.10593">
        <ele>664</ele>
        <time>2012-03-25T10:26:47Z</time>
      </trkpt>
      <trkpt lat="45.31546" lon="2.10581">
        <ele>665</ele>
        <time>2012-03-25T10:26:48Z</time>
      </trkpt>
      <trkpt lat="45.31547" lon="2.10571">
        <ele>665</ele>
        <time>2012-03-25T10:26:50Z</time>
      </trkpt>
      <trkpt lat="45.31544" lon="2.10545">
        <ele>663</ele>
        <time>2012-03-25T10:26:51Z</time>
      </trkpt>
      <trkpt lat="45.31542" lon="2.10534">
        <ele>662</ele>
        <time>2012-03-25T10:26:52Z</time>
      </trkpt>
      <trkpt lat="45.31539" lon="2.10523">
        <ele>662</ele>
        <time>2012-03-25T10:26:54Z</time>
      </trkpt>
      <trkpt lat="45.31532" lon="2.10499">
        <ele>662</ele>
        <time>2012-03-25T10:26:55Z</time>
      </trkpt>
      <trkpt lat="45.31524" lon="2.10489">
        <ele>663</ele>
        <time>2012-03-25T10:26:56Z</time>
      </trkpt>
      <trkpt lat="45.31517" lon="2.10482">
        <ele>662</ele>
        <time>2012-03-25T10:26:58Z</time>
      </trkpt>
      <trkpt lat="45.31503" lon="2.1047">
        <ele>662</ele>
        <time>2012-03-25T10:26:59Z</time>
      </trkpt>
      <trkpt lat="45.31494" lon="2.10469">
        <ele>663</ele>
        <time>2012-03-25T10:27:00Z</time>
      </trkpt>
      <trkpt lat="45.31487" lon="2.10467">
        <ele>663</ele>
        <time>2012-03-25T10:27:02Z</time>
      </trkpt>
      <trkpt lat="45.31474" lon="2.10465">
        <ele>664</ele>
        <time>2012-03-25T10:27:03Z</time>
      </trkpt>
      <trkpt lat="45.31467" lon="2.10465">
        <ele>663</ele>
        <time>2012-03-25T10:27:04Z</time>
      </trkpt>
      <trkpt lat="45.31461" lon="2.10464">
        <ele>663</ele>
        <time>2012-03-25T10:27:05Z</time>
      </trkpt>
      <trkpt lat="45.31455" lon="2.10465">
        <ele>664</ele>
        <time>2012-03-25T10:27:06Z</time>
      </trkpt>
      <trkpt lat="45.31447" lon="2.10467">
        <ele>664</ele>
        <time>2012-03-25T10:27:07Z</time>
      </trkpt>
      <trkpt lat="45.31438" lon="2.10469">
        <ele>664</ele>
        <time>2012-03-25T10:27:08Z</time>
      </trkpt>
      <trkpt lat="45.31432" lon="2.10469">
        <ele>664</ele>
        <time>2012-03-25T10:27:09Z</time>
      </trkpt>
      <trkpt lat="45.31424" lon="2.10474">
        <ele>664</ele>
        <time>2012-03-25T10:27:10Z</time>
      </trkpt>
      <trkpt lat="45.31418" lon="2.10475">
        <ele>665</ele>
        <time>2012-03-25T10:27:11Z</time>
      </trkpt>
      <trkpt lat="45.31411" lon="2.10473">
        <ele>664</ele>
        <time>2012-03-25T10:27:12Z</time>
      </trkpt>
      <trkpt lat="45.31404" lon="2.10474">
        <ele>664</ele>
        <time>2012-03-25T10:27:13Z</time>
      </trkpt>
      <trkpt lat="45.31396" lon="2.10476">
        <ele>664</ele>
        <time>2012-03-25T10:27:14Z</time>
      </trkpt>
      <trkpt lat="45.3139" lon="2.1047">
        <ele>664</ele>
        <time>2012-03-25T10:27:15Z</time>
      </trkpt>
      <trkpt lat="45.31383" lon="2.10468">
        <ele>664</ele>
        <time>2012-03-25T10:27:16Z</time>
      </trkpt>
      <trkpt lat="45.31377" lon="2.10465">
        <ele>665</ele>
        <time>2012-03-25T10:27:17Z</time>
      </trkpt>
      <trkpt lat="45.31371" lon="2.10461">
        <ele>665</ele>
        <time>2012-03-25T10:27:18Z</time>
      </trkpt>
      <trkpt lat="45.31366" lon="2.10455">
        <ele>664</ele>
        <time>2012-03-25T10:27:19Z</time>
      </trkpt>
      <trkpt lat="45.31366" lon="2.1045">
        <ele>664</ele>
        <time>2012-03-25T10:27:20Z</time>
      </trkpt>
      <trkpt lat="45.31364" lon="2.10445">
        <ele>663</ele>
        <time>2012-03-25T10:27:21Z</time>
      </trkpt>
      <trkpt lat="45.31362" lon="2.10439">
        <ele>662</ele>
        <time>2012-03-25T10:27:22Z</time>
      </trkpt>
      <trkpt lat="45.31362" lon="2.10433">
        <ele>660</ele>
        <time>2012-03-25T10:27:23Z</time>
      </trkpt>
      <trkpt lat="45.31362" lon="2.10428">
        <ele>659</ele>
        <time>2012-03-25T10:27:24Z</time>
      </trkpt>
      <trkpt lat="45.31359" lon="2.10422">
        <ele>659</ele>
        <time>2012-03-25T10:27:25Z</time>
      </trkpt>
      <trkpt lat="45.31358" lon="2.10416">
        <ele>659</ele>
        <time>2012-03-25T10:27:27Z</time>
      </trkpt>
      <trkpt lat="45.31358" lon="2.10409">
        <ele>659</ele>
        <time>2012-03-25T10:27:28Z</time>
      </trkpt>
      <trkpt lat="45.31359" lon="2.10402">
        <ele>659</ele>
        <time>2012-03-25T10:27:29Z</time>
      </trkpt>
      <trkpt lat="45.31359" lon="2.10395">
        <ele>659</ele>
        <time>2012-03-25T10:27:30Z</time>
      </trkpt>
      <trkpt lat="45.3136" lon="2.10386">
        <ele>659</ele>
        <time>2012-03-25T10:27:31Z</time>
      </trkpt>
      <trkpt lat="45.31359" lon="2.10379">
        <ele>659</ele>
        <time>2012-03-25T10:27:32Z</time>
      </trkpt>
      <trkpt lat="45.31359" lon="2.10371">
        <ele>659</ele>
        <time>2012-03-25T10:27:33Z</time>
      </trkpt>
      <trkpt lat="45.31358" lon="2.10362">
        <ele>658</ele>
        <time>2012-03-25T10:27:34Z</time>
      </trkpt>
      <trkpt lat="45.31358" lon="2.10355">
        <ele>658</ele>
        <time>2012-03-25T10:27:35Z</time>
      </trkpt>
      <trkpt lat="45.31356" lon="2.10348">
        <ele>658</ele>
        <time>2012-03-25T10:27:36Z</time>
      </trkpt>
      <trkpt lat="45.31355" lon="2.10342">
        <ele>657</ele>
        <time>2012-03-25T10:27:37Z</time>
      </trkpt>
      <trkpt lat="45.31353" lon="2.10337">
        <ele>657</ele>
        <time>2012-03-25T10:27:38Z</time>
      </trkpt>
      <trkpt lat="45.31348" lon="2.10321">
        <ele>657</ele>
        <time>2012-03-25T10:27:40Z</time>
      </trkpt>
      <trkpt lat="45.31344" lon="2.10314">
        <ele>656</ele>
        <time>2012-03-25T10:27:41Z</time>
      </trkpt>
      <trkpt lat="45.31344" lon="2.10314">
        <ele>656</ele>
        <time>2012-03-25T10:27:43Z</time>
      </trkpt>
      <trkpt lat="45.31341" lon="2.10309">
        <ele>657</ele>
        <time>2012-03-25T10:27:44Z</time>
      </trkpt>
      <trkpt lat="45.31337" lon="2.10292">
        <ele>658</ele>
        <time>2012-03-25T10:27:45Z</time>
      </trkpt>
      <trkpt lat="45.31337" lon="2.10288">
        <ele>658</ele>
        <time>2012-03-25T10:27:47Z</time>
      </trkpt>
      <trkpt lat="45.31337" lon="2.10277">
        <ele>658</ele>
        <time>2012-03-25T10:27:48Z</time>
      </trkpt>
      <trkpt lat="45.31337" lon="2.10271">
        <ele>658</ele>
        <time>2012-03-25T10:27:49Z</time>
      </trkpt>
      <trkpt lat="45.31337" lon="2.10265">
        <ele>659</ele>
        <time>2012-03-25T10:27:51Z</time>
      </trkpt>
      <trkpt lat="45.31337" lon="2.10254">
        <ele>659</ele>
        <time>2012-03-25T10:27:52Z</time>
      </trkpt>
      <trkpt lat="45.31337" lon="2.10248">
        <ele>659</ele>
        <time>2012-03-25T10:27:53Z</time>
      </trkpt>
      <trkpt lat="45.31336" lon="2.10243">
        <ele>660</ele>
        <time>2012-03-25T10:27:55Z</time>
      </trkpt>
      <trkpt lat="45.31336" lon="2.10233">
        <ele>659</ele>
        <time>2012-03-25T10:27:56Z</time>
      </trkpt>
      <trkpt lat="45.31335" lon="2.10227">
        <ele>660</ele>
        <time>2012-03-25T10:27:57Z</time>
      </trkpt>
      <trkpt lat="45.31334" lon="2.1022">
        <ele>660</ele>
        <time>2012-03-25T10:27:59Z</time>
      </trkpt>
      <trkpt lat="45.31334" lon="2.10209">
        <ele>659</ele>
        <time>2012-03-25T10:28:00Z</time>
      </trkpt>
      <trkpt lat="45.31334" lon="2.10204">
        <ele>660</ele>
        <time>2012-03-25T10:28:01Z</time>
      </trkpt>
      <trkpt lat="45.31333" lon="2.10197">
        <ele>660</ele>
        <time>2012-03-25T10:28:03Z</time>
      </trkpt>
      <trkpt lat="45.3133" lon="2.10188">
        <ele>661</ele>
        <time>2012-03-25T10:28:04Z</time>
      </trkpt>
      <trkpt lat="45.31329" lon="2.10184">
        <ele>661</ele>
        <time>2012-03-25T10:28:05Z</time>
      </trkpt>
      <trkpt lat="45.31327" lon="2.1018">
        <ele>661</ele>
        <time>2012-03-25T10:28:07Z</time>
      </trkpt>
      <trkpt lat="45.31323" lon="2.10173">
        <ele>661</ele>
        <time>2012-03-25T10:28:08Z</time>
      </trkpt>
      <trkpt lat="45.3132" lon="2.10169">
        <ele>661</ele>
        <time>2012-03-25T10:28:09Z</time>
      </trkpt>
      <trkpt lat="45.31315" lon="2.10165">
        <ele>662</ele>
        <time>2012-03-25T10:28:11Z</time>
      </trkpt>
      <trkpt lat="45.31308" lon="2.10161">
        <ele>662</ele>
        <time>2012-03-25T10:28:12Z</time>
      </trkpt>
      <trkpt lat="45.31304" lon="2.1016">
        <ele>663</ele>
        <time>2012-03-25T10:28:13Z</time>
      </trkpt>
      <trkpt lat="45.31301" lon="2.10158">
        <ele>664</ele>
        <time>2012-03-25T10:28:15Z</time>
      </trkpt>
      <trkpt lat="45.31296" lon="2.10155">
        <ele>664</ele>
        <time>2012-03-25T10:28:16Z</time>
      </trkpt>
      <trkpt lat="45.31291" lon="2.10154">
        <ele>664</ele>
        <time>2012-03-25T10:28:17Z</time>
      </trkpt>
      <trkpt lat="45.31286" lon="2.10153">
        <ele>664</ele>
        <time>2012-03-25T10:28:19Z</time>
      </trkpt>
      <trkpt lat="45.31279" lon="2.1015">
        <ele>665</ele>
        <time>2012-03-25T10:28:20Z</time>
      </trkpt>
      <trkpt lat="45.31277" lon="2.10148">
        <ele>666</ele>
        <time>2012-03-25T10:28:21Z</time>
      </trkpt>
      <trkpt lat="45.31274" lon="2.10147">
        <ele>666</ele>
        <time>2012-03-25T10:28:23Z</time>
      </trkpt>
      <trkpt lat="45.31269" lon="2.10144">
        <ele>666</ele>
        <time>2012-03-25T10:28:24Z</time>
      </trkpt>
      <trkpt lat="45.31268" lon="2.10143">
        <ele>667</ele>
        <time>2012-03-25T10:28:25Z</time>
      </trkpt>
      <trkpt lat="45.31266" lon="2.10141">
        <ele>668</ele>
        <time>2012-03-25T10:28:27Z</time>
      </trkpt>
      <trkpt lat="45.31262" lon="2.1014">
        <ele>668</ele>
        <time>2012-03-25T10:28:28Z</time>
      </trkpt>
      <trkpt lat="45.3126" lon="2.1014">
        <ele>669</ele>
        <time>2012-03-25T10:28:29Z</time>
      </trkpt>
      <trkpt lat="45.31256" lon="2.1014">
        <ele>669</ele>
        <time>2012-03-25T10:28:31Z</time>
      </trkpt>
      <trkpt lat="45.31251" lon="2.1014">
        <ele>671</ele>
        <time>2012-03-25T10:28:32Z</time>
      </trkpt>
      <trkpt lat="45.31248" lon="2.10139">
        <ele>672</ele>
        <time>2012-03-25T10:28:33Z</time>
      </trkpt>
      <trkpt lat="45.31246" lon="2.10138">
        <ele>672</ele>
        <time>2012-03-25T10:28:35Z</time>
      </trkpt>
      <trkpt lat="45.31239" lon="2.10139">
        <ele>674</ele>
        <time>2012-03-25T10:28:36Z</time>
      </trkpt>
      <trkpt lat="45.31237" lon="2.10138">
        <ele>676</ele>
        <time>2012-03-25T10:28:37Z</time>
      </trkpt>
      <trkpt lat="45.31233" lon="2.10137">
        <ele>676</ele>
        <time>2012-03-25T10:28:39Z</time>
      </trkpt>
      <trkpt lat="45.31228" lon="2.10138">
        <ele>679</ele>
        <time>2012-03-25T10:28:40Z</time>
      </trkpt>
      <trkpt lat="45.31224" lon="2.10138">
        <ele>679</ele>
        <time>2012-03-25T10:28:41Z</time>
      </trkpt>
      <trkpt lat="45.31219" lon="2.10139">
        <ele>681</ele>
        <time>2012-03-25T10:28:43Z</time>
      </trkpt>
      <trkpt lat="45.31212" lon="2.1014">
        <ele>682</ele>
        <time>2012-03-25T10:28:44Z</time>
      </trkpt>
      <trkpt lat="45.31208" lon="2.10139">
        <ele>682</ele>
        <time>2012-03-25T10:28:45Z</time>
      </trkpt>
      <trkpt lat="45.31205" lon="2.10137">
        <ele>681</ele>
        <time>2012-03-25T10:28:47Z</time>
      </trkpt>
      <trkpt lat="45.31197" lon="2.10134">
        <ele>680</ele>
        <time>2012-03-25T10:28:48Z</time>
      </trkpt>
      <trkpt lat="45.31194" lon="2.10133">
        <ele>680</ele>
        <time>2012-03-25T10:28:49Z</time>
      </trkpt>
      <trkpt lat="45.31193" lon="2.10132">
        <ele>679</ele>
        <time>2012-03-25T10:28:51Z</time>
      </trkpt>
      <trkpt lat="45.31186" lon="2.10127">
        <ele>679</ele>
        <time>2012-03-25T10:28:52Z</time>
      </trkpt>
      <trkpt lat="45.31184" lon="2.10124">
        <ele>680</ele>
        <time>2012-03-25T10:28:53Z</time>
      </trkpt>
      <trkpt lat="45.31181" lon="2.1012">
        <ele>679</ele>
        <time>2012-03-25T10:28:55Z</time>
      </trkpt>
      <trkpt lat="45.31179" lon="2.10113">
        <ele>680</ele>
        <time>2012-03-25T10:28:56Z</time>
      </trkpt>
      <trkpt lat="45.31176" lon="2.10111">
        <ele>680</ele>
        <time>2012-03-25T10:28:57Z</time>
      </trkpt>
      <trkpt lat="45.31174" lon="2.10108">
        <ele>680</ele>
        <time>2012-03-25T10:28:59Z</time>
      </trkpt>
      <trkpt lat="45.31171" lon="2.10099">
        <ele>681</ele>
        <time>2012-03-25T10:29:00Z</time>
      </trkpt>
      <trkpt lat="45.31172" lon="2.10095">
        <ele>682</ele>
        <time>2012-03-25T10:29:01Z</time>
      </trkpt>
      <trkpt lat="45.31171" lon="2.10092">
        <ele>682</ele>
        <time>2012-03-25T10:29:03Z</time>
      </trkpt>
      <trkpt lat="45.3117" lon="2.1008">
        <ele>683</ele>
        <time>2012-03-25T10:29:04Z</time>
      </trkpt>
      <trkpt lat="45.31169" lon="2.10073">
        <ele>683</ele>
        <time>2012-03-25T10:29:05Z</time>
      </trkpt>
      <trkpt lat="45.31168" lon="2.10068">
        <ele>684</ele>
        <time>2012-03-25T10:29:07Z</time>
      </trkpt>
      <trkpt lat="45.31168" lon="2.10056">
        <ele>685</ele>
        <time>2012-03-25T10:29:08Z</time>
      </trkpt>
      <trkpt lat="45.31167" lon="2.1005">
        <ele>686</ele>
        <time>2012-03-25T10:29:09Z</time>
      </trkpt>
      <trkpt lat="45.31168" lon="2.10043">
        <ele>686</ele>
        <time>2012-03-25T10:29:11Z</time>
      </trkpt>
      <trkpt lat="45.31167" lon="2.10031">
        <ele>686</ele>
        <time>2012-03-25T10:29:12Z</time>
      </trkpt>
      <trkpt lat="45.31166" lon="2.10025">
        <ele>687</ele>
        <time>2012-03-25T10:29:13Z</time>
      </trkpt>
      <trkpt lat="45.31164" lon="2.10019">
        <ele>688</ele>
        <time>2012-03-25T10:29:15Z</time>
      </trkpt>
      <trkpt lat="45.31162" lon="2.10004">
        <ele>689</ele>
        <time>2012-03-25T10:29:16Z</time>
      </trkpt>
      <trkpt lat="45.3116" lon="2.09997">
        <ele>688</ele>
        <time>2012-03-25T10:29:17Z</time>
      </trkpt>
      <trkpt lat="45.31158" lon="2.09988">
        <ele>689</ele>
        <time>2012-03-25T10:29:19Z</time>
      </trkpt>
      <trkpt lat="45.31154" lon="2.09974">
        <ele>687</ele>
        <time>2012-03-25T10:29:20Z</time>
      </trkpt>
      <trkpt lat="45.31152" lon="2.09966">
        <ele>688</ele>
        <time>2012-03-25T10:29:21Z</time>
      </trkpt>
      <trkpt lat="45.3115" lon="2.09961">
        <ele>687</ele>
        <time>2012-03-25T10:29:23Z</time>
      </trkpt>
      <trkpt lat="45.31145" lon="2.09947">
        <ele>686</ele>
        <time>2012-03-25T10:29:24Z</time>
      </trkpt>
      <trkpt lat="45.31144" lon="2.0994">
        <ele>684</ele>
        <time>2012-03-25T10:29:25Z</time>
      </trkpt>
      <trkpt lat="45.31142" lon="2.09933">
        <ele>683</ele>
        <time>2012-03-25T10:29:27Z</time>
      </trkpt>
      <trkpt lat="45.31139" lon="2.0992">
        <ele>683</ele>
        <time>2012-03-25T10:29:28Z</time>
      </trkpt>
      <trkpt lat="45.31137" lon="2.09915">
        <ele>682</ele>
        <time>2012-03-25T10:29:29Z</time>
      </trkpt>
      <trkpt lat="45.31136" lon="2.09908">
        <ele>682</ele>
        <time>2012-03-25T10:29:31Z</time>
      </trkpt>
      <trkpt lat="45.31135" lon="2.09897">
        <ele>681</ele>
        <time>2012-03-25T10:29:32Z</time>
      </trkpt>
      <trkpt lat="45.31134" lon="2.09891">
        <ele>681</ele>
        <time>2012-03-25T10:29:33Z</time>
      </trkpt>
      <trkpt lat="45.31133" lon="2.09885">
        <ele>681</ele>
        <time>2012-03-25T10:29:35Z</time>
      </trkpt>
      <trkpt lat="45.3113" lon="2.09872">
        <ele>681</ele>
        <time>2012-03-25T10:29:36Z</time>
      </trkpt>
      <trkpt lat="45.31129" lon="2.09866">
        <ele>682</ele>
        <time>2012-03-25T10:29:37Z</time>
      </trkpt>
      <trkpt lat="45.31127" lon="2.0986">
        <ele>682</ele>
        <time>2012-03-25T10:29:39Z</time>
      </trkpt>
      <trkpt lat="45.31125" lon="2.0985">
        <ele>682</ele>
        <time>2012-03-25T10:29:40Z</time>
      </trkpt>
      <trkpt lat="45.31122" lon="2.09843">
        <ele>682</ele>
        <time>2012-03-25T10:29:41Z</time>
      </trkpt>
      <trkpt lat="45.3112" lon="2.09838">
        <ele>681</ele>
        <time>2012-03-25T10:29:43Z</time>
      </trkpt>
      <trkpt lat="45.31116" lon="2.09823">
        <ele>681</ele>
        <time>2012-03-25T10:29:44Z</time>
      </trkpt>
      <trkpt lat="45.31113" lon="2.09817">
        <ele>681</ele>
        <time>2012-03-25T10:29:45Z</time>
      </trkpt>
      <trkpt lat="45.31109" lon="2.0981">
        <ele>680</ele>
        <time>2012-03-25T10:29:47Z</time>
      </trkpt>
      <trkpt lat="45.31099" lon="2.09796">
        <ele>681</ele>
        <time>2012-03-25T10:29:48Z</time>
      </trkpt>
      <trkpt lat="45.31094" lon="2.09788">
        <ele>680</ele>
        <time>2012-03-25T10:29:49Z</time>
      </trkpt>
      <trkpt lat="45.31089" lon="2.09781">
        <ele>680</ele>
        <time>2012-03-25T10:29:51Z</time>
      </trkpt>
      <trkpt lat="45.31077" lon="2.09765">
        <ele>678</ele>
        <time>2012-03-25T10:29:52Z</time>
      </trkpt>
      <trkpt lat="45.3107" lon="2.09756">
        <ele>678</ele>
        <time>2012-03-25T10:29:53Z</time>
      </trkpt>
      <trkpt lat="45.31065" lon="2.09748">
        <ele>677</ele>
        <time>2012-03-25T10:29:55Z</time>
      </trkpt>
      <trkpt lat="45.31053" lon="2.09731">
        <ele>677</ele>
        <time>2012-03-25T10:29:56Z</time>
      </trkpt>
      <trkpt lat="45.31047" lon="2.09722">
        <ele>676</ele>
        <time>2012-03-25T10:29:57Z</time>
      </trkpt>
      <trkpt lat="45.31041" lon="2.09712">
        <ele>675</ele>
        <time>2012-03-25T10:29:59Z</time>
      </trkpt>
      <trkpt lat="45.31028" lon="2.09695">
        <ele>674</ele>
        <time>2012-03-25T10:30:00Z</time>
      </trkpt>
      <trkpt lat="45.31022" lon="2.09686">
        <ele>674</ele>
        <time>2012-03-25T10:30:01Z</time>
      </trkpt>
      <trkpt lat="45.31017" lon="2.09677">
        <ele>673</ele>
        <time>2012-03-25T10:30:03Z</time>
      </trkpt>
      <trkpt lat="45.31003" lon="2.09659">
        <ele>672</ele>
        <time>2012-03-25T10:30:04Z</time>
      </trkpt>
      <trkpt lat="45.30999" lon="2.09653">
        <ele>673</ele>
        <time>2012-03-25T10:30:05Z</time>
      </trkpt>
      <trkpt lat="45.30995" lon="2.09645">
        <ele>673</ele>
        <time>2012-03-25T10:30:07Z</time>
      </trkpt>
      <trkpt lat="45.30987" lon="2.09631">
        <ele>673</ele>
        <time>2012-03-25T10:30:08Z</time>
      </trkpt>
      <trkpt lat="45.30983" lon="2.09624">
        <ele>673</ele>
        <time>2012-03-25T10:30:09Z</time>
      </trkpt>
      <trkpt lat="45.30981" lon="2.09617">
        <ele>673</ele>
        <time>2012-03-25T10:30:11Z</time>
      </trkpt>
      <trkpt lat="45.30974" lon="2.09606">
        <ele>674</ele>
        <time>2012-03-25T10:30:12Z</time>
      </trkpt>
      <trkpt lat="45.30972" lon="2.09602">
        <ele>674</ele>
        <time>2012-03-25T10:30:13Z</time>
      </trkpt>
      <trkpt lat="45.30968" lon="2.09597">
        <ele>675</ele>
        <time>2012-03-25T10:30:15Z</time>
      </trkpt>
      <trkpt lat="45.30961" lon="2.09588">
        <ele>675</ele>
        <time>2012-03-25T10:30:16Z</time>
      </trkpt>
      <trkpt lat="45.30958" lon="2.09582">
        <ele>676</ele>
        <time>2012-03-25T10:30:17Z</time>
      </trkpt>
      <trkpt lat="45.30955" lon="2.09579">
        <ele>676</ele>
        <time>2012-03-25T10:30:19Z</time>
      </trkpt>
      <trkpt lat="45.3095" lon="2.0957">
        <ele>676</ele>
        <time>2012-03-25T10:30:20Z</time>
      </trkpt>
      <trkpt lat="45.30947" lon="2.09564">
        <ele>676</ele>
        <time>2012-03-25T10:30:21Z</time>
      </trkpt>
      <trkpt lat="45.30945" lon="2.0956">
        <ele>676</ele>
        <time>2012-03-25T10:30:23Z</time>
      </trkpt>
      <trkpt lat="45.3094" lon="2.09548">
        <ele>676</ele>
        <time>2012-03-25T10:30:24Z</time>
      </trkpt>
      <trkpt lat="45.30937" lon="2.09542">
        <ele>676</ele>
        <time>2012-03-25T10:30:25Z</time>
      </trkpt>
      <trkpt lat="45.30933" lon="2.09537">
        <ele>676</ele>
        <time>2012-03-25T10:30:27Z</time>
      </trkpt>
      <trkpt lat="45.30926" lon="2.09527">
        <ele>676</ele>
        <time>2012-03-25T10:30:28Z</time>
      </trkpt>
      <trkpt lat="45.30922" lon="2.09521">
        <ele>677</ele>
        <time>2012-03-25T10:30:29Z</time>
      </trkpt>
      <trkpt lat="45.30917" lon="2.09514">
        <ele>677</ele>
        <time>2012-03-25T10:30:31Z</time>
      </trkpt>
      <trkpt lat="45.30911" lon="2.095">
        <ele>678</ele>
        <time>2012-03-25T10:30:32Z</time>
      </trkpt>
      <trkpt lat="45.3091" lon="2.09493">
        <ele>678</ele>
        <time>2012-03-25T10:30:33Z</time>
      </trkpt>
      <trkpt lat="45.30907" lon="2.09488">
        <ele>678</ele>
        <time>2012-03-25T10:30:35Z</time>
      </trkpt>
      <trkpt lat="45.30899" lon="2.09478">
        <ele>679</ele>
        <time>2012-03-25T10:30:36Z</time>
      </trkpt>
      <trkpt lat="45.30895" lon="2.09475">
        <ele>680</ele>
        <time>2012-03-25T10:30:37Z</time>
      </trkpt>
      <trkpt lat="45.30893" lon="2.0947">
        <ele>680</ele>
        <time>2012-03-25T10:30:39Z</time>
      </trkpt>
      <trkpt lat="45.30886" lon="2.09462">
        <ele>681</ele>
        <time>2012-03-25T10:30:40Z</time>
      </trkpt>
      <trkpt lat="45.30885" lon="2.09458">
        <ele>681</ele>
        <time>2012-03-25T10:30:41Z</time>
      </trkpt>
      <trkpt lat="45.30883" lon="2.09453">
        <ele>682</ele>
        <time>2012-03-25T10:30:43Z</time>
      </trkpt>
      <trkpt lat="45.30878" lon="2.09445">
        <ele>683</ele>
        <time>2012-03-25T10:30:44Z</time>
      </trkpt>
      <trkpt lat="45.30874" lon="2.09441">
        <ele>685</ele>
        <time>2012-03-25T10:30:45Z</time>
      </trkpt>
      <trkpt lat="45.30871" lon="2.09437">
        <ele>685</ele>
        <time>2012-03-25T10:30:47Z</time>
      </trkpt>
      <trkpt lat="45.30866" lon="2.09429">
        <ele>686</ele>
        <time>2012-03-25T10:30:48Z</time>
      </trkpt>
      <trkpt lat="45.30864" lon="2.09426">
        <ele>685</ele>
        <time>2012-03-25T10:30:49Z</time>
      </trkpt>
      <trkpt lat="45.30862" lon="2.0942">
        <ele>685</ele>
        <time>2012-03-25T10:30:51Z</time>
      </trkpt>
      <trkpt lat="45.30857" lon="2.09415">
        <ele>686</ele>
        <time>2012-03-25T10:30:52Z</time>
      </trkpt>
      <trkpt lat="45.30855" lon="2.09412">
        <ele>686</ele>
        <time>2012-03-25T10:30:53Z</time>
      </trkpt>
      <trkpt lat="45.30854" lon="2.0941">
        <ele>685</ele>
        <time>2012-03-25T10:30:55Z</time>
      </trkpt>
      <trkpt lat="45.30851" lon="2.09403">
        <ele>688</ele>
        <time>2012-03-25T10:30:56Z</time>
      </trkpt>
      <trkpt lat="45.3085" lon="2.094">
        <ele>688</ele>
        <time>2012-03-25T10:30:57Z</time>
      </trkpt>
      <trkpt lat="45.30849" lon="2.09395">
        <ele>688</ele>
        <time>2012-03-25T10:30:59Z</time>
      </trkpt>
      <trkpt lat="45.30847" lon="2.09387">
        <ele>688</ele>
        <time>2012-03-25T10:31:00Z</time>
      </trkpt>
      <trkpt lat="45.30847" lon="2.09382">
        <ele>688</ele>
        <time>2012-03-25T10:31:01Z</time>
      </trkpt>
      <trkpt lat="45.30845" lon="2.09379">
        <ele>689</ele>
        <time>2012-03-25T10:31:03Z</time>
      </trkpt>
      <trkpt lat="45.30841" lon="2.09373">
        <ele>688</ele>
        <time>2012-03-25T10:31:04Z</time>
      </trkpt>
      <trkpt lat="45.3084" lon="2.0937">
        <ele>688</ele>
        <time>2012-03-25T10:31:05Z</time>
      </trkpt>
      <trkpt lat="45.30839" lon="2.09367">
        <ele>688</ele>
        <time>2012-03-25T10:31:07Z</time>
      </trkpt>
      <trkpt lat="45.30836" lon="2.09357">
        <ele>688</ele>
        <time>2012-03-25T10:31:08Z</time>
      </trkpt>
      <trkpt lat="45.30834" lon="2.09353">
        <ele>689</ele>
        <time>2012-03-25T10:31:09Z</time>
      </trkpt>
      <trkpt lat="45.30833" lon="2.0935">
        <ele>689</ele>
        <time>2012-03-25T10:31:11Z</time>
      </trkpt>
      <trkpt lat="45.30829" lon="2.09344">
        <ele>689</ele>
        <time>2012-03-25T10:31:12Z</time>
      </trkpt>
      <trkpt lat="45.30827" lon="2.0934">
        <ele>689</ele>
        <time>2012-03-25T10:31:13Z</time>
      </trkpt>
      <trkpt lat="45.30825" lon="2.09335">
        <ele>690</ele>
        <time>2012-03-25T10:31:15Z</time>
      </trkpt>
      <trkpt lat="45.3082" lon="2.09328">
        <ele>690</ele>
        <time>2012-03-25T10:31:16Z</time>
      </trkpt>
      <trkpt lat="45.30816" lon="2.09326">
        <ele>689</ele>
        <time>2012-03-25T10:31:17Z</time>
      </trkpt>
      <trkpt lat="45.30815" lon="2.09324">
        <ele>689</ele>
        <time>2012-03-25T10:31:19Z</time>
      </trkpt>
      <trkpt lat="45.30808" lon="2.09316">
        <ele>690</ele>
        <time>2012-03-25T10:31:20Z</time>
      </trkpt>
      <trkpt lat="45.30805" lon="2.09312">
        <ele>690</ele>
        <time>2012-03-25T10:31:21Z</time>
      </trkpt>
      <trkpt lat="45.30803" lon="2.09309">
        <ele>691</ele>
        <time>2012-03-25T10:31:23Z</time>
      </trkpt>
      <trkpt lat="45.30797" lon="2.09305">
        <ele>691</ele>
        <time>2012-03-25T10:31:24Z</time>
      </trkpt>
      <trkpt lat="45.30794" lon="2.09301">
        <ele>690</ele>
        <time>2012-03-25T10:31:25Z</time>
      </trkpt>
      <trkpt lat="45.30793" lon="2.09295">
        <ele>690</ele>
        <time>2012-03-25T10:31:27Z</time>
      </trkpt>
      <trkpt lat="45.30786" lon="2.09287">
        <ele>691</ele>
        <time>2012-03-25T10:31:28Z</time>
      </trkpt>
      <trkpt lat="45.30782" lon="2.09285">
        <ele>693</ele>
        <time>2012-03-25T10:31:29Z</time>
      </trkpt>
      <trkpt lat="45.30778" lon="2.09283">
        <ele>693</ele>
        <time>2012-03-25T10:31:31Z</time>
      </trkpt>
      <trkpt lat="45.30772" lon="2.09279">
        <ele>695</ele>
        <time>2012-03-25T10:31:32Z</time>
      </trkpt>
      <trkpt lat="45.30768" lon="2.09278">
        <ele>694</ele>
        <time>2012-03-25T10:31:33Z</time>
      </trkpt>
      <trkpt lat="45.30766" lon="2.09276">
        <ele>695</ele>
        <time>2012-03-25T10:31:35Z</time>
      </trkpt>
      <trkpt lat="45.30759" lon="2.09271">
        <ele>695</ele>
        <time>2012-03-25T10:31:36Z</time>
      </trkpt>
      <trkpt lat="45.30755" lon="2.09269">
        <ele>696</ele>
        <time>2012-03-25T10:31:37Z</time>
      </trkpt>
      <trkpt lat="45.30753" lon="2.09268">
        <ele>696</ele>
        <time>2012-03-25T10:31:39Z</time>
      </trkpt>
      <trkpt lat="45.30748" lon="2.09264">
        <ele>697</ele>
        <time>2012-03-25T10:31:40Z</time>
      </trkpt>
      <trkpt lat="45.30746" lon="2.09263">
        <ele>698</ele>
        <time>2012-03-25T10:31:41Z</time>
      </trkpt>
      <trkpt lat="45.30742" lon="2.09263">
        <ele>698</ele>
        <time>2012-03-25T10:31:43Z</time>
      </trkpt>
      <trkpt lat="45.30738" lon="2.09254">
        <ele>698</ele>
        <time>2012-03-25T10:31:44Z</time>
      </trkpt>
      <trkpt lat="45.30735" lon="2.09252">
        <ele>697</ele>
        <time>2012-03-25T10:31:45Z</time>
      </trkpt>
      <trkpt lat="45.30732" lon="2.09248">
        <ele>696</ele>
        <time>2012-03-25T10:31:47Z</time>
      </trkpt>
      <trkpt lat="45.30728" lon="2.09239">
        <ele>696</ele>
        <time>2012-03-25T10:31:48Z</time>
      </trkpt>
      <trkpt lat="45.30726" lon="2.09238">
        <ele>695</ele>
        <time>2012-03-25T10:31:49Z</time>
      </trkpt>
      <trkpt lat="45.30725" lon="2.09233">
        <ele>695</ele>
        <time>2012-03-25T10:31:51Z</time>
      </trkpt>
      <trkpt lat="45.30722" lon="2.09225">
        <ele>695</ele>
        <time>2012-03-25T10:31:52Z</time>
      </trkpt>
      <trkpt lat="45.30722" lon="2.09221">
        <ele>695</ele>
        <time>2012-03-25T10:31:53Z</time>
      </trkpt>
      <trkpt lat="45.30722" lon="2.09217">
        <ele>695</ele>
        <time>2012-03-25T10:31:54Z</time>
      </trkpt>
      <trkpt lat="45.3072" lon="2.09212">
        <ele>696</ele>
        <time>2012-03-25T10:31:55Z</time>
      </trkpt>
      <trkpt lat="45.3072" lon="2.09208">
        <ele>696</ele>
        <time>2012-03-25T10:31:56Z</time>
      </trkpt>
      <trkpt lat="45.3072" lon="2.09204">
        <ele>697</ele>
        <time>2012-03-25T10:31:57Z</time>
      </trkpt>
      <trkpt lat="45.30719" lon="2.09199">
        <ele>697</ele>
        <time>2012-03-25T10:31:58Z</time>
      </trkpt>
      <trkpt lat="45.30719" lon="2.09194">
        <ele>697</ele>
        <time>2012-03-25T10:31:59Z</time>
      </trkpt>
      <trkpt lat="45.30718" lon="2.0919">
        <ele>698</ele>
        <time>2012-03-25T10:32:00Z</time>
      </trkpt>
      <trkpt lat="45.30717" lon="2.09184">
        <ele>698</ele>
        <time>2012-03-25T10:32:01Z</time>
      </trkpt>
      <trkpt lat="45.30716" lon="2.0918">
        <ele>699</ele>
        <time>2012-03-25T10:32:02Z</time>
      </trkpt>
      <trkpt lat="45.30715" lon="2.09176">
        <ele>699</ele>
        <time>2012-03-25T10:32:03Z</time>
      </trkpt>
      <trkpt lat="45.30714" lon="2.09173">
        <ele>701</ele>
        <time>2012-03-25T10:32:04Z</time>
      </trkpt>
      <trkpt lat="45.30713" lon="2.09168">
        <ele>701</ele>
        <time>2012-03-25T10:32:05Z</time>
      </trkpt>
      <trkpt lat="45.30712" lon="2.09163">
        <ele>700</ele>
        <time>2012-03-25T10:32:06Z</time>
      </trkpt>
      <trkpt lat="45.30711" lon="2.09158">
        <ele>699</ele>
        <time>2012-03-25T10:32:07Z</time>
      </trkpt>
      <trkpt lat="45.3071" lon="2.09153">
        <ele>700</ele>
        <time>2012-03-25T10:32:08Z</time>
      </trkpt>
      <trkpt lat="45.30708" lon="2.0915">
        <ele>699</ele>
        <time>2012-03-25T10:32:09Z</time>
      </trkpt>
      <trkpt lat="45.30707" lon="2.09147">
        <ele>700</ele>
        <time>2012-03-25T10:32:10Z</time>
      </trkpt>
      <trkpt lat="45.30705" lon="2.09144">
        <ele>699</ele>
        <time>2012-03-25T10:32:11Z</time>
      </trkpt>
      <trkpt lat="45.30704" lon="2.09141">
        <ele>699</ele>
        <time>2012-03-25T10:32:12Z</time>
      </trkpt>
      <trkpt lat="45.30702" lon="2.09137">
        <ele>699</ele>
        <time>2012-03-25T10:32:13Z</time>
      </trkpt>
      <trkpt lat="45.30699" lon="2.09135">
        <ele>699</ele>
        <time>2012-03-25T10:32:14Z</time>
      </trkpt>
      <trkpt lat="45.30696" lon="2.09131">
        <ele>698</ele>
        <time>2012-03-25T10:32:16Z</time>
      </trkpt>
      <trkpt lat="45.30693" lon="2.09129">
        <ele>697</ele>
        <time>2012-03-25T10:32:17Z</time>
      </trkpt>
      <trkpt lat="45.30691" lon="2.09128">
        <ele>697</ele>
        <time>2012-03-25T10:32:18Z</time>
      </trkpt>
      <trkpt lat="45.30685" lon="2.09118">
        <ele>698</ele>
        <time>2012-03-25T10:32:20Z</time>
      </trkpt>
      <trkpt lat="45.30682" lon="2.09115">
        <ele>697</ele>
        <time>2012-03-25T10:32:21Z</time>
      </trkpt>
      <trkpt lat="45.30681" lon="2.09112">
        <ele>697</ele>
        <time>2012-03-25T10:32:22Z</time>
      </trkpt>
      <trkpt lat="45.30679" lon="2.09112">
        <ele>697</ele>
        <time>2012-03-25T10:32:23Z</time>
      </trkpt>
      <trkpt lat="45.30673" lon="2.09109">
        <ele>696</ele>
        <time>2012-03-25T10:32:24Z</time>
      </trkpt>
      <trkpt lat="45.3067" lon="2.09108">
        <ele>696</ele>
        <time>2012-03-25T10:32:26Z</time>
      </trkpt>
      <trkpt lat="45.30664" lon="2.09107">
        <ele>695</ele>
        <time>2012-03-25T10:32:27Z</time>
      </trkpt>
      <trkpt lat="45.30661" lon="2.09109">
        <ele>695</ele>
        <time>2012-03-25T10:32:28Z</time>
      </trkpt>
      <trkpt lat="45.30661" lon="2.09109">
        <ele>695</ele>
        <time>2012-03-25T10:32:30Z</time>
      </trkpt>
      <trkpt lat="45.30657" lon="2.09116">
        <ele>695</ele>
        <time>2012-03-25T10:32:31Z</time>
      </trkpt>
      <trkpt lat="45.30656" lon="2.09118">
        <ele>695</ele>
        <time>2012-03-25T10:32:32Z</time>
      </trkpt>
      <trkpt lat="45.30656" lon="2.09118">
        <ele>695</ele>
        <time>2012-03-25T10:32:34Z</time>
      </trkpt>
      <trkpt lat="45.30659" lon="2.0912">
        <ele>695</ele>
        <time>2012-03-25T10:32:35Z</time>
      </trkpt>
      <trkpt lat="45.3066" lon="2.09121">
        <ele>695</ele>
        <time>2012-03-25T10:32:36Z</time>
      </trkpt>
      <trkpt lat="45.30659" lon="2.09121">
        <ele>695</ele>
        <time>2012-03-25T10:32:38Z</time>
      </trkpt>
      <trkpt lat="45.3066" lon="2.0912">
        <ele>694</ele>
        <time>2012-03-25T10:32:39Z</time>
      </trkpt>
      <trkpt lat="45.30659" lon="2.09119">
        <ele>695</ele>
        <time>2012-03-25T10:32:40Z</time>
      </trkpt>
      <trkpt lat="45.3066" lon="2.09119">
        <ele>695</ele>
        <time>2012-03-25T10:32:42Z</time>
      </trkpt>
      <trkpt lat="45.30661" lon="2.09124">
        <ele>692</ele>
        <time>2012-03-25T10:32:43Z</time>
      </trkpt>
      <trkpt lat="45.30662" lon="2.09125">
        <ele>692</ele>
        <time>2012-03-25T10:32:44Z</time>
      </trkpt>
      <trkpt lat="45.30661" lon="2.09125">
        <ele>692</ele>
        <time>2012-03-25T10:32:46Z</time>
      </trkpt>
      <trkpt lat="45.30662" lon="2.09125">
        <ele>691</ele>
        <time>2012-03-25T10:32:47Z</time>
      </trkpt>
      <trkpt lat="45.30662" lon="2.09125">
        <ele>691</ele>
        <time>2012-03-25T10:32:48Z</time>
      </trkpt>
      <trkpt lat="45.30663" lon="2.09124">
        <ele>691</ele>
        <time>2012-03-25T10:32:50Z</time>
      </trkpt>
      <trkpt lat="45.30663" lon="2.09124">
        <ele>691</ele>
        <time>2012-03-25T10:32:51Z</time>
      </trkpt>
      <trkpt lat="45.30663" lon="2.09124">
        <ele>691</ele>
        <time>2012-03-25T10:33:26Z</time>
      </trkpt>
      <trkpt lat="45.30663" lon="2.09124">
        <ele>691</ele>
        <time>2012-03-25T10:33:27Z</time>
      </trkpt>
      <trkpt lat="45.30663" lon="2.09124">
        <ele>691</ele>
        <time>2012-03-25T10:33:28Z</time>
      </trkpt>
      <trkpt lat="45.30663" lon="2.09124">
        <ele>691</ele>
        <time>2012-03-25T10:33:38Z</time>
      </trkpt>
      <trkpt lat="45.30663" lon="2.09124">
        <ele>691</ele>
        <time>2012-03-25T10:33:39Z</time>
      </trkpt>
      <trkpt lat="45.30663" lon="2.09124">
        <ele>691</ele>
        <time>2012-03-25T10:33:47Z</time>
      </trkpt>
      <trkpt lat="45.30663" lon="2.09124">
        <ele>691</ele>
        <time>2012-03-25T10:33:48Z</time>
      </trkpt>
      <trkpt lat="45.30663" lon="2.09124">
        <ele>691</ele>
        <time>2012-03-25T10:34:06Z</time>
      </trkpt>
      <trkpt lat="45.30664" lon="2.09127">
        <ele>691</ele>
        <time>2012-03-25T10:34:07Z</time>
      </trkpt>
      <trkpt lat="45.30663" lon="2.09125">
        <ele>691</ele>
        <time>2012-03-25T10:34:08Z</time>
      </trkpt>
      <trkpt lat="45.30661" lon="2.09123">
        <ele>690</ele>
        <time>2012-03-25T10:34:10Z</time>
      </trkpt>
      <trkpt lat="45.30661" lon="2.09119">
        <ele>689</ele>
        <time>2012-03-25T10:34:11Z</time>
      </trkpt>
      <trkpt lat="45.30661" lon="2.09118">
        <ele>689</ele>
        <time>2012-03-25T10:34:12Z</time>
      </trkpt>
      <trkpt lat="45.30661" lon="2.09118">
        <ele>689</ele>
        <time>2012-03-25T10:34:14Z</time>
      </trkpt>
      <trkpt lat="45.30663" lon="2.0912">
        <ele>690</ele>
        <time>2012-03-25T10:34:15Z</time>
      </trkpt>
      <trkpt lat="45.30664" lon="2.09118">
        <ele>692</ele>
        <time>2012-03-25T10:34:16Z</time>
      </trkpt>
      <trkpt lat="45.30665" lon="2.09117">
        <ele>693</ele>
        <time>2012-03-25T10:34:18Z</time>
      </trkpt>
      <trkpt lat="45.30665" lon="2.09113">
        <ele>694</ele>
        <time>2012-03-25T10:34:19Z</time>
      </trkpt>
      <trkpt lat="45.30666" lon="2.0911">
        <ele>696</ele>
        <time>2012-03-25T10:34:20Z</time>
      </trkpt>
      <trkpt lat="45.30665" lon="2.09107">
        <ele>696</ele>
        <time>2012-03-25T10:34:22Z</time>
      </trkpt>
      <trkpt lat="45.30663" lon="2.09098">
        <ele>698</ele>
        <time>2012-03-25T10:34:23Z</time>
      </trkpt>
      <trkpt lat="45.30663" lon="2.09095">
        <ele>699</ele>
        <time>2012-03-25T10:34:24Z</time>
      </trkpt>
      <trkpt lat="45.30661" lon="2.09092">
        <ele>700</ele>
        <time>2012-03-25T10:34:26Z</time>
      </trkpt>
      <trkpt lat="45.30658" lon="2.09086">
        <ele>700</ele>
        <time>2012-03-25T10:34:27Z</time>
      </trkpt>
      <trkpt lat="45.30655" lon="2.0908">
        <ele>700</ele>
        <time>2012-03-25T10:34:28Z</time>
      </trkpt>
      <trkpt lat="45.30652" lon="2.09078">
        <ele>700</ele>
        <time>2012-03-25T10:34:30Z</time>
      </trkpt>
      <trkpt lat="45.30644" lon="2.09074">
        <ele>700</ele>
        <time>2012-03-25T10:34:31Z</time>
      </trkpt>
      <trkpt lat="45.30641" lon="2.09068">
        <ele>700</ele>
        <time>2012-03-25T10:34:32Z</time>
      </trkpt>
      <trkpt lat="45.30638" lon="2.09063">
        <ele>701</ele>
        <time>2012-03-25T10:34:34Z</time>
      </trkpt>
      <trkpt lat="45.30631" lon="2.09057">
        <ele>700</ele>
        <time>2012-03-25T10:34:35Z</time>
      </trkpt>
      <trkpt lat="45.30627" lon="2.09053">
        <ele>700</ele>
        <time>2012-03-25T10:34:36Z</time>
      </trkpt>
      <trkpt lat="45.30623" lon="2.09049">
        <ele>700</ele>
        <time>2012-03-25T10:34:38Z</time>
      </trkpt>
      <trkpt lat="45.30616" lon="2.09039">
        <ele>700</ele>
        <time>2012-03-25T10:34:39Z</time>
      </trkpt>
      <trkpt lat="45.30613" lon="2.09034">
        <ele>701</ele>
        <time>2012-03-25T10:34:40Z</time>
      </trkpt>
      <trkpt lat="45.3061" lon="2.09028">
        <ele>702</ele>
        <time>2012-03-25T10:34:42Z</time>
      </trkpt>
      <trkpt lat="45.30604" lon="2.09015">
        <ele>703</ele>
        <time>2012-03-25T10:34:43Z</time>
      </trkpt>
      <trkpt lat="45.30601" lon="2.09009">
        <ele>702</ele>
        <time>2012-03-25T10:34:44Z</time>
      </trkpt>
      <trkpt lat="45.30599" lon="2.09001">
        <ele>701</ele>
        <time>2012-03-25T10:34:46Z</time>
      </trkpt>
      <trkpt lat="45.30591" lon="2.08983">
        <ele>701</ele>
        <time>2012-03-25T10:34:47Z</time>
      </trkpt>
      <trkpt lat="45.30588" lon="2.08975">
        <ele>702</ele>
        <time>2012-03-25T10:34:48Z</time>
      </trkpt>
      <trkpt lat="45.30586" lon="2.08965">
        <ele>701</ele>
        <time>2012-03-25T10:34:50Z</time>
      </trkpt>
      <trkpt lat="45.30579" lon="2.08945">
        <ele>700</ele>
        <time>2012-03-25T10:34:51Z</time>
      </trkpt>
      <trkpt lat="45.30577" lon="2.08936">
        <ele>700</ele>
        <time>2012-03-25T10:34:52Z</time>
      </trkpt>
      <trkpt lat="45.30574" lon="2.08928">
        <ele>700</ele>
        <time>2012-03-25T10:34:54Z</time>
      </trkpt>
      <trkpt lat="45.30569" lon="2.08903">
        <ele>699</ele>
        <time>2012-03-25T10:34:55Z</time>
      </trkpt>
      <trkpt lat="45.30564" lon="2.08889">
        <ele>699</ele>
        <time>2012-03-25T10:34:56Z</time>
      </trkpt>
      <trkpt lat="45.3056" lon="2.08879">
        <ele>699</ele>
        <time>2012-03-25T10:34:58Z</time>
      </trkpt>
      <trkpt lat="45.3055" lon="2.08856">
        <ele>699</ele>
        <time>2012-03-25T10:34:59Z</time>
      </trkpt>
      <trkpt lat="45.30542" lon="2.08843">
        <ele>698</ele>
        <time>2012-03-25T10:35:00Z</time>
      </trkpt>
      <trkpt lat="45.30536" lon="2.08829">
        <ele>699</ele>
        <time>2012-03-25T10:35:02Z</time>
      </trkpt>
      <trkpt lat="45.30523" lon="2.08808">
        <ele>697</ele>
        <time>2012-03-25T10:35:03Z</time>
      </trkpt>
      <trkpt lat="45.30517" lon="2.08799">
        <ele>698</ele>
        <time>2012-03-25T10:35:04Z</time>
      </trkpt>
      <trkpt lat="45.30513" lon="2.08788">
        <ele>698</ele>
        <time>2012-03-25T10:35:06Z</time>
      </trkpt>
      <trkpt lat="45.3051" lon="2.08771">
        <ele>698</ele>
        <time>2012-03-25T10:35:07Z</time>
      </trkpt>
      <trkpt lat="45.30512" lon="2.0876">
        <ele>698</ele>
        <time>2012-03-25T10:35:08Z</time>
      </trkpt>
      <trkpt lat="45.30513" lon="2.08745">
        <ele>698</ele>
        <time>2012-03-25T10:35:10Z</time>
      </trkpt>
      <trkpt lat="45.30517" lon="2.0871">
        <ele>698</ele>
        <time>2012-03-25T10:35:11Z</time>
      </trkpt>
      <trkpt lat="45.30518" lon="2.08691">
        <ele>698</ele>
        <time>2012-03-25T10:35:12Z</time>
      </trkpt>
      <trkpt lat="45.30517" lon="2.08673">
        <ele>697</ele>
        <time>2012-03-25T10:35:14Z</time>
      </trkpt>
      <trkpt lat="45.3051" lon="2.08637">
        <ele>697</ele>
        <time>2012-03-25T10:35:15Z</time>
      </trkpt>
      <trkpt lat="45.30504" lon="2.08623">
        <ele>696</ele>
        <time>2012-03-25T10:35:16Z</time>
      </trkpt>
      <trkpt lat="45.30499" lon="2.08609">
        <ele>695</ele>
        <time>2012-03-25T10:35:18Z</time>
      </trkpt>
      <trkpt lat="45.30484" lon="2.08588">
        <ele>695</ele>
        <time>2012-03-25T10:35:19Z</time>
      </trkpt>
      <trkpt lat="45.30477" lon="2.08579">
        <ele>695</ele>
        <time>2012-03-25T10:35:20Z</time>
      </trkpt>
      <trkpt lat="45.3047" lon="2.08569">
        <ele>695</ele>
        <time>2012-03-25T10:35:22Z</time>
      </trkpt>
      <trkpt lat="45.30462" lon="2.08548">
        <ele>694</ele>
        <time>2012-03-25T10:35:23Z</time>
      </trkpt>
      <trkpt lat="45.30464" lon="2.08538">
        <ele>695</ele>
        <time>2012-03-25T10:35:24Z</time>
      </trkpt>
      <trkpt lat="45.30465" lon="2.08528">
        <ele>695</ele>
        <time>2012-03-25T10:35:26Z</time>
      </trkpt>
      <trkpt lat="45.30468" lon="2.08518">
        <ele>696</ele>
        <time>2012-03-25T10:35:27Z</time>
      </trkpt>
      <trkpt lat="45.30469" lon="2.08509">
        <ele>696</ele>
        <time>2012-03-25T10:35:28Z</time>
      </trkpt>
      <trkpt lat="45.30471" lon="2.08502">
        <ele>696</ele>
        <time>2012-03-25T10:35:30Z</time>
      </trkpt>
      <trkpt lat="45.30475" lon="2.08485">
        <ele>696</ele>
        <time>2012-03-25T10:35:31Z</time>
      </trkpt>
      <trkpt lat="45.30477" lon="2.08477">
        <ele>697</ele>
        <time>2012-03-25T10:35:32Z</time>
      </trkpt>
      <trkpt lat="45.30482" lon="2.0846">
        <ele>697</ele>
        <time>2012-03-25T10:35:34Z</time>
      </trkpt>
      <trkpt lat="45.30494" lon="2.08417">
        <ele>696</ele>
        <time>2012-03-25T10:35:35Z</time>
      </trkpt>
      <trkpt lat="45.30497" lon="2.08396">
        <ele>695</ele>
        <time>2012-03-25T10:35:36Z</time>
      </trkpt>
      <trkpt lat="45.30498" lon="2.08378">
        <ele>694</ele>
        <time>2012-03-25T10:35:38Z</time>
      </trkpt>
      <trkpt lat="45.30501" lon="2.08341">
        <ele>693</ele>
        <time>2012-03-25T10:35:39Z</time>
      </trkpt>
      <trkpt lat="45.30499" lon="2.08324">
        <ele>692</ele>
        <time>2012-03-25T10:35:40Z</time>
      </trkpt>
      <trkpt lat="45.30498" lon="2.08309">
        <ele>691</ele>
        <time>2012-03-25T10:35:42Z</time>
      </trkpt>
      <trkpt lat="45.30494" lon="2.08278">
        <ele>690</ele>
        <time>2012-03-25T10:35:43Z</time>
      </trkpt>
      <trkpt lat="45.3049" lon="2.08261">
        <ele>689</ele>
        <time>2012-03-25T10:35:44Z</time>
      </trkpt>
      <trkpt lat="45.30486" lon="2.08246">
        <ele>689</ele>
        <time>2012-03-25T10:35:46Z</time>
      </trkpt>
      <trkpt lat="45.30477" lon="2.08213">
        <ele>687</ele>
        <time>2012-03-25T10:35:47Z</time>
      </trkpt>
      <trkpt lat="45.3047" lon="2.08198">
        <ele>687</ele>
        <time>2012-03-25T10:35:48Z</time>
      </trkpt>
      <trkpt lat="45.30464" lon="2.08185">
        <ele>686</ele>
        <time>2012-03-25T10:35:50Z</time>
      </trkpt>
      <trkpt lat="45.30448" lon="2.08161">
        <ele>685</ele>
        <time>2012-03-25T10:35:51Z</time>
      </trkpt>
      <trkpt lat="45.30439" lon="2.08149">
        <ele>685</ele>
        <time>2012-03-25T10:35:52Z</time>
      </trkpt>
      <trkpt lat="45.3043" lon="2.08141">
        <ele>685</ele>
        <time>2012-03-25T10:35:54Z</time>
      </trkpt>
      <trkpt lat="45.30414" lon="2.08117">
        <ele>686</ele>
        <time>2012-03-25T10:35:55Z</time>
      </trkpt>
      <trkpt lat="45.30403" lon="2.08111">
        <ele>686</ele>
        <time>2012-03-25T10:35:56Z</time>
      </trkpt>
      <trkpt lat="45.30393" lon="2.08098">
        <ele>685</ele>
        <time>2012-03-25T10:35:58Z</time>
      </trkpt>
      <trkpt lat="45.30375" lon="2.08076">
        <ele>685</ele>
        <time>2012-03-25T10:35:59Z</time>
      </trkpt>
      <trkpt lat="45.30365" lon="2.08066">
        <ele>685</ele>
        <time>2012-03-25T10:36:00Z</time>
      </trkpt>
      <trkpt lat="45.30358" lon="2.08055">
        <ele>684</ele>
        <time>2012-03-25T10:36:02Z</time>
      </trkpt>
      <trkpt lat="45.30345" lon="2.08029">
        <ele>681</ele>
        <time>2012-03-25T10:36:03Z</time>
      </trkpt>
      <trkpt lat="45.30339" lon="2.08017">
        <ele>679</ele>
        <time>2012-03-25T10:36:04Z</time>
      </trkpt>
      <trkpt lat="45.30334" lon="2.08004">
        <ele>677</ele>
        <time>2012-03-25T10:36:06Z</time>
      </trkpt>
      <trkpt lat="45.30322" lon="2.07975">
        <ele>674</ele>
        <time>2012-03-25T10:36:07Z</time>
      </trkpt>
      <trkpt lat="45.30317" lon="2.07961">
        <ele>673</ele>
        <time>2012-03-25T10:36:08Z</time>
      </trkpt>
      <trkpt lat="45.30311" lon="2.07946">
        <ele>672</ele>
        <time>2012-03-25T10:36:10Z</time>
      </trkpt>
      <trkpt lat="45.303" lon="2.07914">
        <ele>670</ele>
        <time>2012-03-25T10:36:11Z</time>
      </trkpt>
      <trkpt lat="45.30293" lon="2.07899">
        <ele>668</ele>
        <time>2012-03-25T10:36:12Z</time>
      </trkpt>
      <trkpt lat="45.30288" lon="2.07884">
        <ele>668</ele>
        <time>2012-03-25T10:36:14Z</time>
      </trkpt>
      <trkpt lat="45.30276" lon="2.07854">
        <ele>666</ele>
        <time>2012-03-25T10:36:15Z</time>
      </trkpt>
      <trkpt lat="45.30271" lon="2.07839">
        <ele>666</ele>
        <time>2012-03-25T10:36:16Z</time>
      </trkpt>
      <trkpt lat="45.30267" lon="2.07825">
        <ele>666</ele>
        <time>2012-03-25T10:36:18Z</time>
      </trkpt>
      <trkpt lat="45.30255" lon="2.07795">
        <ele>665</ele>
        <time>2012-03-25T10:36:19Z</time>
      </trkpt>
      <trkpt lat="45.30248" lon="2.07778">
        <ele>664</ele>
        <time>2012-03-25T10:36:20Z</time>
      </trkpt>
      <trkpt lat="45.30242" lon="2.07764">
        <ele>663</ele>
        <time>2012-03-25T10:36:22Z</time>
      </trkpt>
      <trkpt lat="45.3023" lon="2.07739">
        <ele>663</ele>
        <time>2012-03-25T10:36:23Z</time>
      </trkpt>
      <trkpt lat="45.30223" lon="2.07727">
        <ele>663</ele>
        <time>2012-03-25T10:36:24Z</time>
      </trkpt>
      <trkpt lat="45.30216" lon="2.07717">
        <ele>662</ele>
        <time>2012-03-25T10:36:26Z</time>
      </trkpt>
      <trkpt lat="45.30199" lon="2.077">
        <ele>662</ele>
        <time>2012-03-25T10:36:27Z</time>
      </trkpt>
      <trkpt lat="45.30192" lon="2.07692">
        <ele>662</ele>
        <time>2012-03-25T10:36:28Z</time>
      </trkpt>
      <trkpt lat="45.30184" lon="2.07682">
        <ele>662</ele>
        <time>2012-03-25T10:36:30Z</time>
      </trkpt>
      <trkpt lat="45.30171" lon="2.07661">
        <ele>661</ele>
        <time>2012-03-25T10:36:31Z</time>
      </trkpt>
      <trkpt lat="45.30164" lon="2.07651">
        <ele>661</ele>
        <time>2012-03-25T10:36:32Z</time>
      </trkpt>
      <trkpt lat="45.30156" lon="2.07643">
        <ele>660</ele>
        <time>2012-03-25T10:36:34Z</time>
      </trkpt>
      <trkpt lat="45.30139" lon="2.07629">
        <ele>659</ele>
        <time>2012-03-25T10:36:35Z</time>
      </trkpt>
      <trkpt lat="45.3013" lon="2.07623">
        <ele>659</ele>
        <time>2012-03-25T10:36:36Z</time>
      </trkpt>
      <trkpt lat="45.30122" lon="2.07616">
        <ele>658</ele>
        <time>2012-03-25T10:36:38Z</time>
      </trkpt>
      <trkpt lat="45.30104" lon="2.07613">
        <ele>656</ele>
        <time>2012-03-25T10:36:39Z</time>
      </trkpt>
      <trkpt lat="45.30096" lon="2.07613">
        <ele>656</ele>
        <time>2012-03-25T10:36:40Z</time>
      </trkpt>
      <trkpt lat="45.30087" lon="2.07616">
        <ele>656</ele>
        <time>2012-03-25T10:36:42Z</time>
      </trkpt>
      <trkpt lat="45.3007" lon="2.07622">
        <ele>657</ele>
        <time>2012-03-25T10:36:43Z</time>
      </trkpt>
      <trkpt lat="45.30062" lon="2.07626">
        <ele>657</ele>
        <time>2012-03-25T10:36:44Z</time>
      </trkpt>
      <trkpt lat="45.30054" lon="2.07629">
        <ele>657</ele>
        <time>2012-03-25T10:36:45Z</time>
      </trkpt>
      <trkpt lat="45.30045" lon="2.07635">
        <ele>657</ele>
        <time>2012-03-25T10:36:46Z</time>
      </trkpt>
      <trkpt lat="45.30036" lon="2.07643">
        <ele>657</ele>
        <time>2012-03-25T10:36:47Z</time>
      </trkpt>
      <trkpt lat="45.3003" lon="2.07649">
        <ele>657</ele>
        <time>2012-03-25T10:36:48Z</time>
      </trkpt>
      <trkpt lat="45.30022" lon="2.07652">
        <ele>657</ele>
        <time>2012-03-25T10:36:49Z</time>
      </trkpt>
      <trkpt lat="45.30016" lon="2.07653">
        <ele>657</ele>
        <time>2012-03-25T10:36:50Z</time>
      </trkpt>
      <trkpt lat="45.3001" lon="2.07654">
        <ele>657</ele>
        <time>2012-03-25T10:36:51Z</time>
      </trkpt>
      <trkpt lat="45.30003" lon="2.07653">
        <ele>657</ele>
        <time>2012-03-25T10:36:52Z</time>
      </trkpt>
      <trkpt lat="45.29998" lon="2.07651">
        <ele>657</ele>
        <time>2012-03-25T10:36:53Z</time>
      </trkpt>
      <trkpt lat="45.29992" lon="2.07646">
        <ele>658</ele>
        <time>2012-03-25T10:36:55Z</time>
      </trkpt>
      <trkpt lat="45.29982" lon="2.07636">
        <ele>658</ele>
        <time>2012-03-25T10:36:56Z</time>
      </trkpt>
      <trkpt lat="45.29978" lon="2.07631">
        <ele>658</ele>
        <time>2012-03-25T10:36:57Z</time>
      </trkpt>
      <trkpt lat="45.29974" lon="2.07625">
        <ele>658</ele>
        <time>2012-03-25T10:36:58Z</time>
      </trkpt>
      <trkpt lat="45.2997" lon="2.07619">
        <ele>657</ele>
        <time>2012-03-25T10:36:59Z</time>
      </trkpt>
      <trkpt lat="45.29966" lon="2.07613">
        <ele>657</ele>
        <time>2012-03-25T10:37:00Z</time>
      </trkpt>
      <trkpt lat="45.29958" lon="2.07609">
        <ele>657</ele>
        <time>2012-03-25T10:37:01Z</time>
      </trkpt>
      <trkpt lat="45.29953" lon="2.07602">
        <ele>658</ele>
        <time>2012-03-25T10:37:02Z</time>
      </trkpt>
      <trkpt lat="45.29947" lon="2.07596">
        <ele>658</ele>
        <time>2012-03-25T10:37:03Z</time>
      </trkpt>
      <trkpt lat="45.29944" lon="2.07591">
        <ele>657</ele>
        <time>2012-03-25T10:37:04Z</time>
      </trkpt>
      <trkpt lat="45.29939" lon="2.0758">
        <ele>658</ele>
        <time>2012-03-25T10:37:05Z</time>
      </trkpt>
      <trkpt lat="45.29936" lon="2.07575">
        <ele>658</ele>
        <time>2012-03-25T10:37:06Z</time>
      </trkpt>
      <trkpt lat="45.29931" lon="2.07567">
        <ele>658</ele>
        <time>2012-03-25T10:37:07Z</time>
      </trkpt>
      <trkpt lat="45.29928" lon="2.07559">
        <ele>659</ele>
        <time>2012-03-25T10:37:08Z</time>
      </trkpt>
      <trkpt lat="45.29924" lon="2.0755">
        <ele>658</ele>
        <time>2012-03-25T10:37:09Z</time>
      </trkpt>
      <trkpt lat="45.2992" lon="2.0754">
        <ele>658</ele>
        <time>2012-03-25T10:37:10Z</time>
      </trkpt>
      <trkpt lat="45.29915" lon="2.07531">
        <ele>658</ele>
        <time>2012-03-25T10:37:11Z</time>
      </trkpt>
      <trkpt lat="45.29912" lon="2.07521">
        <ele>657</ele>
        <time>2012-03-25T10:37:12Z</time>
      </trkpt>
      <trkpt lat="45.29909" lon="2.0751">
        <ele>657</ele>
        <time>2012-03-25T10:37:13Z</time>
      </trkpt>
      <trkpt lat="45.29906" lon="2.075">
        <ele>656</ele>
        <time>2012-03-25T10:37:14Z</time>
      </trkpt>
      <trkpt lat="45.29904" lon="2.07489">
        <ele>656</ele>
        <time>2012-03-25T10:37:15Z</time>
      </trkpt>
      <trkpt lat="45.29904" lon="2.07489">
        <ele>656</ele>
        <time>2012-03-25T10:37:17Z</time>
      </trkpt>
      <trkpt lat="45.29906" lon="2.07454">
        <ele>655</ele>
        <time>2012-03-25T10:37:18Z</time>
      </trkpt>
      <trkpt lat="45.29906" lon="2.07444">
        <ele>653</ele>
        <time>2012-03-25T10:37:19Z</time>
      </trkpt>
      <trkpt lat="45.29906" lon="2.07431">
        <ele>652</ele>
        <time>2012-03-25T10:37:21Z</time>
      </trkpt>
      <trkpt lat="45.29902" lon="2.07409">
        <ele>651</ele>
        <time>2012-03-25T10:37:22Z</time>
      </trkpt>
      <trkpt lat="45.29902" lon="2.07398">
        <ele>651</ele>
        <time>2012-03-25T10:37:23Z</time>
      </trkpt>
      <trkpt lat="45.299" lon="2.07387">
        <ele>651</ele>
        <time>2012-03-25T10:37:25Z</time>
      </trkpt>
      <trkpt lat="45.29894" lon="2.07366">
        <ele>651</ele>
        <time>2012-03-25T10:37:26Z</time>
      </trkpt>
      <trkpt lat="45.2989" lon="2.07357">
        <ele>651</ele>
        <time>2012-03-25T10:37:27Z</time>
      </trkpt>
      <trkpt lat="45.29886" lon="2.0735">
        <ele>651</ele>
        <time>2012-03-25T10:37:29Z</time>
      </trkpt>
      <trkpt lat="45.29877" lon="2.07335">
        <ele>651</ele>
        <time>2012-03-25T10:37:30Z</time>
      </trkpt>
      <trkpt lat="45.29873" lon="2.07328">
        <ele>652</ele>
        <time>2012-03-25T10:37:31Z</time>
      </trkpt>
      <trkpt lat="45.29869" lon="2.07321">
        <ele>652</ele>
        <time>2012-03-25T10:37:33Z</time>
      </trkpt>
      <trkpt lat="45.29861" lon="2.07312">
        <ele>653</ele>
        <time>2012-03-25T10:37:34Z</time>
      </trkpt>
      <trkpt lat="45.29857" lon="2.07307">
        <ele>653</ele>
        <time>2012-03-25T10:37:35Z</time>
      </trkpt>
      <trkpt lat="45.29852" lon="2.07301">
        <ele>653</ele>
        <time>2012-03-25T10:37:37Z</time>
      </trkpt>
      <trkpt lat="45.29846" lon="2.07294">
        <ele>654</ele>
        <time>2012-03-25T10:37:38Z</time>
      </trkpt>
      <trkpt lat="45.29842" lon="2.0729">
        <ele>655</ele>
        <time>2012-03-25T10:37:39Z</time>
      </trkpt>
      <trkpt lat="45.29838" lon="2.07288">
        <ele>655</ele>
        <time>2012-03-25T10:37:41Z</time>
      </trkpt>
      <trkpt lat="45.29828" lon="2.07282">
        <ele>655</ele>
        <time>2012-03-25T10:37:42Z</time>
      </trkpt>
      <trkpt lat="45.29823" lon="2.07279">
        <ele>655</ele>
        <time>2012-03-25T10:37:43Z</time>
      </trkpt>
      <trkpt lat="45.29818" lon="2.07276">
        <ele>655</ele>
        <time>2012-03-25T10:37:45Z</time>
      </trkpt>
      <trkpt lat="45.29809" lon="2.07272">
        <ele>655</ele>
        <time>2012-03-25T10:37:46Z</time>
      </trkpt>
      <trkpt lat="45.29804" lon="2.0727">
        <ele>655</ele>
        <time>2012-03-25T10:37:47Z</time>
      </trkpt>
      <trkpt lat="45.29799" lon="2.07268">
        <ele>655</ele>
        <time>2012-03-25T10:37:49Z</time>
      </trkpt>
      <trkpt lat="45.29789" lon="2.07266">
        <ele>655</ele>
        <time>2012-03-25T10:37:50Z</time>
      </trkpt>
      <trkpt lat="45.29785" lon="2.07265">
        <ele>655</ele>
        <time>2012-03-25T10:37:51Z</time>
      </trkpt>
      <trkpt lat="45.29781" lon="2.07264">
        <ele>656</ele>
        <time>2012-03-25T10:37:53Z</time>
      </trkpt>
      <trkpt lat="45.29773" lon="2.07262">
        <ele>656</ele>
        <time>2012-03-25T10:37:54Z</time>
      </trkpt>
      <trkpt lat="45.29768" lon="2.07261">
        <ele>657</ele>
        <time>2012-03-25T10:37:55Z</time>
      </trkpt>
      <trkpt lat="45.29764" lon="2.07261">
        <ele>657</ele>
        <time>2012-03-25T10:37:57Z</time>
      </trkpt>
      <trkpt lat="45.29756" lon="2.07257">
        <ele>657</ele>
        <time>2012-03-25T10:37:58Z</time>
      </trkpt>
      <trkpt lat="45.29752" lon="2.07255">
        <ele>657</ele>
        <time>2012-03-25T10:37:59Z</time>
      </trkpt>
      <trkpt lat="45.29745" lon="2.07253">
        <ele>657</ele>
        <time>2012-03-25T10:38:01Z</time>
      </trkpt>
      <trkpt lat="45.2973" lon="2.07253">
        <ele>657</ele>
        <time>2012-03-25T10:38:02Z</time>
      </trkpt>
      <trkpt lat="45.29724" lon="2.07253">
        <ele>657</ele>
        <time>2012-03-25T10:38:03Z</time>
      </trkpt>
      <trkpt lat="45.29718" lon="2.07254">
        <ele>658</ele>
        <time>2012-03-25T10:38:05Z</time>
      </trkpt>
      <trkpt lat="45.29706" lon="2.07253">
        <ele>658</ele>
        <time>2012-03-25T10:38:06Z</time>
      </trkpt>
      <trkpt lat="45.29699" lon="2.07253">
        <ele>658</ele>
        <time>2012-03-25T10:38:07Z</time>
      </trkpt>
      <trkpt lat="45.2969" lon="2.07253">
        <ele>659</ele>
        <time>2012-03-25T10:38:09Z</time>
      </trkpt>
      <trkpt lat="45.29677" lon="2.07253">
        <ele>659</ele>
        <time>2012-03-25T10:38:10Z</time>
      </trkpt>
      <trkpt lat="45.29671" lon="2.07255">
        <ele>658</ele>
        <time>2012-03-25T10:38:11Z</time>
      </trkpt>
      <trkpt lat="45.29663" lon="2.07256">
        <ele>658</ele>
        <time>2012-03-25T10:38:13Z</time>
      </trkpt>
      <trkpt lat="45.29648" lon="2.07255">
        <ele>657</ele>
        <time>2012-03-25T10:38:14Z</time>
      </trkpt>
      <trkpt lat="45.29642" lon="2.07254">
        <ele>656</ele>
        <time>2012-03-25T10:38:15Z</time>
      </trkpt>
      <trkpt lat="45.29635" lon="2.07252">
        <ele>656</ele>
        <time>2012-03-25T10:38:17Z</time>
      </trkpt>
      <trkpt lat="45.29624" lon="2.07251">
        <ele>656</ele>
        <time>2012-03-25T10:38:18Z</time>
      </trkpt>
      <trkpt lat="45.29619" lon="2.07249">
        <ele>656</ele>
        <time>2012-03-25T10:38:19Z</time>
      </trkpt>
      <trkpt lat="45.29613" lon="2.07248">
        <ele>655</ele>
        <time>2012-03-25T10:38:21Z</time>
      </trkpt>
      <trkpt lat="45.29604" lon="2.07245">
        <ele>655</ele>
        <time>2012-03-25T10:38:22Z</time>
      </trkpt>
      <trkpt lat="45.296" lon="2.07244">
        <ele>655</ele>
        <time>2012-03-25T10:38:23Z</time>
      </trkpt>
      <trkpt lat="45.29595" lon="2.07241">
        <ele>655</ele>
        <time>2012-03-25T10:38:25Z</time>
      </trkpt>
      <trkpt lat="45.29587" lon="2.07239">
        <ele>655</ele>
        <time>2012-03-25T10:38:26Z</time>
      </trkpt>
      <trkpt lat="45.29585" lon="2.07238">
        <ele>656</ele>
        <time>2012-03-25T10:38:27Z</time>
      </trkpt>
      <trkpt lat="45.29583" lon="2.07237">
        <ele>656</ele>
        <time>2012-03-25T10:38:29Z</time>
      </trkpt>
      <trkpt lat="45.29576" lon="2.07233">
        <ele>656</ele>
        <time>2012-03-25T10:38:30Z</time>
      </trkpt>
      <trkpt lat="45.29574" lon="2.0723">
        <ele>657</ele>
        <time>2012-03-25T10:38:31Z</time>
      </trkpt>
      <trkpt lat="45.29571" lon="2.07228">
        <ele>657</ele>
        <time>2012-03-25T10:38:33Z</time>
      </trkpt>
      <trkpt lat="45.29566" lon="2.07219">
        <ele>657</ele>
        <time>2012-03-25T10:38:34Z</time>
      </trkpt>
      <trkpt lat="45.29564" lon="2.07215">
        <ele>657</ele>
        <time>2012-03-25T10:38:35Z</time>
      </trkpt>
      <trkpt lat="45.29563" lon="2.0721">
        <ele>657</ele>
        <time>2012-03-25T10:38:37Z</time>
      </trkpt>
      <trkpt lat="45.29564" lon="2.072">
        <ele>657</ele>
        <time>2012-03-25T10:38:38Z</time>
      </trkpt>
      <trkpt lat="45.29564" lon="2.07195">
        <ele>657</ele>
        <time>2012-03-25T10:38:39Z</time>
      </trkpt>
      <trkpt lat="45.29565" lon="2.0719">
        <ele>658</ele>
        <time>2012-03-25T10:38:41Z</time>
      </trkpt>
      <trkpt lat="45.29567" lon="2.07179">
        <ele>659</ele>
        <time>2012-03-25T10:38:42Z</time>
      </trkpt>
      <trkpt lat="45.29568" lon="2.07175">
        <ele>660</ele>
        <time>2012-03-25T10:38:43Z</time>
      </trkpt>
      <trkpt lat="45.29568" lon="2.07171">
        <ele>660</ele>
        <time>2012-03-25T10:38:45Z</time>
      </trkpt>
      <trkpt lat="45.29571" lon="2.07162">
        <ele>660</ele>
        <time>2012-03-25T10:38:46Z</time>
      </trkpt>
      <trkpt lat="45.29572" lon="2.07158">
        <ele>661</ele>
        <time>2012-03-25T10:38:47Z</time>
      </trkpt>
      <trkpt lat="45.29575" lon="2.07155">
        <ele>661</ele>
        <time>2012-03-25T10:38:49Z</time>
      </trkpt>
      <trkpt lat="45.29579" lon="2.07147">
        <ele>661</ele>
        <time>2012-03-25T10:38:50Z</time>
      </trkpt>
      <trkpt lat="45.29581" lon="2.07143">
        <ele>661</ele>
        <time>2012-03-25T10:38:51Z</time>
      </trkpt>
      <trkpt lat="45.29583" lon="2.07139">
        <ele>661</ele>
        <time>2012-03-25T10:38:53Z</time>
      </trkpt>
      <trkpt lat="45.29585" lon="2.07135">
        <ele>663</ele>
        <time>2012-03-25T10:38:54Z</time>
      </trkpt>
      <trkpt lat="45.29585" lon="2.07134">
        <ele>664</ele>
        <time>2012-03-25T10:38:55Z</time>
      </trkpt>
      <trkpt lat="45.29586" lon="2.07133">
        <ele>665</ele>
        <time>2012-03-25T10:38:57Z</time>
      </trkpt>
      <trkpt lat="45.29587" lon="2.07123">
        <ele>666</ele>
        <time>2012-03-25T10:38:58Z</time>
      </trkpt>
      <trkpt lat="45.29589" lon="2.07116">
        <ele>666</ele>
        <time>2012-03-25T10:38:59Z</time>
      </trkpt>
      <trkpt lat="45.29589" lon="2.0711">
        <ele>666</ele>
        <time>2012-03-25T10:39:01Z</time>
      </trkpt>
      <trkpt lat="45.29589" lon="2.071">
        <ele>667</ele>
        <time>2012-03-25T10:39:02Z</time>
      </trkpt>
      <trkpt lat="45.29588" lon="2.07096">
        <ele>667</ele>
        <time>2012-03-25T10:39:03Z</time>
      </trkpt>
      <trkpt lat="45.29586" lon="2.0709">
        <ele>667</ele>
        <time>2012-03-25T10:39:05Z</time>
      </trkpt>
      <trkpt lat="45.29583" lon="2.07081">
        <ele>667</ele>
        <time>2012-03-25T10:39:06Z</time>
      </trkpt>
      <trkpt lat="45.29582" lon="2.07075">
        <ele>667</ele>
        <time>2012-03-25T10:39:07Z</time>
      </trkpt>
      <trkpt lat="45.29582" lon="2.0707">
        <ele>669</ele>
        <time>2012-03-25T10:39:09Z</time>
      </trkpt>
      <trkpt lat="45.29578" lon="2.0706">
        <ele>669</ele>
        <time>2012-03-25T10:39:10Z</time>
      </trkpt>
      <trkpt lat="45.29577" lon="2.07055">
        <ele>669</ele>
        <time>2012-03-25T10:39:11Z</time>
      </trkpt>
      <trkpt lat="45.29575" lon="2.0705">
        <ele>669</ele>
        <time>2012-03-25T10:39:13Z</time>
      </trkpt>
      <trkpt lat="45.29572" lon="2.0704">
        <ele>670</ele>
        <time>2012-03-25T10:39:14Z</time>
      </trkpt>
      <trkpt lat="45.29571" lon="2.07036">
        <ele>669</ele>
        <time>2012-03-25T10:39:15Z</time>
      </trkpt>
      <trkpt lat="45.29569" lon="2.07031">
        <ele>669</ele>
        <time>2012-03-25T10:39:17Z</time>
      </trkpt>
      <trkpt lat="45.29566" lon="2.07022">
        <ele>669</ele>
        <time>2012-03-25T10:39:18Z</time>
      </trkpt>
      <trkpt lat="45.29564" lon="2.07018">
        <ele>670</ele>
        <time>2012-03-25T10:39:19Z</time>
      </trkpt>
      <trkpt lat="45.29562" lon="2.07012">
        <ele>670</ele>
        <time>2012-03-25T10:39:21Z</time>
      </trkpt>
      <trkpt lat="45.29557" lon="2.07003">
        <ele>671</ele>
        <time>2012-03-25T10:39:22Z</time>
      </trkpt>
      <trkpt lat="45.29555" lon="2.06998">
        <ele>672</ele>
        <time>2012-03-25T10:39:23Z</time>
      </trkpt>
      <trkpt lat="45.29554" lon="2.06993">
        <ele>672</ele>
        <time>2012-03-25T10:39:25Z</time>
      </trkpt>
      <trkpt lat="45.29552" lon="2.06986">
        <ele>672</ele>
        <time>2012-03-25T10:39:26Z</time>
      </trkpt>
      <trkpt lat="45.2955" lon="2.06981">
        <ele>673</ele>
        <time>2012-03-25T10:39:27Z</time>
      </trkpt>
      <trkpt lat="45.29548" lon="2.06976">
        <ele>673</ele>
        <time>2012-03-25T10:39:29Z</time>
      </trkpt>
      <trkpt lat="45.29544" lon="2.06969">
        <ele>673</ele>
        <time>2012-03-25T10:39:30Z</time>
      </trkpt>
      <trkpt lat="45.29543" lon="2.06965">
        <ele>674</ele>
        <time>2012-03-25T10:39:31Z</time>
      </trkpt>
      <trkpt lat="45.29541" lon="2.06961">
        <ele>674</ele>
        <time>2012-03-25T10:39:33Z</time>
      </trkpt>
      <trkpt lat="45.29537" lon="2.06952">
        <ele>674</ele>
        <time>2012-03-25T10:39:34Z</time>
      </trkpt>
      <trkpt lat="45.29536" lon="2.06948">
        <ele>674</ele>
        <time>2012-03-25T10:39:35Z</time>
      </trkpt>
      <trkpt lat="45.29535" lon="2.06945">
        <ele>674</ele>
        <time>2012-03-25T10:39:37Z</time>
      </trkpt>
      <trkpt lat="45.29533" lon="2.06936">
        <ele>674</ele>
        <time>2012-03-25T10:39:38Z</time>
      </trkpt>
      <trkpt lat="45.29531" lon="2.0693">
        <ele>673</ele>
        <time>2012-03-25T10:39:39Z</time>
      </trkpt>
      <trkpt lat="45.29529" lon="2.06926">
        <ele>673</ele>
        <time>2012-03-25T10:39:41Z</time>
      </trkpt>
      <trkpt lat="45.29525" lon="2.06917">
        <ele>674</ele>
        <time>2012-03-25T10:39:42Z</time>
      </trkpt>
      <trkpt lat="45.29523" lon="2.06912">
        <ele>674</ele>
        <time>2012-03-25T10:39:43Z</time>
      </trkpt>
      <trkpt lat="45.2952" lon="2.06907">
        <ele>675</ele>
        <time>2012-03-25T10:39:45Z</time>
      </trkpt>
      <trkpt lat="45.29518" lon="2.06898">
        <ele>676</ele>
        <time>2012-03-25T10:39:46Z</time>
      </trkpt>
      <trkpt lat="45.29516" lon="2.06894">
        <ele>675</ele>
        <time>2012-03-25T10:39:47Z</time>
      </trkpt>
      <trkpt lat="45.29515" lon="2.0689">
        <ele>675</ele>
        <time>2012-03-25T10:39:49Z</time>
      </trkpt>
      <trkpt lat="45.29511" lon="2.06881">
        <ele>676</ele>
        <time>2012-03-25T10:39:50Z</time>
      </trkpt>
      <trkpt lat="45.2951" lon="2.06877">
        <ele>675</ele>
        <time>2012-03-25T10:39:51Z</time>
      </trkpt>
      <trkpt lat="45.29508" lon="2.06873">
        <ele>675</ele>
        <time>2012-03-25T10:39:53Z</time>
      </trkpt>
      <trkpt lat="45.29504" lon="2.06864">
        <ele>676</ele>
        <time>2012-03-25T10:39:54Z</time>
      </trkpt>
      <trkpt lat="45.29503" lon="2.0686">
        <ele>676</ele>
        <time>2012-03-25T10:39:55Z</time>
      </trkpt>
      <trkpt lat="45.29502" lon="2.06854">
        <ele>677</ele>
        <time>2012-03-25T10:39:57Z</time>
      </trkpt>
      <trkpt lat="45.29498" lon="2.06844">
        <ele>679</ele>
        <time>2012-03-25T10:39:58Z</time>
      </trkpt>
      <trkpt lat="45.29497" lon="2.06838">
        <ele>680</ele>
        <time>2012-03-25T10:39:59Z</time>
      </trkpt>
      <trkpt lat="45.29495" lon="2.06833">
        <ele>680</ele>
        <time>2012-03-25T10:40:01Z</time>
      </trkpt>
      <trkpt lat="45.29494" lon="2.06828">
        <ele>680</ele>
        <time>2012-03-25T10:40:02Z</time>
      </trkpt>
      <trkpt lat="45.29491" lon="2.06823">
        <ele>681</ele>
        <time>2012-03-25T10:40:03Z</time>
      </trkpt>
      <trkpt lat="45.29488" lon="2.06818">
        <ele>681</ele>
        <time>2012-03-25T10:40:05Z</time>
      </trkpt>
      <trkpt lat="45.29487" lon="2.06812">
        <ele>680</ele>
        <time>2012-03-25T10:40:06Z</time>
      </trkpt>
      <trkpt lat="45.29482" lon="2.06801">
        <ele>679</ele>
        <time>2012-03-25T10:40:07Z</time>
      </trkpt>
      <trkpt lat="45.2948" lon="2.06795">
        <ele>678</ele>
        <time>2012-03-25T10:40:09Z</time>
      </trkpt>
      <trkpt lat="45.29478" lon="2.0679">
        <ele>678</ele>
        <time>2012-03-25T10:40:10Z</time>
      </trkpt>
      <trkpt lat="45.29475" lon="2.0678">
        <ele>678</ele>
        <time>2012-03-25T10:40:11Z</time>
      </trkpt>
      <trkpt lat="45.29473" lon="2.06774">
        <ele>678</ele>
        <time>2012-03-25T10:40:13Z</time>
      </trkpt>
      <trkpt lat="45.29471" lon="2.06769">
        <ele>678</ele>
        <time>2012-03-25T10:40:14Z</time>
      </trkpt>
      <trkpt lat="45.29467" lon="2.06758">
        <ele>679</ele>
        <time>2012-03-25T10:40:15Z</time>
      </trkpt>
      <trkpt lat="45.29464" lon="2.06753">
        <ele>679</ele>
        <time>2012-03-25T10:40:17Z</time>
      </trkpt>
      <trkpt lat="45.29457" lon="2.06738">
        <ele>680</ele>
        <time>2012-03-25T10:40:18Z</time>
      </trkpt>
      <trkpt lat="45.29456" lon="2.06733">
        <ele>680</ele>
        <time>2012-03-25T10:40:19Z</time>
      </trkpt>
      <trkpt lat="45.29456" lon="2.06733">
        <ele>680</ele>
        <time>2012-03-25T10:40:21Z</time>
      </trkpt>
      <trkpt lat="45.2945" lon="2.06718">
        <ele>681</ele>
        <time>2012-03-25T10:40:22Z</time>
      </trkpt>
      <trkpt lat="45.29447" lon="2.06713">
        <ele>681</ele>
        <time>2012-03-25T10:40:23Z</time>
      </trkpt>
      <trkpt lat="45.29447" lon="2.06713">
        <ele>681</ele>
        <time>2012-03-25T10:40:25Z</time>
      </trkpt>
      <trkpt lat="45.29442" lon="2.06699">
        <ele>681</ele>
        <time>2012-03-25T10:40:26Z</time>
      </trkpt>
      <trkpt lat="45.2944" lon="2.06694">
        <ele>681</ele>
        <time>2012-03-25T10:40:27Z</time>
      </trkpt>
      <trkpt lat="45.29439" lon="2.06689">
        <ele>681</ele>
        <time>2012-03-25T10:40:29Z</time>
      </trkpt>
      <trkpt lat="45.29434" lon="2.06678">
        <ele>680</ele>
        <time>2012-03-25T10:40:30Z</time>
      </trkpt>
      <trkpt lat="45.29431" lon="2.06674">
        <ele>680</ele>
        <time>2012-03-25T10:40:31Z</time>
      </trkpt>
      <trkpt lat="45.29429" lon="2.06669">
        <ele>680</ele>
        <time>2012-03-25T10:40:33Z</time>
      </trkpt>
      <trkpt lat="45.29426" lon="2.06662">
        <ele>680</ele>
        <time>2012-03-25T10:40:34Z</time>
      </trkpt>
      <trkpt lat="45.29424" lon="2.06657">
        <ele>680</ele>
        <time>2012-03-25T10:40:35Z</time>
      </trkpt>
      <trkpt lat="45.29422" lon="2.06654">
        <ele>680</ele>
        <time>2012-03-25T10:40:37Z</time>
      </trkpt>
      <trkpt lat="45.29419" lon="2.06645">
        <ele>681</ele>
        <time>2012-03-25T10:40:38Z</time>
      </trkpt>
      <trkpt lat="45.29416" lon="2.06642">
        <ele>681</ele>
        <time>2012-03-25T10:40:39Z</time>
      </trkpt>
      <trkpt lat="45.29415" lon="2.06638">
        <ele>682</ele>
        <time>2012-03-25T10:40:41Z</time>
      </trkpt>
      <trkpt lat="45.29412" lon="2.06629">
        <ele>683</ele>
        <time>2012-03-25T10:40:42Z</time>
      </trkpt>
      <trkpt lat="45.2941" lon="2.06625">
        <ele>683</ele>
        <time>2012-03-25T10:40:43Z</time>
      </trkpt>
      <trkpt lat="45.29408" lon="2.06621">
        <ele>682</ele>
        <time>2012-03-25T10:40:45Z</time>
      </trkpt>
      <trkpt lat="45.29405" lon="2.06612">
        <ele>683</ele>
        <time>2012-03-25T10:40:46Z</time>
      </trkpt>
      <trkpt lat="45.29403" lon="2.06608">
        <ele>684</ele>
        <time>2012-03-25T10:40:47Z</time>
      </trkpt>
      <trkpt lat="45.29401" lon="2.06605">
        <ele>684</ele>
        <time>2012-03-25T10:40:49Z</time>
      </trkpt>
      <trkpt lat="45.29398" lon="2.06597">
        <ele>686</ele>
        <time>2012-03-25T10:40:50Z</time>
      </trkpt>
      <trkpt lat="45.29396" lon="2.06592">
        <ele>686</ele>
        <time>2012-03-25T10:40:51Z</time>
      </trkpt>
      <trkpt lat="45.29394" lon="2.06588">
        <ele>686</ele>
        <time>2012-03-25T10:40:53Z</time>
      </trkpt>
      <trkpt lat="45.2939" lon="2.0658">
        <ele>686</ele>
        <time>2012-03-25T10:40:54Z</time>
      </trkpt>
      <trkpt lat="45.29388" lon="2.06577">
        <ele>687</ele>
        <time>2012-03-25T10:40:55Z</time>
      </trkpt>
      <trkpt lat="45.29387" lon="2.06573">
        <ele>686</ele>
        <time>2012-03-25T10:40:57Z</time>
      </trkpt>
      <trkpt lat="45.29384" lon="2.06565">
        <ele>686</ele>
        <time>2012-03-25T10:40:58Z</time>
      </trkpt>
      <trkpt lat="45.29381" lon="2.0656">
        <ele>686</ele>
        <time>2012-03-25T10:40:59Z</time>
      </trkpt>
      <trkpt lat="45.29379" lon="2.06556">
        <ele>686</ele>
        <time>2012-03-25T10:41:01Z</time>
      </trkpt>
      <trkpt lat="45.29377" lon="2.06548">
        <ele>688</ele>
        <time>2012-03-25T10:41:02Z</time>
      </trkpt>
      <trkpt lat="45.29376" lon="2.06541">
        <ele>687</ele>
        <time>2012-03-25T10:41:03Z</time>
      </trkpt>
      <trkpt lat="45.29373" lon="2.06537">
        <ele>687</ele>
        <time>2012-03-25T10:41:05Z</time>
      </trkpt>
      <trkpt lat="45.2937" lon="2.06527">
        <ele>689</ele>
        <time>2012-03-25T10:41:06Z</time>
      </trkpt>
      <trkpt lat="45.29369" lon="2.06523">
        <ele>689</ele>
        <time>2012-03-25T10:41:07Z</time>
      </trkpt>
      <trkpt lat="45.29368" lon="2.06517">
        <ele>689</ele>
        <time>2012-03-25T10:41:09Z</time>
      </trkpt>
      <trkpt lat="45.29365" lon="2.06509">
        <ele>688</ele>
        <time>2012-03-25T10:41:10Z</time>
      </trkpt>
      <trkpt lat="45.29362" lon="2.06505">
        <ele>689</ele>
        <time>2012-03-25T10:41:11Z</time>
      </trkpt>
      <trkpt lat="45.2936" lon="2.06501">
        <ele>689</ele>
        <time>2012-03-25T10:41:13Z</time>
      </trkpt>
      <trkpt lat="45.29356" lon="2.06493">
        <ele>689</ele>
        <time>2012-03-25T10:41:14Z</time>
      </trkpt>
      <trkpt lat="45.29354" lon="2.06489">
        <ele>689</ele>
        <time>2012-03-25T10:41:15Z</time>
      </trkpt>
      <trkpt lat="45.29352" lon="2.06483">
        <ele>689</ele>
        <time>2012-03-25T10:41:17Z</time>
      </trkpt>
      <trkpt lat="45.29349" lon="2.06475">
        <ele>689</ele>
        <time>2012-03-25T10:41:18Z</time>
      </trkpt>
      <trkpt lat="45.29347" lon="2.06471">
        <ele>689</ele>
        <time>2012-03-25T10:41:19Z</time>
      </trkpt>
      <trkpt lat="45.29344" lon="2.06466">
        <ele>689</ele>
        <time>2012-03-25T10:41:21Z</time>
      </trkpt>
      <trkpt lat="45.2934" lon="2.06458">
        <ele>689</ele>
        <time>2012-03-25T10:41:22Z</time>
      </trkpt>
      <trkpt lat="45.29338" lon="2.06453">
        <ele>689</ele>
        <time>2012-03-25T10:41:23Z</time>
      </trkpt>
      <trkpt lat="45.29336" lon="2.0645">
        <ele>689</ele>
        <time>2012-03-25T10:41:25Z</time>
      </trkpt>
      <trkpt lat="45.29332" lon="2.06442">
        <ele>689</ele>
        <time>2012-03-25T10:41:26Z</time>
      </trkpt>
      <trkpt lat="45.29328" lon="2.06439">
        <ele>689</ele>
        <time>2012-03-25T10:41:27Z</time>
      </trkpt>
      <trkpt lat="45.29325" lon="2.06436">
        <ele>689</ele>
        <time>2012-03-25T10:41:29Z</time>
      </trkpt>
      <trkpt lat="45.29319" lon="2.0643">
        <ele>690</ele>
        <time>2012-03-25T10:41:30Z</time>
      </trkpt>
      <trkpt lat="45.29316" lon="2.06429">
        <ele>689</ele>
        <time>2012-03-25T10:41:31Z</time>
      </trkpt>
      <trkpt lat="45.29313" lon="2.06426">
        <ele>689</ele>
        <time>2012-03-25T10:41:33Z</time>
      </trkpt>
      <trkpt lat="45.29305" lon="2.06422">
        <ele>689</ele>
        <time>2012-03-25T10:41:34Z</time>
      </trkpt>
      <trkpt lat="45.293" lon="2.0642">
        <ele>689</ele>
        <time>2012-03-25T10:41:35Z</time>
      </trkpt>
      <trkpt lat="45.29296" lon="2.06419">
        <ele>689</ele>
        <time>2012-03-25T10:41:36Z</time>
      </trkpt>
      <trkpt lat="45.29292" lon="2.06417">
        <ele>690</ele>
        <time>2012-03-25T10:41:37Z</time>
      </trkpt>
      <trkpt lat="45.29289" lon="2.06415">
        <ele>690</ele>
        <time>2012-03-25T10:41:38Z</time>
      </trkpt>
      <trkpt lat="45.29287" lon="2.06412">
        <ele>690</ele>
        <time>2012-03-25T10:41:39Z</time>
      </trkpt>
      <trkpt lat="45.29284" lon="2.06411">
        <ele>690</ele>
        <time>2012-03-25T10:41:40Z</time>
      </trkpt>
      <trkpt lat="45.2928" lon="2.06409">
        <ele>691</ele>
        <time>2012-03-25T10:41:41Z</time>
      </trkpt>
      <trkpt lat="45.29275" lon="2.06406">
        <ele>690</ele>
        <time>2012-03-25T10:41:42Z</time>
      </trkpt>
      <trkpt lat="45.29272" lon="2.06406">
        <ele>690</ele>
        <time>2012-03-25T10:41:43Z</time>
      </trkpt>
      <trkpt lat="45.29267" lon="2.06404">
        <ele>690</ele>
        <time>2012-03-25T10:41:44Z</time>
      </trkpt>
      <trkpt lat="45.29263" lon="2.06402">
        <ele>691</ele>
        <time>2012-03-25T10:41:45Z</time>
      </trkpt>
      <trkpt lat="45.29259" lon="2.06401">
        <ele>690</ele>
        <time>2012-03-25T10:41:46Z</time>
      </trkpt>
      <trkpt lat="45.29255" lon="2.06399">
        <ele>690</ele>
        <time>2012-03-25T10:41:47Z</time>
      </trkpt>
      <trkpt lat="45.2925" lon="2.06398">
        <ele>690</ele>
        <time>2012-03-25T10:41:48Z</time>
      </trkpt>
      <trkpt lat="45.29246" lon="2.06396">
        <ele>690</ele>
        <time>2012-03-25T10:41:49Z</time>
      </trkpt>
      <trkpt lat="45.29243" lon="2.06395">
        <ele>690</ele>
        <time>2012-03-25T10:41:50Z</time>
      </trkpt>
      <trkpt lat="45.29241" lon="2.06392">
        <ele>689</ele>
        <time>2012-03-25T10:41:51Z</time>
      </trkpt>
      <trkpt lat="45.29238" lon="2.06391">
        <ele>688</ele>
        <time>2012-03-25T10:41:52Z</time>
      </trkpt>
      <trkpt lat="45.29235" lon="2.06389">
        <ele>689</ele>
        <time>2012-03-25T10:41:53Z</time>
      </trkpt>
      <trkpt lat="45.29231" lon="2.06387">
        <ele>688</ele>
        <time>2012-03-25T10:41:54Z</time>
      </trkpt>
      <trkpt lat="45.29226" lon="2.06386">
        <ele>688</ele>
        <time>2012-03-25T10:41:55Z</time>
      </trkpt>
      <trkpt lat="45.29224" lon="2.06384">
        <ele>689</ele>
        <time>2012-03-25T10:41:56Z</time>
      </trkpt>
      <trkpt lat="45.29219" lon="2.06382">
        <ele>690</ele>
        <time>2012-03-25T10:41:58Z</time>
      </trkpt>
      <trkpt lat="45.2921" lon="2.06378">
        <ele>690</ele>
        <time>2012-03-25T10:41:59Z</time>
      </trkpt>
      <trkpt lat="45.29207" lon="2.06377">
        <ele>690</ele>
        <time>2012-03-25T10:42:00Z</time>
      </trkpt>
      <trkpt lat="45.29203" lon="2.06375">
        <ele>689</ele>
        <time>2012-03-25T10:42:01Z</time>
      </trkpt>
      <trkpt lat="45.29199" lon="2.06374">
        <ele>689</ele>
        <time>2012-03-25T10:42:02Z</time>
      </trkpt>
      <trkpt lat="45.29195" lon="2.06372">
        <ele>689</ele>
        <time>2012-03-25T10:42:03Z</time>
      </trkpt>
      <trkpt lat="45.29193" lon="2.0637">
        <ele>690</ele>
        <time>2012-03-25T10:42:04Z</time>
      </trkpt>
      <trkpt lat="45.29188" lon="2.06368">
        <ele>689</ele>
        <time>2012-03-25T10:42:05Z</time>
      </trkpt>
      <trkpt lat="45.29185" lon="2.06367">
        <ele>691</ele>
        <time>2012-03-25T10:42:06Z</time>
      </trkpt>
      <trkpt lat="45.29181" lon="2.06364">
        <ele>691</ele>
        <time>2012-03-25T10:42:08Z</time>
      </trkpt>
      <trkpt lat="45.29174" lon="2.0636">
        <ele>691</ele>
        <time>2012-03-25T10:42:09Z</time>
      </trkpt>
      <trkpt lat="45.29172" lon="2.06358">
        <ele>692</ele>
        <time>2012-03-25T10:42:10Z</time>
      </trkpt>
      <trkpt lat="45.29169" lon="2.06356">
        <ele>692</ele>
        <time>2012-03-25T10:42:12Z</time>
      </trkpt>
      <trkpt lat="45.29162" lon="2.06352">
        <ele>692</ele>
        <time>2012-03-25T10:42:13Z</time>
      </trkpt>
      <trkpt lat="45.29159" lon="2.0635">
        <ele>693</ele>
        <time>2012-03-25T10:42:14Z</time>
      </trkpt>
      <trkpt lat="45.29157" lon="2.06348">
        <ele>693</ele>
        <time>2012-03-25T10:42:16Z</time>
      </trkpt>
      <trkpt lat="45.29151" lon="2.06343">
        <ele>693</ele>
        <time>2012-03-25T10:42:17Z</time>
      </trkpt>
      <trkpt lat="45.29148" lon="2.06342">
        <ele>693</ele>
        <time>2012-03-25T10:42:18Z</time>
      </trkpt>
      <trkpt lat="45.29142" lon="2.06341">
        <ele>693</ele>
        <time>2012-03-25T10:42:20Z</time>
      </trkpt>
      <trkpt lat="45.29135" lon="2.06339">
        <ele>693</ele>
        <time>2012-03-25T10:42:21Z</time>
      </trkpt>
      <trkpt lat="45.29132" lon="2.06336">
        <ele>693</ele>
        <time>2012-03-25T10:42:22Z</time>
      </trkpt>
      <trkpt lat="45.29127" lon="2.06335">
        <ele>694</ele>
        <time>2012-03-25T10:42:24Z</time>
      </trkpt>
      <trkpt lat="45.29118" lon="2.06333">
        <ele>695</ele>
        <time>2012-03-25T10:42:25Z</time>
      </trkpt>
      <trkpt lat="45.29114" lon="2.06332">
        <ele>695</ele>
        <time>2012-03-25T10:42:26Z</time>
      </trkpt>
      <trkpt lat="45.29111" lon="2.0633">
        <ele>694</ele>
        <time>2012-03-25T10:42:28Z</time>
      </trkpt>
      <trkpt lat="45.29101" lon="2.06328">
        <ele>695</ele>
        <time>2012-03-25T10:42:29Z</time>
      </trkpt>
      <trkpt lat="45.29096" lon="2.06326">
        <ele>695</ele>
        <time>2012-03-25T10:42:30Z</time>
      </trkpt>
      <trkpt lat="45.29092" lon="2.06325">
        <ele>695</ele>
        <time>2012-03-25T10:42:32Z</time>
      </trkpt>
      <trkpt lat="45.29085" lon="2.06322">
        <ele>694</ele>
        <time>2012-03-25T10:42:33Z</time>
      </trkpt>
      <trkpt lat="45.29079" lon="2.06321">
        <ele>695</ele>
        <time>2012-03-25T10:42:34Z</time>
      </trkpt>
      <trkpt lat="45.29075" lon="2.0632">
        <ele>694</ele>
        <time>2012-03-25T10:42:36Z</time>
      </trkpt>
      <trkpt lat="45.29065" lon="2.06318">
        <ele>694</ele>
        <time>2012-03-25T10:42:37Z</time>
      </trkpt>
      <trkpt lat="45.29062" lon="2.06315">
        <ele>695</ele>
        <time>2012-03-25T10:42:38Z</time>
      </trkpt>
      <trkpt lat="45.29059" lon="2.06315">
        <ele>696</ele>
        <time>2012-03-25T10:42:40Z</time>
      </trkpt>
      <trkpt lat="45.29049" lon="2.06312">
        <ele>696</ele>
        <time>2012-03-25T10:42:41Z</time>
      </trkpt>
      <trkpt lat="45.29044" lon="2.06311">
        <ele>695</ele>
        <time>2012-03-25T10:42:42Z</time>
      </trkpt>
      <trkpt lat="45.29039" lon="2.06311">
        <ele>695</ele>
        <time>2012-03-25T10:42:44Z</time>
      </trkpt>
      <trkpt lat="45.29031" lon="2.06308">
        <ele>695</ele>
        <time>2012-03-25T10:42:45Z</time>
      </trkpt>
      <trkpt lat="45.29027" lon="2.06306">
        <ele>696</ele>
        <time>2012-03-25T10:42:46Z</time>
      </trkpt>
      <trkpt lat="45.29022" lon="2.06305">
        <ele>696</ele>
        <time>2012-03-25T10:42:48Z</time>
      </trkpt>
      <trkpt lat="45.29011" lon="2.06302">
        <ele>697</ele>
        <time>2012-03-25T10:42:49Z</time>
      </trkpt>
      <trkpt lat="45.29007" lon="2.06301">
        <ele>697</ele>
        <time>2012-03-25T10:42:50Z</time>
      </trkpt>
      <trkpt lat="45.29002" lon="2.06299">
        <ele>697</ele>
        <time>2012-03-25T10:42:52Z</time>
      </trkpt>
      <trkpt lat="45.28993" lon="2.06297">
        <ele>696</ele>
        <time>2012-03-25T10:42:53Z</time>
      </trkpt>
      <trkpt lat="45.28987" lon="2.06296">
        <ele>696</ele>
        <time>2012-03-25T10:42:54Z</time>
      </trkpt>
      <trkpt lat="45.28982" lon="2.06294">
        <ele>696</ele>
        <time>2012-03-25T10:42:56Z</time>
      </trkpt>
      <trkpt lat="45.28974" lon="2.06289">
        <ele>697</ele>
        <time>2012-03-25T10:42:57Z</time>
      </trkpt>
      <trkpt lat="45.28971" lon="2.06289">
        <ele>696</ele>
        <time>2012-03-25T10:42:58Z</time>
      </trkpt>
      <trkpt lat="45.28967" lon="2.06287">
        <ele>696</ele>
        <time>2012-03-25T10:43:00Z</time>
      </trkpt>
      <trkpt lat="45.28958" lon="2.06282">
        <ele>697</ele>
        <time>2012-03-25T10:43:01Z</time>
      </trkpt>
      <trkpt lat="45.28954" lon="2.0628">
        <ele>698</ele>
        <time>2012-03-25T10:43:02Z</time>
      </trkpt>
      <trkpt lat="45.28949" lon="2.06279">
        <ele>698</ele>
        <time>2012-03-25T10:43:04Z</time>
      </trkpt>
      <trkpt lat="45.28938" lon="2.06274">
        <ele>700</ele>
        <time>2012-03-25T10:43:05Z</time>
      </trkpt>
      <trkpt lat="45.28933" lon="2.06273">
        <ele>700</ele>
        <time>2012-03-25T10:43:06Z</time>
      </trkpt>
      <trkpt lat="45.28928" lon="2.06271">
        <ele>700</ele>
        <time>2012-03-25T10:43:08Z</time>
      </trkpt>
      <trkpt lat="45.28918" lon="2.06269">
        <ele>700</ele>
        <time>2012-03-25T10:43:09Z</time>
      </trkpt>
      <trkpt lat="45.28912" lon="2.06267">
        <ele>701</ele>
        <time>2012-03-25T10:43:10Z</time>
      </trkpt>
      <trkpt lat="45.28905" lon="2.06266">
        <ele>700</ele>
        <time>2012-03-25T10:43:12Z</time>
      </trkpt>
      <trkpt lat="45.28892" lon="2.06265">
        <ele>700</ele>
        <time>2012-03-25T10:43:13Z</time>
      </trkpt>
      <trkpt lat="45.28885" lon="2.06265">
        <ele>699</ele>
        <time>2012-03-25T10:43:14Z</time>
      </trkpt>
      <trkpt lat="45.28878" lon="2.06264">
        <ele>700</ele>
        <time>2012-03-25T10:43:16Z</time>
      </trkpt>
      <trkpt lat="45.28865" lon="2.06264">
        <ele>700</ele>
        <time>2012-03-25T10:43:17Z</time>
      </trkpt>
      <trkpt lat="45.28857" lon="2.06266">
        <ele>700</ele>
        <time>2012-03-25T10:43:18Z</time>
      </trkpt>
      <trkpt lat="45.2885" lon="2.06268">
        <ele>699</ele>
        <time>2012-03-25T10:43:20Z</time>
      </trkpt>
      <trkpt lat="45.28834" lon="2.06271">
        <ele>699</ele>
        <time>2012-03-25T10:43:21Z</time>
      </trkpt>
      <trkpt lat="45.28828" lon="2.06267">
        <ele>699</ele>
        <time>2012-03-25T10:43:22Z</time>
      </trkpt>
      <trkpt lat="45.28821" lon="2.06266">
        <ele>699</ele>
        <time>2012-03-25T10:43:24Z</time>
      </trkpt>
      <trkpt lat="45.28809" lon="2.06259">
        <ele>699</ele>
        <time>2012-03-25T10:43:25Z</time>
      </trkpt>
      <trkpt lat="45.28804" lon="2.06254">
        <ele>699</ele>
        <time>2012-03-25T10:43:26Z</time>
      </trkpt>
      <trkpt lat="45.28798" lon="2.06249">
        <ele>699</ele>
        <time>2012-03-25T10:43:27Z</time>
      </trkpt>
      <trkpt lat="45.28792" lon="2.06244">
        <ele>699</ele>
        <time>2012-03-25T10:43:28Z</time>
      </trkpt>
      <trkpt lat="45.28783" lon="2.06239">
        <ele>699</ele>
        <time>2012-03-25T10:43:29Z</time>
      </trkpt>
      <trkpt lat="45.28776" lon="2.06236">
        <ele>699</ele>
        <time>2012-03-25T10:43:31Z</time>
      </trkpt>
      <trkpt lat="45.2876" lon="2.0623">
        <ele>698</ele>
        <time>2012-03-25T10:43:32Z</time>
      </trkpt>
      <trkpt lat="45.28752" lon="2.06228">
        <ele>698</ele>
        <time>2012-03-25T10:43:33Z</time>
      </trkpt>
      <trkpt lat="45.28752" lon="2.06228">
        <ele>698</ele>
        <time>2012-03-25T10:43:34Z</time>
      </trkpt>
      <trkpt lat="45.28744" lon="2.06225">
        <ele>698</ele>
        <time>2012-03-25T10:43:35Z</time>
      </trkpt>
      <trkpt lat="45.28733" lon="2.06226">
        <ele>698</ele>
        <time>2012-03-25T10:43:36Z</time>
      </trkpt>
      <trkpt lat="45.28725" lon="2.06225">
        <ele>698</ele>
        <time>2012-03-25T10:43:37Z</time>
      </trkpt>
      <trkpt lat="45.28717" lon="2.06224">
        <ele>698</ele>
        <time>2012-03-25T10:43:39Z</time>
      </trkpt>
      <trkpt lat="45.28708" lon="2.06222">
        <ele>698</ele>
        <time>2012-03-25T10:43:40Z</time>
      </trkpt>
      <trkpt lat="45.28692" lon="2.06222">
        <ele>697</ele>
        <time>2012-03-25T10:43:41Z</time>
      </trkpt>
      <trkpt lat="45.28684" lon="2.06222">
        <ele>697</ele>
        <time>2012-03-25T10:43:43Z</time>
      </trkpt>
      <trkpt lat="45.28676" lon="2.06221">
        <ele>696</ele>
        <time>2012-03-25T10:43:44Z</time>
      </trkpt>
      <trkpt lat="45.28662" lon="2.06216">
        <ele>695</ele>
        <time>2012-03-25T10:43:45Z</time>
      </trkpt>
      <trkpt lat="45.28656" lon="2.06211">
        <ele>695</ele>
        <time>2012-03-25T10:43:47Z</time>
      </trkpt>
      <trkpt lat="45.28649" lon="2.06207">
        <ele>695</ele>
        <time>2012-03-25T10:43:48Z</time>
      </trkpt>
      <trkpt lat="45.28636" lon="2.06194">
        <ele>694</ele>
        <time>2012-03-25T10:43:49Z</time>
      </trkpt>
      <trkpt lat="45.28632" lon="2.06185">
        <ele>692</ele>
        <time>2012-03-25T10:43:51Z</time>
      </trkpt>
      <trkpt lat="45.28622" lon="2.06156">
        <ele>689</ele>
        <time>2012-03-25T10:43:52Z</time>
      </trkpt>
      <trkpt lat="45.28621" lon="2.06145">
        <ele>689</ele>
        <time>2012-03-25T10:43:53Z</time>
      </trkpt>
      <trkpt lat="45.2862" lon="2.06136">
        <ele>688</ele>
        <time>2012-03-25T10:43:55Z</time>
      </trkpt>
      <trkpt lat="45.28618" lon="2.0612">
        <ele>688</ele>
        <time>2012-03-25T10:43:56Z</time>
      </trkpt>
      <trkpt lat="45.28618" lon="2.06112">
        <ele>688</ele>
        <time>2012-03-25T10:43:57Z</time>
      </trkpt>
      <trkpt lat="45.28619" lon="2.06103">
        <ele>688</ele>
        <time>2012-03-25T10:43:58Z</time>
      </trkpt>
      <trkpt lat="45.28618" lon="2.06094">
        <ele>688</ele>
        <time>2012-03-25T10:44:00Z</time>
      </trkpt>
      <trkpt lat="45.28618" lon="2.06094">
        <ele>688</ele>
        <time>2012-03-25T10:44:01Z</time>
      </trkpt>
      <trkpt lat="45.28617" lon="2.06085">
        <ele>689</ele>
        <time>2012-03-25T10:44:02Z</time>
      </trkpt>
      <trkpt lat="45.28616" lon="2.06069">
        <ele>689</ele>
        <time>2012-03-25T10:44:03Z</time>
      </trkpt>
      <trkpt lat="45.28615" lon="2.06061">
        <ele>689</ele>
        <time>2012-03-25T10:44:04Z</time>
      </trkpt>
      <trkpt lat="45.28613" lon="2.06052">
        <ele>688</ele>
        <time>2012-03-25T10:44:05Z</time>
      </trkpt>
      <trkpt lat="45.28611" lon="2.06043">
        <ele>688</ele>
        <time>2012-03-25T10:44:06Z</time>
      </trkpt>
      <trkpt lat="45.28609" lon="2.06036">
        <ele>689</ele>
        <time>2012-03-25T10:44:07Z</time>
      </trkpt>
      <trkpt lat="45.28607" lon="2.06026">
        <ele>689</ele>
        <time>2012-03-25T10:44:09Z</time>
      </trkpt>
      <trkpt lat="45.28605" lon="2.06017">
        <ele>688</ele>
        <time>2012-03-25T10:44:10Z</time>
      </trkpt>
      <trkpt lat="45.28599" lon="2.06004">
        <ele>689</ele>
        <time>2012-03-25T10:44:11Z</time>
      </trkpt>
      <trkpt lat="45.28596" lon="2.05996">
        <ele>688</ele>
        <time>2012-03-25T10:44:13Z</time>
      </trkpt>
      <trkpt lat="45.28592" lon="2.0599">
        <ele>688</ele>
        <time>2012-03-25T10:44:14Z</time>
      </trkpt>
      <trkpt lat="45.28584" lon="2.05978">
        <ele>689</ele>
        <time>2012-03-25T10:44:15Z</time>
      </trkpt>
      <trkpt lat="45.2858" lon="2.05973">
        <ele>689</ele>
        <time>2012-03-25T10:44:16Z</time>
      </trkpt>
      <trkpt lat="45.28576" lon="2.05968">
        <ele>689</ele>
        <time>2012-03-25T10:44:18Z</time>
      </trkpt>
      <trkpt lat="45.28569" lon="2.05959">
        <ele>689</ele>
        <time>2012-03-25T10:44:19Z</time>
      </trkpt>
      <trkpt lat="45.28563" lon="2.05956">
        <ele>689</ele>
        <time>2012-03-25T10:44:20Z</time>
      </trkpt>
      <trkpt lat="45.28558" lon="2.05952">
        <ele>690</ele>
        <time>2012-03-25T10:44:21Z</time>
      </trkpt>
      <trkpt lat="45.28553" lon="2.05948">
        <ele>690</ele>
        <time>2012-03-25T10:44:22Z</time>
      </trkpt>
      <trkpt lat="45.28548" lon="2.05943">
        <ele>691</ele>
        <time>2012-03-25T10:44:24Z</time>
      </trkpt>
      <trkpt lat="45.28544" lon="2.05938">
        <ele>691</ele>
        <time>2012-03-25T10:44:25Z</time>
      </trkpt>
      <trkpt lat="45.28533" lon="2.05928">
        <ele>692</ele>
        <time>2012-03-25T10:44:26Z</time>
      </trkpt>
      <trkpt lat="45.28529" lon="2.05923">
        <ele>693</ele>
        <time>2012-03-25T10:44:28Z</time>
      </trkpt>
      <trkpt lat="45.28518" lon="2.05907">
        <ele>694</ele>
        <time>2012-03-25T10:44:29Z</time>
      </trkpt>
      <trkpt lat="45.28515" lon="2.05902">
        <ele>694</ele>
        <time>2012-03-25T10:44:30Z</time>
      </trkpt>
      <trkpt lat="45.28512" lon="2.05897">
        <ele>695</ele>
        <time>2012-03-25T10:44:32Z</time>
      </trkpt>
      <trkpt lat="45.28505" lon="2.0589">
        <ele>696</ele>
        <time>2012-03-25T10:44:33Z</time>
      </trkpt>
      <trkpt lat="45.28502" lon="2.05884">
        <ele>696</ele>
        <time>2012-03-25T10:44:34Z</time>
      </trkpt>
      <trkpt lat="45.28499" lon="2.05878">
        <ele>697</ele>
        <time>2012-03-25T10:44:36Z</time>
      </trkpt>
      <trkpt lat="45.28495" lon="2.05867">
        <ele>698</ele>
        <time>2012-03-25T10:44:37Z</time>
      </trkpt>
      <trkpt lat="45.28494" lon="2.05861">
        <ele>698</ele>
        <time>2012-03-25T10:44:38Z</time>
      </trkpt>
      <trkpt lat="45.28493" lon="2.05855">
        <ele>697</ele>
        <time>2012-03-25T10:44:40Z</time>
      </trkpt>
      <trkpt lat="45.28492" lon="2.05843">
        <ele>697</ele>
        <time>2012-03-25T10:44:41Z</time>
      </trkpt>
      <trkpt lat="45.28492" lon="2.05838">
        <ele>697</ele>
        <time>2012-03-25T10:44:42Z</time>
      </trkpt>
      <trkpt lat="45.2849" lon="2.05831">
        <ele>697</ele>
        <time>2012-03-25T10:44:44Z</time>
      </trkpt>
      <trkpt lat="45.28489" lon="2.05816">
        <ele>697</ele>
        <time>2012-03-25T10:44:45Z</time>
      </trkpt>
      <trkpt lat="45.28489" lon="2.05806">
        <ele>697</ele>
        <time>2012-03-25T10:44:46Z</time>
      </trkpt>
      <trkpt lat="45.28489" lon="2.05796">
        <ele>696</ele>
        <time>2012-03-25T10:44:48Z</time>
      </trkpt>
      <trkpt lat="45.28487" lon="2.05778">
        <ele>695</ele>
        <time>2012-03-25T10:44:49Z</time>
      </trkpt>
      <trkpt lat="45.28485" lon="2.05769">
        <ele>695</ele>
        <time>2012-03-25T10:44:50Z</time>
      </trkpt>
      <trkpt lat="45.28485" lon="2.05769">
        <ele>695</ele>
        <time>2012-03-25T10:44:52Z</time>
      </trkpt>
      <trkpt lat="45.28479" lon="2.05749">
        <ele>695</ele>
        <time>2012-03-25T10:44:53Z</time>
      </trkpt>
      <trkpt lat="45.28477" lon="2.05743">
        <ele>695</ele>
        <time>2012-03-25T10:44:54Z</time>
      </trkpt>
      <trkpt lat="45.28477" lon="2.05743">
        <ele>695</ele>
        <time>2012-03-25T10:44:56Z</time>
      </trkpt>
      <trkpt lat="45.28475" lon="2.05737">
        <ele>695</ele>
        <time>2012-03-25T10:44:57Z</time>
      </trkpt>
      <trkpt lat="45.28469" lon="2.05724">
        <ele>695</ele>
        <time>2012-03-25T10:44:58Z</time>
      </trkpt>
      <trkpt lat="45.28466" lon="2.05714">
        <ele>695</ele>
        <time>2012-03-25T10:45:00Z</time>
      </trkpt>
      <trkpt lat="45.28457" lon="2.057">
        <ele>696</ele>
        <time>2012-03-25T10:45:01Z</time>
      </trkpt>
      <trkpt lat="45.28454" lon="2.05695">
        <ele>697</ele>
        <time>2012-03-25T10:45:02Z</time>
      </trkpt>
      <trkpt lat="45.2845" lon="2.0569">
        <ele>697</ele>
        <time>2012-03-25T10:45:04Z</time>
      </trkpt>
      <trkpt lat="45.28444" lon="2.05676">
        <ele>697</ele>
        <time>2012-03-25T10:45:05Z</time>
      </trkpt>
      <trkpt lat="45.2844" lon="2.0567">
        <ele>696</ele>
        <time>2012-03-25T10:45:06Z</time>
      </trkpt>
      <trkpt lat="45.28437" lon="2.05665">
        <ele>697</ele>
        <time>2012-03-25T10:45:08Z</time>
      </trkpt>
      <trkpt lat="45.28429" lon="2.05649">
        <ele>697</ele>
        <time>2012-03-25T10:45:09Z</time>
      </trkpt>
      <trkpt lat="45.28423" lon="2.05644">
        <ele>697</ele>
        <time>2012-03-25T10:45:10Z</time>
      </trkpt>
      <trkpt lat="45.28418" lon="2.05638">
        <ele>696</ele>
        <time>2012-03-25T10:45:12Z</time>
      </trkpt>
      <trkpt lat="45.28409" lon="2.05626">
        <ele>696</ele>
        <time>2012-03-25T10:45:13Z</time>
      </trkpt>
      <trkpt lat="45.28405" lon="2.05618">
        <ele>695</ele>
        <time>2012-03-25T10:45:14Z</time>
      </trkpt>
      <trkpt lat="45.28401" lon="2.05609">
        <ele>696</ele>
        <time>2012-03-25T10:45:16Z</time>
      </trkpt>
      <trkpt lat="45.28394" lon="2.05594">
        <ele>695</ele>
        <time>2012-03-25T10:45:17Z</time>
      </trkpt>
      <trkpt lat="45.2839" lon="2.05585">
        <ele>695</ele>
        <time>2012-03-25T10:45:18Z</time>
      </trkpt>
      <trkpt lat="45.2839" lon="2.05585">
        <ele>695</ele>
        <time>2012-03-25T10:45:20Z</time>
      </trkpt>
      <trkpt lat="45.28386" lon="2.05578">
        <ele>695</ele>
        <time>2012-03-25T10:45:21Z</time>
      </trkpt>
      <trkpt lat="45.28373" lon="2.05558">
        <ele>695</ele>
        <time>2012-03-25T10:45:22Z</time>
      </trkpt>
      <trkpt lat="45.28369" lon="2.0555">
        <ele>694</ele>
        <time>2012-03-25T10:45:24Z</time>
      </trkpt>
      <trkpt lat="45.28359" lon="2.05535">
        <ele>693</ele>
        <time>2012-03-25T10:45:25Z</time>
      </trkpt>
      <trkpt lat="45.28355" lon="2.05525">
        <ele>693</ele>
        <time>2012-03-25T10:45:26Z</time>
      </trkpt>
      <trkpt lat="45.2835" lon="2.05517">
        <ele>693</ele>
        <time>2012-03-25T10:45:28Z</time>
      </trkpt>
      <trkpt lat="45.28339" lon="2.05498">
        <ele>692</ele>
        <time>2012-03-25T10:45:29Z</time>
      </trkpt>
      <trkpt lat="45.28333" lon="2.05487">
        <ele>692</ele>
        <time>2012-03-25T10:45:30Z</time>
      </trkpt>
      <trkpt lat="45.28328" lon="2.05475">
        <ele>692</ele>
        <time>2012-03-25T10:45:32Z</time>
      </trkpt>
      <trkpt lat="45.28316" lon="2.0545">
        <ele>691</ele>
        <time>2012-03-25T10:45:33Z</time>
      </trkpt>
      <trkpt lat="45.2831" lon="2.05438">
        <ele>691</ele>
        <time>2012-03-25T10:45:34Z</time>
      </trkpt>
      <trkpt lat="45.28303" lon="2.05426">
        <ele>690</ele>
        <time>2012-03-25T10:45:36Z</time>
      </trkpt>
      <trkpt lat="45.28293" lon="2.05403">
        <ele>691</ele>
        <time>2012-03-25T10:45:37Z</time>
      </trkpt>
      <trkpt lat="45.28288" lon="2.05392">
        <ele>690</ele>
        <time>2012-03-25T10:45:38Z</time>
      </trkpt>
      <trkpt lat="45.28283" lon="2.05379">
        <ele>690</ele>
        <time>2012-03-25T10:45:40Z</time>
      </trkpt>
      <trkpt lat="45.28272" lon="2.05355">
        <ele>689</ele>
        <time>2012-03-25T10:45:41Z</time>
      </trkpt>
      <trkpt lat="45.28266" lon="2.05342">
        <ele>688</ele>
        <time>2012-03-25T10:45:42Z</time>
      </trkpt>
      <trkpt lat="45.28259" lon="2.05329">
        <ele>687</ele>
        <time>2012-03-25T10:45:44Z</time>
      </trkpt>
      <trkpt lat="45.28247" lon="2.05299">
        <ele>686</ele>
        <time>2012-03-25T10:45:45Z</time>
      </trkpt>
      <trkpt lat="45.28241" lon="2.05285">
        <ele>685</ele>
        <time>2012-03-25T10:45:46Z</time>
      </trkpt>
      <trkpt lat="45.28236" lon="2.05268">
        <ele>685</ele>
        <time>2012-03-25T10:45:48Z</time>
      </trkpt>
      <trkpt lat="45.28228" lon="2.05237">
        <ele>686</ele>
        <time>2012-03-25T10:45:49Z</time>
      </trkpt>
      <trkpt lat="45.28227" lon="2.05221">
        <ele>685</ele>
        <time>2012-03-25T10:45:50Z</time>
      </trkpt>
      <trkpt lat="45.28227" lon="2.05221">
        <ele>685</ele>
        <time>2012-03-25T10:45:52Z</time>
      </trkpt>
      <trkpt lat="45.28225" lon="2.05204">
        <ele>686</ele>
        <time>2012-03-25T10:45:53Z</time>
      </trkpt>
      <trkpt lat="45.28218" lon="2.0515">
        <ele>685</ele>
        <time>2012-03-25T10:45:54Z</time>
      </trkpt>
      <trkpt lat="45.28214" lon="2.05133">
        <ele>684</ele>
        <time>2012-03-25T10:45:56Z</time>
      </trkpt>
      <trkpt lat="45.28203" lon="2.05098">
        <ele>682</ele>
        <time>2012-03-25T10:45:57Z</time>
      </trkpt>
      <trkpt lat="45.28198" lon="2.05081">
        <ele>682</ele>
        <time>2012-03-25T10:45:58Z</time>
      </trkpt>
      <trkpt lat="45.28192" lon="2.05066">
        <ele>682</ele>
        <time>2012-03-25T10:46:00Z</time>
      </trkpt>
      <trkpt lat="45.2818" lon="2.05032">
        <ele>680</ele>
        <time>2012-03-25T10:46:01Z</time>
      </trkpt>
      <trkpt lat="45.28174" lon="2.05017">
        <ele>680</ele>
        <time>2012-03-25T10:46:02Z</time>
      </trkpt>
      <trkpt lat="45.28168" lon="2.05002">
        <ele>680</ele>
        <time>2012-03-25T10:46:04Z</time>
      </trkpt>
      <trkpt lat="45.28158" lon="2.04971">
        <ele>679</ele>
        <time>2012-03-25T10:46:05Z</time>
      </trkpt>
      <trkpt lat="45.28156" lon="2.04955">
        <ele>680</ele>
        <time>2012-03-25T10:46:06Z</time>
      </trkpt>
      <trkpt lat="45.28154" lon="2.04938">
        <ele>679</ele>
        <time>2012-03-25T10:46:08Z</time>
      </trkpt>
      <trkpt lat="45.28153" lon="2.04904">
        <ele>676</ele>
        <time>2012-03-25T10:46:09Z</time>
      </trkpt>
      <trkpt lat="45.28152" lon="2.04886">
        <ele>675</ele>
        <time>2012-03-25T10:46:10Z</time>
      </trkpt>
      <trkpt lat="45.28152" lon="2.04869">
        <ele>675</ele>
        <time>2012-03-25T10:46:12Z</time>
      </trkpt>
      <trkpt lat="45.2815" lon="2.04837">
        <ele>673</ele>
        <time>2012-03-25T10:46:13Z</time>
      </trkpt>
      <trkpt lat="45.28147" lon="2.04821">
        <ele>674</ele>
        <time>2012-03-25T10:46:14Z</time>
      </trkpt>
      <trkpt lat="45.28142" lon="2.04807">
        <ele>673</ele>
        <time>2012-03-25T10:46:16Z</time>
      </trkpt>
      <trkpt lat="45.28131" lon="2.04778">
        <ele>672</ele>
        <time>2012-03-25T10:46:17Z</time>
      </trkpt>
      <trkpt lat="45.28124" lon="2.04765">
        <ele>672</ele>
        <time>2012-03-25T10:46:18Z</time>
      </trkpt>
      <trkpt lat="45.28116" lon="2.04752">
        <ele>671</ele>
        <time>2012-03-25T10:46:20Z</time>
      </trkpt>
      <trkpt lat="45.28102" lon="2.04727">
        <ele>670</ele>
        <time>2012-03-25T10:46:21Z</time>
      </trkpt>
      <trkpt lat="45.28095" lon="2.04714">
        <ele>669</ele>
        <time>2012-03-25T10:46:22Z</time>
      </trkpt>
      <trkpt lat="45.28089" lon="2.04701">
        <ele>669</ele>
        <time>2012-03-25T10:46:24Z</time>
      </trkpt>
      <trkpt lat="45.28079" lon="2.04674">
        <ele>669</ele>
        <time>2012-03-25T10:46:25Z</time>
      </trkpt>
      <trkpt lat="45.28074" lon="2.0466">
        <ele>669</ele>
        <time>2012-03-25T10:46:26Z</time>
      </trkpt>
      <trkpt lat="45.28072" lon="2.04646">
        <ele>669</ele>
        <time>2012-03-25T10:46:27Z</time>
      </trkpt>
      <trkpt lat="45.28068" lon="2.04632">
        <ele>669</ele>
        <time>2012-03-25T10:46:28Z</time>
      </trkpt>
      <trkpt lat="45.28065" lon="2.04618">
        <ele>669</ele>
        <time>2012-03-25T10:46:29Z</time>
      </trkpt>
      <trkpt lat="45.28063" lon="2.046">
        <ele>668</ele>
        <time>2012-03-25T10:46:30Z</time>
      </trkpt>
      <trkpt lat="45.2806" lon="2.04584">
        <ele>668</ele>
        <time>2012-03-25T10:46:31Z</time>
      </trkpt>
      <trkpt lat="45.28057" lon="2.04568">
        <ele>668</ele>
        <time>2012-03-25T10:46:32Z</time>
      </trkpt>
      <trkpt lat="45.28054" lon="2.04553">
        <ele>669</ele>
        <time>2012-03-25T10:46:33Z</time>
      </trkpt>
      <trkpt lat="45.2805" lon="2.04537">
        <ele>668</ele>
        <time>2012-03-25T10:46:34Z</time>
      </trkpt>
      <trkpt lat="45.28044" lon="2.0452">
        <ele>668</ele>
        <time>2012-03-25T10:46:35Z</time>
      </trkpt>
      <trkpt lat="45.28036" lon="2.04506">
        <ele>668</ele>
        <time>2012-03-25T10:46:36Z</time>
      </trkpt>
      <trkpt lat="45.28027" lon="2.04492">
        <ele>667</ele>
        <time>2012-03-25T10:46:37Z</time>
      </trkpt>
      <trkpt lat="45.28019" lon="2.04479">
        <ele>666</ele>
        <time>2012-03-25T10:46:38Z</time>
      </trkpt>
      <trkpt lat="45.28013" lon="2.04467">
        <ele>664</ele>
        <time>2012-03-25T10:46:39Z</time>
      </trkpt>
      <trkpt lat="45.28004" lon="2.04455">
        <ele>664</ele>
        <time>2012-03-25T10:46:40Z</time>
      </trkpt>
      <trkpt lat="45.27994" lon="2.04444">
        <ele>663</ele>
        <time>2012-03-25T10:46:41Z</time>
      </trkpt>
      <trkpt lat="45.27983" lon="2.04436">
        <ele>662</ele>
        <time>2012-03-25T10:46:42Z</time>
      </trkpt>
      <trkpt lat="45.27972" lon="2.04433">
        <ele>662</ele>
        <time>2012-03-25T10:46:43Z</time>
      </trkpt>
      <trkpt lat="45.27963" lon="2.0443">
        <ele>662</ele>
        <time>2012-03-25T10:46:44Z</time>
      </trkpt>
      <trkpt lat="45.27952" lon="2.04428">
        <ele>662</ele>
        <time>2012-03-25T10:46:45Z</time>
      </trkpt>
      <trkpt lat="45.27941" lon="2.04428">
        <ele>662</ele>
        <time>2012-03-25T10:46:46Z</time>
      </trkpt>
      <trkpt lat="45.2793" lon="2.04424">
        <ele>662</ele>
        <time>2012-03-25T10:46:47Z</time>
      </trkpt>
      <trkpt lat="45.2792" lon="2.04418">
        <ele>662</ele>
        <time>2012-03-25T10:46:49Z</time>
      </trkpt>
      <trkpt lat="45.27911" lon="2.04412">
        <ele>662</ele>
        <time>2012-03-25T10:46:50Z</time>
      </trkpt>
      <trkpt lat="45.27901" lon="2.04402">
        <ele>662</ele>
        <time>2012-03-25T10:46:51Z</time>
      </trkpt>
      <trkpt lat="45.2789" lon="2.04393">
        <ele>661</ele>
        <time>2012-03-25T10:46:52Z</time>
      </trkpt>
      <trkpt lat="45.2787" lon="2.04373">
        <ele>661</ele>
        <time>2012-03-25T10:46:53Z</time>
      </trkpt>
      <trkpt lat="45.27861" lon="2.04363">
        <ele>660</ele>
        <time>2012-03-25T10:46:54Z</time>
      </trkpt>
      <trkpt lat="45.27852" lon="2.04353">
        <ele>658</ele>
        <time>2012-03-25T10:46:55Z</time>
      </trkpt>
      <trkpt lat="45.27842" lon="2.04341">
        <ele>657</ele>
        <time>2012-03-25T10:46:56Z</time>
      </trkpt>
      <trkpt lat="45.27834" lon="2.04328">
        <ele>657</ele>
        <time>2012-03-25T10:46:57Z</time>
      </trkpt>
      <trkpt lat="45.27827" lon="2.04314">
        <ele>657</ele>
        <time>2012-03-25T10:46:58Z</time>
      </trkpt>
      <trkpt lat="45.27822" lon="2.04298">
        <ele>657</ele>
        <time>2012-03-25T10:46:59Z</time>
      </trkpt>
      <trkpt lat="45.27822" lon="2.04298">
        <ele>657</ele>
        <time>2012-03-25T10:47:01Z</time>
      </trkpt>
      <trkpt lat="45.27817" lon="2.04283">
        <ele>656</ele>
        <time>2012-03-25T10:47:02Z</time>
      </trkpt>
      <trkpt lat="45.278" lon="2.04238">
        <ele>654</ele>
        <time>2012-03-25T10:47:03Z</time>
      </trkpt>
      <trkpt lat="45.27796" lon="2.04223">
        <ele>654</ele>
        <time>2012-03-25T10:47:05Z</time>
      </trkpt>
      <trkpt lat="45.27788" lon="2.04189">
        <ele>653</ele>
        <time>2012-03-25T10:47:06Z</time>
      </trkpt>
      <trkpt lat="45.27785" lon="2.0417">
        <ele>652</ele>
        <time>2012-03-25T10:47:07Z</time>
      </trkpt>
      <trkpt lat="45.27783" lon="2.04154">
        <ele>652</ele>
        <time>2012-03-25T10:47:09Z</time>
      </trkpt>
      <trkpt lat="45.27781" lon="2.04118">
        <ele>652</ele>
        <time>2012-03-25T10:47:10Z</time>
      </trkpt>
      <trkpt lat="45.27779" lon="2.04103">
        <ele>652</ele>
        <time>2012-03-25T10:47:11Z</time>
      </trkpt>
      <trkpt lat="45.27777" lon="2.04085">
        <ele>651</ele>
        <time>2012-03-25T10:47:13Z</time>
      </trkpt>
      <trkpt lat="45.27776" lon="2.04052">
        <ele>651</ele>
        <time>2012-03-25T10:47:14Z</time>
      </trkpt>
      <trkpt lat="45.27776" lon="2.04035">
        <ele>649</ele>
        <time>2012-03-25T10:47:15Z</time>
      </trkpt>
      <trkpt lat="45.27774" lon="2.0402">
        <ele>650</ele>
        <time>2012-03-25T10:47:17Z</time>
      </trkpt>
      <trkpt lat="45.27774" lon="2.03989">
        <ele>649</ele>
        <time>2012-03-25T10:47:18Z</time>
      </trkpt>
      <trkpt lat="45.27773" lon="2.03972">
        <ele>649</ele>
        <time>2012-03-25T10:47:19Z</time>
      </trkpt>
      <trkpt lat="45.27772" lon="2.03958">
        <ele>648</ele>
        <time>2012-03-25T10:47:21Z</time>
      </trkpt>
      <trkpt lat="45.2777" lon="2.03929">
        <ele>648</ele>
        <time>2012-03-25T10:47:22Z</time>
      </trkpt>
      <trkpt lat="45.27768" lon="2.03915">
        <ele>648</ele>
        <time>2012-03-25T10:47:23Z</time>
      </trkpt>
      <trkpt lat="45.27767" lon="2.039">
        <ele>648</ele>
        <time>2012-03-25T10:47:25Z</time>
      </trkpt>
      <trkpt lat="45.27765" lon="2.0387">
        <ele>646</ele>
        <time>2012-03-25T10:47:26Z</time>
      </trkpt>
      <trkpt lat="45.27763" lon="2.03855">
        <ele>645</ele>
        <time>2012-03-25T10:47:27Z</time>
      </trkpt>
      <trkpt lat="45.27761" lon="2.03841">
        <ele>644</ele>
        <time>2012-03-25T10:47:29Z</time>
      </trkpt>
      <trkpt lat="45.27757" lon="2.03814">
        <ele>644</ele>
        <time>2012-03-25T10:47:30Z</time>
      </trkpt>
      <trkpt lat="45.27752" lon="2.03801">
        <ele>643</ele>
        <time>2012-03-25T10:47:31Z</time>
      </trkpt>
      <trkpt lat="45.2775" lon="2.03788">
        <ele>643</ele>
        <time>2012-03-25T10:47:33Z</time>
      </trkpt>
      <trkpt lat="45.27742" lon="2.03763">
        <ele>641</ele>
        <time>2012-03-25T10:47:34Z</time>
      </trkpt>
      <trkpt lat="45.27738" lon="2.0375">
        <ele>641</ele>
        <time>2012-03-25T10:47:35Z</time>
      </trkpt>
      <trkpt lat="45.27735" lon="2.03738">
        <ele>640</ele>
        <time>2012-03-25T10:47:37Z</time>
      </trkpt>
      <trkpt lat="45.27726" lon="2.03714">
        <ele>640</ele>
        <time>2012-03-25T10:47:38Z</time>
      </trkpt>
      <trkpt lat="45.27723" lon="2.037">
        <ele>640</ele>
        <time>2012-03-25T10:47:39Z</time>
      </trkpt>
      <trkpt lat="45.27718" lon="2.03689">
        <ele>639</ele>
        <time>2012-03-25T10:47:41Z</time>
      </trkpt>
      <trkpt lat="45.27711" lon="2.03665">
        <ele>639</ele>
        <time>2012-03-25T10:47:42Z</time>
      </trkpt>
      <trkpt lat="45.27707" lon="2.03653">
        <ele>639</ele>
        <time>2012-03-25T10:47:43Z</time>
      </trkpt>
      <trkpt lat="45.27704" lon="2.03642">
        <ele>639</ele>
        <time>2012-03-25T10:47:45Z</time>
      </trkpt>
      <trkpt lat="45.27696" lon="2.03618">
        <ele>639</ele>
        <time>2012-03-25T10:47:46Z</time>
      </trkpt>
      <trkpt lat="45.27692" lon="2.03608">
        <ele>639</ele>
        <time>2012-03-25T10:47:47Z</time>
      </trkpt>
      <trkpt lat="45.27688" lon="2.03595">
        <ele>639</ele>
        <time>2012-03-25T10:47:48Z</time>
      </trkpt>
      <trkpt lat="45.27685" lon="2.03585">
        <ele>638</ele>
        <time>2012-03-25T10:47:49Z</time>
      </trkpt>
      <trkpt lat="45.27681" lon="2.03574">
        <ele>639</ele>
        <time>2012-03-25T10:47:50Z</time>
      </trkpt>
      <trkpt lat="45.27677" lon="2.03563">
        <ele>638</ele>
        <time>2012-03-25T10:47:51Z</time>
      </trkpt>
      <trkpt lat="45.27674" lon="2.03551">
        <ele>638</ele>
        <time>2012-03-25T10:47:52Z</time>
      </trkpt>
      <trkpt lat="45.27671" lon="2.0354">
        <ele>638</ele>
        <time>2012-03-25T10:47:53Z</time>
      </trkpt>
      <trkpt lat="45.27666" lon="2.03531">
        <ele>638</ele>
        <time>2012-03-25T10:47:54Z</time>
      </trkpt>
      <trkpt lat="45.27663" lon="2.03518">
        <ele>639</ele>
        <time>2012-03-25T10:47:55Z</time>
      </trkpt>
      <trkpt lat="45.27659" lon="2.03508">
        <ele>639</ele>
        <time>2012-03-25T10:47:56Z</time>
      </trkpt>
      <trkpt lat="45.27654" lon="2.03497">
        <ele>638</ele>
        <time>2012-03-25T10:47:58Z</time>
      </trkpt>
      <trkpt lat="45.27645" lon="2.03476">
        <ele>637</ele>
        <time>2012-03-25T10:47:59Z</time>
      </trkpt>
      <trkpt lat="45.27638" lon="2.03468">
        <ele>637</ele>
        <time>2012-03-25T10:48:00Z</time>
      </trkpt>
      <trkpt lat="45.27631" lon="2.0346">
        <ele>636</ele>
        <time>2012-03-25T10:48:02Z</time>
      </trkpt>
      <trkpt lat="45.27617" lon="2.03444">
        <ele>636</ele>
        <time>2012-03-25T10:48:03Z</time>
      </trkpt>
      <trkpt lat="45.2761" lon="2.03435">
        <ele>635</ele>
        <time>2012-03-25T10:48:04Z</time>
      </trkpt>
      <trkpt lat="45.27602" lon="2.03429">
        <ele>635</ele>
        <time>2012-03-25T10:48:06Z</time>
      </trkpt>
      <trkpt lat="45.27588" lon="2.03415">
        <ele>635</ele>
        <time>2012-03-25T10:48:07Z</time>
      </trkpt>
      <trkpt lat="45.2758" lon="2.03408">
        <ele>635</ele>
        <time>2012-03-25T10:48:08Z</time>
      </trkpt>
      <trkpt lat="45.27572" lon="2.03403">
        <ele>635</ele>
        <time>2012-03-25T10:48:10Z</time>
      </trkpt>
      <trkpt lat="45.27572" lon="2.03403">
        <ele>635</ele>
        <time>2012-03-25T10:48:11Z</time>
      </trkpt>
      <trkpt lat="45.27557" lon="2.0339">
        <ele>635</ele>
        <time>2012-03-25T10:48:12Z</time>
      </trkpt>
      <trkpt lat="45.27549" lon="2.03383">
        <ele>633</ele>
        <time>2012-03-25T10:48:14Z</time>
      </trkpt>
      <trkpt lat="45.27542" lon="2.03377">
        <ele>633</ele>
        <time>2012-03-25T10:48:15Z</time>
      </trkpt>
      <trkpt lat="45.27526" lon="2.03366">
        <ele>633</ele>
        <time>2012-03-25T10:48:16Z</time>
      </trkpt>
      <trkpt lat="45.2752" lon="2.0336">
        <ele>633</ele>
        <time>2012-03-25T10:48:18Z</time>
      </trkpt>
      <trkpt lat="45.27512" lon="2.03354">
        <ele>632</ele>
        <time>2012-03-25T10:48:19Z</time>
      </trkpt>
      <trkpt lat="45.275" lon="2.03339">
        <ele>633</ele>
        <time>2012-03-25T10:48:20Z</time>
      </trkpt>
      <trkpt lat="45.27495" lon="2.0333">
        <ele>633</ele>
        <time>2012-03-25T10:48:22Z</time>
      </trkpt>
      <trkpt lat="45.27489" lon="2.03321">
        <ele>632</ele>
        <time>2012-03-25T10:48:23Z</time>
      </trkpt>
      <trkpt lat="45.27476" lon="2.03304">
        <ele>633</ele>
        <time>2012-03-25T10:48:24Z</time>
      </trkpt>
      <trkpt lat="45.2747" lon="2.03295">
        <ele>633</ele>
        <time>2012-03-25T10:48:26Z</time>
      </trkpt>
      <trkpt lat="45.27464" lon="2.03286">
        <ele>632</ele>
        <time>2012-03-25T10:48:27Z</time>
      </trkpt>
      <trkpt lat="45.27449" lon="2.03271">
        <ele>632</ele>
        <time>2012-03-25T10:48:28Z</time>
      </trkpt>
      <trkpt lat="45.2744" lon="2.03264">
        <ele>632</ele>
        <time>2012-03-25T10:48:30Z</time>
      </trkpt>
      <trkpt lat="45.27411" lon="2.03247">
        <ele>629</ele>
        <time>2012-03-25T10:48:31Z</time>
      </trkpt>
      <trkpt lat="45.274" lon="2.03241">
        <ele>628</ele>
        <time>2012-03-25T10:48:32Z</time>
      </trkpt>
      <trkpt lat="45.27391" lon="2.03234">
        <ele>628</ele>
        <time>2012-03-25T10:48:34Z</time>
      </trkpt>
      <trkpt lat="45.27371" lon="2.0322">
        <ele>628</ele>
        <time>2012-03-25T10:48:35Z</time>
      </trkpt>
      <trkpt lat="45.27361" lon="2.03212">
        <ele>627</ele>
        <time>2012-03-25T10:48:36Z</time>
      </trkpt>
      <trkpt lat="45.27351" lon="2.03206">
        <ele>627</ele>
        <time>2012-03-25T10:48:38Z</time>
      </trkpt>
      <trkpt lat="45.27331" lon="2.03192">
        <ele>627</ele>
        <time>2012-03-25T10:48:39Z</time>
      </trkpt>
      <trkpt lat="45.27322" lon="2.03185">
        <ele>627</ele>
        <time>2012-03-25T10:48:40Z</time>
      </trkpt>
      <trkpt lat="45.27313" lon="2.03178">
        <ele>626</ele>
        <time>2012-03-25T10:48:42Z</time>
      </trkpt>
      <trkpt lat="45.27297" lon="2.0316">
        <ele>625</ele>
        <time>2012-03-25T10:48:43Z</time>
      </trkpt>
      <trkpt lat="45.27292" lon="2.03148">
        <ele>624</ele>
        <time>2012-03-25T10:48:44Z</time>
      </trkpt>
      <trkpt lat="45.27287" lon="2.03136">
        <ele>623</ele>
        <time>2012-03-25T10:48:46Z</time>
      </trkpt>
      <trkpt lat="45.2728" lon="2.03108">
        <ele>623</ele>
        <time>2012-03-25T10:48:47Z</time>
      </trkpt>
      <trkpt lat="45.27276" lon="2.03093">
        <ele>623</ele>
        <time>2012-03-25T10:48:48Z</time>
      </trkpt>
      <trkpt lat="45.27272" lon="2.03078">
        <ele>622</ele>
        <time>2012-03-25T10:48:50Z</time>
      </trkpt>
      <trkpt lat="45.27262" lon="2.0305">
        <ele>620</ele>
        <time>2012-03-25T10:48:51Z</time>
      </trkpt>
      <trkpt lat="45.27257" lon="2.03038">
        <ele>620</ele>
        <time>2012-03-25T10:48:52Z</time>
      </trkpt>
      <trkpt lat="45.27252" lon="2.03024">
        <ele>620</ele>
        <time>2012-03-25T10:48:54Z</time>
      </trkpt>
      <trkpt lat="45.27244" lon="2.03">
        <ele>619</ele>
        <time>2012-03-25T10:48:55Z</time>
      </trkpt>
      <trkpt lat="45.2724" lon="2.02989">
        <ele>619</ele>
        <time>2012-03-25T10:48:56Z</time>
      </trkpt>
      <trkpt lat="45.27236" lon="2.02977">
        <ele>619</ele>
        <time>2012-03-25T10:48:58Z</time>
      </trkpt>
      <trkpt lat="45.27229" lon="2.02953">
        <ele>618</ele>
        <time>2012-03-25T10:48:59Z</time>
      </trkpt>
      <trkpt lat="45.27224" lon="2.02941">
        <ele>617</ele>
        <time>2012-03-25T10:49:00Z</time>
      </trkpt>
      <trkpt lat="45.27221" lon="2.02932">
        <ele>616</ele>
        <time>2012-03-25T10:49:02Z</time>
      </trkpt>
      <trkpt lat="45.27214" lon="2.02913">
        <ele>615</ele>
        <time>2012-03-25T10:49:03Z</time>
      </trkpt>
      <trkpt lat="45.27211" lon="2.02904">
        <ele>614</ele>
        <time>2012-03-25T10:49:04Z</time>
      </trkpt>
      <trkpt lat="45.27207" lon="2.02897">
        <ele>613</ele>
        <time>2012-03-25T10:49:06Z</time>
      </trkpt>
      <trkpt lat="45.27201" lon="2.02884">
        <ele>611</ele>
        <time>2012-03-25T10:49:07Z</time>
      </trkpt>
      <trkpt lat="45.27198" lon="2.02878">
        <ele>611</ele>
        <time>2012-03-25T10:49:08Z</time>
      </trkpt>
      <trkpt lat="45.27196" lon="2.02873">
        <ele>610</ele>
        <time>2012-03-25T10:49:10Z</time>
      </trkpt>
      <trkpt lat="45.27191" lon="2.02866">
        <ele>610</ele>
        <time>2012-03-25T10:49:11Z</time>
      </trkpt>
      <trkpt lat="45.27188" lon="2.02865">
        <ele>610</ele>
        <time>2012-03-25T10:49:12Z</time>
      </trkpt>
      <trkpt lat="45.27184" lon="2.02866">
        <ele>609</ele>
        <time>2012-03-25T10:49:14Z</time>
      </trkpt>
      <trkpt lat="45.27182" lon="2.02873">
        <ele>608</ele>
        <time>2012-03-25T10:49:15Z</time>
      </trkpt>
      <trkpt lat="45.27184" lon="2.02876">
        <ele>608</ele>
        <time>2012-03-25T10:49:16Z</time>
      </trkpt>
      <trkpt lat="45.27185" lon="2.02881">
        <ele>608</ele>
        <time>2012-03-25T10:49:18Z</time>
      </trkpt>
      <trkpt lat="45.27189" lon="2.02887">
        <ele>608</ele>
        <time>2012-03-25T10:49:19Z</time>
      </trkpt>
      <trkpt lat="45.27191" lon="2.02889">
        <ele>608</ele>
        <time>2012-03-25T10:49:20Z</time>
      </trkpt>
      <trkpt lat="45.27192" lon="2.02893">
        <ele>608</ele>
        <time>2012-03-25T10:49:22Z</time>
      </trkpt>
      <trkpt lat="45.27193" lon="2.029">
        <ele>609</ele>
        <time>2012-03-25T10:49:23Z</time>
      </trkpt>
      <trkpt lat="45.27196" lon="2.02903">
        <ele>609</ele>
        <time>2012-03-25T10:49:24Z</time>
      </trkpt>
      <trkpt lat="45.27199" lon="2.02905">
        <ele>608</ele>
        <time>2012-03-25T10:49:26Z</time>
      </trkpt>
      <trkpt lat="45.27201" lon="2.029">
        <ele>607</ele>
        <time>2012-03-25T10:49:27Z</time>
      </trkpt>
      <trkpt lat="45.272" lon="2.02896">
        <ele>607</ele>
        <time>2012-03-25T10:49:28Z</time>
      </trkpt>
      <trkpt lat="45.272" lon="2.02891">
        <ele>607</ele>
        <time>2012-03-25T10:49:30Z</time>
      </trkpt>
      <trkpt lat="45.27197" lon="2.02881">
        <ele>607</ele>
        <time>2012-03-25T10:49:31Z</time>
      </trkpt>
      <trkpt lat="45.27194" lon="2.02876">
        <ele>607</ele>
        <time>2012-03-25T10:49:32Z</time>
      </trkpt>
      <trkpt lat="45.27192" lon="2.02873">
        <ele>607</ele>
        <time>2012-03-25T10:49:34Z</time>
      </trkpt>
      <trkpt lat="45.27187" lon="2.02862">
        <ele>607</ele>
        <time>2012-03-25T10:49:35Z</time>
      </trkpt>
      <trkpt lat="45.27184" lon="2.02858">
        <ele>607</ele>
        <time>2012-03-25T10:49:36Z</time>
      </trkpt>
      <trkpt lat="45.27183" lon="2.02853">
        <ele>607</ele>
        <time>2012-03-25T10:49:38Z</time>
      </trkpt>
      <trkpt lat="45.27178" lon="2.02841">
        <ele>607</ele>
        <time>2012-03-25T10:49:39Z</time>
      </trkpt>
      <trkpt lat="45.27174" lon="2.02835">
        <ele>608</ele>
        <time>2012-03-25T10:49:40Z</time>
      </trkpt>
      <trkpt lat="45.27171" lon="2.02831">
        <ele>608</ele>
        <time>2012-03-25T10:49:42Z</time>
      </trkpt>
      <trkpt lat="45.27165" lon="2.0282">
        <ele>608</ele>
        <time>2012-03-25T10:49:43Z</time>
      </trkpt>
      <trkpt lat="45.27161" lon="2.02816">
        <ele>609</ele>
        <time>2012-03-25T10:49:44Z</time>
      </trkpt>
      <trkpt lat="45.27157" lon="2.02812">
        <ele>609</ele>
        <time>2012-03-25T10:49:46Z</time>
      </trkpt>
      <trkpt lat="45.2715" lon="2.02802">
        <ele>608</ele>
        <time>2012-03-25T10:49:47Z</time>
      </trkpt>
      <trkpt lat="45.27148" lon="2.02797">
        <ele>608</ele>
        <time>2012-03-25T10:49:48Z</time>
      </trkpt>
      <trkpt lat="45.27144" lon="2.0279">
        <ele>608</ele>
        <time>2012-03-25T10:49:50Z</time>
      </trkpt>
      <trkpt lat="45.27138" lon="2.02776">
        <ele>608</ele>
        <time>2012-03-25T10:49:51Z</time>
      </trkpt>
      <trkpt lat="45.27135" lon="2.0277">
        <ele>608</ele>
        <time>2012-03-25T10:49:52Z</time>
      </trkpt>
      <trkpt lat="45.27133" lon="2.02763">
        <ele>608</ele>
        <time>2012-03-25T10:49:54Z</time>
      </trkpt>
      <trkpt lat="45.27131" lon="2.02748">
        <ele>607</ele>
        <time>2012-03-25T10:49:55Z</time>
      </trkpt>
      <trkpt lat="45.27131" lon="2.0274">
        <ele>606</ele>
        <time>2012-03-25T10:49:56Z</time>
      </trkpt>
      <trkpt lat="45.27131" lon="2.02732">
        <ele>606</ele>
        <time>2012-03-25T10:49:58Z</time>
      </trkpt>
      <trkpt lat="45.27131" lon="2.02716">
        <ele>605</ele>
        <time>2012-03-25T10:49:59Z</time>
      </trkpt>
      <trkpt lat="45.27131" lon="2.02707">
        <ele>604</ele>
        <time>2012-03-25T10:50:00Z</time>
      </trkpt>
      <trkpt lat="45.27132" lon="2.02699">
        <ele>604</ele>
        <time>2012-03-25T10:50:02Z</time>
      </trkpt>
      <trkpt lat="45.27133" lon="2.02684">
        <ele>604</ele>
        <time>2012-03-25T10:50:03Z</time>
      </trkpt>
      <trkpt lat="45.27134" lon="2.02677">
        <ele>604</ele>
        <time>2012-03-25T10:50:04Z</time>
      </trkpt>
      <trkpt lat="45.27136" lon="2.02669">
        <ele>605</ele>
        <time>2012-03-25T10:50:06Z</time>
      </trkpt>
      <trkpt lat="45.27139" lon="2.02651">
        <ele>605</ele>
        <time>2012-03-25T10:50:07Z</time>
      </trkpt>
      <trkpt lat="45.2714" lon="2.02643">
        <ele>605</ele>
        <time>2012-03-25T10:50:08Z</time>
      </trkpt>
      <trkpt lat="45.27141" lon="2.02634">
        <ele>605</ele>
        <time>2012-03-25T10:50:10Z</time>
      </trkpt>
      <trkpt lat="45.27146" lon="2.02614">
        <ele>605</ele>
        <time>2012-03-25T10:50:11Z</time>
      </trkpt>
      <trkpt lat="45.27147" lon="2.02604">
        <ele>605</ele>
        <time>2012-03-25T10:50:12Z</time>
      </trkpt>
      <trkpt lat="45.27149" lon="2.02596">
        <ele>605</ele>
        <time>2012-03-25T10:50:14Z</time>
      </trkpt>
      <trkpt lat="45.27151" lon="2.02579">
        <ele>605</ele>
        <time>2012-03-25T10:50:15Z</time>
      </trkpt>
      <trkpt lat="45.27153" lon="2.0257">
        <ele>605</ele>
        <time>2012-03-25T10:50:16Z</time>
      </trkpt>
      <trkpt lat="45.27155" lon="2.02563">
        <ele>604</ele>
        <time>2012-03-25T10:50:18Z</time>
      </trkpt>
      <trkpt lat="45.27158" lon="2.02543">
        <ele>604</ele>
        <time>2012-03-25T10:50:19Z</time>
      </trkpt>
      <trkpt lat="45.2716" lon="2.02535">
        <ele>604</ele>
        <time>2012-03-25T10:50:20Z</time>
      </trkpt>
      <trkpt lat="45.2716" lon="2.02526">
        <ele>604</ele>
        <time>2012-03-25T10:50:22Z</time>
      </trkpt>
      <trkpt lat="45.27163" lon="2.02508">
        <ele>603</ele>
        <time>2012-03-25T10:50:23Z</time>
      </trkpt>
      <trkpt lat="45.27164" lon="2.025">
        <ele>604</ele>
        <time>2012-03-25T10:50:24Z</time>
      </trkpt>
      <trkpt lat="45.27166" lon="2.02491">
        <ele>604</ele>
        <time>2012-03-25T10:50:26Z</time>
      </trkpt>
      <trkpt lat="45.27169" lon="2.02474">
        <ele>604</ele>
        <time>2012-03-25T10:50:27Z</time>
      </trkpt>
      <trkpt lat="45.2717" lon="2.02463">
        <ele>604</ele>
        <time>2012-03-25T10:50:28Z</time>
      </trkpt>
      <trkpt lat="45.27171" lon="2.02454">
        <ele>604</ele>
        <time>2012-03-25T10:50:30Z</time>
      </trkpt>
      <trkpt lat="45.27176" lon="2.02433">
        <ele>604</ele>
        <time>2012-03-25T10:50:31Z</time>
      </trkpt>
      <trkpt lat="45.27177" lon="2.02425">
        <ele>604</ele>
        <time>2012-03-25T10:50:32Z</time>
      </trkpt>
      <trkpt lat="45.27179" lon="2.02415">
        <ele>604</ele>
        <time>2012-03-25T10:50:34Z</time>
      </trkpt>
      <trkpt lat="45.27184" lon="2.02395">
        <ele>604</ele>
        <time>2012-03-25T10:50:35Z</time>
      </trkpt>
      <trkpt lat="45.27187" lon="2.02386">
        <ele>604</ele>
        <time>2012-03-25T10:50:36Z</time>
      </trkpt>
      <trkpt lat="45.27192" lon="2.02378">
        <ele>603</ele>
        <time>2012-03-25T10:50:38Z</time>
      </trkpt>
      <trkpt lat="45.272" lon="2.02362">
        <ele>603</ele>
        <time>2012-03-25T10:50:39Z</time>
      </trkpt>
      <trkpt lat="45.27204" lon="2.02352">
        <ele>603</ele>
        <time>2012-03-25T10:50:40Z</time>
      </trkpt>
      <trkpt lat="45.27208" lon="2.02344">
        <ele>603</ele>
        <time>2012-03-25T10:50:42Z</time>
      </trkpt>
      <trkpt lat="45.27216" lon="2.02327">
        <ele>602</ele>
        <time>2012-03-25T10:50:43Z</time>
      </trkpt>
      <trkpt lat="45.2722" lon="2.02318">
        <ele>602</ele>
        <time>2012-03-25T10:50:44Z</time>
      </trkpt>
      <trkpt lat="45.27224" lon="2.0231">
        <ele>603</ele>
        <time>2012-03-25T10:50:46Z</time>
      </trkpt>
      <trkpt lat="45.27233" lon="2.02292">
        <ele>603</ele>
        <time>2012-03-25T10:50:47Z</time>
      </trkpt>
      <trkpt lat="45.27236" lon="2.02283">
        <ele>603</ele>
        <time>2012-03-25T10:50:48Z</time>
      </trkpt>
      <trkpt lat="45.27242" lon="2.02273">
        <ele>603</ele>
        <time>2012-03-25T10:50:50Z</time>
      </trkpt>
      <trkpt lat="45.2725" lon="2.02257">
        <ele>603</ele>
        <time>2012-03-25T10:50:51Z</time>
      </trkpt>
      <trkpt lat="45.27254" lon="2.02248">
        <ele>603</ele>
        <time>2012-03-25T10:50:52Z</time>
      </trkpt>
      <trkpt lat="45.27258" lon="2.0224">
        <ele>602</ele>
        <time>2012-03-25T10:50:54Z</time>
      </trkpt>
      <trkpt lat="45.27264" lon="2.02226">
        <ele>601</ele>
        <time>2012-03-25T10:50:55Z</time>
      </trkpt>
      <trkpt lat="45.2727" lon="2.02216">
        <ele>601</ele>
        <time>2012-03-25T10:50:56Z</time>
      </trkpt>
      <trkpt lat="45.27274" lon="2.02207">
        <ele>601</ele>
        <time>2012-03-25T10:50:58Z</time>
      </trkpt>
      <trkpt lat="45.27284" lon="2.0219">
        <ele>600</ele>
        <time>2012-03-25T10:50:59Z</time>
      </trkpt>
      <trkpt lat="45.2729" lon="2.02178">
        <ele>600</ele>
        <time>2012-03-25T10:51:00Z</time>
      </trkpt>
      <trkpt lat="45.27297" lon="2.02168">
        <ele>600</ele>
        <time>2012-03-25T10:51:02Z</time>
      </trkpt>
      <trkpt lat="45.27309" lon="2.02151">
        <ele>599</ele>
        <time>2012-03-25T10:51:03Z</time>
      </trkpt>
      <trkpt lat="45.27314" lon="2.02147">
        <ele>600</ele>
        <time>2012-03-25T10:51:04Z</time>
      </trkpt>
      <trkpt lat="45.2732" lon="2.0214">
        <ele>599</ele>
        <time>2012-03-25T10:51:06Z</time>
      </trkpt>
      <trkpt lat="45.27334" lon="2.02127">
        <ele>599</ele>
        <time>2012-03-25T10:51:07Z</time>
      </trkpt>
      <trkpt lat="45.27341" lon="2.02122">
        <ele>599</ele>
        <time>2012-03-25T10:51:08Z</time>
      </trkpt>
      <trkpt lat="45.27349" lon="2.02115">
        <ele>600</ele>
        <time>2012-03-25T10:51:10Z</time>
      </trkpt>
      <trkpt lat="45.27364" lon="2.02106">
        <ele>600</ele>
        <time>2012-03-25T10:51:11Z</time>
      </trkpt>
      <trkpt lat="45.27372" lon="2.02104">
        <ele>599</ele>
        <time>2012-03-25T10:51:12Z</time>
      </trkpt>
      <trkpt lat="45.2738" lon="2.02101">
        <ele>599</ele>
        <time>2012-03-25T10:51:14Z</time>
      </trkpt>
      <trkpt lat="45.27395" lon="2.02096">
        <ele>599</ele>
        <time>2012-03-25T10:51:15Z</time>
      </trkpt>
      <trkpt lat="45.27402" lon="2.02093">
        <ele>599</ele>
        <time>2012-03-25T10:51:16Z</time>
      </trkpt>
      <trkpt lat="45.2741" lon="2.0209">
        <ele>598</ele>
        <time>2012-03-25T10:51:17Z</time>
      </trkpt>
      <trkpt lat="45.27417" lon="2.02086">
        <ele>599</ele>
        <time>2012-03-25T10:51:18Z</time>
      </trkpt>
      <trkpt lat="45.27424" lon="2.02084">
        <ele>599</ele>
        <time>2012-03-25T10:51:19Z</time>
      </trkpt>
      <trkpt lat="45.27432" lon="2.02077">
        <ele>598</ele>
        <time>2012-03-25T10:51:20Z</time>
      </trkpt>
      <trkpt lat="45.27439" lon="2.02075">
        <ele>598</ele>
        <time>2012-03-25T10:51:21Z</time>
      </trkpt>
      <trkpt lat="45.27447" lon="2.02072">
        <ele>598</ele>
        <time>2012-03-25T10:51:22Z</time>
      </trkpt>
      <trkpt lat="45.27455" lon="2.02067">
        <ele>598</ele>
        <time>2012-03-25T10:51:23Z</time>
      </trkpt>
      <trkpt lat="45.27462" lon="2.02061">
        <ele>597</ele>
        <time>2012-03-25T10:51:24Z</time>
      </trkpt>
      <trkpt lat="45.2747" lon="2.02058">
        <ele>597</ele>
        <time>2012-03-25T10:51:25Z</time>
      </trkpt>
      <trkpt lat="45.27477" lon="2.02052">
        <ele>595</ele>
        <time>2012-03-25T10:51:26Z</time>
      </trkpt>
      <trkpt lat="45.27484" lon="2.02048">
        <ele>596</ele>
        <time>2012-03-25T10:51:27Z</time>
      </trkpt>
      <trkpt lat="45.27491" lon="2.02043">
        <ele>596</ele>
        <time>2012-03-25T10:51:28Z</time>
      </trkpt>
      <trkpt lat="45.27498" lon="2.0204">
        <ele>597</ele>
        <time>2012-03-25T10:51:29Z</time>
      </trkpt>
      <trkpt lat="45.27505" lon="2.02036">
        <ele>597</ele>
        <time>2012-03-25T10:51:30Z</time>
      </trkpt>
      <trkpt lat="45.27512" lon="2.02033">
        <ele>597</ele>
        <time>2012-03-25T10:51:31Z</time>
      </trkpt>
      <trkpt lat="45.27518" lon="2.02029">
        <ele>597</ele>
        <time>2012-03-25T10:51:32Z</time>
      </trkpt>
      <trkpt lat="45.27524" lon="2.02025">
        <ele>598</ele>
        <time>2012-03-25T10:51:33Z</time>
      </trkpt>
      <trkpt lat="45.27531" lon="2.02021">
        <ele>598</ele>
        <time>2012-03-25T10:51:34Z</time>
      </trkpt>
      <trkpt lat="45.27539" lon="2.02015">
        <ele>598</ele>
        <time>2012-03-25T10:51:35Z</time>
      </trkpt>
      <trkpt lat="45.27549" lon="2.02005">
        <ele>598</ele>
        <time>2012-03-25T10:51:36Z</time>
      </trkpt>
      <trkpt lat="45.27556" lon="2.01999">
        <ele>597</ele>
        <time>2012-03-25T10:51:37Z</time>
      </trkpt>
      <trkpt lat="45.27566" lon="2.01991">
        <ele>596</ele>
        <time>2012-03-25T10:51:39Z</time>
      </trkpt>
      <trkpt lat="45.27575" lon="2.01981">
        <ele>595</ele>
        <time>2012-03-25T10:51:40Z</time>
      </trkpt>
      <trkpt lat="45.27582" lon="2.01972">
        <ele>594</ele>
        <time>2012-03-25T10:51:41Z</time>
      </trkpt>
      <trkpt lat="45.2759" lon="2.01962">
        <ele>594</ele>
        <time>2012-03-25T10:51:42Z</time>
      </trkpt>
      <trkpt lat="45.27608" lon="2.01946">
        <ele>593</ele>
        <time>2012-03-25T10:51:43Z</time>
      </trkpt>
      <trkpt lat="45.27608" lon="2.01946">
        <ele>593</ele>
        <time>2012-03-25T10:51:45Z</time>
      </trkpt>
      <trkpt lat="45.27617" lon="2.01939">
        <ele>593</ele>
        <time>2012-03-25T10:51:46Z</time>
      </trkpt>
      <trkpt lat="45.27645" lon="2.01917">
        <ele>592</ele>
        <time>2012-03-25T10:51:47Z</time>
      </trkpt>
      <trkpt lat="45.27653" lon="2.01908">
        <ele>591</ele>
        <time>2012-03-25T10:51:49Z</time>
      </trkpt>
      <trkpt lat="45.27672" lon="2.01892">
        <ele>591</ele>
        <time>2012-03-25T10:51:50Z</time>
      </trkpt>
      <trkpt lat="45.27682" lon="2.01884">
        <ele>591</ele>
        <time>2012-03-25T10:51:51Z</time>
      </trkpt>
      <trkpt lat="45.27691" lon="2.01875">
        <ele>590</ele>
        <time>2012-03-25T10:51:53Z</time>
      </trkpt>
      <trkpt lat="45.2771" lon="2.01857">
        <ele>590</ele>
        <time>2012-03-25T10:51:54Z</time>
      </trkpt>
      <trkpt lat="45.27719" lon="2.0185">
        <ele>590</ele>
        <time>2012-03-25T10:51:55Z</time>
      </trkpt>
      <trkpt lat="45.27729" lon="2.01841">
        <ele>589</ele>
        <time>2012-03-25T10:51:57Z</time>
      </trkpt>
      <trkpt lat="45.27748" lon="2.01819">
        <ele>588</ele>
        <time>2012-03-25T10:51:58Z</time>
      </trkpt>
      <trkpt lat="45.27757" lon="2.01805">
        <ele>586</ele>
        <time>2012-03-25T10:51:59Z</time>
      </trkpt>
      <trkpt lat="45.27765" lon="2.01793">
        <ele>586</ele>
        <time>2012-03-25T10:52:01Z</time>
      </trkpt>
      <trkpt lat="45.2778" lon="2.01765">
        <ele>583</ele>
        <time>2012-03-25T10:52:02Z</time>
      </trkpt>
      <trkpt lat="45.27787" lon="2.01752">
        <ele>583</ele>
        <time>2012-03-25T10:52:03Z</time>
      </trkpt>
      <trkpt lat="45.27794" lon="2.01738">
        <ele>582</ele>
        <time>2012-03-25T10:52:05Z</time>
      </trkpt>
      <trkpt lat="45.27807" lon="2.01711">
        <ele>581</ele>
        <time>2012-03-25T10:52:06Z</time>
      </trkpt>
      <trkpt lat="45.27813" lon="2.01697">
        <ele>580</ele>
        <time>2012-03-25T10:52:07Z</time>
      </trkpt>
      <trkpt lat="45.27819" lon="2.01682">
        <ele>578</ele>
        <time>2012-03-25T10:52:09Z</time>
      </trkpt>
      <trkpt lat="45.2783" lon="2.01653">
        <ele>576</ele>
        <time>2012-03-25T10:52:10Z</time>
      </trkpt>
      <trkpt lat="45.27834" lon="2.01637">
        <ele>575</ele>
        <time>2012-03-25T10:52:11Z</time>
      </trkpt>
      <trkpt lat="45.27837" lon="2.01621">
        <ele>574</ele>
        <time>2012-03-25T10:52:13Z</time>
      </trkpt>
      <trkpt lat="45.2784" lon="2.01585">
        <ele>572</ele>
        <time>2012-03-25T10:52:14Z</time>
      </trkpt>
      <trkpt lat="45.2784" lon="2.01568">
        <ele>571</ele>
        <time>2012-03-25T10:52:15Z</time>
      </trkpt>
      <trkpt lat="45.2784" lon="2.0155">
        <ele>570</ele>
        <time>2012-03-25T10:52:17Z</time>
      </trkpt>
      <trkpt lat="45.27839" lon="2.01514">
        <ele>569</ele>
        <time>2012-03-25T10:52:18Z</time>
      </trkpt>
      <trkpt lat="45.27842" lon="2.01497">
        <ele>567</ele>
        <time>2012-03-25T10:52:19Z</time>
      </trkpt>
      <trkpt lat="45.27845" lon="2.01482">
        <ele>566</ele>
        <time>2012-03-25T10:52:21Z</time>
      </trkpt>
      <trkpt lat="45.27852" lon="2.01448">
        <ele>565</ele>
        <time>2012-03-25T10:52:22Z</time>
      </trkpt>
      <trkpt lat="45.27855" lon="2.01432">
        <ele>565</ele>
        <time>2012-03-25T10:52:23Z</time>
      </trkpt>
      <trkpt lat="45.27859" lon="2.01416">
        <ele>564</ele>
        <time>2012-03-25T10:52:25Z</time>
      </trkpt>
      <trkpt lat="45.27866" lon="2.01383">
        <ele>563</ele>
        <time>2012-03-25T10:52:26Z</time>
      </trkpt>
      <trkpt lat="45.27869" lon="2.01368">
        <ele>562</ele>
        <time>2012-03-25T10:52:27Z</time>
      </trkpt>
      <trkpt lat="45.27872" lon="2.01352">
        <ele>561</ele>
        <time>2012-03-25T10:52:29Z</time>
      </trkpt>
      <trkpt lat="45.27876" lon="2.0132">
        <ele>559</ele>
        <time>2012-03-25T10:52:30Z</time>
      </trkpt>
      <trkpt lat="45.27877" lon="2.01303">
        <ele>559</ele>
        <time>2012-03-25T10:52:31Z</time>
      </trkpt>
      <trkpt lat="45.27876" lon="2.01286">
        <ele>557</ele>
        <time>2012-03-25T10:52:33Z</time>
      </trkpt>
      <trkpt lat="45.27873" lon="2.01253">
        <ele>556</ele>
        <time>2012-03-25T10:52:34Z</time>
      </trkpt>
      <trkpt lat="45.2787" lon="2.01238">
        <ele>555</ele>
        <time>2012-03-25T10:52:35Z</time>
      </trkpt>
      <trkpt lat="45.27868" lon="2.01224">
        <ele>555</ele>
        <time>2012-03-25T10:52:37Z</time>
      </trkpt>
      <trkpt lat="45.27862" lon="2.01197">
        <ele>554</ele>
        <time>2012-03-25T10:52:38Z</time>
      </trkpt>
      <trkpt lat="45.27859" lon="2.01184">
        <ele>554</ele>
        <time>2012-03-25T10:52:39Z</time>
      </trkpt>
      <trkpt lat="45.27857" lon="2.01172">
        <ele>553</ele>
        <time>2012-03-25T10:52:41Z</time>
      </trkpt>
      <trkpt lat="45.27853" lon="2.01147">
        <ele>552</ele>
        <time>2012-03-25T10:52:42Z</time>
      </trkpt>
      <trkpt lat="45.27849" lon="2.01136">
        <ele>552</ele>
        <time>2012-03-25T10:52:43Z</time>
      </trkpt>
      <trkpt lat="45.27846" lon="2.01123">
        <ele>552</ele>
        <time>2012-03-25T10:52:45Z</time>
      </trkpt>
      <trkpt lat="45.27839" lon="2.01103">
        <ele>553</ele>
        <time>2012-03-25T10:52:46Z</time>
      </trkpt>
      <trkpt lat="45.27835" lon="2.01093">
        <ele>554</ele>
        <time>2012-03-25T10:52:47Z</time>
      </trkpt>
      <trkpt lat="45.2783" lon="2.01087">
        <ele>554</ele>
        <time>2012-03-25T10:52:49Z</time>
      </trkpt>
      <trkpt lat="45.27816" lon="2.01078">
        <ele>554</ele>
        <time>2012-03-25T10:52:50Z</time>
      </trkpt>
      <trkpt lat="45.2781" lon="2.01074">
        <ele>554</ele>
        <time>2012-03-25T10:52:51Z</time>
      </trkpt>
      <trkpt lat="45.27805" lon="2.01071">
        <ele>555</ele>
        <time>2012-03-25T10:52:53Z</time>
      </trkpt>
      <trkpt lat="45.27796" lon="2.01063">
        <ele>555</ele>
        <time>2012-03-25T10:52:54Z</time>
      </trkpt>
      <trkpt lat="45.2779" lon="2.0106">
        <ele>555</ele>
        <time>2012-03-25T10:52:55Z</time>
      </trkpt>
      <trkpt lat="45.27786" lon="2.01057">
        <ele>556</ele>
        <time>2012-03-25T10:52:57Z</time>
      </trkpt>
      <trkpt lat="45.27778" lon="2.01049">
        <ele>558</ele>
        <time>2012-03-25T10:52:58Z</time>
      </trkpt>
      <trkpt lat="45.27774" lon="2.01047">
        <ele>558</ele>
        <time>2012-03-25T10:52:59Z</time>
      </trkpt>
      <trkpt lat="45.2777" lon="2.01043">
        <ele>558</ele>
        <time>2012-03-25T10:53:01Z</time>
      </trkpt>
      <trkpt lat="45.27759" lon="2.01042">
        <ele>559</ele>
        <time>2012-03-25T10:53:02Z</time>
      </trkpt>
      <trkpt lat="45.27754" lon="2.01041">
        <ele>559</ele>
        <time>2012-03-25T10:53:03Z</time>
      </trkpt>
      <trkpt lat="45.2775" lon="2.01039">
        <ele>559</ele>
        <time>2012-03-25T10:53:05Z</time>
      </trkpt>
      <trkpt lat="45.27741" lon="2.01033">
        <ele>559</ele>
        <time>2012-03-25T10:53:06Z</time>
      </trkpt>
      <trkpt lat="45.27738" lon="2.0103">
        <ele>560</ele>
        <time>2012-03-25T10:53:07Z</time>
      </trkpt>
      <trkpt lat="45.27734" lon="2.01027">
        <ele>561</ele>
        <time>2012-03-25T10:53:09Z</time>
      </trkpt>
      <trkpt lat="45.27728" lon="2.01021">
        <ele>561</ele>
        <time>2012-03-25T10:53:10Z</time>
      </trkpt>
      <trkpt lat="45.27723" lon="2.01018">
        <ele>561</ele>
        <time>2012-03-25T10:53:11Z</time>
      </trkpt>
      <trkpt lat="45.2772" lon="2.01016">
        <ele>560</ele>
        <time>2012-03-25T10:53:13Z</time>
      </trkpt>
      <trkpt lat="45.27713" lon="2.01011">
        <ele>559</ele>
        <time>2012-03-25T10:53:14Z</time>
      </trkpt>
      <trkpt lat="45.2771" lon="2.01007">
        <ele>559</ele>
        <time>2012-03-25T10:53:15Z</time>
      </trkpt>
      <trkpt lat="45.27707" lon="2.01004">
        <ele>560</ele>
        <time>2012-03-25T10:53:17Z</time>
      </trkpt>
      <trkpt lat="45.277" lon="2.00996">
        <ele>559</ele>
        <time>2012-03-25T10:53:18Z</time>
      </trkpt>
      <trkpt lat="45.27697" lon="2.00992">
        <ele>559</ele>
        <time>2012-03-25T10:53:19Z</time>
      </trkpt>
      <trkpt lat="45.27694" lon="2.00988">
        <ele>560</ele>
        <time>2012-03-25T10:53:21Z</time>
      </trkpt>
      <trkpt lat="45.27688" lon="2.00983">
        <ele>560</ele>
        <time>2012-03-25T10:53:22Z</time>
      </trkpt>
      <trkpt lat="45.27686" lon="2.00981">
        <ele>560</ele>
        <time>2012-03-25T10:53:23Z</time>
      </trkpt>
      <trkpt lat="45.27685" lon="2.00977">
        <ele>560</ele>
        <time>2012-03-25T10:53:25Z</time>
      </trkpt>
      <trkpt lat="45.2768" lon="2.00969">
        <ele>561</ele>
        <time>2012-03-25T10:53:26Z</time>
      </trkpt>
      <trkpt lat="45.27678" lon="2.00966">
        <ele>562</ele>
        <time>2012-03-25T10:53:27Z</time>
      </trkpt>
      <trkpt lat="45.27677" lon="2.00961">
        <ele>562</ele>
        <time>2012-03-25T10:53:29Z</time>
      </trkpt>
      <trkpt lat="45.27672" lon="2.00953">
        <ele>563</ele>
        <time>2012-03-25T10:53:30Z</time>
      </trkpt>
      <trkpt lat="45.27672" lon="2.00949">
        <ele>564</ele>
        <time>2012-03-25T10:53:31Z</time>
      </trkpt>
      <trkpt lat="45.27669" lon="2.00946">
        <ele>564</ele>
        <time>2012-03-25T10:53:33Z</time>
      </trkpt>
      <trkpt lat="45.27665" lon="2.00939">
        <ele>565</ele>
        <time>2012-03-25T10:53:34Z</time>
      </trkpt>
      <trkpt lat="45.27663" lon="2.00936">
        <ele>565</ele>
        <time>2012-03-25T10:53:35Z</time>
      </trkpt>
      <trkpt lat="45.27661" lon="2.00933">
        <ele>566</ele>
        <time>2012-03-25T10:53:37Z</time>
      </trkpt>
      <trkpt lat="45.27657" lon="2.00926">
        <ele>566</ele>
        <time>2012-03-25T10:53:38Z</time>
      </trkpt>
      <trkpt lat="45.27655" lon="2.00924">
        <ele>566</ele>
        <time>2012-03-25T10:53:39Z</time>
      </trkpt>
      <trkpt lat="45.27651" lon="2.00922">
        <ele>567</ele>
        <time>2012-03-25T10:53:41Z</time>
      </trkpt>
      <trkpt lat="45.27648" lon="2.00917">
        <ele>568</ele>
        <time>2012-03-25T10:53:42Z</time>
      </trkpt>
      <trkpt lat="45.27646" lon="2.00915">
        <ele>568</ele>
        <time>2012-03-25T10:53:43Z</time>
      </trkpt>
      <trkpt lat="45.27643" lon="2.00913">
        <ele>569</ele>
        <time>2012-03-25T10:53:45Z</time>
      </trkpt>
      <trkpt lat="45.2764" lon="2.00908">
        <ele>570</ele>
        <time>2012-03-25T10:53:46Z</time>
      </trkpt>
      <trkpt lat="45.27638" lon="2.00905">
        <ele>570</ele>
        <time>2012-03-25T10:53:47Z</time>
      </trkpt>
      <trkpt lat="45.27635" lon="2.00902">
        <ele>570</ele>
        <time>2012-03-25T10:53:49Z</time>
      </trkpt>
      <trkpt lat="45.2763" lon="2.00899">
        <ele>571</ele>
        <time>2012-03-25T10:53:50Z</time>
      </trkpt>
      <trkpt lat="45.27628" lon="2.00895">
        <ele>571</ele>
        <time>2012-03-25T10:53:51Z</time>
      </trkpt>
      <trkpt lat="45.27627" lon="2.00891">
        <ele>571</ele>
        <time>2012-03-25T10:53:53Z</time>
      </trkpt>
      <trkpt lat="45.27623" lon="2.00881">
        <ele>571</ele>
        <time>2012-03-25T10:53:54Z</time>
      </trkpt>
      <trkpt lat="45.2762" lon="2.00878">
        <ele>571</ele>
        <time>2012-03-25T10:53:55Z</time>
      </trkpt>
      <trkpt lat="45.27619" lon="2.00875">
        <ele>571</ele>
        <time>2012-03-25T10:53:57Z</time>
      </trkpt>
      <trkpt lat="45.27615" lon="2.00869">
        <ele>572</ele>
        <time>2012-03-25T10:53:58Z</time>
      </trkpt>
      <trkpt lat="45.27613" lon="2.00866">
        <ele>572</ele>
        <time>2012-03-25T10:53:59Z</time>
      </trkpt>
      <trkpt lat="45.27613" lon="2.00864">
        <ele>573</ele>
        <time>2012-03-25T10:54:01Z</time>
      </trkpt>
      <trkpt lat="45.2761" lon="2.00856">
        <ele>573</ele>
        <time>2012-03-25T10:54:02Z</time>
      </trkpt>
      <trkpt lat="45.2761" lon="2.00854">
        <ele>574</ele>
        <time>2012-03-25T10:54:03Z</time>
      </trkpt>
      <trkpt lat="45.2761" lon="2.0085">
        <ele>574</ele>
        <time>2012-03-25T10:54:05Z</time>
      </trkpt>
      <trkpt lat="45.27611" lon="2.00838">
        <ele>573</ele>
        <time>2012-03-25T10:54:06Z</time>
      </trkpt>
      <trkpt lat="45.27611" lon="2.00835">
        <ele>572</ele>
        <time>2012-03-25T10:54:07Z</time>
      </trkpt>
      <trkpt lat="45.27611" lon="2.00832">
        <ele>572</ele>
        <time>2012-03-25T10:54:09Z</time>
      </trkpt>
      <trkpt lat="45.27611" lon="2.00824">
        <ele>573</ele>
        <time>2012-03-25T10:54:10Z</time>
      </trkpt>
      <trkpt lat="45.27609" lon="2.00822">
        <ele>573</ele>
        <time>2012-03-25T10:54:11Z</time>
      </trkpt>
      <trkpt lat="45.27608" lon="2.00819">
        <ele>574</ele>
        <time>2012-03-25T10:54:13Z</time>
      </trkpt>
      <trkpt lat="45.27609" lon="2.00813">
        <ele>575</ele>
        <time>2012-03-25T10:54:14Z</time>
      </trkpt>
      <trkpt lat="45.2761" lon="2.00811">
        <ele>575</ele>
        <time>2012-03-25T10:54:15Z</time>
      </trkpt>
      <trkpt lat="45.27612" lon="2.00805">
        <ele>575</ele>
        <time>2012-03-25T10:54:17Z</time>
      </trkpt>
      <trkpt lat="45.27616" lon="2.00795">
        <ele>575</ele>
        <time>2012-03-25T10:54:18Z</time>
      </trkpt>
      <trkpt lat="45.27617" lon="2.0079">
        <ele>574</ele>
        <time>2012-03-25T10:54:19Z</time>
      </trkpt>
      <trkpt lat="45.27619" lon="2.00787">
        <ele>575</ele>
        <time>2012-03-25T10:54:21Z</time>
      </trkpt>
      <trkpt lat="45.27622" lon="2.00781">
        <ele>577</ele>
        <time>2012-03-25T10:54:22Z</time>
      </trkpt>
      <trkpt lat="45.27623" lon="2.00778">
        <ele>577</ele>
        <time>2012-03-25T10:54:23Z</time>
      </trkpt>
      <trkpt lat="45.27624" lon="2.00775">
        <ele>577</ele>
        <time>2012-03-25T10:54:25Z</time>
      </trkpt>
      <trkpt lat="45.27626" lon="2.00768">
        <ele>576</ele>
        <time>2012-03-25T10:54:26Z</time>
      </trkpt>
      <trkpt lat="45.27627" lon="2.00767">
        <ele>577</ele>
        <time>2012-03-25T10:54:27Z</time>
      </trkpt>
      <trkpt lat="45.27629" lon="2.00764">
        <ele>577</ele>
        <time>2012-03-25T10:54:29Z</time>
      </trkpt>
      <trkpt lat="45.27633" lon="2.0076">
        <ele>578</ele>
        <time>2012-03-25T10:54:30Z</time>
      </trkpt>
      <trkpt lat="45.27634" lon="2.00758">
        <ele>579</ele>
        <time>2012-03-25T10:54:31Z</time>
      </trkpt>
      <trkpt lat="45.27636" lon="2.00755">
        <ele>580</ele>
        <time>2012-03-25T10:54:33Z</time>
      </trkpt>
      <trkpt lat="45.27639" lon="2.00752">
        <ele>581</ele>
        <time>2012-03-25T10:54:34Z</time>
      </trkpt>
      <trkpt lat="45.27641" lon="2.0075">
        <ele>581</ele>
        <time>2012-03-25T10:54:35Z</time>
      </trkpt>
      <trkpt lat="45.27645" lon="2.00746">
        <ele>582</ele>
        <time>2012-03-25T10:54:37Z</time>
      </trkpt>
      <trkpt lat="45.27649" lon="2.00739">
        <ele>583</ele>
        <time>2012-03-25T10:54:38Z</time>
      </trkpt>
      <trkpt lat="45.27654" lon="2.00735">
        <ele>582</ele>
        <time>2012-03-25T10:54:39Z</time>
      </trkpt>
      <trkpt lat="45.27656" lon="2.00732">
        <ele>583</ele>
        <time>2012-03-25T10:54:41Z</time>
      </trkpt>
      <trkpt lat="45.2766" lon="2.00725">
        <ele>583</ele>
        <time>2012-03-25T10:54:42Z</time>
      </trkpt>
      <trkpt lat="45.27661" lon="2.00724">
        <ele>583</ele>
        <time>2012-03-25T10:54:43Z</time>
      </trkpt>
      <trkpt lat="45.27662" lon="2.00724">
        <ele>584</ele>
        <time>2012-03-25T10:54:45Z</time>
      </trkpt>
      <trkpt lat="45.27666" lon="2.00718">
        <ele>585</ele>
        <time>2012-03-25T10:54:46Z</time>
      </trkpt>
      <trkpt lat="45.27669" lon="2.00716">
        <ele>585</ele>
        <time>2012-03-25T10:54:47Z</time>
      </trkpt>
      <trkpt lat="45.27671" lon="2.00713">
        <ele>586</ele>
        <time>2012-03-25T10:54:49Z</time>
      </trkpt>
      <trkpt lat="45.27675" lon="2.00709">
        <ele>585</ele>
        <time>2012-03-25T10:54:50Z</time>
      </trkpt>
      <trkpt lat="45.27678" lon="2.00707">
        <ele>585</ele>
        <time>2012-03-25T10:54:51Z</time>
      </trkpt>
      <trkpt lat="45.27679" lon="2.00704">
        <ele>586</ele>
        <time>2012-03-25T10:54:53Z</time>
      </trkpt>
      <trkpt lat="45.27684" lon="2.00697">
        <ele>585</ele>
        <time>2012-03-25T10:54:54Z</time>
      </trkpt>
      <trkpt lat="45.27686" lon="2.00694">
        <ele>585</ele>
        <time>2012-03-25T10:54:55Z</time>
      </trkpt>
      <trkpt lat="45.27686" lon="2.00692">
        <ele>585</ele>
        <time>2012-03-25T10:54:57Z</time>
      </trkpt>
      <trkpt lat="45.27692" lon="2.00687">
        <ele>586</ele>
        <time>2012-03-25T10:54:58Z</time>
      </trkpt>
      <trkpt lat="45.27694" lon="2.00683">
        <ele>586</ele>
        <time>2012-03-25T10:54:59Z</time>
      </trkpt>
      <trkpt lat="45.27697" lon="2.0068">
        <ele>586</ele>
        <time>2012-03-25T10:55:01Z</time>
      </trkpt>
      <trkpt lat="45.27701" lon="2.00676">
        <ele>586</ele>
        <time>2012-03-25T10:55:02Z</time>
      </trkpt>
      <trkpt lat="45.27702" lon="2.00676">
        <ele>586</ele>
        <time>2012-03-25T10:55:03Z</time>
      </trkpt>
      <trkpt lat="45.27705" lon="2.00673">
        <ele>586</ele>
        <time>2012-03-25T10:55:05Z</time>
      </trkpt>
      <trkpt lat="45.27709" lon="2.00667">
        <ele>586</ele>
        <time>2012-03-25T10:55:06Z</time>
      </trkpt>
      <trkpt lat="45.27712" lon="2.00664">
        <ele>586</ele>
        <time>2012-03-25T10:55:07Z</time>
      </trkpt>
      <trkpt lat="45.27715" lon="2.0066">
        <ele>586</ele>
        <time>2012-03-25T10:55:09Z</time>
      </trkpt>
      <trkpt lat="45.27719" lon="2.00654">
        <ele>586</ele>
        <time>2012-03-25T10:55:10Z</time>
      </trkpt>
      <trkpt lat="45.2772" lon="2.00654">
        <ele>587</ele>
        <time>2012-03-25T10:55:11Z</time>
      </trkpt>
      <trkpt lat="45.27722" lon="2.00651">
        <ele>588</ele>
        <time>2012-03-25T10:55:13Z</time>
      </trkpt>
      <trkpt lat="45.27726" lon="2.00645">
        <ele>588</ele>
        <time>2012-03-25T10:55:14Z</time>
      </trkpt>
      <trkpt lat="45.27728" lon="2.00641">
        <ele>588</ele>
        <time>2012-03-25T10:55:15Z</time>
      </trkpt>
      <trkpt lat="45.2773" lon="2.00641">
        <ele>589</ele>
        <time>2012-03-25T10:55:17Z</time>
      </trkpt>
      <trkpt lat="45.27734" lon="2.00636">
        <ele>590</ele>
        <time>2012-03-25T10:55:18Z</time>
      </trkpt>
      <trkpt lat="45.27737" lon="2.00634">
        <ele>589</ele>
        <time>2012-03-25T10:55:19Z</time>
      </trkpt>
      <trkpt lat="45.27739" lon="2.0063">
        <ele>590</ele>
        <time>2012-03-25T10:55:21Z</time>
      </trkpt>
      <trkpt lat="45.27744" lon="2.00624">
        <ele>590</ele>
        <time>2012-03-25T10:55:22Z</time>
      </trkpt>
      <trkpt lat="45.27743" lon="2.00624">
        <ele>592</ele>
        <time>2012-03-25T10:55:23Z</time>
      </trkpt>
      <trkpt lat="45.27746" lon="2.00622">
        <ele>592</ele>
        <time>2012-03-25T10:55:25Z</time>
      </trkpt>
      <trkpt lat="45.2775" lon="2.00616">
        <ele>593</ele>
        <time>2012-03-25T10:55:26Z</time>
      </trkpt>
      <trkpt lat="45.27752" lon="2.0061">
        <ele>592</ele>
        <time>2012-03-25T10:55:27Z</time>
      </trkpt>
      <trkpt lat="45.27755" lon="2.00608">
        <ele>591</ele>
        <time>2012-03-25T10:55:29Z</time>
      </trkpt>
      <trkpt lat="45.2776" lon="2.00604">
        <ele>592</ele>
        <time>2012-03-25T10:55:30Z</time>
      </trkpt>
      <trkpt lat="45.27762" lon="2.00602">
        <ele>592</ele>
        <time>2012-03-25T10:55:31Z</time>
      </trkpt>
      <trkpt lat="45.27763" lon="2.00598">
        <ele>593</ele>
        <time>2012-03-25T10:55:33Z</time>
      </trkpt>
      <trkpt lat="45.27766" lon="2.00591">
        <ele>593</ele>
        <time>2012-03-25T10:55:34Z</time>
      </trkpt>
      <trkpt lat="45.27767" lon="2.0059">
        <ele>594</ele>
        <time>2012-03-25T10:55:35Z</time>
      </trkpt>
      <trkpt lat="45.27769" lon="2.00587">
        <ele>595</ele>
        <time>2012-03-25T10:55:37Z</time>
      </trkpt>
      <trkpt lat="45.27773" lon="2.00582">
        <ele>595</ele>
        <time>2012-03-25T10:55:38Z</time>
      </trkpt>
      <trkpt lat="45.27775" lon="2.0058">
        <ele>595</ele>
        <time>2012-03-25T10:55:39Z</time>
      </trkpt>
      <trkpt lat="45.27777" lon="2.00579">
        <ele>596</ele>
        <time>2012-03-25T10:55:41Z</time>
      </trkpt>
      <trkpt lat="45.27782" lon="2.00573">
        <ele>596</ele>
        <time>2012-03-25T10:55:42Z</time>
      </trkpt>
      <trkpt lat="45.27783" lon="2.00568">
        <ele>595</ele>
        <time>2012-03-25T10:55:43Z</time>
      </trkpt>
      <trkpt lat="45.27786" lon="2.00564">
        <ele>595</ele>
        <time>2012-03-25T10:55:45Z</time>
      </trkpt>
      <trkpt lat="45.27791" lon="2.00556">
        <ele>594</ele>
        <time>2012-03-25T10:55:46Z</time>
      </trkpt>
      <trkpt lat="45.27794" lon="2.00552">
        <ele>594</ele>
        <time>2012-03-25T10:55:47Z</time>
      </trkpt>
      <trkpt lat="45.27796" lon="2.00548">
        <ele>594</ele>
        <time>2012-03-25T10:55:49Z</time>
      </trkpt>
      <trkpt lat="45.27801" lon="2.00542">
        <ele>592</ele>
        <time>2012-03-25T10:55:50Z</time>
      </trkpt>
      <trkpt lat="45.27804" lon="2.00541">
        <ele>592</ele>
        <time>2012-03-25T10:55:51Z</time>
      </trkpt>
      <trkpt lat="45.27806" lon="2.00539">
        <ele>592</ele>
        <time>2012-03-25T10:55:53Z</time>
      </trkpt>
      <trkpt lat="45.27809" lon="2.00534">
        <ele>592</ele>
        <time>2012-03-25T10:55:54Z</time>
      </trkpt>
      <trkpt lat="45.27812" lon="2.00531">
        <ele>592</ele>
        <time>2012-03-25T10:55:55Z</time>
      </trkpt>
      <trkpt lat="45.27814" lon="2.00527">
        <ele>591</ele>
        <time>2012-03-25T10:55:57Z</time>
      </trkpt>
      <trkpt lat="45.27819" lon="2.00521">
        <ele>592</ele>
        <time>2012-03-25T10:55:58Z</time>
      </trkpt>
      <trkpt lat="45.2782" lon="2.00518">
        <ele>592</ele>
        <time>2012-03-25T10:55:59Z</time>
      </trkpt>
      <trkpt lat="45.27822" lon="2.00515">
        <ele>592</ele>
        <time>2012-03-25T10:56:01Z</time>
      </trkpt>
      <trkpt lat="45.27824" lon="2.00516">
        <ele>594</ele>
        <time>2012-03-25T10:56:02Z</time>
      </trkpt>
      <trkpt lat="45.27826" lon="2.00512">
        <ele>594</ele>
        <time>2012-03-25T10:56:03Z</time>
      </trkpt>
      <trkpt lat="45.27828" lon="2.0051">
        <ele>594</ele>
        <time>2012-03-25T10:56:04Z</time>
      </trkpt>
      <trkpt lat="45.2783" lon="2.00507">
        <ele>595</ele>
        <time>2012-03-25T10:56:05Z</time>
      </trkpt>
      <trkpt lat="45.27832" lon="2.00504">
        <ele>595</ele>
        <time>2012-03-25T10:56:06Z</time>
      </trkpt>
      <trkpt lat="45.27833" lon="2.00502">
        <ele>596</ele>
        <time>2012-03-25T10:56:07Z</time>
      </trkpt>
      <trkpt lat="45.27835" lon="2.005">
        <ele>596</ele>
        <time>2012-03-25T10:56:08Z</time>
      </trkpt>
      <trkpt lat="45.27837" lon="2.00496">
        <ele>596</ele>
        <time>2012-03-25T10:56:09Z</time>
      </trkpt>
      <trkpt lat="45.27839" lon="2.00494">
        <ele>596</ele>
        <time>2012-03-25T10:56:10Z</time>
      </trkpt>
      <trkpt lat="45.27842" lon="2.00492">
        <ele>594</ele>
        <time>2012-03-25T10:56:11Z</time>
      </trkpt>
      <trkpt lat="45.27844" lon="2.00489">
        <ele>594</ele>
        <time>2012-03-25T10:56:12Z</time>
      </trkpt>
      <trkpt lat="45.27846" lon="2.00486">
        <ele>594</ele>
        <time>2012-03-25T10:56:13Z</time>
      </trkpt>
      <trkpt lat="45.27849" lon="2.00483">
        <ele>594</ele>
        <time>2012-03-25T10:56:14Z</time>
      </trkpt>
      <trkpt lat="45.27851" lon="2.0048">
        <ele>594</ele>
        <time>2012-03-25T10:56:15Z</time>
      </trkpt>
      <trkpt lat="45.27853" lon="2.00477">
        <ele>593</ele>
        <time>2012-03-25T10:56:16Z</time>
      </trkpt>
      <trkpt lat="45.27855" lon="2.00474">
        <ele>592</ele>
        <time>2012-03-25T10:56:17Z</time>
      </trkpt>
      <trkpt lat="45.27858" lon="2.00469">
        <ele>593</ele>
        <time>2012-03-25T10:56:18Z</time>
      </trkpt>
      <trkpt lat="45.27861" lon="2.00465">
        <ele>593</ele>
        <time>2012-03-25T10:56:19Z</time>
      </trkpt>
      <trkpt lat="45.27864" lon="2.00461">
        <ele>593</ele>
        <time>2012-03-25T10:56:20Z</time>
      </trkpt>
      <trkpt lat="45.27867" lon="2.00458">
        <ele>594</ele>
        <time>2012-03-25T10:56:21Z</time>
      </trkpt>
      <trkpt lat="45.27868" lon="2.00457">
        <ele>596</ele>
        <time>2012-03-25T10:56:22Z</time>
      </trkpt>
      <trkpt lat="45.2787" lon="2.00456">
        <ele>595</ele>
        <time>2012-03-25T10:56:23Z</time>
      </trkpt>
      <trkpt lat="45.27872" lon="2.00454">
        <ele>595</ele>
        <time>2012-03-25T10:56:24Z</time>
      </trkpt>
      <trkpt lat="45.27874" lon="2.0045">
        <ele>595</ele>
        <time>2012-03-25T10:56:26Z</time>
      </trkpt>
      <trkpt lat="45.27876" lon="2.00448">
        <ele>595</ele>
        <time>2012-03-25T10:56:27Z</time>
      </trkpt>
      <trkpt lat="45.27878" lon="2.00445">
        <ele>596</ele>
        <time>2012-03-25T10:56:28Z</time>
      </trkpt>
      <trkpt lat="45.27879" lon="2.00444">
        <ele>597</ele>
        <time>2012-03-25T10:56:29Z</time>
      </trkpt>
      <trkpt lat="45.27882" lon="2.0044">
        <ele>597</ele>
        <time>2012-03-25T10:56:30Z</time>
      </trkpt>
      <trkpt lat="45.27883" lon="2.00439">
        <ele>597</ele>
        <time>2012-03-25T10:56:31Z</time>
      </trkpt>
      <trkpt lat="45.27885" lon="2.00435">
        <ele>597</ele>
        <time>2012-03-25T10:56:32Z</time>
      </trkpt>
      <trkpt lat="45.27886" lon="2.00431">
        <ele>598</ele>
        <time>2012-03-25T10:56:33Z</time>
      </trkpt>
      <trkpt lat="45.27888" lon="2.00429">
        <ele>598</ele>
        <time>2012-03-25T10:56:35Z</time>
      </trkpt>
      <trkpt lat="45.2789" lon="2.00427">
        <ele>598</ele>
        <time>2012-03-25T10:56:36Z</time>
      </trkpt>
      <trkpt lat="45.27891" lon="2.00424">
        <ele>598</ele>
        <time>2012-03-25T10:56:37Z</time>
      </trkpt>
      <trkpt lat="45.27893" lon="2.00422">
        <ele>597</ele>
        <time>2012-03-25T10:56:39Z</time>
      </trkpt>
      <trkpt lat="45.27894" lon="2.00419">
        <ele>598</ele>
        <time>2012-03-25T10:56:40Z</time>
      </trkpt>
      <trkpt lat="45.27899" lon="2.00414">
        <ele>596</ele>
        <time>2012-03-25T10:56:41Z</time>
      </trkpt>
      <trkpt lat="45.279" lon="2.00412">
        <ele>596</ele>
        <time>2012-03-25T10:56:43Z</time>
      </trkpt>
      <trkpt lat="45.27901" lon="2.00409">
        <ele>596</ele>
        <time>2012-03-25T10:56:44Z</time>
      </trkpt>
      <trkpt lat="45.27904" lon="2.00402">
        <ele>596</ele>
        <time>2012-03-25T10:56:45Z</time>
      </trkpt>
      <trkpt lat="45.27906" lon="2.00399">
        <ele>597</ele>
        <time>2012-03-25T10:56:47Z</time>
      </trkpt>
      <trkpt lat="45.27907" lon="2.00396">
        <ele>598</ele>
        <time>2012-03-25T10:56:48Z</time>
      </trkpt>
      <trkpt lat="45.27908" lon="2.0039">
        <ele>599</ele>
        <time>2012-03-25T10:56:49Z</time>
      </trkpt>
      <trkpt lat="45.27909" lon="2.00386">
        <ele>600</ele>
        <time>2012-03-25T10:56:51Z</time>
      </trkpt>
      <trkpt lat="45.2791" lon="2.00383">
        <ele>600</ele>
        <time>2012-03-25T10:56:52Z</time>
      </trkpt>
      <trkpt lat="45.27912" lon="2.00374">
        <ele>603</ele>
        <time>2012-03-25T10:56:53Z</time>
      </trkpt>
      <trkpt lat="45.27915" lon="2.00366">
        <ele>603</ele>
        <time>2012-03-25T10:56:55Z</time>
      </trkpt>
      <trkpt lat="45.27916" lon="2.00358">
        <ele>604</ele>
        <time>2012-03-25T10:56:56Z</time>
      </trkpt>
      <trkpt lat="45.27916" lon="2.00355">
        <ele>604</ele>
        <time>2012-03-25T10:56:57Z</time>
      </trkpt>
      <trkpt lat="45.27916" lon="2.00352">
        <ele>605</ele>
        <time>2012-03-25T10:56:59Z</time>
      </trkpt>
      <trkpt lat="45.27918" lon="2.00345">
        <ele>605</ele>
        <time>2012-03-25T10:57:00Z</time>
      </trkpt>
      <trkpt lat="45.27918" lon="2.00343">
        <ele>606</ele>
        <time>2012-03-25T10:57:01Z</time>
      </trkpt>
      <trkpt lat="45.27919" lon="2.0034">
        <ele>607</ele>
        <time>2012-03-25T10:57:03Z</time>
      </trkpt>
      <trkpt lat="45.27919" lon="2.00333">
        <ele>608</ele>
        <time>2012-03-25T10:57:04Z</time>
      </trkpt>
      <trkpt lat="45.2792" lon="2.0033">
        <ele>608</ele>
        <time>2012-03-25T10:57:05Z</time>
      </trkpt>
      <trkpt lat="45.27921" lon="2.00326">
        <ele>609</ele>
        <time>2012-03-25T10:57:07Z</time>
      </trkpt>
      <trkpt lat="45.27922" lon="2.0032">
        <ele>611</ele>
        <time>2012-03-25T10:57:08Z</time>
      </trkpt>
      <trkpt lat="45.27922" lon="2.00317">
        <ele>611</ele>
        <time>2012-03-25T10:57:09Z</time>
      </trkpt>
      <trkpt lat="45.27923" lon="2.00313">
        <ele>611</ele>
        <time>2012-03-25T10:57:11Z</time>
      </trkpt>
      <trkpt lat="45.27924" lon="2.00304">
        <ele>612</ele>
        <time>2012-03-25T10:57:12Z</time>
      </trkpt>
      <trkpt lat="45.27923" lon="2.00301">
        <ele>614</ele>
        <time>2012-03-25T10:57:13Z</time>
      </trkpt>
      <trkpt lat="45.27923" lon="2.00297">
        <ele>614</ele>
        <time>2012-03-25T10:57:15Z</time>
      </trkpt>
      <trkpt lat="45.27923" lon="2.00291">
        <ele>616</ele>
        <time>2012-03-25T10:57:16Z</time>
      </trkpt>
      <trkpt lat="45.27923" lon="2.00286">
        <ele>616</ele>
        <time>2012-03-25T10:57:17Z</time>
      </trkpt>
      <trkpt lat="45.27923" lon="2.00282">
        <ele>617</ele>
        <time>2012-03-25T10:57:19Z</time>
      </trkpt>
      <trkpt lat="45.27923" lon="2.00271">
        <ele>618</ele>
        <time>2012-03-25T10:57:20Z</time>
      </trkpt>
      <trkpt lat="45.27923" lon="2.00266">
        <ele>619</ele>
        <time>2012-03-25T10:57:21Z</time>
      </trkpt>
      <trkpt lat="45.27923" lon="2.0026">
        <ele>619</ele>
        <time>2012-03-25T10:57:23Z</time>
      </trkpt>
      <trkpt lat="45.27921" lon="2.00249">
        <ele>618</ele>
        <time>2012-03-25T10:57:24Z</time>
      </trkpt>
      <trkpt lat="45.2792" lon="2.00243">
        <ele>618</ele>
        <time>2012-03-25T10:57:25Z</time>
      </trkpt>
      <trkpt lat="45.27919" lon="2.00237">
        <ele>618</ele>
        <time>2012-03-25T10:57:27Z</time>
      </trkpt>
      <trkpt lat="45.27916" lon="2.00224">
        <ele>617</ele>
        <time>2012-03-25T10:57:28Z</time>
      </trkpt>
      <trkpt lat="45.27914" lon="2.00216">
        <ele>616</ele>
        <time>2012-03-25T10:57:29Z</time>
      </trkpt>
      <trkpt lat="45.27912" lon="2.00208">
        <ele>616</ele>
        <time>2012-03-25T10:57:31Z</time>
      </trkpt>
      <trkpt lat="45.27907" lon="2.00194">
        <ele>617</ele>
        <time>2012-03-25T10:57:32Z</time>
      </trkpt>
      <trkpt lat="45.27904" lon="2.00188">
        <ele>617</ele>
        <time>2012-03-25T10:57:33Z</time>
      </trkpt>
      <trkpt lat="45.279" lon="2.00183">
        <ele>616</ele>
        <time>2012-03-25T10:57:35Z</time>
      </trkpt>
      <trkpt lat="45.27894" lon="2.00173">
        <ele>615</ele>
        <time>2012-03-25T10:57:36Z</time>
      </trkpt>
      <trkpt lat="45.27892" lon="2.00168">
        <ele>615</ele>
        <time>2012-03-25T10:57:37Z</time>
      </trkpt>
      <trkpt lat="45.27889" lon="2.00162">
        <ele>616</ele>
        <time>2012-03-25T10:57:39Z</time>
      </trkpt>
      <trkpt lat="45.27884" lon="2.00151">
        <ele>616</ele>
        <time>2012-03-25T10:57:40Z</time>
      </trkpt>
      <trkpt lat="45.2788" lon="2.00146">
        <ele>616</ele>
        <time>2012-03-25T10:57:41Z</time>
      </trkpt>
      <trkpt lat="45.27877" lon="2.00142">
        <ele>615</ele>
        <time>2012-03-25T10:57:43Z</time>
      </trkpt>
      <trkpt lat="45.27871" lon="2.00132">
        <ele>616</ele>
        <time>2012-03-25T10:57:44Z</time>
      </trkpt>
      <trkpt lat="45.27869" lon="2.00127">
        <ele>616</ele>
        <time>2012-03-25T10:57:45Z</time>
      </trkpt>
      <trkpt lat="45.27866" lon="2.00121">
        <ele>617</ele>
        <time>2012-03-25T10:57:47Z</time>
      </trkpt>
      <trkpt lat="45.27861" lon="2.00112">
        <ele>617</ele>
        <time>2012-03-25T10:57:48Z</time>
      </trkpt>
      <trkpt lat="45.27857" lon="2.00107">
        <ele>617</ele>
        <time>2012-03-25T10:57:49Z</time>
      </trkpt>
      <trkpt lat="45.27855" lon="2.00104">
        <ele>616</ele>
        <time>2012-03-25T10:57:51Z</time>
      </trkpt>
      <trkpt lat="45.27849" lon="2.00094">
        <ele>616</ele>
        <time>2012-03-25T10:57:52Z</time>
      </trkpt>
      <trkpt lat="45.27846" lon="2.0009">
        <ele>616</ele>
        <time>2012-03-25T10:57:53Z</time>
      </trkpt>
      <trkpt lat="45.27845" lon="2.00084">
        <ele>616</ele>
        <time>2012-03-25T10:57:55Z</time>
      </trkpt>
      <trkpt lat="45.2784" lon="2.00074">
        <ele>615</ele>
        <time>2012-03-25T10:57:56Z</time>
      </trkpt>
      <trkpt lat="45.27837" lon="2.00068">
        <ele>615</ele>
        <time>2012-03-25T10:57:57Z</time>
      </trkpt>
      <trkpt lat="45.27834" lon="2.00063">
        <ele>615</ele>
        <time>2012-03-25T10:57:59Z</time>
      </trkpt>
      <trkpt lat="45.27829" lon="2.00054">
        <ele>615</ele>
        <time>2012-03-25T10:58:00Z</time>
      </trkpt>
      <trkpt lat="45.27826" lon="2.00049">
        <ele>615</ele>
        <time>2012-03-25T10:58:01Z</time>
      </trkpt>
      <trkpt lat="45.27823" lon="2.00044">
        <ele>615</ele>
        <time>2012-03-25T10:58:03Z</time>
      </trkpt>
      <trkpt lat="45.27818" lon="2.00035">
        <ele>614</ele>
        <time>2012-03-25T10:58:04Z</time>
      </trkpt>
      <trkpt lat="45.27816" lon="2.00031">
        <ele>614</ele>
        <time>2012-03-25T10:58:05Z</time>
      </trkpt>
      <trkpt lat="45.27813" lon="2.00026">
        <ele>614</ele>
        <time>2012-03-25T10:58:07Z</time>
      </trkpt>
      <trkpt lat="45.27807" lon="2.00016">
        <ele>614</ele>
        <time>2012-03-25T10:58:08Z</time>
      </trkpt>
      <trkpt lat="45.27804" lon="2.0001">
        <ele>615</ele>
        <time>2012-03-25T10:58:09Z</time>
      </trkpt>
      <trkpt lat="45.27801" lon="2.00005">
        <ele>614</ele>
        <time>2012-03-25T10:58:11Z</time>
      </trkpt>
      <trkpt lat="45.27795" lon="1.99993">
        <ele>615</ele>
        <time>2012-03-25T10:58:12Z</time>
      </trkpt>
      <trkpt lat="45.27791" lon="1.99985">
        <ele>615</ele>
        <time>2012-03-25T10:58:13Z</time>
      </trkpt>
      <trkpt lat="45.27789" lon="1.99978">
        <ele>615</ele>
        <time>2012-03-25T10:58:15Z</time>
      </trkpt>
      <trkpt lat="45.2778" lon="1.99963">
        <ele>614</ele>
        <time>2012-03-25T10:58:16Z</time>
      </trkpt>
      <trkpt lat="45.27773" lon="1.99956">
        <ele>613</ele>
        <time>2012-03-25T10:58:17Z</time>
      </trkpt>
      <trkpt lat="45.27766" lon="1.99947">
        <ele>612</ele>
        <time>2012-03-25T10:58:19Z</time>
      </trkpt>
      <trkpt lat="45.27757" lon="1.99929">
        <ele>612</ele>
        <time>2012-03-25T10:58:20Z</time>
      </trkpt>
      <trkpt lat="45.2775" lon="1.99919">
        <ele>611</ele>
        <time>2012-03-25T10:58:21Z</time>
      </trkpt>
      <trkpt lat="45.27745" lon="1.99909">
        <ele>611</ele>
        <time>2012-03-25T10:58:23Z</time>
      </trkpt>
      <trkpt lat="45.27735" lon="1.9989">
        <ele>611</ele>
        <time>2012-03-25T10:58:24Z</time>
      </trkpt>
      <trkpt lat="45.2773" lon="1.9988">
        <ele>609</ele>
        <time>2012-03-25T10:58:25Z</time>
      </trkpt>
      <trkpt lat="45.27723" lon="1.9987">
        <ele>609</ele>
        <time>2012-03-25T10:58:27Z</time>
      </trkpt>
      <trkpt lat="45.2771" lon="1.9985">
        <ele>608</ele>
        <time>2012-03-25T10:58:28Z</time>
      </trkpt>
      <trkpt lat="45.27704" lon="1.99839">
        <ele>608</ele>
        <time>2012-03-25T10:58:29Z</time>
      </trkpt>
      <trkpt lat="45.27698" lon="1.99827">
        <ele>607</ele>
        <time>2012-03-25T10:58:31Z</time>
      </trkpt>
      <trkpt lat="45.27686" lon="1.99805">
        <ele>605</ele>
        <time>2012-03-25T10:58:32Z</time>
      </trkpt>
      <trkpt lat="45.27681" lon="1.99794">
        <ele>605</ele>
        <time>2012-03-25T10:58:33Z</time>
      </trkpt>
      <trkpt lat="45.27675" lon="1.99783">
        <ele>604</ele>
        <time>2012-03-25T10:58:35Z</time>
      </trkpt>
      <trkpt lat="45.27661" lon="1.9976">
        <ele>602</ele>
        <time>2012-03-25T10:58:36Z</time>
      </trkpt>
      <trkpt lat="45.27654" lon="1.99747">
        <ele>602</ele>
        <time>2012-03-25T10:58:37Z</time>
      </trkpt>
      <trkpt lat="45.27648" lon="1.99735">
        <ele>601</ele>
        <time>2012-03-25T10:58:39Z</time>
      </trkpt>
      <trkpt lat="45.27636" lon="1.99708">
        <ele>600</ele>
        <time>2012-03-25T10:58:40Z</time>
      </trkpt>
      <trkpt lat="45.27633" lon="1.99693">
        <ele>599</ele>
        <time>2012-03-25T10:58:41Z</time>
      </trkpt>
      <trkpt lat="45.27629" lon="1.99678">
        <ele>598</ele>
        <time>2012-03-25T10:58:43Z</time>
      </trkpt>
      <trkpt lat="45.27628" lon="1.9965">
        <ele>598</ele>
        <time>2012-03-25T10:58:44Z</time>
      </trkpt>
      <trkpt lat="45.27629" lon="1.99637">
        <ele>597</ele>
        <time>2012-03-25T10:58:45Z</time>
      </trkpt>
      <trkpt lat="45.27633" lon="1.99622">
        <ele>596</ele>
        <time>2012-03-25T10:58:47Z</time>
      </trkpt>
      <trkpt lat="45.27645" lon="1.99597">
        <ele>595</ele>
        <time>2012-03-25T10:58:48Z</time>
      </trkpt>
      <trkpt lat="45.27654" lon="1.99585">
        <ele>594</ele>
        <time>2012-03-25T10:58:49Z</time>
      </trkpt>
      <trkpt lat="45.27663" lon="1.99576">
        <ele>594</ele>
        <time>2012-03-25T10:58:51Z</time>
      </trkpt>
      <trkpt lat="45.27683" lon="1.99557">
        <ele>593</ele>
        <time>2012-03-25T10:58:52Z</time>
      </trkpt>
      <trkpt lat="45.27691" lon="1.99547">
        <ele>592</ele>
        <time>2012-03-25T10:58:53Z</time>
      </trkpt>
      <trkpt lat="45.27702" lon="1.99535">
        <ele>591</ele>
        <time>2012-03-25T10:58:55Z</time>
      </trkpt>
      <trkpt lat="45.27718" lon="1.99506">
        <ele>589</ele>
        <time>2012-03-25T10:58:56Z</time>
      </trkpt>
      <trkpt lat="45.27723" lon="1.99492">
        <ele>589</ele>
        <time>2012-03-25T10:58:57Z</time>
      </trkpt>
      <trkpt lat="45.27728" lon="1.99476">
        <ele>589</ele>
        <time>2012-03-25T10:58:59Z</time>
      </trkpt>
      <trkpt lat="45.27731" lon="1.99441">
        <ele>585</ele>
        <time>2012-03-25T10:59:00Z</time>
      </trkpt>
      <trkpt lat="45.27728" lon="1.99423">
        <ele>584</ele>
        <time>2012-03-25T10:59:01Z</time>
      </trkpt>
      <trkpt lat="45.27724" lon="1.99409">
        <ele>583</ele>
        <time>2012-03-25T10:59:03Z</time>
      </trkpt>
      <trkpt lat="45.27713" lon="1.99383">
        <ele>583</ele>
        <time>2012-03-25T10:59:04Z</time>
      </trkpt>
      <trkpt lat="45.27707" lon="1.99373">
        <ele>582</ele>
        <time>2012-03-25T10:59:05Z</time>
      </trkpt>
      <trkpt lat="45.27701" lon="1.99364">
        <ele>582</ele>
        <time>2012-03-25T10:59:07Z</time>
      </trkpt>
      <trkpt lat="45.27687" lon="1.9935">
        <ele>583</ele>
        <time>2012-03-25T10:59:08Z</time>
      </trkpt>
      <trkpt lat="45.27681" lon="1.99343">
        <ele>582</ele>
        <time>2012-03-25T10:59:09Z</time>
      </trkpt>
      <trkpt lat="45.27674" lon="1.99335">
        <ele>582</ele>
        <time>2012-03-25T10:59:11Z</time>
      </trkpt>
      <trkpt lat="45.27664" lon="1.99324">
        <ele>582</ele>
        <time>2012-03-25T10:59:12Z</time>
      </trkpt>
      <trkpt lat="45.2766" lon="1.99318">
        <ele>583</ele>
        <time>2012-03-25T10:59:13Z</time>
      </trkpt>
      <trkpt lat="45.27655" lon="1.99313">
        <ele>583</ele>
        <time>2012-03-25T10:59:15Z</time>
      </trkpt>
      <trkpt lat="45.27649" lon="1.99304">
        <ele>583</ele>
        <time>2012-03-25T10:59:16Z</time>
      </trkpt>
      <trkpt lat="45.27646" lon="1.993">
        <ele>583</ele>
        <time>2012-03-25T10:59:17Z</time>
      </trkpt>
      <trkpt lat="45.27643" lon="1.99296">
        <ele>583</ele>
        <time>2012-03-25T10:59:19Z</time>
      </trkpt>
      <trkpt lat="45.27636" lon="1.99289">
        <ele>583</ele>
        <time>2012-03-25T10:59:20Z</time>
      </trkpt>
      <trkpt lat="45.27634" lon="1.99285">
        <ele>583</ele>
        <time>2012-03-25T10:59:21Z</time>
      </trkpt>
      <trkpt lat="45.27632" lon="1.99281">
        <ele>582</ele>
        <time>2012-03-25T10:59:23Z</time>
      </trkpt>
      <trkpt lat="45.27626" lon="1.99274">
        <ele>582</ele>
        <time>2012-03-25T10:59:24Z</time>
      </trkpt>
      <trkpt lat="45.27624" lon="1.99271">
        <ele>582</ele>
        <time>2012-03-25T10:59:25Z</time>
      </trkpt>
      <trkpt lat="45.27621" lon="1.99268">
        <ele>583</ele>
        <time>2012-03-25T10:59:27Z</time>
      </trkpt>
      <trkpt lat="45.27618" lon="1.99262">
        <ele>584</ele>
        <time>2012-03-25T10:59:28Z</time>
      </trkpt>
      <trkpt lat="45.27617" lon="1.99258">
        <ele>584</ele>
        <time>2012-03-25T10:59:29Z</time>
      </trkpt>
      <trkpt lat="45.27616" lon="1.99254">
        <ele>584</ele>
        <time>2012-03-25T10:59:31Z</time>
      </trkpt>
      <trkpt lat="45.27613" lon="1.99248">
        <ele>585</ele>
        <time>2012-03-25T10:59:32Z</time>
      </trkpt>
      <trkpt lat="45.27611" lon="1.99244">
        <ele>585</ele>
        <time>2012-03-25T10:59:33Z</time>
      </trkpt>
      <trkpt lat="45.2761" lon="1.99241">
        <ele>585</ele>
        <time>2012-03-25T10:59:35Z</time>
      </trkpt>
      <trkpt lat="45.27607" lon="1.99233">
        <ele>585</ele>
        <time>2012-03-25T10:59:36Z</time>
      </trkpt>
      <trkpt lat="45.27605" lon="1.99229">
        <ele>585</ele>
        <time>2012-03-25T10:59:37Z</time>
      </trkpt>
      <trkpt lat="45.27605" lon="1.99225">
        <ele>586</ele>
        <time>2012-03-25T10:59:39Z</time>
      </trkpt>
      <trkpt lat="45.27604" lon="1.99217">
        <ele>586</ele>
        <time>2012-03-25T10:59:40Z</time>
      </trkpt>
      <trkpt lat="45.27604" lon="1.99212">
        <ele>586</ele>
        <time>2012-03-25T10:59:41Z</time>
      </trkpt>
      <trkpt lat="45.27603" lon="1.99209">
        <ele>585</ele>
        <time>2012-03-25T10:59:43Z</time>
      </trkpt>
      <trkpt lat="45.27602" lon="1.99202">
        <ele>586</ele>
        <time>2012-03-25T10:59:44Z</time>
      </trkpt>
      <trkpt lat="45.27601" lon="1.99198">
        <ele>587</ele>
        <time>2012-03-25T10:59:45Z</time>
      </trkpt>
      <trkpt lat="45.27601" lon="1.99194">
        <ele>588</ele>
        <time>2012-03-25T10:59:47Z</time>
      </trkpt>
      <trkpt lat="45.276" lon="1.99188">
        <ele>589</ele>
        <time>2012-03-25T10:59:48Z</time>
      </trkpt>
      <trkpt lat="45.27601" lon="1.99185">
        <ele>589</ele>
        <time>2012-03-25T10:59:49Z</time>
      </trkpt>
      <trkpt lat="45.276" lon="1.99181">
        <ele>589</ele>
        <time>2012-03-25T10:59:51Z</time>
      </trkpt>
      <trkpt lat="45.27598" lon="1.99174">
        <ele>590</ele>
        <time>2012-03-25T10:59:52Z</time>
      </trkpt>
      <trkpt lat="45.27598" lon="1.99169">
        <ele>591</ele>
        <time>2012-03-25T10:59:53Z</time>
      </trkpt>
      <trkpt lat="45.27597" lon="1.99166">
        <ele>591</ele>
        <time>2012-03-25T10:59:55Z</time>
      </trkpt>
      <trkpt lat="45.27597" lon="1.99158">
        <ele>592</ele>
        <time>2012-03-25T10:59:56Z</time>
      </trkpt>
      <trkpt lat="45.27597" lon="1.99153">
        <ele>592</ele>
        <time>2012-03-25T10:59:57Z</time>
      </trkpt>
      <trkpt lat="45.27596" lon="1.99149">
        <ele>592</ele>
        <time>2012-03-25T10:59:59Z</time>
      </trkpt>
      <trkpt lat="45.27599" lon="1.99138">
        <ele>593</ele>
        <time>2012-03-25T11:00:00Z</time>
      </trkpt>
      <trkpt lat="45.27598" lon="1.99137">
        <ele>594</ele>
        <time>2012-03-25T11:00:01Z</time>
      </trkpt>
      <trkpt lat="45.27597" lon="1.99133">
        <ele>594</ele>
        <time>2012-03-25T11:00:03Z</time>
      </trkpt>
      <trkpt lat="45.27597" lon="1.99125">
        <ele>594</ele>
        <time>2012-03-25T11:00:04Z</time>
      </trkpt>
      <trkpt lat="45.27597" lon="1.99121">
        <ele>594</ele>
        <time>2012-03-25T11:00:05Z</time>
      </trkpt>
      <trkpt lat="45.27598" lon="1.99111">
        <ele>593</ele>
        <time>2012-03-25T11:00:07Z</time>
      </trkpt>
      <trkpt lat="45.27598" lon="1.99102">
        <ele>594</ele>
        <time>2012-03-25T11:00:08Z</time>
      </trkpt>
      <trkpt lat="45.27598" lon="1.99098">
        <ele>594</ele>
        <time>2012-03-25T11:00:09Z</time>
      </trkpt>
      <trkpt lat="45.27599" lon="1.99095">
        <ele>594</ele>
        <time>2012-03-25T11:00:11Z</time>
      </trkpt>
      <trkpt lat="45.27601" lon="1.99084">
        <ele>594</ele>
        <time>2012-03-25T11:00:12Z</time>
      </trkpt>
      <trkpt lat="45.27602" lon="1.99078">
        <ele>594</ele>
        <time>2012-03-25T11:00:13Z</time>
      </trkpt>
      <trkpt lat="45.27602" lon="1.99073">
        <ele>595</ele>
        <time>2012-03-25T11:00:15Z</time>
      </trkpt>
      <trkpt lat="45.27603" lon="1.99061">
        <ele>594</ele>
        <time>2012-03-25T11:00:16Z</time>
      </trkpt>
      <trkpt lat="45.27603" lon="1.99056">
        <ele>594</ele>
        <time>2012-03-25T11:00:17Z</time>
      </trkpt>
      <trkpt lat="45.27604" lon="1.99048">
        <ele>595</ele>
        <time>2012-03-25T11:00:19Z</time>
      </trkpt>
      <trkpt lat="45.27606" lon="1.99039">
        <ele>595</ele>
        <time>2012-03-25T11:00:20Z</time>
      </trkpt>
      <trkpt lat="45.27606" lon="1.99035">
        <ele>595</ele>
        <time>2012-03-25T11:00:21Z</time>
      </trkpt>
      <trkpt lat="45.27606" lon="1.99031">
        <ele>595</ele>
        <time>2012-03-25T11:00:23Z</time>
      </trkpt>
      <trkpt lat="45.27608" lon="1.99022">
        <ele>595</ele>
        <time>2012-03-25T11:00:24Z</time>
      </trkpt>
      <trkpt lat="45.27608" lon="1.99016">
        <ele>596</ele>
        <time>2012-03-25T11:00:25Z</time>
      </trkpt>
      <trkpt lat="45.27609" lon="1.99012">
        <ele>595</ele>
        <time>2012-03-25T11:00:27Z</time>
      </trkpt>
      <trkpt lat="45.2761" lon="1.99002">
        <ele>595</ele>
        <time>2012-03-25T11:00:28Z</time>
      </trkpt>
      <trkpt lat="45.2761" lon="1.98997">
        <ele>596</ele>
        <time>2012-03-25T11:00:29Z</time>
      </trkpt>
      <trkpt lat="45.27611" lon="1.9899">
        <ele>595</ele>
        <time>2012-03-25T11:00:31Z</time>
      </trkpt>
      <trkpt lat="45.27612" lon="1.98982">
        <ele>595</ele>
        <time>2012-03-25T11:00:32Z</time>
      </trkpt>
      <trkpt lat="45.27613" lon="1.98977">
        <ele>596</ele>
        <time>2012-03-25T11:00:33Z</time>
      </trkpt>
      <trkpt lat="45.27614" lon="1.98973">
        <ele>597</ele>
        <time>2012-03-25T11:00:35Z</time>
      </trkpt>
      <trkpt lat="45.27616" lon="1.98964">
        <ele>597</ele>
        <time>2012-03-25T11:00:36Z</time>
      </trkpt>
      <trkpt lat="45.27616" lon="1.9896">
        <ele>597</ele>
        <time>2012-03-25T11:00:37Z</time>
      </trkpt>
      <trkpt lat="45.27617" lon="1.98955">
        <ele>597</ele>
        <time>2012-03-25T11:00:39Z</time>
      </trkpt>
      <trkpt lat="45.27619" lon="1.98944">
        <ele>596</ele>
        <time>2012-03-25T11:00:40Z</time>
      </trkpt>
      <trkpt lat="45.2762" lon="1.98937">
        <ele>595</ele>
        <time>2012-03-25T11:00:41Z</time>
      </trkpt>
      <trkpt lat="45.2762" lon="1.98933">
        <ele>596</ele>
        <time>2012-03-25T11:00:43Z</time>
      </trkpt>
      <trkpt lat="45.27624" lon="1.98922">
        <ele>597</ele>
        <time>2012-03-25T11:00:44Z</time>
      </trkpt>
      <trkpt lat="45.27624" lon="1.98918">
        <ele>597</ele>
        <time>2012-03-25T11:00:45Z</time>
      </trkpt>
      <trkpt lat="45.27624" lon="1.98913">
        <ele>596</ele>
        <time>2012-03-25T11:00:47Z</time>
      </trkpt>
      <trkpt lat="45.27625" lon="1.98902">
        <ele>595</ele>
        <time>2012-03-25T11:00:48Z</time>
      </trkpt>
      <trkpt lat="45.27628" lon="1.98896">
        <ele>595</ele>
        <time>2012-03-25T11:00:49Z</time>
      </trkpt>
      <trkpt lat="45.27628" lon="1.98891">
        <ele>595</ele>
        <time>2012-03-25T11:00:51Z</time>
      </trkpt>
      <trkpt lat="45.27629" lon="1.9888">
        <ele>595</ele>
        <time>2012-03-25T11:00:52Z</time>
      </trkpt>
      <trkpt lat="45.27631" lon="1.98875">
        <ele>595</ele>
        <time>2012-03-25T11:00:53Z</time>
      </trkpt>
      <trkpt lat="45.27632" lon="1.9887">
        <ele>596</ele>
        <time>2012-03-25T11:00:54Z</time>
      </trkpt>
      <trkpt lat="45.27633" lon="1.98865">
        <ele>596</ele>
        <time>2012-03-25T11:00:55Z</time>
      </trkpt>
      <trkpt lat="45.27635" lon="1.98858">
        <ele>597</ele>
        <time>2012-03-25T11:00:56Z</time>
      </trkpt>
      <trkpt lat="45.27636" lon="1.98852">
        <ele>597</ele>
        <time>2012-03-25T11:00:57Z</time>
      </trkpt>
      <trkpt lat="45.27637" lon="1.98846">
        <ele>598</ele>
        <time>2012-03-25T11:00:58Z</time>
      </trkpt>
      <trkpt lat="45.27638" lon="1.9884">
        <ele>597</ele>
        <time>2012-03-25T11:00:59Z</time>
      </trkpt>
      <trkpt lat="45.27639" lon="1.98834">
        <ele>597</ele>
        <time>2012-03-25T11:01:00Z</time>
      </trkpt>
      <trkpt lat="45.2764" lon="1.98828">
        <ele>597</ele>
        <time>2012-03-25T11:01:01Z</time>
      </trkpt>
      <trkpt lat="45.27641" lon="1.98823">
        <ele>597</ele>
        <time>2012-03-25T11:01:02Z</time>
      </trkpt>
      <trkpt lat="45.27642" lon="1.98817">
        <ele>597</ele>
        <time>2012-03-25T11:01:03Z</time>
      </trkpt>
      <trkpt lat="45.27643" lon="1.98811">
        <ele>597</ele>
        <time>2012-03-25T11:01:04Z</time>
      </trkpt>
      <trkpt lat="45.27645" lon="1.98805">
        <ele>597</ele>
        <time>2012-03-25T11:01:05Z</time>
      </trkpt>
      <trkpt lat="45.27647" lon="1.98798">
        <ele>597</ele>
        <time>2012-03-25T11:01:06Z</time>
      </trkpt>
      <trkpt lat="45.27648" lon="1.98793">
        <ele>597</ele>
        <time>2012-03-25T11:01:07Z</time>
      </trkpt>
      <trkpt lat="45.27649" lon="1.98787">
        <ele>597</ele>
        <time>2012-03-25T11:01:08Z</time>
      </trkpt>
      <trkpt lat="45.2765" lon="1.9878">
        <ele>597</ele>
        <time>2012-03-25T11:01:09Z</time>
      </trkpt>
      <trkpt lat="45.27652" lon="1.98774">
        <ele>597</ele>
        <time>2012-03-25T11:01:10Z</time>
      </trkpt>
      <trkpt lat="45.27653" lon="1.98769">
        <ele>597</ele>
        <time>2012-03-25T11:01:11Z</time>
      </trkpt>
      <trkpt lat="45.27654" lon="1.98763">
        <ele>597</ele>
        <time>2012-03-25T11:01:12Z</time>
      </trkpt>
      <trkpt lat="45.27655" lon="1.98757">
        <ele>598</ele>
        <time>2012-03-25T11:01:13Z</time>
      </trkpt>
      <trkpt lat="45.27656" lon="1.98754">
        <ele>598</ele>
        <time>2012-03-25T11:01:14Z</time>
      </trkpt>
      <trkpt lat="45.27657" lon="1.98751">
        <ele>599</ele>
        <time>2012-03-25T11:01:16Z</time>
      </trkpt>
      <trkpt lat="45.27657" lon="1.98747">
        <ele>600</ele>
        <time>2012-03-25T11:01:17Z</time>
      </trkpt>
      <trkpt lat="45.27657" lon="1.98742">
        <ele>600</ele>
        <time>2012-03-25T11:01:18Z</time>
      </trkpt>
      <trkpt lat="45.27657" lon="1.98738">
        <ele>601</ele>
        <time>2012-03-25T11:01:19Z</time>
      </trkpt>
      <trkpt lat="45.27658" lon="1.98732">
        <ele>602</ele>
        <time>2012-03-25T11:01:20Z</time>
      </trkpt>
      <trkpt lat="45.2766" lon="1.98725">
        <ele>603</ele>
        <time>2012-03-25T11:01:21Z</time>
      </trkpt>
      <trkpt lat="45.27661" lon="1.98717">
        <ele>603</ele>
        <time>2012-03-25T11:01:22Z</time>
      </trkpt>
      <trkpt lat="45.27663" lon="1.98708">
        <ele>603</ele>
        <time>2012-03-25T11:01:23Z</time>
      </trkpt>
      <trkpt lat="45.27665" lon="1.98693">
        <ele>603</ele>
        <time>2012-03-25T11:01:24Z</time>
      </trkpt>
      <trkpt lat="45.27668" lon="1.98686">
        <ele>604</ele>
        <time>2012-03-25T11:01:25Z</time>
      </trkpt>
      <trkpt lat="45.27669" lon="1.98681">
        <ele>604</ele>
        <time>2012-03-25T11:01:26Z</time>
      </trkpt>
      <trkpt lat="45.2767" lon="1.98676">
        <ele>604</ele>
        <time>2012-03-25T11:01:28Z</time>
      </trkpt>
      <trkpt lat="45.27669" lon="1.98669">
        <ele>604</ele>
        <time>2012-03-25T11:01:29Z</time>
      </trkpt>
      <trkpt lat="45.27671" lon="1.98659">
        <ele>604</ele>
        <time>2012-03-25T11:01:30Z</time>
      </trkpt>
      <trkpt lat="45.27673" lon="1.98651">
        <ele>604</ele>
        <time>2012-03-25T11:01:32Z</time>
      </trkpt>
      <trkpt lat="45.27675" lon="1.98641">
        <ele>604</ele>
        <time>2012-03-25T11:01:33Z</time>
      </trkpt>
      <trkpt lat="45.27678" lon="1.98625">
        <ele>604</ele>
        <time>2012-03-25T11:01:34Z</time>
      </trkpt>
      <trkpt lat="45.27679" lon="1.98617">
        <ele>604</ele>
        <time>2012-03-25T11:01:36Z</time>
      </trkpt>
      <trkpt lat="45.27682" lon="1.98609">
        <ele>603</ele>
        <time>2012-03-25T11:01:37Z</time>
      </trkpt>
      <trkpt lat="45.27685" lon="1.98588">
        <ele>601</ele>
        <time>2012-03-25T11:01:38Z</time>
      </trkpt>
      <trkpt lat="45.27687" lon="1.98581">
        <ele>601</ele>
        <time>2012-03-25T11:01:40Z</time>
      </trkpt>
      <trkpt lat="45.27688" lon="1.98573">
        <ele>601</ele>
        <time>2012-03-25T11:01:41Z</time>
      </trkpt>
      <trkpt lat="45.27691" lon="1.98556">
        <ele>600</ele>
        <time>2012-03-25T11:01:42Z</time>
      </trkpt>
      <trkpt lat="45.27693" lon="1.98547">
        <ele>599</ele>
        <time>2012-03-25T11:01:44Z</time>
      </trkpt>
      <trkpt lat="45.27698" lon="1.98524">
        <ele>599</ele>
        <time>2012-03-25T11:01:45Z</time>
      </trkpt>
      <trkpt lat="45.277" lon="1.98516">
        <ele>600</ele>
        <time>2012-03-25T11:01:46Z</time>
      </trkpt>
      <trkpt lat="45.277" lon="1.98516">
        <ele>600</ele>
        <time>2012-03-25T11:01:48Z</time>
      </trkpt>
      <trkpt lat="45.27705" lon="1.98494">
        <ele>600</ele>
        <time>2012-03-25T11:01:49Z</time>
      </trkpt>
      <trkpt lat="45.27706" lon="1.98486">
        <ele>600</ele>
        <time>2012-03-25T11:01:50Z</time>
      </trkpt>
      <trkpt lat="45.27707" lon="1.98478">
        <ele>601</ele>
        <time>2012-03-25T11:01:52Z</time>
      </trkpt>
      <trkpt lat="45.27709" lon="1.98464">
        <ele>600</ele>
        <time>2012-03-25T11:01:53Z</time>
      </trkpt>
      <trkpt lat="45.2771" lon="1.98456">
        <ele>600</ele>
        <time>2012-03-25T11:01:54Z</time>
      </trkpt>
      <trkpt lat="45.27712" lon="1.98449">
        <ele>599</ele>
        <time>2012-03-25T11:01:56Z</time>
      </trkpt>
      <trkpt lat="45.27714" lon="1.98434">
        <ele>598</ele>
        <time>2012-03-25T11:01:57Z</time>
      </trkpt>
      <trkpt lat="45.27714" lon="1.98434">
        <ele>598</ele>
        <time>2012-03-25T11:01:59Z</time>
      </trkpt>
      <trkpt lat="45.27716" lon="1.98426">
        <ele>598</ele>
        <time>2012-03-25T11:02:00Z</time>
      </trkpt>
      <trkpt lat="45.27717" lon="1.98419">
        <ele>598</ele>
        <time>2012-03-25T11:02:01Z</time>
      </trkpt>
      <trkpt lat="45.27719" lon="1.98411">
        <ele>598</ele>
        <time>2012-03-25T11:02:02Z</time>
      </trkpt>
      <trkpt lat="45.2772" lon="1.98403">
        <ele>598</ele>
        <time>2012-03-25T11:02:04Z</time>
      </trkpt>
      <trkpt lat="45.27722" lon="1.98395">
        <ele>597</ele>
        <time>2012-03-25T11:02:05Z</time>
      </trkpt>
      <trkpt lat="45.27724" lon="1.98379">
        <ele>597</ele>
        <time>2012-03-25T11:02:06Z</time>
      </trkpt>
      <trkpt lat="45.27726" lon="1.98371">
        <ele>597</ele>
        <time>2012-03-25T11:02:08Z</time>
      </trkpt>
      <trkpt lat="45.27728" lon="1.98363">
        <ele>597</ele>
        <time>2012-03-25T11:02:09Z</time>
      </trkpt>
      <trkpt lat="45.27731" lon="1.98347">
        <ele>597</ele>
        <time>2012-03-25T11:02:10Z</time>
      </trkpt>
      <trkpt lat="45.27732" lon="1.98339">
        <ele>597</ele>
        <time>2012-03-25T11:02:12Z</time>
      </trkpt>
      <trkpt lat="45.27734" lon="1.98333">
        <ele>598</ele>
        <time>2012-03-25T11:02:13Z</time>
      </trkpt>
      <trkpt lat="45.27737" lon="1.98318">
        <ele>599</ele>
        <time>2012-03-25T11:02:14Z</time>
      </trkpt>
      <trkpt lat="45.2774" lon="1.98303">
        <ele>598</ele>
        <time>2012-03-25T11:02:16Z</time>
      </trkpt>
      <trkpt lat="45.27743" lon="1.98287">
        <ele>598</ele>
        <time>2012-03-25T11:02:17Z</time>
      </trkpt>
      <trkpt lat="45.27745" lon="1.98279">
        <ele>598</ele>
        <time>2012-03-25T11:02:18Z</time>
      </trkpt>
      <trkpt lat="45.27746" lon="1.98271">
        <ele>598</ele>
        <time>2012-03-25T11:02:20Z</time>
      </trkpt>
      <trkpt lat="45.27749" lon="1.98254">
        <ele>597</ele>
        <time>2012-03-25T11:02:21Z</time>
      </trkpt>
      <trkpt lat="45.2775" lon="1.98247">
        <ele>597</ele>
        <time>2012-03-25T11:02:22Z</time>
      </trkpt>
      <trkpt lat="45.27751" lon="1.98239">
        <ele>597</ele>
        <time>2012-03-25T11:02:24Z</time>
      </trkpt>
      <trkpt lat="45.27753" lon="1.98225">
        <ele>597</ele>
        <time>2012-03-25T11:02:25Z</time>
      </trkpt>
      <trkpt lat="45.27755" lon="1.98218">
        <ele>597</ele>
        <time>2012-03-25T11:02:26Z</time>
      </trkpt>
      <trkpt lat="45.27756" lon="1.98212">
        <ele>597</ele>
        <time>2012-03-25T11:02:28Z</time>
      </trkpt>
      <trkpt lat="45.27758" lon="1.98199">
        <ele>598</ele>
        <time>2012-03-25T11:02:29Z</time>
      </trkpt>
      <trkpt lat="45.27759" lon="1.98193">
        <ele>598</ele>
        <time>2012-03-25T11:02:30Z</time>
      </trkpt>
      <trkpt lat="45.2776" lon="1.98187">
        <ele>599</ele>
        <time>2012-03-25T11:02:32Z</time>
      </trkpt>
      <trkpt lat="45.27763" lon="1.98175">
        <ele>600</ele>
        <time>2012-03-25T11:02:33Z</time>
      </trkpt>
      <trkpt lat="45.27764" lon="1.98169">
        <ele>600</ele>
        <time>2012-03-25T11:02:34Z</time>
      </trkpt>
      <trkpt lat="45.27765" lon="1.98163">
        <ele>600</ele>
        <time>2012-03-25T11:02:36Z</time>
      </trkpt>
      <trkpt lat="45.27767" lon="1.98152">
        <ele>602</ele>
        <time>2012-03-25T11:02:37Z</time>
      </trkpt>
      <trkpt lat="45.27768" lon="1.98146">
        <ele>602</ele>
        <time>2012-03-25T11:02:38Z</time>
      </trkpt>
      <trkpt lat="45.27768" lon="1.9814">
        <ele>602</ele>
        <time>2012-03-25T11:02:40Z</time>
      </trkpt>
      <trkpt lat="45.27771" lon="1.98127">
        <ele>603</ele>
        <time>2012-03-25T11:02:41Z</time>
      </trkpt>
      <trkpt lat="45.27772" lon="1.9812">
        <ele>603</ele>
        <time>2012-03-25T11:02:42Z</time>
      </trkpt>
      <trkpt lat="45.27773" lon="1.98114">
        <ele>604</ele>
        <time>2012-03-25T11:02:44Z</time>
      </trkpt>
      <trkpt lat="45.27777" lon="1.98099">
        <ele>604</ele>
        <time>2012-03-25T11:02:45Z</time>
      </trkpt>
      <trkpt lat="45.27779" lon="1.98091">
        <ele>604</ele>
        <time>2012-03-25T11:02:46Z</time>
      </trkpt>
      <trkpt lat="45.2778" lon="1.98083">
        <ele>604</ele>
        <time>2012-03-25T11:02:48Z</time>
      </trkpt>
      <trkpt lat="45.27785" lon="1.98068">
        <ele>603</ele>
        <time>2012-03-25T11:02:49Z</time>
      </trkpt>
      <trkpt lat="45.27786" lon="1.98062">
        <ele>603</ele>
        <time>2012-03-25T11:02:50Z</time>
      </trkpt>
      <trkpt lat="45.27787" lon="1.98055">
        <ele>603</ele>
        <time>2012-03-25T11:02:52Z</time>
      </trkpt>
      <trkpt lat="45.27789" lon="1.98043">
        <ele>604</ele>
        <time>2012-03-25T11:02:53Z</time>
      </trkpt>
      <trkpt lat="45.2779" lon="1.98037">
        <ele>603</ele>
        <time>2012-03-25T11:02:54Z</time>
      </trkpt>
      <trkpt lat="45.27791" lon="1.98031">
        <ele>603</ele>
        <time>2012-03-25T11:02:56Z</time>
      </trkpt>
      <trkpt lat="45.27794" lon="1.98019">
        <ele>604</ele>
        <time>2012-03-25T11:02:57Z</time>
      </trkpt>
      <trkpt lat="45.27795" lon="1.98014">
        <ele>604</ele>
        <time>2012-03-25T11:02:58Z</time>
      </trkpt>
      <trkpt lat="45.27796" lon="1.98008">
        <ele>604</ele>
        <time>2012-03-25T11:03:00Z</time>
      </trkpt>
      <trkpt lat="45.27798" lon="1.97997">
        <ele>605</ele>
        <time>2012-03-25T11:03:01Z</time>
      </trkpt>
      <trkpt lat="45.278" lon="1.97991">
        <ele>605</ele>
        <time>2012-03-25T11:03:02Z</time>
      </trkpt>
      <trkpt lat="45.27801" lon="1.97986">
        <ele>605</ele>
        <time>2012-03-25T11:03:04Z</time>
      </trkpt>
      <trkpt lat="45.27803" lon="1.97974">
        <ele>605</ele>
        <time>2012-03-25T11:03:05Z</time>
      </trkpt>
      <trkpt lat="45.27804" lon="1.97968">
        <ele>605</ele>
        <time>2012-03-25T11:03:06Z</time>
      </trkpt>
      <trkpt lat="45.27804" lon="1.97963">
        <ele>604</ele>
        <time>2012-03-25T11:03:08Z</time>
      </trkpt>
      <trkpt lat="45.27807" lon="1.97951">
        <ele>603</ele>
        <time>2012-03-25T11:03:09Z</time>
      </trkpt>
      <trkpt lat="45.27807" lon="1.97947">
        <ele>603</ele>
        <time>2012-03-25T11:03:10Z</time>
      </trkpt>
      <trkpt lat="45.27808" lon="1.97941">
        <ele>603</ele>
        <time>2012-03-25T11:03:12Z</time>
      </trkpt>
      <trkpt lat="45.2781" lon="1.97932">
        <ele>604</ele>
        <time>2012-03-25T11:03:13Z</time>
      </trkpt>
      <trkpt lat="45.27811" lon="1.97926">
        <ele>604</ele>
        <time>2012-03-25T11:03:14Z</time>
      </trkpt>
      <trkpt lat="45.27812" lon="1.97919">
        <ele>604</ele>
        <time>2012-03-25T11:03:16Z</time>
      </trkpt>
      <trkpt lat="45.27813" lon="1.97908">
        <ele>605</ele>
        <time>2012-03-25T11:03:17Z</time>
      </trkpt>
      <trkpt lat="45.27813" lon="1.97904">
        <ele>604</ele>
        <time>2012-03-25T11:03:18Z</time>
      </trkpt>
      <trkpt lat="45.27815" lon="1.97896">
        <ele>604</ele>
        <time>2012-03-25T11:03:20Z</time>
      </trkpt>
      <trkpt lat="45.27817" lon="1.97884">
        <ele>605</ele>
        <time>2012-03-25T11:03:21Z</time>
      </trkpt>
      <trkpt lat="45.27818" lon="1.97878">
        <ele>605</ele>
        <time>2012-03-25T11:03:22Z</time>
      </trkpt>
      <trkpt lat="45.2782" lon="1.97873">
        <ele>605</ele>
        <time>2012-03-25T11:03:24Z</time>
      </trkpt>
      <trkpt lat="45.27822" lon="1.97863">
        <ele>606</ele>
        <time>2012-03-25T11:03:25Z</time>
      </trkpt>
      <trkpt lat="45.27823" lon="1.97859">
        <ele>606</ele>
        <time>2012-03-25T11:03:26Z</time>
      </trkpt>
      <trkpt lat="45.27824" lon="1.97852">
        <ele>607</ele>
        <time>2012-03-25T11:03:28Z</time>
      </trkpt>
      <trkpt lat="45.27826" lon="1.97841">
        <ele>607</ele>
        <time>2012-03-25T11:03:29Z</time>
      </trkpt>
      <trkpt lat="45.27827" lon="1.97836">
        <ele>607</ele>
        <time>2012-03-25T11:03:30Z</time>
      </trkpt>
      <trkpt lat="45.27829" lon="1.9783">
        <ele>607</ele>
        <time>2012-03-25T11:03:32Z</time>
      </trkpt>
      <trkpt lat="45.2783" lon="1.97819">
        <ele>607</ele>
        <time>2012-03-25T11:03:33Z</time>
      </trkpt>
      <trkpt lat="45.27831" lon="1.97814">
        <ele>608</ele>
        <time>2012-03-25T11:03:34Z</time>
      </trkpt>
      <trkpt lat="45.27834" lon="1.97808">
        <ele>608</ele>
        <time>2012-03-25T11:03:36Z</time>
      </trkpt>
      <trkpt lat="45.27836" lon="1.97795">
        <ele>608</ele>
        <time>2012-03-25T11:03:37Z</time>
      </trkpt>
      <trkpt lat="45.27837" lon="1.9779">
        <ele>608</ele>
        <time>2012-03-25T11:03:38Z</time>
      </trkpt>
      <trkpt lat="45.27838" lon="1.97783">
        <ele>608</ele>
        <time>2012-03-25T11:03:40Z</time>
      </trkpt>
      <trkpt lat="45.2784" lon="1.97771">
        <ele>608</ele>
        <time>2012-03-25T11:03:41Z</time>
      </trkpt>
      <trkpt lat="45.27842" lon="1.97765">
        <ele>608</ele>
        <time>2012-03-25T11:03:42Z</time>
      </trkpt>
      <trkpt lat="45.27842" lon="1.97759">
        <ele>609</ele>
        <time>2012-03-25T11:03:44Z</time>
      </trkpt>
      <trkpt lat="45.27845" lon="1.97748">
        <ele>610</ele>
        <time>2012-03-25T11:03:45Z</time>
      </trkpt>
      <trkpt lat="45.27846" lon="1.97742">
        <ele>610</ele>
        <time>2012-03-25T11:03:46Z</time>
      </trkpt>
      <trkpt lat="45.27848" lon="1.97736">
        <ele>609</ele>
        <time>2012-03-25T11:03:48Z</time>
      </trkpt>
      <trkpt lat="45.27849" lon="1.97724">
        <ele>610</ele>
        <time>2012-03-25T11:03:49Z</time>
      </trkpt>
      <trkpt lat="45.2785" lon="1.97717">
        <ele>610</ele>
        <time>2012-03-25T11:03:50Z</time>
      </trkpt>
      <trkpt lat="45.27852" lon="1.97711">
        <ele>611</ele>
        <time>2012-03-25T11:03:52Z</time>
      </trkpt>
      <trkpt lat="45.27854" lon="1.97699">
        <ele>611</ele>
        <time>2012-03-25T11:03:53Z</time>
      </trkpt>
      <trkpt lat="45.27854" lon="1.97695">
        <ele>611</ele>
        <time>2012-03-25T11:03:54Z</time>
      </trkpt>
      <trkpt lat="45.27855" lon="1.97689">
        <ele>611</ele>
        <time>2012-03-25T11:03:56Z</time>
      </trkpt>
      <trkpt lat="45.27856" lon="1.9768">
        <ele>611</ele>
        <time>2012-03-25T11:03:57Z</time>
      </trkpt>
      <trkpt lat="45.27857" lon="1.97675">
        <ele>611</ele>
        <time>2012-03-25T11:03:58Z</time>
      </trkpt>
      <trkpt lat="45.27858" lon="1.97669">
        <ele>611</ele>
        <time>2012-03-25T11:04:00Z</time>
      </trkpt>
      <trkpt lat="45.27859" lon="1.9766">
        <ele>612</ele>
        <time>2012-03-25T11:04:01Z</time>
      </trkpt>
      <trkpt lat="45.2786" lon="1.97655">
        <ele>612</ele>
        <time>2012-03-25T11:04:02Z</time>
      </trkpt>
      <trkpt lat="45.27862" lon="1.97649">
        <ele>612</ele>
        <time>2012-03-25T11:04:04Z</time>
      </trkpt>
      <trkpt lat="45.27864" lon="1.97638">
        <ele>612</ele>
        <time>2012-03-25T11:04:05Z</time>
      </trkpt>
      <trkpt lat="45.27866" lon="1.97632">
        <ele>613</ele>
        <time>2012-03-25T11:04:06Z</time>
      </trkpt>
      <trkpt lat="45.27867" lon="1.97625">
        <ele>612</ele>
        <time>2012-03-25T11:04:08Z</time>
      </trkpt>
      <trkpt lat="45.27873" lon="1.97611">
        <ele>612</ele>
        <time>2012-03-25T11:04:09Z</time>
      </trkpt>
      <trkpt lat="45.27877" lon="1.97604">
        <ele>611</ele>
        <time>2012-03-25T11:04:10Z</time>
      </trkpt>
      <trkpt lat="45.27881" lon="1.97597">
        <ele>611</ele>
        <time>2012-03-25T11:04:12Z</time>
      </trkpt>
      <trkpt lat="45.27888" lon="1.97584">
        <ele>610</ele>
        <time>2012-03-25T11:04:13Z</time>
      </trkpt>
      <trkpt lat="45.27892" lon="1.97578">
        <ele>610</ele>
        <time>2012-03-25T11:04:14Z</time>
      </trkpt>
      <trkpt lat="45.27896" lon="1.97572">
        <ele>609</ele>
        <time>2012-03-25T11:04:16Z</time>
      </trkpt>
      <trkpt lat="45.27902" lon="1.97558">
        <ele>610</ele>
        <time>2012-03-25T11:04:17Z</time>
      </trkpt>
      <trkpt lat="45.27905" lon="1.9755">
        <ele>610</ele>
        <time>2012-03-25T11:04:18Z</time>
      </trkpt>
      <trkpt lat="45.27906" lon="1.97543">
        <ele>610</ele>
        <time>2012-03-25T11:04:20Z</time>
      </trkpt>
      <trkpt lat="45.2791" lon="1.97528">
        <ele>609</ele>
        <time>2012-03-25T11:04:21Z</time>
      </trkpt>
      <trkpt lat="45.2791" lon="1.97518">
        <ele>608</ele>
        <time>2012-03-25T11:04:22Z</time>
      </trkpt>
      <trkpt lat="45.2791" lon="1.97511">
        <ele>609</ele>
        <time>2012-03-25T11:04:24Z</time>
      </trkpt>
      <trkpt lat="45.27906" lon="1.97496">
        <ele>608</ele>
        <time>2012-03-25T11:04:25Z</time>
      </trkpt>
      <trkpt lat="45.27904" lon="1.97487">
        <ele>609</ele>
        <time>2012-03-25T11:04:26Z</time>
      </trkpt>
      <trkpt lat="45.27902" lon="1.97479">
        <ele>609</ele>
        <time>2012-03-25T11:04:28Z</time>
      </trkpt>
      <trkpt lat="45.27897" lon="1.97463">
        <ele>608</ele>
        <time>2012-03-25T11:04:29Z</time>
      </trkpt>
      <trkpt lat="45.27894" lon="1.97455">
        <ele>609</ele>
        <time>2012-03-25T11:04:30Z</time>
      </trkpt>
      <trkpt lat="45.27892" lon="1.97446">
        <ele>609</ele>
        <time>2012-03-25T11:04:32Z</time>
      </trkpt>
      <trkpt lat="45.27886" lon="1.9743">
        <ele>609</ele>
        <time>2012-03-25T11:04:33Z</time>
      </trkpt>
      <trkpt lat="45.27884" lon="1.97423">
        <ele>609</ele>
        <time>2012-03-25T11:04:34Z</time>
      </trkpt>
      <trkpt lat="45.27881" lon="1.97414">
        <ele>609</ele>
        <time>2012-03-25T11:04:36Z</time>
      </trkpt>
      <trkpt lat="45.27877" lon="1.97398">
        <ele>609</ele>
        <time>2012-03-25T11:04:37Z</time>
      </trkpt>
      <trkpt lat="45.27874" lon="1.9739">
        <ele>609</ele>
        <time>2012-03-25T11:04:38Z</time>
      </trkpt>
      <trkpt lat="45.27872" lon="1.97383">
        <ele>609</ele>
        <time>2012-03-25T11:04:40Z</time>
      </trkpt>
      <trkpt lat="45.27867" lon="1.97368">
        <ele>608</ele>
        <time>2012-03-25T11:04:41Z</time>
      </trkpt>
      <trkpt lat="45.27864" lon="1.97361">
        <ele>608</ele>
        <time>2012-03-25T11:04:42Z</time>
      </trkpt>
      <trkpt lat="45.27862" lon="1.97354">
        <ele>609</ele>
        <time>2012-03-25T11:04:44Z</time>
      </trkpt>
      <trkpt lat="45.27858" lon="1.97341">
        <ele>609</ele>
        <time>2012-03-25T11:04:45Z</time>
      </trkpt>
      <trkpt lat="45.27856" lon="1.97334">
        <ele>609</ele>
        <time>2012-03-25T11:04:46Z</time>
      </trkpt>
      <trkpt lat="45.27853" lon="1.97327">
        <ele>609</ele>
        <time>2012-03-25T11:04:48Z</time>
      </trkpt>
      <trkpt lat="45.2785" lon="1.97312">
        <ele>609</ele>
        <time>2012-03-25T11:04:49Z</time>
      </trkpt>
      <trkpt lat="45.27848" lon="1.97304">
        <ele>609</ele>
        <time>2012-03-25T11:04:50Z</time>
      </trkpt>
      <trkpt lat="45.27846" lon="1.97297">
        <ele>609</ele>
        <time>2012-03-25T11:04:52Z</time>
      </trkpt>
      <trkpt lat="45.27841" lon="1.97282">
        <ele>609</ele>
        <time>2012-03-25T11:04:53Z</time>
      </trkpt>
      <trkpt lat="45.27839" lon="1.97276">
        <ele>609</ele>
        <time>2012-03-25T11:04:54Z</time>
      </trkpt>
      <trkpt lat="45.27835" lon="1.97269">
        <ele>609</ele>
        <time>2012-03-25T11:04:56Z</time>
      </trkpt>
      <trkpt lat="45.27831" lon="1.97253">
        <ele>610</ele>
        <time>2012-03-25T11:04:57Z</time>
      </trkpt>
      <trkpt lat="45.27829" lon="1.97246">
        <ele>610</ele>
        <time>2012-03-25T11:04:58Z</time>
      </trkpt>
      <trkpt lat="45.27826" lon="1.97238">
        <ele>610</ele>
        <time>2012-03-25T11:05:00Z</time>
      </trkpt>
      <trkpt lat="45.27823" lon="1.97222">
        <ele>609</ele>
        <time>2012-03-25T11:05:01Z</time>
      </trkpt>
      <trkpt lat="45.27823" lon="1.97213">
        <ele>609</ele>
        <time>2012-03-25T11:05:02Z</time>
      </trkpt>
      <trkpt lat="45.27819" lon="1.97206">
        <ele>609</ele>
        <time>2012-03-25T11:05:04Z</time>
      </trkpt>
      <trkpt lat="45.2782" lon="1.9719">
        <ele>609</ele>
        <time>2012-03-25T11:05:05Z</time>
      </trkpt>
      <trkpt lat="45.27823" lon="1.97182">
        <ele>608</ele>
        <time>2012-03-25T11:05:06Z</time>
      </trkpt>
      <trkpt lat="45.27827" lon="1.97175">
        <ele>609</ele>
        <time>2012-03-25T11:05:08Z</time>
      </trkpt>
      <trkpt lat="45.2784" lon="1.97159">
        <ele>607</ele>
        <time>2012-03-25T11:05:09Z</time>
      </trkpt>
      <trkpt lat="45.27845" lon="1.97151">
        <ele>607</ele>
        <time>2012-03-25T11:05:10Z</time>
      </trkpt>
      <trkpt lat="45.27851" lon="1.97142">
        <ele>606</ele>
        <time>2012-03-25T11:05:12Z</time>
      </trkpt>
      <trkpt lat="45.27862" lon="1.97126">
        <ele>605</ele>
        <time>2012-03-25T11:05:13Z</time>
      </trkpt>
      <trkpt lat="45.27868" lon="1.9712">
        <ele>604</ele>
        <time>2012-03-25T11:05:14Z</time>
      </trkpt>
      <trkpt lat="45.27872" lon="1.97112">
        <ele>603</ele>
        <time>2012-03-25T11:05:16Z</time>
      </trkpt>
      <trkpt lat="45.27882" lon="1.97097">
        <ele>603</ele>
        <time>2012-03-25T11:05:17Z</time>
      </trkpt>
      <trkpt lat="45.27886" lon="1.9709">
        <ele>602</ele>
        <time>2012-03-25T11:05:18Z</time>
      </trkpt>
      <trkpt lat="45.27886" lon="1.9709">
        <ele>602</ele>
        <time>2012-03-25T11:05:20Z</time>
      </trkpt>
      <trkpt lat="45.27891" lon="1.97085">
        <ele>601</ele>
        <time>2012-03-25T11:05:21Z</time>
      </trkpt>
      <trkpt lat="45.27901" lon="1.97078">
        <ele>602</ele>
        <time>2012-03-25T11:05:21Z</time>
      </trkpt>
      <trkpt lat="45.27905" lon="1.97077">
        <ele>602</ele>
        <time>2012-03-25T11:05:23Z</time>
      </trkpt>
      <trkpt lat="45.27908" lon="1.97076">
        <ele>603</ele>
        <time>2012-03-25T11:05:24Z</time>
      </trkpt>
      <trkpt lat="45.27915" lon="1.97072">
        <ele>602</ele>
        <time>2012-03-25T11:05:25Z</time>
      </trkpt>
      <trkpt lat="45.27919" lon="1.97071">
        <ele>602</ele>
        <time>2012-03-25T11:05:27Z</time>
      </trkpt>
      <trkpt lat="45.27922" lon="1.97071">
        <ele>602</ele>
        <time>2012-03-25T11:05:28Z</time>
      </trkpt>
      <trkpt lat="45.27929" lon="1.97067">
        <ele>602</ele>
        <time>2012-03-25T11:05:29Z</time>
      </trkpt>
      <trkpt lat="45.27936" lon="1.97067">
        <ele>602</ele>
        <time>2012-03-25T11:05:31Z</time>
      </trkpt>
      <trkpt lat="45.27942" lon="1.97067">
        <ele>602</ele>
        <time>2012-03-25T11:05:32Z</time>
      </trkpt>
      <trkpt lat="45.27947" lon="1.97068">
        <ele>602</ele>
        <time>2012-03-25T11:05:33Z</time>
      </trkpt>
      <trkpt lat="45.27951" lon="1.97068">
        <ele>602</ele>
        <time>2012-03-25T11:05:35Z</time>
      </trkpt>
      <trkpt lat="45.27959" lon="1.9707">
        <ele>602</ele>
        <time>2012-03-25T11:05:36Z</time>
      </trkpt>
      <trkpt lat="45.27963" lon="1.97071">
        <ele>603</ele>
        <time>2012-03-25T11:05:37Z</time>
      </trkpt>
      <trkpt lat="45.27967" lon="1.97071">
        <ele>604</ele>
        <time>2012-03-25T11:05:39Z</time>
      </trkpt>
      <trkpt lat="45.27975" lon="1.97071">
        <ele>605</ele>
        <time>2012-03-25T11:05:40Z</time>
      </trkpt>
      <trkpt lat="45.27979" lon="1.97069">
        <ele>605</ele>
        <time>2012-03-25T11:05:41Z</time>
      </trkpt>
      <trkpt lat="45.27983" lon="1.97069">
        <ele>605</ele>
        <time>2012-03-25T11:05:43Z</time>
      </trkpt>
      <trkpt lat="45.2799" lon="1.97069">
        <ele>605</ele>
        <time>2012-03-25T11:05:44Z</time>
      </trkpt>
      <trkpt lat="45.27993" lon="1.97068">
        <ele>605</ele>
        <time>2012-03-25T11:05:45Z</time>
      </trkpt>
      <trkpt lat="45.27997" lon="1.97068">
        <ele>605</ele>
        <time>2012-03-25T11:05:46Z</time>
      </trkpt>
      <trkpt lat="45.28" lon="1.97067">
        <ele>606</ele>
        <time>2012-03-25T11:05:47Z</time>
      </trkpt>
      <trkpt lat="45.28003" lon="1.97066">
        <ele>607</ele>
        <time>2012-03-25T11:05:48Z</time>
      </trkpt>
      <trkpt lat="45.28007" lon="1.97066">
        <ele>607</ele>
        <time>2012-03-25T11:05:49Z</time>
      </trkpt>
      <trkpt lat="45.28009" lon="1.97065">
        <ele>608</ele>
        <time>2012-03-25T11:05:50Z</time>
      </trkpt>
      <trkpt lat="45.28013" lon="1.97065">
        <ele>608</ele>
        <time>2012-03-25T11:05:51Z</time>
      </trkpt>
      <trkpt lat="45.28015" lon="1.97063">
        <ele>609</ele>
        <time>2012-03-25T11:05:52Z</time>
      </trkpt>
      <trkpt lat="45.28015" lon="1.97062">
        <ele>609</ele>
        <time>2012-03-25T11:05:53Z</time>
      </trkpt>
      <trkpt lat="45.28017" lon="1.97062">
        <ele>609</ele>
        <time>2012-03-25T11:05:54Z</time>
      </trkpt>
      <trkpt lat="45.28021" lon="1.97061">
        <ele>609</ele>
        <time>2012-03-25T11:05:55Z</time>
      </trkpt>
      <trkpt lat="45.28024" lon="1.97061">
        <ele>609</ele>
        <time>2012-03-25T11:05:56Z</time>
      </trkpt>
      <trkpt lat="45.28027" lon="1.97061">
        <ele>609</ele>
        <time>2012-03-25T11:05:57Z</time>
      </trkpt>
      <trkpt lat="45.2803" lon="1.9706">
        <ele>608</ele>
        <time>2012-03-25T11:05:58Z</time>
      </trkpt>
      <trkpt lat="45.28034" lon="1.97058">
        <ele>609</ele>
        <time>2012-03-25T11:05:59Z</time>
      </trkpt>
      <trkpt lat="45.28038" lon="1.97057">
        <ele>610</ele>
        <time>2012-03-25T11:06:00Z</time>
      </trkpt>
      <trkpt lat="45.28043" lon="1.97057">
        <ele>610</ele>
        <time>2012-03-25T11:06:01Z</time>
      </trkpt>
      <trkpt lat="45.28047" lon="1.97057">
        <ele>610</ele>
        <time>2012-03-25T11:06:02Z</time>
      </trkpt>
      <trkpt lat="45.28051" lon="1.97057">
        <ele>610</ele>
        <time>2012-03-25T11:06:03Z</time>
      </trkpt>
      <trkpt lat="45.28056" lon="1.97055">
        <ele>610</ele>
        <time>2012-03-25T11:06:04Z</time>
      </trkpt>
      <trkpt lat="45.28061" lon="1.97054">
        <ele>610</ele>
        <time>2012-03-25T11:06:06Z</time>
      </trkpt>
      <trkpt lat="45.28066" lon="1.97053">
        <ele>611</ele>
        <time>2012-03-25T11:06:07Z</time>
      </trkpt>
      <trkpt lat="45.28071" lon="1.97052">
        <ele>610</ele>
        <time>2012-03-25T11:06:08Z</time>
      </trkpt>
      <trkpt lat="45.2808" lon="1.97052">
        <ele>611</ele>
        <time>2012-03-25T11:06:09Z</time>
      </trkpt>
      <trkpt lat="45.28085" lon="1.97051">
        <ele>611</ele>
        <time>2012-03-25T11:06:10Z</time>
      </trkpt>
      <trkpt lat="45.28091" lon="1.9705">
        <ele>611</ele>
        <time>2012-03-25T11:06:11Z</time>
      </trkpt>
      <trkpt lat="45.28096" lon="1.9705">
        <ele>611</ele>
        <time>2012-03-25T11:06:12Z</time>
      </trkpt>
      <trkpt lat="45.281" lon="1.9705">
        <ele>611</ele>
        <time>2012-03-25T11:06:13Z</time>
      </trkpt>
      <trkpt lat="45.28105" lon="1.9705">
        <ele>611</ele>
        <time>2012-03-25T11:06:14Z</time>
      </trkpt>
      <trkpt lat="45.28109" lon="1.9705">
        <ele>611</ele>
        <time>2012-03-25T11:06:15Z</time>
      </trkpt>
      <trkpt lat="45.28113" lon="1.97049">
        <ele>611</ele>
        <time>2012-03-25T11:06:17Z</time>
      </trkpt>
      <trkpt lat="45.28121" lon="1.97049">
        <ele>611</ele>
        <time>2012-03-25T11:06:18Z</time>
      </trkpt>
      <trkpt lat="45.28125" lon="1.97049">
        <ele>611</ele>
        <time>2012-03-25T11:06:19Z</time>
      </trkpt>
      <trkpt lat="45.28128" lon="1.97049">
        <ele>610</ele>
        <time>2012-03-25T11:06:21Z</time>
      </trkpt>
      <trkpt lat="45.28136" lon="1.97048">
        <ele>611</ele>
        <time>2012-03-25T11:06:22Z</time>
      </trkpt>
      <trkpt lat="45.28141" lon="1.97047">
        <ele>611</ele>
        <time>2012-03-25T11:06:23Z</time>
      </trkpt>
      <trkpt lat="45.28145" lon="1.97047">
        <ele>611</ele>
        <time>2012-03-25T11:06:25Z</time>
      </trkpt>
      <trkpt lat="45.28153" lon="1.97048">
        <ele>611</ele>
        <time>2012-03-25T11:06:26Z</time>
      </trkpt>
      <trkpt lat="45.28157" lon="1.97046">
        <ele>611</ele>
        <time>2012-03-25T11:06:27Z</time>
      </trkpt>
      <trkpt lat="45.2816" lon="1.97046">
        <ele>610</ele>
        <time>2012-03-25T11:06:29Z</time>
      </trkpt>
      <trkpt lat="45.28169" lon="1.97047">
        <ele>610</ele>
        <time>2012-03-25T11:06:30Z</time>
      </trkpt>
      <trkpt lat="45.28172" lon="1.97047">
        <ele>610</ele>
        <time>2012-03-25T11:06:31Z</time>
      </trkpt>
      <trkpt lat="45.28176" lon="1.97047">
        <ele>610</ele>
        <time>2012-03-25T11:06:33Z</time>
      </trkpt>
      <trkpt lat="45.28184" lon="1.97048">
        <ele>610</ele>
        <time>2012-03-25T11:06:34Z</time>
      </trkpt>
      <trkpt lat="45.28187" lon="1.97047">
        <ele>611</ele>
        <time>2012-03-25T11:06:35Z</time>
      </trkpt>
      <trkpt lat="45.28192" lon="1.97048">
        <ele>610</ele>
        <time>2012-03-25T11:06:37Z</time>
      </trkpt>
      <trkpt lat="45.28198" lon="1.97047">
        <ele>610</ele>
        <time>2012-03-25T11:06:38Z</time>
      </trkpt>
      <trkpt lat="45.28202" lon="1.97048">
        <ele>610</ele>
        <time>2012-03-25T11:06:39Z</time>
      </trkpt>
      <trkpt lat="45.28206" lon="1.97048">
        <ele>611</ele>
        <time>2012-03-25T11:06:41Z</time>
      </trkpt>
      <trkpt lat="45.28213" lon="1.97049">
        <ele>611</ele>
        <time>2012-03-25T11:06:42Z</time>
      </trkpt>
      <trkpt lat="45.28215" lon="1.97051">
        <ele>611</ele>
        <time>2012-03-25T11:06:43Z</time>
      </trkpt>
      <trkpt lat="45.28218" lon="1.97054">
        <ele>612</ele>
        <time>2012-03-25T11:06:45Z</time>
      </trkpt>
      <trkpt lat="45.28225" lon="1.97056">
        <ele>612</ele>
        <time>2012-03-25T11:06:46Z</time>
      </trkpt>
      <trkpt lat="45.2823" lon="1.97057">
        <ele>612</ele>
        <time>2012-03-25T11:06:47Z</time>
      </trkpt>
      <trkpt lat="45.28234" lon="1.97057">
        <ele>613</ele>
        <time>2012-03-25T11:06:49Z</time>
      </trkpt>
      <trkpt lat="45.28242" lon="1.97055">
        <ele>612</ele>
        <time>2012-03-25T11:06:50Z</time>
      </trkpt>
      <trkpt lat="45.28246" lon="1.97055">
        <ele>612</ele>
        <time>2012-03-25T11:06:51Z</time>
      </trkpt>
      <trkpt lat="45.28249" lon="1.97054">
        <ele>611</ele>
        <time>2012-03-25T11:06:53Z</time>
      </trkpt>
      <trkpt lat="45.28256" lon="1.97056">
        <ele>612</ele>
        <time>2012-03-25T11:06:54Z</time>
      </trkpt>
      <trkpt lat="45.28259" lon="1.97054">
        <ele>611</ele>
        <time>2012-03-25T11:06:55Z</time>
      </trkpt>
      <trkpt lat="45.28263" lon="1.97052">
        <ele>611</ele>
        <time>2012-03-25T11:06:57Z</time>
      </trkpt>
      <trkpt lat="45.28269" lon="1.97051">
        <ele>612</ele>
        <time>2012-03-25T11:06:58Z</time>
      </trkpt>
      <trkpt lat="45.28272" lon="1.9705">
        <ele>612</ele>
        <time>2012-03-25T11:06:59Z</time>
      </trkpt>
      <trkpt lat="45.28276" lon="1.9705">
        <ele>612</ele>
        <time>2012-03-25T11:07:01Z</time>
      </trkpt>
      <trkpt lat="45.28282" lon="1.97049">
        <ele>612</ele>
        <time>2012-03-25T11:07:02Z</time>
      </trkpt>
      <trkpt lat="45.28285" lon="1.97051">
        <ele>613</ele>
        <time>2012-03-25T11:07:03Z</time>
      </trkpt>
      <trkpt lat="45.28288" lon="1.97049">
        <ele>612</ele>
        <time>2012-03-25T11:07:05Z</time>
      </trkpt>
      <trkpt lat="45.28292" lon="1.97045">
        <ele>612</ele>
        <time>2012-03-25T11:07:06Z</time>
      </trkpt>
      <trkpt lat="45.28293" lon="1.97043">
        <ele>612</ele>
        <time>2012-03-25T11:07:07Z</time>
      </trkpt>
      <trkpt lat="45.28294" lon="1.97038">
        <ele>612</ele>
        <time>2012-03-25T11:07:09Z</time>
      </trkpt>
      <trkpt lat="45.2829" lon="1.97034">
        <ele>613</ele>
        <time>2012-03-25T11:07:10Z</time>
      </trkpt>
      <trkpt lat="45.28289" lon="1.97031">
        <ele>613</ele>
        <time>2012-03-25T11:07:11Z</time>
      </trkpt>
      <trkpt lat="45.28287" lon="1.97028">
        <ele>613</ele>
        <time>2012-03-25T11:07:13Z</time>
      </trkpt>
      <trkpt lat="45.28283" lon="1.97022">
        <ele>614</ele>
        <time>2012-03-25T11:07:14Z</time>
      </trkpt>
      <trkpt lat="45.28281" lon="1.97018">
        <ele>614</ele>
        <time>2012-03-25T11:07:15Z</time>
      </trkpt>
      <trkpt lat="45.28279" lon="1.97015">
        <ele>614</ele>
        <time>2012-03-25T11:07:17Z</time>
      </trkpt>
      <trkpt lat="45.28274" lon="1.97008">
        <ele>614</ele>
        <time>2012-03-25T11:07:18Z</time>
      </trkpt>
      <trkpt lat="45.28273" lon="1.97005">
        <ele>614</ele>
        <time>2012-03-25T11:07:19Z</time>
      </trkpt>
      <trkpt lat="45.28271" lon="1.97001">
        <ele>615</ele>
        <time>2012-03-25T11:07:21Z</time>
      </trkpt>
      <trkpt lat="45.28267" lon="1.96994">
        <ele>615</ele>
        <time>2012-03-25T11:07:22Z</time>
      </trkpt>
      <trkpt lat="45.28265" lon="1.96991">
        <ele>614</ele>
        <time>2012-03-25T11:07:23Z</time>
      </trkpt>
      <trkpt lat="45.28265" lon="1.96987">
        <ele>614</ele>
        <time>2012-03-25T11:07:25Z</time>
      </trkpt>
      <trkpt lat="45.28265" lon="1.9698">
        <ele>614</ele>
        <time>2012-03-25T11:07:26Z</time>
      </trkpt>
      <trkpt lat="45.28266" lon="1.96978">
        <ele>614</ele>
        <time>2012-03-25T11:07:27Z</time>
      </trkpt>
      <trkpt lat="45.28267" lon="1.96975">
        <ele>615</ele>
        <time>2012-03-25T11:07:29Z</time>
      </trkpt>
      <trkpt lat="45.28267" lon="1.96973">
        <ele>615</ele>
        <time>2012-03-25T11:07:30Z</time>
      </trkpt>
      <trkpt lat="45.28267" lon="1.96973">
        <ele>616</ele>
        <time>2012-03-25T11:07:31Z</time>
      </trkpt>
      <trkpt lat="45.28267" lon="1.96973">
        <ele>616</ele>
        <time>2012-03-25T11:07:33Z</time>
      </trkpt>
      <trkpt lat="45.28267" lon="1.96973">
        <ele>617</ele>
        <time>2012-03-25T11:07:34Z</time>
      </trkpt>
      <trkpt lat="45.28267" lon="1.96973">
        <ele>617</ele>
        <time>2012-03-25T11:07:35Z</time>
      </trkpt>
      <trkpt lat="45.28268" lon="1.96973">
        <ele>617</ele>
        <time>2012-03-25T11:07:37Z</time>
      </trkpt>
      <trkpt lat="45.28268" lon="1.96973">
        <ele>617</ele>
        <time>2012-03-25T11:07:38Z</time>
      </trkpt>
      <trkpt lat="45.28268" lon="1.96973">
        <ele>617</ele>
        <time>2012-03-25T11:07:39Z</time>
      </trkpt>
      <trkpt lat="45.28268" lon="1.96974">
        <ele>617</ele>
        <time>2012-03-25T11:07:41Z</time>
      </trkpt>
      <trkpt lat="45.28268" lon="1.96974">
        <ele>616</ele>
        <time>2012-03-25T11:07:42Z</time>
      </trkpt>
    </trkseg>
  </trk>
</gpx>